<?xml version="1.0" encoding="UTF-8"?>
<gpx version="1.1" creator=" " xmlns="http://www.topografix.com/GPX/1/1" xmlns:xsi="http://www.w3.org/2001/XMLSchema-instance" xsi:schemaLocation="http://www.topografix.com/GPX/1/1 http://www.topografix.com/GPX/1/1/gpx.xsd">
<metadata>
<name>Schorndorf</name>
<desc></desc>
<link href="">
<text>  </text>
</link>
<time>2024-05-12T10:45:43Z</time>
</metadata>
<trk>
<trkseg>
<trkpt lat="48.89212416484952" lon="9.184303265064957">
<ele>294</ele>
</trkpt>
<trkpt lat="48.89212416484952" lon="9.184303265064957">
<ele>294</ele>
<time>2024-05-12T10:45:43Z</time>
</trkpt>
<trkpt lat="48.89212416484952" lon="9.184300415217876">
<ele>294.4</ele>
<time>2024-05-12T10:45:44Z</time>
</trkpt>
<trkpt lat="48.89212416484952" lon="9.18429370969534">
<ele>294.8</ele>
<time>2024-05-12T10:45:45Z</time>
</trkpt>
<trkpt lat="48.89212030917406" lon="9.184294631704688">
<ele>295.4</ele>
<time>2024-05-12T10:45:46Z</time>
</trkpt>
<trkpt lat="48.89212030917406" lon="9.18429178185761">
<ele>296</ele>
<time>2024-05-12T10:45:47Z</time>
</trkpt>
<trkpt lat="48.89212793670595" lon="9.184281304478644">
<ele>296.4</ele>
<time>2024-05-12T10:45:49Z</time>
</trkpt>
<trkpt lat="48.89212793670595" lon="9.184283232316377">
<ele>296.8</ele>
<time>2024-05-12T10:45:50Z</time>
</trkpt>
<trkpt lat="48.89212793670595" lon="9.184285160154104">
<ele>297.2</ele>
<time>2024-05-12T10:45:51Z</time>
</trkpt>
<trkpt lat="48.89212416484952" lon="9.184285160154104">
<ele>297.6</ele>
<time>2024-05-12T10:45:52Z</time>
</trkpt>
<trkpt lat="48.892131792381406" lon="9.184278454631569">
<ele>297.8</ele>
<time>2024-05-12T10:45:53Z</time>
</trkpt>
<trkpt lat="48.89213556423783" lon="9.184269905090332">
<ele>298</ele>
<time>2024-05-12T10:45:54Z</time>
</trkpt>
<trkpt lat="48.892131792381406" lon="9.184269905090332">
<ele>298.2</ele>
<time>2024-05-12T10:45:55Z</time>
</trkpt>
<trkpt lat="48.89213556423783" lon="9.184267977252604">
<ele>298.4</ele>
<time>2024-05-12T10:45:56Z</time>
</trkpt>
<trkpt lat="48.89213556423783" lon="9.184266971424222">
<ele>298.6</ele>
<time>2024-05-12T10:45:57Z</time>
</trkpt>
<trkpt lat="48.89214319176972" lon="9.18427174910903">
<ele>298.8</ele>
<time>2024-05-12T10:45:58Z</time>
</trkpt>
<trkpt lat="48.89214704744518" lon="9.184266971424222">
<ele>298.8</ele>
<time>2024-05-12T10:45:59Z</time>
</trkpt>
<trkpt lat="48.89214704744518" lon="9.184265127405524">
<ele>299</ele>
<time>2024-05-12T10:46:00Z</time>
</trkpt>
<trkpt lat="48.892154674977064" lon="9.184256494045258">
<ele>299</ele>
<time>2024-05-12T10:46:01Z</time>
</trkpt>
<trkpt lat="48.89215844683349" lon="9.184243166819217">
<ele>299.2</ele>
<time>2024-05-12T10:46:02Z</time>
</trkpt>
<trkpt lat="48.89215844683349" lon="9.184245094656944">
<ele>299.2</ele>
<time>2024-05-12T10:46:03Z</time>
</trkpt>
<trkpt lat="48.892150819301605" lon="9.18425171636045">
<ele>299.2</ele>
<time>2024-05-12T10:46:04Z</time>
</trkpt>
<trkpt lat="48.892150819301605" lon="9.18425364419818">
<ele>299.2</ele>
<time>2024-05-12T10:46:05Z</time>
</trkpt>
<trkpt lat="48.892150819301605" lon="9.184256494045258">
<ele>299.4</ele>
<time>2024-05-12T10:46:06Z</time>
</trkpt>
<trkpt lat="48.89214704744518" lon="9.184258421882989">
<ele>299.4</ele>
<time>2024-05-12T10:46:07Z</time>
</trkpt>
<trkpt lat="48.892150819301605" lon="9.184256494045258">
<ele>299.4</ele>
<time>2024-05-12T10:46:08Z</time>
</trkpt>
<trkpt lat="48.892150819301605" lon="9.184258421882989">
<ele>299.4</ele>
<time>2024-05-12T10:46:09Z</time>
</trkpt>
<trkpt lat="48.892150819301605" lon="9.184260349720716">
<ele>299.4</ele>
<time>2024-05-12T10:46:11Z</time>
</trkpt>
<trkpt lat="48.892154674977064" lon="9.184258421882989">
<ele>299.2</ele>
<time>2024-05-12T10:46:12Z</time>
</trkpt>
<trkpt lat="48.89215844683349" lon="9.18425364419818">
<ele>299.2</ele>
<time>2024-05-12T10:46:17Z</time>
</trkpt>
<trkpt lat="48.89215844683349" lon="9.184249872341752">
<ele>299.2</ele>
<time>2024-05-12T10:46:18Z</time>
</trkpt>
<trkpt lat="48.89216230250895" lon="9.184241238981484">
<ele>299.2</ele>
<time>2024-05-12T10:46:19Z</time>
</trkpt>
<trkpt lat="48.89216230250895" lon="9.18423461727798">
<ele>299.2</ele>
<time>2024-05-12T10:46:20Z</time>
</trkpt>
<trkpt lat="48.89217370189726" lon="9.1842145845294">
<ele>299.2</ele>
<time>2024-05-12T10:46:21Z</time>
</trkpt>
<trkpt lat="48.89217370189726" lon="9.18421165086329">
<ele>299.2</ele>
<time>2024-05-12T10:46:22Z</time>
</trkpt>
<trkpt lat="48.89217370189726" lon="9.184209806844592">
<ele>299.2</ele>
<time>2024-05-12T10:46:23Z</time>
</trkpt>
<trkpt lat="48.89217370189726" lon="9.184206956997514">
<ele>299.2</ele>
<time>2024-05-12T10:46:25Z</time>
</trkpt>
<trkpt lat="48.89217370189726" lon="9.184205029159784">
<ele>299.2</ele>
<time>2024-05-12T10:46:26Z</time>
</trkpt>
<trkpt lat="48.89217370189726" lon="9.184203101322057">
<ele>299.2</ele>
<time>2024-05-12T10:46:27Z</time>
</trkpt>
<trkpt lat="48.89217370189726" lon="9.184200251474977">
<ele>299</ele>
<time>2024-05-12T10:46:29Z</time>
</trkpt>
<trkpt lat="48.89217755757272" lon="9.184200251474977">
<ele>299</ele>
<time>2024-05-12T10:46:30Z</time>
</trkpt>
<trkpt lat="48.89217370189726" lon="9.184206956997514">
<ele>299</ele>
<time>2024-05-12T10:46:31Z</time>
</trkpt>
<trkpt lat="48.89217370189726" lon="9.18421357870102">
<ele>299</ele>
<time>2024-05-12T10:46:32Z</time>
</trkpt>
<trkpt lat="48.89217370189726" lon="9.184216428548098">
<ele>299</ele>
<time>2024-05-12T10:46:33Z</time>
</trkpt>
<trkpt lat="48.89217370189726" lon="9.184218356385829">
<ele>299</ele>
<time>2024-05-12T10:46:34Z</time>
</trkpt>
<trkpt lat="48.89217370189726" lon="9.184223134070637">
<ele>299</ele>
<time>2024-05-12T10:46:35Z</time>
</trkpt>
<trkpt lat="48.89217370189726" lon="9.184226989746094">
<ele>299</ele>
<time>2024-05-12T10:46:36Z</time>
</trkpt>
<trkpt lat="48.89217370189726" lon="9.18423168361187">
<ele>299</ele>
<time>2024-05-12T10:46:37Z</time>
</trkpt>
<trkpt lat="48.89217755757272" lon="9.18423461727798">
<ele>299</ele>
<time>2024-05-12T10:46:38Z</time>
</trkpt>
<trkpt lat="48.89217370189726" lon="9.184245094656944">
<ele>299</ele>
<time>2024-05-12T10:46:39Z</time>
</trkpt>
<trkpt lat="48.89217370189726" lon="9.184247944504024">
<ele>299</ele>
<time>2024-05-12T10:46:41Z</time>
</trkpt>
<trkpt lat="48.89217370189726" lon="9.18425171636045">
<ele>299</ele>
<time>2024-05-12T10:46:42Z</time>
</trkpt>
<trkpt lat="48.89217370189726" lon="9.18425364419818">
<ele>299</ele>
<time>2024-05-12T10:46:43Z</time>
</trkpt>
<trkpt lat="48.89217370189726" lon="9.184258421882989">
<ele>299</ele>
<time>2024-05-12T10:46:44Z</time>
</trkpt>
<trkpt lat="48.89217370189726" lon="9.184261271730064">
<ele>299</ele>
<time>2024-05-12T10:46:45Z</time>
</trkpt>
<trkpt lat="48.89216993004083" lon="9.184269905090332">
<ele>299</ele>
<time>2024-05-12T10:46:46Z</time>
</trkpt>
<trkpt lat="48.89216993004083" lon="9.18427367694676">
<ele>299</ele>
<time>2024-05-12T10:46:47Z</time>
</trkpt>
<trkpt lat="48.89217370189726" lon="9.184276526793838">
<ele>299</ele>
<time>2024-05-12T10:46:48Z</time>
</trkpt>
<trkpt lat="48.89216993004083" lon="9.184278454631569">
<ele>299</ele>
<time>2024-05-12T10:46:49Z</time>
</trkpt>
<trkpt lat="48.89215844683349" lon="9.184325141832232">
<ele>299</ele>
<time>2024-05-12T10:46:50Z</time>
</trkpt>
<trkpt lat="48.89215844683349" lon="9.184323297813537">
<ele>299</ele>
<time>2024-05-12T10:46:52Z</time>
</trkpt>
<trkpt lat="48.89215844683349" lon="9.184320447966456">
<ele>299</ele>
<time>2024-05-12T10:46:53Z</time>
</trkpt>
<trkpt lat="48.892154674977064" lon="9.184321369975804">
<ele>299</ele>
<time>2024-05-12T10:46:54Z</time>
</trkpt>
<trkpt lat="48.892154674977064" lon="9.184323297813537">
<ele>299</ele>
<time>2024-05-12T10:46:55Z</time>
</trkpt>
<trkpt lat="48.892154674977064" lon="9.18432991951704">
<ele>299</ele>
<time>2024-05-12T10:46:56Z</time>
</trkpt>
<trkpt lat="48.89215844683349" lon="9.184327069669962">
<ele>299</ele>
<time>2024-05-12T10:46:57Z</time>
</trkpt>
<trkpt lat="48.89215844683349" lon="9.184320447966456">
<ele>299</ele>
<time>2024-05-12T10:46:58Z</time>
</trkpt>
<trkpt lat="48.89215844683349" lon="9.184327069669962">
<ele>299</ele>
<time>2024-05-12T10:46:59Z</time>
</trkpt>
<trkpt lat="48.892154674977064" lon="9.184334697201848">
<ele>299</ele>
<time>2024-05-12T10:47:00Z</time>
</trkpt>
<trkpt lat="48.89215844683349" lon="9.18433184735477">
<ele>299</ele>
<time>2024-05-12T10:47:01Z</time>
</trkpt>
<trkpt lat="48.89215844683349" lon="9.18432991951704">
<ele>299</ele>
<time>2024-05-12T10:47:02Z</time>
</trkpt>
<trkpt lat="48.89215844683349" lon="9.18433184735477">
<ele>299</ele>
<time>2024-05-12T10:47:03Z</time>
</trkpt>
<trkpt lat="48.89216230250895" lon="9.18433184735477">
<ele>299</ele>
<time>2024-05-12T10:47:04Z</time>
</trkpt>
<trkpt lat="48.89216607436538" lon="9.184336625039576">
<ele>299</ele>
<time>2024-05-12T10:47:06Z</time>
</trkpt>
<trkpt lat="48.89216993004083" lon="9.1843337751925">
<ele>299</ele>
<time>2024-05-12T10:47:07Z</time>
</trkpt>
<trkpt lat="48.89216993004083" lon="9.184327069669962">
<ele>299</ele>
<time>2024-05-12T10:47:08Z</time>
</trkpt>
<trkpt lat="48.89216993004083" lon="9.184323297813537">
<ele>299</ele>
<time>2024-05-12T10:47:09Z</time>
</trkpt>
<trkpt lat="48.89216993004083" lon="9.184325141832232">
<ele>299</ele>
<time>2024-05-12T10:47:10Z</time>
</trkpt>
<trkpt lat="48.89217370189726" lon="9.184320447966456">
<ele>299</ele>
<time>2024-05-12T10:47:11Z</time>
</trkpt>
<trkpt lat="48.89216993004083" lon="9.184314664453268">
<ele>299</ele>
<time>2024-05-12T10:47:12Z</time>
</trkpt>
<trkpt lat="48.89216993004083" lon="9.184308042749764">
<ele>299</ele>
<time>2024-05-12T10:47:13Z</time>
</trkpt>
<trkpt lat="48.89216993004083" lon="9.184303265064957">
<ele>299</ele>
<time>2024-05-12T10:47:14Z</time>
</trkpt>
<trkpt lat="48.89217370189726" lon="9.184303265064957">
<ele>299</ele>
<time>2024-05-12T10:47:15Z</time>
</trkpt>
<trkpt lat="48.89216993004083" lon="9.184300415217876">
<ele>299</ele>
<time>2024-05-12T10:47:16Z</time>
</trkpt>
<trkpt lat="48.89216993004083" lon="9.184298487380149">
<ele>299</ele>
<time>2024-05-12T10:47:17Z</time>
</trkpt>
<trkpt lat="48.89216993004083" lon="9.184296559542418">
<ele>299</ele>
<time>2024-05-12T10:47:18Z</time>
</trkpt>
<trkpt lat="48.89216607436538" lon="9.184294631704688">
<ele>299</ele>
<time>2024-05-12T10:47:20Z</time>
</trkpt>
<trkpt lat="48.89216230250895" lon="9.18429370969534">
<ele>299</ele>
<time>2024-05-12T10:47:22Z</time>
</trkpt>
<trkpt lat="48.89216230250895" lon="9.18428985401988">
<ele>299</ele>
<time>2024-05-12T10:47:25Z</time>
</trkpt>
<trkpt lat="48.89216230250895" lon="9.184288010001184">
<ele>299</ele>
<time>2024-05-12T10:47:26Z</time>
</trkpt>
<trkpt lat="48.89216230250895" lon="9.184287004172802">
<ele>299</ele>
<time>2024-05-12T10:47:27Z</time>
</trkpt>
<trkpt lat="48.89216230250895" lon="9.184283232316377">
<ele>299</ele>
<time>2024-05-12T10:47:28Z</time>
</trkpt>
<trkpt lat="48.89216230250895" lon="9.184281304478644">
<ele>299</ele>
<time>2024-05-12T10:47:29Z</time>
</trkpt>
<trkpt lat="48.89215844683349" lon="9.184281304478644">
<ele>299</ele>
<time>2024-05-12T10:47:30Z</time>
</trkpt>
<trkpt lat="48.89215844683349" lon="9.184283232316377">
<ele>299</ele>
<time>2024-05-12T10:47:32Z</time>
</trkpt>
<trkpt lat="48.89215844683349" lon="9.184287004172802">
<ele>299</ele>
<time>2024-05-12T10:47:35Z</time>
</trkpt>
<trkpt lat="48.89215844683349" lon="9.18429178185761">
<ele>299</ele>
<time>2024-05-12T10:47:36Z</time>
</trkpt>
<trkpt lat="48.89215844683349" lon="9.184296559542418">
<ele>299</ele>
<time>2024-05-12T10:47:37Z</time>
</trkpt>
<trkpt lat="48.89216230250895" lon="9.184296559542418">
<ele>299</ele>
<time>2024-05-12T10:47:38Z</time>
</trkpt>
<trkpt lat="48.89216230250895" lon="9.184300415217876">
<ele>299</ele>
<time>2024-05-12T10:47:39Z</time>
</trkpt>
<trkpt lat="48.89216607436538" lon="9.184301337227224">
<ele>299</ele>
<time>2024-05-12T10:47:40Z</time>
</trkpt>
<trkpt lat="48.89216607436538" lon="9.184303265064957">
<ele>299</ele>
<time>2024-05-12T10:47:41Z</time>
</trkpt>
<trkpt lat="48.89216607436538" lon="9.184307036921382">
<ele>299</ele>
<time>2024-05-12T10:47:42Z</time>
</trkpt>
<trkpt lat="48.89216230250895" lon="9.184305109083652">
<ele>299</ele>
<time>2024-05-12T10:47:43Z</time>
</trkpt>
<trkpt lat="48.89216230250895" lon="9.184307036921382">
<ele>299</ele>
<time>2024-05-12T10:47:44Z</time>
</trkpt>
<trkpt lat="48.89216607436538" lon="9.184305109083652">
<ele>299</ele>
<time>2024-05-12T10:47:48Z</time>
</trkpt>
<trkpt lat="48.89216607436538" lon="9.184303265064957">
<ele>299</ele>
<time>2024-05-12T10:47:49Z</time>
</trkpt>
<trkpt lat="48.89216607436538" lon="9.184301337227224">
<ele>299</ele>
<time>2024-05-12T10:47:51Z</time>
</trkpt>
<trkpt lat="48.89216993004083" lon="9.184301337227224">
<ele>299</ele>
<time>2024-05-12T10:47:52Z</time>
</trkpt>
<trkpt lat="48.89215844683349" lon="9.184301337227224">
<ele>299</ele>
<time>2024-05-12T10:47:53Z</time>
</trkpt>
<trkpt lat="48.89215844683349" lon="9.184300415217876">
<ele>299</ele>
<time>2024-05-12T10:47:54Z</time>
</trkpt>
<trkpt lat="48.89215844683349" lon="9.184296559542418">
<ele>299</ele>
<time>2024-05-12T10:47:55Z</time>
</trkpt>
<trkpt lat="48.89215844683349" lon="9.184298487380149">
<ele>299</ele>
<time>2024-05-12T10:47:56Z</time>
</trkpt>
<trkpt lat="48.89215844683349" lon="9.184300415217876">
<ele>299</ele>
<time>2024-05-12T10:47:57Z</time>
</trkpt>
<trkpt lat="48.89215844683349" lon="9.184294631704688">
<ele>299</ele>
<time>2024-05-12T10:47:58Z</time>
</trkpt>
<trkpt lat="48.89215844683349" lon="9.18429178185761">
<ele>299</ele>
<time>2024-05-12T10:47:59Z</time>
</trkpt>
<trkpt lat="48.89215844683349" lon="9.184288010001184">
<ele>299</ele>
<time>2024-05-12T10:48:00Z</time>
</trkpt>
<trkpt lat="48.892154674977064" lon="9.184287004172802">
<ele>299</ele>
<time>2024-05-12T10:48:01Z</time>
</trkpt>
<trkpt lat="48.89215844683349" lon="9.184276526793838">
<ele>299</ele>
<time>2024-05-12T10:48:02Z</time>
</trkpt>
<trkpt lat="48.89215844683349" lon="9.18425364419818">
<ele>299</ele>
<time>2024-05-12T10:48:03Z</time>
</trkpt>
<trkpt lat="48.89215844683349" lon="9.18425171636045">
<ele>299</ele>
<time>2024-05-12T10:48:04Z</time>
</trkpt>
<trkpt lat="48.89215844683349" lon="9.184249872341752">
<ele>299</ele>
<time>2024-05-12T10:48:05Z</time>
</trkpt>
<trkpt lat="48.892154674977064" lon="9.184249872341752">
<ele>299</ele>
<time>2024-05-12T10:48:06Z</time>
</trkpt>
<trkpt lat="48.89215844683349" lon="9.184249872341752">
<ele>299</ele>
<time>2024-05-12T10:48:07Z</time>
</trkpt>
<trkpt lat="48.89215844683349" lon="9.184254566207528">
<ele>299</ele>
<time>2024-05-12T10:48:08Z</time>
</trkpt>
<trkpt lat="48.89215844683349" lon="9.18425364419818">
<ele>299</ele>
<time>2024-05-12T10:48:09Z</time>
</trkpt>
<trkpt lat="48.89215844683349" lon="9.18425171636045">
<ele>299</ele>
<time>2024-05-12T10:48:10Z</time>
</trkpt>
<trkpt lat="48.89215844683349" lon="9.184249872341752">
<ele>299</ele>
<time>2024-05-12T10:48:12Z</time>
</trkpt>
<trkpt lat="48.89215844683349" lon="9.184246938675642">
<ele>299</ele>
<time>2024-05-12T10:48:13Z</time>
</trkpt>
<trkpt lat="48.89216230250895" lon="9.184236461296678">
<ele>299</ele>
<time>2024-05-12T10:48:14Z</time>
</trkpt>
<trkpt lat="48.89215844683349" lon="9.184227911755444">
<ele>299</ele>
<time>2024-05-12T10:48:15Z</time>
</trkpt>
<trkpt lat="48.89215844683349" lon="9.184220284223557">
<ele>299</ele>
<time>2024-05-12T10:48:16Z</time>
</trkpt>
<trkpt lat="48.89216607436538" lon="9.18421165086329">
<ele>299</ele>
<time>2024-05-12T10:48:17Z</time>
</trkpt>
<trkpt lat="48.89216993004083" lon="9.184209806844592">
<ele>299</ele>
<time>2024-05-12T10:48:18Z</time>
</trkpt>
<trkpt lat="48.89216607436538" lon="9.184186924248934">
<ele>299</ele>
<time>2024-05-12T10:48:19Z</time>
</trkpt>
<trkpt lat="48.89215844683349" lon="9.184169741347432">
<ele>299</ele>
<time>2024-05-12T10:48:20Z</time>
</trkpt>
<trkpt lat="48.89214704744518" lon="9.184155408293009">
<ele>299</ele>
<time>2024-05-12T10:48:21Z</time>
</trkpt>
<trkpt lat="48.89214319176972" lon="9.1841334477067">
<ele>299</ele>
<time>2024-05-12T10:48:22Z</time>
</trkpt>
<trkpt lat="48.89214704744518" lon="9.184108721092343">
<ele>299</ele>
<time>2024-05-12T10:48:23Z</time>
</trkpt>
<trkpt lat="48.89214319176972" lon="9.184082904830577">
<ele>299</ele>
<time>2024-05-12T10:48:24Z</time>
</trkpt>
<trkpt lat="48.89213556423783" lon="9.18405817821622">
<ele>299</ele>
<time>2024-05-12T10:48:25Z</time>
</trkpt>
<trkpt lat="48.89212416484952" lon="9.18403814546764">
<ele>299</ele>
<time>2024-05-12T10:48:26Z</time>
</trkpt>
<trkpt lat="48.89212416484952" lon="9.18401811271906">
<ele>299</ele>
<time>2024-05-12T10:48:27Z</time>
</trkpt>
<trkpt lat="48.892116537317634" lon="9.183993302285671">
<ele>299</ele>
<time>2024-05-12T10:48:28Z</time>
</trkpt>
<trkpt lat="48.892116537317634" lon="9.183973269537091">
<ele>299</ele>
<time>2024-05-12T10:48:29Z</time>
</trkpt>
<trkpt lat="48.892116537317634" lon="9.183950386941431">
<ele>299</ele>
<time>2024-05-12T10:48:30Z</time>
</trkpt>
<trkpt lat="48.892116537317634" lon="9.183924654498696">
<ele>299</ele>
<time>2024-05-12T10:48:31Z</time>
</trkpt>
<trkpt lat="48.89210505411029" lon="9.183911243453622">
<ele>299</ele>
<time>2024-05-12T10:48:32Z</time>
</trkpt>
<trkpt lat="48.892093654721975" lon="9.183893138542771">
<ele>299</ele>
<time>2024-05-12T10:48:33Z</time>
</trkpt>
<trkpt lat="48.89208979904651" lon="9.183866484090686">
<ele>299</ele>
<time>2024-05-12T10:48:34Z</time>
</trkpt>
<trkpt lat="48.8920783996582" lon="9.183846451342106">
<ele>299</ele>
<time>2024-05-12T10:48:35Z</time>
</trkpt>
<trkpt lat="48.89205928891897" lon="9.18381686322391">
<ele>299</ele>
<time>2024-05-12T10:48:36Z</time>
</trkpt>
<trkpt lat="48.8920440338552" lon="9.18379683047533">
<ele>299</ele>
<time>2024-05-12T10:48:37Z</time>
</trkpt>
<trkpt lat="48.89202492311597" lon="9.18377486988902">
<ele>299</ele>
<time>2024-05-12T10:48:38Z</time>
</trkpt>
<trkpt lat="48.89199826866388" lon="9.183748215436935">
<ele>299</ele>
<time>2024-05-12T10:48:39Z</time>
</trkpt>
<trkpt lat="48.891971530392766" lon="9.183725332841275">
<ele>299</ele>
<time>2024-05-12T10:48:40Z</time>
</trkpt>
<trkpt lat="48.89194864779711" lon="9.18369859457016">
<ele>299</ele>
<time>2024-05-12T10:48:41Z</time>
</trkpt>
<trkpt lat="48.89192962087691" lon="9.183676717802882">
<ele>299</ele>
<time>2024-05-12T10:48:42Z</time>
</trkpt>
<trkpt lat="48.89191051013768" lon="9.183665234595535">
<ele>299</ele>
<time>2024-05-12T10:48:43Z</time>
</trkpt>
<trkpt lat="48.89188377186656" lon="9.183654757216573">
<ele>298.8</ele>
<time>2024-05-12T10:48:44Z</time>
</trkpt>
<trkpt lat="48.8918608892709" lon="9.183654757216573">
<ele>298.8</ele>
<time>2024-05-12T10:48:45Z</time>
</trkpt>
<trkpt lat="48.891834234818816" lon="9.183656685054302">
<ele>298.6</ele>
<time>2024-05-12T10:48:46Z</time>
</trkpt>
<trkpt lat="48.89180372469127" lon="9.183663306757808">
<ele>298.6</ele>
<time>2024-05-12T10:48:47Z</time>
</trkpt>
<trkpt lat="48.89177321456373" lon="9.183670012280343">
<ele>298.4</ele>
<time>2024-05-12T10:48:48Z</time>
</trkpt>
<trkpt lat="48.89174270443618" lon="9.183671940118074">
<ele>298.4</ele>
<time>2024-05-12T10:48:49Z</time>
</trkpt>
<trkpt lat="48.89171211048961" lon="9.183670012280343">
<ele>298.4</ele>
<time>2024-05-12T10:48:50Z</time>
</trkpt>
<trkpt lat="48.89168160036206" lon="9.183666156604886">
<ele>298.4</ele>
<time>2024-05-12T10:48:51Z</time>
</trkpt>
<trkpt lat="48.89165109023452" lon="9.183666156604886">
<ele>298.4</ele>
<time>2024-05-12T10:48:52Z</time>
</trkpt>
<trkpt lat="48.89161680825055" lon="9.183666156604886">
<ele>298.4</ele>
<time>2024-05-12T10:48:53Z</time>
</trkpt>
<trkpt lat="48.89159006997943" lon="9.183665234595535">
<ele>298.4</ele>
<time>2024-05-12T10:48:54Z</time>
</trkpt>
<trkpt lat="48.891559559851885" lon="9.183663306757808">
<ele>298.4</ele>
<time>2024-05-12T10:48:55Z</time>
</trkpt>
<trkpt lat="48.89152904972434" lon="9.183665234595535">
<ele>298.4</ele>
<time>2024-05-12T10:48:56Z</time>
</trkpt>
<trkpt lat="48.89149468392134" lon="9.183668084442616">
<ele>298.6</ele>
<time>2024-05-12T10:48:57Z</time>
</trkpt>
<trkpt lat="48.89146417379379" lon="9.183671940118074">
<ele>298.6</ele>
<time>2024-05-12T10:48:58Z</time>
</trkpt>
<trkpt lat="48.89143366366625" lon="9.183671940118074">
<ele>298.6</ele>
<time>2024-05-12T10:48:59Z</time>
</trkpt>
<trkpt lat="48.89139938168228" lon="9.183670012280343">
<ele>298.4</ele>
<time>2024-05-12T10:49:00Z</time>
</trkpt>
<trkpt lat="48.89136501587927" lon="9.183670012280343">
<ele>298.4</ele>
<time>2024-05-12T10:49:01Z</time>
</trkpt>
<trkpt lat="48.89133450575173" lon="9.183671940118074">
<ele>298.4</ele>
<time>2024-05-12T10:49:02Z</time>
</trkpt>
<trkpt lat="48.891300139948726" lon="9.18367856182158">
<ele>298.2</ele>
<time>2024-05-12T10:49:03Z</time>
</trkpt>
<trkpt lat="48.891265857964754" lon="9.183681411668658">
<ele>298.2</ele>
<time>2024-05-12T10:49:04Z</time>
</trkpt>
<trkpt lat="48.89123149216175" lon="9.18367956764996">
<ele>298.2</ele>
<time>2024-05-12T10:49:05Z</time>
</trkpt>
<trkpt lat="48.89119712635875" lon="9.183681411668658">
<ele>298</ele>
<time>2024-05-12T10:49:06Z</time>
</trkpt>
<trkpt lat="48.891162844374776" lon="9.183686189353466">
<ele>298</ele>
<time>2024-05-12T10:49:07Z</time>
</trkpt>
<trkpt lat="48.89112847857177" lon="9.183691972866654">
<ele>298</ele>
<time>2024-05-12T10:49:08Z</time>
</trkpt>
<trkpt lat="48.8910941965878" lon="9.18369960039854">
<ele>298</ele>
<time>2024-05-12T10:49:09Z</time>
</trkpt>
<trkpt lat="48.8910598307848" lon="9.183703372254968">
<ele>298</ele>
<time>2024-05-12T10:49:10Z</time>
</trkpt>
<trkpt lat="48.891025464981794" lon="9.183705300092695">
<ele>298.2</ele>
<time>2024-05-12T10:49:11Z</time>
</trkpt>
<trkpt lat="48.89099495485425" lon="9.183706222102046">
<ele>297.6</ele>
<time>2024-05-12T10:49:12Z</time>
</trkpt>
<trkpt lat="48.89096067287028" lon="9.183706222102046">
<ele>296.6</ele>
<time>2024-05-12T10:49:13Z</time>
</trkpt>
<trkpt lat="48.890930162742734" lon="9.183708149939775">
<ele>296</ele>
<time>2024-05-12T10:49:14Z</time>
</trkpt>
<trkpt lat="48.89090342447162" lon="9.183712005615234">
<ele>295.8</ele>
<time>2024-05-12T10:49:15Z</time>
</trkpt>
<trkpt lat="48.89087291434407" lon="9.18371669948101">
<ele>296</ele>
<time>2024-05-12T10:49:16Z</time>
</trkpt>
<trkpt lat="48.890846176072955" lon="9.183723405003548">
<ele>296.2</ele>
<time>2024-05-12T10:49:17Z</time>
</trkpt>
<trkpt lat="48.89081952162087" lon="9.183731954544784">
<ele>296.4</ele>
<time>2024-05-12T10:49:18Z</time>
</trkpt>
<trkpt lat="48.890789011493325" lon="9.183734888210893">
<ele>296.6</ele>
<time>2024-05-12T10:49:19Z</time>
</trkpt>
<trkpt lat="48.89076227322221" lon="9.183734888210893">
<ele>297</ele>
<time>2024-05-12T10:49:20Z</time>
</trkpt>
<trkpt lat="48.89073939062655" lon="9.183731954544784">
<ele>297.2</ele>
<time>2024-05-12T10:49:21Z</time>
</trkpt>
<trkpt lat="48.890712736174464" lon="9.183730110526083">
<ele>297.6</ele>
<time>2024-05-12T10:49:22Z</time>
</trkpt>
<trkpt lat="48.89068599790335" lon="9.183726254850626">
<ele>298</ele>
<time>2024-05-12T10:49:23Z</time>
</trkpt>
<trkpt lat="48.89066311530769" lon="9.183726254850626">
<ele>298.4</ele>
<time>2024-05-12T10:49:24Z</time>
</trkpt>
<trkpt lat="48.89064023271203" lon="9.183725332841275">
<ele>298.6</ele>
<time>2024-05-12T10:49:25Z</time>
</trkpt>
<trkpt lat="48.89062497764826" lon="9.183725332841275">
<ele>298.8</ele>
<time>2024-05-12T10:49:26Z</time>
</trkpt>
<trkpt lat="48.890609722584486" lon="9.183725332841275">
<ele>299</ele>
<time>2024-05-12T10:49:27Z</time>
</trkpt>
<trkpt lat="48.890594467520714" lon="9.183726254850626">
<ele>299.2</ele>
<time>2024-05-12T10:49:28Z</time>
</trkpt>
<trkpt lat="48.89058298431337" lon="9.183726254850626">
<ele>299.2</ele>
<time>2024-05-12T10:49:29Z</time>
</trkpt>
<trkpt lat="48.890571584925056" lon="9.183721477165818">
<ele>299.4</ele>
<time>2024-05-12T10:49:30Z</time>
</trkpt>
<trkpt lat="48.89056395739317" lon="9.183721477165818">
<ele>299.4</ele>
<time>2024-05-12T10:49:31Z</time>
</trkpt>
<trkpt lat="48.89056010171771" lon="9.183721477165818">
<ele>299.4</ele>
<time>2024-05-12T10:49:36Z</time>
</trkpt>
<trkpt lat="48.89055632986128" lon="9.18371963314712">
<ele>299.6</ele>
<time>2024-05-12T10:49:37Z</time>
</trkpt>
<trkpt lat="48.8905487023294" lon="9.18371669948101">
<ele>299.6</ele>
<time>2024-05-12T10:49:38Z</time>
</trkpt>
<trkpt lat="48.890529591590166" lon="9.183712927624583">
<ele>299.6</ele>
<time>2024-05-12T10:49:39Z</time>
</trkpt>
<trkpt lat="48.89050670899451" lon="9.183712005615234">
<ele>299.6</ele>
<time>2024-05-12T10:49:40Z</time>
</trkpt>
<trkpt lat="48.890472343191504" lon="9.183710077777503">
<ele>299.6</ele>
<time>2024-05-12T10:49:41Z</time>
</trkpt>
<trkpt lat="48.89044183306396" lon="9.183712927624583">
<ele>299.6</ele>
<time>2024-05-12T10:49:42Z</time>
</trkpt>
<trkpt lat="48.89040755107999" lon="9.183725332841275">
<ele>299.6</ele>
<time>2024-05-12T10:49:43Z</time>
</trkpt>
<trkpt lat="48.890373185276985" lon="9.183739582076669">
<ele>299.6</ele>
<time>2024-05-12T10:49:44Z</time>
</trkpt>
<trkpt lat="48.89033881947398" lon="9.1837586928159">
<ele>299.6</ele>
<time>2024-05-12T10:49:45Z</time>
</trkpt>
<trkpt lat="48.89030068181455" lon="9.18377679772675">
<ele>299.6</ele>
<time>2024-05-12T10:49:46Z</time>
</trkpt>
<trkpt lat="48.89026639983058" lon="9.183801608160138">
<ele>299.6</ele>
<time>2024-05-12T10:49:47Z</time>
</trkpt>
<trkpt lat="48.89023966155946" lon="9.18383781798184">
<ele>299.6</ele>
<time>2024-05-12T10:49:48Z</time>
</trkpt>
<trkpt lat="48.89021677896381" lon="9.183879811316729">
<ele>299.6</ele>
<time>2024-05-12T10:49:49Z</time>
</trkpt>
<trkpt lat="48.890193896368146" lon="9.183921804651618">
<ele>299.6</ele>
<time>2024-05-12T10:49:50Z</time>
</trkpt>
<trkpt lat="48.890174785628915" lon="9.183964719995856">
<ele>299.8</ele>
<time>2024-05-12T10:49:51Z</time>
</trkpt>
<trkpt lat="48.89015190303326" lon="9.184002857655289">
<ele>299.8</ele>
<time>2024-05-12T10:49:52Z</time>
</trkpt>
<trkpt lat="48.8901290204376" lon="9.184042923152449">
<ele>300</ele>
<time>2024-05-12T10:49:53Z</time>
</trkpt>
<trkpt lat="48.8901099935174" lon="9.18407628312707">
<ele>300.2</ele>
<time>2024-05-12T10:49:54Z</time>
</trkpt>
<trkpt lat="48.89009473845363" lon="9.184104865416884">
<ele>300.2</ele>
<time>2024-05-12T10:49:55Z</time>
</trkpt>
<trkpt lat="48.8900756277144" lon="9.184131603688002">
<ele>300.4</ele>
<time>2024-05-12T10:49:56Z</time>
</trkpt>
<trkpt lat="48.89006037265062" lon="9.184158258140087">
<ele>300.6</ele>
<time>2024-05-12T10:49:57Z</time>
</trkpt>
<trkpt lat="48.89004511758685" lon="9.184178290888669">
<ele>300.8</ele>
<time>2024-05-12T10:49:58Z</time>
</trkpt>
<trkpt lat="48.89003371819854" lon="9.184196395799518">
<ele>301</ele>
<time>2024-05-12T10:49:59Z</time>
</trkpt>
<trkpt lat="48.89002609066665" lon="9.184218356385829">
<ele>301</ele>
<time>2024-05-12T10:50:00Z</time>
</trkpt>
<trkpt lat="48.89001460745931" lon="9.184243166819217">
<ele>301.2</ele>
<time>2024-05-12T10:50:01Z</time>
</trkpt>
<trkpt lat="48.89000312425196" lon="9.184266971424222">
<ele>301.2</ele>
<time>2024-05-12T10:50:02Z</time>
</trkpt>
<trkpt lat="48.88999172486365" lon="9.18429370969534">
<ele>301.4</ele>
<time>2024-05-12T10:50:03Z</time>
</trkpt>
<trkpt lat="48.88997646979987" lon="9.184314664453268">
<ele>301.4</ele>
<time>2024-05-12T10:50:04Z</time>
</trkpt>
<trkpt lat="48.88996498659253" lon="9.184338552877309">
<ele>301.6</ele>
<time>2024-05-12T10:50:05Z</time>
</trkpt>
<trkpt lat="48.88994973152876" lon="9.184363363310696">
<ele>301.6</ele>
<time>2024-05-12T10:50:06Z</time>
</trkpt>
<trkpt lat="48.88993447646499" lon="9.18439194560051">
<ele>301.8</ele>
<time>2024-05-12T10:50:07Z</time>
</trkpt>
<trkpt lat="48.889919221401215" lon="9.184419605880976">
<ele>302</ele>
<time>2024-05-12T10:50:08Z</time>
</trkpt>
<trkpt lat="48.8899078220129" lon="9.184445338323712">
<ele>302.2</ele>
<time>2024-05-12T10:50:09Z</time>
</trkpt>
<trkpt lat="48.88989633880555" lon="9.1844701487571">
<ele>302.4</ele>
<time>2024-05-12T10:50:10Z</time>
</trkpt>
<trkpt lat="48.88988493941724" lon="9.184499736875296">
<ele>302.6</ele>
<time>2024-05-12T10:50:11Z</time>
</trkpt>
<trkpt lat="48.8898734562099" lon="9.18452831916511">
<ele>302.6</ele>
<time>2024-05-12T10:50:12Z</time>
</trkpt>
<trkpt lat="48.889858201146126" lon="9.184557907283306">
<ele>302.8</ele>
<time>2024-05-12T10:50:13Z</time>
</trkpt>
<trkpt lat="48.88984680175781" lon="9.184581711888312">
<ele>303</ele>
<time>2024-05-12T10:50:14Z</time>
</trkpt>
<trkpt lat="48.88983146287501" lon="9.184604594483972">
<ele>303</ele>
<time>2024-05-12T10:50:15Z</time>
</trkpt>
<trkpt lat="48.889820063486695" lon="9.184631332755089">
<ele>303.2</ele>
<time>2024-05-12T10:50:16Z</time>
</trkpt>
<trkpt lat="48.88980858027935" lon="9.184657065197824">
<ele>303.2</ele>
<time>2024-05-12T10:50:17Z</time>
</trkpt>
<trkpt lat="48.889800952747464" lon="9.184678019955754">
<ele>303.4</ele>
<time>2024-05-12T10:50:18Z</time>
</trkpt>
<trkpt lat="48.88978955335915" lon="9.184704758226871">
<ele>303.4</ele>
<time>2024-05-12T10:50:19Z</time>
</trkpt>
<trkpt lat="48.889778070151806" lon="9.18472856283188">
<ele>303.6</ele>
<time>2024-05-12T10:50:20Z</time>
</trkpt>
<trkpt lat="48.88976667076349" lon="9.184753373265266">
<ele>303.8</ele>
<time>2024-05-12T10:50:21Z</time>
</trkpt>
<trkpt lat="48.88975904323161" lon="9.184775333851576">
<ele>303.8</ele>
<time>2024-05-12T10:50:22Z</time>
</trkpt>
<trkpt lat="48.88974756002426" lon="9.184795366600156">
<ele>304</ele>
<time>2024-05-12T10:50:23Z</time>
</trkpt>
<trkpt lat="48.889739932492375" lon="9.184816321358085">
<ele>304</ele>
<time>2024-05-12T10:50:24Z</time>
</trkpt>
<trkpt lat="48.88972853310406" lon="9.184838281944394">
<ele>304.2</ele>
<time>2024-05-12T10:50:25Z</time>
</trkpt>
<trkpt lat="48.889720905572176" lon="9.1848620865494">
<ele>304.2</ele>
<time>2024-05-12T10:50:26Z</time>
</trkpt>
<trkpt lat="48.88970942236483" lon="9.18488496914506">
<ele>304.2</ele>
<time>2024-05-12T10:50:27Z</time>
</trkpt>
<trkpt lat="48.889701794832945" lon="9.184907851740718">
<ele>304.2</ele>
<time>2024-05-12T10:50:28Z</time>
</trkpt>
<trkpt lat="48.88969039544463" lon="9.184933584183456">
<ele>304.4</ele>
<time>2024-05-12T10:50:29Z</time>
</trkpt>
<trkpt lat="48.889682767912745" lon="9.18496124446392">
<ele>304.4</ele>
<time>2024-05-12T10:50:30Z</time>
</trkpt>
<trkpt lat="48.8896712847054" lon="9.18498320505023">
<ele>304.4</ele>
<time>2024-05-12T10:50:31Z</time>
</trkpt>
<trkpt lat="48.889659801498055" lon="9.185008015483618">
<ele>304.4</ele>
<time>2024-05-12T10:50:32Z</time>
</trkpt>
<trkpt lat="48.88965217396617" lon="9.185036597773433">
<ele>304.4</ele>
<time>2024-05-12T10:50:33Z</time>
</trkpt>
<trkpt lat="48.889640774577856" lon="9.18506140820682">
<ele>304.4</ele>
<time>2024-05-12T10:50:34Z</time>
</trkpt>
<trkpt lat="48.88962929137051" lon="9.185086218640208">
<ele>304.4</ele>
<time>2024-05-12T10:50:35Z</time>
</trkpt>
<trkpt lat="48.889621663838625" lon="9.185110023245215">
<ele>304.6</ele>
<time>2024-05-12T10:50:36Z</time>
</trkpt>
<trkpt lat="48.88961026445031" lon="9.185131983831525">
<ele>304.6</ele>
<time>2024-05-12T10:50:37Z</time>
</trkpt>
<trkpt lat="48.889602636918426" lon="9.185152938589454">
<ele>304.6</ele>
<time>2024-05-12T10:50:38Z</time>
</trkpt>
<trkpt lat="48.88959500938654" lon="9.185174899175763">
<ele>304.8</ele>
<time>2024-05-12T10:50:39Z</time>
</trkpt>
<trkpt lat="48.889583526179194" lon="9.185196859762073">
<ele>304.8</ele>
<time>2024-05-12T10:50:40Z</time>
</trkpt>
<trkpt lat="48.88957212679088" lon="9.18521873652935">
<ele>305</ele>
<time>2024-05-12T10:50:41Z</time>
</trkpt>
<trkpt lat="48.88956827111542" lon="9.18523977510631">
<ele>305.2</ele>
<time>2024-05-12T10:50:42Z</time>
</trkpt>
<trkpt lat="48.88955687172711" lon="9.185263579711318">
<ele>305.2</ele>
<time>2024-05-12T10:50:43Z</time>
</trkpt>
<trkpt lat="48.88955301605165" lon="9.185288390144706">
<ele>305.4</ele>
<time>2024-05-12T10:50:44Z</time>
</trkpt>
<trkpt lat="48.88954161666334" lon="9.185311272740364">
<ele>305.6</ele>
<time>2024-05-12T10:50:45Z</time>
</trkpt>
<trkpt lat="48.88953013345599" lon="9.185335077345371">
<ele>305.8</ele>
<time>2024-05-12T10:50:46Z</time>
</trkpt>
<trkpt lat="48.889526361599565" lon="9.18535703793168">
<ele>306</ele>
<time>2024-05-12T10:50:47Z</time>
</trkpt>
<trkpt lat="48.88951487839222" lon="9.18537707068026">
<ele>306</ele>
<time>2024-05-12T10:50:48Z</time>
</trkpt>
<trkpt lat="48.889503479003906" lon="9.18539802543819">
<ele>306.2</ele>
<time>2024-05-12T10:50:49Z</time>
</trkpt>
<trkpt lat="48.88949199579656" lon="9.18541805818677">
<ele>306.2</ele>
<time>2024-05-12T10:50:50Z</time>
</trkpt>
<trkpt lat="48.889484368264675" lon="9.18544001877308">
<ele>306.4</ele>
<time>2024-05-12T10:50:51Z</time>
</trkpt>
<trkpt lat="48.88947674073279" lon="9.185462901368735">
<ele>306.4</ele>
<time>2024-05-12T10:50:52Z</time>
</trkpt>
<trkpt lat="48.88946525752544" lon="9.185486789792776">
<ele>306.4</ele>
<time>2024-05-12T10:50:53Z</time>
</trkpt>
<trkpt lat="48.88946148566902" lon="9.185511516407132">
<ele>306.6</ele>
<time>2024-05-12T10:50:54Z</time>
</trkpt>
<trkpt lat="48.88945000246167" lon="9.185535404831173">
<ele>306.6</ele>
<time>2024-05-12T10:50:55Z</time>
</trkpt>
<trkpt lat="48.889446230605245" lon="9.185564992949368">
<ele>306.8</ele>
<time>2024-05-12T10:50:56Z</time>
</trkpt>
<trkpt lat="48.88943860307336" lon="9.18559449724853">
<ele>306.8</ele>
<time>2024-05-12T10:50:57Z</time>
</trkpt>
<trkpt lat="48.88943097554147" lon="9.185621235519648">
<ele>307</ele>
<time>2024-05-12T10:50:58Z</time>
</trkpt>
<trkpt lat="48.889423348009586" lon="9.185646967962384">
<ele>307</ele>
<time>2024-05-12T10:50:59Z</time>
</trkpt>
<trkpt lat="48.8894157204777" lon="9.185669850558044">
<ele>307.2</ele>
<time>2024-05-12T10:51:00Z</time>
</trkpt>
<trkpt lat="48.889408092945814" lon="9.185691811144352">
<ele>307.4</ele>
<time>2024-05-12T10:51:01Z</time>
</trkpt>
<trkpt lat="48.88939660973847" lon="9.18571662157774">
<ele>307.4</ele>
<time>2024-05-12T10:51:02Z</time>
</trkpt>
<trkpt lat="48.88938898220658" lon="9.185743276029823">
<ele>307.4</ele>
<time>2024-05-12T10:51:03Z</time>
</trkpt>
<trkpt lat="48.8893813546747" lon="9.185770014300942">
<ele>307.6</ele>
<time>2024-05-12T10:51:04Z</time>
</trkpt>
<trkpt lat="48.889369955286384" lon="9.185796668753028">
<ele>307.6</ele>
<time>2024-05-12T10:51:05Z</time>
</trkpt>
<trkpt lat="48.88935847207904" lon="9.185823407024143">
<ele>307.8</ele>
<time>2024-05-12T10:51:06Z</time>
</trkpt>
<trkpt lat="48.88935084454715" lon="9.18585006147623">
<ele>307.8</ele>
<time>2024-05-12T10:51:07Z</time>
</trkpt>
<trkpt lat="48.889343217015266" lon="9.18587302789092">
<ele>308</ele>
<time>2024-05-12T10:51:08Z</time>
</trkpt>
<trkpt lat="48.88933558948338" lon="9.185894904658198">
<ele>308</ele>
<time>2024-05-12T10:51:09Z</time>
</trkpt>
<trkpt lat="48.889327961951494" lon="9.185918793082235">
<ele>308.2</ele>
<time>2024-05-12T10:51:10Z</time>
</trkpt>
<trkpt lat="48.88931647874415" lon="9.185944525524974">
<ele>308.4</ele>
<time>2024-05-12T10:51:11Z</time>
</trkpt>
<trkpt lat="48.88930885121226" lon="9.18597117997706">
<ele>308.6</ele>
<time>2024-05-12T10:51:12Z</time>
</trkpt>
<trkpt lat="48.88930122368038" lon="9.186001773923635">
<ele>308.6</ele>
<time>2024-05-12T10:51:13Z</time>
</trkpt>
<trkpt lat="48.889289824292064" lon="9.186033206060529">
<ele>308.8</ele>
<time>2024-05-12T10:51:14Z</time>
</trkpt>
<trkpt lat="48.88928219676018" lon="9.186061788350344">
<ele>309</ele>
<time>2024-05-12T10:51:15Z</time>
</trkpt>
<trkpt lat="48.88927071355283" lon="9.186093304306269">
<ele>309</ele>
<time>2024-05-12T10:51:16Z</time>
</trkpt>
<trkpt lat="48.88925931416452" lon="9.186124736443162">
<ele>309.2</ele>
<time>2024-05-12T10:51:17Z</time>
</trkpt>
<trkpt lat="48.88925168663263" lon="9.186153402552009">
<ele>309.2</ele>
<time>2024-05-12T10:51:18Z</time>
</trkpt>
<trkpt lat="48.88923643156886" lon="9.186186762526631">
<ele>309.4</ele>
<time>2024-05-12T10:51:19Z</time>
</trkpt>
<trkpt lat="48.88922494836152" lon="9.186216350644829">
<ele>309.4</ele>
<time>2024-05-12T10:51:20Z</time>
</trkpt>
<trkpt lat="48.8892135489732" lon="9.186243005096912">
<ele>309.4</ele>
<time>2024-05-12T10:51:21Z</time>
</trkpt>
<trkpt lat="48.88919829390943" lon="9.1862678155303">
<ele>309.4</ele>
<time>2024-05-12T10:51:22Z</time>
</trkpt>
<trkpt lat="48.889190666377544" lon="9.18628977611661">
<ele>309.4</ele>
<time>2024-05-12T10:51:23Z</time>
</trkpt>
<trkpt lat="48.88918303884566" lon="9.186313580721617">
<ele>309.4</ele>
<time>2024-05-12T10:51:24Z</time>
</trkpt>
<trkpt lat="48.88917541131377" lon="9.186336463317277">
<ele>309.4</ele>
<time>2024-05-12T10:51:25Z</time>
</trkpt>
<trkpt lat="48.88916392810643" lon="9.186363201588392">
<ele>309.4</ele>
<time>2024-05-12T10:51:26Z</time>
</trkpt>
<trkpt lat="48.88915244489908" lon="9.186394633725286">
<ele>309.4</ele>
<time>2024-05-12T10:51:27Z</time>
</trkpt>
<trkpt lat="48.88914104551077" lon="9.186423299834132">
<ele>309.4</ele>
<time>2024-05-12T10:51:28Z</time>
</trkpt>
<trkpt lat="48.889129562303424" lon="9.186449954286218">
<ele>309.4</ele>
<time>2024-05-12T10:51:29Z</time>
</trkpt>
<trkpt lat="48.88912193477154" lon="9.186476692557337">
<ele>309.4</ele>
<time>2024-05-12T10:51:30Z</time>
</trkpt>
<trkpt lat="48.88911430723965" lon="9.18650527484715">
<ele>309.4</ele>
<time>2024-05-12T10:51:31Z</time>
</trkpt>
<trkpt lat="48.88911430723965" lon="9.186532935127616">
<ele>309.4</ele>
<time>2024-05-12T10:51:32Z</time>
</trkpt>
<trkpt lat="48.889110535383224" lon="9.18656629510224">
<ele>309.4</ele>
<time>2024-05-12T10:51:33Z</time>
</trkpt>
<trkpt lat="48.889110535383224" lon="9.18659965507686">
<ele>309.4</ele>
<time>2024-05-12T10:51:34Z</time>
</trkpt>
<trkpt lat="48.889106679707766" lon="9.186630249023438">
<ele>309.4</ele>
<time>2024-05-12T10:51:35Z</time>
</trkpt>
<trkpt lat="48.88909905217588" lon="9.18666168116033">
<ele>309.4</ele>
<time>2024-05-12T10:51:36Z</time>
</trkpt>
<trkpt lat="48.88909142464399" lon="9.186693113297224">
<ele>309.4</ele>
<time>2024-05-12T10:51:37Z</time>
</trkpt>
<trkpt lat="48.88908002525568" lon="9.186726557090878">
<ele>309.4</ele>
<time>2024-05-12T10:51:38Z</time>
</trkpt>
<trkpt lat="48.88907616958022" lon="9.1867599170655">
<ele>309.4</ele>
<time>2024-05-12T10:51:39Z</time>
</trkpt>
<trkpt lat="48.88906477019191" lon="9.186795204877852">
<ele>309.4</ele>
<time>2024-05-12T10:51:40Z</time>
</trkpt>
<trkpt lat="48.88905714266002" lon="9.186831414699554">
<ele>309.6</ele>
<time>2024-05-12T10:51:41Z</time>
</trkpt>
<trkpt lat="48.88904565945268" lon="9.18686293065548">
<ele>309.6</ele>
<time>2024-05-12T10:51:42Z</time>
</trkpt>
<trkpt lat="48.88903426006436" lon="9.186893440783024">
<ele>309.8</ele>
<time>2024-05-12T10:51:43Z</time>
</trkpt>
<trkpt lat="48.88902663253248" lon="9.186922945082188">
<ele>309.8</ele>
<time>2024-05-12T10:51:44Z</time>
</trkpt>
<trkpt lat="48.88901514932513" lon="9.186956388875842">
<ele>310</ele>
<time>2024-05-12T10:51:45Z</time>
</trkpt>
<trkpt lat="48.88900374993682" lon="9.186989748850465">
<ele>310</ele>
<time>2024-05-12T10:51:46Z</time>
</trkpt>
<trkpt lat="48.888992266729474" lon="9.187026964500546">
<ele>310.2</ele>
<time>2024-05-12T10:51:47Z</time>
</trkpt>
<trkpt lat="48.88898078352213" lon="9.187063174322248">
<ele>310.4</ele>
<time>2024-05-12T10:51:48Z</time>
</trkpt>
<trkpt lat="48.888969384133816" lon="9.187101311981678">
<ele>310.6</ele>
<time>2024-05-12T10:51:49Z</time>
</trkpt>
<trkpt lat="48.88896175660193" lon="9.187140455469487">
<ele>310.8</ele>
<time>2024-05-12T10:51:50Z</time>
</trkpt>
<trkpt lat="48.88895412907005" lon="9.18717859312892">
<ele>311</ele>
<time>2024-05-12T10:51:51Z</time>
</trkpt>
<trkpt lat="48.88894650153816" lon="9.18721673078835">
<ele>311</ele>
<time>2024-05-12T10:51:52Z</time>
</trkpt>
<trkpt lat="48.88893887400627" lon="9.187252018600702">
<ele>311.2</ele>
<time>2024-05-12T10:51:53Z</time>
</trkpt>
<trkpt lat="48.888931246474385" lon="9.187285378575323">
<ele>311.2</ele>
<time>2024-05-12T10:51:54Z</time>
</trkpt>
<trkpt lat="48.8889236189425" lon="9.18731689453125">
<ele>311.4</ele>
<time>2024-05-12T10:51:55Z</time>
</trkpt>
<trkpt lat="48.88891976326704" lon="9.187344470992684">
<ele>311.6</ele>
<time>2024-05-12T10:51:56Z</time>
</trkpt>
<trkpt lat="48.88891599141061" lon="9.187371209263802">
<ele>311.6</ele>
<time>2024-05-12T10:51:57Z</time>
</trkpt>
<trkpt lat="48.88890836387873" lon="9.187399791553617">
<ele>311.6</ele>
<time>2024-05-12T10:51:58Z</time>
</trkpt>
<trkpt lat="48.88890450820327" lon="9.187426529824734">
<ele>311.8</ele>
<time>2024-05-12T10:51:59Z</time>
</trkpt>
<trkpt lat="48.88890450820327" lon="9.187446562573314">
<ele>311.8</ele>
<time>2024-05-12T10:52:00Z</time>
</trkpt>
<trkpt lat="48.88890450820327" lon="9.187464667484164">
<ele>311.8</ele>
<time>2024-05-12T10:52:01Z</time>
</trkpt>
<trkpt lat="48.88890073634684" lon="9.1874903999269">
<ele>312</ele>
<time>2024-05-12T10:52:02Z</time>
</trkpt>
<trkpt lat="48.88889688067138" lon="9.187522837892176">
<ele>312</ele>
<time>2024-05-12T10:52:03Z</time>
</trkpt>
<trkpt lat="48.888893108814955" lon="9.187568603083491">
<ele>312</ele>
<time>2024-05-12T10:52:04Z</time>
</trkpt>
<trkpt lat="48.888889253139496" lon="9.18761344626546">
<ele>312</ele>
<time>2024-05-12T10:52:05Z</time>
</trkpt>
<trkpt lat="48.88888548128307" lon="9.187656361609696">
<ele>312</ele>
<time>2024-05-12T10:52:06Z</time>
</trkpt>
<trkpt lat="48.88888548128307" lon="9.187701204791663">
<ele>312</ele>
<time>2024-05-12T10:52:07Z</time>
</trkpt>
<trkpt lat="48.88888548128307" lon="9.187746969982982">
<ele>312</ele>
<time>2024-05-12T10:52:08Z</time>
</trkpt>
<trkpt lat="48.88888548128307" lon="9.18779181316495">
<ele>312</ele>
<time>2024-05-12T10:52:09Z</time>
</trkpt>
<trkpt lat="48.88888548128307" lon="9.187840428203344">
<ele>312.2</ele>
<time>2024-05-12T10:52:10Z</time>
</trkpt>
<trkpt lat="48.88888548128307" lon="9.18789004907012">
<ele>312.2</ele>
<time>2024-05-12T10:52:11Z</time>
</trkpt>
<trkpt lat="48.88888548128307" lon="9.187943441793324">
<ele>312.4</ele>
<time>2024-05-12T10:52:12Z</time>
</trkpt>
<trkpt lat="48.888889253139496" lon="9.187996834516523">
<ele>312.4</ele>
<time>2024-05-12T10:52:13Z</time>
</trkpt>
<trkpt lat="48.888893108814955" lon="9.188053077086806">
<ele>312.6</ele>
<time>2024-05-12T10:52:14Z</time>
</trkpt>
<trkpt lat="48.888893108814955" lon="9.188108397647738">
<ele>312.6</ele>
<time>2024-05-12T10:52:15Z</time>
</trkpt>
<trkpt lat="48.88889688067138" lon="9.188166568055747">
<ele>312.8</ele>
<time>2024-05-12T10:52:16Z</time>
</trkpt>
<trkpt lat="48.88889688067138" lon="9.188226666301489">
<ele>312.8</ele>
<time>2024-05-12T10:52:17Z</time>
</trkpt>
<trkpt lat="48.88890073634684" lon="9.1882848367095">
<ele>313</ele>
<time>2024-05-12T10:52:18Z</time>
</trkpt>
<trkpt lat="48.88890073634684" lon="9.18834300711751">
<ele>313</ele>
<time>2024-05-12T10:52:19Z</time>
</trkpt>
<trkpt lat="48.88890450820327" lon="9.188394472002985">
<ele>313.2</ele>
<time>2024-05-12T10:52:20Z</time>
</trkpt>
<trkpt lat="48.88890450820327" lon="9.188445014879107">
<ele>313.4</ele>
<time>2024-05-12T10:52:21Z</time>
</trkpt>
<trkpt lat="48.88890836387873" lon="9.188491785898805">
<ele>313.4</ele>
<time>2024-05-12T10:52:22Z</time>
</trkpt>
<trkpt lat="48.88890836387873" lon="9.18853847309947">
<ele>313.4</ele>
<time>2024-05-12T10:52:23Z</time>
</trkpt>
<trkpt lat="48.88890836387873" lon="9.18857954442501">
<ele>313.6</ele>
<time>2024-05-12T10:52:24Z</time>
</trkpt>
<trkpt lat="48.88890836387873" lon="9.188614832237365">
<ele>313.4</ele>
<time>2024-05-12T10:52:25Z</time>
</trkpt>
<trkpt lat="48.888912135735154" lon="9.188646264374256">
<ele>313.4</ele>
<time>2024-05-12T10:52:26Z</time>
</trkpt>
<trkpt lat="48.88891599141061" lon="9.1886767745018">
<ele>313.4</ele>
<time>2024-05-12T10:52:27Z</time>
</trkpt>
<trkpt lat="48.88891976326704" lon="9.188705440610647">
<ele>313.4</ele>
<time>2024-05-12T10:52:28Z</time>
</trkpt>
<trkpt lat="48.8889236189425" lon="9.188728323206306">
<ele>313.2</ele>
<time>2024-05-12T10:52:29Z</time>
</trkpt>
<trkpt lat="48.888927390798926" lon="9.188741650432348">
<ele>313.2</ele>
<time>2024-05-12T10:52:30Z</time>
</trkpt>
<trkpt lat="48.88891976326704" lon="9.188748355954884">
<ele>313.2</ele>
<time>2024-05-12T10:52:31Z</time>
</trkpt>
<trkpt lat="48.88891599141061" lon="9.188751205801964">
<ele>313.2</ele>
<time>2024-05-12T10:52:32Z</time>
</trkpt>
<trkpt lat="48.88890836387873" lon="9.188753049820662">
<ele>313</ele>
<time>2024-05-12T10:52:33Z</time>
</trkpt>
<trkpt lat="48.88890073634684" lon="9.188754977658393">
<ele>313</ele>
<time>2024-05-12T10:52:34Z</time>
</trkpt>
<trkpt lat="48.888893108814955" lon="9.188754977658393">
<ele>313</ele>
<time>2024-05-12T10:52:36Z</time>
</trkpt>
<trkpt lat="48.888889253139496" lon="9.18875690549612">
<ele>313</ele>
<time>2024-05-12T10:52:37Z</time>
</trkpt>
<trkpt lat="48.88888162560761" lon="9.18875690549612">
<ele>313</ele>
<time>2024-05-12T10:52:38Z</time>
</trkpt>
<trkpt lat="48.88887399807573" lon="9.18875782750547">
<ele>312.8</ele>
<time>2024-05-12T10:52:39Z</time>
</trkpt>
<trkpt lat="48.88885497115552" lon="9.188764533028008">
<ele>312.6</ele>
<time>2024-05-12T10:52:40Z</time>
</trkpt>
<trkpt lat="48.88883971609175" lon="9.188773082569242">
<ele>312.6</ele>
<time>2024-05-12T10:52:41Z</time>
</trkpt>
<trkpt lat="48.88882060535252" lon="9.188783643767238">
<ele>312.4</ele>
<time>2024-05-12T10:52:42Z</time>
</trkpt>
<trkpt lat="48.88880149461329" lon="9.188793115317822">
<ele>312.2</ele>
<time>2024-05-12T10:52:43Z</time>
</trkpt>
<trkpt lat="48.88878246769309" lon="9.188806526362896">
<ele>312.2</ele>
<time>2024-05-12T10:52:44Z</time>
</trkpt>
<trkpt lat="48.88876335695386" lon="9.188821781426668">
<ele>312</ele>
<time>2024-05-12T10:52:45Z</time>
</trkpt>
<trkpt lat="48.88874433003366" lon="9.18883318081498">
<ele>312</ele>
<time>2024-05-12T10:52:46Z</time>
</trkpt>
<trkpt lat="48.888721447438" lon="9.18883703649044">
<ele>312</ele>
<time>2024-05-12T10:52:47Z</time>
</trkpt>
<trkpt lat="48.88869470916688" lon="9.188835108652713">
<ele>312</ele>
<time>2024-05-12T10:52:48Z</time>
</trkpt>
<trkpt lat="48.888675682246685" lon="9.188824631273746">
<ele>312</ele>
<time>2024-05-12T10:52:49Z</time>
</trkpt>
<trkpt lat="48.88865279965103" lon="9.188815075904133">
<ele>312.2</ele>
<time>2024-05-12T10:52:50Z</time>
</trkpt>
<trkpt lat="48.88862983323634" lon="9.188806526362896">
<ele>312.2</ele>
<time>2024-05-12T10:52:51Z</time>
</trkpt>
<trkpt lat="48.88859932310879" lon="9.188804598525168">
<ele>312.2</ele>
<time>2024-05-12T10:52:52Z</time>
</trkpt>
<trkpt lat="48.88856504112482" lon="9.188811220228672">
<ele>312.2</ele>
<time>2024-05-12T10:52:53Z</time>
</trkpt>
<trkpt lat="48.88853453099728" lon="9.188824631273746">
<ele>312.2</ele>
<time>2024-05-12T10:52:54Z</time>
</trkpt>
<trkpt lat="48.88849253766239" lon="9.188846508041024">
<ele>312.2</ele>
<time>2024-05-12T10:52:55Z</time>
</trkpt>
<trkpt lat="48.888458171859384" lon="9.188863690942526">
<ele>312.2</ele>
<time>2024-05-12T10:52:56Z</time>
</trkpt>
<trkpt lat="48.88842003419995" lon="9.18887995183468">
<ele>312.2</ele>
<time>2024-05-12T10:52:57Z</time>
</trkpt>
<trkpt lat="48.88838575221598" lon="9.188897050917149">
<ele>312.2</ele>
<time>2024-05-12T10:52:58Z</time>
</trkpt>
<trkpt lat="48.88834761455655" lon="9.18891808949411">
<ele>312</ele>
<time>2024-05-12T10:52:59Z</time>
</trkpt>
<trkpt lat="48.88831324875355" lon="9.18893619440496">
<ele>312</ele>
<time>2024-05-12T10:53:00Z</time>
</trkpt>
<trkpt lat="48.888278882950544" lon="9.18895337730646">
<ele>312.2</ele>
<time>2024-05-12T10:53:01Z</time>
</trkpt>
<trkpt lat="48.88824460096657" lon="9.188971482217312">
<ele>312.2</ele>
<time>2024-05-12T10:53:02Z</time>
</trkpt>
<trkpt lat="48.88820646330714" lon="9.18899344280362">
<ele>312.2</ele>
<time>2024-05-12T10:53:03Z</time>
</trkpt>
<trkpt lat="48.88817209750414" lon="9.1890134755522">
<ele>312.2</ele>
<time>2024-05-12T10:53:04Z</time>
</trkpt>
<trkpt lat="48.88813781552017" lon="9.18903535231948">
<ele>312.4</ele>
<time>2024-05-12T10:53:05Z</time>
</trkpt>
<trkpt lat="48.88811107724905" lon="9.189062090590596">
<ele>312.4</ele>
<time>2024-05-12T10:53:06Z</time>
</trkpt>
<trkpt lat="48.88808819465339" lon="9.189087823033333">
<ele>312.6</ele>
<time>2024-05-12T10:53:07Z</time>
</trkpt>
<trkpt lat="48.88806531205773" lon="9.189116405323148">
<ele>312.8</ele>
<time>2024-05-12T10:53:08Z</time>
</trkpt>
<trkpt lat="48.88805005699396" lon="9.189146915450692">
<ele>313</ele>
<time>2024-05-12T10:53:09Z</time>
</trkpt>
<trkpt lat="48.88803480193019" lon="9.189180359244348">
<ele>313.2</ele>
<time>2024-05-12T10:53:10Z</time>
</trkpt>
<trkpt lat="48.88801954686642" lon="9.189214641228318">
<ele>313.2</ele>
<time>2024-05-12T10:53:11Z</time>
</trkpt>
<trkpt lat="48.888000436127186" lon="9.1892518568784">
<ele>313.4</ele>
<time>2024-05-12T10:53:12Z</time>
</trkpt>
<trkpt lat="48.887985181063414" lon="9.1892880667001">
<ele>313.4</ele>
<time>2024-05-12T10:53:13Z</time>
</trkpt>
<trkpt lat="48.8879737816751" lon="9.189319582656026">
<ele>313.4</ele>
<time>2024-05-12T10:53:14Z</time>
</trkpt>
<trkpt lat="48.887962298467755" lon="9.18935009278357">
<ele>313.4</ele>
<time>2024-05-12T10:53:15Z</time>
</trkpt>
<trkpt lat="48.88795081526041" lon="9.189381524920464">
<ele>313.4</ele>
<time>2024-05-12T10:53:16Z</time>
</trkpt>
<trkpt lat="48.88793556019664" lon="9.189412035048008">
<ele>313.4</ele>
<time>2024-05-12T10:53:17Z</time>
</trkpt>
<trkpt lat="48.887920305132866" lon="9.189443551003931">
<ele>313.2</ele>
<time>2024-05-12T10:53:18Z</time>
</trkpt>
<trkpt lat="48.88790890574455" lon="9.189477916806936">
<ele>313.2</ele>
<time>2024-05-12T10:53:19Z</time>
</trkpt>
<trkpt lat="48.88789365068078" lon="9.18951127678156">
<ele>313</ele>
<time>2024-05-12T10:53:20Z</time>
</trkpt>
<trkpt lat="48.88787839561701" lon="9.189539859071374">
<ele>313</ele>
<time>2024-05-12T10:53:21Z</time>
</trkpt>
<trkpt lat="48.88785165734589" lon="9.189557963982224">
<ele>313</ele>
<time>2024-05-12T10:53:22Z</time>
</trkpt>
<trkpt lat="48.88782114721835" lon="9.189579924568534">
<ele>312.8</ele>
<time>2024-05-12T10:53:23Z</time>
</trkpt>
<trkpt lat="48.88779449276626" lon="9.189601885154843">
<ele>312.8</ele>
<time>2024-05-12T10:53:24Z</time>
</trkpt>
<trkpt lat="48.88777152635157" lon="9.189621917903423">
<ele>312.8</ele>
<time>2024-05-12T10:53:25Z</time>
</trkpt>
<trkpt lat="48.887744871899486" lon="9.189641950652003">
<ele>312.6</ele>
<time>2024-05-12T10:53:26Z</time>
</trkpt>
<trkpt lat="48.88771436177194" lon="9.189660055562854">
<ele>312.4</ele>
<time>2024-05-12T10:53:27Z</time>
</trkpt>
<trkpt lat="48.88769147917628" lon="9.18968671001494">
<ele>312.2</ele>
<time>2024-05-12T10:53:28Z</time>
</trkpt>
<trkpt lat="48.887668596580625" lon="9.18972484767437">
<ele>312</ele>
<time>2024-05-12T10:53:29Z</time>
</trkpt>
<trkpt lat="48.88764948584139" lon="9.189769690856338">
<ele>311.8</ele>
<time>2024-05-12T10:53:30Z</time>
</trkpt>
<trkpt lat="48.88764185830951" lon="9.189821239560844">
<ele>311.6</ele>
<time>2024-05-12T10:53:31Z</time>
</trkpt>
<trkpt lat="48.88763423077762" lon="9.189880331978202">
<ele>311.4</ele>
<time>2024-05-12T10:53:32Z</time>
</trkpt>
<trkpt lat="48.88763423077762" lon="9.18994328007102">
<ele>311.2</ele>
<time>2024-05-12T10:53:33Z</time>
</trkpt>
<trkpt lat="48.88763423077762" lon="9.190005222335458">
<ele>311</ele>
<time>2024-05-12T10:53:34Z</time>
</trkpt>
<trkpt lat="48.88763423077762" lon="9.190068170428276">
<ele>310.6</ele>
<time>2024-05-12T10:53:35Z</time>
</trkpt>
<trkpt lat="48.88763808645308" lon="9.190134974196551">
<ele>310.4</ele>
<time>2024-05-12T10:53:36Z</time>
</trkpt>
<trkpt lat="48.88763808645308" lon="9.190203621983528">
<ele>310.2</ele>
<time>2024-05-12T10:53:37Z</time>
</trkpt>
<trkpt lat="48.88763808645308" lon="9.190264642238615">
<ele>310</ele>
<time>2024-05-12T10:53:38Z</time>
</trkpt>
<trkpt lat="48.88763423077762" lon="9.190319962799547">
<ele>309.8</ele>
<time>2024-05-12T10:53:39Z</time>
</trkpt>
<trkpt lat="48.887630458921194" lon="9.190373355522752">
<ele>309.8</ele>
<time>2024-05-12T10:53:40Z</time>
</trkpt>
<trkpt lat="48.887626603245735" lon="9.190422976389527">
<ele>309.6</ele>
<time>2024-05-12T10:53:41Z</time>
</trkpt>
<trkpt lat="48.887626603245735" lon="9.190463041886687">
<ele>309.6</ele>
<time>2024-05-12T10:53:42Z</time>
</trkpt>
<trkpt lat="48.88762283138931" lon="9.190489696338773">
<ele>309.6</ele>
<time>2024-05-12T10:53:43Z</time>
</trkpt>
<trkpt lat="48.88761897571385" lon="9.190513584762812">
<ele>309.4</ele>
<time>2024-05-12T10:53:44Z</time>
</trkpt>
<trkpt lat="48.88761897571385" lon="9.19053453952074">
<ele>309.4</ele>
<time>2024-05-12T10:53:45Z</time>
</trkpt>
<trkpt lat="48.88761897571385" lon="9.19055457226932">
<ele>309.4</ele>
<time>2024-05-12T10:53:46Z</time>
</trkpt>
<trkpt lat="48.88761520385742" lon="9.19057653285563">
<ele>309.2</ele>
<time>2024-05-12T10:53:47Z</time>
</trkpt>
<trkpt lat="48.88761520385742" lon="9.190585082396863">
<ele>309.2</ele>
<time>2024-05-12T10:53:48Z</time>
</trkpt>
<trkpt lat="48.88761520385742" lon="9.190587010234594">
<ele>309</ele>
<time>2024-05-12T10:53:49Z</time>
</trkpt>
<trkpt lat="48.88761520385742" lon="9.190587932243943">
<ele>309</ele>
<time>2024-05-12T10:53:50Z</time>
</trkpt>
<trkpt lat="48.88761520385742" lon="9.190587010234594">
<ele>309</ele>
<time>2024-05-12T10:53:51Z</time>
</trkpt>
<trkpt lat="48.88761520385742" lon="9.190587932243943">
<ele>309</ele>
<time>2024-05-12T10:53:54Z</time>
</trkpt>
<trkpt lat="48.88761520385742" lon="9.19059656560421">
<ele>308.8</ele>
<time>2024-05-12T10:53:57Z</time>
</trkpt>
<trkpt lat="48.88761134818196" lon="9.190618442371488">
<ele>308.8</ele>
<time>2024-05-12T10:53:58Z</time>
</trkpt>
<trkpt lat="48.887607492506504" lon="9.190649958327413">
<ele>308.8</ele>
<time>2024-05-12T10:53:59Z</time>
</trkpt>
<trkpt lat="48.88760372065008" lon="9.190686168149114">
<ele>308.8</ele>
<time>2024-05-12T10:54:00Z</time>
</trkpt>
<trkpt lat="48.88759986497462" lon="9.19073293916881">
<ele>308.8</ele>
<time>2024-05-12T10:54:01Z</time>
</trkpt>
<trkpt lat="48.88759609311819" lon="9.190808292478325">
<ele>308.8</ele>
<time>2024-05-12T10:54:02Z</time>
</trkpt>
<trkpt lat="48.88759609311819" lon="9.190877862274649">
<ele>308.8</ele>
<time>2024-05-12T10:54:03Z</time>
</trkpt>
<trkpt lat="48.88759609311819" lon="9.190946510061622">
<ele>308.8</ele>
<time>2024-05-12T10:54:04Z</time>
</trkpt>
<trkpt lat="48.88759609311819" lon="9.1910133138299">
<ele>308.6</ele>
<time>2024-05-12T10:54:05Z</time>
</trkpt>
<trkpt lat="48.88759609311819" lon="9.191076261922715">
<ele>308.6</ele>
<time>2024-05-12T10:54:06Z</time>
</trkpt>
<trkpt lat="48.88759609311819" lon="9.191138204187157">
<ele>308.6</ele>
<time>2024-05-12T10:54:07Z</time>
</trkpt>
<trkpt lat="48.88759609311819" lon="9.191201152279971">
<ele>308.6</ele>
<time>2024-05-12T10:54:08Z</time>
</trkpt>
<trkpt lat="48.88759223744273" lon="9.19126795604825">
<ele>308.6</ele>
<time>2024-05-12T10:54:09Z</time>
</trkpt>
<trkpt lat="48.88759223744273" lon="9.191327970474958">
<ele>308.8</ele>
<time>2024-05-12T10:54:10Z</time>
</trkpt>
<trkpt lat="48.88759609311819" lon="9.191389996558428">
<ele>309</ele>
<time>2024-05-12T10:54:11Z</time>
</trkpt>
<trkpt lat="48.88759609311819" lon="9.191452944651246">
<ele>309.2</ele>
<time>2024-05-12T10:54:12Z</time>
</trkpt>
<trkpt lat="48.88759609311819" lon="9.191516814753411">
<ele>309.4</ele>
<time>2024-05-12T10:54:13Z</time>
</trkpt>
<trkpt lat="48.88759986497462" lon="9.19158169068396">
<ele>309.6</ele>
<time>2024-05-12T10:54:14Z</time>
</trkpt>
<trkpt lat="48.88759986497462" lon="9.191646566614509">
<ele>309.8</ele>
<time>2024-05-12T10:54:15Z</time>
</trkpt>
<trkpt lat="48.88759986497462" lon="9.191713286563754">
<ele>310.2</ele>
<time>2024-05-12T10:54:16Z</time>
</trkpt>
<trkpt lat="48.88760372065008" lon="9.191776234656572">
<ele>310.4</ele>
<time>2024-05-12T10:54:17Z</time>
</trkpt>
<trkpt lat="48.88760372065008" lon="9.19184010475874">
<ele>310.4</ele>
<time>2024-05-12T10:54:18Z</time>
</trkpt>
<trkpt lat="48.88760372065008" lon="9.191904980689287">
<ele>310.6</ele>
<time>2024-05-12T10:54:19Z</time>
</trkpt>
<trkpt lat="48.887607492506504" lon="9.191967928782104">
<ele>310.8</ele>
<time>2024-05-12T10:54:20Z</time>
</trkpt>
<trkpt lat="48.88761134818196" lon="9.192031798884273">
<ele>310.8</ele>
<time>2024-05-12T10:54:21Z</time>
</trkpt>
<trkpt lat="48.88761134818196" lon="9.19209281913936">
<ele>311</ele>
<time>2024-05-12T10:54:22Z</time>
</trkpt>
<trkpt lat="48.88761134818196" lon="9.1921529173851">
<ele>311.2</ele>
<time>2024-05-12T10:54:23Z</time>
</trkpt>
<trkpt lat="48.88761134818196" lon="9.1922168713063">
<ele>311.4</ele>
<time>2024-05-12T10:54:24Z</time>
</trkpt>
<trkpt lat="48.88761520385742" lon="9.192277891561387">
<ele>311.6</ele>
<time>2024-05-12T10:54:25Z</time>
</trkpt>
<trkpt lat="48.88761520385742" lon="9.192339833825828">
<ele>311.6</ele>
<time>2024-05-12T10:54:26Z</time>
</trkpt>
<trkpt lat="48.887607492506504" lon="9.192401859909296">
<ele>311.8</ele>
<time>2024-05-12T10:54:27Z</time>
</trkpt>
<trkpt lat="48.88760372065008" lon="9.192461958155036">
<ele>311.8</ele>
<time>2024-05-12T10:54:28Z</time>
</trkpt>
<trkpt lat="48.88760372065008" lon="9.192520128563046">
<ele>311.8</ele>
<time>2024-05-12T10:54:29Z</time>
</trkpt>
<trkpt lat="48.88759986497462" lon="9.192578298971055">
<ele>311.8</ele>
<time>2024-05-12T10:54:30Z</time>
</trkpt>
<trkpt lat="48.88759986497462" lon="9.192634541541338">
<ele>311.8</ele>
<time>2024-05-12T10:54:31Z</time>
</trkpt>
<trkpt lat="48.88759609311819" lon="9.19269178994">
<ele>311.8</ele>
<time>2024-05-12T10:54:32Z</time>
</trkpt>
<trkpt lat="48.88759609311819" lon="9.19274996034801">
<ele>311.8</ele>
<time>2024-05-12T10:54:33Z</time>
</trkpt>
<trkpt lat="48.88759609311819" lon="9.19280813075602">
<ele>312</ele>
<time>2024-05-12T10:54:34Z</time>
</trkpt>
<trkpt lat="48.88759223744273" lon="9.192866301164033">
<ele>312</ele>
<time>2024-05-12T10:54:35Z</time>
</trkpt>
<trkpt lat="48.88759609311819" lon="9.192919693887234">
<ele>312.2</ele>
<time>2024-05-12T10:54:36Z</time>
</trkpt>
<trkpt lat="48.88760372065008" lon="9.192971158772709">
<ele>312.2</ele>
<time>2024-05-12T10:54:37Z</time>
</trkpt>
<trkpt lat="48.88761134818196" lon="9.193028407171369">
<ele>312.4</ele>
<time>2024-05-12T10:54:38Z</time>
</trkpt>
<trkpt lat="48.88761520385742" lon="9.19308657757938">
<ele>312.6</ele>
<time>2024-05-12T10:54:39Z</time>
</trkpt>
<trkpt lat="48.88761897571385" lon="9.19314282014966">
<ele>312.8</ele>
<time>2024-05-12T10:54:40Z</time>
</trkpt>
<trkpt lat="48.88762283138931" lon="9.193198140710592">
<ele>312.8</ele>
<time>2024-05-12T10:54:41Z</time>
</trkpt>
<trkpt lat="48.887626603245735" lon="9.193251533433797">
<ele>313</ele>
<time>2024-05-12T10:54:42Z</time>
</trkpt>
<trkpt lat="48.887630458921194" lon="9.193306853994727">
<ele>313</ele>
<time>2024-05-12T10:54:43Z</time>
</trkpt>
<trkpt lat="48.88764185830951" lon="9.19336024671793">
<ele>313.2</ele>
<time>2024-05-12T10:54:44Z</time>
</trkpt>
<trkpt lat="48.88764185830951" lon="9.193414645269511">
<ele>313.2</ele>
<time>2024-05-12T10:54:45Z</time>
</trkpt>
<trkpt lat="48.88764185830951" lon="9.193466110154986">
<ele>313.4</ele>
<time>2024-05-12T10:54:46Z</time>
</trkpt>
<trkpt lat="48.88764185830951" lon="9.19351858086884">
<ele>313.6</ele>
<time>2024-05-12T10:54:47Z</time>
</trkpt>
<trkpt lat="48.88763808645308" lon="9.193565351888536">
<ele>313.8</ele>
<time>2024-05-12T10:54:48Z</time>
</trkpt>
<trkpt lat="48.887630458921194" lon="9.193608267232776">
<ele>313.8</ele>
<time>2024-05-12T10:54:49Z</time>
</trkpt>
<trkpt lat="48.887626603245735" lon="9.193648332729936">
<ele>314</ele>
<time>2024-05-12T10:54:50Z</time>
</trkpt>
<trkpt lat="48.88762283138931" lon="9.193684542551637">
<ele>314.2</ele>
<time>2024-05-12T10:54:51Z</time>
</trkpt>
<trkpt lat="48.887626603245735" lon="9.19371790252626">
<ele>314.2</ele>
<time>2024-05-12T10:54:52Z</time>
</trkpt>
<trkpt lat="48.88764185830951" lon="9.193743634968996">
<ele>314.4</ele>
<time>2024-05-12T10:54:53Z</time>
</trkpt>
<trkpt lat="48.887645713984966" lon="9.193779928609729">
<ele>314.6</ele>
<time>2024-05-12T10:54:54Z</time>
</trkpt>
<trkpt lat="48.887645713984966" lon="9.193821838125588">
<ele>314.8</ele>
<time>2024-05-12T10:54:55Z</time>
</trkpt>
<trkpt lat="48.887645713984966" lon="9.193868609145284">
<ele>315</ele>
<time>2024-05-12T10:54:56Z</time>
</trkpt>
<trkpt lat="48.88763808645308" lon="9.193922923877835">
<ele>315.2</ele>
<time>2024-05-12T10:54:57Z</time>
</trkpt>
<trkpt lat="48.88765334151685" lon="9.193978244438767">
<ele>315.4</ele>
<time>2024-05-12T10:54:58Z</time>
</trkpt>
<trkpt lat="48.88765711337328" lon="9.1940335649997">
<ele>315.4</ele>
<time>2024-05-12T10:54:59Z</time>
</trkpt>
<trkpt lat="48.88766096904874" lon="9.194085113704205">
<ele>315.6</ele>
<time>2024-05-12T10:55:00Z</time>
</trkpt>
<trkpt lat="48.88766096904874" lon="9.194125095382333">
<ele>315.8</ele>
<time>2024-05-12T10:55:01Z</time>
</trkpt>
<trkpt lat="48.88765334151685" lon="9.19417379423976">
<ele>316</ele>
<time>2024-05-12T10:55:02Z</time>
</trkpt>
<trkpt lat="48.88764948584139" lon="9.194223331287503">
<ele>316.2</ele>
<time>2024-05-12T10:55:03Z</time>
</trkpt>
<trkpt lat="48.88764185830951" lon="9.19427203014493">
<ele>316.2</ele>
<time>2024-05-12T10:55:04Z</time>
</trkpt>
<trkpt lat="48.88763423077762" lon="9.194319723173976">
<ele>316.4</ele>
<time>2024-05-12T10:55:05Z</time>
</trkpt>
<trkpt lat="48.887626603245735" lon="9.19436833821237">
<ele>316.4</ele>
<time>2024-05-12T10:55:06Z</time>
</trkpt>
<trkpt lat="48.88762283138931" lon="9.194419803097844">
<ele>316.6</ele>
<time>2024-05-12T10:55:07Z</time>
</trkpt>
<trkpt lat="48.88761897571385" lon="9.194470345973969">
<ele>316.6</ele>
<time>2024-05-12T10:55:08Z</time>
</trkpt>
<trkpt lat="48.88761520385742" lon="9.194524744525552">
<ele>316.6</ele>
<time>2024-05-12T10:55:09Z</time>
</trkpt>
<trkpt lat="48.88761520385742" lon="9.194580065086484">
<ele>316.6</ele>
<time>2024-05-12T10:55:10Z</time>
</trkpt>
<trkpt lat="48.88761520385742" lon="9.194635385647416">
<ele>316.4</ele>
<time>2024-05-12T10:55:11Z</time>
</trkpt>
<trkpt lat="48.88761134818196" lon="9.19468877837062">
<ele>316.4</ele>
<time>2024-05-12T10:55:12Z</time>
</trkpt>
<trkpt lat="48.88761520385742" lon="9.19474309310317">
<ele>316.2</ele>
<time>2024-05-12T10:55:13Z</time>
</trkpt>
<trkpt lat="48.88761520385742" lon="9.194796485826371">
<ele>316</ele>
<time>2024-05-12T10:55:14Z</time>
</trkpt>
<trkpt lat="48.88761134818196" lon="9.194849962368608">
<ele>315.8</ele>
<time>2024-05-12T10:55:15Z</time>
</trkpt>
<trkpt lat="48.88761134818196" lon="9.19490335509181">
<ele>315.8</ele>
<time>2024-05-12T10:55:16Z</time>
</trkpt>
<trkpt lat="48.88761134818196" lon="9.194952892139554">
<ele>315.6</ele>
<time>2024-05-12T10:55:17Z</time>
</trkpt>
<trkpt lat="48.887607492506504" lon="9.195005362853408">
<ele>315.6</ele>
<time>2024-05-12T10:55:18Z</time>
</trkpt>
<trkpt lat="48.88760372065008" lon="9.195051128044724">
<ele>315.6</ele>
<time>2024-05-12T10:55:19Z</time>
</trkpt>
<trkpt lat="48.88760372065008" lon="9.195090271532536">
<ele>315.6</ele>
<time>2024-05-12T10:55:20Z</time>
</trkpt>
<trkpt lat="48.88759986497462" lon="9.195124553516507">
<ele>315.8</ele>
<time>2024-05-12T10:55:21Z</time>
</trkpt>
<trkpt lat="48.88759609311819" lon="9.195157997310162">
<ele>315.8</ele>
<time>2024-05-12T10:55:22Z</time>
</trkpt>
<trkpt lat="48.88759223744273" lon="9.195191357284784">
<ele>315.8</ele>
<time>2024-05-12T10:55:23Z</time>
</trkpt>
<trkpt lat="48.88759223744273" lon="9.195222789421678">
<ele>315.8</ele>
<time>2024-05-12T10:55:24Z</time>
</trkpt>
<trkpt lat="48.887588465586305" lon="9.19525807723403">
<ele>316</ele>
<time>2024-05-12T10:55:25Z</time>
</trkpt>
<trkpt lat="48.887588465586305" lon="9.195288587361574">
<ele>316</ele>
<time>2024-05-12T10:55:26Z</time>
</trkpt>
<trkpt lat="48.887584609910846" lon="9.19531624764204">
<ele>316</ele>
<time>2024-05-12T10:55:27Z</time>
</trkpt>
<trkpt lat="48.88758083805442" lon="9.195348685607314">
<ele>316</ele>
<time>2024-05-12T10:55:28Z</time>
</trkpt>
<trkpt lat="48.88758083805442" lon="9.19538020156324">
<ele>316</ele>
<time>2024-05-12T10:55:29Z</time>
</trkpt>
<trkpt lat="48.88758083805442" lon="9.19541641138494">
<ele>316</ele>
<time>2024-05-12T10:55:30Z</time>
</trkpt>
<trkpt lat="48.88757698237896" lon="9.195453627035022">
<ele>316</ele>
<time>2024-05-12T10:55:31Z</time>
</trkpt>
<trkpt lat="48.88757698237896" lon="9.195485059171917">
<ele>316.2</ele>
<time>2024-05-12T10:55:32Z</time>
</trkpt>
<trkpt lat="48.88757321052253" lon="9.19551657512784">
<ele>316.2</ele>
<time>2024-05-12T10:55:33Z</time>
</trkpt>
<trkpt lat="48.88757321052253" lon="9.195548007264732">
<ele>316.2</ele>
<time>2024-05-12T10:55:34Z</time>
</trkpt>
<trkpt lat="48.88757321052253" lon="9.195579523220658">
<ele>316.2</ele>
<time>2024-05-12T10:55:35Z</time>
</trkpt>
<trkpt lat="48.88757321052253" lon="9.195610033348204">
<ele>316.4</ele>
<time>2024-05-12T10:55:36Z</time>
</trkpt>
<trkpt lat="48.887569354847074" lon="9.195636687800288">
<ele>316.4</ele>
<time>2024-05-12T10:55:37Z</time>
</trkpt>
<trkpt lat="48.88756172731519" lon="9.195668203756211">
<ele>316.6</ele>
<time>2024-05-12T10:55:38Z</time>
</trkpt>
<trkpt lat="48.88756172731519" lon="9.195699635893106">
<ele>316.6</ele>
<time>2024-05-12T10:55:39Z</time>
</trkpt>
<trkpt lat="48.88756172731519" lon="9.195728302001951">
<ele>316.8</ele>
<time>2024-05-12T10:55:40Z</time>
</trkpt>
<trkpt lat="48.88756172731519" lon="9.195757806301115">
<ele>316.8</ele>
<time>2024-05-12T10:55:41Z</time>
</trkpt>
<trkpt lat="48.887565582990646" lon="9.19579024426639">
<ele>317</ele>
<time>2024-05-12T10:55:42Z</time>
</trkpt>
<trkpt lat="48.88757321052253" lon="9.195817904546857">
<ele>317</ele>
<time>2024-05-12T10:55:43Z</time>
</trkpt>
<trkpt lat="48.88757321052253" lon="9.19585126452148">
<ele>317</ele>
<time>2024-05-12T10:55:44Z</time>
</trkpt>
<trkpt lat="48.88756172731519" lon="9.19589133001864">
<ele>317.2</ele>
<time>2024-05-12T10:55:45Z</time>
</trkpt>
<trkpt lat="48.88755795545876" lon="9.19593047350645">
<ele>317.4</ele>
<time>2024-05-12T10:55:46Z</time>
</trkpt>
<trkpt lat="48.8875540997833" lon="9.19596953317523">
<ele>317.6</ele>
<time>2024-05-12T10:55:47Z</time>
</trkpt>
<trkpt lat="48.887550327926874" lon="9.19600959867239">
<ele>317.8</ele>
<time>2024-05-12T10:55:48Z</time>
</trkpt>
<trkpt lat="48.887546472251415" lon="9.196046814322472">
<ele>318</ele>
<time>2024-05-12T10:55:49Z</time>
</trkpt>
<trkpt lat="48.88754270039499" lon="9.196083024144173">
<ele>318</ele>
<time>2024-05-12T10:55:50Z</time>
</trkpt>
<trkpt lat="48.88753884471953" lon="9.196113534271715">
<ele>318.2</ele>
<time>2024-05-12T10:55:51Z</time>
</trkpt>
<trkpt lat="48.8875350728631" lon="9.196143122389913">
<ele>318.4</ele>
<time>2024-05-12T10:55:52Z</time>
</trkpt>
<trkpt lat="48.88753884471953" lon="9.19616692699492">
<ele>318.4</ele>
<time>2024-05-12T10:55:53Z</time>
</trkpt>
<trkpt lat="48.8875350728631" lon="9.196194587275386">
<ele>318.4</ele>
<time>2024-05-12T10:55:54Z</time>
</trkpt>
<trkpt lat="48.8875350728631" lon="9.196214620023966">
<ele>318.4</ele>
<time>2024-05-12T10:55:55Z</time>
</trkpt>
<trkpt lat="48.8875350728631" lon="9.196241358295085">
<ele>318.4</ele>
<time>2024-05-12T10:55:56Z</time>
</trkpt>
<trkpt lat="48.88753121718764" lon="9.196269940584898">
<ele>318.6</ele>
<time>2024-05-12T10:55:57Z</time>
</trkpt>
<trkpt lat="48.887527445331216" lon="9.196291901171207">
<ele>318.6</ele>
<time>2024-05-12T10:55:58Z</time>
</trkpt>
<trkpt lat="48.88752358965576" lon="9.196310006082058">
<ele>318.6</ele>
<time>2024-05-12T10:55:59Z</time>
</trkpt>
<trkpt lat="48.88751981779933" lon="9.19632618315518">
<ele>318.6</ele>
<time>2024-05-12T10:56:00Z</time>
</trkpt>
<trkpt lat="48.88751981779933" lon="9.196339594200252">
<ele>318.6</ele>
<time>2024-05-12T10:56:01Z</time>
</trkpt>
<trkpt lat="48.88751981779933" lon="9.196350071579218">
<ele>318.6</ele>
<time>2024-05-12T10:56:02Z</time>
</trkpt>
<trkpt lat="48.88751981779933" lon="9.19636339880526">
<ele>318.6</ele>
<time>2024-05-12T10:56:03Z</time>
</trkpt>
<trkpt lat="48.88751981779933" lon="9.196372954174876">
<ele>318.6</ele>
<time>2024-05-12T10:56:04Z</time>
</trkpt>
<trkpt lat="48.88751981779933" lon="9.196388209238648">
<ele>318.6</ele>
<time>2024-05-12T10:56:05Z</time>
</trkpt>
<trkpt lat="48.88751596212387" lon="9.196399608626962">
<ele>318.6</ele>
<time>2024-05-12T10:56:06Z</time>
</trkpt>
<trkpt lat="48.88751596212387" lon="9.196418719366193">
<ele>318.6</ele>
<time>2024-05-12T10:56:07Z</time>
</trkpt>
<trkpt lat="48.887508334591985" lon="9.196448307484388">
<ele>318.6</ele>
<time>2024-05-12T10:56:08Z</time>
</trkpt>
<trkpt lat="48.887508334591985" lon="9.196471190080048">
<ele>318.6</ele>
<time>2024-05-12T10:56:09Z</time>
</trkpt>
<trkpt lat="48.887508334591985" lon="9.196491222828628">
<ele>318.4</ele>
<time>2024-05-12T10:56:10Z</time>
</trkpt>
<trkpt lat="48.88750456273556" lon="9.196515027433634">
<ele>318.4</ele>
<time>2024-05-12T10:56:11Z</time>
</trkpt>
<trkpt lat="48.8875007070601" lon="9.196548387408257">
<ele>318.2</ele>
<time>2024-05-12T10:56:12Z</time>
</trkpt>
<trkpt lat="48.8875007070601" lon="9.196583675220609">
<ele>318.2</ele>
<time>2024-05-12T10:56:13Z</time>
</trkpt>
<trkpt lat="48.8875007070601" lon="9.196623740717769">
<ele>318</ele>
<time>2024-05-12T10:56:14Z</time>
</trkpt>
<trkpt lat="48.88749693520367" lon="9.196673361584544">
<ele>318</ele>
<time>2024-05-12T10:56:15Z</time>
</trkpt>
<trkpt lat="48.88749307952821" lon="9.19672004878521">
<ele>317.8</ele>
<time>2024-05-12T10:56:16Z</time>
</trkpt>
<trkpt lat="48.887489307671785" lon="9.196764891967176">
<ele>317.8</ele>
<time>2024-05-12T10:56:17Z</time>
</trkpt>
<trkpt lat="48.8874816801399" lon="9.19680210761726">
<ele>317.8</ele>
<time>2024-05-12T10:56:18Z</time>
</trkpt>
<trkpt lat="48.88747405260801" lon="9.196824990212916">
<ele>317.6</ele>
<time>2024-05-12T10:56:19Z</time>
</trkpt>
<trkpt lat="48.88746256940067" lon="9.196849800646303">
<ele>317.8</ele>
<time>2024-05-12T10:56:20Z</time>
</trkpt>
<trkpt lat="48.887451170012355" lon="9.19688031077385">
<ele>317.8</ele>
<time>2024-05-12T10:56:21Z</time>
</trkpt>
<trkpt lat="48.88743968680501" lon="9.196903193369508">
<ele>317.8</ele>
<time>2024-05-12T10:56:22Z</time>
</trkpt>
<trkpt lat="48.887428203597665" lon="9.196921298280358">
<ele>317.8</ele>
<time>2024-05-12T10:56:23Z</time>
</trkpt>
<trkpt lat="48.88742057606578" lon="9.196949880570171">
<ele>317.8</ele>
<time>2024-05-12T10:56:24Z</time>
</trkpt>
<trkpt lat="48.88741680420935" lon="9.196973768994212">
<ele>318</ele>
<time>2024-05-12T10:56:25Z</time>
</trkpt>
<trkpt lat="48.88741294853389" lon="9.1969985794276">
<ele>318</ele>
<time>2024-05-12T10:56:26Z</time>
</trkpt>
<trkpt lat="48.887409176677465" lon="9.197019534185529">
<ele>318</ele>
<time>2024-05-12T10:56:27Z</time>
</trkpt>
<trkpt lat="48.887409176677465" lon="9.197043338790536">
<ele>318.2</ele>
<time>2024-05-12T10:56:28Z</time>
</trkpt>
<trkpt lat="48.887409176677465" lon="9.197070077061651">
<ele>318.2</ele>
<time>2024-05-12T10:56:29Z</time>
</trkpt>
<trkpt lat="48.887409176677465" lon="9.197098659351468">
<ele>318.2</ele>
<time>2024-05-12T10:56:30Z</time>
</trkpt>
<trkpt lat="48.887409176677465" lon="9.197130175307391">
<ele>318.2</ele>
<time>2024-05-12T10:56:31Z</time>
</trkpt>
<trkpt lat="48.88740532100201" lon="9.197161607444286">
<ele>318.4</ele>
<time>2024-05-12T10:56:32Z</time>
</trkpt>
<trkpt lat="48.88740154914558" lon="9.19719505123794">
<ele>318.4</ele>
<time>2024-05-12T10:56:33Z</time>
</trkpt>
<trkpt lat="48.88740154914558" lon="9.197226483374834">
<ele>318.4</ele>
<time>2024-05-12T10:56:34Z</time>
</trkpt>
<trkpt lat="48.88740154914558" lon="9.197255065664647">
<ele>318.4</ele>
<time>2024-05-12T10:56:35Z</time>
</trkpt>
<trkpt lat="48.88740154914558" lon="9.197281803935766">
<ele>318.4</ele>
<time>2024-05-12T10:56:36Z</time>
</trkpt>
<trkpt lat="48.887409176677465" lon="9.197306614369154">
<ele>318.4</ele>
<time>2024-05-12T10:56:37Z</time>
</trkpt>
<trkpt lat="48.88741680420935" lon="9.197328491136432">
<ele>318.6</ele>
<time>2024-05-12T10:56:38Z</time>
</trkpt>
<trkpt lat="48.88742443174124" lon="9.197349529713392">
<ele>318.6</ele>
<time>2024-05-12T10:56:39Z</time>
</trkpt>
<trkpt lat="48.88743205927312" lon="9.197369562461972">
<ele>318.6</ele>
<time>2024-05-12T10:56:40Z</time>
</trkpt>
<trkpt lat="48.88743968680501" lon="9.19739143922925">
<ele>318.6</ele>
<time>2024-05-12T10:56:41Z</time>
</trkpt>
<trkpt lat="48.88744354248047" lon="9.197416249662638">
<ele>318.6</ele>
<time>2024-05-12T10:56:42Z</time>
</trkpt>
<trkpt lat="48.887447314336896" lon="9.197442987933757">
<ele>318.6</ele>
<time>2024-05-12T10:56:43Z</time>
</trkpt>
<trkpt lat="48.88745494186878" lon="9.197480119764805">
<ele>318.6</ele>
<time>2024-05-12T10:56:44Z</time>
</trkpt>
<trkpt lat="48.88745494186878" lon="9.197518341243269">
<ele>318.6</ele>
<time>2024-05-12T10:56:45Z</time>
</trkpt>
<trkpt lat="48.88745494186878" lon="9.197556478902698">
<ele>318.6</ele>
<time>2024-05-12T10:56:46Z</time>
</trkpt>
<trkpt lat="48.88745494186878" lon="9.197593610733747">
<ele>318.6</ele>
<time>2024-05-12T10:56:47Z</time>
</trkpt>
<trkpt lat="48.887451170012355" lon="9.19762990437448">
<ele>318.6</ele>
<time>2024-05-12T10:56:48Z</time>
</trkpt>
<trkpt lat="48.88744354248047" lon="9.19766996987164">
<ele>318.6</ele>
<time>2024-05-12T10:56:49Z</time>
</trkpt>
<trkpt lat="48.88744354248047" lon="9.197711879387498">
<ele>318.6</ele>
<time>2024-05-12T10:56:50Z</time>
</trkpt>
<trkpt lat="48.88743583112955" lon="9.197756722569466">
<ele>318.6</ele>
<time>2024-05-12T10:56:51Z</time>
</trkpt>
<trkpt lat="48.88743583112955" lon="9.197801565751432">
<ele>318.6</ele>
<time>2024-05-12T10:56:52Z</time>
</trkpt>
<trkpt lat="48.88743205927312" lon="9.197850180789828">
<ele>318.6</ele>
<time>2024-05-12T10:56:53Z</time>
</trkpt>
<trkpt lat="48.887428203597665" lon="9.197899801656604">
<ele>318.6</ele>
<time>2024-05-12T10:56:54Z</time>
</trkpt>
<trkpt lat="48.887428203597665" lon="9.197950344532728">
<ele>318.6</ele>
<time>2024-05-12T10:56:55Z</time>
</trkpt>
<trkpt lat="48.88742443174124" lon="9.1980018094182">
<ele>318.6</ele>
<time>2024-05-12T10:56:56Z</time>
</trkpt>
<trkpt lat="48.88742057606578" lon="9.198051430284975">
<ele>318.6</ele>
<time>2024-05-12T10:56:57Z</time>
</trkpt>
<trkpt lat="48.88741680420935" lon="9.198100045323372">
<ele>318.6</ele>
<time>2024-05-12T10:56:58Z</time>
</trkpt>
<trkpt lat="48.887409176677465" lon="9.198151510208843">
<ele>318.8</ele>
<time>2024-05-12T10:56:59Z</time>
</trkpt>
<trkpt lat="48.88740532100201" lon="9.19820498675108">
<ele>318.8</ele>
<time>2024-05-12T10:57:00Z</time>
</trkpt>
<trkpt lat="48.88740154914558" lon="9.198260307312012">
<ele>319</ele>
<time>2024-05-12T10:57:01Z</time>
</trkpt>
<trkpt lat="48.88740154914558" lon="9.198313700035214">
<ele>319.2</ele>
<time>2024-05-12T10:57:02Z</time>
</trkpt>
<trkpt lat="48.88739769347012" lon="9.198368014767766">
<ele>319.2</ele>
<time>2024-05-12T10:57:03Z</time>
</trkpt>
<trkpt lat="48.887390065938234" lon="9.198423335328698">
<ele>319.4</ele>
<time>2024-05-12T10:57:04Z</time>
</trkpt>
<trkpt lat="48.887390065938234" lon="9.19847957789898">
<ele>319.6</ele>
<time>2024-05-12T10:57:05Z</time>
</trkpt>
<trkpt lat="48.88738243840635" lon="9.198534898459911">
<ele>319.8</ele>
<time>2024-05-12T10:57:06Z</time>
</trkpt>
<trkpt lat="48.88737866654992" lon="9.198590219020844">
<ele>320</ele>
<time>2024-05-12T10:57:07Z</time>
</trkpt>
<trkpt lat="48.88737481087446" lon="9.198646545410156">
<ele>320</ele>
<time>2024-05-12T10:57:08Z</time>
</trkpt>
<trkpt lat="48.887371039018035" lon="9.19869993813336">
<ele>320.2</ele>
<time>2024-05-12T10:57:09Z</time>
</trkpt>
<trkpt lat="48.887371039018035" lon="9.198755258694291">
<ele>320.2</ele>
<time>2024-05-12T10:57:10Z</time>
</trkpt>
<trkpt lat="48.887367183342576" lon="9.198806723579764">
<ele>320.4</ele>
<time>2024-05-12T10:57:11Z</time>
</trkpt>
<trkpt lat="48.88736341148615" lon="9.198860116302969">
<ele>320.6</ele>
<time>2024-05-12T10:57:12Z</time>
</trkpt>
<trkpt lat="48.88735955581069" lon="9.1989154368639">
<ele>320.8</ele>
<time>2024-05-12T10:57:13Z</time>
</trkpt>
<trkpt lat="48.88735578395426" lon="9.198969835415484">
<ele>321.2</ele>
<time>2024-05-12T10:57:14Z</time>
</trkpt>
<trkpt lat="48.88734815642238" lon="9.199026999995112">
<ele>321.6</ele>
<time>2024-05-12T10:57:15Z</time>
</trkpt>
<trkpt lat="48.88734815642238" lon="9.199081398546696">
<ele>322</ele>
<time>2024-05-12T10:57:16Z</time>
</trkpt>
<trkpt lat="48.88734430074692" lon="9.199139568954706">
<ele>322.4</ele>
<time>2024-05-12T10:57:17Z</time>
</trkpt>
<trkpt lat="48.88733667321503" lon="9.199198661372066">
<ele>322.6</ele>
<time>2024-05-12T10:57:18Z</time>
</trkpt>
<trkpt lat="48.88733667321503" lon="9.199253059923649">
<ele>323</ele>
<time>2024-05-12T10:57:19Z</time>
</trkpt>
<trkpt lat="48.88733667321503" lon="9.199304524809122">
<ele>323.4</ele>
<time>2024-05-12T10:57:20Z</time>
</trkpt>
<trkpt lat="48.88733290135861" lon="9.199361773207784">
<ele>323.8</ele>
<time>2024-05-12T10:57:21Z</time>
</trkpt>
<trkpt lat="48.887329045683146" lon="9.19942371547222">
<ele>324.2</ele>
<time>2024-05-12T10:57:22Z</time>
</trkpt>
<trkpt lat="48.88732527382672" lon="9.199482891708612">
<ele>324.4</ele>
<time>2024-05-12T10:57:23Z</time>
</trkpt>
<trkpt lat="48.88732141815126" lon="9.199548689648507">
<ele>324.6</ele>
<time>2024-05-12T10:57:24Z</time>
</trkpt>
<trkpt lat="48.88731764629483" lon="9.199607782065868">
<ele>324.8</ele>
<time>2024-05-12T10:57:25Z</time>
</trkpt>
<trkpt lat="48.88731764629483" lon="9.19966695830226">
<ele>325</ele>
<time>2024-05-12T10:57:26Z</time>
</trkpt>
<trkpt lat="48.88731379061937" lon="9.19972320087254">
<ele>325.2</ele>
<time>2024-05-12T10:57:27Z</time>
</trkpt>
<trkpt lat="48.887310018762946" lon="9.199781371280553">
<ele>325.2</ele>
<time>2024-05-12T10:57:28Z</time>
</trkpt>
<trkpt lat="48.88730239123106" lon="9.19983954168856">
<ele>325.4</ele>
<time>2024-05-12T10:57:29Z</time>
</trkpt>
<trkpt lat="48.887294763699174" lon="9.199903411790729">
<ele>325.6</ele>
<time>2024-05-12T10:57:30Z</time>
</trkpt>
<trkpt lat="48.887290908023715" lon="9.199964515864847">
<ele>325.8</ele>
<time>2024-05-12T10:57:31Z</time>
</trkpt>
<trkpt lat="48.887290908023715" lon="9.200026458129289">
<ele>326</ele>
<time>2024-05-12T10:57:32Z</time>
</trkpt>
<trkpt lat="48.88728713616729" lon="9.200083706527948">
<ele>326.2</ele>
<time>2024-05-12T10:57:33Z</time>
</trkpt>
<trkpt lat="48.88728328049183" lon="9.200144726783035">
<ele>326.4</ele>
<time>2024-05-12T10:57:34Z</time>
</trkpt>
<trkpt lat="48.88728713616729" lon="9.2002019751817">
<ele>326.4</ele>
<time>2024-05-12T10:57:35Z</time>
</trkpt>
<trkpt lat="48.88728328049183" lon="9.200255367904902">
<ele>326.4</ele>
<time>2024-05-12T10:57:36Z</time>
</trkpt>
<trkpt lat="48.88728328049183" lon="9.200308760628104">
<ele>326.4</ele>
<time>2024-05-12T10:57:37Z</time>
</trkpt>
<trkpt lat="48.88728328049183" lon="9.200363159179688">
<ele>326.4</ele>
<time>2024-05-12T10:57:38Z</time>
</trkpt>
<trkpt lat="48.88727565295994" lon="9.200420323759316">
<ele>326.4</ele>
<time>2024-05-12T10:57:39Z</time>
</trkpt>
<trkpt lat="48.88726802542806" lon="9.20047371648252">
<ele>326.4</ele>
<time>2024-05-12T10:57:40Z</time>
</trkpt>
<trkpt lat="48.88726039789617" lon="9.200525265187023">
<ele>326.6</ele>
<time>2024-05-12T10:57:41Z</time>
</trkpt>
<trkpt lat="48.88726039789617" lon="9.200576730072498">
<ele>326.6</ele>
<time>2024-05-12T10:57:42Z</time>
</trkpt>
<trkpt lat="48.88725654222071" lon="9.20063205063343">
<ele>326.6</ele>
<time>2024-05-12T10:57:43Z</time>
</trkpt>
<trkpt lat="48.88725654222071" lon="9.200688293203712">
<ele>326.6</ele>
<time>2024-05-12T10:57:44Z</time>
</trkpt>
<trkpt lat="48.887252770364285" lon="9.200744619593024">
<ele>326.6</ele>
<time>2024-05-12T10:57:45Z</time>
</trkpt>
<trkpt lat="48.88725654222071" lon="9.200799940153956">
<ele>326.6</ele>
<time>2024-05-12T10:57:46Z</time>
</trkpt>
<trkpt lat="48.88725654222071" lon="9.20085333287716">
<ele>326.8</ele>
<time>2024-05-12T10:57:47Z</time>
</trkpt>
<trkpt lat="48.88725654222071" lon="9.200906725600362">
<ele>327</ele>
<time>2024-05-12T10:57:48Z</time>
</trkpt>
<trkpt lat="48.88725654222071" lon="9.200955340638757">
<ele>327</ele>
<time>2024-05-12T10:57:49Z</time>
</trkpt>
<trkpt lat="48.887252770364285" lon="9.201004961505532">
<ele>327.2</ele>
<time>2024-05-12T10:57:50Z</time>
</trkpt>
<trkpt lat="48.88725654222071" lon="9.201051648706198">
<ele>327.2</ele>
<time>2024-05-12T10:57:51Z</time>
</trkpt>
<trkpt lat="48.88725654222071" lon="9.201089786365628">
<ele>327.4</ele>
<time>2024-05-12T10:57:52Z</time>
</trkpt>
<trkpt lat="48.887252770364285" lon="9.20112792402506">
<ele>327.4</ele>
<time>2024-05-12T10:57:53Z</time>
</trkpt>
<trkpt lat="48.887248914688826" lon="9.20116706751287">
<ele>327.6</ele>
<time>2024-05-12T10:57:54Z</time>
</trkpt>
<trkpt lat="48.8872451428324" lon="9.201198499649765">
<ele>327.6</ele>
<time>2024-05-12T10:57:55Z</time>
</trkpt>
<trkpt lat="48.8872451428324" lon="9.20122615993023">
<ele>327.6</ele>
<time>2024-05-12T10:57:56Z</time>
</trkpt>
<trkpt lat="48.88724128715694" lon="9.201256670057774">
<ele>327.6</ele>
<time>2024-05-12T10:57:57Z</time>
</trkpt>
<trkpt lat="48.88724128715694" lon="9.20128533616662">
<ele>327.6</ele>
<time>2024-05-12T10:57:58Z</time>
</trkpt>
<trkpt lat="48.88724128715694" lon="9.201306290924547">
<ele>327.8</ele>
<time>2024-05-12T10:57:59Z</time>
</trkpt>
<trkpt lat="48.88724128715694" lon="9.201332023367286">
<ele>327.8</ele>
<time>2024-05-12T10:58:00Z</time>
</trkpt>
<trkpt lat="48.8872451428324" lon="9.201353061944246">
<ele>327.8</ele>
<time>2024-05-12T10:58:01Z</time>
</trkpt>
<trkpt lat="48.88724128715694" lon="9.20138164423406">
<ele>327.8</ele>
<time>2024-05-12T10:58:02Z</time>
</trkpt>
<trkpt lat="48.88724128715694" lon="9.201408382505178">
<ele>327.8</ele>
<time>2024-05-12T10:58:03Z</time>
</trkpt>
<trkpt lat="48.88724128715694" lon="9.201439814642072">
<ele>327.8</ele>
<time>2024-05-12T10:58:04Z</time>
</trkpt>
<trkpt lat="48.88724128715694" lon="9.201477030292152">
<ele>327.8</ele>
<time>2024-05-12T10:58:05Z</time>
</trkpt>
<trkpt lat="48.887229887768626" lon="9.201533272862434">
<ele>327.8</ele>
<time>2024-05-12T10:58:06Z</time>
</trkpt>
<trkpt lat="48.88722603209317" lon="9.201584737747908">
<ele>327.8</ele>
<time>2024-05-12T10:58:07Z</time>
</trkpt>
<trkpt lat="48.88721840456128" lon="9.201635280624032">
<ele>327.8</ele>
<time>2024-05-12T10:58:08Z</time>
</trkpt>
<trkpt lat="48.887214632704854" lon="9.201682973653078">
<ele>327.6</ele>
<time>2024-05-12T10:58:09Z</time>
</trkpt>
<trkpt lat="48.887210777029395" lon="9.201731672510505">
<ele>327.6</ele>
<time>2024-05-12T10:58:10Z</time>
</trkpt>
<trkpt lat="48.88720314949751" lon="9.201785065233707">
<ele>327.6</ele>
<time>2024-05-12T10:58:11Z</time>
</trkpt>
<trkpt lat="48.88719552196562" lon="9.201834602281451">
<ele>327.6</ele>
<time>2024-05-12T10:58:12Z</time>
</trkpt>
<trkpt lat="48.8871917501092" lon="9.201883301138878">
<ele>327.8</ele>
<time>2024-05-12T10:58:13Z</time>
</trkpt>
<trkpt lat="48.88718412257731" lon="9.201929988339543">
<ele>327.6</ele>
<time>2024-05-12T10:58:14Z</time>
</trkpt>
<trkpt lat="48.88716886751354" lon="9.201965276151896">
<ele>327.6</ele>
<time>2024-05-12T10:58:15Z</time>
</trkpt>
<trkpt lat="48.88715738430619" lon="9.202005341649055">
<ele>327.6</ele>
<time>2024-05-12T10:58:16Z</time>
</trkpt>
<trkpt lat="48.88714598491788" lon="9.202043479308486">
<ele>327.6</ele>
<time>2024-05-12T10:58:17Z</time>
</trkpt>
<trkpt lat="48.887134501710534" lon="9.202081616967916">
<ele>327.6</ele>
<time>2024-05-12T10:58:18Z</time>
</trkpt>
<trkpt lat="48.88712310232222" lon="9.202124532312157">
<ele>327.8</ele>
<time>2024-05-12T10:58:19Z</time>
</trkpt>
<trkpt lat="48.88711924664676" lon="9.20217507518828">
<ele>327.8</ele>
<time>2024-05-12T10:58:20Z</time>
</trkpt>
<trkpt lat="48.88711924664676" lon="9.202226623892784">
<ele>327.8</ele>
<time>2024-05-12T10:58:21Z</time>
</trkpt>
<trkpt lat="48.887115474790335" lon="9.202276160940528">
<ele>327.8</ele>
<time>2024-05-12T10:58:22Z</time>
</trkpt>
<trkpt lat="48.887115474790335" lon="9.20232955366373">
<ele>327.8</ele>
<time>2024-05-12T10:58:23Z</time>
</trkpt>
<trkpt lat="48.88711161911488" lon="9.202384874224665">
<ele>327.8</ele>
<time>2024-05-12T10:58:24Z</time>
</trkpt>
<trkpt lat="48.88711161911488" lon="9.202441200613976">
<ele>328</ele>
<time>2024-05-12T10:58:25Z</time>
</trkpt>
<trkpt lat="48.88711161911488" lon="9.202498365193604">
<ele>328</ele>
<time>2024-05-12T10:58:26Z</time>
</trkpt>
<trkpt lat="48.88711161911488" lon="9.202558463439344">
<ele>328</ele>
<time>2024-05-12T10:58:27Z</time>
</trkpt>
<trkpt lat="48.88711161911488" lon="9.202616633847356">
<ele>328.2</ele>
<time>2024-05-12T10:58:28Z</time>
</trkpt>
<trkpt lat="48.887115474790335" lon="9.20267002657056">
<ele>328.2</ele>
<time>2024-05-12T10:58:29Z</time>
</trkpt>
<trkpt lat="48.887115474790335" lon="9.202732052654028">
<ele>328.2</ele>
<time>2024-05-12T10:58:30Z</time>
</trkpt>
<trkpt lat="48.88711161911488" lon="9.202793072909117">
<ele>328.4</ele>
<time>2024-05-12T10:58:31Z</time>
</trkpt>
<trkpt lat="48.88710399158299" lon="9.202853171154857">
<ele>328.4</ele>
<time>2024-05-12T10:58:32Z</time>
</trkpt>
<trkpt lat="48.887096364051104" lon="9.202917041257024">
<ele>328.4</ele>
<time>2024-05-12T10:58:33Z</time>
</trkpt>
<trkpt lat="48.88708488084376" lon="9.202978061512113">
<ele>328.6</ele>
<time>2024-05-12T10:58:34Z</time>
</trkpt>
<trkpt lat="48.88707725331187" lon="9.203040087595582">
<ele>328.6</ele>
<time>2024-05-12T10:58:35Z</time>
</trkpt>
<trkpt lat="48.88706585392356" lon="9.203098258003592">
<ele>328.6</ele>
<time>2024-05-12T10:58:36Z</time>
</trkpt>
<trkpt lat="48.887054370716214" lon="9.203156428411605">
<ele>328.8</ele>
<time>2024-05-12T10:58:37Z</time>
</trkpt>
<trkpt lat="48.8870429713279" lon="9.203213676810265">
<ele>328.8</ele>
<time>2024-05-12T10:58:38Z</time>
</trkpt>
<trkpt lat="48.88702771626413" lon="9.203267069533467">
<ele>329</ele>
<time>2024-05-12T10:58:39Z</time>
</trkpt>
<trkpt lat="48.887016233056784" lon="9.20331853441894">
<ele>329</ele>
<time>2024-05-12T10:58:40Z</time>
</trkpt>
<trkpt lat="48.886997206136584" lon="9.203372932970524">
<ele>329.2</ele>
<time>2024-05-12T10:58:41Z</time>
</trkpt>
<trkpt lat="48.88698572292924" lon="9.203430097550154">
<ele>329.4</ele>
<time>2024-05-12T10:58:42Z</time>
</trkpt>
<trkpt lat="48.88697046786547" lon="9.203484496101735">
<ele>329.4</ele>
<time>2024-05-12T10:58:43Z</time>
</trkpt>
<trkpt lat="48.88695144094527" lon="9.20353696681559">
<ele>329.6</ele>
<time>2024-05-12T10:58:44Z</time>
</trkpt>
<trkpt lat="48.88693233020604" lon="9.203590359538794">
<ele>329.6</ele>
<time>2024-05-12T10:58:45Z</time>
</trkpt>
<trkpt lat="48.886917075142264" lon="9.20363805256784">
<ele>329.6</ele>
<time>2024-05-12T10:58:46Z</time>
</trkpt>
<trkpt lat="48.88690559193492" lon="9.203688595443964">
<ele>329.4</ele>
<time>2024-05-12T10:58:47Z</time>
</trkpt>
<trkpt lat="48.886894192546606" lon="9.20373528264463">
<ele>329.4</ele>
<time>2024-05-12T10:58:48Z</time>
</trkpt>
<trkpt lat="48.886878937482834" lon="9.203778197988868">
<ele>329.6</ele>
<time>2024-05-12T10:58:49Z</time>
</trkpt>
<trkpt lat="48.8868598267436" lon="9.203820191323755">
<ele>329.6</ele>
<time>2024-05-12T10:58:50Z</time>
</trkpt>
<trkpt lat="48.8868407998234" lon="9.203860256820915">
<ele>329.8</ele>
<time>2024-05-12T10:58:51Z</time>
</trkpt>
<trkpt lat="48.88682554475963" lon="9.20389361679554">
<ele>329.8</ele>
<time>2024-05-12T10:58:52Z</time>
</trkpt>
<trkpt lat="48.88681028969586" lon="9.203926976770164">
<ele>330</ele>
<time>2024-05-12T10:58:53Z</time>
</trkpt>
<trkpt lat="48.88679503463209" lon="9.203960336744784">
<ele>330</ele>
<time>2024-05-12T10:58:54Z</time>
</trkpt>
<trkpt lat="48.886775923892856" lon="9.204000402241943">
<ele>330.2</ele>
<time>2024-05-12T10:58:55Z</time>
</trkpt>
<trkpt lat="48.886756896972656" lon="9.204034768044949">
<ele>330.4</ele>
<time>2024-05-12T10:58:56Z</time>
</trkpt>
<trkpt lat="48.886733930557966" lon="9.204068128019571">
<ele>330.6</ele>
<time>2024-05-12T10:58:57Z</time>
</trkpt>
<trkpt lat="48.88671490363777" lon="9.204099643975496">
<ele>330.6</ele>
<time>2024-05-12T10:58:58Z</time>
</trkpt>
<trkpt lat="48.88668816536665" lon="9.204131998121738">
<ele>330.8</ele>
<time>2024-05-12T10:58:59Z</time>
</trkpt>
<trkpt lat="48.88666913844645" lon="9.2041702196002">
<ele>331</ele>
<time>2024-05-12T10:59:00Z</time>
</trkpt>
<trkpt lat="48.88665002770722" lon="9.204206429421902">
<ele>331.2</ele>
<time>2024-05-12T10:59:01Z</time>
</trkpt>
<trkpt lat="48.886623373255134" lon="9.204250266775489">
<ele>331.4</ele>
<time>2024-05-12T10:59:02Z</time>
</trkpt>
<trkpt lat="48.886596634984016" lon="9.204297959804537">
<ele>331.6</ele>
<time>2024-05-12T10:59:03Z</time>
</trkpt>
<trkpt lat="48.88657375238836" lon="9.204335175454617">
<ele>331.8</ele>
<time>2024-05-12T10:59:04Z</time>
</trkpt>
<trkpt lat="48.8865508697927" lon="9.204373313114049">
<ele>331.8</ele>
<time>2024-05-12T10:59:05Z</time>
</trkpt>
<trkpt lat="48.88653175905347" lon="9.2044086009264">
<ele>332</ele>
<time>2024-05-12T10:59:06Z</time>
</trkpt>
<trkpt lat="48.88651273213327" lon="9.20444866642356">
<ele>332.4</ele>
<time>2024-05-12T10:59:07Z</time>
</trkpt>
<trkpt lat="48.8864974770695" lon="9.204483032226563">
<ele>332.6</ele>
<time>2024-05-12T10:59:08Z</time>
</trkpt>
<trkpt lat="48.886478366330266" lon="9.20452301390469">
<ele>332.8</ele>
<time>2024-05-12T10:59:09Z</time>
</trkpt>
<trkpt lat="48.88645933941007" lon="9.20456307940185">
<ele>332.8</ele>
<time>2024-05-12T10:59:10Z</time>
</trkpt>
<trkpt lat="48.88643260113895" lon="9.20460507273674">
<ele>333</ele>
<time>2024-05-12T10:59:11Z</time>
</trkpt>
<trkpt lat="48.88641357421875" lon="9.204649915918708">
<ele>333</ele>
<time>2024-05-12T10:59:12Z</time>
</trkpt>
<trkpt lat="48.88639060780406" lon="9.204698530957105">
<ele>333.2</ele>
<time>2024-05-12T10:59:13Z</time>
</trkpt>
<trkpt lat="48.8863677252084" lon="9.204745218157768">
<ele>333.4</ele>
<time>2024-05-12T10:59:14Z</time>
</trkpt>
<trkpt lat="48.88634484261274" lon="9.204786289483309">
<ele>333.6</ele>
<time>2024-05-12T10:59:15Z</time>
</trkpt>
<trkpt lat="48.8863143324852" lon="9.204834904521704">
<ele>333.8</ele>
<time>2024-05-12T10:59:16Z</time>
</trkpt>
<trkpt lat="48.88629144988954" lon="9.204885447397828">
<ele>333.8</ele>
<time>2024-05-12T10:59:17Z</time>
</trkpt>
<trkpt lat="48.886264795437455" lon="9.204924507066607">
<ele>334</ele>
<time>2024-05-12T10:59:18Z</time>
</trkpt>
<trkpt lat="48.88623805716634" lon="9.204975049942732">
<ele>334</ele>
<time>2024-05-12T10:59:19Z</time>
</trkpt>
<trkpt lat="48.88621517457068" lon="9.20501796528697">
<ele>334</ele>
<time>2024-05-12T10:59:20Z</time>
</trkpt>
<trkpt lat="48.88619229197502" lon="9.20505803078413">
<ele>334.2</ele>
<time>2024-05-12T10:59:21Z</time>
</trkpt>
<trkpt lat="48.88617318123579" lon="9.205102873966098">
<ele>334.2</ele>
<time>2024-05-12T10:59:22Z</time>
</trkpt>
<trkpt lat="48.886146526783705" lon="9.205153416842222">
<ele>334.2</ele>
<time>2024-05-12T10:59:23Z</time>
</trkpt>
<trkpt lat="48.88612364418805" lon="9.20519633218646">
<ele>334.2</ele>
<time>2024-05-12T10:59:24Z</time>
</trkpt>
<trkpt lat="48.88610076159239" lon="9.205240169540048">
<ele>334.4</ele>
<time>2024-05-12T10:59:25Z</time>
</trkpt>
<trkpt lat="48.88607787899673" lon="9.205283084884286">
<ele>334.4</ele>
<time>2024-05-12T10:59:26Z</time>
</trkpt>
<trkpt lat="48.88605491258204" lon="9.205323150381446">
<ele>334.4</ele>
<time>2024-05-12T10:59:27Z</time>
</trkpt>
<trkpt lat="48.88603202998638" lon="9.205365143716335">
<ele>334.4</ele>
<time>2024-05-12T10:59:28Z</time>
</trkpt>
<trkpt lat="48.88600914739072" lon="9.205403281375766">
<ele>334.4</ele>
<time>2024-05-12T10:59:29Z</time>
</trkpt>
<trkpt lat="48.885986264795065" lon="9.205450052395465">
<ele>334.4</ele>
<time>2024-05-12T10:59:30Z</time>
</trkpt>
<trkpt lat="48.88596338219941" lon="9.205496739596128">
<ele>334.4</ele>
<time>2024-05-12T10:59:31Z</time>
</trkpt>
<trkpt lat="48.88593672774732" lon="9.20553294941783">
<ele>334.4</ele>
<time>2024-05-12T10:59:32Z</time>
</trkpt>
<trkpt lat="48.88590621761978" lon="9.20557301491499">
<ele>334.4</ele>
<time>2024-05-12T10:59:33Z</time>
</trkpt>
<trkpt lat="48.88588325120509" lon="9.20561115257442">
<ele>334.4</ele>
<time>2024-05-12T10:59:34Z</time>
</trkpt>
<trkpt lat="48.885856596753" lon="9.205650296062233">
<ele>334.4</ele>
<time>2024-05-12T10:59:35Z</time>
</trkpt>
<trkpt lat="48.88583371415734" lon="9.20569128356874">
<ele>334.2</ele>
<time>2024-05-12T10:59:36Z</time>
</trkpt>
<trkpt lat="48.885810831561685" lon="9.205739898607137">
<ele>334.2</ele>
<time>2024-05-12T10:59:37Z</time>
</trkpt>
<trkpt lat="48.88578409329057" lon="9.20579144731164">
<ele>334.2</ele>
<time>2024-05-12T10:59:38Z</time>
</trkpt>
<trkpt lat="48.88575358316302" lon="9.205844840034842">
<ele>334.2</ele>
<time>2024-05-12T10:59:39Z</time>
</trkpt>
<trkpt lat="48.88572692871094" lon="9.205898232758043">
<ele>334.2</ele>
<time>2024-05-12T10:59:40Z</time>
</trkpt>
<trkpt lat="48.88570019043982" lon="9.20594684779644">
<ele>334.2</ele>
<time>2024-05-12T10:59:41Z</time>
</trkpt>
<trkpt lat="48.8856734521687" lon="9.205991690978408">
<ele>334.2</ele>
<time>2024-05-12T10:59:42Z</time>
</trkpt>
<trkpt lat="48.88564679771662" lon="9.206036534160376">
<ele>334.2</ele>
<time>2024-05-12T10:59:43Z</time>
</trkpt>
<trkpt lat="48.885612431913614" lon="9.206091854721308">
<ele>334.2</ele>
<time>2024-05-12T10:59:44Z</time>
</trkpt>
<trkpt lat="48.88558577746153" lon="9.20614524744451">
<ele>334.2</ele>
<time>2024-05-12T10:59:45Z</time>
</trkpt>
<trkpt lat="48.885555267333984" lon="9.206199645996094">
<ele>334.2</ele>
<time>2024-05-12T10:59:46Z</time>
</trkpt>
<trkpt lat="48.88552467338741" lon="9.206252032890916">
<ele>334</ele>
<time>2024-05-12T10:59:47Z</time>
</trkpt>
<trkpt lat="48.88549039140344" lon="9.206299725919962">
<ele>333.8</ele>
<time>2024-05-12T10:59:48Z</time>
</trkpt>
<trkpt lat="48.88545988127589" lon="9.206356974318624">
<ele>333.8</ele>
<time>2024-05-12T10:59:49Z</time>
</trkpt>
<trkpt lat="48.885433143004775" lon="9.206410367041826">
<ele>333.6</ele>
<time>2024-05-12T10:59:50Z</time>
</trkpt>
<trkpt lat="48.88540648855269" lon="9.206471387296917">
<ele>333.4</ele>
<time>2024-05-12T10:59:51Z</time>
</trkpt>
<trkpt lat="48.885372122749686" lon="9.206528635695577">
<ele>333.2</ele>
<time>2024-05-12T10:59:52Z</time>
</trkpt>
<trkpt lat="48.88534161262214" lon="9.206576328724625">
<ele>333</ele>
<time>2024-05-12T10:59:53Z</time>
</trkpt>
<trkpt lat="48.885314874351025" lon="9.206623015925288">
<ele>333</ele>
<time>2024-05-12T10:59:54Z</time>
</trkpt>
<trkpt lat="48.88528821989894" lon="9.206663081422448">
<ele>332.8</ele>
<time>2024-05-12T10:59:55Z</time>
</trkpt>
<trkpt lat="48.885257709771395" lon="9.206713624298573">
<ele>332.8</ele>
<time>2024-05-12T10:59:56Z</time>
</trkpt>
<trkpt lat="48.88522334396839" lon="9.20676131732762">
<ele>332.6</ele>
<time>2024-05-12T10:59:57Z</time>
</trkpt>
<trkpt lat="48.88518520630896" lon="9.20680138282478">
<ele>332.6</ele>
<time>2024-05-12T10:59:58Z</time>
</trkpt>
<trkpt lat="48.88514706864953" lon="9.20684144832194">
<ele>332.6</ele>
<time>2024-05-12T10:59:59Z</time>
</trkpt>
<trkpt lat="48.88510507531464" lon="9.206871958449485">
<ele>332.4</ele>
<time>2024-05-12T11:00:00Z</time>
</trkpt>
<trkpt lat="48.88505931012333" lon="9.206888135522604">
<ele>332.4</ele>
<time>2024-05-12T11:00:01Z</time>
</trkpt>
<trkpt lat="48.885017316788435" lon="9.206901546567678">
<ele>332.2</ele>
<time>2024-05-12T11:00:02Z</time>
</trkpt>
<trkpt lat="48.884979179129004" lon="9.206925351172686">
<ele>332</ele>
<time>2024-05-12T11:00:03Z</time>
</trkpt>
<trkpt lat="48.88494489714503" lon="9.206958711147308">
<ele>331.8</ele>
<time>2024-05-12T11:00:04Z</time>
</trkpt>
<trkpt lat="48.884922014549375" lon="9.20699785463512">
<ele>331.6</ele>
<time>2024-05-12T11:00:05Z</time>
</trkpt>
<trkpt lat="48.88489913195371" lon="9.20705694705248">
<ele>331.4</ele>
<time>2024-05-12T11:00:06Z</time>
</trkpt>
<trkpt lat="48.884880021214485" lon="9.20711511746049">
<ele>331</ele>
<time>2024-05-12T11:00:07Z</time>
</trkpt>
<trkpt lat="48.8848723936826" lon="9.207164738327265">
<ele>330.8</ele>
<time>2024-05-12T11:00:08Z</time>
</trkpt>
<trkpt lat="48.8848723936826" lon="9.207209581509233">
<ele>330.4</ele>
<time>2024-05-12T11:00:09Z</time>
</trkpt>
<trkpt lat="48.8848723936826" lon="9.207248641178012">
<ele>330.2</ele>
<time>2024-05-12T11:00:10Z</time>
</trkpt>
<trkpt lat="48.88486862182617" lon="9.20729155652225">
<ele>329.8</ele>
<time>2024-05-12T11:00:11Z</time>
</trkpt>
<trkpt lat="48.884860910475254" lon="9.207334471866488">
<ele>329.8</ele>
<time>2024-05-12T11:00:12Z</time>
</trkpt>
<trkpt lat="48.88484565541148" lon="9.207381242886186">
<ele>329.6</ele>
<time>2024-05-12T11:00:13Z</time>
</trkpt>
<trkpt lat="48.884822772815824" lon="9.207445112988353">
<ele>329.6</ele>
<time>2024-05-12T11:00:14Z</time>
</trkpt>
<trkpt lat="48.884799890220165" lon="9.207500433549283">
<ele>329.4</ele>
<time>2024-05-12T11:00:15Z</time>
</trkpt>
<trkpt lat="48.884780863299966" lon="9.207545276731253">
<ele>329.4</ele>
<time>2024-05-12T11:00:16Z</time>
</trkpt>
<trkpt lat="48.88475412502885" lon="9.207596741616726">
<ele>329.4</ele>
<time>2024-05-12T11:00:17Z</time>
</trkpt>
<trkpt lat="48.884723614901304" lon="9.207654912024736">
<ele>329.2</ele>
<time>2024-05-12T11:00:18Z</time>
</trkpt>
<trkpt lat="48.884700732305646" lon="9.207703527063131">
<ele>329.2</ele>
<time>2024-05-12T11:00:19Z</time>
</trkpt>
<trkpt lat="48.8846702221781" lon="9.207755075767636">
<ele>329.2</ele>
<time>2024-05-12T11:00:20Z</time>
</trkpt>
<trkpt lat="48.884643483906984" lon="9.207801762968302">
<ele>329.2</ele>
<time>2024-05-12T11:00:21Z</time>
</trkpt>
<trkpt lat="48.8846168294549" lon="9.207848533988">
<ele>329.2</ele>
<time>2024-05-12T11:00:22Z</time>
</trkpt>
<trkpt lat="48.88459009118378" lon="9.207895221188664">
<ele>329.2</ele>
<time>2024-05-12T11:00:23Z</time>
</trkpt>
<trkpt lat="48.88456720858812" lon="9.207941992208362">
<ele>329.2</ele>
<time>2024-05-12T11:00:24Z</time>
</trkpt>
<trkpt lat="48.88454055413604" lon="9.207989685237408">
<ele>329.2</ele>
<time>2024-05-12T11:00:25Z</time>
</trkpt>
<trkpt lat="48.88451758772135" lon="9.208035450428724">
<ele>329.2</ele>
<time>2024-05-12T11:00:26Z</time>
</trkpt>
<trkpt lat="48.88449470512569" lon="9.20808121562004">
<ele>329.2</ele>
<time>2024-05-12T11:00:27Z</time>
</trkpt>
<trkpt lat="48.8844680506736" lon="9.208125052973628">
<ele>329</ele>
<time>2024-05-12T11:00:28Z</time>
</trkpt>
<trkpt lat="48.88444131240249" lon="9.208167968317866">
<ele>329</ele>
<time>2024-05-12T11:00:29Z</time>
</trkpt>
<trkpt lat="48.88441842980683" lon="9.208211889490483">
<ele>328.8</ele>
<time>2024-05-12T11:00:30Z</time>
</trkpt>
<trkpt lat="48.88438791967928" lon="9.20825857669115">
<ele>328.6</ele>
<time>2024-05-12T11:00:31Z</time>
</trkpt>
<trkpt lat="48.8843612652272" lon="9.208306269720197">
<ele>328.4</ele>
<time>2024-05-12T11:00:32Z</time>
</trkpt>
<trkpt lat="48.88433067128062" lon="9.208354884758592">
<ele>328.2</ele>
<time>2024-05-12T11:00:33Z</time>
</trkpt>
<trkpt lat="48.88430401682854" lon="9.208403583616018">
<ele>328</ele>
<time>2024-05-12T11:00:34Z</time>
</trkpt>
<trkpt lat="48.88427350670099" lon="9.208453120663762">
<ele>327.8</ele>
<time>2024-05-12T11:00:35Z</time>
</trkpt>
<trkpt lat="48.884246768429875" lon="9.208503663539886">
<ele>327.6</ele>
<time>2024-05-12T11:00:36Z</time>
</trkpt>
<trkpt lat="48.88421625830233" lon="9.20855705626309">
<ele>327.4</ele>
<time>2024-05-12T11:00:37Z</time>
</trkpt>
<trkpt lat="48.884189603850245" lon="9.208606677129865">
<ele>327.4</ele>
<time>2024-05-12T11:00:38Z</time>
</trkpt>
<trkpt lat="48.88416286557913" lon="9.208660069853067">
<ele>327.4</ele>
<time>2024-05-12T11:00:39Z</time>
</trkpt>
<trkpt lat="48.884132355451584" lon="9.20871346257627">
<ele>327.2</ele>
<time>2024-05-12T11:00:40Z</time>
</trkpt>
<trkpt lat="48.88410561718047" lon="9.208765011280777">
<ele>327.4</ele>
<time>2024-05-12T11:00:41Z</time>
</trkpt>
<trkpt lat="48.88407510705292" lon="9.20881169848144">
<ele>327.4</ele>
<time>2024-05-12T11:00:42Z</time>
</trkpt>
<trkpt lat="48.88404845260084" lon="9.208858469501138">
<ele>327.4</ele>
<time>2024-05-12T11:00:43Z</time>
</trkpt>
<trkpt lat="48.88402171432972" lon="9.208903312683104">
<ele>327.4</ele>
<time>2024-05-12T11:00:44Z</time>
</trkpt>
<trkpt lat="48.8839949760586" lon="9.208946228027344">
<ele>327.6</ele>
<time>2024-05-12T11:00:45Z</time>
</trkpt>
<trkpt lat="48.883972093462944" lon="9.2089881375432">
<ele>327.6</ele>
<time>2024-05-12T11:00:46Z</time>
</trkpt>
<trkpt lat="48.883949210867286" lon="9.20903298072517">
<ele>327.6</ele>
<time>2024-05-12T11:00:47Z</time>
</trkpt>
<trkpt lat="48.88392632827163" lon="9.209078745916486">
<ele>327.6</ele>
<time>2024-05-12T11:00:48Z</time>
</trkpt>
<trkpt lat="48.88389967381954" lon="9.209121661260724">
<ele>327.8</ele>
<time>2024-05-12T11:00:49Z</time>
</trkpt>
<trkpt lat="48.88387679122389" lon="9.209164576604962">
<ele>327.8</ele>
<time>2024-05-12T11:00:50Z</time>
</trkpt>
<trkpt lat="48.883850052952766" lon="9.20920841395855">
<ele>327.8</ele>
<time>2024-05-12T11:00:51Z</time>
</trkpt>
<trkpt lat="48.88382331468165" lon="9.20925040729344">
<ele>327.8</ele>
<time>2024-05-12T11:00:52Z</time>
</trkpt>
<trkpt lat="48.88379666022957" lon="9.209296172484756">
<ele>327.6</ele>
<time>2024-05-12T11:00:53Z</time>
</trkpt>
<trkpt lat="48.88376992195845" lon="9.20934478752315">
<ele>327.6</ele>
<time>2024-05-12T11:00:54Z</time>
</trkpt>
<trkpt lat="48.8837394118309" lon="9.209395330399277">
<ele>327.4</ele>
<time>2024-05-12T11:00:55Z</time>
</trkpt>
<trkpt lat="48.88371275737882" lon="9.209449728950858">
<ele>327.4</ele>
<time>2024-05-12T11:00:56Z</time>
</trkpt>
<trkpt lat="48.88368224725127" lon="9.20950504951179">
<ele>327.4</ele>
<time>2024-05-12T11:00:57Z</time>
</trkpt>
<trkpt lat="48.883651653304696" lon="9.209560370072722">
<ele>327.2</ele>
<time>2024-05-12T11:00:58Z</time>
</trkpt>
<trkpt lat="48.88362114317715" lon="9.209614684805274">
<ele>327.2</ele>
<time>2024-05-12T11:00:59Z</time>
</trkpt>
<trkpt lat="48.88358686119318" lon="9.209670005366206">
<ele>327.2</ele>
<time>2024-05-12T11:01:00Z</time>
</trkpt>
<trkpt lat="48.88355635106563" lon="9.20972633175552">
<ele>327.2</ele>
<time>2024-05-12T11:01:01Z</time>
</trkpt>
<trkpt lat="48.88352584093809" lon="9.209783496335149">
<ele>327</ele>
<time>2024-05-12T11:01:02Z</time>
</trkpt>
<trkpt lat="48.88349533081055" lon="9.209837894886732">
<ele>327</ele>
<time>2024-05-12T11:01:03Z</time>
</trkpt>
<trkpt lat="48.88346473686397" lon="9.209893215447664">
<ele>327</ele>
<time>2024-05-12T11:01:04Z</time>
</trkpt>
<trkpt lat="48.88343045488" lon="9.209948536008596">
<ele>327</ele>
<time>2024-05-12T11:01:05Z</time>
</trkpt>
<trkpt lat="48.883399944752455" lon="9.210002850741148">
<ele>327</ele>
<time>2024-05-12T11:01:06Z</time>
</trkpt>
<trkpt lat="48.88337320648134" lon="9.21005624346435">
<ele>327</ele>
<time>2024-05-12T11:01:07Z</time>
</trkpt>
<trkpt lat="48.88335417956114" lon="9.210102008655667">
<ele>327</ele>
<time>2024-05-12T11:01:08Z</time>
</trkpt>
<trkpt lat="48.88332744129002" lon="9.210153557360172">
<ele>326.8</ele>
<time>2024-05-12T11:01:09Z</time>
</trkpt>
<trkpt lat="48.88329693116248" lon="9.210205022245646">
<ele>326.8</ele>
<time>2024-05-12T11:01:10Z</time>
</trkpt>
<trkpt lat="48.88326642103493" lon="9.210251793265344">
<ele>326.6</ele>
<time>2024-05-12T11:01:11Z</time>
</trkpt>
<trkpt lat="48.88323591090739" lon="9.21029470860958">
<ele>326.4</ele>
<time>2024-05-12T11:01:12Z</time>
</trkpt>
<trkpt lat="48.88320917263627" lon="9.210338545963168">
<ele>326.4</ele>
<time>2024-05-12T11:01:13Z</time>
</trkpt>
<trkpt lat="48.88318629004061" lon="9.210386238992214">
<ele>326.2</ele>
<time>2024-05-12T11:01:14Z</time>
</trkpt>
<trkpt lat="48.88315963558853" lon="9.210443487390876">
<ele>326</ele>
<time>2024-05-12T11:01:15Z</time>
</trkpt>
<trkpt lat="48.88312904164195" lon="9.21049688011408">
<ele>325.8</ele>
<time>2024-05-12T11:01:16Z</time>
</trkpt>
<trkpt lat="48.88309475965798" lon="9.210555050522087">
<ele>325.6</ele>
<time>2024-05-12T11:01:17Z</time>
</trkpt>
<trkpt lat="48.883064249530435" lon="9.2106132209301">
<ele>325.4</ele>
<time>2024-05-12T11:01:18Z</time>
</trkpt>
<trkpt lat="48.88303373940289" lon="9.210675163194535">
<ele>325</ele>
<time>2024-05-12T11:01:19Z</time>
</trkpt>
<trkpt lat="48.88299937359989" lon="9.210741966962814">
<ele>325</ele>
<time>2024-05-12T11:01:20Z</time>
</trkpt>
<trkpt lat="48.882961235940456" lon="9.21080969274044">
<ele>324.8</ele>
<time>2024-05-12T11:01:21Z</time>
</trkpt>
<trkpt lat="48.88291924260557" lon="9.210878340527415">
<ele>324.6</ele>
<time>2024-05-12T11:01:22Z</time>
</trkpt>
<trkpt lat="48.88288110494614" lon="9.21094698831439">
<ele>324.4</ele>
<time>2024-05-12T11:01:23Z</time>
</trkpt>
<trkpt lat="48.882842967286706" lon="9.211014714092016">
<ele>324.2</ele>
<time>2024-05-12T11:01:24Z</time>
</trkpt>
<trkpt lat="48.882804829627275" lon="9.21108621172607">
<ele>323.8</ele>
<time>2024-05-12T11:01:25Z</time>
</trkpt>
<trkpt lat="48.882766691967845" lon="9.211156787350774">
<ele>323.4</ele>
<time>2024-05-12T11:01:26Z</time>
</trkpt>
<trkpt lat="48.882728554308414" lon="9.21122644096613">
<ele>323</ele>
<time>2024-05-12T11:01:27Z</time>
</trkpt>
<trkpt lat="48.882690416648984" lon="9.211295088753104">
<ele>322.6</ele>
<time>2024-05-12T11:01:28Z</time>
</trkpt>
<trkpt lat="48.88265227898955" lon="9.211368514224889">
<ele>322.4</ele>
<time>2024-05-12T11:01:29Z</time>
</trkpt>
<trkpt lat="48.88261405751109" lon="9.211446717381476">
<ele>322</ele>
<time>2024-05-12T11:01:30Z</time>
</trkpt>
<trkpt lat="48.88257591985166" lon="9.211522992700338">
<ele>321.8</ele>
<time>2024-05-12T11:01:31Z</time>
</trkpt>
<trkpt lat="48.8825340103358" lon="9.211603123694658">
<ele>321.4</ele>
<time>2024-05-12T11:01:32Z</time>
</trkpt>
<trkpt lat="48.882488245144486" lon="9.211681326851249">
<ele>321</ele>
<time>2024-05-12T11:01:33Z</time>
</trkpt>
<trkpt lat="48.8824462518096" lon="9.21175668016076">
<ele>320.6</ele>
<time>2024-05-12T11:01:34Z</time>
</trkpt>
<trkpt lat="48.88240425847471" lon="9.211828177794814">
<ele>320.2</ele>
<time>2024-05-12T11:01:35Z</time>
</trkpt>
<trkpt lat="48.88236234895885" lon="9.211898753419518">
<ele>319.8</ele>
<time>2024-05-12T11:01:36Z</time>
</trkpt>
<trkpt lat="48.88231658376753" lon="9.211963629350066">
<ele>319.2</ele>
<time>2024-05-12T11:01:37Z</time>
</trkpt>
<trkpt lat="48.8822631072253" lon="9.212017944082618">
<ele>318.8</ele>
<time>2024-05-12T11:01:38Z</time>
</trkpt>
<trkpt lat="48.882213570177555" lon="9.21207133680582">
<ele>318.2</ele>
<time>2024-05-12T11:01:39Z</time>
</trkpt>
<trkpt lat="48.882171576842666" lon="9.212121963500977">
<ele>317.8</ele>
<time>2024-05-12T11:01:40Z</time>
</trkpt>
<trkpt lat="48.882137294858694" lon="9.212181977927685">
<ele>317.4</ele>
<time>2024-05-12T11:01:41Z</time>
</trkpt>
<trkpt lat="48.882114328444" lon="9.21224970370531">
<ele>317.2</ele>
<time>2024-05-12T11:01:42Z</time>
</trkpt>
<trkpt lat="48.88208767399192" lon="9.21233461238444">
<ele>316.8</ele>
<time>2024-05-12T11:01:43Z</time>
</trkpt>
<trkpt lat="48.882053308188915" lon="9.2124280706048">
<ele>316.6</ele>
<time>2024-05-12T11:01:44Z</time>
</trkpt>
<trkpt lat="48.882015170529485" lon="9.212512895464895">
<ele>316.2</ele>
<time>2024-05-12T11:01:45Z</time>
</trkpt>
<trkpt lat="48.88197326101363" lon="9.212596882134676">
<ele>316</ele>
<time>2024-05-12T11:01:46Z</time>
</trkpt>
<trkpt lat="48.881935039535165" lon="9.212675085291266">
<ele>315.8</ele>
<time>2024-05-12T11:01:47Z</time>
</trkpt>
<trkpt lat="48.881896901875734" lon="9.212750354781749">
<ele>315.4</ele>
<time>2024-05-12T11:01:48Z</time>
</trkpt>
<trkpt lat="48.88186261989176" lon="9.21282478608191">
<ele>315</ele>
<time>2024-05-12T11:01:49Z</time>
</trkpt>
<trkpt lat="48.88182825408876" lon="9.212902067229152">
<ele>314.6</ele>
<time>2024-05-12T11:01:50Z</time>
</trkpt>
<trkpt lat="48.88179011642933" lon="9.212980270385742">
<ele>314.2</ele>
<time>2024-05-12T11:01:51Z</time>
</trkpt>
<trkpt lat="48.881759606301785" lon="9.21306031756103">
<ele>313.8</ele>
<time>2024-05-12T11:01:52Z</time>
</trkpt>
<trkpt lat="48.88172524049878" lon="9.21313852071762">
<ele>313.6</ele>
<time>2024-05-12T11:01:53Z</time>
</trkpt>
<trkpt lat="48.88169473037124" lon="9.21321957372129">
<ele>313.4</ele>
<time>2024-05-12T11:01:54Z</time>
</trkpt>
<trkpt lat="48.88166422024369" lon="9.21330163255334">
<ele>313.2</ele>
<time>2024-05-12T11:01:55Z</time>
</trkpt>
<trkpt lat="48.88163371011615" lon="9.21338176354766">
<ele>313</ele>
<time>2024-05-12T11:01:56Z</time>
</trkpt>
<trkpt lat="48.88160319998861" lon="9.213464660570024">
<ele>312.6</ele>
<time>2024-05-12T11:01:57Z</time>
</trkpt>
<trkpt lat="48.881576461717486" lon="9.213551497086884">
<ele>312.4</ele>
<time>2024-05-12T11:01:58Z</time>
</trkpt>
<trkpt lat="48.88154595158994" lon="9.213642105460169">
<ele>312.2</ele>
<time>2024-05-12T11:01:59Z</time>
</trkpt>
<trkpt lat="48.88151929713786" lon="9.213734557852147">
<ele>312</ele>
<time>2024-05-12T11:02:00Z</time>
</trkpt>
<trkpt lat="48.88148878701031" lon="9.21383187174797">
<ele>311.8</ele>
<time>2024-05-12T11:02:01Z</time>
</trkpt>
<trkpt lat="48.881462048739195" lon="9.213926251977682">
<ele>311.6</ele>
<time>2024-05-12T11:02:02Z</time>
</trkpt>
<trkpt lat="48.88143539428711" lon="9.214021638035774">
<ele>311.2</ele>
<time>2024-05-12T11:02:03Z</time>
</trkpt>
<trkpt lat="48.88140865601599" lon="9.214121801778674">
<ele>311</ele>
<time>2024-05-12T11:02:04Z</time>
</trkpt>
<trkpt lat="48.881385773420334" lon="9.214224815368652">
<ele>310.8</ele>
<time>2024-05-12T11:02:05Z</time>
</trkpt>
<trkpt lat="48.8813666626811" lon="9.214329672977328">
<ele>310.4</ele>
<time>2024-05-12T11:02:06Z</time>
</trkpt>
<trkpt lat="48.88134378008544" lon="9.214433608576655">
<ele>310.2</ele>
<time>2024-05-12T11:02:07Z</time>
</trkpt>
<trkpt lat="48.881324753165245" lon="9.214534694328904">
<ele>309.8</ele>
<time>2024-05-12T11:02:08Z</time>
</trkpt>
<trkpt lat="48.88130187056959" lon="9.214630080386996">
<ele>309.4</ele>
<time>2024-05-12T11:02:09Z</time>
</trkpt>
<trkpt lat="48.88129038736224" lon="9.214706355705856">
<ele>309</ele>
<time>2024-05-12T11:02:10Z</time>
</trkpt>
<trkpt lat="48.88127898797393" lon="9.214773159474134">
<ele>308.6</ele>
<time>2024-05-12T11:02:11Z</time>
</trkpt>
<trkpt lat="48.88126750476658" lon="9.21483795158565">
<ele>308.4</ele>
<time>2024-05-12T11:02:12Z</time>
</trkpt>
<trkpt lat="48.88124839402735" lon="9.214904755353928">
<ele>308</ele>
<time>2024-05-12T11:02:13Z</time>
</trkpt>
<trkpt lat="48.88123313896358" lon="9.214973403140904">
<ele>307.6</ele>
<time>2024-05-12T11:02:14Z</time>
</trkpt>
<trkpt lat="48.88121025636792" lon="9.21504020690918">
<ele>307.4</ele>
<time>2024-05-12T11:02:15Z</time>
</trkpt>
<trkpt lat="48.88119500130415" lon="9.215100221335888">
<ele>307</ele>
<time>2024-05-12T11:02:16Z</time>
</trkpt>
<trkpt lat="48.88118737377226" lon="9.215151770040393">
<ele>306.6</ele>
<time>2024-05-12T11:02:17Z</time>
</trkpt>
<trkpt lat="48.88117974624038" lon="9.215200385078788">
<ele>306.2</ele>
<time>2024-05-12T11:02:18Z</time>
</trkpt>
<trkpt lat="48.88117597438395" lon="9.215252855792642">
<ele>305.8</ele>
<time>2024-05-12T11:02:19Z</time>
</trkpt>
<trkpt lat="48.88117211870849" lon="9.215305326506495">
<ele>305.6</ele>
<time>2024-05-12T11:02:20Z</time>
</trkpt>
<trkpt lat="48.881164491176605" lon="9.215356791391969">
<ele>305.2</ele>
<time>2024-05-12T11:02:21Z</time>
</trkpt>
<trkpt lat="48.88115686364472" lon="9.215405406430364">
<ele>305</ele>
<time>2024-05-12T11:02:22Z</time>
</trkpt>
<trkpt lat="48.88114160858095" lon="9.21545117162168">
<ele>304.8</ele>
<time>2024-05-12T11:02:23Z</time>
</trkpt>
<trkpt lat="48.88112258166075" lon="9.2154950927943">
<ele>304.6</ele>
<time>2024-05-12T11:02:24Z</time>
</trkpt>
<trkpt lat="48.8810920715332" lon="9.21553515829146">
<ele>304.4</ele>
<time>2024-05-12T11:02:25Z</time>
</trkpt>
<trkpt lat="48.88106147758663" lon="9.215568518266082">
<ele>304.2</ele>
<time>2024-05-12T11:02:26Z</time>
</trkpt>
<trkpt lat="48.88103482313454" lon="9.215599950402977">
<ele>304</ele>
<time>2024-05-12T11:02:27Z</time>
</trkpt>
<trkpt lat="48.881004313007" lon="9.21562953852117">
<ele>303.8</ele>
<time>2024-05-12T11:02:28Z</time>
</trkpt>
<trkpt lat="48.88098143041134" lon="9.21566859818995">
<ele>303.8</ele>
<time>2024-05-12T11:02:29Z</time>
</trkpt>
<trkpt lat="48.88096617534757" lon="9.215713441371918">
<ele>303.6</ele>
<time>2024-05-12T11:02:30Z</time>
</trkpt>
<trkpt lat="48.88096617534757" lon="9.215758284553884">
<ele>303.4</ele>
<time>2024-05-12T11:02:31Z</time>
</trkpt>
<trkpt lat="48.88096231967211" lon="9.215800277888777">
<ele>303.4</ele>
<time>2024-05-12T11:02:32Z</time>
</trkpt>
<trkpt lat="48.88096617534757" lon="9.215841265395284">
<ele>303.4</ele>
<time>2024-05-12T11:02:33Z</time>
</trkpt>
<trkpt lat="48.880969947203994" lon="9.21588510274887">
<ele>303.2</ele>
<time>2024-05-12T11:02:34Z</time>
</trkpt>
<trkpt lat="48.88098143041134" lon="9.21592709608376">
<ele>303.2</ele>
<time>2024-05-12T11:02:35Z</time>
</trkpt>
<trkpt lat="48.88099668547511" lon="9.21596330590546">
<ele>303.2</ele>
<time>2024-05-12T11:02:36Z</time>
</trkpt>
<trkpt lat="48.88101956807077" lon="9.215991972014308">
<ele>303</ele>
<time>2024-05-12T11:02:37Z</time>
</trkpt>
<trkpt lat="48.88104245066643" lon="9.216018626466392">
<ele>303</ele>
<time>2024-05-12T11:02:38Z</time>
</trkpt>
<trkpt lat="48.88106147758663" lon="9.216052992269397">
<ele>303</ele>
<time>2024-05-12T11:02:39Z</time>
</trkpt>
<trkpt lat="48.8810767326504" lon="9.216093057766557">
<ele>303</ele>
<time>2024-05-12T11:02:40Z</time>
</trkpt>
<trkpt lat="48.881088215857744" lon="9.216139744967222">
<ele>302.8</ele>
<time>2024-05-12T11:02:41Z</time>
</trkpt>
<trkpt lat="48.88109584338963" lon="9.216193137690423">
<ele>302.8</ele>
<time>2024-05-12T11:02:42Z</time>
</trkpt>
<trkpt lat="48.88109969906509" lon="9.216255163773894">
<ele>303</ele>
<time>2024-05-12T11:02:43Z</time>
</trkpt>
<trkpt lat="48.88109969906509" lon="9.21632188372314">
<ele>303</ele>
<time>2024-05-12T11:02:44Z</time>
</trkpt>
<trkpt lat="48.88109969906509" lon="9.216384831815958">
<ele>303.2</ele>
<time>2024-05-12T11:02:45Z</time>
</trkpt>
<trkpt lat="48.88109969906509" lon="9.216451635584235">
<ele>303.4</ele>
<time>2024-05-12T11:02:46Z</time>
</trkpt>
<trkpt lat="48.88109584338963" lon="9.21652028337121">
<ele>303.4</ele>
<time>2024-05-12T11:02:47Z</time>
</trkpt>
<trkpt lat="48.881088215857744" lon="9.216594630852342">
<ele>303.6</ele>
<time>2024-05-12T11:02:48Z</time>
</trkpt>
<trkpt lat="48.8810767326504" lon="9.216669984161854">
<ele>303.8</ele>
<time>2024-05-12T11:02:49Z</time>
</trkpt>
<trkpt lat="48.881065333262086" lon="9.216741481795909">
<ele>303.8</ele>
<time>2024-05-12T11:02:50Z</time>
</trkpt>
<trkpt lat="48.8810577057302" lon="9.216806357726457">
<ele>304</ele>
<time>2024-05-12T11:02:51Z</time>
</trkpt>
<trkpt lat="48.881046222522855" lon="9.21687500551343">
<ele>304</ele>
<time>2024-05-12T11:02:52Z</time>
</trkpt>
<trkpt lat="48.881027195602655" lon="9.216943737119436">
<ele>304.2</ele>
<time>2024-05-12T11:02:53Z</time>
</trkpt>
<trkpt lat="48.88101194053888" lon="9.21701330691576">
<ele>304.2</ele>
<time>2024-05-12T11:02:54Z</time>
</trkpt>
<trkpt lat="48.88099668547511" lon="9.217081954702737">
<ele>304.4</ele>
<time>2024-05-12T11:02:55Z</time>
</trkpt>
<trkpt lat="48.88098143041134" lon="9.217148758471012">
<ele>304.4</ele>
<time>2024-05-12T11:02:56Z</time>
</trkpt>
<trkpt lat="48.88096617534757" lon="9.217218328267336">
<ele>304.4</ele>
<time>2024-05-12T11:02:57Z</time>
</trkpt>
<trkpt lat="48.880947064608335" lon="9.21728990972042">
<ele>304.4</ele>
<time>2024-05-12T11:02:58Z</time>
</trkpt>
<trkpt lat="48.880928037688136" lon="9.217359479516745">
<ele>304.4</ele>
<time>2024-05-12T11:02:59Z</time>
</trkpt>
<trkpt lat="48.880908926948905" lon="9.217431982979178">
<ele>304.4</ele>
<time>2024-05-12T11:03:00Z</time>
</trkpt>
<trkpt lat="48.88088604435325" lon="9.217501636594534">
<ele>304.4</ele>
<time>2024-05-12T11:03:01Z</time>
</trkpt>
<trkpt lat="48.88086316175759" lon="9.217571206390858">
<ele>304.4</ele>
<time>2024-05-12T11:03:02Z</time>
</trkpt>
<trkpt lat="48.88083642348647" lon="9.217638010159137">
<ele>304.4</ele>
<time>2024-05-12T11:03:03Z</time>
</trkpt>
<trkpt lat="48.880809769034386" lon="9.21770280227065">
<ele>304.4</ele>
<time>2024-05-12T11:03:04Z</time>
</trkpt>
<trkpt lat="48.88078303076327" lon="9.21776482835412">
<ele>304.4</ele>
<time>2024-05-12T11:03:05Z</time>
</trkpt>
<trkpt lat="48.88074489310384" lon="9.217818221077325">
<ele>304.4</ele>
<time>2024-05-12T11:03:06Z</time>
</trkpt>
<trkpt lat="48.88070675544441" lon="9.217869685962796">
<ele>304.2</ele>
<time>2024-05-12T11:03:07Z</time>
</trkpt>
<trkpt lat="48.88066861778498" lon="9.217925006523728">
<ele>304</ele>
<time>2024-05-12T11:03:08Z</time>
</trkpt>
<trkpt lat="48.880634251981974" lon="9.21798133291304">
<ele>303.8</ele>
<time>2024-05-12T11:03:09Z</time>
</trkpt>
<trkpt lat="48.880599969998" lon="9.21804134733975">
<ele>303.6</ele>
<time>2024-05-12T11:03:10Z</time>
</trkpt>
<trkpt lat="48.880565604195" lon="9.21810337342322">
<ele>303.6</ele>
<time>2024-05-12T11:03:11Z</time>
</trkpt>
<trkpt lat="48.880535094067454" lon="9.218166321516035">
<ele>303.4</ele>
<time>2024-05-12T11:03:12Z</time>
</trkpt>
<trkpt lat="48.88051221147179" lon="9.218234969303012">
<ele>303.2</ele>
<time>2024-05-12T11:03:13Z</time>
</trkpt>
<trkpt lat="48.880493100732565" lon="9.218304622918367">
<ele>303</ele>
<time>2024-05-12T11:03:14Z</time>
</trkpt>
<trkpt lat="48.88046644628048" lon="9.218371342867613">
<ele>303</ele>
<time>2024-05-12T11:03:15Z</time>
</trkpt>
<trkpt lat="48.88043970800936" lon="9.21843621879816">
<ele>302.6</ele>
<time>2024-05-12T11:03:16Z</time>
</trkpt>
<trkpt lat="48.88040919788182" lon="9.218502938747406">
<ele>302.4</ele>
<time>2024-05-12T11:03:17Z</time>
</trkpt>
<trkpt lat="48.880374832078815" lon="9.218569742515683">
<ele>302</ele>
<time>2024-05-12T11:03:18Z</time>
</trkpt>
<trkpt lat="48.880336694419384" lon="9.218636462464929">
<ele>301.8</ele>
<time>2024-05-12T11:03:19Z</time>
</trkpt>
<trkpt lat="48.88029855675995" lon="9.218705110251904">
<ele>301.6</ele>
<time>2024-05-12T11:03:20Z</time>
</trkpt>
<trkpt lat="48.88026427477598" lon="9.21877283602953">
<ele>301.4</ele>
<time>2024-05-12T11:03:21Z</time>
</trkpt>
<trkpt lat="48.88022605329752" lon="9.218841483816504">
<ele>301</ele>
<time>2024-05-12T11:03:22Z</time>
</trkpt>
<trkpt lat="48.88018791563809" lon="9.218912059441209">
<ele>300.6</ele>
<time>2024-05-12T11:03:23Z</time>
</trkpt>
<trkpt lat="48.88015363365412" lon="9.218979785218837">
<ele>300.4</ele>
<time>2024-05-12T11:03:24Z</time>
</trkpt>
<trkpt lat="48.880119267851114" lon="9.219044661149384">
<ele>300.2</ele>
<time>2024-05-12T11:03:25Z</time>
</trkpt>
<trkpt lat="48.88008498586714" lon="9.219111381098628">
<ele>300.2</ele>
<time>2024-05-12T11:03:26Z</time>
</trkpt>
<trkpt lat="48.88005062006414" lon="9.219173407182096">
<ele>300</ele>
<time>2024-05-12T11:03:27Z</time>
</trkpt>
<trkpt lat="48.880016254261136" lon="9.219236355274916">
<ele>300</ele>
<time>2024-05-12T11:03:28Z</time>
</trkpt>
<trkpt lat="48.879981972277164" lon="9.219300225377085">
<ele>299.8</ele>
<time>2024-05-12T11:03:29Z</time>
</trkpt>
<trkpt lat="48.87994760647416" lon="9.219360323622825">
<ele>299.8</ele>
<time>2024-05-12T11:03:30Z</time>
</trkpt>
<trkpt lat="48.87991709634662" lon="9.219420421868564">
<ele>299.6</ele>
<time>2024-05-12T11:03:31Z</time>
</trkpt>
<trkpt lat="48.87988273054361" lon="9.219478592276571">
<ele>299.6</ele>
<time>2024-05-12T11:03:32Z</time>
</trkpt>
<trkpt lat="48.87985222041607" lon="9.21953860670328">
<ele>299.6</ele>
<time>2024-05-12T11:03:33Z</time>
</trkpt>
<trkpt lat="48.879821710288525" lon="9.219594933092594">
<ele>299.6</ele>
<time>2024-05-12T11:03:34Z</time>
</trkpt>
<trkpt lat="48.87979120016098" lon="9.219650253653526">
<ele>299.6</ele>
<time>2024-05-12T11:03:35Z</time>
</trkpt>
<trkpt lat="48.87976069003344" lon="9.219706496223807">
<ele>299.6</ele>
<time>2024-05-12T11:03:36Z</time>
</trkpt>
<trkpt lat="48.87973017990589" lon="9.219763744622467">
<ele>299.4</ele>
<time>2024-05-12T11:03:37Z</time>
</trkpt>
<trkpt lat="48.87969966977835" lon="9.21982191503048">
<ele>299.4</ele>
<time>2024-05-12T11:03:38Z</time>
</trkpt>
<trkpt lat="48.8796691596508" lon="9.21988008543849">
<ele>299.2</ele>
<time>2024-05-12T11:03:39Z</time>
</trkpt>
<trkpt lat="48.8796347938478" lon="9.21994018368423">
<ele>299</ele>
<time>2024-05-12T11:03:40Z</time>
</trkpt>
<trkpt lat="48.879608139395714" lon="9.21999642625451">
<ele>299</ele>
<time>2024-05-12T11:03:41Z</time>
</trkpt>
<trkpt lat="48.8795814011246" lon="9.220049818977714">
<ele>298.8</ele>
<time>2024-05-12T11:03:42Z</time>
</trkpt>
<trkpt lat="48.87955474667251" lon="9.220103211700916">
<ele>298.8</ele>
<time>2024-05-12T11:03:43Z</time>
</trkpt>
<trkpt lat="48.879524152725935" lon="9.22015660442412">
<ele>298.6</ele>
<time>2024-05-12T11:03:44Z</time>
</trkpt>
<trkpt lat="48.87948987074196" lon="9.220211924985051">
<ele>298.6</ele>
<time>2024-05-12T11:03:45Z</time>
</trkpt>
<trkpt lat="48.87945936061442" lon="9.220270095393062">
<ele>298.6</ele>
<time>2024-05-12T11:03:46Z</time>
</trkpt>
<trkpt lat="48.879428850486875" lon="9.220330193638802">
<ele>298.6</ele>
<time>2024-05-12T11:03:47Z</time>
</trkpt>
<trkpt lat="48.87939448468387" lon="9.22039506956935">
<ele>298.4</ele>
<time>2024-05-12T11:03:48Z</time>
</trkpt>
<trkpt lat="48.87936011888087" lon="9.220458017662168">
<ele>298.4</ele>
<time>2024-05-12T11:03:49Z</time>
</trkpt>
<trkpt lat="48.879325836896896" lon="9.220522809773684">
<ele>298.4</ele>
<time>2024-05-12T11:03:50Z</time>
</trkpt>
<trkpt lat="48.87929147109389" lon="9.220586763694882">
<ele>298.4</ele>
<time>2024-05-12T11:03:51Z</time>
</trkpt>
<trkpt lat="48.87925333343446" lon="9.22064870595932">
<ele>298.4</ele>
<time>2024-05-12T11:03:52Z</time>
</trkpt>
<trkpt lat="48.87922282330692" lon="9.220709726214409">
<ele>298.2</ele>
<time>2024-05-12T11:03:53Z</time>
</trkpt>
<trkpt lat="48.879188457503915" lon="9.220769824460149">
<ele>298</ele>
<time>2024-05-12T11:03:54Z</time>
</trkpt>
<trkpt lat="48.87915417551994" lon="9.220831850543618">
<ele>297.8</ele>
<time>2024-05-12T11:03:55Z</time>
</trkpt>
<trkpt lat="48.87911980971694" lon="9.220892870798709">
<ele>297.8</ele>
<time>2024-05-12T11:03:56Z</time>
</trkpt>
<trkpt lat="48.87908552773297" lon="9.220954813063145">
<ele>297.6</ele>
<time>2024-05-12T11:03:57Z</time>
</trkpt>
<trkpt lat="48.879051161929965" lon="9.221018766984344">
<ele>297.4</ele>
<time>2024-05-12T11:03:58Z</time>
</trkpt>
<trkpt lat="48.87901679612696" lon="9.221079787239432">
<ele>297.4</ele>
<time>2024-05-12T11:03:59Z</time>
</trkpt>
<trkpt lat="48.87897865846753" lon="9.221141813322902">
<ele>297.2</ele>
<time>2024-05-12T11:04:00Z</time>
</trkpt>
<trkpt lat="48.87894437648356" lon="9.22120283357799">
<ele>297.2</ele>
<time>2024-05-12T11:04:01Z</time>
</trkpt>
<trkpt lat="48.878913866356015" lon="9.221264775842428">
<ele>297.2</ele>
<time>2024-05-12T11:04:02Z</time>
</trkpt>
<trkpt lat="48.87888335622847" lon="9.221328729763629">
<ele>297</ele>
<time>2024-05-12T11:04:03Z</time>
</trkpt>
<trkpt lat="48.87884899042547" lon="9.221389750018716">
<ele>297</ele>
<time>2024-05-12T11:04:04Z</time>
</trkpt>
<trkpt lat="48.87881848029792" lon="9.221451692283154">
<ele>297</ele>
<time>2024-05-12T11:04:05Z</time>
</trkpt>
<trkpt lat="48.87878034263849" lon="9.221514640375972">
<ele>296.8</ele>
<time>2024-05-12T11:04:06Z</time>
</trkpt>
<trkpt lat="48.87874983251095" lon="9.221581444144247">
<ele>296.8</ele>
<time>2024-05-12T11:04:07Z</time>
</trkpt>
<trkpt lat="48.87871169485152" lon="9.221646236255763">
<ele>296.8</ele>
<time>2024-05-12T11:04:08Z</time>
</trkpt>
<trkpt lat="48.878677329048514" lon="9.221712034195662">
<ele>296.8</ele>
<time>2024-05-12T11:04:09Z</time>
</trkpt>
<trkpt lat="48.87863919138909" lon="9.22177791595459">
<ele>296.8</ele>
<time>2024-05-12T11:04:10Z</time>
</trkpt>
<trkpt lat="48.87860482558608" lon="9.221844635903835">
<ele>296.8</ele>
<time>2024-05-12T11:04:11Z</time>
</trkpt>
<trkpt lat="48.87856668792665" lon="9.22191135585308">
<ele>296.8</ele>
<time>2024-05-12T11:04:12Z</time>
</trkpt>
<trkpt lat="48.87852855026722" lon="9.221980087459087">
<ele>296.8</ele>
<time>2024-05-12T11:04:13Z</time>
</trkpt>
<trkpt lat="48.878494184464216" lon="9.222046807408333">
<ele>296.8</ele>
<time>2024-05-12T11:04:14Z</time>
</trkpt>
<trkpt lat="48.878459902480245" lon="9.222116461023688">
<ele>296.8</ele>
<time>2024-05-12T11:04:15Z</time>
</trkpt>
<trkpt lat="48.878421764820814" lon="9.222187036648393">
<ele>296.8</ele>
<time>2024-05-12T11:04:16Z</time>
</trkpt>
<trkpt lat="48.87838739901781" lon="9.222254678606989">
<ele>296.8</ele>
<time>2024-05-12T11:04:17Z</time>
</trkpt>
<trkpt lat="48.87835311703384" lon="9.222323410212994">
<ele>296.8</ele>
<time>2024-05-12T11:04:18Z</time>
</trkpt>
<trkpt lat="48.87831489555538" lon="9.22239013016224">
<ele>296.8</ele>
<time>2024-05-12T11:04:19Z</time>
</trkpt>
<trkpt lat="48.87827675789595" lon="9.222457855939863">
<ele>296.8</ele>
<time>2024-05-12T11:04:20Z</time>
</trkpt>
<trkpt lat="48.8782462477684" lon="9.222523653879762">
<ele>296.8</ele>
<time>2024-05-12T11:04:21Z</time>
</trkpt>
<trkpt lat="48.87821196578443" lon="9.22258852981031">
<ele>296.8</ele>
<time>2024-05-12T11:04:22Z</time>
</trkpt>
<trkpt lat="48.87817759998143" lon="9.222653321921824">
<ele>296.8</ele>
<time>2024-05-12T11:04:23Z</time>
</trkpt>
<trkpt lat="48.878143234178424" lon="9.222718197852371">
<ele>296.8</ele>
<time>2024-05-12T11:04:24Z</time>
</trkpt>
<trkpt lat="48.87811272405088" lon="9.222780223935844">
<ele>296.8</ele>
<time>2024-05-12T11:04:25Z</time>
</trkpt>
<trkpt lat="48.87807844206691" lon="9.222841244190931">
<ele>296.8</ele>
<time>2024-05-12T11:04:26Z</time>
</trkpt>
<trkpt lat="48.878044076263905" lon="9.222901342436671">
<ele>296.6</ele>
<time>2024-05-12T11:04:27Z</time>
</trkpt>
<trkpt lat="48.87801356613636" lon="9.22296135686338">
<ele>296.6</ele>
<time>2024-05-12T11:04:28Z</time>
</trkpt>
<trkpt lat="48.877983056008816" lon="9.22302145510912">
<ele>296.4</ele>
<time>2024-05-12T11:04:29Z</time>
</trkpt>
<trkpt lat="48.87794869020581" lon="9.223071997985244">
<ele>296.2</ele>
<time>2024-05-12T11:04:30Z</time>
</trkpt>
<trkpt lat="48.87791055254638" lon="9.223112063482404">
<ele>296.2</ele>
<time>2024-05-12T11:04:31Z</time>
</trkpt>
<trkpt lat="48.87788004241884" lon="9.223150201141834">
<ele>296</ele>
<time>2024-05-12T11:04:32Z</time>
</trkpt>
<trkpt lat="48.877845760434866" lon="9.223190266638994">
<ele>296</ele>
<time>2024-05-12T11:04:33Z</time>
</trkpt>
<trkpt lat="48.87781902216375" lon="9.223237037658691">
<ele>295.8</ele>
<time>2024-05-12T11:04:34Z</time>
</trkpt>
<trkpt lat="48.87779613956809" lon="9.223284646868706">
<ele>295.6</ele>
<time>2024-05-12T11:04:35Z</time>
</trkpt>
<trkpt lat="48.87776940129697" lon="9.223329490050672">
<ele>295.6</ele>
<time>2024-05-12T11:04:36Z</time>
</trkpt>
<trkpt lat="48.87773889116943" lon="9.223371483385565">
<ele>295.4</ele>
<time>2024-05-12T11:04:37Z</time>
</trkpt>
<trkpt lat="48.87770838104189" lon="9.223406771197917">
<ele>295.4</ele>
<time>2024-05-12T11:04:38Z</time>
</trkpt>
<trkpt lat="48.8776817265898" lon="9.223424876108766">
<ele>295.2</ele>
<time>2024-05-12T11:04:39Z</time>
</trkpt>
<trkpt lat="48.87765113264322" lon="9.223429653793572">
<ele>295</ele>
<time>2024-05-12T11:04:40Z</time>
</trkpt>
<trkpt lat="48.87761685065925" lon="9.223422948271036">
<ele>294.8</ele>
<time>2024-05-12T11:04:41Z</time>
</trkpt>
<trkpt lat="48.87758634053171" lon="9.223422026261687">
<ele>294.6</ele>
<time>2024-05-12T11:04:42Z</time>
</trkpt>
<trkpt lat="48.87755960226059" lon="9.223431581631305">
<ele>294.6</ele>
<time>2024-05-12T11:04:43Z</time>
</trkpt>
<trkpt lat="48.87754057534039" lon="9.223451614379885">
<ele>294.4</ele>
<time>2024-05-12T11:04:44Z</time>
</trkpt>
<trkpt lat="48.87752146460116" lon="9.22347349114716">
<ele>294.4</ele>
<time>2024-05-12T11:04:45Z</time>
</trkpt>
<trkpt lat="48.87750243768096" lon="9.223501151427628">
<ele>294.2</ele>
<time>2024-05-12T11:04:46Z</time>
</trkpt>
<trkpt lat="48.87748332694173" lon="9.223541216924788">
<ele>294.2</ele>
<time>2024-05-12T11:04:47Z</time>
</trkpt>
<trkpt lat="48.87747569940984" lon="9.223586982116103">
<ele>294</ele>
<time>2024-05-12T11:04:48Z</time>
</trkpt>
<trkpt lat="48.87747947126627" lon="9.223627047613263">
<ele>293.8</ele>
<time>2024-05-12T11:04:49Z</time>
</trkpt>
<trkpt lat="48.87748332694173" lon="9.223667113110425">
<ele>293.8</ele>
<time>2024-05-12T11:04:50Z</time>
</trkpt>
<trkpt lat="48.87748332694173" lon="9.22371002845466">
<ele>293.6</ele>
<time>2024-05-12T11:04:51Z</time>
</trkpt>
<trkpt lat="48.87748332694173" lon="9.22375202178955">
<ele>293.6</ele>
<time>2024-05-12T11:04:52Z</time>
</trkpt>
<trkpt lat="48.87746807187795" lon="9.223821591585876">
<ele>293.6</ele>
<time>2024-05-12T11:04:53Z</time>
</trkpt>
<trkpt lat="48.877452816814184" lon="9.22389023937285">
<ele>293.6</ele>
<time>2024-05-12T11:04:54Z</time>
</trkpt>
<trkpt lat="48.87743756175041" lon="9.223957043141128">
<ele>293.6</ele>
<time>2024-05-12T11:04:55Z</time>
</trkpt>
<trkpt lat="48.87741845101118" lon="9.224024768918753">
<ele>293.6</ele>
<time>2024-05-12T11:04:56Z</time>
</trkpt>
<trkpt lat="48.87739942409098" lon="9.22408863902092">
<ele>293.6</ele>
<time>2024-05-12T11:04:57Z</time>
</trkpt>
<trkpt lat="48.87737654149532" lon="9.224153514951468">
<ele>293.8</ele>
<time>2024-05-12T11:04:58Z</time>
</trkpt>
<trkpt lat="48.877349803224206" lon="9.224216379225254">
<ele>293.8</ele>
<time>2024-05-12T11:04:59Z</time>
</trkpt>
<trkpt lat="48.87732314877212" lon="9.224281255155802">
<ele>293.8</ele>
<time>2024-05-12T11:05:00Z</time>
</trkpt>
<trkpt lat="48.877296410501" lon="9.224351830780506">
<ele>294</ele>
<time>2024-05-12T11:05:01Z</time>
</trkpt>
<trkpt lat="48.87727729976177" lon="9.224421484395862">
<ele>294</ele>
<time>2024-05-12T11:05:02Z</time>
</trkpt>
<trkpt lat="48.87725827284157" lon="9.224492982029917">
<ele>294</ele>
<time>2024-05-12T11:05:03Z</time>
</trkpt>
<trkpt lat="48.877235390245914" lon="9.224564479663968">
<ele>294</ele>
<time>2024-05-12T11:05:04Z</time>
</trkpt>
<trkpt lat="48.87721627950668" lon="9.224636983126402">
<ele>294</ele>
<time>2024-05-12T11:05:05Z</time>
</trkpt>
<trkpt lat="48.8771896250546" lon="9.224706636741756">
<ele>294</ele>
<time>2024-05-12T11:05:06Z</time>
</trkpt>
<trkpt lat="48.87716674245894" lon="9.224773356691005">
<ele>294</ele>
<time>2024-05-12T11:05:07Z</time>
</trkpt>
<trkpt lat="48.87714000418782" lon="9.22484016045928">
<ele>294</ele>
<time>2024-05-12T11:05:08Z</time>
</trkpt>
<trkpt lat="48.877113265916705" lon="9.224904952570796">
<ele>294</ele>
<time>2024-05-12T11:05:09Z</time>
</trkpt>
<trkpt lat="48.87709038332105" lon="9.224971756339071">
<ele>293.8</ele>
<time>2024-05-12T11:05:10Z</time>
</trkpt>
<trkpt lat="48.87706750072539" lon="9.22503654845059">
<ele>293.8</ele>
<time>2024-05-12T11:05:11Z</time>
</trkpt>
<trkpt lat="48.87704461812973" lon="9.225103352218866">
<ele>293.6</ele>
<time>2024-05-12T11:05:12Z</time>
</trkpt>
<trkpt lat="48.87702173553407" lon="9.225166300311685">
<ele>293.6</ele>
<time>2024-05-12T11:05:13Z</time>
</trkpt>
<trkpt lat="48.876998852938414" lon="9.225230170413852">
<ele>293.4</ele>
<time>2024-05-12T11:05:14Z</time>
</trkpt>
<trkpt lat="48.876975970342755" lon="9.22529311850667">
<ele>293.4</ele>
<time>2024-05-12T11:05:15Z</time>
</trkpt>
<trkpt lat="48.8769530877471" lon="9.225359838455915">
<ele>293.2</ele>
<time>2024-05-12T11:05:16Z</time>
</trkpt>
<trkpt lat="48.87693020515144" lon="9.225429492071273">
<ele>293</ele>
<time>2024-05-12T11:05:17Z</time>
</trkpt>
<trkpt lat="48.87690346688032" lon="9.225500067695975">
<ele>293</ele>
<time>2024-05-12T11:05:18Z</time>
</trkpt>
<trkpt lat="48.87688058428466" lon="9.22556972131133">
<ele>292.8</ele>
<time>2024-05-12T11:05:19Z</time>
</trkpt>
<trkpt lat="48.87685392983258" lon="9.225640296936035">
<ele>292.8</ele>
<time>2024-05-12T11:05:20Z</time>
</trkpt>
<trkpt lat="48.87683104723692" lon="9.22570986673236">
<ele>292.6</ele>
<time>2024-05-12T11:05:21Z</time>
</trkpt>
<trkpt lat="48.87680816464126" lon="9.225778514519334">
<ele>292.6</ele>
<time>2024-05-12T11:05:22Z</time>
</trkpt>
<trkpt lat="48.876781426370144" lon="9.22584624029696">
<ele>292.6</ele>
<time>2024-05-12T11:05:23Z</time>
</trkpt>
<trkpt lat="48.876758543774486" lon="9.225916815921664">
<ele>292.6</ele>
<time>2024-05-12T11:05:24Z</time>
</trkpt>
<trkpt lat="48.87673566117883" lon="9.22598454169929">
<ele>292.4</ele>
<time>2024-05-12T11:05:25Z</time>
</trkpt>
<trkpt lat="48.87671277858317" lon="9.226057045161724">
<ele>292.4</ele>
<time>2024-05-12T11:05:26Z</time>
</trkpt>
<trkpt lat="48.876682268455625" lon="9.226128542795776">
<ele>292.4</ele>
<time>2024-05-12T11:05:27Z</time>
</trkpt>
<trkpt lat="48.87665553018451" lon="9.22620004042983">
<ele>292.2</ele>
<time>2024-05-12T11:05:28Z</time>
</trkpt>
<trkpt lat="48.87662887573242" lon="9.226275393739344">
<ele>292.2</ele>
<time>2024-05-12T11:05:29Z</time>
</trkpt>
<trkpt lat="48.876602137461305" lon="9.226347897201777">
<ele>292.2</ele>
<time>2024-05-12T11:05:30Z</time>
</trkpt>
<trkpt lat="48.87657539919019" lon="9.22642040066421">
<ele>292</ele>
<time>2024-05-12T11:05:31Z</time>
</trkpt>
<trkpt lat="48.8765487447381" lon="9.226491898298264">
<ele>292</ele>
<time>2024-05-12T11:05:32Z</time>
</trkpt>
<trkpt lat="48.876522006466985" lon="9.226563395932317">
<ele>292</ele>
<time>2024-05-12T11:05:33Z</time>
</trkpt>
<trkpt lat="48.8764953520149" lon="9.226632043719292">
<ele>292.2</ele>
<time>2024-05-12T11:05:34Z</time>
</trkpt>
<trkpt lat="48.87647246941924" lon="9.22669499181211">
<ele>292.2</ele>
<time>2024-05-12T11:05:35Z</time>
</trkpt>
<trkpt lat="48.87644950300455" lon="9.22675701789558">
<ele>292.2</ele>
<time>2024-05-12T11:05:36Z</time>
</trkpt>
<trkpt lat="48.876422848552465" lon="9.226826587691903">
<ele>292.4</ele>
<time>2024-05-12T11:05:37Z</time>
</trkpt>
<trkpt lat="48.87639233842492" lon="9.226898169144988">
<ele>292.4</ele>
<time>2024-05-12T11:05:38Z</time>
</trkpt>
<trkpt lat="48.87636182829738" lon="9.22697159461677">
<ele>292.4</ele>
<time>2024-05-12T11:05:39Z</time>
</trkpt>
<trkpt lat="48.87633509002626" lon="9.227045020088552">
<ele>292.6</ele>
<time>2024-05-12T11:05:40Z</time>
</trkpt>
<trkpt lat="48.876304579898715" lon="9.227116517722608">
<ele>292.6</ele>
<time>2024-05-12T11:05:41Z</time>
</trkpt>
<trkpt lat="48.87627406977117" lon="9.227186171337962">
<ele>292.8</ele>
<time>2024-05-12T11:05:42Z</time>
</trkpt>
<trkpt lat="48.876243559643626" lon="9.227256746962668">
<ele>292.8</ele>
<time>2024-05-12T11:05:43Z</time>
</trkpt>
<trkpt lat="48.87620919384062" lon="9.22732631675899">
<ele>292.8</ele>
<time>2024-05-12T11:05:44Z</time>
</trkpt>
<trkpt lat="48.87617491185665" lon="9.227396892383696">
<ele>293</ele>
<time>2024-05-12T11:05:45Z</time>
</trkpt>
<trkpt lat="48.87614054605365" lon="9.22746654599905">
<ele>293</ele>
<time>2024-05-12T11:05:46Z</time>
</trkpt>
<trkpt lat="48.876106180250645" lon="9.227536199614406">
<ele>293</ele>
<time>2024-05-12T11:05:47Z</time>
</trkpt>
<trkpt lat="48.87607189826667" lon="9.22760484740138">
<ele>293</ele>
<time>2024-05-12T11:05:48Z</time>
</trkpt>
<trkpt lat="48.87603753246367" lon="9.227673495188355">
<ele>293</ele>
<time>2024-05-12T11:05:49Z</time>
</trkpt>
<trkpt lat="48.8760032504797" lon="9.227738371118903">
<ele>292.8</ele>
<time>2024-05-12T11:05:50Z</time>
</trkpt>
<trkpt lat="48.87596511282027" lon="9.227805091068149">
<ele>292.8</ele>
<time>2024-05-12T11:05:51Z</time>
</trkpt>
<trkpt lat="48.87593451887369" lon="9.227868039160969">
<ele>292.6</ele>
<time>2024-05-12T11:05:52Z</time>
</trkpt>
<trkpt lat="48.87590023688972" lon="9.227932915091516">
<ele>292.6</ele>
<time>2024-05-12T11:05:53Z</time>
</trkpt>
<trkpt lat="48.875869726762176" lon="9.227992929518225">
<ele>292.6</ele>
<time>2024-05-12T11:05:54Z</time>
</trkpt>
<trkpt lat="48.87583536095917" lon="9.228053027763965">
<ele>292.6</ele>
<time>2024-05-12T11:05:55Z</time>
</trkpt>
<trkpt lat="48.8758010789752" lon="9.228115053847432">
<ele>292.6</ele>
<time>2024-05-12T11:05:56Z</time>
</trkpt>
<trkpt lat="48.875770568847656" lon="9.228173224255444">
<ele>292.6</ele>
<time>2024-05-12T11:05:57Z</time>
</trkpt>
<trkpt lat="48.875732347369194" lon="9.228233322501184">
<ele>292.6</ele>
<time>2024-05-12T11:05:58Z</time>
</trkpt>
<trkpt lat="48.87570183724165" lon="9.228291492909191">
<ele>292.4</ele>
<time>2024-05-12T11:05:59Z</time>
</trkpt>
<trkpt lat="48.87566369958222" lon="9.228346813470123">
<ele>292.4</ele>
<time>2024-05-12T11:06:00Z</time>
</trkpt>
<trkpt lat="48.875633189454675" lon="9.228401128202677">
<ele>292.2</ele>
<time>2024-05-12T11:06:01Z</time>
</trkpt>
<trkpt lat="48.8755989074707" lon="9.228458376601338">
<ele>292.2</ele>
<time>2024-05-12T11:06:02Z</time>
</trkpt>
<trkpt lat="48.87556831352413" lon="9.228509841486812">
<ele>292.2</ele>
<time>2024-05-12T11:06:03Z</time>
</trkpt>
<trkpt lat="48.87553780339658" lon="9.228558540344238">
<ele>292.2</ele>
<time>2024-05-12T11:06:04Z</time>
</trkpt>
<trkpt lat="48.87550729326904" lon="9.228605227544904">
<ele>292.2</ele>
<time>2024-05-12T11:06:05Z</time>
</trkpt>
<trkpt lat="48.87548063881695" lon="9.228650070726871">
<ele>292.2</ele>
<time>2024-05-12T11:06:06Z</time>
</trkpt>
<trkpt lat="48.87545012868941" lon="9.228696757927535">
<ele>292.2</ele>
<time>2024-05-12T11:06:07Z</time>
</trkpt>
<trkpt lat="48.87542339041829" lon="9.228743528947234">
<ele>292.4</ele>
<time>2024-05-12T11:06:08Z</time>
</trkpt>
<trkpt lat="48.87539288029075" lon="9.22879122197628">
<ele>292.4</ele>
<time>2024-05-12T11:06:09Z</time>
</trkpt>
<trkpt lat="48.87536614201963" lon="9.228836987167597">
<ele>292.4</ele>
<time>2024-05-12T11:06:10Z</time>
</trkpt>
<trkpt lat="48.875339487567544" lon="9.228883674368262">
<ele>292.4</ele>
<time>2024-05-12T11:06:11Z</time>
</trkpt>
<trkpt lat="48.87530897744" lon="9.228931367397308">
<ele>292.2</ele>
<time>2024-05-12T11:06:12Z</time>
</trkpt>
<trkpt lat="48.875278467312455" lon="9.228978138417006">
<ele>292.2</ele>
<time>2024-05-12T11:06:13Z</time>
</trkpt>
<trkpt lat="48.87525172904134" lon="9.229021975770593">
<ele>292.2</ele>
<time>2024-05-12T11:06:14Z</time>
</trkpt>
<trkpt lat="48.87522499077022" lon="9.229062963277102">
<ele>292.2</ele>
<time>2024-05-12T11:06:15Z</time>
</trkpt>
<trkpt lat="48.87519448064267" lon="9.2291097342968">
<ele>292</ele>
<time>2024-05-12T11:06:16Z</time>
</trkpt>
<trkpt lat="48.87516782619059" lon="9.229156421497464">
<ele>292</ele>
<time>2024-05-12T11:06:17Z</time>
</trkpt>
<trkpt lat="48.87513731606305" lon="9.22920512035489">
<ele>292</ele>
<time>2024-05-12T11:06:18Z</time>
</trkpt>
<trkpt lat="48.8751068059355" lon="9.229253735393286">
<ele>291.8</ele>
<time>2024-05-12T11:06:19Z</time>
</trkpt>
<trkpt lat="48.875080067664385" lon="9.22930335626006">
<ele>291.8</ele>
<time>2024-05-12T11:06:20Z</time>
</trkpt>
<trkpt lat="48.87504955753684" lon="9.229352893307803">
<ele>291.8</ele>
<time>2024-05-12T11:06:21Z</time>
</trkpt>
<trkpt lat="48.875019047409296" lon="9.2294015083462">
<ele>291.8</ele>
<time>2024-05-12T11:06:22Z</time>
</trkpt>
<trkpt lat="48.87498853728175" lon="9.229450207203628">
<ele>291.8</ele>
<time>2024-05-12T11:06:23Z</time>
</trkpt>
<trkpt lat="48.874961799010634" lon="9.229496894404292">
<ele>291.8</ele>
<time>2024-05-12T11:06:24Z</time>
</trkpt>
<trkpt lat="48.87493128888309" lon="9.22954173758626">
<ele>292</ele>
<time>2024-05-12T11:06:25Z</time>
</trkpt>
<trkpt lat="48.87490455061197" lon="9.229584652930498">
<ele>291.8</ele>
<time>2024-05-12T11:06:26Z</time>
</trkpt>
<trkpt lat="48.874881668016315" lon="9.229628490284083">
<ele>291.8</ele>
<time>2024-05-12T11:06:27Z</time>
</trkpt>
<trkpt lat="48.87485501356423" lon="9.229669561609626">
<ele>291.8</ele>
<time>2024-05-12T11:06:28Z</time>
</trkpt>
<trkpt lat="48.87482827529311" lon="9.229713398963211">
<ele>291.8</ele>
<time>2024-05-12T11:06:29Z</time>
</trkpt>
<trkpt lat="48.87479776516557" lon="9.22976016998291">
<ele>291.8</ele>
<time>2024-05-12T11:06:30Z</time>
</trkpt>
<trkpt lat="48.87476725503802" lon="9.229808785021303">
<ele>291.8</ele>
<time>2024-05-12T11:06:31Z</time>
</trkpt>
<trkpt lat="48.87473674491048" lon="9.229858322069049">
<ele>291.6</ele>
<time>2024-05-12T11:06:32Z</time>
</trkpt>
<trkpt lat="48.874706234782934" lon="9.229907942935824">
<ele>291.6</ele>
<time>2024-05-12T11:06:33Z</time>
</trkpt>
<trkpt lat="48.87467572465539" lon="9.229963263496757">
<ele>291.6</ele>
<time>2024-05-12T11:06:34Z</time>
</trkpt>
<trkpt lat="48.87464135885239" lon="9.23001665621996">
<ele>291.6</ele>
<time>2024-05-12T11:06:35Z</time>
</trkpt>
<trkpt lat="48.87461084872484" lon="9.230071976780891">
<ele>291.4</ele>
<time>2024-05-12T11:06:36Z</time>
</trkpt>
<trkpt lat="48.87457656674087" lon="9.230123441666365">
<ele>291.4</ele>
<time>2024-05-12T11:06:37Z</time>
</trkpt>
<trkpt lat="48.874545972794294" lon="9.23017499037087">
<ele>291.4</ele>
<time>2024-05-12T11:06:38Z</time>
</trkpt>
<trkpt lat="48.87451546266675" lon="9.230224527418612">
<ele>291.2</ele>
<time>2024-05-12T11:06:39Z</time>
</trkpt>
<trkpt lat="48.874484952539206" lon="9.23027515411377">
<ele>291.2</ele>
<time>2024-05-12T11:06:40Z</time>
</trkpt>
<trkpt lat="48.87445444241166" lon="9.230323769152164">
<ele>291.2</ele>
<time>2024-05-12T11:06:41Z</time>
</trkpt>
<trkpt lat="48.87442016042769" lon="9.230375234037638">
<ele>291.2</ele>
<time>2024-05-12T11:06:42Z</time>
</trkpt>
<trkpt lat="48.87438956648111" lon="9.23042862676084">
<ele>291.2</ele>
<time>2024-05-12T11:06:43Z</time>
</trkpt>
<trkpt lat="48.87435905635357" lon="9.230483025312424">
<ele>291</ele>
<time>2024-05-12T11:06:44Z</time>
</trkpt>
<trkpt lat="48.8743247743696" lon="9.230533568188548">
<ele>291.2</ele>
<time>2024-05-12T11:06:45Z</time>
</trkpt>
<trkpt lat="48.87429426424205" lon="9.23058696091175">
<ele>291.2</ele>
<time>2024-05-12T11:06:46Z</time>
</trkpt>
<trkpt lat="48.87425989843905" lon="9.230643203482032">
<ele>291.2</ele>
<time>2024-05-12T11:06:47Z</time>
</trkpt>
<trkpt lat="48.874229388311505" lon="9.230699529871345">
<ele>291.4</ele>
<time>2024-05-12T11:06:48Z</time>
</trkpt>
<trkpt lat="48.8741950225085" lon="9.230754850432277">
<ele>291.2</ele>
<time>2024-05-12T11:06:49Z</time>
</trkpt>
<trkpt lat="48.87416451238096" lon="9.230810087174175">
<ele>291.2</ele>
<time>2024-05-12T11:06:50Z</time>
</trkpt>
<trkpt lat="48.874130230396986" lon="9.230861635878682">
<ele>291</ele>
<time>2024-05-12T11:06:51Z</time>
</trkpt>
<trkpt lat="48.87409972026944" lon="9.230915028601885">
<ele>290.8</ele>
<time>2024-05-12T11:06:52Z</time>
</trkpt>
<trkpt lat="48.87407298199832" lon="9.23096464946866">
<ele>290.8</ele>
<time>2024-05-12T11:06:53Z</time>
</trkpt>
<trkpt lat="48.87404247187078" lon="9.231013264507055">
<ele>290.8</ele>
<time>2024-05-12T11:06:54Z</time>
</trkpt>
<trkpt lat="48.87401573359966" lon="9.231058107689025">
<ele>290.6</ele>
<time>2024-05-12T11:06:55Z</time>
</trkpt>
<trkpt lat="48.87398907914758" lon="9.23110286705196">
<ele>290.8</ele>
<time>2024-05-12T11:06:56Z</time>
</trkpt>
<trkpt lat="48.87396234087646" lon="9.231146788224578">
<ele>290.8</ele>
<time>2024-05-12T11:06:57Z</time>
</trkpt>
<trkpt lat="48.873935686424375" lon="9.231189703568816">
<ele>290.8</ele>
<time>2024-05-12T11:06:58Z</time>
</trkpt>
<trkpt lat="48.87390894815326" lon="9.231236390769482">
<ele>290.8</ele>
<time>2024-05-12T11:06:59Z</time>
</trkpt>
<trkpt lat="48.8738860655576" lon="9.23128316178918">
<ele>290.8</ele>
<time>2024-05-12T11:07:00Z</time>
</trkpt>
<trkpt lat="48.873855555430055" lon="9.231329848989844">
<ele>290.8</ele>
<time>2024-05-12T11:07:01Z</time>
</trkpt>
<trkpt lat="48.87382504530251" lon="9.231380391865969">
<ele>290.6</ele>
<time>2024-05-12T11:07:02Z</time>
</trkpt>
<trkpt lat="48.873794535174966" lon="9.231432862579824">
<ele>290.6</ele>
<time>2024-05-12T11:07:03Z</time>
</trkpt>
<trkpt lat="48.87376402504742" lon="9.231490110978484">
<ele>290.6</ele>
<time>2024-05-12T11:07:04Z</time>
</trkpt>
<trkpt lat="48.87373351491988" lon="9.231546353548763">
<ele>290.4</ele>
<time>2024-05-12T11:07:05Z</time>
</trkpt>
<trkpt lat="48.8737029209733" lon="9.231604523956776">
<ele>290.4</ele>
<time>2024-05-12T11:07:06Z</time>
</trkpt>
<trkpt lat="48.87366863898933" lon="9.231663700193169">
<ele>290.2</ele>
<time>2024-05-12T11:07:07Z</time>
</trkpt>
<trkpt lat="48.873634273186326" lon="9.231718014925718">
<ele>290.2</ele>
<time>2024-05-12T11:07:08Z</time>
</trkpt>
<trkpt lat="48.87360376305878" lon="9.231776185333729">
<ele>290</ele>
<time>2024-05-12T11:07:09Z</time>
</trkpt>
<trkpt lat="48.87357325293124" lon="9.23183536157012">
<ele>290</ele>
<time>2024-05-12T11:07:10Z</time>
</trkpt>
<trkpt lat="48.873538970947266" lon="9.231889676302671">
<ele>289.8</ele>
<time>2024-05-12T11:07:11Z</time>
</trkpt>
<trkpt lat="48.87350837700069" lon="9.231944996863604">
<ele>289.8</ele>
<time>2024-05-12T11:07:12Z</time>
</trkpt>
<trkpt lat="48.873477866873145" lon="9.232000317424536">
<ele>289.8</ele>
<time>2024-05-12T11:07:13Z</time>
</trkpt>
<trkpt lat="48.87344358488917" lon="9.232054632157087">
<ele>289.8</ele>
<time>2024-05-12T11:07:14Z</time>
</trkpt>
<trkpt lat="48.87341307476163" lon="9.232108108699322">
<ele>289.6</ele>
<time>2024-05-12T11:07:15Z</time>
</trkpt>
<trkpt lat="48.873378708958626" lon="9.232161501422524">
<ele>289.6</ele>
<time>2024-05-12T11:07:16Z</time>
</trkpt>
<trkpt lat="48.87334819883108" lon="9.232216821983457">
<ele>289.6</ele>
<time>2024-05-12T11:07:17Z</time>
</trkpt>
<trkpt lat="48.87331383302808" lon="9.232273064553738">
<ele>289.4</ele>
<time>2024-05-12T11:07:18Z</time>
</trkpt>
<trkpt lat="48.873283322900534" lon="9.2323303129524">
<ele>289.2</ele>
<time>2024-05-12T11:07:19Z</time>
</trkpt>
<trkpt lat="48.87324904091656" lon="9.23238462768495">
<ele>289.4</ele>
<time>2024-05-12T11:07:20Z</time>
</trkpt>
<trkpt lat="48.87321853078902" lon="9.232441876083612">
<ele>289.4</ele>
<time>2024-05-12T11:07:21Z</time>
</trkpt>
<trkpt lat="48.873184164986014" lon="9.232500046491625">
<ele>289.6</ele>
<time>2024-05-12T11:07:22Z</time>
</trkpt>
<trkpt lat="48.87314979918301" lon="9.232556289061904">
<ele>289.8</ele>
<time>2024-05-12T11:07:23Z</time>
</trkpt>
<trkpt lat="48.87311928905547" lon="9.232613537460566">
<ele>289.8</ele>
<time>2024-05-12T11:07:24Z</time>
</trkpt>
<trkpt lat="48.87308877892792" lon="9.232667852193115">
<ele>289.8</ele>
<time>2024-05-12T11:07:25Z</time>
</trkpt>
<trkpt lat="48.87305826880038" lon="9.23272317275405">
<ele>289.8</ele>
<time>2024-05-12T11:07:26Z</time>
</trkpt>
<trkpt lat="48.87302775867283" lon="9.232776565477252">
<ele>289.8</ele>
<time>2024-05-12T11:07:27Z</time>
</trkpt>
<trkpt lat="48.87299724854529" lon="9.232831886038184">
<ele>289.8</ele>
<time>2024-05-12T11:07:28Z</time>
</trkpt>
<trkpt lat="48.872966738417745" lon="9.23288343474269">
<ele>289.8</ele>
<time>2024-05-12T11:07:29Z</time>
</trkpt>
<trkpt lat="48.87294000014663" lon="9.232932971790431">
<ele>289.8</ele>
<time>2024-05-12T11:07:30Z</time>
</trkpt>
<trkpt lat="48.87291334569454" lon="9.232983514666556">
<ele>290</ele>
<time>2024-05-12T11:07:31Z</time>
</trkpt>
<trkpt lat="48.872886607423425" lon="9.233033135533333">
<ele>290</ele>
<time>2024-05-12T11:07:32Z</time>
</trkpt>
<trkpt lat="48.87285995297134" lon="9.233083678409455">
<ele>290</ele>
<time>2024-05-12T11:07:33Z</time>
</trkpt>
<trkpt lat="48.87283321470022" lon="9.23313707113266">
<ele>289.8</ele>
<time>2024-05-12T11:07:34Z</time>
</trkpt>
<trkpt lat="48.87280270457268" lon="9.233189541846514">
<ele>289.8</ele>
<time>2024-05-12T11:07:35Z</time>
</trkpt>
<trkpt lat="48.872768338769674" lon="9.233240084722638">
<ele>289.8</ele>
<time>2024-05-12T11:07:36Z</time>
</trkpt>
<trkpt lat="48.87274168431759" lon="9.233289705589414">
<ele>289.6</ele>
<time>2024-05-12T11:07:37Z</time>
</trkpt>
<trkpt lat="48.87271117419005" lon="9.233345026150346">
<ele>289.6</ele>
<time>2024-05-12T11:07:38Z</time>
</trkpt>
<trkpt lat="48.8726806640625" lon="9.233400262892246">
<ele>289.6</ele>
<time>2024-05-12T11:07:39Z</time>
</trkpt>
<trkpt lat="48.87265392579138" lon="9.23345373943448">
<ele>289.6</ele>
<time>2024-05-12T11:07:40Z</time>
</trkpt>
<trkpt lat="48.87262341566384" lon="9.233508054167032">
<ele>289.6</ele>
<time>2024-05-12T11:07:41Z</time>
</trkpt>
<trkpt lat="48.87259667739272" lon="9.233561446890237">
<ele>289.6</ele>
<time>2024-05-12T11:07:42Z</time>
</trkpt>
<trkpt lat="48.87257002294064" lon="9.233614839613438">
<ele>289.8</ele>
<time>2024-05-12T11:07:43Z</time>
</trkpt>
<trkpt lat="48.87253951281309" lon="9.233668316155672">
<ele>289.6</ele>
<time>2024-05-12T11:07:44Z</time>
</trkpt>
<trkpt lat="48.872512774541974" lon="9.233719781041144">
<ele>289.6</ele>
<time>2024-05-12T11:07:45Z</time>
</trkpt>
<trkpt lat="48.87248226441443" lon="9.233773173764348">
<ele>289.6</ele>
<time>2024-05-12T11:07:46Z</time>
</trkpt>
<trkpt lat="48.872451754286885" lon="9.233824722468851">
<ele>289.4</ele>
<time>2024-05-12T11:07:47Z</time>
</trkpt>
<trkpt lat="48.87242501601577" lon="9.233880043029783">
<ele>289.2</ele>
<time>2024-05-12T11:07:48Z</time>
</trkpt>
<trkpt lat="48.87239836156368" lon="9.233936285600066">
<ele>289.2</ele>
<time>2024-05-12T11:07:49Z</time>
</trkpt>
<trkpt lat="48.87236785143614" lon="9.233993450179696">
<ele>289</ele>
<time>2024-05-12T11:07:50Z</time>
</trkpt>
<trkpt lat="48.872337341308594" lon="9.234049776569009">
<ele>288.8</ele>
<time>2024-05-12T11:07:51Z</time>
</trkpt>
<trkpt lat="48.87230674736202" lon="9.23410509712994">
<ele>288.6</ele>
<time>2024-05-12T11:07:52Z</time>
</trkpt>
<trkpt lat="48.87227623723447" lon="9.234163267537951">
<ele>288.6</ele>
<time>2024-05-12T11:07:53Z</time>
</trkpt>
<trkpt lat="48.87224572710693" lon="9.234216660261154">
<ele>288.8</ele>
<time>2024-05-12T11:07:54Z</time>
</trkpt>
<trkpt lat="48.872215216979384" lon="9.23426334746182">
<ele>288.8</ele>
<time>2024-05-12T11:07:55Z</time>
</trkpt>
<trkpt lat="48.8721885625273" lon="9.23430148512125">
<ele>288.8</ele>
<time>2024-05-12T11:07:56Z</time>
</trkpt>
<trkpt lat="48.87216182425618" lon="9.234336772933602">
<ele>288.8</ele>
<time>2024-05-12T11:07:57Z</time>
</trkpt>
<trkpt lat="48.872135085985065" lon="9.234373066574337">
<ele>288.8</ele>
<time>2024-05-12T11:07:58Z</time>
</trkpt>
<trkpt lat="48.87210843153298" lon="9.234411204233766">
<ele>288.6</ele>
<time>2024-05-12T11:07:59Z</time>
</trkpt>
<trkpt lat="48.87208932079375" lon="9.234450263902543">
<ele>288.4</ele>
<time>2024-05-12T11:08:00Z</time>
</trkpt>
<trkpt lat="48.87206643819809" lon="9.2344837076962">
<ele>288.2</ele>
<time>2024-05-12T11:08:01Z</time>
</trkpt>
<trkpt lat="48.87205118313432" lon="9.234510362148283">
<ele>288</ele>
<time>2024-05-12T11:08:02Z</time>
</trkpt>
<trkpt lat="48.872039783746" lon="9.234535172581673">
<ele>288</ele>
<time>2024-05-12T11:08:03Z</time>
</trkpt>
<trkpt lat="48.87202830053866" lon="9.23456191085279">
<ele>288</ele>
<time>2024-05-12T11:08:04Z</time>
</trkpt>
<trkpt lat="48.872016901150346" lon="9.234589571133256">
<ele>288</ele>
<time>2024-05-12T11:08:05Z</time>
</trkpt>
<trkpt lat="48.872005417943" lon="9.234626702964306">
<ele>288</ele>
<time>2024-05-12T11:08:06Z</time>
</trkpt>
<trkpt lat="48.87199401855469" lon="9.234668696299195">
<ele>288</ele>
<time>2024-05-12T11:08:07Z</time>
</trkpt>
<trkpt lat="48.871974907815456" lon="9.234711611643434">
<ele>288</ele>
<time>2024-05-12T11:08:08Z</time>
</trkpt>
<trkpt lat="48.87195965275168" lon="9.234760226681828">
<ele>288</ele>
<time>2024-05-12T11:08:09Z</time>
</trkpt>
<trkpt lat="48.87194054201245" lon="9.234805069863796">
<ele>288.2</ele>
<time>2024-05-12T11:08:10Z</time>
</trkpt>
<trkpt lat="48.871921515092254" lon="9.234851757064462">
<ele>288.2</ele>
<time>2024-05-12T11:08:11Z</time>
</trkpt>
<trkpt lat="48.87189477682114" lon="9.23489852808416">
<ele>288.2</ele>
<time>2024-05-12T11:08:12Z</time>
</trkpt>
<trkpt lat="48.87187189422548" lon="9.234941443428395">
<ele>288.2</ele>
<time>2024-05-12T11:08:13Z</time>
</trkpt>
<trkpt lat="48.87184523977339" lon="9.234988130629064">
<ele>288</ele>
<time>2024-05-12T11:08:14Z</time>
</trkpt>
<trkpt lat="48.871818501502275" lon="9.23503875732422">
<ele>287.8</ele>
<time>2024-05-12T11:08:15Z</time>
</trkpt>
<trkpt lat="48.87178799137473" lon="9.235090222209692">
<ele>287.8</ele>
<time>2024-05-12T11:08:16Z</time>
</trkpt>
<trkpt lat="48.871761253103614" lon="9.235141687095163">
<ele>287.6</ele>
<time>2024-05-12T11:08:17Z</time>
</trkpt>
<trkpt lat="48.87172697111964" lon="9.235201785340903">
<ele>287.6</ele>
<time>2024-05-12T11:08:18Z</time>
</trkpt>
<trkpt lat="48.871700232848525" lon="9.235258027911186">
<ele>287.6</ele>
<time>2024-05-12T11:08:19Z</time>
</trkpt>
<trkpt lat="48.87167357839644" lon="9.23531150445342">
<ele>287.6</ele>
<time>2024-05-12T11:08:20Z</time>
</trkpt>
<trkpt lat="48.87164298444986" lon="9.235362969338894">
<ele>287.6</ele>
<time>2024-05-12T11:08:21Z</time>
</trkpt>
<trkpt lat="48.87161632999778" lon="9.235416362062097">
<ele>287.6</ele>
<time>2024-05-12T11:08:22Z</time>
</trkpt>
<trkpt lat="48.87158959172666" lon="9.235478388145566">
<ele>287.4</ele>
<time>2024-05-12T11:08:23Z</time>
</trkpt>
<trkpt lat="48.87155530974269" lon="9.235536558553576">
<ele>287.2</ele>
<time>2024-05-12T11:08:24Z</time>
</trkpt>
<trkpt lat="48.871524799615145" lon="9.235601350665092">
<ele>287</ele>
<time>2024-05-12T11:08:25Z</time>
</trkpt>
<trkpt lat="48.87149043381214" lon="9.235665304586291">
<ele>286.8</ele>
<time>2024-05-12T11:08:26Z</time>
</trkpt>
<trkpt lat="48.87145229615271" lon="9.235733030363916">
<ele>286.4</ele>
<time>2024-05-12T11:08:27Z</time>
</trkpt>
<trkpt lat="48.87141793034971" lon="9.235796900466084">
<ele>286.2</ele>
<time>2024-05-12T11:08:28Z</time>
</trkpt>
<trkpt lat="48.87137979269028" lon="9.23586462624371">
<ele>286</ele>
<time>2024-05-12T11:08:29Z</time>
</trkpt>
<trkpt lat="48.87134165503085" lon="9.235935201868417">
<ele>285.8</ele>
<time>2024-05-12T11:08:30Z</time>
</trkpt>
<trkpt lat="48.871307373046875" lon="9.23600284382701">
<ele>285.8</ele>
<time>2024-05-12T11:08:31Z</time>
</trkpt>
<trkpt lat="48.87127300724387" lon="9.236069647595286">
<ele>285.8</ele>
<time>2024-05-12T11:08:32Z</time>
</trkpt>
<trkpt lat="48.87123864144087" lon="9.236136367544532">
<ele>285.6</ele>
<time>2024-05-12T11:08:33Z</time>
</trkpt>
<trkpt lat="48.87120050378144" lon="9.236205099150538">
<ele>285.4</ele>
<time>2024-05-12T11:08:34Z</time>
</trkpt>
<trkpt lat="48.871166221797466" lon="9.236271819099784">
<ele>285.4</ele>
<time>2024-05-12T11:08:35Z</time>
</trkpt>
<trkpt lat="48.87112800031901" lon="9.23634147271514">
<ele>285.2</ele>
<time>2024-05-12T11:08:36Z</time>
</trkpt>
<trkpt lat="48.871089862659574" lon="9.236412048339844">
<ele>285.2</ele>
<time>2024-05-12T11:08:37Z</time>
</trkpt>
<trkpt lat="48.87105172500014" lon="9.236483545973895">
<ele>285</ele>
<time>2024-05-12T11:08:38Z</time>
</trkpt>
<trkpt lat="48.871009815484285" lon="9.23655504360795">
<ele>285</ele>
<time>2024-05-12T11:08:39Z</time>
</trkpt>
<trkpt lat="48.870971677824855" lon="9.236623691394923">
<ele>285</ele>
<time>2024-05-12T11:08:40Z</time>
</trkpt>
<trkpt lat="48.87093345634639" lon="9.236688567325473">
<ele>285.2</ele>
<time>2024-05-12T11:08:41Z</time>
</trkpt>
<trkpt lat="48.87089917436242" lon="9.236751515418293">
<ele>285.2</ele>
<time>2024-05-12T11:08:42Z</time>
</trkpt>
<trkpt lat="48.87086103670299" lon="9.236815385520458">
<ele>285</ele>
<time>2024-05-12T11:08:43Z</time>
</trkpt>
<trkpt lat="48.870830526575446" lon="9.23687456175685">
<ele>284.8</ele>
<time>2024-05-12T11:08:44Z</time>
</trkpt>
<trkpt lat="48.8708000164479" lon="9.236927954480052">
<ele>284.6</ele>
<time>2024-05-12T11:08:45Z</time>
</trkpt>
<trkpt lat="48.870773278176785" lon="9.236978497356176">
<ele>284.4</ele>
<time>2024-05-12T11:08:46Z</time>
</trkpt>
<trkpt lat="48.87074653990567" lon="9.23703189007938">
<ele>284.2</ele>
<time>2024-05-12T11:08:47Z</time>
</trkpt>
<trkpt lat="48.87071602977812" lon="9.23708813264966">
<ele>283.8</ele>
<time>2024-05-12T11:08:48Z</time>
</trkpt>
<trkpt lat="48.87068551965058" lon="9.237143453210592">
<ele>283.6</ele>
<time>2024-05-12T11:08:49Z</time>
</trkpt>
<trkpt lat="48.87065886519849" lon="9.237196845933797">
<ele>283.4</ele>
<time>2024-05-12T11:08:50Z</time>
</trkpt>
<trkpt lat="48.87062835507095" lon="9.237255016341804">
<ele>283.2</ele>
<time>2024-05-12T11:08:51Z</time>
</trkpt>
<trkpt lat="48.87060161679983" lon="9.237310336902738">
<ele>283</ele>
<time>2024-05-12T11:08:52Z</time>
</trkpt>
<trkpt lat="48.87057110667229" lon="9.237361885607244">
<ele>282.8</ele>
<time>2024-05-12T11:08:53Z</time>
</trkpt>
<trkpt lat="48.87054436840117" lon="9.237413350492716">
<ele>282.6</ele>
<time>2024-05-12T11:08:54Z</time>
</trkpt>
<trkpt lat="48.87052148580551" lon="9.237458193674684">
<ele>282</ele>
<time>2024-05-12T11:08:55Z</time>
</trkpt>
<trkpt lat="48.870494831353426" lon="9.237504880875347">
<ele>281.8</ele>
<time>2024-05-12T11:08:56Z</time>
</trkpt>
<trkpt lat="48.87046809308231" lon="9.237553579732776">
<ele>281.6</ele>
<time>2024-05-12T11:08:57Z</time>
</trkpt>
<trkpt lat="48.87044521048665" lon="9.237601272761822">
<ele>281.4</ele>
<time>2024-05-12T11:08:58Z</time>
</trkpt>
<trkpt lat="48.87041847221553" lon="9.237647959962487">
<ele>281.2</ele>
<time>2024-05-12T11:08:59Z</time>
</trkpt>
<trkpt lat="48.87039181776345" lon="9.237694730982184">
<ele>281</ele>
<time>2024-05-12T11:09:00Z</time>
</trkpt>
<trkpt lat="48.87036507949233" lon="9.237746195867658">
<ele>281</ele>
<time>2024-05-12T11:09:01Z</time>
</trkpt>
<trkpt lat="48.870338425040245" lon="9.237796738743782">
<ele>281</ele>
<time>2024-05-12T11:09:02Z</time>
</trkpt>
<trkpt lat="48.8703079149127" lon="9.237850131466985">
<ele>281</ele>
<time>2024-05-12T11:09:03Z</time>
</trkpt>
<trkpt lat="48.87027740478515" lon="9.237904530018568">
<ele>281</ele>
<time>2024-05-12T11:09:04Z</time>
</trkpt>
<trkpt lat="48.87024681083858" lon="9.237961694598198">
<ele>281</ele>
<time>2024-05-12T11:09:05Z</time>
</trkpt>
<trkpt lat="48.87021252885461" lon="9.23801802098751">
<ele>281</ele>
<time>2024-05-12T11:09:06Z</time>
</trkpt>
<trkpt lat="48.870178163051605" lon="9.23807518556714">
<ele>281</ele>
<time>2024-05-12T11:09:07Z</time>
</trkpt>
<trkpt lat="48.87014765292406" lon="9.238129584118724">
<ele>281</ele>
<time>2024-05-12T11:09:08Z</time>
</trkpt>
<trkpt lat="48.87011714279651" lon="9.238182976841928">
<ele>281</ele>
<time>2024-05-12T11:09:09Z</time>
</trkpt>
<trkpt lat="48.87008663266897" lon="9.23823636956513">
<ele>280.8</ele>
<time>2024-05-12T11:09:10Z</time>
</trkpt>
<trkpt lat="48.87005226686597" lon="9.238287918269634">
<ele>280.6</ele>
<time>2024-05-12T11:09:11Z</time>
</trkpt>
<trkpt lat="48.870021756738424" lon="9.238340305164456">
<ele>280.6</ele>
<time>2024-05-12T11:09:12Z</time>
</trkpt>
<trkpt lat="48.86999510228634" lon="9.238387998193502">
<ele>280.6</ele>
<time>2024-05-12T11:09:13Z</time>
</trkpt>
<trkpt lat="48.869960736483335" lon="9.238436697050927">
<ele>280.6</ele>
<time>2024-05-12T11:09:14Z</time>
</trkpt>
<trkpt lat="48.86993022635579" lon="9.238488161936402">
<ele>280.6</ele>
<time>2024-05-12T11:09:15Z</time>
</trkpt>
<trkpt lat="48.86989971622825" lon="9.238538704812528">
<ele>280.4</ele>
<time>2024-05-12T11:09:16Z</time>
</trkpt>
<trkpt lat="48.8698692061007" lon="9.238584470003843">
<ele>280.2</ele>
<time>2024-05-12T11:09:17Z</time>
</trkpt>
<trkpt lat="48.869842467829585" lon="9.23863023519516">
<ele>280</ele>
<time>2024-05-12T11:09:18Z</time>
</trkpt>
<trkpt lat="48.86981195770204" lon="9.238675078377128">
<ele>279.8</ele>
<time>2024-05-12T11:09:19Z</time>
</trkpt>
<trkpt lat="48.869785303249955" lon="9.238717071712015">
<ele>279.6</ele>
<time>2024-05-12T11:09:20Z</time>
</trkpt>
<trkpt lat="48.86975470930338" lon="9.238758059218526">
<ele>279.2</ele>
<time>2024-05-12T11:09:21Z</time>
</trkpt>
<trkpt lat="48.869728054851294" lon="9.238802902400494">
<ele>279</ele>
<time>2024-05-12T11:09:22Z</time>
</trkpt>
<trkpt lat="48.86969754472375" lon="9.238842884078622">
<ele>278.8</ele>
<time>2024-05-12T11:09:23Z</time>
</trkpt>
<trkpt lat="48.86967466212809" lon="9.238878171890974">
<ele>278.6</ele>
<time>2024-05-12T11:09:24Z</time>
</trkpt>
<trkpt lat="48.86965177953243" lon="9.238911615684628">
<ele>278.6</ele>
<time>2024-05-12T11:09:25Z</time>
</trkpt>
<trkpt lat="48.869625041261315" lon="9.23894690349698">
<ele>278.4</ele>
<time>2024-05-12T11:09:26Z</time>
</trkpt>
<trkpt lat="48.86959838680923" lon="9.238980263471603">
<ele>278.2</ele>
<time>2024-05-12T11:09:27Z</time>
</trkpt>
<trkpt lat="48.86957542039454" lon="9.239013623446226">
<ele>277.8</ele>
<time>2024-05-12T11:09:28Z</time>
</trkpt>
<trkpt lat="48.869548765942454" lon="9.239049833267927">
<ele>277.8</ele>
<time>2024-05-12T11:09:29Z</time>
</trkpt>
<trkpt lat="48.8695258833468" lon="9.239083277061582">
<ele>277.6</ele>
<time>2024-05-12T11:09:30Z</time>
</trkpt>
<trkpt lat="48.86950300075114" lon="9.239114709198477">
<ele>277.4</ele>
<time>2024-05-12T11:09:31Z</time>
</trkpt>
<trkpt lat="48.86948389001191" lon="9.239139519631864">
<ele>277.2</ele>
<time>2024-05-12T11:09:32Z</time>
</trkpt>
<trkpt lat="48.86947249062359" lon="9.239159552380444">
<ele>277</ele>
<time>2024-05-12T11:09:33Z</time>
</trkpt>
<trkpt lat="48.86946100741625" lon="9.239176735281944">
<ele>277</ele>
<time>2024-05-12T11:09:34Z</time>
</trkpt>
<trkpt lat="48.86945337988436" lon="9.239186206832528">
<ele>277</ele>
<time>2024-05-12T11:09:35Z</time>
</trkpt>
<trkpt lat="48.869449608027935" lon="9.239191990345716">
<ele>276.8</ele>
<time>2024-05-12T11:09:36Z</time>
</trkpt>
<trkpt lat="48.86944575235248" lon="9.239196768030524">
<ele>276.8</ele>
<time>2024-05-12T11:09:37Z</time>
</trkpt>
<trkpt lat="48.86944198049605" lon="9.239201545715332">
<ele>276.6</ele>
<time>2024-05-12T11:09:38Z</time>
</trkpt>
<trkpt lat="48.86943812482059" lon="9.23920531757176">
<ele>276.6</ele>
<time>2024-05-12T11:09:39Z</time>
</trkpt>
<trkpt lat="48.86943812482059" lon="9.239212023094296">
<ele>276.4</ele>
<time>2024-05-12T11:09:40Z</time>
</trkpt>
<trkpt lat="48.86943435296416" lon="9.239214872941377">
<ele>276.2</ele>
<time>2024-05-12T11:09:41Z</time>
</trkpt>
<trkpt lat="48.86943435296416" lon="9.239216800779104">
<ele>276.2</ele>
<time>2024-05-12T11:09:42Z</time>
</trkpt>
<trkpt lat="48.869430497288704" lon="9.239214872941377">
<ele>276</ele>
<time>2024-05-12T11:09:45Z</time>
</trkpt>
<trkpt lat="48.86943435296416" lon="9.239214872941377">
<ele>276</ele>
<time>2024-05-12T11:09:46Z</time>
</trkpt>
<trkpt lat="48.86943435296416" lon="9.239216800779104">
<ele>276</ele>
<time>2024-05-12T11:09:49Z</time>
</trkpt>
<trkpt lat="48.86943435296416" lon="9.239218644797802">
<ele>276</ele>
<time>2024-05-12T11:09:52Z</time>
</trkpt>
<trkpt lat="48.86943435296416" lon="9.239236749708652">
<ele>275.8</ele>
<time>2024-05-12T11:09:53Z</time>
</trkpt>
<trkpt lat="48.86943435296416" lon="9.23926348797977">
<ele>275.8</ele>
<time>2024-05-12T11:09:54Z</time>
</trkpt>
<trkpt lat="48.86943812482059" lon="9.239290226250889">
<ele>275.8</ele>
<time>2024-05-12T11:09:55Z</time>
</trkpt>
<trkpt lat="48.86943435296416" lon="9.23931973055005">
<ele>275.8</ele>
<time>2024-05-12T11:09:56Z</time>
</trkpt>
<trkpt lat="48.86942672543228" lon="9.23936172388494">
<ele>275.8</ele>
<time>2024-05-12T11:09:57Z</time>
</trkpt>
<trkpt lat="48.86942286975682" lon="9.239413188770412">
<ele>275.8</ele>
<time>2024-05-12T11:09:58Z</time>
</trkpt>
<trkpt lat="48.86941909790039" lon="9.239475214853885">
<ele>275.8</ele>
<time>2024-05-12T11:09:59Z</time>
</trkpt>
<trkpt lat="48.86942672543228" lon="9.239541934803128">
<ele>275.8</ele>
<time>2024-05-12T11:10:00Z</time>
</trkpt>
<trkpt lat="48.86943435296416" lon="9.239615360274913">
<ele>276</ele>
<time>2024-05-12T11:10:01Z</time>
</trkpt>
<trkpt lat="48.869449608027935" lon="9.239685013890266">
<ele>276.2</ele>
<time>2024-05-12T11:10:02Z</time>
</trkpt>
<trkpt lat="48.86946486309171" lon="9.239747961983085">
<ele>276.4</ele>
<time>2024-05-12T11:10:03Z</time>
</trkpt>
<trkpt lat="48.86947626248002" lon="9.239809988066554">
<ele>276.6</ele>
<time>2024-05-12T11:10:04Z</time>
</trkpt>
<trkpt lat="48.869487745687366" lon="9.239871930330992">
<ele>276.6</ele>
<time>2024-05-12T11:10:05Z</time>
</trkpt>
<trkpt lat="48.86949914507568" lon="9.239932028576732">
<ele>276.6</ele>
<time>2024-05-12T11:10:06Z</time>
</trkpt>
<trkpt lat="48.869510628283024" lon="9.239990198984742">
<ele>276.6</ele>
<time>2024-05-12T11:10:07Z</time>
</trkpt>
<trkpt lat="48.8695258833468" lon="9.240046441555023">
<ele>276.8</ele>
<time>2024-05-12T11:10:08Z</time>
</trkpt>
<trkpt lat="48.86953728273511" lon="9.240097990259528">
<ele>276.8</ele>
<time>2024-05-12T11:10:09Z</time>
</trkpt>
<trkpt lat="48.869548765942454" lon="9.240148533135653">
<ele>276.8</ele>
<time>2024-05-12T11:10:10Z</time>
</trkpt>
<trkpt lat="48.86956016533077" lon="9.240198070183396">
<ele>277</ele>
<time>2024-05-12T11:10:11Z</time>
</trkpt>
<trkpt lat="48.86957542039454" lon="9.240255318582058">
<ele>277</ele>
<time>2024-05-12T11:10:12Z</time>
</trkpt>
<trkpt lat="48.869586903601885" lon="9.24031156115234">
<ele>277</ele>
<time>2024-05-12T11:10:13Z</time>
</trkpt>
<trkpt lat="48.86959838680923" lon="9.240366881713271">
<ele>277.2</ele>
<time>2024-05-12T11:10:14Z</time>
</trkpt>
<trkpt lat="48.86960215866566" lon="9.240416502580048">
<ele>277.2</ele>
<time>2024-05-12T11:10:15Z</time>
</trkpt>
<trkpt lat="48.86960601434112" lon="9.240463189780712">
<ele>277.2</ele>
<time>2024-05-12T11:10:16Z</time>
</trkpt>
<trkpt lat="48.86960215866566" lon="9.240503255277872">
<ele>277.2</ele>
<time>2024-05-12T11:10:17Z</time>
</trkpt>
<trkpt lat="48.869590759277344" lon="9.240539548918605">
<ele>277.2</ele>
<time>2024-05-12T11:10:18Z</time>
</trkpt>
<trkpt lat="48.86957927607" lon="9.240578608587384">
<ele>277.2</ele>
<time>2024-05-12T11:10:19Z</time>
</trkpt>
<trkpt lat="48.86957164853811" lon="9.240616746246817">
<ele>277.2</ele>
<time>2024-05-12T11:10:20Z</time>
</trkpt>
<trkpt lat="48.86956016533077" lon="9.240652956068516">
<ele>277.2</ele>
<time>2024-05-12T11:10:21Z</time>
</trkpt>
<trkpt lat="48.86955639347434" lon="9.240697799250484">
<ele>277.2</ele>
<time>2024-05-12T11:10:22Z</time>
</trkpt>
<trkpt lat="48.869548765942454" lon="9.240741720423102">
<ele>277.2</ele>
<time>2024-05-12T11:10:23Z</time>
</trkpt>
<trkpt lat="48.86953728273511" lon="9.24078362993896">
<ele>277.2</ele>
<time>2024-05-12T11:10:24Z</time>
</trkpt>
<trkpt lat="48.8695258833468" lon="9.240828473120928">
<ele>277.2</ele>
<time>2024-05-12T11:10:25Z</time>
</trkpt>
<trkpt lat="48.86951825581491" lon="9.240875244140623">
<ele>277.4</ele>
<time>2024-05-12T11:10:26Z</time>
</trkpt>
<trkpt lat="48.869506772607565" lon="9.24092285335064">
<ele>277.4</ele>
<time>2024-05-12T11:10:27Z</time>
</trkpt>
<trkpt lat="48.86949537321925" lon="9.240971552208066">
<ele>277.4</ele>
<time>2024-05-12T11:10:28Z</time>
</trkpt>
<trkpt lat="48.86948011815548" lon="9.241018239408731">
<ele>277.4</ele>
<time>2024-05-12T11:10:29Z</time>
</trkpt>
<trkpt lat="48.86947249062359" lon="9.241066854447126">
<ele>277.6</ele>
<time>2024-05-12T11:10:30Z</time>
</trkpt>
<trkpt lat="48.86946100741625" lon="9.241111697629094">
<ele>277.6</ele>
<time>2024-05-12T11:10:31Z</time>
</trkpt>
<trkpt lat="48.869449608027935" lon="9.241158468648791">
<ele>277.6</ele>
<time>2024-05-12T11:10:32Z</time>
</trkpt>
<trkpt lat="48.86943812482059" lon="9.24120138399303">
<ele>277.6</ele>
<time>2024-05-12T11:10:33Z</time>
</trkpt>
<trkpt lat="48.86942672543228" lon="9.241245221346617">
<ele>277.6</ele>
<time>2024-05-12T11:10:34Z</time>
</trkpt>
<trkpt lat="48.86941909790039" lon="9.241290064528584">
<ele>277.6</ele>
<time>2024-05-12T11:10:35Z</time>
</trkpt>
<trkpt lat="48.869407614693046" lon="9.24133675172925">
<ele>277.6</ele>
<time>2024-05-12T11:10:36Z</time>
</trkpt>
<trkpt lat="48.8693961314857" lon="9.241386372596024">
<ele>277.6</ele>
<time>2024-05-12T11:10:37Z</time>
</trkpt>
<trkpt lat="48.86938473209739" lon="9.24143691547215">
<ele>277.6</ele>
<time>2024-05-12T11:10:38Z</time>
</trkpt>
<trkpt lat="48.86937324889004" lon="9.241490308195353">
<ele>277.6</ele>
<time>2024-05-12T11:10:39Z</time>
</trkpt>
<trkpt lat="48.86936184950173" lon="9.241548478603365">
<ele>277.6</ele>
<time>2024-05-12T11:10:40Z</time>
</trkpt>
<trkpt lat="48.86934659443796" lon="9.24161142669618">
<ele>277.6</ele>
<time>2024-05-12T11:10:41Z</time>
</trkpt>
<trkpt lat="48.869331339374185" lon="9.241676302626727">
<ele>277.6</ele>
<time>2024-05-12T11:10:42Z</time>
</trkpt>
<trkpt lat="48.86931222863495" lon="9.241746878251432">
<ele>277.6</ele>
<time>2024-05-12T11:10:43Z</time>
</trkpt>
<trkpt lat="48.869293201714754" lon="9.241820303723216">
<ele>277.4</ele>
<time>2024-05-12T11:10:44Z</time>
</trkpt>
<trkpt lat="48.869270319119096" lon="9.241896579042075">
<ele>277.4</ele>
<time>2024-05-12T11:10:45Z</time>
</trkpt>
<trkpt lat="48.86924743652344" lon="9.24197193235159">
<ele>277.2</ele>
<time>2024-05-12T11:10:46Z</time>
</trkpt>
<trkpt lat="48.86922447010875" lon="9.24205013550818">
<ele>277.2</ele>
<time>2024-05-12T11:10:47Z</time>
</trkpt>
<trkpt lat="48.86920158751309" lon="9.24212833866477">
<ele>277.2</ele>
<time>2024-05-12T11:10:48Z</time>
</trkpt>
<trkpt lat="48.86917870491743" lon="9.24220846965909">
<ele>277</ele>
<time>2024-05-12T11:10:49Z</time>
</trkpt>
<trkpt lat="48.86915582232177" lon="9.242291450500488">
<ele>277</ele>
<time>2024-05-12T11:10:50Z</time>
</trkpt>
<trkpt lat="48.86912916786969" lon="9.242371497675776">
<ele>277</ele>
<time>2024-05-12T11:10:51Z</time>
</trkpt>
<trkpt lat="48.86910242959857" lon="9.242451628670096">
<ele>277</ele>
<time>2024-05-12T11:10:52Z</time>
</trkpt>
<trkpt lat="48.869071919471025" lon="9.242527903988956">
<ele>277</ele>
<time>2024-05-12T11:10:53Z</time>
</trkpt>
<trkpt lat="48.86904140934348" lon="9.242607112973928">
<ele>277</ele>
<time>2024-05-12T11:10:54Z</time>
</trkpt>
<trkpt lat="48.86901467107237" lon="9.242686238139868">
<ele>276.8</ele>
<time>2024-05-12T11:10:55Z</time>
</trkpt>
<trkpt lat="48.86898416094482" lon="9.242766369134188">
<ele>276.6</ele>
<time>2024-05-12T11:10:56Z</time>
</trkpt>
<trkpt lat="48.868957506492734" lon="9.242843566462398">
<ele>276.6</ele>
<time>2024-05-12T11:10:57Z</time>
</trkpt>
<trkpt lat="48.86893076822162" lon="9.242915147915484">
<ele>276.4</ele>
<time>2024-05-12T11:10:58Z</time>
</trkpt>
<trkpt lat="48.86890411376953" lon="9.242988573387263">
<ele>276.4</ele>
<time>2024-05-12T11:10:59Z</time>
</trkpt>
<trkpt lat="48.868877375498414" lon="9.243062920868397">
<ele>276.2</ele>
<time>2024-05-12T11:11:00Z</time>
</trkpt>
<trkpt lat="48.86885826475918" lon="9.243140202015638">
<ele>276</ele>
<time>2024-05-12T11:11:01Z</time>
</trkpt>
<trkpt lat="48.86883923783898" lon="9.243218405172229">
<ele>275.8</ele>
<time>2024-05-12T11:11:02Z</time>
</trkpt>
<trkpt lat="48.868816355243325" lon="9.243291830644011">
<ele>275.6</ele>
<time>2024-05-12T11:11:03Z</time>
</trkpt>
<trkpt lat="48.86879347264767" lon="9.243358550593255">
<ele>275.4</ele>
<time>2024-05-12T11:11:04Z</time>
</trkpt>
<trkpt lat="48.86877059005201" lon="9.243423426523805">
<ele>275.2</ele>
<time>2024-05-12T11:11:05Z</time>
</trkpt>
<trkpt lat="48.86875147931278" lon="9.243486374616625">
<ele>275</ele>
<time>2024-05-12T11:11:06Z</time>
</trkpt>
<trkpt lat="48.86872859671712" lon="9.24354831688106">
<ele>274.8</ele>
<time>2024-05-12T11:11:07Z</time>
</trkpt>
<trkpt lat="48.86870571412146" lon="9.243606487289073">
<ele>274.8</ele>
<time>2024-05-12T11:11:08Z</time>
</trkpt>
<trkpt lat="48.86868660338223" lon="9.243658035993576">
<ele>274.6</ele>
<time>2024-05-12T11:11:09Z</time>
</trkpt>
<trkpt lat="48.86867134831846" lon="9.2437085788697">
<ele>274.4</ele>
<time>2024-05-12T11:11:10Z</time>
</trkpt>
<trkpt lat="48.86865232139826" lon="9.243756271898746">
<ele>274.4</ele>
<time>2024-05-12T11:11:11Z</time>
</trkpt>
<trkpt lat="48.868637066334486" lon="9.24380488693714">
<ele>274.4</ele>
<time>2024-05-12T11:11:12Z</time>
</trkpt>
<trkpt lat="48.868621811270714" lon="9.24384973011911">
<ele>274.2</ele>
<time>2024-05-12T11:11:13Z</time>
</trkpt>
<trkpt lat="48.86860655620694" lon="9.243893567472696">
<ele>274.2</ele>
<time>2024-05-12T11:11:14Z</time>
</trkpt>
<trkpt lat="48.86858367361128" lon="9.24392508342862">
<ele>274.2</ele>
<time>2024-05-12T11:11:15Z</time>
</trkpt>
<trkpt lat="48.868560791015625" lon="9.243949810042976">
<ele>274</ele>
<time>2024-05-12T11:11:16Z</time>
</trkpt>
<trkpt lat="48.86853405274451" lon="9.243973698467016">
<ele>274</ele>
<time>2024-05-12T11:11:17Z</time>
</trkpt>
<trkpt lat="48.86851494200528" lon="9.244000352919102">
<ele>274</ele>
<time>2024-05-12T11:11:18Z</time>
</trkpt>
<trkpt lat="48.868499686941504" lon="9.244034718722103">
<ele>273.8</ele>
<time>2024-05-12T11:11:19Z</time>
</trkpt>
<trkpt lat="48.86849205940962" lon="9.244079561904073">
<ele>273.8</ele>
<time>2024-05-12T11:11:20Z</time>
</trkpt>
<trkpt lat="48.868480660021305" lon="9.244132954627275">
<ele>273.6</ele>
<time>2024-05-12T11:11:21Z</time>
</trkpt>
<trkpt lat="48.86847303248942" lon="9.244186347350478">
<ele>273.6</ele>
<time>2024-05-12T11:11:22Z</time>
</trkpt>
<trkpt lat="48.86846540495753" lon="9.244244517758489">
<ele>273.6</ele>
<time>2024-05-12T11:11:23Z</time>
</trkpt>
<trkpt lat="48.868461549282074" lon="9.244306543841958">
<ele>273.6</ele>
<time>2024-05-12T11:11:24Z</time>
</trkpt>
<trkpt lat="48.86845777742565" lon="9.244368486106396">
<ele>273.6</ele>
<time>2024-05-12T11:11:25Z</time>
</trkpt>
<trkpt lat="48.86845777742565" lon="9.244431434199214">
<ele>273.6</ele>
<time>2024-05-12T11:11:26Z</time>
</trkpt>
<trkpt lat="48.868461549282074" lon="9.244491532444954">
<ele>273.4</ele>
<time>2024-05-12T11:11:27Z</time>
</trkpt>
<trkpt lat="48.86846540495753" lon="9.244548780843616">
<ele>273.2</ele>
<time>2024-05-12T11:11:28Z</time>
</trkpt>
<trkpt lat="48.868476804345846" lon="9.244605023413897">
<ele>273</ele>
<time>2024-05-12T11:11:29Z</time>
</trkpt>
<trkpt lat="48.86848443187773" lon="9.2446584161371">
<ele>272.6</ele>
<time>2024-05-12T11:11:30Z</time>
</trkpt>
<trkpt lat="48.86849205940962" lon="9.244707031175494">
<ele>272.4</ele>
<time>2024-05-12T11:11:31Z</time>
</trkpt>
<trkpt lat="48.86850354261696" lon="9.244749946519732">
<ele>272.2</ele>
<time>2024-05-12T11:11:32Z</time>
</trkpt>
<trkpt lat="48.86851494200528" lon="9.244788167998196">
<ele>271.8</ele>
<time>2024-05-12T11:11:33Z</time>
</trkpt>
<trkpt lat="48.86852642521262" lon="9.244823455810549">
<ele>271.6</ele>
<time>2024-05-12T11:11:34Z</time>
</trkpt>
<trkpt lat="48.86852642521262" lon="9.244850110262632">
<ele>271.4</ele>
<time>2024-05-12T11:11:35Z</time>
</trkpt>
<trkpt lat="48.86853019706905" lon="9.24487299285829">
<ele>271.2</ele>
<time>2024-05-12T11:11:36Z</time>
</trkpt>
<trkpt lat="48.86853405274451" lon="9.24489302560687">
<ele>271</ele>
<time>2024-05-12T11:11:37Z</time>
</trkpt>
<trkpt lat="48.86853019706905" lon="9.244908280670645">
<ele>271</ele>
<time>2024-05-12T11:11:38Z</time>
</trkpt>
<trkpt lat="48.86852642521262" lon="9.244917836040258">
<ele>270.8</ele>
<time>2024-05-12T11:11:39Z</time>
</trkpt>
<trkpt lat="48.86852256953716" lon="9.244926385581492">
<ele>270.8</ele>
<time>2024-05-12T11:11:40Z</time>
</trkpt>
<trkpt lat="48.86851117014885" lon="9.24493309110403">
<ele>270.6</ele>
<time>2024-05-12T11:11:41Z</time>
</trkpt>
<trkpt lat="48.868499686941504" lon="9.244944490492344">
<ele>270.4</ele>
<time>2024-05-12T11:11:42Z</time>
</trkpt>
<trkpt lat="48.86848443187773" lon="9.244956895709038">
<ele>270.4</ele>
<time>2024-05-12T11:11:43Z</time>
</trkpt>
<trkpt lat="48.86846917681396" lon="9.244968378916385">
<ele>270.2</ele>
<time>2024-05-12T11:11:44Z</time>
</trkpt>
<trkpt lat="48.86845392175019" lon="9.244979778304696">
<ele>270</ele>
<time>2024-05-12T11:11:45Z</time>
</trkpt>
<trkpt lat="48.868438666686416" lon="9.24499318934977">
<ele>270</ele>
<time>2024-05-12T11:11:46Z</time>
</trkpt>
<trkpt lat="48.86842341162264" lon="9.245008444413545">
<ele>269.8</ele>
<time>2024-05-12T11:11:47Z</time>
</trkpt>
<trkpt lat="48.86840815655887" lon="9.245026549324391">
<ele>269.8</ele>
<time>2024-05-12T11:11:48Z</time>
</trkpt>
<trkpt lat="48.86838912963867" lon="9.245048509910704">
<ele>269.6</ele>
<time>2024-05-12T11:11:49Z</time>
</trkpt>
<trkpt lat="48.86837001889944" lon="9.24507139250636">
<ele>269.6</ele>
<time>2024-05-12T11:11:50Z</time>
</trkpt>
<trkpt lat="48.86835476383567" lon="9.245099974796176">
<ele>269.6</ele>
<time>2024-05-12T11:11:51Z</time>
</trkpt>
<trkpt lat="48.868339508771896" lon="9.245128557085993">
<ele>269.6</ele>
<time>2024-05-12T11:11:52Z</time>
</trkpt>
<trkpt lat="48.86832802556455" lon="9.245156217366455">
<ele>269.6</ele>
<time>2024-05-12T11:11:53Z</time>
</trkpt>
<trkpt lat="48.86831662617624" lon="9.245189661160111">
<ele>269.4</ele>
<time>2024-05-12T11:11:54Z</time>
</trkpt>
<trkpt lat="48.86830514296889" lon="9.24522679299116">
<ele>269.4</ele>
<time>2024-05-12T11:11:55Z</time>
</trkpt>
<trkpt lat="48.86829374358058" lon="9.245267864316702">
<ele>269.4</ele>
<time>2024-05-12T11:11:56Z</time>
</trkpt>
<trkpt lat="48.868286116048694" lon="9.24530784599483">
<ele>269.4</ele>
<time>2024-05-12T11:11:57Z</time>
</trkpt>
<trkpt lat="48.86827848851681" lon="9.245345061644912">
<ele>269.2</ele>
<time>2024-05-12T11:11:58Z</time>
</trkpt>
<trkpt lat="48.86827086098492" lon="9.245381355285645">
<ele>269.2</ele>
<time>2024-05-12T11:11:59Z</time>
</trkpt>
<trkpt lat="48.868263233453035" lon="9.245420414954424">
<ele>269</ele>
<time>2024-05-12T11:12:00Z</time>
</trkpt>
<trkpt lat="48.86825560592115" lon="9.245459474623203">
<ele>269</ele>
<time>2024-05-12T11:12:01Z</time>
</trkpt>
<trkpt lat="48.86824797838926" lon="9.245501467958093">
<ele>268.8</ele>
<time>2024-05-12T11:12:02Z</time>
</trkpt>
<trkpt lat="48.86824035085738" lon="9.245541533455253">
<ele>268.6</ele>
<time>2024-05-12T11:12:03Z</time>
</trkpt>
<trkpt lat="48.86823649518192" lon="9.245579671114683">
<ele>268.4</ele>
<time>2024-05-12T11:12:04Z</time>
</trkpt>
<trkpt lat="48.86823272332549" lon="9.245616886764765">
<ele>268.2</ele>
<time>2024-05-12T11:12:05Z</time>
</trkpt>
<trkpt lat="48.868225095793605" lon="9.245659802109005">
<ele>268</ele>
<time>2024-05-12T11:12:06Z</time>
</trkpt>
<trkpt lat="48.86821361258626" lon="9.24570464529097">
<ele>267.8</ele>
<time>2024-05-12T11:12:07Z</time>
</trkpt>
<trkpt lat="48.868205985054374" lon="9.245748482644558">
<ele>267.8</ele>
<time>2024-05-12T11:12:08Z</time>
</trkpt>
<trkpt lat="48.86819835752249" lon="9.245786620303988">
<ele>267.6</ele>
<time>2024-05-12T11:12:09Z</time>
</trkpt>
<trkpt lat="48.86818687431514" lon="9.24582283012569">
<ele>267.4</ele>
<time>2024-05-12T11:12:10Z</time>
</trkpt>
<trkpt lat="48.86817547492683" lon="9.245856273919344">
<ele>267.2</ele>
<time>2024-05-12T11:12:11Z</time>
</trkpt>
<trkpt lat="48.86816399171949" lon="9.245893405750394">
<ele>267</ele>
<time>2024-05-12T11:12:12Z</time>
</trkpt>
<trkpt lat="48.86815259233117" lon="9.245938248932362">
<ele>266.8</ele>
<time>2024-05-12T11:12:13Z</time>
</trkpt>
<trkpt lat="48.8681373372674" lon="9.245994491502644">
<ele>266.6</ele>
<time>2024-05-12T11:12:14Z</time>
</trkpt>
<trkpt lat="48.86811822652817" lon="9.246054589748384">
<ele>266.6</ele>
<time>2024-05-12T11:12:15Z</time>
</trkpt>
<trkpt lat="48.86809534393251" lon="9.24611854366958">
<ele>266.4</ele>
<time>2024-05-12T11:12:16Z</time>
</trkpt>
<trkpt lat="48.86807246133685" lon="9.246188113465903">
<ele>266.4</ele>
<time>2024-05-12T11:12:17Z</time>
</trkpt>
<trkpt lat="48.86804957874119" lon="9.24625676125288">
<ele>266.2</ele>
<time>2024-05-12T11:12:18Z</time>
</trkpt>
<trkpt lat="48.868026696145535" lon="9.246324487030506">
<ele>266.2</ele>
<time>2024-05-12T11:12:19Z</time>
</trkpt>
<trkpt lat="48.8680075854063" lon="9.246388357132671">
<ele>266</ele>
<time>2024-05-12T11:12:20Z</time>
</trkpt>
<trkpt lat="48.867988558486104" lon="9.24645516090095">
<ele>265.8</ele>
<time>2024-05-12T11:12:21Z</time>
</trkpt>
<trkpt lat="48.867965675890446" lon="9.246521880850196">
<ele>265.6</ele>
<time>2024-05-12T11:12:22Z</time>
</trkpt>
<trkpt lat="48.86794279329479" lon="9.246588684618471">
<ele>265.4</ele>
<time>2024-05-12T11:12:23Z</time>
</trkpt>
<trkpt lat="48.86791991069913" lon="9.246651632711291">
<ele>265.2</ele>
<time>2024-05-12T11:12:24Z</time>
</trkpt>
<trkpt lat="48.86789702810347" lon="9.246713574975727">
<ele>265</ele>
<time>2024-05-12T11:12:25Z</time>
</trkpt>
<trkpt lat="48.86787791736424" lon="9.246776523068547">
<ele>264.8</ele>
<time>2024-05-12T11:12:26Z</time>
</trkpt>
<trkpt lat="48.86785503476858" lon="9.246838549152017">
<ele>264.6</ele>
<time>2024-05-12T11:12:27Z</time>
</trkpt>
<trkpt lat="48.86783592402935" lon="9.246905269101262">
<ele>264.4</ele>
<time>2024-05-12T11:12:28Z</time>
</trkpt>
<trkpt lat="48.86781304143369" lon="9.24697014503181">
<ele>264.2</ele>
<time>2024-05-12T11:12:29Z</time>
</trkpt>
<trkpt lat="48.86779401451349" lon="9.247033093124628">
<ele>264</ele>
<time>2024-05-12T11:12:30Z</time>
</trkpt>
<trkpt lat="48.867771131917834" lon="9.247095035389066">
<ele>264</ele>
<time>2024-05-12T11:12:31Z</time>
</trkpt>
<trkpt lat="48.867748249322176" lon="9.247155133634806">
<ele>263.8</ele>
<time>2024-05-12T11:12:32Z</time>
</trkpt>
<trkpt lat="48.867729138582945" lon="9.247213304042816">
<ele>263.6</ele>
<time>2024-05-12T11:12:33Z</time>
</trkpt>
<trkpt lat="48.867710111662745" lon="9.247273402288556">
<ele>263.6</ele>
<time>2024-05-12T11:12:34Z</time>
</trkpt>
<trkpt lat="48.86769477277994" lon="9.247335428372024">
<ele>263.2</ele>
<time>2024-05-12T11:12:35Z</time>
</trkpt>
<trkpt lat="48.86767189018428" lon="9.247394520789385">
<ele>263</ele>
<time>2024-05-12T11:12:36Z</time>
</trkpt>
<trkpt lat="48.86765663512051" lon="9.247458390891552">
<ele>262.8</ele>
<time>2024-05-12T11:12:37Z</time>
</trkpt>
<trkpt lat="48.86764138005674" lon="9.24752041697502">
<ele>262.4</ele>
<time>2024-05-12T11:12:38Z</time>
</trkpt>
<trkpt lat="48.867629980668426" lon="9.24757950939238">
<ele>262.2</ele>
<time>2024-05-12T11:12:39Z</time>
</trkpt>
<trkpt lat="48.86762235313654" lon="9.247636757791042">
<ele>262</ele>
<time>2024-05-12T11:12:40Z</time>
</trkpt>
<trkpt lat="48.86761849746108" lon="9.247693000361323">
<ele>261.799</ele>
<time>2024-05-12T11:12:41Z</time>
</trkpt>
<trkpt lat="48.86761472560465" lon="9.247746393084526">
<ele>261.799</ele>
<time>2024-05-12T11:12:42Z</time>
</trkpt>
<trkpt lat="48.867610869929194" lon="9.247804563492537">
<ele>261.6</ele>
<time>2024-05-12T11:12:43Z</time>
</trkpt>
<trkpt lat="48.867610869929194" lon="9.247866589576006">
<ele>261.4</ele>
<time>2024-05-12T11:12:44Z</time>
</trkpt>
<trkpt lat="48.86761472560465" lon="9.247929537668824">
<ele>261.2</ele>
<time>2024-05-12T11:12:45Z</time>
</trkpt>
<trkpt lat="48.86761472560465" lon="9.24799533560872">
<ele>261</ele>
<time>2024-05-12T11:12:46Z</time>
</trkpt>
<trkpt lat="48.86762612499297" lon="9.24805635586381">
<ele>260.6</ele>
<time>2024-05-12T11:12:47Z</time>
</trkpt>
<trkpt lat="48.86763760820031" lon="9.248113604262471">
<ele>260.4</ele>
<time>2024-05-12T11:12:48Z</time>
</trkpt>
<trkpt lat="48.86765663512051" lon="9.248171774670482">
<ele>260.2</ele>
<time>2024-05-12T11:12:49Z</time>
</trkpt>
<trkpt lat="48.86767189018428" lon="9.248227095231414">
<ele>260</ele>
<time>2024-05-12T11:12:50Z</time>
</trkpt>
<trkpt lat="48.86769477277994" lon="9.248278560116889">
<ele>259.799</ele>
<time>2024-05-12T11:12:51Z</time>
</trkpt>
<trkpt lat="48.867710111662745" lon="9.248328180983664">
<ele>259.6</ele>
<time>2024-05-12T11:12:52Z</time>
</trkpt>
<trkpt lat="48.867729138582945" lon="9.24837201833725">
<ele>259.4</ele>
<time>2024-05-12T11:12:53Z</time>
</trkpt>
<trkpt lat="48.86774439364672" lon="9.24841208383441">
<ele>259.2</ele>
<time>2024-05-12T11:12:54Z</time>
</trkpt>
<trkpt lat="48.86776350438595" lon="9.24845022149384">
<ele>259</ele>
<time>2024-05-12T11:12:55Z</time>
</trkpt>
<trkpt lat="48.86777490377426" lon="9.24848835915327">
<ele>258.6</ele>
<time>2024-05-12T11:12:56Z</time>
</trkpt>
<trkpt lat="48.867790158838034" lon="9.248523646965625">
<ele>258.4</ele>
<time>2024-05-12T11:12:57Z</time>
</trkpt>
<trkpt lat="48.867790158838034" lon="9.248563712462785">
<ele>257.799</ele>
<time>2024-05-12T11:12:58Z</time>
</trkpt>
<trkpt lat="48.86778638698161" lon="9.24860662780702">
<ele>257.4</ele>
<time>2024-05-12T11:12:59Z</time>
</trkpt>
<trkpt lat="48.86776350438595" lon="9.248656248673797">
<ele>256.799</ele>
<time>2024-05-12T11:13:00Z</time>
</trkpt>
<trkpt lat="48.86774062179029" lon="9.248713413253428">
<ele>256.4</ele>
<time>2024-05-12T11:13:01Z</time>
</trkpt>
<trkpt lat="48.867710111662745" lon="9.24876781180501">
<ele>256</ele>
<time>2024-05-12T11:13:02Z</time>
</trkpt>
<trkpt lat="48.86767951771617" lon="9.248816426843405">
<ele>255.8</ele>
<time>2024-05-12T11:13:03Z</time>
</trkpt>
<trkpt lat="48.86764138005674" lon="9.248860348016024">
<ele>255.6</ele>
<time>2024-05-12T11:13:04Z</time>
</trkpt>
<trkpt lat="48.86760709807277" lon="9.248901335522532">
<ele>255.2</ele>
<time>2024-05-12T11:13:05Z</time>
</trkpt>
<trkpt lat="48.86757658794522" lon="9.248940395191312">
<ele>254.8</ele>
<time>2024-05-12T11:13:06Z</time>
</trkpt>
<trkpt lat="48.86754607781768" lon="9.248981466516852">
<ele>254.6</ele>
<time>2024-05-12T11:13:07Z</time>
</trkpt>
<trkpt lat="48.867511712014675" lon="9.24902530387044">
<ele>254.2</ele>
<time>2024-05-12T11:13:08Z</time>
</trkpt>
<trkpt lat="48.867469718679786" lon="9.249070147052407">
<ele>253.8</ele>
<time>2024-05-12T11:13:09Z</time>
</trkpt>
<trkpt lat="48.86742395348847" lon="9.249113062396646">
<ele>253.6</ele>
<time>2024-05-12T11:13:10Z</time>
</trkpt>
<trkpt lat="48.86738204397261" lon="9.249156899750233">
<ele>253.4</ele>
<time>2024-05-12T11:13:11Z</time>
</trkpt>
<trkpt lat="48.86734005063772" lon="9.249197887256742">
<ele>253</ele>
<time>2024-05-12T11:13:12Z</time>
</trkpt>
<trkpt lat="48.86729805730283" lon="9.24924180842936">
<ele>252.6</ele>
<time>2024-05-12T11:13:13Z</time>
</trkpt>
<trkpt lat="48.86726377531886" lon="9.249290423467755">
<ele>252</ele>
<time>2024-05-12T11:13:14Z</time>
</trkpt>
<trkpt lat="48.86722563765943" lon="9.24934004433453">
<ele>251.6</ele>
<time>2024-05-12T11:13:15Z</time>
</trkpt>
<trkpt lat="48.86718364432454" lon="9.249389581382276">
<ele>251.2</ele>
<time>2024-05-12T11:13:16Z</time>
</trkpt>
<trkpt lat="48.86714165098965" lon="9.249436352401972">
<ele>250.8</ele>
<time>2024-05-12T11:13:17Z</time>
</trkpt>
<trkpt lat="48.867099741473794" lon="9.249489745125176">
<ele>250.4</ele>
<time>2024-05-12T11:13:18Z</time>
</trkpt>
<trkpt lat="48.86706160381436" lon="9.249545065686108">
<ele>250</ele>
<time>2024-05-12T11:13:19Z</time>
</trkpt>
<trkpt lat="48.86702346615493" lon="9.249603236094115">
<ele>249.6</ele>
<time>2024-05-12T11:13:20Z</time>
</trkpt>
<trkpt lat="48.86698147282005" lon="9.249663334339855">
<ele>249.2</ele>
<time>2024-05-12T11:13:21Z</time>
</trkpt>
<trkpt lat="48.86694710701704" lon="9.249721504747868">
<ele>248.8</ele>
<time>2024-05-12T11:13:22Z</time>
</trkpt>
<trkpt lat="48.86690896935761" lon="9.249779675155878">
<ele>248.4</ele>
<time>2024-05-12T11:13:23Z</time>
</trkpt>
<trkpt lat="48.86687083169818" lon="9.249836839735508">
<ele>247.8</ele>
<time>2024-05-12T11:13:24Z</time>
</trkpt>
<trkpt lat="48.866836465895176" lon="9.249883610755203">
<ele>247.2</ele>
<time>2024-05-12T11:13:25Z</time>
</trkpt>
<trkpt lat="48.866798328235745" lon="9.249935075640678">
<ele>246.6</ele>
<time>2024-05-12T11:13:26Z</time>
</trkpt>
<trkpt lat="48.8667678181082" lon="9.2499961797148">
<ele>246</ele>
<time>2024-05-12T11:13:27Z</time>
</trkpt>
<trkpt lat="48.86673730798066" lon="9.250056194141507">
<ele>245.6</ele>
<time>2024-05-12T11:13:28Z</time>
</trkpt>
<trkpt lat="48.86670679785311" lon="9.250113442540169">
<ele>245.2</ele>
<time>2024-05-12T11:13:29Z</time>
</trkpt>
<trkpt lat="48.86668014340103" lon="9.250175468623638">
<ele>244.6</ele>
<time>2024-05-12T11:13:30Z</time>
</trkpt>
<trkpt lat="48.86664954945445" lon="9.25023171119392">
<ele>244.2</ele>
<time>2024-05-12T11:13:31Z</time>
</trkpt>
<trkpt lat="48.86661526747048" lon="9.250287031754851">
<ele>243.8</ele>
<time>2024-05-12T11:13:32Z</time>
</trkpt>
<trkpt lat="48.86658852919936" lon="9.250347130000591">
<ele>243.4</ele>
<time>2024-05-12T11:13:33Z</time>
</trkpt>
<trkpt lat="48.86655801907182" lon="9.25040815025568">
<ele>242.8</ele>
<time>2024-05-12T11:13:34Z</time>
</trkpt>
<trkpt lat="48.86653513647616" lon="9.250463470816612">
<ele>242.4</ele>
<time>2024-05-12T11:13:35Z</time>
</trkpt>
<trkpt lat="48.866504626348615" lon="9.250528262928128">
<ele>242</ele>
<time>2024-05-12T11:13:36Z</time>
</trkpt>
<trkpt lat="48.86647411622107" lon="9.250591211020948">
<ele>241.6</ele>
<time>2024-05-12T11:13:37Z</time>
</trkpt>
<trkpt lat="48.86644737794995" lon="9.250658014789224">
<ele>241.4</ele>
<time>2024-05-12T11:13:38Z</time>
</trkpt>
<trkpt lat="48.86642072349787" lon="9.250718113034964">
<ele>241</ele>
<time>2024-05-12T11:13:39Z</time>
</trkpt>
<trkpt lat="48.86639784090221" lon="9.250775277614594">
<ele>240.6</ele>
<time>2024-05-12T11:13:40Z</time>
</trkpt>
<trkpt lat="48.86637110263109" lon="9.250838225707412">
<ele>240.2</ele>
<time>2024-05-12T11:13:41Z</time>
</trkpt>
<trkpt lat="48.86634444817901" lon="9.25090025179088">
<ele>239.8</ele>
<time>2024-05-12T11:13:42Z</time>
</trkpt>
<trkpt lat="48.86632148176432" lon="9.250953644514084">
<ele>239.4</ele>
<time>2024-05-12T11:13:43Z</time>
</trkpt>
<trkpt lat="48.86629859916866" lon="9.25100133754313">
<ele>239</ele>
<time>2024-05-12T11:13:44Z</time>
</trkpt>
<trkpt lat="48.866275716573" lon="9.251049952581525">
<ele>238.4</ele>
<time>2024-05-12T11:13:45Z</time>
</trkpt>
<trkpt lat="48.8662566896528" lon="9.251096723601222">
<ele>237.8</ele>
<time>2024-05-12T11:13:46Z</time>
</trkpt>
<trkpt lat="48.86624143458903" lon="9.251134861260653">
<ele>237.2</ele>
<time>2024-05-12T11:13:47Z</time>
</trkpt>
<trkpt lat="48.866226179525256" lon="9.251172998920085">
<ele>236.8</ele>
<time>2024-05-12T11:13:48Z</time>
</trkpt>
<trkpt lat="48.866207068786025" lon="9.251212058588862">
<ele>236.2</ele>
<time>2024-05-12T11:13:49Z</time>
</trkpt>
<trkpt lat="48.866188041865826" lon="9.251250196248291">
<ele>235.8</ele>
<time>2024-05-12T11:13:50Z</time>
</trkpt>
<trkpt lat="48.86617655865848" lon="9.25127785652876">
<ele>235.2</ele>
<time>2024-05-12T11:13:51Z</time>
</trkpt>
<trkpt lat="48.86616515927017" lon="9.25129696726799">
<ele>234.8</ele>
<time>2024-05-12T11:13:52Z</time>
</trkpt>
<trkpt lat="48.86615367606282" lon="9.251311300322412">
<ele>234.4</ele>
<time>2024-05-12T11:13:53Z</time>
</trkpt>
<trkpt lat="48.866146048530936" lon="9.251324627548456">
<ele>234</ele>
<time>2024-05-12T11:13:54Z</time>
</trkpt>
<trkpt lat="48.86613842099905" lon="9.25133510492742">
<ele>233.6</ele>
<time>2024-05-12T11:13:55Z</time>
</trkpt>
<trkpt lat="48.86613842099905" lon="9.2513379547745">
<ele>233.2</ele>
<time>2024-05-12T11:13:56Z</time>
</trkpt>
<trkpt lat="48.86613456532359" lon="9.251343654468656">
<ele>232.8</ele>
<time>2024-05-12T11:13:57Z</time>
</trkpt>
<trkpt lat="48.866126937791705" lon="9.251348432153463">
<ele>232.4</ele>
<time>2024-05-12T11:13:58Z</time>
</trkpt>
<trkpt lat="48.86612316593528" lon="9.25135706551373">
<ele>232.2</ele>
<time>2024-05-12T11:13:59Z</time>
</trkpt>
<trkpt lat="48.86611553840339" lon="9.251366537064314">
<ele>231.8</ele>
<time>2024-05-12T11:14:00Z</time>
</trkpt>
<trkpt lat="48.86610405519605" lon="9.251401824876666">
<ele>231.4</ele>
<time>2024-05-12T11:14:01Z</time>
</trkpt>
<trkpt lat="48.866088800132275" lon="9.251442896202208">
<ele>231.2</ele>
<time>2024-05-12T11:14:02Z</time>
</trkpt>
<trkpt lat="48.866069773212075" lon="9.25147625617683">
<ele>230.8</ele>
<time>2024-05-12T11:14:03Z</time>
</trkpt>
<trkpt lat="48.8660545181483" lon="9.251504838466644">
<ele>230.6</ele>
<time>2024-05-12T11:14:04Z</time>
</trkpt>
<trkpt lat="48.86603926308453" lon="9.251529648900032">
<ele>230.4</ele>
<time>2024-05-12T11:14:05Z</time>
</trkpt>
<trkpt lat="48.8660201523453" lon="9.251555381342769">
<ele>230.2</ele>
<time>2024-05-12T11:14:06Z</time>
</trkpt>
<trkpt lat="48.8660011254251" lon="9.251578263938429">
<ele>230</ele>
<time>2024-05-12T11:14:07Z</time>
</trkpt>
<trkpt lat="48.86597815901041" lon="9.25161355175078">
<ele>230</ele>
<time>2024-05-12T11:14:08Z</time>
</trkpt>
<trkpt lat="48.86596290394664" lon="9.25165168941021">
<ele>229.8</ele>
<time>2024-05-12T11:14:09Z</time>
</trkpt>
<trkpt lat="48.865951504558325" lon="9.251685133203864">
<ele>229.8</ele>
<time>2024-05-12T11:14:10Z</time>
</trkpt>
<trkpt lat="48.86593624949455" lon="9.25171371549368">
<ele>229.6</ele>
<time>2024-05-12T11:14:11Z</time>
</trkpt>
<trkpt lat="48.86592476628721" lon="9.251745147630572">
<ele>229.6</ele>
<time>2024-05-12T11:14:12Z</time>
</trkpt>
<trkpt lat="48.86592099443078" lon="9.251774735748768">
<ele>229.4</ele>
<time>2024-05-12T11:14:13Z</time>
</trkpt>
<trkpt lat="48.86592099443078" lon="9.251801474019883">
<ele>229.4</ele>
<time>2024-05-12T11:14:14Z</time>
</trkpt>
<trkpt lat="48.865932393819094" lon="9.25183198414743">
<ele>229.4</ele>
<time>2024-05-12T11:14:15Z</time>
</trkpt>
<trkpt lat="48.86594387702644" lon="9.251854866743088">
<ele>229.2</ele>
<time>2024-05-12T11:14:16Z</time>
</trkpt>
<trkpt lat="48.86595527641475" lon="9.251881521195171">
<ele>229.2</ele>
<time>2024-05-12T11:14:17Z</time>
</trkpt>
<trkpt lat="48.86597438715398" lon="9.251913037151098">
<ele>229.2</ele>
<time>2024-05-12T11:14:18Z</time>
</trkpt>
<trkpt lat="48.86599726974964" lon="9.25194832496345">
<ele>229.2</ele>
<time>2024-05-12T11:14:19Z</time>
</trkpt>
<trkpt lat="48.8660201523453" lon="9.251983612775804">
<ele>229.2</ele>
<time>2024-05-12T11:14:20Z</time>
</trkpt>
<trkpt lat="48.86604689061642" lon="9.252019822597504">
<ele>229.2</ele>
<time>2024-05-12T11:14:21Z</time>
</trkpt>
<trkpt lat="48.866069773212075" lon="9.252064665779471">
<ele>229.2</ele>
<time>2024-05-12T11:14:22Z</time>
</trkpt>
<trkpt lat="48.86609265580773" lon="9.25210665911436">
<ele>229.2</ele>
<time>2024-05-12T11:14:23Z</time>
</trkpt>
<trkpt lat="48.86611168272793" lon="9.252142868936062">
<ele>229.4</ele>
<time>2024-05-12T11:14:24Z</time>
</trkpt>
<trkpt lat="48.86613842099905" lon="9.252182934433222">
<ele>229.4</ele>
<time>2024-05-12T11:14:25Z</time>
</trkpt>
<trkpt lat="48.86615753173828" lon="9.252221994102">
<ele>229.4</ele>
<time>2024-05-12T11:14:26Z</time>
</trkpt>
<trkpt lat="48.86618418619037" lon="9.252255437895656">
<ele>229.6</ele>
<time>2024-05-12T11:14:27Z</time>
</trkpt>
<trkpt lat="48.86621092446149" lon="9.252286870032547">
<ele>229.8</ele>
<time>2024-05-12T11:14:28Z</time>
</trkpt>
<trkpt lat="48.86623380705714" lon="9.252320230007172">
<ele>230</ele>
<time>2024-05-12T11:14:29Z</time>
</trkpt>
<trkpt lat="48.86626046150923" lon="9.252349818125367">
<ele>230.2</ele>
<time>2024-05-12T11:14:30Z</time>
</trkpt>
<trkpt lat="48.86629097163677" lon="9.252374628558757">
<ele>230.4</ele>
<time>2024-05-12T11:14:31Z</time>
</trkpt>
<trkpt lat="48.86632148176432" lon="9.25240128301084">
<ele>230.4</ele>
<time>2024-05-12T11:14:32Z</time>
</trkpt>
<trkpt lat="48.866348220035434" lon="9.252428021281958">
<ele>230.6</ele>
<time>2024-05-12T11:14:33Z</time>
</trkpt>
<trkpt lat="48.86637873016298" lon="9.252456603571773">
<ele>230.8</ele>
<time>2024-05-12T11:14:34Z</time>
</trkpt>
<trkpt lat="48.86640924029052" lon="9.252489963546395">
<ele>230.8</ele>
<time>2024-05-12T11:14:35Z</time>
</trkpt>
<trkpt lat="48.86643597856164" lon="9.252528185024858">
<ele>231</ele>
<time>2024-05-12T11:14:36Z</time>
</trkpt>
<trkpt lat="48.866462633013725" lon="9.252566322684288">
<ele>231</ele>
<time>2024-05-12T11:14:37Z</time>
</trkpt>
<trkpt lat="48.866485515609384" lon="9.252605382353067">
<ele>231</ele>
<time>2024-05-12T11:14:38Z</time>
</trkpt>
<trkpt lat="48.866508482024074" lon="9.252643520012498">
<ele>231</ele>
<time>2024-05-12T11:14:39Z</time>
</trkpt>
<trkpt lat="48.86653136461973" lon="9.252686435356736">
<ele>231.2</ele>
<time>2024-05-12T11:14:40Z</time>
</trkpt>
<trkpt lat="48.86655424721539" lon="9.252735134214165">
<ele>231.2</ele>
<time>2024-05-12T11:14:41Z</time>
</trkpt>
<trkpt lat="48.86657327413559" lon="9.252784671261908">
<ele>231.4</ele>
<time>2024-05-12T11:14:42Z</time>
</trkpt>
<trkpt lat="48.86659238487482" lon="9.252836219966412">
<ele>231.4</ele>
<time>2024-05-12T11:14:43Z</time>
</trkpt>
<trkpt lat="48.86661141179502" lon="9.252888606861234">
<ele>231.6</ele>
<time>2024-05-12T11:14:44Z</time>
</trkpt>
<trkpt lat="48.86663052253425" lon="9.25294015556574">
<ele>231.6</ele>
<time>2024-05-12T11:14:45Z</time>
</trkpt>
<trkpt lat="48.86664954945445" lon="9.25299447029829">
<ele>231.8</ele>
<time>2024-05-12T11:14:46Z</time>
</trkpt>
<trkpt lat="48.86666866019368" lon="9.253049790859222">
<ele>232</ele>
<time>2024-05-12T11:14:47Z</time>
</trkpt>
<trkpt lat="48.86668777093291" lon="9.253107039257884">
<ele>232.2</ele>
<time>2024-05-12T11:14:48Z</time>
</trkpt>
<trkpt lat="48.86670679785311" lon="9.253165209665896">
<ele>232.4</ele>
<time>2024-05-12T11:14:49Z</time>
</trkpt>
<trkpt lat="48.86672968044877" lon="9.253226229920983">
<ele>232.6</ele>
<time>2024-05-12T11:14:50Z</time>
</trkpt>
<trkpt lat="48.866748791188" lon="9.25329010002315">
<ele>232.8</ele>
<time>2024-05-12T11:14:51Z</time>
</trkpt>
<trkpt lat="48.86677167378366" lon="9.253353048115969">
<ele>232.8</ele>
<time>2024-05-12T11:14:52Z</time>
</trkpt>
<trkpt lat="48.86679455637932" lon="9.253419851884246">
<ele>233</ele>
<time>2024-05-12T11:14:53Z</time>
</trkpt>
<trkpt lat="48.86681743897498" lon="9.25348849967122">
<ele>233</ele>
<time>2024-05-12T11:14:54Z</time>
</trkpt>
<trkpt lat="48.866840321570635" lon="9.253561925143003">
<ele>233.2</ele>
<time>2024-05-12T11:14:55Z</time>
</trkpt>
<trkpt lat="48.86686705984175" lon="9.253633422777057">
<ele>233.2</ele>
<time>2024-05-12T11:14:56Z</time>
</trkpt>
<trkpt lat="48.86688994243741" lon="9.253703076392412">
<ele>233.2</ele>
<time>2024-05-12T11:14:57Z</time>
</trkpt>
<trkpt lat="48.86691282503307" lon="9.253774574026464">
<ele>233.4</ele>
<time>2024-05-12T11:14:58Z</time>
</trkpt>
<trkpt lat="48.86693185195327" lon="9.25384514965117">
<ele>233.4</ele>
<time>2024-05-12T11:14:59Z</time>
</trkpt>
<trkpt lat="48.8669509626925" lon="9.253914803266523">
<ele>233.2</ele>
<time>2024-05-12T11:15:00Z</time>
</trkpt>
<trkpt lat="48.8669699896127" lon="9.25398537889123">
<ele>233.2</ele>
<time>2024-05-12T11:15:01Z</time>
</trkpt>
<trkpt lat="48.86698910035193" lon="9.254054948687552">
<ele>233</ele>
<time>2024-05-12T11:15:02Z</time>
</trkpt>
<trkpt lat="48.86701198294759" lon="9.254124602302907">
<ele>233</ele>
<time>2024-05-12T11:15:03Z</time>
</trkpt>
<trkpt lat="48.867034865543246" lon="9.254191322252154">
<ele>232.8</ele>
<time>2024-05-12T11:15:04Z</time>
</trkpt>
<trkpt lat="48.867057748138905" lon="9.25426005385816">
<ele>232.6</ele>
<time>2024-05-12T11:15:05Z</time>
</trkpt>
<trkpt lat="48.86708063073456" lon="9.25432300195098">
<ele>232.4</ele>
<time>2024-05-12T11:15:06Z</time>
</trkpt>
<trkpt lat="48.86710351333022" lon="9.254384944215415">
<ele>232</ele>
<time>2024-05-12T11:15:07Z</time>
</trkpt>
<trkpt lat="48.86711876839399" lon="9.254446970298886">
<ele>231.8</ele>
<time>2024-05-12T11:15:08Z</time>
</trkpt>
<trkpt lat="48.867134023457766" lon="9.254503212869167">
<ele>231.4</ele>
<time>2024-05-12T11:15:09Z</time>
</trkpt>
<trkpt lat="48.86714927852154" lon="9.2545585334301">
<ele>231.2</ele>
<time>2024-05-12T11:15:10Z</time>
</trkpt>
<trkpt lat="48.867153134197" lon="9.254612848162653">
<ele>230.8</ele>
<time>2024-05-12T11:15:11Z</time>
</trkpt>
<trkpt lat="48.867156906053424" lon="9.254666324704884">
<ele>230.4</ele>
<time>2024-05-12T11:15:12Z</time>
</trkpt>
<trkpt lat="48.867153134197" lon="9.254718711599708">
<ele>230</ele>
<time>2024-05-12T11:15:13Z</time>
</trkpt>
<trkpt lat="48.867134023457766" lon="9.254766404628754">
<ele>229.6</ele>
<time>2024-05-12T11:15:14Z</time>
</trkpt>
<trkpt lat="48.86711114086211" lon="9.254810325801373">
<ele>229.4</ele>
<time>2024-05-12T11:15:15Z</time>
</trkpt>
<trkpt lat="48.86708448641002" lon="9.25485131330788">
<ele>229</ele>
<time>2024-05-12T11:15:16Z</time>
</trkpt>
<trkpt lat="48.86705397628248" lon="9.25489137880504">
<ele>228.6</ele>
<time>2024-05-12T11:15:17Z</time>
</trkpt>
<trkpt lat="48.86702723801136" lon="9.254938066005709">
<ele>228.2</ele>
<time>2024-05-12T11:15:18Z</time>
</trkpt>
<trkpt lat="48.8670043554157" lon="9.254988608881831">
<ele>227.8</ele>
<time>2024-05-12T11:15:19Z</time>
</trkpt>
<trkpt lat="48.86698147282005" lon="9.2550334520638">
<ele>227.6</ele>
<time>2024-05-12T11:15:20Z</time>
</trkpt>
<trkpt lat="48.866954734548926" lon="9.255075445398688">
<ele>227.2</ele>
<time>2024-05-12T11:15:21Z</time>
</trkpt>
<trkpt lat="48.86692808009684" lon="9.255114505067468">
<ele>226.8</ele>
<time>2024-05-12T11:15:22Z</time>
</trkpt>
<trkpt lat="48.8668975699693" lon="9.25515172071755">
<ele>226.6</ele>
<time>2024-05-12T11:15:23Z</time>
</trkpt>
<trkpt lat="48.86687468737364" lon="9.255185080692172">
<ele>226.2</ele>
<time>2024-05-12T11:15:24Z</time>
</trkpt>
<trkpt lat="48.86685180477798" lon="9.255216596648095">
<ele>226</ele>
<time>2024-05-12T11:15:25Z</time>
</trkpt>
<trkpt lat="48.86682883836329" lon="9.25524802878499">
<ele>225.6</ele>
<time>2024-05-12T11:15:26Z</time>
</trkpt>
<trkpt lat="48.86680595576763" lon="9.255279460921884">
<ele>225.2</ele>
<time>2024-05-12T11:15:27Z</time>
</trkpt>
<trkpt lat="48.86678307317197" lon="9.255312904715538">
<ele>225</ele>
<time>2024-05-12T11:15:28Z</time>
</trkpt>
<trkpt lat="48.866760190576315" lon="9.25534626469016">
<ele>224.6</ele>
<time>2024-05-12T11:15:29Z</time>
</trkpt>
<trkpt lat="48.86673353612423" lon="9.255381552502511">
<ele>224.2</ele>
<time>2024-05-12T11:15:30Z</time>
</trkpt>
<trkpt lat="48.86671065352857" lon="9.255416840314863">
<ele>223.8</ele>
<time>2024-05-12T11:15:31Z</time>
</trkpt>
<trkpt lat="48.86669154278934" lon="9.25544642843306">
<ele>223.4</ele>
<time>2024-05-12T11:15:32Z</time>
</trkpt>
<trkpt lat="48.86668014340103" lon="9.255481716245413">
<ele>223</ele>
<time>2024-05-12T11:15:33Z</time>
</trkpt>
<trkpt lat="48.86667628772557" lon="9.255519853904843">
<ele>222.6</ele>
<time>2024-05-12T11:15:34Z</time>
</trkpt>
<trkpt lat="48.86667251586914" lon="9.25556461326778">
<ele>222.2</ele>
<time>2024-05-12T11:15:35Z</time>
</trkpt>
<trkpt lat="48.86667628772557" lon="9.255608534440398">
<ele>221.8</ele>
<time>2024-05-12T11:15:36Z</time>
</trkpt>
<trkpt lat="48.86669154278934" lon="9.25564281642437">
<ele>221.4</ele>
<time>2024-05-12T11:15:37Z</time>
</trkpt>
<trkpt lat="48.866714425385" lon="9.255675254389644">
<ele>221</ele>
<time>2024-05-12T11:15:38Z</time>
</trkpt>
<trkpt lat="48.86673730798066" lon="9.255706770345569">
<ele>220.8</ele>
<time>2024-05-12T11:15:39Z</time>
</trkpt>
<trkpt lat="48.866764046251774" lon="9.25574205815792">
<ele>220.6</ele>
<time>2024-05-12T11:15:40Z</time>
</trkpt>
<trkpt lat="48.86678692884743" lon="9.255778267979622">
<ele>220.2</ele>
<time>2024-05-12T11:15:41Z</time>
</trkpt>
<trkpt lat="48.86680981144309" lon="9.255816405639052">
<ele>220.2</ele>
<time>2024-05-12T11:15:42Z</time>
</trkpt>
<trkpt lat="48.86683269403875" lon="9.25586124882102">
<ele>220</ele>
<time>2024-05-12T11:15:43Z</time>
</trkpt>
<trkpt lat="48.86685557663441" lon="9.255907014012337">
<ele>220</ele>
<time>2024-05-12T11:15:44Z</time>
</trkpt>
<trkpt lat="48.86688231490552" lon="9.255951857194304">
<ele>219.8</ele>
<time>2024-05-12T11:15:45Z</time>
</trkpt>
<trkpt lat="48.86690519750118" lon="9.255992844700812">
<ele>219.8</ele>
<time>2024-05-12T11:15:46Z</time>
</trkpt>
<trkpt lat="48.86692808009684" lon="9.256032910197971">
<ele>219.8</ele>
<time>2024-05-12T11:15:47Z</time>
</trkpt>
<trkpt lat="48.866954734548926" lon="9.256071969866753">
<ele>219.8</ele>
<time>2024-05-12T11:15:48Z</time>
</trkpt>
<trkpt lat="48.866977617144585" lon="9.256113041192291">
<ele>219.8</ele>
<time>2024-05-12T11:15:49Z</time>
</trkpt>
<trkpt lat="48.86700049974024" lon="9.25615495070815">
<ele>219.8</ele>
<time>2024-05-12T11:15:50Z</time>
</trkpt>
<trkpt lat="48.86702346615493" lon="9.25619979389012">
<ele>219.6</ele>
<time>2024-05-12T11:15:51Z</time>
</trkpt>
<trkpt lat="48.86705012060702" lon="9.256244637072086">
<ele>219.6</ele>
<time>2024-05-12T11:15:52Z</time>
</trkpt>
<trkpt lat="48.867076858878136" lon="9.25629325211048">
<ele>219.6</ele>
<time>2024-05-12T11:15:53Z</time>
</trkpt>
<trkpt lat="48.867099741473794" lon="9.25633616745472">
<ele>219.6</ele>
<time>2024-05-12T11:15:54Z</time>
</trkpt>
<trkpt lat="48.86712639592588" lon="9.256381932646036">
<ele>219.6</ele>
<time>2024-05-12T11:15:55Z</time>
</trkpt>
<trkpt lat="48.867153134197" lon="9.256424847990274">
<ele>219.6</ele>
<time>2024-05-12T11:15:56Z</time>
</trkpt>
<trkpt lat="48.867176016792655" lon="9.256469691172242">
<ele>219.6</ele>
<time>2024-05-12T11:15:57Z</time>
</trkpt>
<trkpt lat="48.86720275506377" lon="9.25651453435421">
<ele>219.6</ele>
<time>2024-05-12T11:15:58Z</time>
</trkpt>
<trkpt lat="48.86722940951586" lon="9.256561221554875">
<ele>219.4</ele>
<time>2024-05-12T11:15:59Z</time>
</trkpt>
<trkpt lat="48.867256147786975" lon="9.256605142727494">
<ele>219.4</ele>
<time>2024-05-12T11:16:00Z</time>
</trkpt>
<trkpt lat="48.86728280223906" lon="9.256648058071733">
<ele>219.4</ele>
<time>2024-05-12T11:16:01Z</time>
</trkpt>
<trkpt lat="48.86730568483472" lon="9.25669189542532">
<ele>219.6</ele>
<time>2024-05-12T11:16:02Z</time>
</trkpt>
<trkpt lat="48.86732856743038" lon="9.256734810769558">
<ele>219.6</ele>
<time>2024-05-12T11:16:03Z</time>
</trkpt>
<trkpt lat="48.867351450026035" lon="9.256774876266718">
<ele>219.8</ele>
<time>2024-05-12T11:16:04Z</time>
</trkpt>
<trkpt lat="48.867370560765266" lon="9.256814941763878">
<ele>219.8</ele>
<time>2024-05-12T11:16:05Z</time>
</trkpt>
<trkpt lat="48.86738581582904" lon="9.25685022957623">
<ele>220</ele>
<time>2024-05-12T11:16:06Z</time>
</trkpt>
<trkpt lat="48.867393443360925" lon="9.25689121708274">
<ele>220</ele>
<time>2024-05-12T11:16:07Z</time>
</trkpt>
<trkpt lat="48.867393443360925" lon="9.256936982274055">
<ele>220.2</ele>
<time>2024-05-12T11:16:08Z</time>
</trkpt>
<trkpt lat="48.867374416440725" lon="9.256970342248678">
<ele>220.4</ele>
<time>2024-05-12T11:16:09Z</time>
</trkpt>
<trkpt lat="48.867351450026035" lon="9.257004708051682">
<ele>220.4</ele>
<time>2024-05-12T11:16:10Z</time>
</trkpt>
<trkpt lat="48.86733619496226" lon="9.257036140188577">
<ele>220.4</ele>
<time>2024-05-12T11:16:11Z</time>
</trkpt>
<trkpt lat="48.867313312366605" lon="9.257062878459692">
<ele>220.6</ele>
<time>2024-05-12T11:16:12Z</time>
</trkpt>
<trkpt lat="48.86729805730283" lon="9.257100094109774">
<ele>220.6</ele>
<time>2024-05-12T11:16:13Z</time>
</trkpt>
<trkpt lat="48.86728280223906" lon="9.257142003625631">
<ele>220.8</ele>
<time>2024-05-12T11:16:14Z</time>
</trkpt>
<trkpt lat="48.86726754717529" lon="9.257183074951172">
<ele>220.8</ele>
<time>2024-05-12T11:16:15Z</time>
</trkpt>
<trkpt lat="48.86725229211152" lon="9.257227834314108">
<ele>221</ele>
<time>2024-05-12T11:16:16Z</time>
</trkpt>
<trkpt lat="48.8672408927232" lon="9.257274605333803">
<ele>221.2</ele>
<time>2024-05-12T11:16:17Z</time>
</trkpt>
<trkpt lat="48.86723326519132" lon="9.25732129253447">
<ele>221.2</ele>
<time>2024-05-12T11:16:18Z</time>
</trkpt>
<trkpt lat="48.86722178198397" lon="9.257369991391895">
<ele>221.4</ele>
<time>2024-05-12T11:16:19Z</time>
</trkpt>
<trkpt lat="48.867218010127544" lon="9.257418606430292">
<ele>221.4</ele>
<time>2024-05-12T11:16:20Z</time>
</trkpt>
<trkpt lat="48.86721038259566" lon="9.257468143478036">
<ele>221.4</ele>
<time>2024-05-12T11:16:21Z</time>
</trkpt>
<trkpt lat="48.86720275506377" lon="9.25751868635416">
<ele>221.6</ele>
<time>2024-05-12T11:16:22Z</time>
</trkpt>
<trkpt lat="48.867195127531886" lon="9.257568307220936">
<ele>221.6</ele>
<time>2024-05-12T11:16:23Z</time>
</trkpt>
<trkpt lat="48.86719127185643" lon="9.257615078240631">
<ele>221.6</ele>
<time>2024-05-12T11:16:24Z</time>
</trkpt>
<trkpt lat="48.86718364432454" lon="9.257663693279028">
<ele>221.8</ele>
<time>2024-05-12T11:16:25Z</time>
</trkpt>
<trkpt lat="48.86717978864908" lon="9.257710380479692">
<ele>222</ele>
<time>2024-05-12T11:16:26Z</time>
</trkpt>
<trkpt lat="48.86716838926077" lon="9.257756229490042">
<ele>222</ele>
<time>2024-05-12T11:16:27Z</time>
</trkpt>
<trkpt lat="48.86716076172888" lon="9.257806772366166">
<ele>222.2</ele>
<time>2024-05-12T11:16:28Z</time>
</trkpt>
<trkpt lat="48.867153134197" lon="9.257853459566832">
<ele>222.4</ele>
<time>2024-05-12T11:16:29Z</time>
</trkpt>
<trkpt lat="48.86714165098965" lon="9.257902074605228">
<ele>222.4</ele>
<time>2024-05-12T11:16:30Z</time>
</trkpt>
<trkpt lat="48.86713025160134" lon="9.257951695472002">
<ele>222.6</ele>
<time>2024-05-12T11:16:31Z</time>
</trkpt>
<trkpt lat="48.86711876839399" lon="9.258001316338778">
<ele>222.8</ele>
<time>2024-05-12T11:16:32Z</time>
</trkpt>
<trkpt lat="48.86710736900568" lon="9.258051859214902">
<ele>223</ele>
<time>2024-05-12T11:16:33Z</time>
</trkpt>
<trkpt lat="48.867095885798335" lon="9.258103324100375">
<ele>223.2</ele>
<time>2024-05-12T11:16:34Z</time>
</trkpt>
<trkpt lat="48.86708063073456" lon="9.25815193913877">
<ele>223.4</ele>
<time>2024-05-12T11:16:35Z</time>
</trkpt>
<trkpt lat="48.86707300320268" lon="9.258196782320738">
<ele>223.6</ele>
<time>2024-05-12T11:16:36Z</time>
</trkpt>
<trkpt lat="48.86706160381436" lon="9.258239697664976">
<ele>223.6</ele>
<time>2024-05-12T11:16:37Z</time>
</trkpt>
<trkpt lat="48.86705012060702" lon="9.258277835324408">
<ele>224</ele>
<time>2024-05-12T11:16:38Z</time>
</trkpt>
<trkpt lat="48.867038721218705" lon="9.258315050974488">
<ele>224.2</ele>
<time>2024-05-12T11:16:39Z</time>
</trkpt>
<trkpt lat="48.86702723801136" lon="9.25835033878684">
<ele>224.4</ele>
<time>2024-05-12T11:16:40Z</time>
</trkpt>
<trkpt lat="48.867019610479474" lon="9.258383698761463">
<ele>224.6</ele>
<time>2024-05-12T11:16:41Z</time>
</trkpt>
<trkpt lat="48.86700812727213" lon="9.25841328687966">
<ele>224.8</ele>
<time>2024-05-12T11:16:42Z</time>
</trkpt>
<trkpt lat="48.86699287220836" lon="9.258444719016552">
<ele>224.8</ele>
<time>2024-05-12T11:16:43Z</time>
</trkpt>
<trkpt lat="48.866977617144585" lon="9.258476234972475">
<ele>225</ele>
<time>2024-05-12T11:16:44Z</time>
</trkpt>
<trkpt lat="48.8669699896127" lon="9.258516300469635">
<ele>225.2</ele>
<time>2024-05-12T11:16:45Z</time>
</trkpt>
<trkpt lat="48.86697384528816" lon="9.258553432300689">
<ele>225.2</ele>
<time>2024-05-12T11:16:46Z</time>
</trkpt>
<trkpt lat="48.86698524467647" lon="9.258583020418882">
<ele>225.2</ele>
<time>2024-05-12T11:16:47Z</time>
</trkpt>
<trkpt lat="48.8670043554157" lon="9.258613530546429">
<ele>225.2</ele>
<time>2024-05-12T11:16:48Z</time>
</trkpt>
<trkpt lat="48.86702346615493" lon="9.258645046502352">
<ele>225.4</ele>
<time>2024-05-12T11:16:49Z</time>
</trkpt>
<trkpt lat="48.86704634875059" lon="9.258681256324053">
<ele>225.4</ele>
<time>2024-05-12T11:16:50Z</time>
</trkpt>
<trkpt lat="48.86707300320268" lon="9.258720315992832">
<ele>225.6</ele>
<time>2024-05-12T11:16:51Z</time>
</trkpt>
<trkpt lat="48.867095885798335" lon="9.258756609633563">
<ele>225.6</ele>
<time>2024-05-12T11:16:52Z</time>
</trkpt>
<trkpt lat="48.867114996537566" lon="9.258789969608188">
<ele>225.6</ele>
<time>2024-05-12T11:16:53Z</time>
</trkpt>
<trkpt lat="48.86714165098965" lon="9.25882525742054">
<ele>225.6</ele>
<time>2024-05-12T11:16:54Z</time>
</trkpt>
<trkpt lat="48.86716076172888" lon="9.25886146724224">
<ele>225.6</ele>
<time>2024-05-12T11:16:55Z</time>
</trkpt>
<trkpt lat="48.8671875" lon="9.2589015327394">
<ele>225.4</ele>
<time>2024-05-12T11:16:56Z</time>
</trkpt>
<trkpt lat="48.86721038259566" lon="9.258939670398831">
<ele>225.2</ele>
<time>2024-05-12T11:16:57Z</time>
</trkpt>
<trkpt lat="48.867237037047744" lon="9.258970180526376">
<ele>225</ele>
<time>2024-05-12T11:16:58Z</time>
</trkpt>
<trkpt lat="48.86726754717529" lon="9.258990213274956">
<ele>224.4</ele>
<time>2024-05-12T11:16:59Z</time>
</trkpt>
<trkpt lat="48.86730191297829" lon="9.25900362432003">
<ele>224</ele>
<time>2024-05-12T11:17:00Z</time>
</trkpt>
<trkpt lat="48.86734005063772" lon="9.259019801393151">
<ele>223.6</ele>
<time>2024-05-12T11:17:01Z</time>
</trkpt>
<trkpt lat="48.86736678890884" lon="9.259050311520696">
<ele>223.2</ele>
<time>2024-05-12T11:17:02Z</time>
</trkpt>
<trkpt lat="48.867393443360925" lon="9.259083671495318">
<ele>223</ele>
<time>2024-05-12T11:17:03Z</time>
</trkpt>
<trkpt lat="48.86742395348847" lon="9.259119965136051">
<ele>222.8</ele>
<time>2024-05-12T11:17:04Z</time>
</trkpt>
<trkpt lat="48.867450691759586" lon="9.259155252948403">
<ele>222.6</ele>
<time>2024-05-12T11:17:05Z</time>
</trkpt>
<trkpt lat="48.86748120188713" lon="9.259191462770104">
<ele>222.4</ele>
<time>2024-05-12T11:17:06Z</time>
</trkpt>
<trkpt lat="48.867511712014675" lon="9.259228678420186">
<ele>222.4</ele>
<time>2024-05-12T11:17:07Z</time>
</trkpt>
<trkpt lat="48.86754607781768" lon="9.259268743917346">
<ele>222.2</ele>
<time>2024-05-12T11:17:08Z</time>
</trkpt>
<trkpt lat="48.86757658794522" lon="9.259304953739049">
<ele>222.2</ele>
<time>2024-05-12T11:17:09Z</time>
</trkpt>
<trkpt lat="48.867610869929194" lon="9.259341163560748">
<ele>222.2</ele>
<time>2024-05-12T11:17:10Z</time>
</trkpt>
<trkpt lat="48.86764138005674" lon="9.259381229057908">
<ele>222.2</ele>
<time>2024-05-12T11:17:11Z</time>
</trkpt>
<trkpt lat="48.86767189018428" lon="9.259423222392796">
<ele>222.2</ele>
<time>2024-05-12T11:17:12Z</time>
</trkpt>
<trkpt lat="48.86770248413086" lon="9.259465215727689">
<ele>222.2</ele>
<time>2024-05-12T11:17:13Z</time>
</trkpt>
<trkpt lat="48.86773676611483" lon="9.259509975090625">
<ele>222.2</ele>
<time>2024-05-12T11:17:14Z</time>
</trkpt>
<trkpt lat="48.867767276242375" lon="9.25955481827259">
<ele>222.2</ele>
<time>2024-05-12T11:17:15Z</time>
</trkpt>
<trkpt lat="48.86780164204538" lon="9.25959681160748">
<ele>222</ele>
<time>2024-05-12T11:17:16Z</time>
</trkpt>
<trkpt lat="48.86783215217292" lon="9.259639726951718">
<ele>221.8</ele>
<time>2024-05-12T11:17:17Z</time>
</trkpt>
<trkpt lat="48.867866434156895" lon="9.259683564305304">
<ele>221.8</ele>
<time>2024-05-12T11:17:18Z</time>
</trkpt>
<trkpt lat="48.8679007999599" lon="9.259731257334352">
<ele>221.8</ele>
<time>2024-05-12T11:17:19Z</time>
</trkpt>
<trkpt lat="48.8679351657629" lon="9.259777944535015">
<ele>221.8</ele>
<time>2024-05-12T11:17:20Z</time>
</trkpt>
<trkpt lat="48.86797330342233" lon="9.25982848741114">
<ele>222</ele>
<time>2024-05-12T11:17:21Z</time>
</trkpt>
<trkpt lat="48.86800381354987" lon="9.259880036115646">
<ele>222</ele>
<time>2024-05-12T11:17:22Z</time>
</trkpt>
<trkpt lat="48.86804195120931" lon="9.259929656982422">
<ele>222.2</ele>
<time>2024-05-12T11:17:23Z</time>
</trkpt>
<trkpt lat="48.86807631701231" lon="9.259976344183087">
<ele>222.2</ele>
<time>2024-05-12T11:17:24Z</time>
</trkpt>
<trkpt lat="48.868106827139854" lon="9.260023115202785">
<ele>222.4</ele>
<time>2024-05-12T11:17:25Z</time>
</trkpt>
<trkpt lat="48.868141109123826" lon="9.26006980240345">
<ele>222.4</ele>
<time>2024-05-12T11:17:26Z</time>
</trkpt>
<trkpt lat="48.86817547492683" lon="9.260120345279574">
<ele>222.4</ele>
<time>2024-05-12T11:17:27Z</time>
</trkpt>
<trkpt lat="48.8682097569108" lon="9.260165188461542">
<ele>222.6</ele>
<time>2024-05-12T11:17:28Z</time>
</trkpt>
<trkpt lat="48.86824412271381" lon="9.26021003164351">
<ele>222.6</ele>
<time>2024-05-12T11:17:29Z</time>
</trkpt>
<trkpt lat="48.86827848851681" lon="9.260256718844175">
<ele>222.8</ele>
<time>2024-05-12T11:17:30Z</time>
</trkpt>
<trkpt lat="48.86831662617624" lon="9.260303489863873">
<ele>222.8</ele>
<time>2024-05-12T11:17:31Z</time>
</trkpt>
<trkpt lat="48.86835090816021" lon="9.260350177064538">
<ele>222.8</ele>
<time>2024-05-12T11:17:32Z</time>
</trkpt>
<trkpt lat="48.86838527396321" lon="9.260401725769045">
<ele>223</ele>
<time>2024-05-12T11:17:33Z</time>
</trkpt>
<trkpt lat="48.868419639766216" lon="9.260451262816789">
<ele>223</ele>
<time>2024-05-12T11:17:34Z</time>
</trkpt>
<trkpt lat="48.86845014989376" lon="9.260501805692911">
<ele>223.2</ele>
<time>2024-05-12T11:17:35Z</time>
</trkpt>
<trkpt lat="48.86848443187773" lon="9.260555198416114">
<ele>223.4</ele>
<time>2024-05-12T11:17:36Z</time>
</trkpt>
<trkpt lat="48.86851494200528" lon="9.260609596967695">
<ele>223.4</ele>
<time>2024-05-12T11:17:37Z</time>
</trkpt>
<trkpt lat="48.868541680276394" lon="9.2606629896909">
<ele>223.6</ele>
<time>2024-05-12T11:17:38Z</time>
</trkpt>
<trkpt lat="48.86857219040394" lon="9.260715460404754">
<ele>223.6</ele>
<time>2024-05-12T11:17:39Z</time>
</trkpt>
<trkpt lat="48.86860270053148" lon="9.260769775137303">
<ele>223.6</ele>
<time>2024-05-12T11:17:40Z</time>
</trkpt>
<trkpt lat="48.86862558312714" lon="9.260827023535969">
<ele>223.6</ele>
<time>2024-05-12T11:17:41Z</time>
</trkpt>
<trkpt lat="48.86865232139826" lon="9.260887121781709">
<ele>223.6</ele>
<time>2024-05-12T11:17:42Z</time>
</trkpt>
<trkpt lat="48.86867520399392" lon="9.260945292189716">
<ele>223.6</ele>
<time>2024-05-12T11:17:43Z</time>
</trkpt>
<trkpt lat="48.868698086589575" lon="9.261006312444806">
<ele>223.8</ele>
<time>2024-05-12T11:17:44Z</time>
</trkpt>
<trkpt lat="48.86872096918523" lon="9.261068338528275">
<ele>223.8</ele>
<time>2024-05-12T11:17:45Z</time>
</trkpt>
<trkpt lat="48.86874385178089" lon="9.261131286621094">
<ele>223.8</ele>
<time>2024-05-12T11:17:46Z</time>
</trkpt>
<trkpt lat="48.86876673437655" lon="9.261193228885531">
<ele>223.8</ele>
<time>2024-05-12T11:17:47Z</time>
</trkpt>
<trkpt lat="48.86879347264767" lon="9.261255254969">
<ele>223.8</ele>
<time>2024-05-12T11:17:48Z</time>
</trkpt>
<trkpt lat="48.868816355243325" lon="9.261315269395707">
<ele>224</ele>
<time>2024-05-12T11:17:49Z</time>
</trkpt>
<trkpt lat="48.868835382163525" lon="9.261375367641447">
<ele>224</ele>
<time>2024-05-12T11:17:50Z</time>
</trkpt>
<trkpt lat="48.86885826475918" lon="9.26143353804946">
<ele>224</ele>
<time>2024-05-12T11:17:51Z</time>
</trkpt>
<trkpt lat="48.868877375498414" lon="9.261487936601045">
<ele>224.2</ele>
<time>2024-05-12T11:17:52Z</time>
</trkpt>
<trkpt lat="48.86890025809407" lon="9.261547029018402">
<ele>224.2</ele>
<time>2024-05-12T11:17:53Z</time>
</trkpt>
<trkpt lat="48.86892314068973" lon="9.261605199426413">
<ele>224.4</ele>
<time>2024-05-12T11:17:54Z</time>
</trkpt>
<trkpt lat="48.86894602328539" lon="9.261665297672153">
<ele>224.4</ele>
<time>2024-05-12T11:17:55Z</time>
</trkpt>
<trkpt lat="48.86896890588105" lon="9.26172631792724">
<ele>224.6</ele>
<time>2024-05-12T11:17:56Z</time>
</trkpt>
<trkpt lat="48.868991788476706" lon="9.26178641617298">
<ele>224.6</ele>
<time>2024-05-12T11:17:57Z</time>
</trkpt>
<trkpt lat="48.86901467107237" lon="9.26184844225645">
<ele>224.8</ele>
<time>2024-05-12T11:17:58Z</time>
</trkpt>
<trkpt lat="48.86903755366802" lon="9.261915162205696">
<ele>224.8</ele>
<time>2024-05-12T11:17:59Z</time>
</trkpt>
<trkpt lat="48.86905666440725" lon="9.261980038136244">
<ele>224.8</ele>
<time>2024-05-12T11:18:00Z</time>
</trkpt>
<trkpt lat="48.86908340267837" lon="9.262042986229062">
<ele>224.8</ele>
<time>2024-05-12T11:18:01Z</time>
</trkpt>
<trkpt lat="48.86910628527403" lon="9.26210685633123">
<ele>224.8</ele>
<time>2024-05-12T11:18:02Z</time>
</trkpt>
<trkpt lat="48.86912531219423" lon="9.262169804424047">
<ele>224.6</ele>
<time>2024-05-12T11:18:03Z</time>
</trkpt>
<trkpt lat="48.86914819478989" lon="9.262229902669787">
<ele>224.6</ele>
<time>2024-05-12T11:18:04Z</time>
</trkpt>
<trkpt lat="48.86917493306101" lon="9.262292850762606">
<ele>224.6</ele>
<time>2024-05-12T11:18:05Z</time>
</trkpt>
<trkpt lat="48.86919781565666" lon="9.262354793027043">
<ele>224.4</ele>
<time>2024-05-12T11:18:06Z</time>
</trkpt>
<trkpt lat="48.86922447010875" lon="9.262418746948242">
<ele>224.4</ele>
<time>2024-05-12T11:18:07Z</time>
</trkpt>
<trkpt lat="48.86924358084798" lon="9.262479767203333">
<ele>224.4</ele>
<time>2024-05-12T11:18:08Z</time>
</trkpt>
<trkpt lat="48.86926646344364" lon="9.262543637305498">
<ele>224.2</ele>
<time>2024-05-12T11:18:09Z</time>
</trkpt>
<trkpt lat="48.869289346039295" lon="9.262608513236046">
<ele>224.2</ele>
<time>2024-05-12T11:18:10Z</time>
</trkpt>
<trkpt lat="48.86931222863495" lon="9.262675233185291">
<ele>224.2</ele>
<time>2024-05-12T11:18:11Z</time>
</trkpt>
<trkpt lat="48.86933896690607" lon="9.262744886800649">
<ele>224.4</ele>
<time>2024-05-12T11:18:12Z</time>
</trkpt>
<trkpt lat="48.86936184950173" lon="9.262815462425351">
<ele>224.4</ele>
<time>2024-05-12T11:18:13Z</time>
</trkpt>
<trkpt lat="48.86938473209739" lon="9.262885032221677">
<ele>224.4</ele>
<time>2024-05-12T11:18:14Z</time>
</trkpt>
<trkpt lat="48.86941138654947" lon="9.262951835989952">
<ele>224.6</ele>
<time>2024-05-12T11:18:15Z</time>
</trkpt>
<trkpt lat="48.86943812482059" lon="9.26301285624504">
<ele>224.4</ele>
<time>2024-05-12T11:18:16Z</time>
</trkpt>
<trkpt lat="48.86946100741625" lon="9.26307479850948">
<ele>224.4</ele>
<time>2024-05-12T11:18:17Z</time>
</trkpt>
<trkpt lat="48.86948389001191" lon="9.263138752430676">
<ele>224.4</ele>
<time>2024-05-12T11:18:18Z</time>
</trkpt>
<trkpt lat="48.86950300075114" lon="9.263203544542192">
<ele>224.4</ele>
<time>2024-05-12T11:18:19Z</time>
</trkpt>
<trkpt lat="48.8695258833468" lon="9.26327127031982">
<ele>224.4</ele>
<time>2024-05-12T11:18:20Z</time>
</trkpt>
<trkpt lat="48.86955253779888" lon="9.263338074088097">
<ele>224.2</ele>
<time>2024-05-12T11:18:21Z</time>
</trkpt>
<trkpt lat="48.86957927607" lon="9.263404794037342">
<ele>224.2</ele>
<time>2024-05-12T11:18:22Z</time>
</trkpt>
<trkpt lat="48.86960215866566" lon="9.26346966996789">
<ele>224.2</ele>
<time>2024-05-12T11:18:23Z</time>
</trkpt>
<trkpt lat="48.869628896936774" lon="9.263538317754865">
<ele>224.2</ele>
<time>2024-05-12T11:18:24Z</time>
</trkpt>
<trkpt lat="48.86965555138886" lon="9.26360503770411">
<ele>224.2</ele>
<time>2024-05-12T11:18:25Z</time>
</trkpt>
<trkpt lat="48.86968228965998" lon="9.263671841472387">
<ele>224</ele>
<time>2024-05-12T11:18:26Z</time>
</trkpt>
<trkpt lat="48.86971279978752" lon="9.263739567250012">
<ele>224</ele>
<time>2024-05-12T11:18:27Z</time>
</trkpt>
<trkpt lat="48.86973945423961" lon="9.263810142874718">
<ele>224</ele>
<time>2024-05-12T11:18:28Z</time>
</trkpt>
<trkpt lat="48.86977004818618" lon="9.26387971267104">
<ele>224</ele>
<time>2024-05-12T11:18:29Z</time>
</trkpt>
<trkpt lat="48.86979670263827" lon="9.263951294124126">
<ele>224</ele>
<time>2024-05-12T11:18:30Z</time>
</trkpt>
<trkpt lat="48.86982721276581" lon="9.26402186974883">
<ele>224</ele>
<time>2024-05-12T11:18:31Z</time>
</trkpt>
<trkpt lat="48.86985772289336" lon="9.264086661860349">
<ele>224</ele>
<time>2024-05-12T11:18:32Z</time>
</trkpt>
<trkpt lat="48.86989208869636" lon="9.264151537790896">
<ele>224</ele>
<time>2024-05-12T11:18:33Z</time>
</trkpt>
<trkpt lat="48.86992637068033" lon="9.264216413721442">
<ele>223.8</ele>
<time>2024-05-12T11:18:34Z</time>
</trkpt>
<trkpt lat="48.869960736483335" lon="9.264283133670688">
<ele>223.8</ele>
<time>2024-05-12T11:18:35Z</time>
</trkpt>
<trkpt lat="48.86999510228634" lon="9.264347003772857">
<ele>223.8</ele>
<time>2024-05-12T11:18:36Z</time>
</trkpt>
<trkpt lat="48.87002938427031" lon="9.264406180009246">
<ele>223.8</ele>
<time>2024-05-12T11:18:37Z</time>
</trkpt>
<trkpt lat="48.870063750073314" lon="9.264465272426603">
<ele>224</ele>
<time>2024-05-12T11:18:38Z</time>
</trkpt>
<trkpt lat="48.870101887732744" lon="9.264519670978189">
<ele>224.2</ele>
<time>2024-05-12T11:18:39Z</time>
</trkpt>
<trkpt lat="48.87013239786029" lon="9.264576835557818">
<ele>224.2</ele>
<time>2024-05-12T11:18:40Z</time>
</trkpt>
<trkpt lat="48.87016676366329" lon="9.264631234109402">
<ele>224.4</ele>
<time>2024-05-12T11:18:41Z</time>
</trkpt>
<trkpt lat="48.87020490132272" lon="9.26469032652676">
<ele>224.4</ele>
<time>2024-05-12T11:18:42Z</time>
</trkpt>
<trkpt lat="48.87024681083858" lon="9.264749502763152">
<ele>224.4</ele>
<time>2024-05-12T11:18:43Z</time>
</trkpt>
<trkpt lat="48.87028503231704" lon="9.264806667342782">
<ele>224.4</ele>
<time>2024-05-12T11:18:44Z</time>
</trkpt>
<trkpt lat="48.8703269418329" lon="9.264861987903714">
<ele>224.4</ele>
<time>2024-05-12T11:18:45Z</time>
</trkpt>
<trkpt lat="48.87036893516779" lon="9.26491353660822">
<ele>224.4</ele>
<time>2024-05-12T11:18:46Z</time>
</trkpt>
<trkpt lat="48.87041084468365" lon="9.264966929331422">
<ele>224.2</ele>
<time>2024-05-12T11:18:47Z</time>
</trkpt>
<trkpt lat="48.87045283801854" lon="9.265018394216897">
<ele>224.2</ele>
<time>2024-05-12T11:18:48Z</time>
</trkpt>
<trkpt lat="48.87049097567797" lon="9.265063237398865">
<ele>224.4</ele>
<time>2024-05-12T11:18:49Z</time>
</trkpt>
<trkpt lat="48.8705291133374" lon="9.265111852437258">
<ele>224.4</ele>
<time>2024-05-12T11:18:50Z</time>
</trkpt>
<trkpt lat="48.8705634791404" lon="9.265158623456957">
<ele>224.4</ele>
<time>2024-05-12T11:18:51Z</time>
</trkpt>
<trkpt lat="48.87060538865626" lon="9.26520531065762">
<ele>224.4</ele>
<time>2024-05-12T11:18:52Z</time>
</trkpt>
<trkpt lat="48.87063975445926" lon="9.265250153839588">
<ele>224.2</ele>
<time>2024-05-12T11:18:53Z</time>
</trkpt>
<trkpt lat="48.870674120262265" lon="9.265293069183826">
<ele>224.2</ele>
<time>2024-05-12T11:18:54Z</time>
</trkpt>
<trkpt lat="48.870712257921696" lon="9.265337912365794">
<ele>224.4</ele>
<time>2024-05-12T11:18:55Z</time>
</trkpt>
<trkpt lat="48.870750395581126" lon="9.26538367755711">
<ele>224.4</ele>
<time>2024-05-12T11:18:56Z</time>
</trkpt>
<trkpt lat="48.870792388916016" lon="9.265426592901347">
<ele>224.4</ele>
<time>2024-05-12T11:18:57Z</time>
</trkpt>
<trkpt lat="48.87083815410733" lon="9.265471436083317">
<ele>224.6</ele>
<time>2024-05-12T11:18:58Z</time>
</trkpt>
<trkpt lat="48.87088391929865" lon="9.265515273436904">
<ele>224.6</ele>
<time>2024-05-12T11:18:59Z</time>
</trkpt>
<trkpt lat="48.87092582881451" lon="9.265558188781142">
<ele>224.6</ele>
<time>2024-05-12T11:19:00Z</time>
</trkpt>
<trkpt lat="48.870971677824855" lon="9.265598254278302">
<ele>224.4</ele>
<time>2024-05-12T11:19:01Z</time>
</trkpt>
<trkpt lat="48.87101744301617" lon="9.265638319775462">
<ele>224.4</ele>
<time>2024-05-12T11:19:02Z</time>
</trkpt>
<trkpt lat="48.87106320820749" lon="9.265680313110352">
<ele>224.4</ele>
<time>2024-05-12T11:19:03Z</time>
</trkpt>
<trkpt lat="48.87111274525523" lon="9.26572130061686">
<ele>224.4</ele>
<time>2024-05-12T11:19:04Z</time>
</trkpt>
<trkpt lat="48.871166221797466" lon="9.265765137970448">
<ele>224.4</ele>
<time>2024-05-12T11:19:05Z</time>
</trkpt>
<trkpt lat="48.87121198698878" lon="9.265809981152415">
<ele>224.2</ele>
<time>2024-05-12T11:19:06Z</time>
</trkpt>
<trkpt lat="48.8712577521801" lon="9.265852896496654">
<ele>224.2</ele>
<time>2024-05-12T11:19:07Z</time>
</trkpt>
<trkpt lat="48.87129966169596" lon="9.26589673385024">
<ele>224.4</ele>
<time>2024-05-12T11:19:08Z</time>
</trkpt>
<trkpt lat="48.87134165503085" lon="9.265941577032208">
<ele>224.4</ele>
<time>2024-05-12T11:19:09Z</time>
</trkpt>
<trkpt lat="48.871383648365736" lon="9.265983570367098">
<ele>224.4</ele>
<time>2024-05-12T11:19:10Z</time>
</trkpt>
<trkpt lat="48.87142178602517" lon="9.266028329730034">
<ele>224.4</ele>
<time>2024-05-12T11:19:11Z</time>
</trkpt>
<trkpt lat="48.8714599236846" lon="9.266073172912002">
<ele>224.4</ele>
<time>2024-05-12T11:19:12Z</time>
</trkpt>
<trkpt lat="48.87149806134403" lon="9.2661199439317">
<ele>224.4</ele>
<time>2024-05-12T11:19:13Z</time>
</trkpt>
<trkpt lat="48.87154005467892" lon="9.266166631132364">
<ele>224.2</ele>
<time>2024-05-12T11:19:14Z</time>
</trkpt>
<trkpt lat="48.87157819233835" lon="9.266211474314332">
<ele>224.2</ele>
<time>2024-05-12T11:19:15Z</time>
</trkpt>
<trkpt lat="48.871623957529664" lon="9.266260089352729">
<ele>224.2</ele>
<time>2024-05-12T11:19:16Z</time>
</trkpt>
<trkpt lat="48.87166972272098" lon="9.26631540991366">
<ele>224</ele>
<time>2024-05-12T11:19:17Z</time>
</trkpt>
<trkpt lat="48.87170786038041" lon="9.266366958618164">
<ele>224</ele>
<time>2024-05-12T11:19:18Z</time>
</trkpt>
<trkpt lat="48.8717498537153" lon="9.266421273350716">
<ele>224</ele>
<time>2024-05-12T11:19:19Z</time>
</trkpt>
<trkpt lat="48.87178799137473" lon="9.26647374406457">
<ele>224</ele>
<time>2024-05-12T11:19:20Z</time>
</trkpt>
<trkpt lat="48.87182998470962" lon="9.266521437093616">
<ele>224</ele>
<time>2024-05-12T11:19:21Z</time>
</trkpt>
<trkpt lat="48.87186812236905" lon="9.26657197996974">
<ele>224</ele>
<time>2024-05-12T11:19:22Z</time>
</trkpt>
<trkpt lat="48.87191003188491" lon="9.266625372692944">
<ele>224</ele>
<time>2024-05-12T11:19:23Z</time>
</trkpt>
<trkpt lat="48.87194816954434" lon="9.266677843406796">
<ele>224</ele>
<time>2024-05-12T11:19:24Z</time>
</trkpt>
<trkpt lat="48.87199016287923" lon="9.266735007986426">
<ele>224</ele>
<time>2024-05-12T11:19:25Z</time>
</trkpt>
<trkpt lat="48.87202452868223" lon="9.26679032854736">
<ele>224</ele>
<time>2024-05-12T11:19:26Z</time>
</trkpt>
<trkpt lat="48.8720588106662" lon="9.266846654936671">
<ele>224</ele>
<time>2024-05-12T11:19:27Z</time>
</trkpt>
<trkpt lat="48.87209317646921" lon="9.266902897506952">
<ele>224.2</ele>
<time>2024-05-12T11:19:28Z</time>
</trkpt>
<trkpt lat="48.87212745845318" lon="9.266958218067884">
<ele>224.2</ele>
<time>2024-05-12T11:19:29Z</time>
</trkpt>
<trkpt lat="48.87216182425618" lon="9.267016388475897">
<ele>224.2</ele>
<time>2024-05-12T11:19:30Z</time>
</trkpt>
<trkpt lat="48.872196190059185" lon="9.267074558883904">
<ele>224.2</ele>
<time>2024-05-12T11:19:31Z</time>
</trkpt>
<trkpt lat="48.87223047204316" lon="9.267131723463535">
<ele>224.2</ele>
<time>2024-05-12T11:19:32Z</time>
</trkpt>
<trkpt lat="48.87226483784616" lon="9.267189977690578">
<ele>224.2</ele>
<time>2024-05-12T11:19:33Z</time>
</trkpt>
<trkpt lat="48.87229911983013" lon="9.267252841964364">
<ele>224.2</ele>
<time>2024-05-12T11:19:34Z</time>
</trkpt>
<trkpt lat="48.872333485633135" lon="9.267316795885565">
<ele>224.2</ele>
<time>2024-05-12T11:19:35Z</time>
</trkpt>
<trkpt lat="48.87236399576068" lon="9.26737974397838">
<ele>224.2</ele>
<time>2024-05-12T11:19:36Z</time>
</trkpt>
<trkpt lat="48.872394505888224" lon="9.26744168624282">
<ele>224.2</ele>
<time>2024-05-12T11:19:37Z</time>
</trkpt>
<trkpt lat="48.87242501601577" lon="9.267506562173368">
<ele>224.2</ele>
<time>2024-05-12T11:19:38Z</time>
</trkpt>
<trkpt lat="48.87245552614331" lon="9.267566660419106">
<ele>224.2</ele>
<time>2024-05-12T11:19:39Z</time>
</trkpt>
<trkpt lat="48.87248226441443" lon="9.267624830827115">
<ele>224.2</ele>
<time>2024-05-12T11:19:40Z</time>
</trkpt>
<trkpt lat="48.87250900268555" lon="9.267686773091556">
<ele>224.2</ele>
<time>2024-05-12T11:19:41Z</time>
</trkpt>
<trkpt lat="48.87253951281309" lon="9.267751649022102">
<ele>224.2</ele>
<time>2024-05-12T11:19:42Z</time>
</trkpt>
<trkpt lat="48.87257002294064" lon="9.267818368971348">
<ele>224.2</ele>
<time>2024-05-12T11:19:43Z</time>
</trkpt>
<trkpt lat="48.87259667739272" lon="9.267885172739623">
<ele>224.2</ele>
<time>2024-05-12T11:19:44Z</time>
</trkpt>
<trkpt lat="48.87262341566384" lon="9.267952898517253">
<ele>224.2</ele>
<time>2024-05-12T11:19:45Z</time>
</trkpt>
<trkpt lat="48.87265392579138" lon="9.268023474141955">
<ele>224.2</ele>
<time>2024-05-12T11:19:46Z</time>
</trkpt>
<trkpt lat="48.8726806640625" lon="9.26809119991958">
<ele>224.2</ele>
<time>2024-05-12T11:19:47Z</time>
</trkpt>
<trkpt lat="48.872707318514585" lon="9.268157919868829">
<ele>224.2</ele>
<time>2024-05-12T11:19:48Z</time>
</trkpt>
<trkpt lat="48.87273020111024" lon="9.268228495493531">
<ele>224.2</ele>
<time>2024-05-12T11:19:49Z</time>
</trkpt>
<trkpt lat="48.8727530837059" lon="9.268298149108888">
<ele>224.2</ele>
<time>2024-05-12T11:19:50Z</time>
</trkpt>
<trkpt lat="48.87277982197702" lon="9.26836864091456">
<ele>224.2</ele>
<time>2024-05-12T11:19:51Z</time>
</trkpt>
<trkpt lat="48.872806476429105" lon="9.268436366692184">
<ele>224.2</ele>
<time>2024-05-12T11:19:52Z</time>
</trkpt>
<trkpt lat="48.87283321470022" lon="9.26850694231689">
<ele>224</ele>
<time>2024-05-12T11:19:53Z</time>
</trkpt>
<trkpt lat="48.87285995297134" lon="9.268574668094516">
<ele>224</ele>
<time>2024-05-12T11:19:54Z</time>
</trkpt>
<trkpt lat="48.872886607423425" lon="9.26864524371922">
<ele>224</ele>
<time>2024-05-12T11:19:55Z</time>
</trkpt>
<trkpt lat="48.87290949001908" lon="9.268714897334576">
<ele>223.8</ele>
<time>2024-05-12T11:19:56Z</time>
</trkpt>
<trkpt lat="48.87293237261474" lon="9.26878547295928">
<ele>223.8</ele>
<time>2024-05-12T11:19:57Z</time>
</trkpt>
<trkpt lat="48.87295911088586" lon="9.268856970593331">
<ele>223.6</ele>
<time>2024-05-12T11:19:58Z</time>
</trkpt>
<trkpt lat="48.87297813780606" lon="9.268926540389655">
<ele>223.6</ele>
<time>2024-05-12T11:19:59Z</time>
</trkpt>
<trkpt lat="48.87300102040171" lon="9.268995271995664">
<ele>223.4</ele>
<time>2024-05-12T11:20:00Z</time>
</trkpt>
<trkpt lat="48.87302013114095" lon="9.269061991944907">
<ele>223.4</ele>
<time>2024-05-12T11:20:01Z</time>
</trkpt>
<trkpt lat="48.87303924188018" lon="9.269129717722535">
<ele>223.4</ele>
<time>2024-05-12T11:20:02Z</time>
</trkpt>
<trkpt lat="48.87305826880038" lon="9.26919836550951">
<ele>223.4</ele>
<time>2024-05-12T11:20:03Z</time>
</trkpt>
<trkpt lat="48.87307352386415" lon="9.269265169277787">
<ele>223.4</ele>
<time>2024-05-12T11:20:04Z</time>
</trkpt>
<trkpt lat="48.87308877892792" lon="9.269331889227033">
<ele>223.4</ele>
<time>2024-05-12T11:20:05Z</time>
</trkpt>
<trkpt lat="48.87310788966715" lon="9.26939676515758">
<ele>223.2</ele>
<time>2024-05-12T11:20:06Z</time>
</trkpt>
<trkpt lat="48.873123144730926" lon="9.2694597132504">
<ele>223.2</ele>
<time>2024-05-12T11:20:07Z</time>
</trkpt>
<trkpt lat="48.873142171651125" lon="9.269524505361916">
<ele>223.2</ele>
<time>2024-05-12T11:20:08Z</time>
</trkpt>
<trkpt lat="48.87316128239035" lon="9.269590303301811">
<ele>223.2</ele>
<time>2024-05-12T11:20:09Z</time>
</trkpt>
<trkpt lat="48.87317653745413" lon="9.26965517923236">
<ele>223</ele>
<time>2024-05-12T11:20:10Z</time>
</trkpt>
<trkpt lat="48.8731917925179" lon="9.269718127325175">
<ele>223</ele>
<time>2024-05-12T11:20:11Z</time>
</trkpt>
<trkpt lat="48.87321090325713" lon="9.269781997427344">
<ele>223</ele>
<time>2024-05-12T11:20:12Z</time>
</trkpt>
<trkpt lat="48.873226158320904" lon="9.269844945520164">
<ele>223</ele>
<time>2024-05-12T11:20:13Z</time>
</trkpt>
<trkpt lat="48.87323378585279" lon="9.26991174928844">
<ele>223.2</ele>
<time>2024-05-12T11:20:14Z</time>
</trkpt>
<trkpt lat="48.8732451852411" lon="9.269978469237683">
<ele>223.2</ele>
<time>2024-05-12T11:20:15Z</time>
</trkpt>
<trkpt lat="48.87325666844845" lon="9.270045273005962">
<ele>223.2</ele>
<time>2024-05-12T11:20:16Z</time>
</trkpt>
<trkpt lat="48.87326806783676" lon="9.270110065117478">
<ele>223.4</ele>
<time>2024-05-12T11:20:17Z</time>
</trkpt>
<trkpt lat="48.87327955104411" lon="9.270173013210297">
<ele>223.4</ele>
<time>2024-05-12T11:20:18Z</time>
</trkpt>
<trkpt lat="48.87329480610788" lon="9.270237889140844">
<ele>223.6</ele>
<time>2024-05-12T11:20:19Z</time>
</trkpt>
<trkpt lat="48.873302433639765" lon="9.270301759243011">
<ele>223.6</ele>
<time>2024-05-12T11:20:20Z</time>
</trkpt>
<trkpt lat="48.87331768870354" lon="9.27036470733583">
<ele>223.6</ele>
<time>2024-05-12T11:20:21Z</time>
</trkpt>
<trkpt lat="48.87332908809185" lon="9.270428577437997">
<ele>223.8</ele>
<time>2024-05-12T11:20:22Z</time>
</trkpt>
<trkpt lat="48.873340571299195" lon="9.270488675683737">
<ele>223.8</ele>
<time>2024-05-12T11:20:23Z</time>
</trkpt>
<trkpt lat="48.87335197068751" lon="9.270546846091747">
<ele>223.8</ele>
<time>2024-05-12T11:20:24Z</time>
</trkpt>
<trkpt lat="48.873363453894854" lon="9.270605016499758">
<ele>223.8</ele>
<time>2024-05-12T11:20:25Z</time>
</trkpt>
<trkpt lat="48.8733749371022" lon="9.270663186907768">
<ele>224</ele>
<time>2024-05-12T11:20:26Z</time>
</trkpt>
<trkpt lat="48.87338633649051" lon="9.27071951329708">
<ele>224</ele>
<time>2024-05-12T11:20:27Z</time>
</trkpt>
<trkpt lat="48.87340159155429" lon="9.270774833858011">
<ele>224</ele>
<time>2024-05-12T11:20:28Z</time>
</trkpt>
<trkpt lat="48.87341307476163" lon="9.270830154418944">
<ele>224</ele>
<time>2024-05-12T11:20:29Z</time>
</trkpt>
<trkpt lat="48.873420702293515" lon="9.270885391160846">
<ele>224</ele>
<time>2024-05-12T11:20:30Z</time>
</trkpt>
<trkpt lat="48.87343210168183" lon="9.27094171755016">
<ele>224</ele>
<time>2024-05-12T11:20:31Z</time>
</trkpt>
<trkpt lat="48.87344358488917" lon="9.27099511027336">
<ele>224</ele>
<time>2024-05-12T11:20:32Z</time>
</trkpt>
<trkpt lat="48.87345121242106" lon="9.271050430834292">
<ele>224</ele>
<time>2024-05-12T11:20:33Z</time>
</trkpt>
<trkpt lat="48.87346261180937" lon="9.271106673404574">
<ele>224</ele>
<time>2024-05-12T11:20:34Z</time>
</trkpt>
<trkpt lat="48.87347023934126" lon="9.271160066127775">
<ele>224</ele>
<time>2024-05-12T11:20:35Z</time>
</trkpt>
<trkpt lat="48.87348172254861" lon="9.27121538668871">
<ele>224</ele>
<time>2024-05-12T11:20:36Z</time>
</trkpt>
<trkpt lat="48.87349312193692" lon="9.271269785240293">
<ele>224</ele>
<time>2024-05-12T11:20:37Z</time>
</trkpt>
<trkpt lat="48.87350460514426" lon="9.271321250125766">
<ele>224</ele>
<time>2024-05-12T11:20:38Z</time>
</trkpt>
<trkpt lat="48.873516004532576" lon="9.271365087479351">
<ele>224</ele>
<time>2024-05-12T11:20:39Z</time>
</trkpt>
<trkpt lat="48.87352748773992" lon="9.271400375291703">
<ele>224</ele>
<time>2024-05-12T11:20:40Z</time>
</trkpt>
<trkpt lat="48.873538970947266" lon="9.271425185725093">
<ele>224</ele>
<time>2024-05-12T11:20:41Z</time>
</trkpt>
<trkpt lat="48.87355037033558" lon="9.27145192399621">
<ele>224</ele>
<time>2024-05-12T11:20:42Z</time>
</trkpt>
<trkpt lat="48.87356185354293" lon="9.271476734429598">
<ele>224</ele>
<time>2024-05-12T11:20:43Z</time>
</trkpt>
<trkpt lat="48.87356948107481" lon="9.271499617025256">
<ele>224</ele>
<time>2024-05-12T11:20:44Z</time>
</trkpt>
<trkpt lat="48.87358088046312" lon="9.271523421630263">
<ele>223.8</ele>
<time>2024-05-12T11:20:45Z</time>
</trkpt>
<trkpt lat="48.873596135526896" lon="9.271558709442616">
<ele>223.8</ele>
<time>2024-05-12T11:20:46Z</time>
</trkpt>
<trkpt lat="48.87360761873424" lon="9.271604474633932">
<ele>223.6</ele>
<time>2024-05-12T11:20:47Z</time>
</trkpt>
<trkpt lat="48.87362287379801" lon="9.271661723032594">
<ele>223.4</ele>
<time>2024-05-12T11:20:48Z</time>
</trkpt>
<trkpt lat="48.873634273186326" lon="9.271717965602877">
<ele>223.2</ele>
<time>2024-05-12T11:20:49Z</time>
</trkpt>
<trkpt lat="48.8736495282501" lon="9.27178661338985">
<ele>223</ele>
<time>2024-05-12T11:20:50Z</time>
</trkpt>
<trkpt lat="48.87366478331387" lon="9.271853417158129">
<ele>222.8</ele>
<time>2024-05-12T11:20:51Z</time>
</trkpt>
<trkpt lat="48.873676266521215" lon="9.271909659728408">
<ele>222.6</ele>
<time>2024-05-12T11:20:52Z</time>
</trkpt>
<trkpt lat="48.87368766590953" lon="9.271951653063295">
<ele>222.4</ele>
<time>2024-05-12T11:20:53Z</time>
</trkpt>
<trkpt lat="48.8737029209733" lon="9.271993562579157">
<ele>222.2</ele>
<time>2024-05-12T11:20:54Z</time>
</trkpt>
<trkpt lat="48.873718259856105" lon="9.272011751309035">
<ele>222.2</ele>
<time>2024-05-12T11:20:55Z</time>
</trkpt>
<trkpt lat="48.87372965924442" lon="9.272058438509704">
<ele>221.8</ele>
<time>2024-05-12T11:20:56Z</time>
</trkpt>
<trkpt lat="48.87372965924442" lon="9.272111831232904">
<ele>221.6</ele>
<time>2024-05-12T11:20:57Z</time>
</trkpt>
<trkpt lat="48.87372588738799" lon="9.272172851487994">
<ele>221.4</ele>
<time>2024-05-12T11:20:58Z</time>
</trkpt>
<trkpt lat="48.873718259856105" lon="9.272236805409191">
<ele>221.4</ele>
<time>2024-05-12T11:20:59Z</time>
</trkpt>
<trkpt lat="48.873714404180646" lon="9.272294975817204">
<ele>221.4</ele>
<time>2024-05-12T11:21:00Z</time>
</trkpt>
<trkpt lat="48.873718259856105" lon="9.272350296378136">
<ele>221.4</ele>
<time>2024-05-12T11:21:01Z</time>
</trkpt>
<trkpt lat="48.87372965924442" lon="9.27239983342588">
<ele>221.4</ele>
<time>2024-05-12T11:21:02Z</time>
</trkpt>
<trkpt lat="48.87374114245176" lon="9.272443754598498">
<ele>221.6</ele>
<time>2024-05-12T11:21:03Z</time>
</trkpt>
<trkpt lat="48.87374876998365" lon="9.272484742105007">
<ele>221.6</ele>
<time>2024-05-12T11:21:04Z</time>
</trkpt>
<trkpt lat="48.873756397515535" lon="9.272521957755089">
<ele>221.8</ele>
<time>2024-05-12T11:21:05Z</time>
</trkpt>
<trkpt lat="48.87377165257931" lon="9.272555317729712">
<ele>221.8</ele>
<time>2024-05-12T11:21:06Z</time>
</trkpt>
<trkpt lat="48.87378690764308" lon="9.272588677704334">
<ele>222</ele>
<time>2024-05-12T11:21:07Z</time>
</trkpt>
<trkpt lat="48.873794535174966" lon="9.272622037678955">
<ele>222.2</ele>
<time>2024-05-12T11:21:08Z</time>
</trkpt>
<trkpt lat="48.87380979023874" lon="9.272651625797153">
<ele>222.2</ele>
<time>2024-05-12T11:21:09Z</time>
</trkpt>
<trkpt lat="48.873817417770624" lon="9.272680208086967">
<ele>222.4</ele>
<time>2024-05-12T11:21:10Z</time>
</trkpt>
<trkpt lat="48.873817417770624" lon="9.272713651880622">
<ele>222.6</ele>
<time>2024-05-12T11:21:11Z</time>
</trkpt>
<trkpt lat="48.87380979023874" lon="9.27275463938713">
<ele>222.8</ele>
<time>2024-05-12T11:21:12Z</time>
</trkpt>
<trkpt lat="48.87380593456328" lon="9.272787999361752">
<ele>223</ele>
<time>2024-05-12T11:21:13Z</time>
</trkpt>
<trkpt lat="48.87379830703139" lon="9.272816581651568">
<ele>223</ele>
<time>2024-05-12T11:21:14Z</time>
</trkpt>
<trkpt lat="48.87378690764308" lon="9.272839464247228">
<ele>223</ele>
<time>2024-05-12T11:21:15Z</time>
</trkpt>
<trkpt lat="48.873775424435735" lon="9.272863352671266">
<ele>223.2</ele>
<time>2024-05-12T11:21:16Z</time>
</trkpt>
<trkpt lat="48.873756397515535" lon="9.272879529744388">
<ele>223</ele>
<time>2024-05-12T11:21:17Z</time>
</trkpt>
<trkpt lat="48.87374114245176" lon="9.272898640483618">
<ele>223</ele>
<time>2024-05-12T11:21:18Z</time>
</trkpt>
<trkpt lat="48.87372203171253" lon="9.272923450917006">
<ele>223</ele>
<time>2024-05-12T11:21:19Z</time>
</trkpt>
<trkpt lat="48.8737029209733" lon="9.272946333512664">
<ele>223</ele>
<time>2024-05-12T11:21:20Z</time>
</trkpt>
<trkpt lat="48.87368003837764" lon="9.2729720659554">
<ele>223</ele>
<time>2024-05-12T11:21:21Z</time>
</trkpt>
<trkpt lat="48.87366101145744" lon="9.273001654073596">
<ele>223</ele>
<time>2024-05-12T11:21:22Z</time>
</trkpt>
<trkpt lat="48.873638128861785" lon="9.27303308621049">
<ele>223</ele>
<time>2024-05-12T11:21:23Z</time>
</trkpt>
<trkpt lat="48.87361524626613" lon="9.273064602166414">
<ele>223.2</ele>
<time>2024-05-12T11:21:24Z</time>
</trkpt>
<trkpt lat="48.87358850799501" lon="9.27309511229396">
<ele>223.2</ele>
<time>2024-05-12T11:21:25Z</time>
</trkpt>
<trkpt lat="48.87356185354293" lon="9.273138027638195">
<ele>223.2</ele>
<time>2024-05-12T11:21:26Z</time>
</trkpt>
<trkpt lat="48.87353511527181" lon="9.27317331545055">
<ele>223.2</ele>
<time>2024-05-12T11:21:27Z</time>
</trkpt>
<trkpt lat="48.87350837700069" lon="9.2732086032629">
<ele>223.2</ele>
<time>2024-05-12T11:21:28Z</time>
</trkpt>
<trkpt lat="48.87348549440503" lon="9.273242885246871">
<ele>223.2</ele>
<time>2024-05-12T11:21:29Z</time>
</trkpt>
<trkpt lat="48.87346646748483" lon="9.273273395374416">
<ele>223.4</ele>
<time>2024-05-12T11:21:30Z</time>
</trkpt>
<trkpt lat="48.87345121242106" lon="9.273296277970076">
<ele>223.4</ele>
<time>2024-05-12T11:21:31Z</time>
</trkpt>
<trkpt lat="48.87343595735729" lon="9.273323016241193">
<ele>223.6</ele>
<time>2024-05-12T11:21:32Z</time>
</trkpt>
<trkpt lat="48.87341307476163" lon="9.2733468208462">
<ele>223.6</ele>
<time>2024-05-12T11:21:33Z</time>
</trkpt>
<trkpt lat="48.8733939640224" lon="9.27336978726089">
<ele>223.8</ele>
<time>2024-05-12T11:21:34Z</time>
</trkpt>
<trkpt lat="48.8733749371022" lon="9.273396441712976">
<ele>223.8</ele>
<time>2024-05-12T11:21:35Z</time>
</trkpt>
<trkpt lat="48.87335197068751" lon="9.273421252146363">
<ele>223.8</ele>
<time>2024-05-12T11:21:36Z</time>
</trkpt>
<trkpt lat="48.87333294376731" lon="9.273449834436178">
<ele>223.8</ele>
<time>2024-05-12T11:21:37Z</time>
</trkpt>
<trkpt lat="48.87331383302808" lon="9.273476572707295">
<ele>224</ele>
<time>2024-05-12T11:21:38Z</time>
</trkpt>
<trkpt lat="48.87329480610788" lon="9.27350708283484">
<ele>223.8</ele>
<time>2024-05-12T11:21:39Z</time>
</trkpt>
<trkpt lat="48.87325666844845" lon="9.273549998179078">
<ele>223.8</ele>
<time>2024-05-12T11:21:40Z</time>
</trkpt>
<trkpt lat="48.873222302645445" lon="9.273592913523316">
<ele>223.8</ele>
<time>2024-05-12T11:21:41Z</time>
</trkpt>
<trkpt lat="48.87319564819336" lon="9.273631973192096">
<ele>223.6</ele>
<time>2024-05-12T11:21:42Z</time>
</trkpt>
<trkpt lat="48.87316890992224" lon="9.273672038689256">
<ele>223.6</ele>
<time>2024-05-12T11:21:43Z</time>
</trkpt>
<trkpt lat="48.8731383997947" lon="9.273721659556031">
<ele>223.6</ele>
<time>2024-05-12T11:21:44Z</time>
</trkpt>
<trkpt lat="48.87311166152358" lon="9.273756947368383">
<ele>223.4</ele>
<time>2024-05-12T11:21:45Z</time>
</trkpt>
<trkpt lat="48.87307737953961" lon="9.27378460764885">
<ele>223.4</ele>
<time>2024-05-12T11:21:46Z</time>
</trkpt>
<trkpt lat="48.873046869412065" lon="9.273801790550351">
<ele>223.4</ele>
<time>2024-05-12T11:21:47Z</time>
</trkpt>
<trkpt lat="48.87301627546549" lon="9.273815117776394">
<ele>223.2</ele>
<time>2024-05-12T11:21:48Z</time>
</trkpt>
<trkpt lat="48.872985765337944" lon="9.273833222687244">
<ele>223.2</ele>
<time>2024-05-12T11:21:49Z</time>
</trkpt>
<trkpt lat="48.8729552552104" lon="9.273851327598097">
<ele>223</ele>
<time>2024-05-12T11:21:50Z</time>
</trkpt>
<trkpt lat="48.87292097322643" lon="9.273871360346677">
<ele>222.8</ele>
<time>2024-05-12T11:21:51Z</time>
</trkpt>
<trkpt lat="48.872886607423425" lon="9.273891393095257">
<ele>222.6</ele>
<time>2024-05-12T11:21:52Z</time>
</trkpt>
<trkpt lat="48.872848469763994" lon="9.273909498006104">
<ele>222.4</ele>
<time>2024-05-12T11:21:53Z</time>
</trkpt>
<trkpt lat="48.87281410396099" lon="9.273926680907609">
<ele>222.4</ele>
<time>2024-05-12T11:21:54Z</time>
</trkpt>
<trkpt lat="48.87277982197702" lon="9.27394000813365">
<ele>222.2</ele>
<time>2024-05-12T11:21:55Z</time>
</trkpt>
<trkpt lat="48.872745456174016" lon="9.273951491340997">
<ele>222</ele>
<time>2024-05-12T11:21:56Z</time>
</trkpt>
<trkpt lat="48.87271494604647" lon="9.273964818567038">
<ele>222</ele>
<time>2024-05-12T11:21:57Z</time>
</trkpt>
<trkpt lat="48.872688291594386" lon="9.273978229612112">
<ele>222.2</ele>
<time>2024-05-12T11:21:58Z</time>
</trkpt>
<trkpt lat="48.87266155332327" lon="9.273991556838157">
<ele>222.2</ele>
<time>2024-05-12T11:21:59Z</time>
</trkpt>
<trkpt lat="48.87263481505215" lon="9.274004884064198">
<ele>222.2</ele>
<time>2024-05-12T11:22:00Z</time>
</trkpt>
<trkpt lat="48.87260430492461" lon="9.2740220669657">
<ele>222.2</ele>
<time>2024-05-12T11:22:01Z</time>
</trkpt>
<trkpt lat="48.87257765047252" lon="9.27403824403882">
<ele>222.4</ele>
<time>2024-05-12T11:22:02Z</time>
</trkpt>
<trkpt lat="48.87255476787686" lon="9.274046877399089">
<ele>222.4</ele>
<time>2024-05-12T11:22:03Z</time>
</trkpt>
<trkpt lat="48.872531885281205" lon="9.274051655083897">
<ele>222.4</ele>
<time>2024-05-12T11:22:04Z</time>
</trkpt>
<trkpt lat="48.87250900268555" lon="9.274051655083897">
<ele>222.4</ele>
<time>2024-05-12T11:22:05Z</time>
</trkpt>
<trkpt lat="48.87248226441443" lon="9.274049727246163">
<ele>222.4</ele>
<time>2024-05-12T11:22:06Z</time>
</trkpt>
<trkpt lat="48.8724631536752" lon="9.274047799408436">
<ele>222.4</ele>
<time>2024-05-12T11:22:07Z</time>
</trkpt>
<trkpt lat="48.87242887169123" lon="9.27406112663448">
<ele>222.4</ele>
<time>2024-05-12T11:22:08Z</time>
</trkpt>
<trkpt lat="48.87240598909557" lon="9.274063054472208">
<ele>222.4</ele>
<time>2024-05-12T11:22:09Z</time>
</trkpt>
<trkpt lat="48.87237925082445" lon="9.27407830953598">
<ele>222.2</ele>
<time>2024-05-12T11:22:10Z</time>
</trkpt>
<trkpt lat="48.872352596372366" lon="9.274106975644829">
<ele>222.2</ele>
<time>2024-05-12T11:22:11Z</time>
</trkpt>
<trkpt lat="48.87232585810125" lon="9.274125080555676">
<ele>222.2</ele>
<time>2024-05-12T11:22:12Z</time>
</trkpt>
<trkpt lat="48.872291492298245" lon="9.274161290377378">
<ele>222</ele>
<time>2024-05-12T11:22:13Z</time>
</trkpt>
<trkpt lat="48.87226860970259" lon="9.274194650352">
<ele>222</ele>
<time>2024-05-12T11:22:14Z</time>
</trkpt>
<trkpt lat="48.872253354638815" lon="9.27421853877604">
<ele>221.8</ele>
<time>2024-05-12T11:22:15Z</time>
</trkpt>
<trkpt lat="48.87223809957504" lon="9.27423664368689">
<ele>221.8</ele>
<time>2024-05-12T11:22:16Z</time>
</trkpt>
<trkpt lat="48.87222284451127" lon="9.274252820760012">
<ele>221.6</ele>
<time>2024-05-12T11:22:17Z</time>
</trkpt>
<trkpt lat="48.87221144512296" lon="9.274268075823784">
<ele>221.4</ele>
<time>2024-05-12T11:22:18Z</time>
</trkpt>
<trkpt lat="48.87220381759107" lon="9.27427863702178">
<ele>221.4</ele>
<time>2024-05-12T11:22:19Z</time>
</trkpt>
<trkpt lat="48.87219996191561" lon="9.274285258725286">
<ele>221.2</ele>
<time>2024-05-12T11:22:20Z</time>
</trkpt>
<trkpt lat="48.87219996191561" lon="9.274281486868858">
<ele>221.2</ele>
<time>2024-05-12T11:22:21Z</time>
</trkpt>
<trkpt lat="48.87219996191561" lon="9.274279559031129">
<ele>221.2</ele>
<time>2024-05-12T11:22:22Z</time>
</trkpt>
<trkpt lat="48.872196190059185" lon="9.274279559031129">
<ele>221.2</ele>
<time>2024-05-12T11:22:23Z</time>
</trkpt>
<trkpt lat="48.872196190059185" lon="9.27427863702178">
<ele>221.2</ele>
<time>2024-05-12T11:22:24Z</time>
</trkpt>
<trkpt lat="48.872196190059185" lon="9.27427670918405">
<ele>221</ele>
<time>2024-05-12T11:22:25Z</time>
</trkpt>
<trkpt lat="48.872196190059185" lon="9.27427863702178">
<ele>221</ele>
<time>2024-05-12T11:22:27Z</time>
</trkpt>
<trkpt lat="48.872196190059185" lon="9.274279559031129">
<ele>220.8</ele>
<time>2024-05-12T11:22:29Z</time>
</trkpt>
<trkpt lat="48.87219996191561" lon="9.274279559031129">
<ele>220.8</ele>
<time>2024-05-12T11:22:31Z</time>
</trkpt>
<trkpt lat="48.872196190059185" lon="9.274279559031129">
<ele>220.6</ele>
<time>2024-05-12T11:22:33Z</time>
</trkpt>
<trkpt lat="48.872192334383726" lon="9.274279559031129">
<ele>220.4</ele>
<time>2024-05-12T11:22:36Z</time>
</trkpt>
<trkpt lat="48.8721885625273" lon="9.27427863702178">
<ele>220.4</ele>
<time>2024-05-12T11:22:37Z</time>
</trkpt>
<trkpt lat="48.87218470685184" lon="9.274272853508592">
<ele>220.2</ele>
<time>2024-05-12T11:22:38Z</time>
</trkpt>
<trkpt lat="48.87218093499541" lon="9.274265225976706">
<ele>220.2</ele>
<time>2024-05-12T11:22:39Z</time>
</trkpt>
<trkpt lat="48.872177079319954" lon="9.27425667643547">
<ele>220</ele>
<time>2024-05-12T11:22:40Z</time>
</trkpt>
<trkpt lat="48.872177079319954" lon="9.274251898750665">
<ele>220</ele>
<time>2024-05-12T11:22:41Z</time>
</trkpt>
<trkpt lat="48.87217330746353" lon="9.274245193228126">
<ele>220</ele>
<time>2024-05-12T11:22:42Z</time>
</trkpt>
<trkpt lat="48.87216945178807" lon="9.274243349209428">
<ele>220</ele>
<time>2024-05-12T11:22:44Z</time>
</trkpt>
<trkpt lat="48.87216945178807" lon="9.274241421371698">
<ele>219.8</ele>
<time>2024-05-12T11:22:46Z</time>
</trkpt>
<trkpt lat="48.87216567993164" lon="9.274239493533967">
<ele>219.8</ele>
<time>2024-05-12T11:22:47Z</time>
</trkpt>
<trkpt lat="48.872154196724296" lon="9.27423664368689">
<ele>219.6</ele>
<time>2024-05-12T11:22:48Z</time>
</trkpt>
<trkpt lat="48.87213894166052" lon="9.274232788011432">
<ele>219.6</ele>
<time>2024-05-12T11:22:49Z</time>
</trkpt>
<trkpt lat="48.87211983092129" lon="9.274239493533967">
<ele>219.4</ele>
<time>2024-05-12T11:22:50Z</time>
</trkpt>
<trkpt lat="48.872096948325634" lon="9.274249970912932">
<ele>219.4</ele>
<time>2024-05-12T11:22:51Z</time>
</trkpt>
<trkpt lat="48.87206266634166" lon="9.274271931499245">
<ele>219.4</ele>
<time>2024-05-12T11:22:52Z</time>
</trkpt>
<trkpt lat="48.87202830053866" lon="9.274292886257172">
<ele>219.2</ele>
<time>2024-05-12T11:22:53Z</time>
</trkpt>
<trkpt lat="48.87199016287923" lon="9.274311996996405">
<ele>219.2</ele>
<time>2024-05-12T11:22:54Z</time>
</trkpt>
<trkpt lat="48.87194816954434" lon="9.274330101907251">
<ele>219.2</ele>
<time>2024-05-12T11:22:55Z</time>
</trkpt>
<trkpt lat="48.87190626002848" lon="9.274348206818104">
<ele>219.2</ele>
<time>2024-05-12T11:22:56Z</time>
</trkpt>
<trkpt lat="48.871860494837165" lon="9.274361534044148">
<ele>219.2</ele>
<time>2024-05-12T11:22:57Z</time>
</trkpt>
<trkpt lat="48.871818501502275" lon="9.274370167404411">
<ele>219.4</ele>
<time>2024-05-12T11:22:58Z</time>
</trkpt>
<trkpt lat="48.87177273631096" lon="9.274379722774029">
<ele>219.4</ele>
<time>2024-05-12T11:22:59Z</time>
</trkpt>
<trkpt lat="48.87172311544418" lon="9.274386344477534">
<ele>219.6</ele>
<time>2024-05-12T11:23:00Z</time>
</trkpt>
<trkpt lat="48.87167735025287" lon="9.274390200152991">
<ele>219.6</ele>
<time>2024-05-12T11:23:01Z</time>
</trkpt>
<trkpt lat="48.87163158506155" lon="9.274393050000072">
<ele>219.6</ele>
<time>2024-05-12T11:23:02Z</time>
</trkpt>
<trkpt lat="48.87158581987023" lon="9.2743949778378">
<ele>219.8</ele>
<time>2024-05-12T11:23:03Z</time>
</trkpt>
<trkpt lat="48.87154005467892" lon="9.2743968218565">
<ele>219.8</ele>
<time>2024-05-12T11:23:04Z</time>
</trkpt>
<trkpt lat="48.87149806134403" lon="9.274401599541306">
<ele>219.8</ele>
<time>2024-05-12T11:23:05Z</time>
</trkpt>
<trkpt lat="48.87145606800914" lon="9.274404449388385">
<ele>220</ele>
<time>2024-05-12T11:23:06Z</time>
</trkpt>
<trkpt lat="48.87141030281782" lon="9.274408305063844">
<ele>220.2</ele>
<time>2024-05-12T11:23:07Z</time>
</trkpt>
<trkpt lat="48.87136839330197" lon="9.274410232901571">
<ele>220.4</ele>
<time>2024-05-12T11:23:08Z</time>
</trkpt>
<trkpt lat="48.871326399967074" lon="9.274412076920273">
<ele>220.4</ele>
<time>2024-05-12T11:23:09Z</time>
</trkpt>
<trkpt lat="48.871284406632185" lon="9.274413082748652">
<ele>220.6</ele>
<time>2024-05-12T11:23:10Z</time>
</trkpt>
<trkpt lat="48.87123864144087" lon="9.274412076920273">
<ele>220.6</ele>
<time>2024-05-12T11:23:11Z</time>
</trkpt>
<trkpt lat="48.87119673192501" lon="9.274412076920273">
<ele>220.8</ele>
<time>2024-05-12T11:23:12Z</time>
</trkpt>
<trkpt lat="48.87115473859012" lon="9.27441501058638">
<ele>221</ele>
<time>2024-05-12T11:23:13Z</time>
</trkpt>
<trkpt lat="48.87111274525523" lon="9.274410232901571">
<ele>221</ele>
<time>2024-05-12T11:23:14Z</time>
</trkpt>
<trkpt lat="48.871070835739374" lon="9.274412076920273">
<ele>221.2</ele>
<time>2024-05-12T11:23:15Z</time>
</trkpt>
<trkpt lat="48.87102507054806" lon="9.274413082748652">
<ele>221.4</ele>
<time>2024-05-12T11:23:16Z</time>
</trkpt>
<trkpt lat="48.87098307721317" lon="9.274408305063844">
<ele>221.4</ele>
<time>2024-05-12T11:23:17Z</time>
</trkpt>
<trkpt lat="48.87093345634639" lon="9.274404449388385">
<ele>221.6</ele>
<time>2024-05-12T11:23:18Z</time>
</trkpt>
<trkpt lat="48.87088769115507" lon="9.274403527379036">
<ele>221.6</ele>
<time>2024-05-12T11:23:19Z</time>
</trkpt>
<trkpt lat="48.87083815410733" lon="9.274399755522609">
<ele>221.8</ele>
<time>2024-05-12T11:23:20Z</time>
</trkpt>
<trkpt lat="48.870792388916016" lon="9.2743949778378">
<ele>221.8</ele>
<time>2024-05-12T11:23:21Z</time>
</trkpt>
<trkpt lat="48.87074653990567" lon="9.274392127990724">
<ele>222</ele>
<time>2024-05-12T11:23:22Z</time>
</trkpt>
<trkpt lat="48.87070840224624" lon="9.274388272315264">
<ele>222</ele>
<time>2024-05-12T11:23:23Z</time>
</trkpt>
<trkpt lat="48.87066649273038" lon="9.274383494630456">
<ele>222</ele>
<time>2024-05-12T11:23:24Z</time>
</trkpt>
<trkpt lat="48.87062072753906" lon="9.274381566792728">
<ele>222</ele>
<time>2024-05-12T11:23:25Z</time>
</trkpt>
<trkpt lat="48.870574878528714" lon="9.274386344477534">
<ele>222</ele>
<time>2024-05-12T11:23:26Z</time>
</trkpt>
<trkpt lat="48.8705291133374" lon="9.274388272315264">
<ele>222</ele>
<time>2024-05-12T11:23:27Z</time>
</trkpt>
<trkpt lat="48.870475720614195" lon="9.274392127990724">
<ele>222.2</ele>
<time>2024-05-12T11:23:28Z</time>
</trkpt>
<trkpt lat="48.87041847221553" lon="9.274390200152991">
<ele>222.2</ele>
<time>2024-05-12T11:23:29Z</time>
</trkpt>
<trkpt lat="48.87036507949233" lon="9.274390200152991">
<ele>222.2</ele>
<time>2024-05-12T11:23:30Z</time>
</trkpt>
<trkpt lat="48.8703079149127" lon="9.274390200152991">
<ele>222.2</ele>
<time>2024-05-12T11:23:31Z</time>
</trkpt>
<trkpt lat="48.870254438370466" lon="9.274393050000072">
<ele>222.2</ele>
<time>2024-05-12T11:23:32Z</time>
</trkpt>
<trkpt lat="48.87020490132272" lon="9.274403527379036">
<ele>222.2</ele>
<time>2024-05-12T11:23:33Z</time>
</trkpt>
<trkpt lat="48.87015528045595" lon="9.274410232901571">
<ele>222</ele>
<time>2024-05-12T11:23:34Z</time>
</trkpt>
<trkpt lat="48.87011714279651" lon="9.27441786043346">
<ele>222</ele>
<time>2024-05-12T11:23:35Z</time>
</trkpt>
<trkpt lat="48.87008277699351" lon="9.274430265650151">
<ele>222</ele>
<time>2024-05-12T11:23:36Z</time>
</trkpt>
<trkpt lat="48.8700370118022" lon="9.274450298398731">
<ele>221.8</ele>
<time>2024-05-12T11:23:37Z</time>
</trkpt>
<trkpt lat="48.86999510228634" lon="9.274464547634125">
<ele>221.8</ele>
<time>2024-05-12T11:23:38Z</time>
</trkpt>
<trkpt lat="48.86994548141956" lon="9.27447695285082">
<ele>221.6</ele>
<time>2024-05-12T11:23:39Z</time>
</trkpt>
<trkpt lat="48.869903488084674" lon="9.274491285905242">
<ele>221.6</ele>
<time>2024-05-12T11:23:40Z</time>
</trkpt>
<trkpt lat="48.86985395103693" lon="9.274504613131285">
<ele>221.6</ele>
<time>2024-05-12T11:23:41Z</time>
</trkpt>
<trkpt lat="48.86981195770204" lon="9.274521796032786">
<ele>221.4</ele>
<time>2024-05-12T11:23:42Z</time>
</trkpt>
<trkpt lat="48.86976619251072" lon="9.274539900943635">
<ele>221.4</ele>
<time>2024-05-12T11:23:43Z</time>
</trkpt>
<trkpt lat="48.869724199175835" lon="9.27455708384514">
<ele>221.2</ele>
<time>2024-05-12T11:23:44Z</time>
</trkpt>
<trkpt lat="48.8696860615164" lon="9.27457326091826">
<ele>221.2</ele>
<time>2024-05-12T11:23:45Z</time>
</trkpt>
<trkpt lat="48.86965177953243" lon="9.274583738297224">
<ele>221</ele>
<time>2024-05-12T11:23:46Z</time>
</trkpt>
<trkpt lat="48.869613641873" lon="9.274596143513918">
<ele>221</ele>
<time>2024-05-12T11:23:47Z</time>
</trkpt>
<trkpt lat="48.86957164853811" lon="9.27461332641542">
<ele>220.8</ele>
<time>2024-05-12T11:23:48Z</time>
</trkpt>
<trkpt lat="48.86953351087868" lon="9.27463143132627">
<ele>220.8</ele>
<time>2024-05-12T11:23:49Z</time>
</trkpt>
<trkpt lat="48.86949914507568" lon="9.274648614227772">
<ele>220.6</ele>
<time>2024-05-12T11:23:50Z</time>
</trkpt>
<trkpt lat="48.869468634948134" lon="9.274658169597387">
<ele>220.6</ele>
<time>2024-05-12T11:23:51Z</time>
</trkpt>
<trkpt lat="48.86945337988436" lon="9.27467149682343">
<ele>220.4</ele>
<time>2024-05-12T11:23:52Z</time>
</trkpt>
<trkpt lat="48.86945337988436" lon="9.27469345740974">
<ele>220.4</ele>
<time>2024-05-12T11:23:53Z</time>
</trkpt>
<trkpt lat="48.86946100741625" lon="9.274716340005398">
<ele>220.4</ele>
<time>2024-05-12T11:23:54Z</time>
</trkpt>
<trkpt lat="48.86946486309171" lon="9.274744922295213">
<ele>220.4</ele>
<time>2024-05-12T11:23:55Z</time>
</trkpt>
<trkpt lat="48.86947249062359" lon="9.27477358840406">
<ele>220.4</ele>
<time>2024-05-12T11:23:56Z</time>
</trkpt>
<trkpt lat="48.86948011815548" lon="9.274814575910568">
<ele>220.4</ele>
<time>2024-05-12T11:23:57Z</time>
</trkpt>
<trkpt lat="48.86948389001191" lon="9.274856485426426">
<ele>220.4</ele>
<time>2024-05-12T11:23:58Z</time>
</trkpt>
<trkpt lat="48.86949151754379" lon="9.274896550923586">
<ele>220.4</ele>
<time>2024-05-12T11:23:59Z</time>
</trkpt>
<trkpt lat="48.86949537321925" lon="9.274936616420746">
<ele>220.4</ele>
<time>2024-05-12T11:24:00Z</time>
</trkpt>
<trkpt lat="48.86950300075114" lon="9.274974754080176">
<ele>220.4</ele>
<time>2024-05-12T11:24:01Z</time>
</trkpt>
<trkpt lat="48.869506772607565" lon="9.275011969730258">
<ele>220.4</ele>
<time>2024-05-12T11:24:02Z</time>
</trkpt>
<trkpt lat="48.86951440013945" lon="9.275050107389688">
<ele>220.4</ele>
<time>2024-05-12T11:24:03Z</time>
</trkpt>
<trkpt lat="48.86951825581491" lon="9.27508640103042">
<ele>220.6</ele>
<time>2024-05-12T11:24:04Z</time>
</trkpt>
<trkpt lat="48.86952202767134" lon="9.275119761005044">
<ele>220.6</ele>
<time>2024-05-12T11:24:05Z</time>
</trkpt>
<trkpt lat="48.8695258833468" lon="9.275150271132588">
<ele>220.8</ele>
<time>2024-05-12T11:24:06Z</time>
</trkpt>
<trkpt lat="48.86952965520322" lon="9.275173153728248">
<ele>221</ele>
<time>2024-05-12T11:24:07Z</time>
</trkpt>
<trkpt lat="48.86952965520322" lon="9.27518648095429">
<ele>221</ele>
<time>2024-05-12T11:24:08Z</time>
</trkpt>
<trkpt lat="48.86953351087868" lon="9.275203663855793">
<ele>221.2</ele>
<time>2024-05-12T11:24:09Z</time>
</trkpt>
<trkpt lat="48.86953728273511" lon="9.275219840928912">
<ele>221.2</ele>
<time>2024-05-12T11:24:10Z</time>
</trkpt>
<trkpt lat="48.86953728273511" lon="9.275231324136255">
<ele>221.4</ele>
<time>2024-05-12T11:24:11Z</time>
</trkpt>
<trkpt lat="48.86954113841057" lon="9.275233251973988">
<ele>221.4</ele>
<time>2024-05-12T11:24:12Z</time>
</trkpt>
<trkpt lat="48.869544910266995" lon="9.275239873677492">
<ele>221.4</ele>
<time>2024-05-12T11:24:13Z</time>
</trkpt>
<trkpt lat="48.86955253779888" lon="9.2752446513623">
<ele>221.4</ele>
<time>2024-05-12T11:24:14Z</time>
</trkpt>
<trkpt lat="48.86956402100623" lon="9.27524850703776">
<ele>221.4</ele>
<time>2024-05-12T11:24:15Z</time>
</trkpt>
<trkpt lat="48.86957927607" lon="9.27524850703776">
<ele>221.2</ele>
<time>2024-05-12T11:24:16Z</time>
</trkpt>
<trkpt lat="48.86959838680923" lon="9.275250434875488">
<ele>221.2</ele>
<time>2024-05-12T11:24:17Z</time>
</trkpt>
<trkpt lat="48.869613641873" lon="9.275250434875488">
<ele>221</ele>
<time>2024-05-12T11:24:18Z</time>
</trkpt>
<trkpt lat="48.869628896936774" lon="9.2752446513623">
<ele>220.8</ele>
<time>2024-05-12T11:24:19Z</time>
</trkpt>
<trkpt lat="48.86964415200055" lon="9.275239873677492">
<ele>220.6</ele>
<time>2024-05-12T11:24:20Z</time>
</trkpt>
<trkpt lat="48.86965555138886" lon="9.275238029658794">
<ele>220.4</ele>
<time>2024-05-12T11:24:21Z</time>
</trkpt>
<trkpt lat="48.86967080645263" lon="9.2752446513623">
<ele>220.2</ele>
<time>2024-05-12T11:24:22Z</time>
</trkpt>
<trkpt lat="48.86968228965998" lon="9.275259906426072">
<ele>220</ele>
<time>2024-05-12T11:24:23Z</time>
</trkpt>
<trkpt lat="48.86968991719186" lon="9.275279939174652">
<ele>219.8</ele>
<time>2024-05-12T11:24:24Z</time>
</trkpt>
<trkpt lat="48.8696860615164" lon="9.27530282177031">
<ele>219.6</ele>
<time>2024-05-12T11:24:25Z</time>
</trkpt>
<trkpt lat="48.86968228965998" lon="9.275329560041428">
<ele>219.2</ele>
<time>2024-05-12T11:24:26Z</time>
</trkpt>
<trkpt lat="48.869663178920746" lon="9.275351520627735">
<ele>219</ele>
<time>2024-05-12T11:24:27Z</time>
</trkpt>
<trkpt lat="48.86964029632509" lon="9.27536292001605">
<ele>218.8</ele>
<time>2024-05-12T11:24:28Z</time>
</trkpt>
<trkpt lat="48.86962126940489" lon="9.275369625538588">
<ele>218.6</ele>
<time>2024-05-12T11:24:29Z</time>
</trkpt>
<trkpt lat="48.86960215866566" lon="9.275371469557284">
<ele>218.4</ele>
<time>2024-05-12T11:24:30Z</time>
</trkpt>
<trkpt lat="48.869583047926426" lon="9.275369625538588">
<ele>218.2</ele>
<time>2024-05-12T11:24:31Z</time>
</trkpt>
<trkpt lat="48.86955253779888" lon="9.2753619980067">
<ele>218.2</ele>
<time>2024-05-12T11:24:32Z</time>
</trkpt>
<trkpt lat="48.8695258833468" lon="9.27536484785378">
<ele>218</ele>
<time>2024-05-12T11:24:33Z</time>
</trkpt>
<trkpt lat="48.86949914507568" lon="9.275368619710209">
<ele>218</ele>
<time>2024-05-12T11:24:34Z</time>
</trkpt>
<trkpt lat="48.869468634948134" lon="9.275369625538588">
<ele>218</ele>
<time>2024-05-12T11:24:35Z</time>
</trkpt>
<trkpt lat="48.86944198049605" lon="9.275376247242091">
<ele>217.8</ele>
<time>2024-05-12T11:24:36Z</time>
</trkpt>
<trkpt lat="48.86941138654947" lon="9.27538488060236">
<ele>217.8</ele>
<time>2024-05-12T11:24:37Z</time>
</trkpt>
<trkpt lat="48.86938087642193" lon="9.275398207828404">
<ele>217.8</ele>
<time>2024-05-12T11:24:38Z</time>
</trkpt>
<trkpt lat="48.86935422196984" lon="9.275413462892176">
<ele>217.8</ele>
<time>2024-05-12T11:24:39Z</time>
</trkpt>
<trkpt lat="48.8693237118423" lon="9.275426790118216">
<ele>217.8</ele>
<time>2024-05-12T11:24:40Z</time>
</trkpt>
<trkpt lat="48.869293201714754" lon="9.275436345487831">
<ele>217.8</ele>
<time>2024-05-12T11:24:41Z</time>
</trkpt>
<trkpt lat="48.86926646344364" lon="9.275447828695178">
<ele>217.8</ele>
<time>2024-05-12T11:24:42Z</time>
</trkpt>
<trkpt lat="48.86923972517252" lon="9.27546115592122">
<ele>217.8</ele>
<time>2024-05-12T11:24:43Z</time>
</trkpt>
<trkpt lat="48.86920544318855" lon="9.275478338822722">
<ele>217.8</ele>
<time>2024-05-12T11:24:44Z</time>
</trkpt>
<trkpt lat="48.86917493306101" lon="9.275491666048763">
<ele>217.8</ele>
<time>2024-05-12T11:24:45Z</time>
</trkpt>
<trkpt lat="48.869140567258" lon="9.27550314925611">
<ele>217.8</ele>
<time>2024-05-12T11:24:46Z</time>
</trkpt>
<trkpt lat="48.86910628527403" lon="9.275514548644423">
<ele>217.8</ele>
<time>2024-05-12T11:24:47Z</time>
</trkpt>
<trkpt lat="48.86906806379557" lon="9.275527875870466">
<ele>217.8</ele>
<time>2024-05-12T11:24:48Z</time>
</trkpt>
<trkpt lat="48.869033781811595" lon="9.27554028108716">
<ele>218</ele>
<time>2024-05-12T11:24:49Z</time>
</trkpt>
<trkpt lat="48.86899941600859" lon="9.275556541979311">
<ele>218</ele>
<time>2024-05-12T11:24:50Z</time>
</trkpt>
<trkpt lat="48.86896513402462" lon="9.275571797043083">
<ele>218</ele>
<time>2024-05-12T11:24:51Z</time>
</trkpt>
<trkpt lat="48.86893076822162" lon="9.275587974116206">
<ele>218</ele>
<time>2024-05-12T11:24:52Z</time>
</trkpt>
<trkpt lat="48.868892630562186" lon="9.275603229179978">
<ele>218</ele>
<time>2024-05-12T11:24:53Z</time>
</trkpt>
<trkpt lat="48.86885826475918" lon="9.27561848424375">
<ele>218</ele>
<time>2024-05-12T11:24:54Z</time>
</trkpt>
<trkpt lat="48.86882398277521" lon="9.275632817298174">
<ele>218</ele>
<time>2024-05-12T11:24:55Z</time>
</trkpt>
<trkpt lat="48.86878961697221" lon="9.275646144524217">
<ele>218</ele>
<time>2024-05-12T11:24:56Z</time>
</trkpt>
<trkpt lat="48.868759106844664" lon="9.275661399587989">
<ele>218</ele>
<time>2024-05-12T11:24:57Z</time>
</trkpt>
<trkpt lat="48.86872474104166" lon="9.275674810633063">
<ele>218</ele>
<time>2024-05-12T11:24:58Z</time>
</trkpt>
<trkpt lat="48.86869045905769" lon="9.275691909715531">
<ele>218</ele>
<time>2024-05-12T11:24:59Z</time>
</trkpt>
<trkpt lat="48.868656093254685" lon="9.275705320760608">
<ele>218</ele>
<time>2024-05-12T11:25:00Z</time>
</trkpt>
<trkpt lat="48.868621811270714" lon="9.27571864798665">
<ele>218</ele>
<time>2024-05-12T11:25:01Z</time>
</trkpt>
<trkpt lat="48.86859130114317" lon="9.275730131193995">
<ele>218</ele>
<time>2024-05-12T11:25:02Z</time>
</trkpt>
<trkpt lat="48.868560791015625" lon="9.275746308267117">
<ele>218.2</ele>
<time>2024-05-12T11:25:03Z</time>
</trkpt>
<trkpt lat="48.86852642521262" lon="9.275763491168618">
<ele>218.2</ele>
<time>2024-05-12T11:25:04Z</time>
</trkpt>
<trkpt lat="48.86849591508508" lon="9.27577681839466">
<ele>218.4</ele>
<time>2024-05-12T11:25:05Z</time>
</trkpt>
<trkpt lat="48.86846540495753" lon="9.275788301602006">
<ele>218.4</ele>
<time>2024-05-12T11:25:06Z</time>
</trkpt>
<trkpt lat="48.86843103915453" lon="9.27579970099032">
<ele>218.4</ele>
<time>2024-05-12T11:25:07Z</time>
</trkpt>
<trkpt lat="48.86839675717056" lon="9.275814956054091">
<ele>218.6</ele>
<time>2024-05-12T11:25:08Z</time>
</trkpt>
<trkpt lat="48.86836616322398" lon="9.275831216946244">
<ele>218.6</ele>
<time>2024-05-12T11:25:09Z</time>
</trkpt>
<trkpt lat="48.86833188124001" lon="9.275848316028714">
<ele>218.6</ele>
<time>2024-05-12T11:25:10Z</time>
</trkpt>
<trkpt lat="48.868301371112466" lon="9.275864576920869">
<ele>218.8</ele>
<time>2024-05-12T11:25:11Z</time>
</trkpt>
<trkpt lat="48.86826700530946" lon="9.275886453688145">
<ele>218.8</ele>
<time>2024-05-12T11:25:12Z</time>
</trkpt>
<trkpt lat="48.86823649518192" lon="9.275908414274454">
<ele>218.8</ele>
<time>2024-05-12T11:25:13Z</time>
</trkpt>
<trkpt lat="48.868202129378915" lon="9.275930374860764">
<ele>218.8</ele>
<time>2024-05-12T11:25:14Z</time>
</trkpt>
<trkpt lat="48.86816784739494" lon="9.275948479771614">
<ele>218.8</ele>
<time>2024-05-12T11:25:15Z</time>
</trkpt>
<trkpt lat="48.86813348159194" lon="9.275968512520194">
<ele>218.8</ele>
<time>2024-05-12T11:25:16Z</time>
</trkpt>
<trkpt lat="48.8681029714644" lon="9.275984689593315">
<ele>218.8</ele>
<time>2024-05-12T11:25:17Z</time>
</trkpt>
<trkpt lat="48.86807246133685" lon="9.276004722341897">
<ele>218.8</ele>
<time>2024-05-12T11:25:18Z</time>
</trkpt>
<trkpt lat="48.86804195120931" lon="9.276022911071776">
<ele>219</ele>
<time>2024-05-12T11:25:19Z</time>
</trkpt>
<trkpt lat="48.86801144108176" lon="9.276046715676785">
<ele>219</ele>
<time>2024-05-12T11:25:20Z</time>
</trkpt>
<trkpt lat="48.86798093095422" lon="9.276066748425364">
<ele>219.2</ele>
<time>2024-05-12T11:25:21Z</time>
</trkpt>
<trkpt lat="48.86795042082667" lon="9.276089631021025">
<ele>219.4</ele>
<time>2024-05-12T11:25:22Z</time>
</trkpt>
<trkpt lat="48.867927538231015" lon="9.27611536346376">
<ele>219.4</ele>
<time>2024-05-12T11:25:23Z</time>
</trkpt>
<trkpt lat="48.86790465563536" lon="9.276142101734877">
<ele>219.4</ele>
<time>2024-05-12T11:25:24Z</time>
</trkpt>
<trkpt lat="48.867885544896126" lon="9.276168756186962">
<ele>219.4</ele>
<time>2024-05-12T11:25:25Z</time>
</trkpt>
<trkpt lat="48.86787414550781" lon="9.276206893846393">
<ele>219.4</ele>
<time>2024-05-12T11:25:26Z</time>
</trkpt>
<trkpt lat="48.867866434156895" lon="9.276256514713168">
<ele>219.4</ele>
<time>2024-05-12T11:25:27Z</time>
</trkpt>
<trkpt lat="48.86786266230047" lon="9.2763118352741">
<ele>219.4</ele>
<time>2024-05-12T11:25:28Z</time>
</trkpt>
<trkpt lat="48.867870289832354" lon="9.276365227997305">
<ele>219.4</ele>
<time>2024-05-12T11:25:29Z</time>
</trkpt>
<trkpt lat="48.867885544896126" lon="9.276416776701808">
<ele>219.4</ele>
<time>2024-05-12T11:25:30Z</time>
</trkpt>
<trkpt lat="48.86790465563536" lon="9.276472013443708">
<ele>219.6</ele>
<time>2024-05-12T11:25:31Z</time>
</trkpt>
<trkpt lat="48.86792368255555" lon="9.276521634310484">
<ele>219.6</ele>
<time>2024-05-12T11:25:32Z</time>
</trkpt>
<trkpt lat="48.86795042082667" lon="9.27657024934888">
<ele>219.8</ele>
<time>2024-05-12T11:25:33Z</time>
</trkpt>
<trkpt lat="48.86797330342233" lon="9.276619870215654">
<ele>220</ele>
<time>2024-05-12T11:25:34Z</time>
</trkpt>
<trkpt lat="48.86799618601799" lon="9.276666641235352">
<ele>220.2</ele>
<time>2024-05-12T11:25:35Z</time>
</trkpt>
<trkpt lat="48.86801144108176" lon="9.276716178283095">
<ele>220.4</ele>
<time>2024-05-12T11:25:36Z</time>
</trkpt>
<trkpt lat="48.868026696145535" lon="9.27676672115922">
<ele>220.6</ele>
<time>2024-05-12T11:25:37Z</time>
</trkpt>
<trkpt lat="48.86804195120931" lon="9.276811564341187">
<ele>220.8</ele>
<time>2024-05-12T11:25:38Z</time>
</trkpt>
<trkpt lat="48.86805343441665" lon="9.276853557676075">
<ele>221</ele>
<time>2024-05-12T11:25:39Z</time>
</trkpt>
<trkpt lat="48.868068689480424" lon="9.276893539354203">
<ele>221.4</ele>
<time>2024-05-12T11:25:40Z</time>
</trkpt>
<trkpt lat="48.86808771640062" lon="9.276933604851363">
<ele>221.6</ele>
<time>2024-05-12T11:25:41Z</time>
</trkpt>
<trkpt lat="48.8681029714644" lon="9.276976520195603">
<ele>222</ele>
<time>2024-05-12T11:25:42Z</time>
</trkpt>
<trkpt lat="48.86811822652817" lon="9.277020441368222">
<ele>222.4</ele>
<time>2024-05-12T11:25:43Z</time>
</trkpt>
<trkpt lat="48.86813348159194" lon="9.27706335671246">
<ele>222.6</ele>
<time>2024-05-12T11:25:44Z</time>
</trkpt>
<trkpt lat="48.86814873665571" lon="9.277108116075397">
<ele>222.8</ele>
<time>2024-05-12T11:25:45Z</time>
</trkpt>
<trkpt lat="48.86816399171949" lon="9.277152037248015">
<ele>223</ele>
<time>2024-05-12T11:25:46Z</time>
</trkpt>
<trkpt lat="48.86817924678326" lon="9.277194952592254">
<ele>223.4</ele>
<time>2024-05-12T11:25:47Z</time>
</trkpt>
<trkpt lat="48.86819450184703" lon="9.277237867936492">
<ele>223.6</ele>
<time>2024-05-12T11:25:48Z</time>
</trkpt>
<trkpt lat="48.8682097569108" lon="9.277283633127809">
<ele>223.8</ele>
<time>2024-05-12T11:25:49Z</time>
</trkpt>
<trkpt lat="48.868225095793605" lon="9.277328476309776">
<ele>224</ele>
<time>2024-05-12T11:25:50Z</time>
</trkpt>
<trkpt lat="48.86824035085738" lon="9.277371391654016">
<ele>224.2</ele>
<time>2024-05-12T11:25:51Z</time>
</trkpt>
<trkpt lat="48.86825560592115" lon="9.277415229007602">
<ele>224.4</ele>
<time>2024-05-12T11:25:52Z</time>
</trkpt>
<trkpt lat="48.86827086098492" lon="9.277455294504762">
<ele>224.6</ele>
<time>2024-05-12T11:25:53Z</time>
</trkpt>
<trkpt lat="48.868286116048694" lon="9.277495360001922">
<ele>224.8</ele>
<time>2024-05-12T11:25:54Z</time>
</trkpt>
<trkpt lat="48.868301371112466" lon="9.277535425499082">
<ele>225.2</ele>
<time>2024-05-12T11:25:55Z</time>
</trkpt>
<trkpt lat="48.86831662617624" lon="9.27757448516786">
<ele>225.4</ele>
<time>2024-05-12T11:25:56Z</time>
</trkpt>
<trkpt lat="48.86833188124001" lon="9.277613628655672">
<ele>225.6</ele>
<time>2024-05-12T11:25:57Z</time>
</trkpt>
<trkpt lat="48.86834328062832" lon="9.277651766315104">
<ele>225.8</ele>
<time>2024-05-12T11:25:58Z</time>
</trkpt>
<trkpt lat="48.868358535692096" lon="9.277687976136804">
<ele>226</ele>
<time>2024-05-12T11:25:59Z</time>
</trkpt>
<trkpt lat="48.86837001889944" lon="9.277729969471691">
<ele>226.2</ele>
<time>2024-05-12T11:26:00Z</time>
</trkpt>
<trkpt lat="48.868381418287754" lon="9.27777187898755">
<ele>226.6</ele>
<time>2024-05-12T11:26:01Z</time>
</trkpt>
<trkpt lat="48.86839675717056" lon="9.27781001664698">
<ele>226.8</ele>
<time>2024-05-12T11:26:02Z</time>
</trkpt>
<trkpt lat="48.86840438470245" lon="9.27785200998187">
<ele>227</ele>
<time>2024-05-12T11:26:03Z</time>
</trkpt>
<trkpt lat="48.868419639766216" lon="9.277888219803572">
<ele>227.2</ele>
<time>2024-05-12T11:26:04Z</time>
</trkpt>
<trkpt lat="48.86843103915453" lon="9.27793021313846">
<ele>227.4</ele>
<time>2024-05-12T11:26:05Z</time>
</trkpt>
<trkpt lat="48.8684462942183" lon="9.277968350797892">
<ele>227.6</ele>
<time>2024-05-12T11:26:06Z</time>
</trkpt>
<trkpt lat="48.86845777742565" lon="9.278003638610244">
<ele>227.8</ele>
<time>2024-05-12T11:26:07Z</time>
</trkpt>
<trkpt lat="48.86846917681396" lon="9.278036998584868">
<ele>228</ele>
<time>2024-05-12T11:26:08Z</time>
</trkpt>
<trkpt lat="48.868480660021305" lon="9.27807136438787">
<ele>228.2</ele>
<time>2024-05-12T11:26:09Z</time>
</trkpt>
<trkpt lat="48.86849205940962" lon="9.278102796524765">
<ele>228.4</ele>
<time>2024-05-12T11:26:10Z</time>
</trkpt>
<trkpt lat="48.868499686941504" lon="9.278136240318418">
<ele>228.6</ele>
<time>2024-05-12T11:26:11Z</time>
</trkpt>
<trkpt lat="48.86851494200528" lon="9.27816960029304">
<ele>228.8</ele>
<time>2024-05-12T11:26:12Z</time>
</trkpt>
<trkpt lat="48.86853019706905" lon="9.278202960267665">
<ele>229</ele>
<time>2024-05-12T11:26:13Z</time>
</trkpt>
<trkpt lat="48.868541680276394" lon="9.278238248080015">
<ele>229.2</ele>
<time>2024-05-12T11:26:14Z</time>
</trkpt>
<trkpt lat="48.86855307966471" lon="9.278273535892367">
<ele>229.6</ele>
<time>2024-05-12T11:26:15Z</time>
</trkpt>
<trkpt lat="48.86856456287205" lon="9.27830689586699">
<ele>229.8</ele>
<time>2024-05-12T11:26:16Z</time>
</trkpt>
<trkpt lat="48.868579817935824" lon="9.278340339660645">
<ele>230</ele>
<time>2024-05-12T11:26:17Z</time>
</trkpt>
<trkpt lat="48.86859130114317" lon="9.278369843959808">
<ele>230.2</ele>
<time>2024-05-12T11:26:18Z</time>
</trkpt>
<trkpt lat="48.86860270053148" lon="9.278400354087353">
<ele>230.6</ele>
<time>2024-05-12T11:26:19Z</time>
</trkpt>
<trkpt lat="48.86861032806337" lon="9.278434719890356">
<ele>230.8</ele>
<time>2024-05-12T11:26:20Z</time>
</trkpt>
<trkpt lat="48.86861032806337" lon="9.27846807986498">
<ele>231</ele>
<time>2024-05-12T11:26:21Z</time>
</trkpt>
<trkpt lat="48.86861032806337" lon="9.278498589992523">
<ele>231.2</ele>
<time>2024-05-12T11:26:22Z</time>
</trkpt>
<trkpt lat="48.86861032806337" lon="9.27852817811072">
<ele>231.4</ele>
<time>2024-05-12T11:26:23Z</time>
</trkpt>
<trkpt lat="48.86860270053148" lon="9.278556760400534">
<ele>231.4</ele>
<time>2024-05-12T11:26:24Z</time>
</trkpt>
<trkpt lat="48.86858744546771" lon="9.278576793149114">
<ele>231.6</ele>
<time>2024-05-12T11:26:25Z</time>
</trkpt>
<trkpt lat="48.86857219040394" lon="9.278596825897694">
<ele>231.8</ele>
<time>2024-05-12T11:26:26Z</time>
</trkpt>
<trkpt lat="48.86855307966471" lon="9.278614930808544">
<ele>232</ele>
<time>2024-05-12T11:26:27Z</time>
</trkpt>
<trkpt lat="48.86853405274451" lon="9.278633035719396">
<ele>232.2</ele>
<time>2024-05-12T11:26:28Z</time>
</trkpt>
<trkpt lat="48.86851117014885" lon="9.27864166907966">
<ele>232.4</ele>
<time>2024-05-12T11:26:29Z</time>
</trkpt>
<trkpt lat="48.86848443187773" lon="9.278650218620896">
<ele>232.6</ele>
<time>2024-05-12T11:26:30Z</time>
</trkpt>
<trkpt lat="48.868461549282074" lon="9.27866170182824">
<ele>232.8</ele>
<time>2024-05-12T11:26:31Z</time>
</trkpt>
<trkpt lat="48.868438666686416" lon="9.278675029054284">
<ele>232.8</ele>
<time>2024-05-12T11:26:32Z</time>
</trkpt>
<trkpt lat="48.86841578409076" lon="9.278688356280329">
<ele>233</ele>
<time>2024-05-12T11:26:33Z</time>
</trkpt>
<trkpt lat="48.8683929014951" lon="9.278697911649942">
<ele>233</ele>
<time>2024-05-12T11:26:34Z</time>
</trkpt>
<trkpt lat="48.86837001889944" lon="9.278711238875983">
<ele>233.2</ele>
<time>2024-05-12T11:26:35Z</time>
</trkpt>
<trkpt lat="48.86834713630378" lon="9.27872364409268">
<ele>233.2</ele>
<time>2024-05-12T11:26:36Z</time>
</trkpt>
<trkpt lat="48.86831662617624" lon="9.278737055137752">
<ele>233.4</ele>
<time>2024-05-12T11:26:37Z</time>
</trkpt>
<trkpt lat="48.86828988790512" lon="9.278755160048604">
<ele>233.4</ele>
<time>2024-05-12T11:26:38Z</time>
</trkpt>
<trkpt lat="48.86825560592115" lon="9.278778042644262">
<ele>233.6</ele>
<time>2024-05-12T11:26:39Z</time>
</trkpt>
<trkpt lat="48.868221240118146" lon="9.278800003230572">
<ele>233.8</ele>
<time>2024-05-12T11:26:40Z</time>
</trkpt>
<trkpt lat="48.86818687431514" lon="9.278826657682655">
<ele>234</ele>
<time>2024-05-12T11:26:41Z</time>
</trkpt>
<trkpt lat="48.8681563641876" lon="9.278853395953774">
<ele>234</ele>
<time>2024-05-12T11:26:42Z</time>
</trkpt>
<trkpt lat="48.86812208220363" lon="9.278882900252938">
<ele>234</ele>
<time>2024-05-12T11:26:43Z</time>
</trkpt>
<trkpt lat="48.86809157207608" lon="9.27891818806529">
<ele>234</ele>
<time>2024-05-12T11:26:44Z</time>
</trkpt>
<trkpt lat="48.86805343441665" lon="9.278949704021215">
<ele>234</ele>
<time>2024-05-12T11:26:45Z</time>
</trkpt>
<trkpt lat="48.86801521293819" lon="9.278981136158109">
<ele>234</ele>
<time>2024-05-12T11:26:46Z</time>
</trkpt>
<trkpt lat="48.86797707527876" lon="9.279011646285651">
<ele>233.8</ele>
<time>2024-05-12T11:26:47Z</time>
</trkpt>
<trkpt lat="48.86793893761933" lon="9.279045090079308">
<ele>233.8</ele>
<time>2024-05-12T11:26:48Z</time>
</trkpt>
<trkpt lat="48.8679007999599" lon="9.279081299901009">
<ele>233.8</ele>
<time>2024-05-12T11:26:49Z</time>
</trkpt>
<trkpt lat="48.86786266230047" lon="9.279114659875631">
<ele>233.6</ele>
<time>2024-05-12T11:26:50Z</time>
</trkpt>
<trkpt lat="48.86782452464104" lon="9.279153803363442">
<ele>233.6</ele>
<time>2024-05-12T11:26:51Z</time>
</trkpt>
<trkpt lat="48.867790158838034" lon="9.27919864654541">
<ele>233.6</ele>
<time>2024-05-12T11:26:52Z</time>
</trkpt>
<trkpt lat="48.8677520211786" lon="9.279248183593154">
<ele>233.4</ele>
<time>2024-05-12T11:26:53Z</time>
</trkpt>
<trkpt lat="48.86772151105106" lon="9.27929973229766">
<ele>233.4</ele>
<time>2024-05-12T11:26:54Z</time>
</trkpt>
<trkpt lat="48.86768337339163" lon="9.279353125020862">
<ele>233.4</ele>
<time>2024-05-12T11:26:55Z</time>
</trkpt>
<trkpt lat="48.86765286326408" lon="9.279410289600492">
<ele>233.2</ele>
<time>2024-05-12T11:26:56Z</time>
</trkpt>
<trkpt lat="48.86761849746108" lon="9.279466615989804">
<ele>233.2</ele>
<time>2024-05-12T11:26:57Z</time>
</trkpt>
<trkpt lat="48.867587987333536" lon="9.279522858560084">
<ele>233.2</ele>
<time>2024-05-12T11:26:58Z</time>
</trkpt>
<trkpt lat="48.86755747720599" lon="9.279582956805823">
<ele>233</ele>
<time>2024-05-12T11:26:59Z</time>
</trkpt>
<trkpt lat="48.867530822753906" lon="9.279643055051563">
<ele>233</ele>
<time>2024-05-12T11:27:00Z</time>
</trkpt>
<trkpt lat="48.867507856339216" lon="9.279700219631197">
<ele>233</ele>
<time>2024-05-12T11:27:01Z</time>
</trkpt>
<trkpt lat="48.86748120188713" lon="9.279756546020508">
<ele>232.8</ele>
<time>2024-05-12T11:27:02Z</time>
</trkpt>
<trkpt lat="48.867450691759586" lon="9.279811782762408">
<ele>232.6</ele>
<time>2024-05-12T11:27:03Z</time>
</trkpt>
<trkpt lat="48.86742018163204" lon="9.27986995317042">
<ele>232.4</ele>
<time>2024-05-12T11:27:04Z</time>
</trkpt>
<trkpt lat="48.867393443360925" lon="9.27993005141616">
<ele>232.4</ele>
<time>2024-05-12T11:27:05Z</time>
</trkpt>
<trkpt lat="48.86736293323338" lon="9.27998537197709">
<ele>232.2</ele>
<time>2024-05-12T11:27:06Z</time>
</trkpt>
<trkpt lat="48.86733242310584" lon="9.280037842690945">
<ele>232</ele>
<time>2024-05-12T11:27:07Z</time>
</trkpt>
<trkpt lat="48.86729805730283" lon="9.280093163251877">
<ele>231.8</ele>
<time>2024-05-12T11:27:08Z</time>
</trkpt>
<trkpt lat="48.86726377531886" lon="9.280151333659887">
<ele>231.4</ele>
<time>2024-05-12T11:27:09Z</time>
</trkpt>
<trkpt lat="48.86722563765943" lon="9.280208582058547">
<ele>231.2</ele>
<time>2024-05-12T11:27:10Z</time>
</trkpt>
<trkpt lat="48.86719127185643" lon="9.280273374170063">
<ele>231</ele>
<time>2024-05-12T11:27:11Z</time>
</trkpt>
<trkpt lat="48.86716076172888" lon="9.280346799641848">
<ele>230.8</ele>
<time>2024-05-12T11:27:12Z</time>
</trkpt>
<trkpt lat="48.86713025160134" lon="9.28042315877974">
<ele>230.4</ele>
<time>2024-05-12T11:27:13Z</time>
</trkpt>
<trkpt lat="48.86710736900568" lon="9.280496584251525">
<ele>230.2</ele>
<time>2024-05-12T11:27:14Z</time>
</trkpt>
<trkpt lat="48.86708448641002" lon="9.280571937561035">
<ele>229.8</ele>
<time>2024-05-12T11:27:15Z</time>
</trkpt>
<trkpt lat="48.86706160381436" lon="9.280650056898594">
<ele>229.4</ele>
<time>2024-05-12T11:27:16Z</time>
</trkpt>
<trkpt lat="48.86705012060702" lon="9.280736893415453">
<ele>229</ele>
<time>2024-05-12T11:27:17Z</time>
</trkpt>
<trkpt lat="48.86704634875059" lon="9.280831273645164">
<ele>228.6</ele>
<time>2024-05-12T11:27:18Z</time>
</trkpt>
<trkpt lat="48.86704249307513" lon="9.280924731865523">
<ele>228.2</ele>
<time>2024-05-12T11:27:19Z</time>
</trkpt>
<trkpt lat="48.867038721218705" lon="9.28101534023881">
<ele>227.8</ele>
<time>2024-05-12T11:27:20Z</time>
</trkpt>
<trkpt lat="48.867034865543246" lon="9.281098321080208">
<ele>227.2</ele>
<time>2024-05-12T11:27:21Z</time>
</trkpt>
<trkpt lat="48.86703109368682" lon="9.281178452074528">
<ele>226.8</ele>
<time>2024-05-12T11:27:22Z</time>
</trkpt>
<trkpt lat="48.86702346615493" lon="9.281254727393389">
<ele>226.4</ele>
<time>2024-05-12T11:27:23Z</time>
</trkpt>
<trkpt lat="48.86701583862305" lon="9.281334858387709">
<ele>225.8</ele>
<time>2024-05-12T11:27:24Z</time>
</trkpt>
<trkpt lat="48.86701198294759" lon="9.281414905562997">
<ele>225.4</ele>
<time>2024-05-12T11:27:25Z</time>
</trkpt>
<trkpt lat="48.86701198294759" lon="9.281496964395046">
<ele>224.8</ele>
<time>2024-05-12T11:27:26Z</time>
</trkpt>
<trkpt lat="48.86701583862305" lon="9.281577095389366">
<ele>224.4</ele>
<time>2024-05-12T11:27:27Z</time>
</trkpt>
<trkpt lat="48.86703109368682" lon="9.281649515032768">
<ele>224.2</ele>
<time>2024-05-12T11:27:28Z</time>
</trkpt>
<trkpt lat="48.86705012060702" lon="9.281716318801044">
<ele>223.8</ele>
<time>2024-05-12T11:27:29Z</time>
</trkpt>
<trkpt lat="48.86707300320268" lon="9.28178303875029">
<ele>223.6</ele>
<time>2024-05-12T11:27:30Z</time>
</trkpt>
<trkpt lat="48.867099741473794" lon="9.28184791468084">
<ele>223.4</ele>
<time>2024-05-12T11:27:31Z</time>
</trkpt>
<trkpt lat="48.86712639592588" lon="9.281913712620735">
<ele>223.2</ele>
<time>2024-05-12T11:27:32Z</time>
</trkpt>
<trkpt lat="48.867156906053424" lon="9.281976660713552">
<ele>223</ele>
<time>2024-05-12T11:27:33Z</time>
</trkpt>
<trkpt lat="48.8671875" lon="9.282039608806372">
<ele>223</ele>
<time>2024-05-12T11:27:34Z</time>
</trkpt>
<trkpt lat="48.867218010127544" lon="9.282108256593348">
<ele>222.8</ele>
<time>2024-05-12T11:27:35Z</time>
</trkpt>
<trkpt lat="48.86725229211152" lon="9.282176904380322">
<ele>222.8</ele>
<time>2024-05-12T11:27:36Z</time>
</trkpt>
<trkpt lat="48.86728665791452" lon="9.2822437081486">
<ele>222.8</ele>
<time>2024-05-12T11:27:37Z</time>
</trkpt>
<trkpt lat="48.867317168042064" lon="9.282313277944922">
<ele>222.8</ele>
<time>2024-05-12T11:27:38Z</time>
</trkpt>
<trkpt lat="48.867351450026035" lon="9.282382009550927">
<ele>222.8</ele>
<time>2024-05-12T11:27:39Z</time>
</trkpt>
<trkpt lat="48.8673896715045" lon="9.282448729500176">
<ele>222.8</ele>
<time>2024-05-12T11:27:40Z</time>
</trkpt>
<trkpt lat="48.86742395348847" lon="9.2825164552778">
<ele>222.8</ele>
<time>2024-05-12T11:27:41Z</time>
</trkpt>
<trkpt lat="48.86745831929147" lon="9.282589880749583">
<ele>222.8</ele>
<time>2024-05-12T11:27:42Z</time>
</trkpt>
<trkpt lat="48.86748497374356" lon="9.282665234059095">
<ele>223</ele>
<time>2024-05-12T11:27:43Z</time>
</trkpt>
<trkpt lat="48.8675154838711" lon="9.282741509377956">
<ele>223</ele>
<time>2024-05-12T11:27:44Z</time>
</trkpt>
<trkpt lat="48.86754222214222" lon="9.282818790525198">
<ele>223.4</ele>
<time>2024-05-12T11:27:45Z</time>
</trkpt>
<trkpt lat="48.86756896041334" lon="9.282888360321522">
<ele>223.4</ele>
<time>2024-05-12T11:27:46Z</time>
</trkpt>
<trkpt lat="48.86759561486542" lon="9.282957008108497">
<ele>223.4</ele>
<time>2024-05-12T11:27:47Z</time>
</trkpt>
<trkpt lat="48.86761849746108" lon="9.28303143940866">
<ele>223.6</ele>
<time>2024-05-12T11:27:48Z</time>
</trkpt>
<trkpt lat="48.86764138005674" lon="9.283096231520176">
<ele>223.6</ele>
<time>2024-05-12T11:27:49Z</time>
</trkpt>
<trkpt lat="48.86766049079597" lon="9.283162113279104">
<ele>223.4</ele>
<time>2024-05-12T11:27:50Z</time>
</trkpt>
<trkpt lat="48.86767951771617" lon="9.283227911219">
<ele>223.4</ele>
<time>2024-05-12T11:27:51Z</time>
</trkpt>
<trkpt lat="48.86770248413086" lon="9.283291781321168">
<ele>223.4</ele>
<time>2024-05-12T11:27:52Z</time>
</trkpt>
<trkpt lat="48.867729138582945" lon="9.283351879566908">
<ele>223.4</ele>
<time>2024-05-12T11:27:53Z</time>
</trkpt>
<trkpt lat="48.8677520211786" lon="9.283418599516152">
<ele>223.6</ele>
<time>2024-05-12T11:27:54Z</time>
</trkpt>
<trkpt lat="48.86777490377426" lon="9.283488253131509">
<ele>223.6</ele>
<time>2024-05-12T11:27:55Z</time>
</trkpt>
<trkpt lat="48.86779401451349" lon="9.283556900918484">
<ele>223.6</ele>
<time>2024-05-12T11:27:56Z</time>
</trkpt>
<trkpt lat="48.86781689710915" lon="9.28362362086773">
<ele>223.6</ele>
<time>2024-05-12T11:27:57Z</time>
</trkpt>
<trkpt lat="48.86783215217292" lon="9.283693274483085">
<ele>223.6</ele>
<time>2024-05-12T11:27:58Z</time>
</trkpt>
<trkpt lat="48.86785503476858" lon="9.283764772117138">
<ele>223.8</ele>
<time>2024-05-12T11:27:59Z</time>
</trkpt>
<trkpt lat="48.867866434156895" lon="9.283835347741842">
<ele>223.6</ele>
<time>2024-05-12T11:28:00Z</time>
</trkpt>
<trkpt lat="48.86787791736424" lon="9.28390022367239">
<ele>223.4</ele>
<time>2024-05-12T11:28:01Z</time>
</trkpt>
<trkpt lat="48.86789317242801" lon="9.2839583940804">
<ele>223.4</ele>
<time>2024-05-12T11:28:02Z</time>
</trkpt>
<trkpt lat="48.86790465563536" lon="9.28401849232614">
<ele>223.2</ele>
<time>2024-05-12T11:28:03Z</time>
</trkpt>
<trkpt lat="48.86791605502367" lon="9.28407859057188">
<ele>223.2</ele>
<time>2024-05-12T11:28:04Z</time>
</trkpt>
<trkpt lat="48.86791991069913" lon="9.284145310521126">
<ele>223.2</ele>
<time>2024-05-12T11:28:05Z</time>
</trkpt>
<trkpt lat="48.86793131008744" lon="9.284208258613944">
<ele>223</ele>
<time>2024-05-12T11:28:06Z</time>
</trkpt>
<trkpt lat="48.8679351657629" lon="9.28427497856319">
<ele>223.2</ele>
<time>2024-05-12T11:28:07Z</time>
</trkpt>
<trkpt lat="48.86793893761933" lon="9.284341782331468">
<ele>223</ele>
<time>2024-05-12T11:28:08Z</time>
</trkpt>
<trkpt lat="48.86794279329479" lon="9.284416129812598">
<ele>223.2</ele>
<time>2024-05-12T11:28:09Z</time>
</trkpt>
<trkpt lat="48.867946565151215" lon="9.28448955528438">
<ele>223</ele>
<time>2024-05-12T11:28:10Z</time>
</trkpt>
<trkpt lat="48.86795042082667" lon="9.284560130909083">
<ele>223</ele>
<time>2024-05-12T11:28:11Z</time>
</trkpt>
<trkpt lat="48.8679541926831" lon="9.284627856686711">
<ele>223</ele>
<time>2024-05-12T11:28:12Z</time>
</trkpt>
<trkpt lat="48.86795804835856" lon="9.284694660454988">
<ele>223</ele>
<time>2024-05-12T11:28:13Z</time>
</trkpt>
<trkpt lat="48.867965675890446" lon="9.284761380404234">
<ele>223.2</ele>
<time>2024-05-12T11:28:14Z</time>
</trkpt>
<trkpt lat="48.86797330342233" lon="9.284830028191209">
<ele>223.2</ele>
<time>2024-05-12T11:28:15Z</time>
</trkpt>
<trkpt lat="48.86797330342233" lon="9.284899681806564">
<ele>223.2</ele>
<time>2024-05-12T11:28:16Z</time>
</trkpt>
<trkpt lat="48.86797330342233" lon="9.284973107278349">
<ele>223.2</ele>
<time>2024-05-12T11:28:17Z</time>
</trkpt>
<trkpt lat="48.86798093095422" lon="9.2850446049124">
<ele>223.4</ele>
<time>2024-05-12T11:28:18Z</time>
</trkpt>
<trkpt lat="48.867988558486104" lon="9.285116186365483">
<ele>223.4</ele>
<time>2024-05-12T11:28:19Z</time>
</trkpt>
<trkpt lat="48.867988558486104" lon="9.28518676199019">
<ele>223.6</ele>
<time>2024-05-12T11:28:20Z</time>
</trkpt>
<trkpt lat="48.86799995787442" lon="9.285256331786512">
<ele>223.6</ele>
<time>2024-05-12T11:28:21Z</time>
</trkpt>
<trkpt lat="48.8680075854063" lon="9.285324979573488">
<ele>223.6</ele>
<time>2024-05-12T11:28:22Z</time>
</trkpt>
<trkpt lat="48.86801144108176" lon="9.285393711179497">
<ele>223.6</ele>
<time>2024-05-12T11:28:23Z</time>
</trkpt>
<trkpt lat="48.8680075854063" lon="9.28545850329101">
<ele>223.6</ele>
<time>2024-05-12T11:28:24Z</time>
</trkpt>
<trkpt lat="48.86800381354987" lon="9.28552145138383">
<ele>223.6</ele>
<time>2024-05-12T11:28:25Z</time>
</trkpt>
<trkpt lat="48.86799618601799" lon="9.285586327314377">
<ele>223.4</ele>
<time>2024-05-12T11:28:26Z</time>
</trkpt>
<trkpt lat="48.867988558486104" lon="9.285646425560117">
<ele>223.4</ele>
<time>2024-05-12T11:28:27Z</time>
</trkpt>
<trkpt lat="48.86798093095422" lon="9.28569789044559">
<ele>223.2</ele>
<time>2024-05-12T11:28:28Z</time>
</trkpt>
<trkpt lat="48.86797707527876" lon="9.28575698286295">
<ele>223.2</ele>
<time>2024-05-12T11:28:29Z</time>
</trkpt>
<trkpt lat="48.86796944774687" lon="9.285826636478305">
<ele>223.2</ele>
<time>2024-05-12T11:28:30Z</time>
</trkpt>
<trkpt lat="48.867965675890446" lon="9.28589528426528">
<ele>223.2</ele>
<time>2024-05-12T11:28:31Z</time>
</trkpt>
<trkpt lat="48.86796182021499" lon="9.285962088033555">
<ele>223.4</ele>
<time>2024-05-12T11:28:32Z</time>
</trkpt>
<trkpt lat="48.86795804835856" lon="9.286027885973454">
<ele>223.6</ele>
<time>2024-05-12T11:28:33Z</time>
</trkpt>
<trkpt lat="48.86795042082667" lon="9.2860946059227">
<ele>223.8</ele>
<time>2024-05-12T11:28:34Z</time>
</trkpt>
<trkpt lat="48.867946565151215" lon="9.286161409690976">
<ele>223.8</ele>
<time>2024-05-12T11:28:35Z</time>
</trkpt>
<trkpt lat="48.8679351657629" lon="9.286225279793143">
<ele>223.8</ele>
<time>2024-05-12T11:28:36Z</time>
</trkpt>
<trkpt lat="48.86792368255555" lon="9.286290155723693">
<ele>224</ele>
<time>2024-05-12T11:28:37Z</time>
</trkpt>
<trkpt lat="48.86791228316724" lon="9.28635310381651">
<ele>224.2</ele>
<time>2024-05-12T11:28:38Z</time>
</trkpt>
<trkpt lat="48.8679007999599" lon="9.286416973918676">
<ele>224.2</ele>
<time>2024-05-12T11:28:39Z</time>
</trkpt>
<trkpt lat="48.867889400571585" lon="9.286477072164416">
<ele>224.2</ele>
<time>2024-05-12T11:28:40Z</time>
</trkpt>
<trkpt lat="48.86787414550781" lon="9.286541864275932">
<ele>223.8</ele>
<time>2024-05-12T11:28:41Z</time>
</trkpt>
<trkpt lat="48.86785880662501" lon="9.28660866804421">
<ele>223.4</ele>
<time>2024-05-12T11:28:42Z</time>
</trkpt>
<trkpt lat="48.86783977970481" lon="9.286676393821836">
<ele>223.4</ele>
<time>2024-05-12T11:28:43Z</time>
</trkpt>
<trkpt lat="48.86782066896558" lon="9.286741185933352">
<ele>223.2</ele>
<time>2024-05-12T11:28:44Z</time>
</trkpt>
<trkpt lat="48.86780164204538" lon="9.286806983873248">
<ele>223.2</ele>
<time>2024-05-12T11:28:45Z</time>
</trkpt>
<trkpt lat="48.86777875944972" lon="9.286869931966066">
<ele>223.2</ele>
<time>2024-05-12T11:28:46Z</time>
</trkpt>
<trkpt lat="48.86775587685406" lon="9.286931958049536">
<ele>223</ele>
<time>2024-05-12T11:28:47Z</time>
</trkpt>
<trkpt lat="48.867729138582945" lon="9.286992978304625">
<ele>223.2</ele>
<time>2024-05-12T11:28:48Z</time>
</trkpt>
<trkpt lat="48.86770248413086" lon="9.287057854235172">
<ele>223.2</ele>
<time>2024-05-12T11:28:49Z</time>
</trkpt>
<trkpt lat="48.86767574585974" lon="9.28712172433734">
<ele>223.2</ele>
<time>2024-05-12T11:28:50Z</time>
</trkpt>
<trkpt lat="48.86765286326408" lon="9.287190372124314">
<ele>223</ele>
<time>2024-05-12T11:28:51Z</time>
</trkpt>
<trkpt lat="48.86762235313654" lon="9.287255248054862">
<ele>223</ele>
<time>2024-05-12T11:28:52Z</time>
</trkpt>
<trkpt lat="48.86759561486542" lon="9.28732012398541">
<ele>223</ele>
<time>2024-05-12T11:28:53Z</time>
</trkpt>
<trkpt lat="48.86756510473788" lon="9.287383072078228">
<ele>223.2</ele>
<time>2024-05-12T11:28:54Z</time>
</trkpt>
<trkpt lat="48.86753845028579" lon="9.287447864189744">
<ele>223</ele>
<time>2024-05-12T11:28:55Z</time>
</trkpt>
<trkpt lat="48.8675154838711" lon="9.28751366212964">
<ele>223</ele>
<time>2024-05-12T11:28:56Z</time>
</trkpt>
<trkpt lat="48.8674964569509" lon="9.287571832537653">
<ele>222.8</ele>
<time>2024-05-12T11:28:57Z</time>
</trkpt>
<trkpt lat="48.86746594682336" lon="9.287623381242156">
<ele>222.8</ele>
<time>2024-05-12T11:28:58Z</time>
</trkpt>
<trkpt lat="48.867431581020355" lon="9.287671996280553">
<ele>222.6</ele>
<time>2024-05-12T11:28:59Z</time>
</trkpt>
<trkpt lat="48.86740107089281" lon="9.287725389003754">
<ele>222.6</ele>
<time>2024-05-12T11:29:00Z</time>
</trkpt>
<trkpt lat="48.867374416440725" lon="9.28777500987053">
<ele>222.6</ele>
<time>2024-05-12T11:29:01Z</time>
</trkpt>
<trkpt lat="48.86734382249415" lon="9.287824630737305">
<ele>222.4</ele>
<time>2024-05-12T11:29:02Z</time>
</trkpt>
<trkpt lat="48.867313312366605" lon="9.287875173613427">
<ele>222.2</ele>
<time>2024-05-12T11:29:03Z</time>
</trkpt>
<trkpt lat="48.86727903038263" lon="9.28792948834598">
<ele>222.2</ele>
<time>2024-05-12T11:29:04Z</time>
</trkpt>
<trkpt lat="48.86724852025509" lon="9.287981959059834">
<ele>222</ele>
<time>2024-05-12T11:29:05Z</time>
</trkpt>
<trkpt lat="48.867214154452085" lon="9.28802965208888">
<ele>221.8</ele>
<time>2024-05-12T11:29:06Z</time>
</trkpt>
<trkpt lat="48.86718364432454" lon="9.288071561604738">
<ele>221.6</ele>
<time>2024-05-12T11:29:07Z</time>
</trkpt>
<trkpt lat="48.867153134197" lon="9.288118332624435">
<ele>221.6</ele>
<time>2024-05-12T11:29:08Z</time>
</trkpt>
<trkpt lat="48.867114996537566" lon="9.28816694766283">
<ele>221.4</ele>
<time>2024-05-12T11:29:09Z</time>
</trkpt>
<trkpt lat="48.86708448641002" lon="9.288214640691876">
<ele>221.4</ele>
<time>2024-05-12T11:29:10Z</time>
</trkpt>
<trkpt lat="48.86705012060702" lon="9.288265183568">
<ele>221.4</ele>
<time>2024-05-12T11:29:11Z</time>
</trkpt>
<trkpt lat="48.86700812727213" lon="9.288318576291203">
<ele>221.4</ele>
<time>2024-05-12T11:29:12Z</time>
</trkpt>
<trkpt lat="48.8669699896127" lon="9.288370124995708">
<ele>221.4</ele>
<time>2024-05-12T11:29:13Z</time>
</trkpt>
<trkpt lat="48.86693185195327" lon="9.288416812196374">
<ele>221.4</ele>
<time>2024-05-12T11:29:14Z</time>
</trkpt>
<trkpt lat="48.8668975699693" lon="9.288459727540612">
<ele>221.4</ele>
<time>2024-05-12T11:29:15Z</time>
</trkpt>
<trkpt lat="48.866859432309866" lon="9.288501720875502">
<ele>221.4</ele>
<time>2024-05-12T11:29:16Z</time>
</trkpt>
<trkpt lat="48.86682506650686" lon="9.288546480238438">
<ele>221.4</ele>
<time>2024-05-12T11:29:17Z</time>
</trkpt>
<trkpt lat="48.86679070070386" lon="9.288588473573329">
<ele>221.4</ele>
<time>2024-05-12T11:29:18Z</time>
</trkpt>
<trkpt lat="48.86675256304443" lon="9.288629461079836">
<ele>221.2</ele>
<time>2024-05-12T11:29:19Z</time>
</trkpt>
<trkpt lat="48.866714425385" lon="9.288676232099531">
<ele>221.4</ele>
<time>2024-05-12T11:29:20Z</time>
</trkpt>
<trkpt lat="48.86667251586914" lon="9.28872006945312">
<ele>221.6</ele>
<time>2024-05-12T11:29:21Z</time>
</trkpt>
<trkpt lat="48.866622895002365" lon="9.28876206278801">
<ele>221.6</ele>
<time>2024-05-12T11:29:22Z</time>
</trkpt>
<trkpt lat="48.86657327413559" lon="9.288801122456787">
<ele>221.8</ele>
<time>2024-05-12T11:29:23Z</time>
</trkpt>
<trkpt lat="48.86652750894427" lon="9.288841187953947">
<ele>222</ele>
<time>2024-05-12T11:29:24Z</time>
</trkpt>
<trkpt lat="48.86648174375296" lon="9.2888764757663">
<ele>222</ele>
<time>2024-05-12T11:29:25Z</time>
</trkpt>
<trkpt lat="48.86643212288618" lon="9.288913691416385">
<ele>222.2</ele>
<time>2024-05-12T11:29:26Z</time>
</trkpt>
<trkpt lat="48.86639021337032" lon="9.288943279534578">
<ele>222.2</ele>
<time>2024-05-12T11:29:27Z</time>
</trkpt>
<trkpt lat="48.866348220035434" lon="9.288972783833742">
<ele>222.2</ele>
<time>2024-05-12T11:29:28Z</time>
</trkpt>
<trkpt lat="48.866310082376" lon="9.289003293961288">
<ele>222.2</ele>
<time>2024-05-12T11:29:29Z</time>
</trkpt>
<trkpt lat="48.866268089041114" lon="9.289034809917212">
<ele>222.4</ele>
<time>2024-05-12T11:29:30Z</time>
</trkpt>
<trkpt lat="48.866226179525256" lon="9.289066242054105">
<ele>222.2</ele>
<time>2024-05-12T11:29:31Z</time>
</trkpt>
<trkpt lat="48.86618418619037" lon="9.289094908162951">
<ele>222.2</ele>
<time>2024-05-12T11:29:32Z</time>
</trkpt>
<trkpt lat="48.86614219285548" lon="9.289121562615035">
<ele>222</ele>
<time>2024-05-12T11:29:33Z</time>
</trkpt>
<trkpt lat="48.86610028333962" lon="9.289150228723884">
<ele>222.2</ele>
<time>2024-05-12T11:29:34Z</time>
</trkpt>
<trkpt lat="48.86605829000473" lon="9.289179733023047">
<ele>222.2</ele>
<time>2024-05-12T11:29:35Z</time>
</trkpt>
<trkpt lat="48.86601638048887" lon="9.289208399131894">
<ele>222.4</ele>
<time>2024-05-12T11:29:36Z</time>
</trkpt>
<trkpt lat="48.86597438715398" lon="9.28923505358398">
<ele>222.4</ele>
<time>2024-05-12T11:29:37Z</time>
</trkpt>
<trkpt lat="48.86593624949455" lon="9.289264641702175">
<ele>222.6</ele>
<time>2024-05-12T11:29:38Z</time>
</trkpt>
<trkpt lat="48.86589811183512" lon="9.28929322399199">
<ele>222.8</ele>
<time>2024-05-12T11:29:39Z</time>
</trkpt>
<trkpt lat="48.86585611850023" lon="9.289323734119534">
<ele>223</ele>
<time>2024-05-12T11:29:40Z</time>
</trkpt>
<trkpt lat="48.8658179808408" lon="9.289349550381305">
<ele>223</ele>
<time>2024-05-12T11:29:41Z</time>
</trkpt>
<trkpt lat="48.86577984318137" lon="9.289378132671118">
<ele>223.2</ele>
<time>2024-05-12T11:29:42Z</time>
</trkpt>
<trkpt lat="48.86574547737837" lon="9.289406714960933">
<ele>223.4</ele>
<time>2024-05-12T11:29:43Z</time>
</trkpt>
<trkpt lat="48.865714967250824" lon="9.289428675547242">
<ele>223.6</ele>
<time>2024-05-12T11:29:44Z</time>
</trkpt>
<trkpt lat="48.86568445712328" lon="9.2894515581429">
<ele>223.8</ele>
<time>2024-05-12T11:29:45Z</time>
</trkpt>
<trkpt lat="48.865657802671194" lon="9.289480140432715">
<ele>223.8</ele>
<time>2024-05-12T11:29:46Z</time>
</trkpt>
<trkpt lat="48.86563106440008" lon="9.289508806541562">
<ele>224</ele>
<time>2024-05-12T11:29:47Z</time>
</trkpt>
<trkpt lat="48.86560818180442" lon="9.289536466822028">
<ele>224.4</ele>
<time>2024-05-12T11:29:48Z</time>
</trkpt>
<trkpt lat="48.865577671676874" lon="9.289565049111845">
<ele>224.4</ele>
<time>2024-05-12T11:29:49Z</time>
</trkpt>
<trkpt lat="48.86554716154933" lon="9.28959178738296">
<ele>224.6</ele>
<time>2024-05-12T11:29:50Z</time>
</trkpt>
<trkpt lat="48.865516651421785" lon="9.289611736312509">
<ele>224.8</ele>
<time>2024-05-12T11:29:51Z</time>
</trkpt>
<trkpt lat="48.86548991315067" lon="9.2896347027272">
<ele>224.8</ele>
<time>2024-05-12T11:29:52Z</time>
</trkpt>
<trkpt lat="48.86545940302312" lon="9.289658507332206">
<ele>225</ele>
<time>2024-05-12T11:29:53Z</time>
</trkpt>
<trkpt lat="48.86542889289558" lon="9.289683317765594">
<ele>225.2</ele>
<time>2024-05-12T11:29:54Z</time>
</trkpt>
<trkpt lat="48.86540601029992" lon="9.289714749902489">
<ele>225.2</ele>
<time>2024-05-12T11:29:55Z</time>
</trkpt>
<trkpt lat="48.86538312770426" lon="9.289752887561916">
<ele>225.4</ele>
<time>2024-05-12T11:29:56Z</time>
</trkpt>
<trkpt lat="48.86536024510861" lon="9.289792953059075">
<ele>225.6</ele>
<time>2024-05-12T11:29:57Z</time>
</trkpt>
<trkpt lat="48.86533350683749" lon="9.289832096546888">
<ele>225.8</ele>
<time>2024-05-12T11:29:58Z</time>
</trkpt>
<trkpt lat="48.8653068523854" lon="9.289871156215668">
<ele>226.2</ele>
<time>2024-05-12T11:29:59Z</time>
</trkpt>
<trkpt lat="48.86528774164617" lon="9.289913149550555">
<ele>226.6</ele>
<time>2024-05-12T11:30:00Z</time>
</trkpt>
<trkpt lat="48.86526863090694" lon="9.289956986904144">
<ele>226.8</ele>
<time>2024-05-12T11:30:01Z</time>
</trkpt>
<trkpt lat="48.86525337584317" lon="9.289999902248384">
<ele>227</ele>
<time>2024-05-12T11:30:02Z</time>
</trkpt>
<trkpt lat="48.86523049324751" lon="9.29004281759262">
<ele>227.2</ele>
<time>2024-05-12T11:30:03Z</time>
</trkpt>
<trkpt lat="48.86521146632731" lon="9.290088582783936">
<ele>227.4</ele>
<time>2024-05-12T11:30:04Z</time>
</trkpt>
<trkpt lat="48.865199983119965" lon="9.290135353803636">
<ele>227.6</ele>
<time>2024-05-12T11:30:05Z</time>
</trkpt>
<trkpt lat="48.865180956199765" lon="9.29018304683268">
<ele>228</ele>
<time>2024-05-12T11:30:06Z</time>
</trkpt>
<trkpt lat="48.86516570113599" lon="9.290231661871076">
<ele>228.2</ele>
<time>2024-05-12T11:30:07Z</time>
</trkpt>
<trkpt lat="48.86514659039676" lon="9.290278432890773">
<ele>228.6</ele>
<time>2024-05-12T11:30:08Z</time>
</trkpt>
<trkpt lat="48.86513519100845" lon="9.29032034240663">
<ele>229</ele>
<time>2024-05-12T11:30:09Z</time>
</trkpt>
<trkpt lat="48.865119852125645" lon="9.29035848006606">
<ele>229.2</ele>
<time>2024-05-12T11:30:10Z</time>
</trkpt>
<trkpt lat="48.86510459706187" lon="9.29039854556322">
<ele>229.4</ele>
<time>2024-05-12T11:30:11Z</time>
</trkpt>
<trkpt lat="48.86508557014167" lon="9.290443388745189">
<ele>229.8</ele>
<time>2024-05-12T11:30:12Z</time>
</trkpt>
<trkpt lat="48.865062687546015" lon="9.290483454242349">
<ele>230.2</ele>
<time>2024-05-12T11:30:13Z</time>
</trkpt>
<trkpt lat="48.865043576806784" lon="9.290525363758206">
<ele>230.4</ele>
<time>2024-05-12T11:30:14Z</time>
</trkpt>
<trkpt lat="48.86502832174301" lon="9.290571212768556">
<ele>230.6</ele>
<time>2024-05-12T11:30:15Z</time>
</trkpt>
<trkpt lat="48.86501306667924" lon="9.290613122284412">
<ele>231</ele>
<time>2024-05-12T11:30:16Z</time>
</trkpt>
<trkpt lat="48.86499403975904" lon="9.290651259943845">
<ele>231</ele>
<time>2024-05-12T11:30:17Z</time>
</trkpt>
<trkpt lat="48.86497878469527" lon="9.290690403431654">
<ele>231.2</ele>
<time>2024-05-12T11:30:18Z</time>
</trkpt>
<trkpt lat="48.86495967395604" lon="9.290726613253357">
<ele>231.4</ele>
<time>2024-05-12T11:30:19Z</time>
</trkpt>
<trkpt lat="48.864944418892264" lon="9.290762823075056">
<ele>231.4</ele>
<time>2024-05-12T11:30:20Z</time>
</trkpt>
<trkpt lat="48.86492916382849" lon="9.290802888572216">
<ele>231.8</ele>
<time>2024-05-12T11:30:21Z</time>
</trkpt>
<trkpt lat="48.86491768062115" lon="9.290840104222298">
<ele>232</ele>
<time>2024-05-12T11:30:22Z</time>
</trkpt>
<trkpt lat="48.864906281232834" lon="9.290876314044">
<ele>232.2</ele>
<time>2024-05-12T11:30:23Z</time>
</trkpt>
<trkpt lat="48.86489479802549" lon="9.29091453552246">
<ele>232.6</ele>
<time>2024-05-12T11:30:24Z</time>
</trkpt>
<trkpt lat="48.86487954296172" lon="9.29095359519124">
<ele>233</ele>
<time>2024-05-12T11:30:25Z</time>
</trkpt>
<trkpt lat="48.8648681435734" lon="9.29099173285067">
<ele>233.4</ele>
<time>2024-05-12T11:30:26Z</time>
</trkpt>
<trkpt lat="48.86485666036606" lon="9.29103179834783">
<ele>233.6</ele>
<time>2024-05-12T11:30:27Z</time>
</trkpt>
<trkpt lat="48.86484903283417" lon="9.29107186384499">
<ele>233.4</ele>
<time>2024-05-12T11:30:28Z</time>
</trkpt>
<trkpt lat="48.86483763344586" lon="9.29111000150442">
<ele>233.4</ele>
<time>2024-05-12T11:30:29Z</time>
</trkpt>
<trkpt lat="48.86482237838209" lon="9.291146211326122">
<ele>233.4</ele>
<time>2024-05-12T11:30:30Z</time>
</trkpt>
<trkpt lat="48.864807123318315" lon="9.291181499138474">
<ele>233.6</ele>
<time>2024-05-12T11:30:31Z</time>
</trkpt>
<trkpt lat="48.86478801257908" lon="9.291216786950828">
<ele>233.8</ele>
<time>2024-05-12T11:30:32Z</time>
</trkpt>
<trkpt lat="48.86476890183985" lon="9.291256852447988">
<ele>233.8</ele>
<time>2024-05-12T11:30:33Z</time>
</trkpt>
<trkpt lat="48.86474987491965" lon="9.291297839954495">
<ele>234</ele>
<time>2024-05-12T11:30:34Z</time>
</trkpt>
<trkpt lat="48.864726992323995" lon="9.291343688964844">
<ele>234.2</ele>
<time>2024-05-12T11:30:35Z</time>
</trkpt>
<trkpt lat="48.86471173726022" lon="9.291393226012588">
<ele>234.4</ele>
<time>2024-05-12T11:30:36Z</time>
</trkpt>
<trkpt lat="48.86469648219645" lon="9.29144661873579">
<ele>234.4</ele>
<time>2024-05-12T11:30:37Z</time>
</trkpt>
<trkpt lat="48.864684998989105" lon="9.291501939296722">
<ele>234.6</ele>
<time>2024-05-12T11:30:38Z</time>
</trkpt>
<trkpt lat="48.86467359960079" lon="9.291556337848306">
<ele>234.8</ele>
<time>2024-05-12T11:30:39Z</time>
</trkpt>
<trkpt lat="48.864665972068906" lon="9.291613502427936">
<ele>235</ele>
<time>2024-05-12T11:30:40Z</time>
</trkpt>
<trkpt lat="48.86465448886156" lon="9.291669828817248">
<ele>235</ele>
<time>2024-05-12T11:30:41Z</time>
</trkpt>
<trkpt lat="48.86464308947325" lon="9.291726993396878">
<ele>235</ele>
<time>2024-05-12T11:30:42Z</time>
</trkpt>
<trkpt lat="48.8646316062659" lon="9.291781391948462">
<ele>235.2</ele>
<time>2024-05-12T11:30:43Z</time>
</trkpt>
<trkpt lat="48.864623978734016" lon="9.291836712509394">
<ele>235.4</ele>
<time>2024-05-12T11:30:44Z</time>
</trkpt>
<trkpt lat="48.86461635120213" lon="9.291892033070326">
<ele>235.4</ele>
<time>2024-05-12T11:30:45Z</time>
</trkpt>
<trkpt lat="48.86460872367024" lon="9.291946347802876">
<ele>235.6</ele>
<time>2024-05-12T11:30:46Z</time>
</trkpt>
<trkpt lat="48.86460109613836" lon="9.292004518210888">
<ele>235.8</ele>
<time>2024-05-12T11:30:47Z</time>
</trkpt>
<trkpt lat="48.86459346860647" lon="9.29206369444728">
<ele>235.8</ele>
<time>2024-05-12T11:30:48Z</time>
</trkpt>
<trkpt lat="48.8645782135427" lon="9.29212186485529">
<ele>235.8</ele>
<time>2024-05-12T11:30:49Z</time>
</trkpt>
<trkpt lat="48.864570586010814" lon="9.29218196310103">
<ele>235.8</ele>
<time>2024-05-12T11:30:50Z</time>
</trkpt>
<trkpt lat="48.86455910280347" lon="9.29224013350904">
<ele>236</ele>
<time>2024-05-12T11:30:51Z</time>
</trkpt>
<trkpt lat="48.86455147527158" lon="9.292300147935748">
<ele>236.2</ele>
<time>2024-05-12T11:30:52Z</time>
</trkpt>
<trkpt lat="48.86454007588327" lon="9.292363096028566">
<ele>236.2</ele>
<time>2024-05-12T11:30:53Z</time>
</trkpt>
<trkpt lat="48.86453244835138" lon="9.292421266436577">
<ele>236.4</ele>
<time>2024-05-12T11:30:54Z</time>
</trkpt>
<trkpt lat="48.8645248208195" lon="9.292474742978811">
<ele>236.4</ele>
<time>2024-05-12T11:30:55Z</time>
</trkpt>
<trkpt lat="48.86451719328761" lon="9.292528135702014">
<ele>236.6</ele>
<time>2024-05-12T11:30:56Z</time>
</trkpt>
<trkpt lat="48.86451333761215" lon="9.292583456262946">
<ele>236.6</ele>
<time>2024-05-12T11:30:57Z</time>
</trkpt>
<trkpt lat="48.864509565755725" lon="9.292638776823878">
<ele>236.8</ele>
<time>2024-05-12T11:30:58Z</time>
</trkpt>
<trkpt lat="48.864505710080266" lon="9.29269309155643">
<ele>237</ele>
<time>2024-05-12T11:30:59Z</time>
</trkpt>
<trkpt lat="48.86449808254838" lon="9.292748412117362">
<ele>237.4</ele>
<time>2024-05-12T11:31:00Z</time>
</trkpt>
<trkpt lat="48.86449431069195" lon="9.292804654687645">
<ele>237.6</ele>
<time>2024-05-12T11:31:01Z</time>
</trkpt>
<trkpt lat="48.864490455016494" lon="9.292859975248575">
<ele>237.8</ele>
<time>2024-05-12T11:31:02Z</time>
</trkpt>
<trkpt lat="48.86448668316007" lon="9.292916217818856">
<ele>238</ele>
<time>2024-05-12T11:31:03Z</time>
</trkpt>
<trkpt lat="48.86448282748461" lon="9.29296969436109">
<ele>238.2</ele>
<time>2024-05-12T11:31:04Z</time>
</trkpt>
<trkpt lat="48.86447519995272" lon="9.293023087084292">
<ele>238.4</ele>
<time>2024-05-12T11:31:05Z</time>
</trkpt>
<trkpt lat="48.864471428096294" lon="9.293078407645226">
<ele>238.4</ele>
<time>2024-05-12T11:31:06Z</time>
</trkpt>
<trkpt lat="48.864467572420835" lon="9.293131800368428">
<ele>238.6</ele>
<time>2024-05-12T11:31:07Z</time>
</trkpt>
<trkpt lat="48.86446380056441" lon="9.29318997077644">
<ele>238.8</ele>
<time>2024-05-12T11:31:08Z</time>
</trkpt>
<trkpt lat="48.86445994488895" lon="9.29324621334672">
<ele>238.8</ele>
<time>2024-05-12T11:31:09Z</time>
</trkpt>
<trkpt lat="48.86445994488895" lon="9.29330346174538">
<ele>238.8</ele>
<time>2024-05-12T11:31:10Z</time>
</trkpt>
<trkpt lat="48.86445994488895" lon="9.293356854468584">
<ele>239</ele>
<time>2024-05-12T11:31:11Z</time>
</trkpt>
<trkpt lat="48.86445994488895" lon="9.293413097038863">
<ele>239.2</ele>
<time>2024-05-12T11:31:12Z</time>
</trkpt>
<trkpt lat="48.86445994488895" lon="9.293470345437528">
<ele>239.2</ele>
<time>2024-05-12T11:31:13Z</time>
</trkpt>
<trkpt lat="48.86446380056441" lon="9.293529437854886">
<ele>239.4</ele>
<time>2024-05-12T11:31:14Z</time>
</trkpt>
<trkpt lat="48.86446380056441" lon="9.293591463938355">
<ele>239.6</ele>
<time>2024-05-12T11:31:15Z</time>
</trkpt>
<trkpt lat="48.864471428096294" lon="9.293655334040524">
<ele>239.6</ele>
<time>2024-05-12T11:31:16Z</time>
</trkpt>
<trkpt lat="48.86447905562818" lon="9.293714510276914">
<ele>239.8</ele>
<time>2024-05-12T11:31:17Z</time>
</trkpt>
<trkpt lat="48.86448668316007" lon="9.293765053153038">
<ele>239.8</ele>
<time>2024-05-12T11:31:18Z</time>
</trkpt>
<trkpt lat="48.86449808254838" lon="9.293809812515974">
<ele>239.8</ele>
<time>2024-05-12T11:31:19Z</time>
</trkpt>
<trkpt lat="48.86451333761215" lon="9.293851805850863">
<ele>239.8</ele>
<time>2024-05-12T11:31:20Z</time>
</trkpt>
<trkpt lat="48.86452859267592" lon="9.293889943510294">
<ele>240</ele>
<time>2024-05-12T11:31:21Z</time>
</trkpt>
<trkpt lat="48.8645438477397" lon="9.293928081169724">
<ele>240</ele>
<time>2024-05-12T11:31:22Z</time>
</trkpt>
<trkpt lat="48.86455910280347" lon="9.293968146666884">
<ele>240</ele>
<time>2024-05-12T11:31:23Z</time>
</trkpt>
<trkpt lat="48.8645782135427" lon="9.294012067839503">
<ele>240</ele>
<time>2024-05-12T11:31:24Z</time>
</trkpt>
<trkpt lat="48.86459346860647" lon="9.294048277661204">
<ele>240</ele>
<time>2024-05-12T11:31:25Z</time>
</trkpt>
<trkpt lat="48.864604867994785" lon="9.294081637635829">
<ele>239.8</ele>
<time>2024-05-12T11:31:26Z</time>
</trkpt>
<trkpt lat="48.86462020687759" lon="9.294117847457528">
<ele>239.8</ele>
<time>2024-05-12T11:31:27Z</time>
</trkpt>
<trkpt lat="48.86463546194136" lon="9.29415699094534">
<ele>239.6</ele>
<time>2024-05-12T11:31:28Z</time>
</trkpt>
<trkpt lat="48.864650717005134" lon="9.294201834127309">
<ele>239.4</ele>
<time>2024-05-12T11:31:29Z</time>
</trkpt>
<trkpt lat="48.86466974392533" lon="9.294250449165702">
<ele>239.4</ele>
<time>2024-05-12T11:31:30Z</time>
</trkpt>
<trkpt lat="48.86468885466456" lon="9.294296214357018">
<ele>239.2</ele>
<time>2024-05-12T11:31:31Z</time>
</trkpt>
<trkpt lat="48.86471173726022" lon="9.294342985376716">
<ele>239.2</ele>
<time>2024-05-12T11:31:32Z</time>
</trkpt>
<trkpt lat="48.86474224738777" lon="9.294382967054844">
<ele>239.2</ele>
<time>2024-05-12T11:31:33Z</time>
</trkpt>
<trkpt lat="48.86477652937174" lon="9.294422110542657">
<ele>239.2</ele>
<time>2024-05-12T11:31:34Z</time>
</trkpt>
<trkpt lat="48.86481089517474" lon="9.294456476345658">
<ele>239.2</ele>
<time>2024-05-12T11:31:35Z</time>
</trkpt>
<trkpt lat="48.864841405302286" lon="9.29448983632028">
<ele>239.2</ele>
<time>2024-05-12T11:31:36Z</time>
</trkpt>
<trkpt lat="48.8648871704936" lon="9.294516490772368">
<ele>239.2</ele>
<time>2024-05-12T11:31:37Z</time>
</trkpt>
<trkpt lat="48.86492916382849" lon="9.294547000899913">
<ele>239.2</ele>
<time>2024-05-12T11:31:38Z</time>
</trkpt>
<trkpt lat="48.864982556551695" lon="9.294568039476871">
<ele>239.2</ele>
<time>2024-05-12T11:31:39Z</time>
</trkpt>
<trkpt lat="48.86502832174301" lon="9.294594693928955">
<ele>239</ele>
<time>2024-05-12T11:31:40Z</time>
</trkpt>
<trkpt lat="48.86507408693433" lon="9.294628137722611">
<ele>238.8</ele>
<time>2024-05-12T11:31:41Z</time>
</trkpt>
<trkpt lat="48.86511608026922" lon="9.294661497697234">
<ele>238.6</ele>
<time>2024-05-12T11:31:42Z</time>
</trkpt>
<trkpt lat="48.86515807360411" lon="9.29469200782478">
<ele>238.4</ele>
<time>2024-05-12T11:31:43Z</time>
</trkpt>
<trkpt lat="48.865199983119965" lon="9.294719668105245">
<ele>238.2</ele>
<time>2024-05-12T11:31:44Z</time>
</trkpt>
<trkpt lat="48.86523434892297" lon="9.294752106070518">
<ele>238</ele>
<time>2024-05-12T11:31:45Z</time>
</trkpt>
<trkpt lat="48.86526863090694" lon="9.29478638805449">
<ele>237.8</ele>
<time>2024-05-12T11:31:46Z</time>
</trkpt>
<trkpt lat="48.86529922485352" lon="9.29482838138938">
<ele>237.4</ele>
<time>2024-05-12T11:31:47Z</time>
</trkpt>
<trkpt lat="48.86532973498106" lon="9.294870374724267">
<ele>237</ele>
<time>2024-05-12T11:31:48Z</time>
</trkpt>
<trkpt lat="48.86537164449692" lon="9.294911362230778">
<ele>236.4</ele>
<time>2024-05-12T11:31:49Z</time>
</trkpt>
<trkpt lat="48.86541363783181" lon="9.294955199584363">
<ele>236</ele>
<time>2024-05-12T11:31:50Z</time>
</trkpt>
<trkpt lat="48.86545940302312" lon="9.294998114928603">
<ele>235.4</ele>
<time>2024-05-12T11:31:51Z</time>
</trkpt>
<trkpt lat="48.86550139635801" lon="9.295042958110573">
<ele>235</ele>
<time>2024-05-12T11:31:52Z</time>
</trkpt>
<trkpt lat="48.86554716154933" lon="9.29508495144546">
<ele>234.6</ele>
<time>2024-05-12T11:31:53Z</time>
</trkpt>
<trkpt lat="48.865596698597074" lon="9.295120239257813">
<ele>234.2</ele>
<time>2024-05-12T11:31:54Z</time>
</trkpt>
<trkpt lat="48.86564631946385" lon="9.295158376917245">
<ele>233.8</ele>
<time>2024-05-12T11:31:55Z</time>
</trkpt>
<trkpt lat="48.865695940330625" lon="9.295194586738944">
<ele>233.2</ele>
<time>2024-05-12T11:31:56Z</time>
</trkpt>
<trkpt lat="48.86574170552194" lon="9.295231802389026">
<ele>232.8</ele>
<time>2024-05-12T11:31:57Z</time>
</trkpt>
<trkpt lat="48.865795098245144" lon="9.295267090201378">
<ele>232.4</ele>
<time>2024-05-12T11:31:58Z</time>
</trkpt>
<trkpt lat="48.86584471911192" lon="9.295311849564314">
<ele>232</ele>
<time>2024-05-12T11:31:59Z</time>
</trkpt>
<trkpt lat="48.86589811183512" lon="9.295365326106548">
<ele>231.4</ele>
<time>2024-05-12T11:32:00Z</time>
</trkpt>
<trkpt lat="48.865951504558325" lon="9.295418718829753">
<ele>230.8</ele>
<time>2024-05-12T11:32:01Z</time>
</trkpt>
<trkpt lat="48.86599726974964" lon="9.295468255877497">
<ele>230.2</ele>
<time>2024-05-12T11:32:02Z</time>
</trkpt>
<trkpt lat="48.86605829000473" lon="9.295524582266808">
<ele>229.6</ele>
<time>2024-05-12T11:32:03Z</time>
</trkpt>
<trkpt lat="48.86611553840339" lon="9.295571269467471">
<ele>229.2</ele>
<time>2024-05-12T11:32:04Z</time>
</trkpt>
<trkpt lat="48.86617655865848" lon="9.295619884505868">
<ele>228.6</ele>
<time>2024-05-12T11:32:05Z</time>
</trkpt>
<trkpt lat="48.86624143458903" lon="9.295664727687836">
<ele>228.2</ele>
<time>2024-05-12T11:32:06Z</time>
</trkpt>
<trkpt lat="48.86629859916866" lon="9.295706721022723">
<ele>228</ele>
<time>2024-05-12T11:32:07Z</time>
</trkpt>
<trkpt lat="48.866363475099206" lon="9.295756258070467">
<ele>227.4</ele>
<time>2024-05-12T11:32:08Z</time>
</trkpt>
<trkpt lat="48.866424495354295" lon="9.295798251405358">
<ele>227</ele>
<time>2024-05-12T11:32:09Z</time>
</trkpt>
<trkpt lat="48.86648174375296" lon="9.295838316902518">
<ele>226.8</ele>
<time>2024-05-12T11:32:10Z</time>
</trkpt>
<trkpt lat="48.86653899215162" lon="9.29587452672422">
<ele>226.8</ele>
<time>2024-05-12T11:32:11Z</time>
</trkpt>
<trkpt lat="48.86659615673125" lon="9.295909814536572">
<ele>226.6</ele>
<time>2024-05-12T11:32:12Z</time>
</trkpt>
<trkpt lat="48.86665340512991" lon="9.295943258330226">
<ele>226.6</ele>
<time>2024-05-12T11:32:13Z</time>
</trkpt>
<trkpt lat="48.866703025996685" lon="9.295969912782311">
<ele>226.4</ele>
<time>2024-05-12T11:32:14Z</time>
</trkpt>
<trkpt lat="48.866748791188" lon="9.29599380120635">
<ele>226.2</ele>
<time>2024-05-12T11:32:15Z</time>
</trkpt>
<trkpt lat="48.866798328235745" lon="9.296009978279471">
<ele>226</ele>
<time>2024-05-12T11:32:16Z</time>
</trkpt>
<trkpt lat="48.866844177246094" lon="9.296021461486816">
<ele>225.8</ele>
<time>2024-05-12T11:32:17Z</time>
</trkpt>
<trkpt lat="48.86689371429384" lon="9.296036716550589">
<ele>225.6</ele>
<time>2024-05-12T11:32:18Z</time>
</trkpt>
<trkpt lat="48.86694333516061" lon="9.296050043776631">
<ele>225.6</ele>
<time>2024-05-12T11:32:19Z</time>
</trkpt>
<trkpt lat="48.86698524467647" lon="9.29607292637229">
<ele>225.8</ele>
<time>2024-05-12T11:32:20Z</time>
</trkpt>
<trkpt lat="48.86702723801136" lon="9.296099580824375">
<ele>225.8</ele>
<time>2024-05-12T11:32:21Z</time>
</trkpt>
<trkpt lat="48.86706537567079" lon="9.296126319095492">
<ele>226</ele>
<time>2024-05-12T11:32:22Z</time>
</trkpt>
<trkpt lat="48.86710351333022" lon="9.296156829223037">
<ele>226.2</ele>
<time>2024-05-12T11:32:23Z</time>
</trkpt>
<trkpt lat="48.86714165098965" lon="9.296183567494154">
<ele>226.2</ele>
<time>2024-05-12T11:32:24Z</time>
</trkpt>
<trkpt lat="48.86717978864908" lon="9.296208377927542">
<ele>226.2</ele>
<time>2024-05-12T11:32:25Z</time>
</trkpt>
<trkpt lat="48.867218010127544" lon="9.296235032379627">
<ele>226.2</ele>
<time>2024-05-12T11:32:26Z</time>
</trkpt>
<trkpt lat="48.867256147786975" lon="9.296263614669442">
<ele>226.2</ele>
<time>2024-05-12T11:32:27Z</time>
</trkpt>
<trkpt lat="48.867294285446405" lon="9.29629035294056">
<ele>226.2</ele>
<time>2024-05-12T11:32:28Z</time>
</trkpt>
<trkpt lat="48.86732479557395" lon="9.296315163373947">
<ele>226</ele>
<time>2024-05-12T11:32:29Z</time>
</trkpt>
<trkpt lat="48.867370560765266" lon="9.29634659551084">
<ele>225.8</ele>
<time>2024-05-12T11:32:30Z</time>
</trkpt>
<trkpt lat="48.86742018163204" lon="9.296380039304497">
<ele>225.6</ele>
<time>2024-05-12T11:32:31Z</time>
</trkpt>
<trkpt lat="48.867473574355245" lon="9.29640669375658">
<ele>225.6</ele>
<time>2024-05-12T11:32:32Z</time>
</trkpt>
<trkpt lat="48.86752696707845" lon="9.29642957635224">
<ele>225.6</ele>
<time>2024-05-12T11:32:33Z</time>
</trkpt>
<trkpt lat="48.86757658794522" lon="9.29644960910082">
<ele>225.6</ele>
<time>2024-05-12T11:32:34Z</time>
</trkpt>
<trkpt lat="48.867629980668426" lon="9.29646871984005">
<ele>225.6</ele>
<time>2024-05-12T11:32:35Z</time>
</trkpt>
<trkpt lat="48.86767574585974" lon="9.29648967459798">
<ele>225.6</ele>
<time>2024-05-12T11:32:36Z</time>
</trkpt>
<trkpt lat="48.86772536672652" lon="9.296516412869096">
<ele>225.4</ele>
<time>2024-05-12T11:32:37Z</time>
</trkpt>
<trkpt lat="48.86777875944972" lon="9.29654499515891">
<ele>225.4</ele>
<time>2024-05-12T11:32:38Z</time>
</trkpt>
<trkpt lat="48.867828296497464" lon="9.296573577448726">
<ele>225.2</ele>
<time>2024-05-12T11:32:39Z</time>
</trkpt>
<trkpt lat="48.8678817730397" lon="9.29660316556692">
<ele>225.2</ele>
<time>2024-05-12T11:32:40Z</time>
</trkpt>
<trkpt lat="48.86792368255555" lon="9.296633675694466">
<ele>225.4</ele>
<time>2024-05-12T11:32:41Z</time>
</trkpt>
<trkpt lat="48.86796944774687" lon="9.296673741191626">
<ele>225.6</ele>
<time>2024-05-12T11:32:42Z</time>
</trkpt>
<trkpt lat="48.86801521293819" lon="9.296714728698134">
<ele>225.6</ele>
<time>2024-05-12T11:32:43Z</time>
</trkpt>
<trkpt lat="48.868068689480424" lon="9.296754794195294">
<ele>225.6</ele>
<time>2024-05-12T11:32:44Z</time>
</trkpt>
<trkpt lat="48.86811445467174" lon="9.296794859692454">
<ele>225.8</ele>
<time>2024-05-12T11:32:45Z</time>
</trkpt>
<trkpt lat="48.86816021986306" lon="9.296830147504808">
<ele>225.8</ele>
<time>2024-05-12T11:32:46Z</time>
</trkpt>
<trkpt lat="48.86819835752249" lon="9.296854957938194">
<ele>225.8</ele>
<time>2024-05-12T11:32:47Z</time>
</trkpt>
<trkpt lat="48.86824797838926" lon="9.29688354022801">
<ele>225.8</ele>
<time>2024-05-12T11:32:48Z</time>
</trkpt>
<trkpt lat="48.86829751543701" lon="9.29691975004971">
<ele>226</ele>
<time>2024-05-12T11:32:49Z</time>
</trkpt>
<trkpt lat="48.86834328062832" lon="9.296950260177256">
<ele>226</ele>
<time>2024-05-12T11:32:50Z</time>
</trkpt>
<trkpt lat="48.8683929014951" lon="9.29698177613318">
<ele>226</ele>
<time>2024-05-12T11:32:51Z</time>
</trkpt>
<trkpt lat="48.86845014989376" lon="9.297015136107802">
<ele>225.8</ele>
<time>2024-05-12T11:32:52Z</time>
</trkpt>
<trkpt lat="48.86850354261696" lon="9.297048496082423">
<ele>225.6</ele>
<time>2024-05-12T11:32:53Z</time>
</trkpt>
<trkpt lat="48.86855307966471" lon="9.297075234353542">
<ele>225.4</ele>
<time>2024-05-12T11:32:54Z</time>
</trkpt>
<trkpt lat="48.86860655620694" lon="9.297113372012973">
<ele>225.2</ele>
<time>2024-05-12T11:32:55Z</time>
</trkpt>
<trkpt lat="48.86866372078657" lon="9.297148659825323">
<ele>225.2</ele>
<time>2024-05-12T11:32:56Z</time>
</trkpt>
<trkpt lat="48.86872474104166" lon="9.297188725322483">
<ele>225</ele>
<time>2024-05-12T11:32:57Z</time>
</trkpt>
<trkpt lat="48.868778217583895" lon="9.297226862981915">
<ele>224.8</ele>
<time>2024-05-12T11:32:58Z</time>
</trkpt>
<trkpt lat="48.868835382163525" lon="9.297265000641346">
<ele>224.6</ele>
<time>2024-05-12T11:32:59Z</time>
</trkpt>
<trkpt lat="48.868892630562186" lon="9.297300288453698">
<ele>224.4</ele>
<time>2024-05-12T11:33:00Z</time>
</trkpt>
<trkpt lat="48.86894602328539" lon="9.297329876571894">
<ele>224.2</ele>
<time>2024-05-12T11:33:01Z</time>
</trkpt>
<trkpt lat="48.868991788476706" lon="9.297358458861709">
<ele>224.2</ele>
<time>2024-05-12T11:33:02Z</time>
</trkpt>
<trkpt lat="48.86904140934348" lon="9.297388046979904">
<ele>224</ele>
<time>2024-05-12T11:33:03Z</time>
</trkpt>
<trkpt lat="48.86908340267837" lon="9.297418557107449">
<ele>224</ele>
<time>2024-05-12T11:33:04Z</time>
</trkpt>
<trkpt lat="48.86912916786969" lon="9.297445295378566">
<ele>224.2</ele>
<time>2024-05-12T11:33:05Z</time>
</trkpt>
<trkpt lat="48.869171077385545" lon="9.29747287184">
<ele>224.2</ele>
<time>2024-05-12T11:33:06Z</time>
</trkpt>
<trkpt lat="48.869213070720434" lon="9.297499610111116">
<ele>224.2</ele>
<time>2024-05-12T11:33:07Z</time>
</trkpt>
<trkpt lat="48.86925506405533" lon="9.297525342553854">
<ele>224.2</ele>
<time>2024-05-12T11:33:08Z</time>
</trkpt>
<trkpt lat="48.86929697357118" lon="9.297559708356856">
<ele>224.4</ele>
<time>2024-05-12T11:33:09Z</time>
</trkpt>
<trkpt lat="48.86933511123061" lon="9.29759306833148">
<ele>224.4</ele>
<time>2024-05-12T11:33:10Z</time>
</trkpt>
<trkpt lat="48.8693771045655" lon="9.29763120599091">
<ele>224.6</ele>
<time>2024-05-12T11:33:11Z</time>
</trkpt>
<trkpt lat="48.86941138654947" lon="9.297679821029304">
<ele>224.6</ele>
<time>2024-05-12T11:33:12Z</time>
</trkpt>
<trkpt lat="48.86944198049605" lon="9.29773136973381">
<ele>224.6</ele>
<time>2024-05-12T11:33:13Z</time>
</trkpt>
<trkpt lat="48.86947626248002" lon="9.297782834619284">
<ele>224.6</ele>
<time>2024-05-12T11:33:14Z</time>
</trkpt>
<trkpt lat="48.86951440013945" lon="9.297822900116444">
<ele>224.6</ele>
<time>2024-05-12T11:33:15Z</time>
</trkpt>
<trkpt lat="48.86956016533077" lon="9.297856260091066">
<ele>224.4</ele>
<time>2024-05-12T11:33:16Z</time>
</trkpt>
<trkpt lat="48.86960601434112" lon="9.29788677021861">
<ele>224.4</ele>
<time>2024-05-12T11:33:17Z</time>
</trkpt>
<trkpt lat="48.86965177953243" lon="9.297916358336806">
<ele>224.4</ele>
<time>2024-05-12T11:33:18Z</time>
</trkpt>
<trkpt lat="48.86969754472375" lon="9.297949718311427">
<ele>224.4</ele>
<time>2024-05-12T11:33:19Z</time>
</trkpt>
<trkpt lat="48.869743309915066" lon="9.29798500612378">
<ele>224.4</ele>
<time>2024-05-12T11:33:20Z</time>
</trkpt>
<trkpt lat="48.869785303249955" lon="9.298020293936132">
<ele>224.2</ele>
<time>2024-05-12T11:33:21Z</time>
</trkpt>
<trkpt lat="48.86982721276581" lon="9.298054659739137">
<ele>224</ele>
<time>2024-05-12T11:33:22Z</time>
</trkpt>
<trkpt lat="48.86986535042524" lon="9.298094725236297">
<ele>224</ele>
<time>2024-05-12T11:33:23Z</time>
</trkpt>
<trkpt lat="48.869903488084674" lon="9.298138562589884">
<ele>224</ele>
<time>2024-05-12T11:33:24Z</time>
</trkpt>
<trkpt lat="48.869941709563136" lon="9.29818625561893">
<ele>223.8</ele>
<time>2024-05-12T11:33:25Z</time>
</trkpt>
<trkpt lat="48.86997599154711" lon="9.298233026638629">
<ele>223.8</ele>
<time>2024-05-12T11:33:26Z</time>
</trkpt>
<trkpt lat="48.87001412920654" lon="9.298281641677022">
<ele>224</ele>
<time>2024-05-12T11:33:27Z</time>
</trkpt>
<trkpt lat="48.87004463933408" lon="9.29832355119288">
<ele>224</ele>
<time>2024-05-12T11:33:28Z</time>
</trkpt>
<trkpt lat="48.870079005137086" lon="9.298366466537118">
<ele>224</ele>
<time>2024-05-12T11:33:29Z</time>
</trkpt>
<trkpt lat="48.87010951526463" lon="9.298397982493045">
<ele>223.6</ele>
<time>2024-05-12T11:33:30Z</time>
</trkpt>
<trkpt lat="48.870140025392175" lon="9.298428492620587">
<ele>223.2</ele>
<time>2024-05-12T11:33:31Z</time>
</trkpt>
<trkpt lat="48.87017053551972" lon="9.29846378043294">
<ele>223.2</ele>
<time>2024-05-12T11:33:32Z</time>
</trkpt>
<trkpt lat="48.87020104564726" lon="9.298504767939448">
<ele>223.2</ele>
<time>2024-05-12T11:33:33Z</time>
</trkpt>
<trkpt lat="48.87023155577481" lon="9.298544833436608">
<ele>223.4</ele>
<time>2024-05-12T11:33:34Z</time>
</trkpt>
<trkpt lat="48.87026206590235" lon="9.298591604456306">
<ele>223.4</ele>
<time>2024-05-12T11:33:35Z</time>
</trkpt>
<trkpt lat="48.87029643170536" lon="9.2986402194947">
<ele>223.6</ele>
<time>2024-05-12T11:33:36Z</time>
</trkpt>
<trkpt lat="48.87033079750836" lon="9.298689840361476">
<ele>223.6</ele>
<time>2024-05-12T11:33:37Z</time>
</trkpt>
<trkpt lat="48.87036507949233" lon="9.298749854788184">
<ele>223.6</ele>
<time>2024-05-12T11:33:38Z</time>
</trkpt>
<trkpt lat="48.870399445295334" lon="9.298811880871654">
<ele>223.6</ele>
<time>2024-05-12T11:33:39Z</time>
</trkpt>
<trkpt lat="48.87042995542288" lon="9.298872901126742">
<ele>223.6</ele>
<time>2024-05-12T11:33:40Z</time>
</trkpt>
<trkpt lat="48.87046046555042" lon="9.298930149525404">
<ele>223.6</ele>
<time>2024-05-12T11:33:41Z</time>
</trkpt>
<trkpt lat="48.87048720382154" lon="9.298979686573148">
<ele>223.6</ele>
<time>2024-05-12T11:33:42Z</time>
</trkpt>
<trkpt lat="48.8705100864172" lon="9.299028385430574">
<ele>223.8</ele>
<time>2024-05-12T11:33:43Z</time>
</trkpt>
<trkpt lat="48.87053296901286" lon="9.299079850316048">
<ele>224</ele>
<time>2024-05-12T11:33:44Z</time>
</trkpt>
<trkpt lat="48.870551995933056" lon="9.299128465354444">
<ele>224.2</ele>
<time>2024-05-12T11:33:45Z</time>
</trkpt>
<trkpt lat="48.870574878528714" lon="9.29917330853641">
<ele>224.4</ele>
<time>2024-05-12T11:33:46Z</time>
</trkpt>
<trkpt lat="48.87060161679983" lon="9.299218151718378">
<ele>224.6</ele>
<time>2024-05-12T11:33:47Z</time>
</trkpt>
<trkpt lat="48.87062835507095" lon="9.299266766756771">
<ele>224.8</ele>
<time>2024-05-12T11:33:48Z</time>
</trkpt>
<trkpt lat="48.870655009523034" lon="9.29931353777647">
<ele>225</ele>
<time>2024-05-12T11:33:49Z</time>
</trkpt>
<trkpt lat="48.870693147182465" lon="9.299361146986485">
<ele>225.2</ele>
<time>2024-05-12T11:33:50Z</time>
</trkpt>
<trkpt lat="48.87072751298547" lon="9.299409845843911">
<ele>225.6</ele>
<time>2024-05-12T11:33:51Z</time>
</trkpt>
<trkpt lat="48.87076179496944" lon="9.299460388720036">
<ele>225.8</ele>
<time>2024-05-12T11:33:52Z</time>
</trkpt>
<trkpt lat="48.870792388916016" lon="9.299508081749082">
<ele>226</ele>
<time>2024-05-12T11:33:53Z</time>
</trkpt>
<trkpt lat="48.8708190433681" lon="9.299559546634557">
<ele>226.2</ele>
<time>2024-05-12T11:33:54Z</time>
</trkpt>
<trkpt lat="48.87084578163922" lon="9.299612017348409">
<ele>226.4</ele>
<time>2024-05-12T11:33:55Z</time>
</trkpt>
<trkpt lat="48.87087629176676" lon="9.299661554396152">
<ele>226.4</ele>
<time>2024-05-12T11:33:56Z</time>
</trkpt>
<trkpt lat="48.87090294621885" lon="9.29970832541585">
<ele>226.6</ele>
<time>2024-05-12T11:33:57Z</time>
</trkpt>
<trkpt lat="48.87092582881451" lon="9.299753168597816">
<ele>226.6</ele>
<time>2024-05-12T11:33:58Z</time>
</trkpt>
<trkpt lat="48.870948711410165" lon="9.299798011779783">
<ele>226.6</ele>
<time>2024-05-12T11:33:59Z</time>
</trkpt>
<trkpt lat="48.87096782214939" lon="9.29984662681818">
<ele>226.4</ele>
<time>2024-05-12T11:34:00Z</time>
</trkpt>
<trkpt lat="48.87097544968128" lon="9.299893314018846">
<ele>226.4</ele>
<time>2024-05-12T11:34:01Z</time>
</trkpt>
<trkpt lat="48.87097930535674" lon="9.299935307353737">
<ele>226</ele>
<time>2024-05-12T11:34:02Z</time>
</trkpt>
<trkpt lat="48.870971677824855" lon="9.299980150535704">
<ele>225.6</ele>
<time>2024-05-12T11:34:03Z</time>
</trkpt>
<trkpt lat="48.87096019461751" lon="9.30002206005156">
<ele>225.2</ele>
<time>2024-05-12T11:34:04Z</time>
</trkpt>
<trkpt lat="48.87094493955374" lon="9.3000631313771">
<ele>225</ele>
<time>2024-05-12T11:34:05Z</time>
</trkpt>
<trkpt lat="48.87093345634639" lon="9.300106968730688">
<ele>224.8</ele>
<time>2024-05-12T11:34:06Z</time>
</trkpt>
<trkpt lat="48.87092205695808" lon="9.300154661759734">
<ele>224.6</ele>
<time>2024-05-12T11:34:07Z</time>
</trkpt>
<trkpt lat="48.87092582881451" lon="9.300208054482937">
<ele>224.4</ele>
<time>2024-05-12T11:34:08Z</time>
</trkpt>
<trkpt lat="48.87093345634639" lon="9.300263375043867">
<ele>224.4</ele>
<time>2024-05-12T11:34:09Z</time>
</trkpt>
<trkpt lat="48.87094493955374" lon="9.30031961761415">
<ele>224.2</ele>
<time>2024-05-12T11:34:10Z</time>
</trkpt>
<trkpt lat="48.87095633894205" lon="9.300372088328004">
<ele>224</ele>
<time>2024-05-12T11:34:11Z</time>
</trkpt>
<trkpt lat="48.870971677824855" lon="9.30041978135705">
<ele>223.8</ele>
<time>2024-05-12T11:34:12Z</time>
</trkpt>
<trkpt lat="48.87098307721317" lon="9.300463618710635">
<ele>223.6</ele>
<time>2024-05-12T11:34:13Z</time>
</trkpt>
<trkpt lat="48.87099833227694" lon="9.300503684207795">
<ele>223.6</ele>
<time>2024-05-12T11:34:14Z</time>
</trkpt>
<trkpt lat="48.871009815484285" lon="9.300541821867228">
<ele>223.8</ele>
<time>2024-05-12T11:34:15Z</time>
</trkpt>
<trkpt lat="48.87101744301617" lon="9.300579959526658">
<ele>223.8</ele>
<time>2024-05-12T11:34:16Z</time>
</trkpt>
<trkpt lat="48.87102507054806" lon="9.300621952861547">
<ele>223.8</ele>
<time>2024-05-12T11:34:17Z</time>
</trkpt>
<trkpt lat="48.87103646993637" lon="9.300669645890594">
<ele>224</ele>
<time>2024-05-12T11:34:18Z</time>
</trkpt>
<trkpt lat="48.87104032561183" lon="9.300722116604447">
<ele>224.4</ele>
<time>2024-05-12T11:34:19Z</time>
</trkpt>
<trkpt lat="48.87105172500014" lon="9.300778359174728">
<ele>224.6</ele>
<time>2024-05-12T11:34:20Z</time>
</trkpt>
<trkpt lat="48.87106320820749" lon="9.300841307267548">
<ele>224.8</ele>
<time>2024-05-12T11:34:21Z</time>
</trkpt>
<trkpt lat="48.871070835739374" lon="9.30089662782848">
<ele>225</ele>
<time>2024-05-12T11:34:22Z</time>
</trkpt>
<trkpt lat="48.87107846327126" lon="9.300951948389413">
<ele>225.2</ele>
<time>2024-05-12T11:34:23Z</time>
</trkpt>
<trkpt lat="48.87107846327126" lon="9.30101196281612">
<ele>225.2</ele>
<time>2024-05-12T11:34:24Z</time>
</trkpt>
<trkpt lat="48.871086090803146" lon="9.301068289205432">
<ele>225.2</ele>
<time>2024-05-12T11:34:25Z</time>
</trkpt>
<trkpt lat="48.87109371833503" lon="9.30113123729825">
<ele>225.2</ele>
<time>2024-05-12T11:34:26Z</time>
</trkpt>
<trkpt lat="48.871105117723346" lon="9.30120650678873">
<ele>225.2</ele>
<time>2024-05-12T11:34:27Z</time>
</trkpt>
<trkpt lat="48.871108973398805" lon="9.301271382719278">
<ele>225.2</ele>
<time>2024-05-12T11:34:28Z</time>
</trkpt>
<trkpt lat="48.871108973398805" lon="9.301333408802748">
<ele>225.2</ele>
<time>2024-05-12T11:34:29Z</time>
</trkpt>
<trkpt lat="48.87111660093069" lon="9.301400128751991">
<ele>225</ele>
<time>2024-05-12T11:34:30Z</time>
</trkpt>
<trkpt lat="48.87111660093069" lon="9.301456371322274">
<ele>225</ele>
<time>2024-05-12T11:34:31Z</time>
</trkpt>
<trkpt lat="48.87112037278712" lon="9.301516469568014">
<ele>225</ele>
<time>2024-05-12T11:34:32Z</time>
</trkpt>
<trkpt lat="48.87111660093069" lon="9.301576567813754">
<ele>225</ele>
<time>2024-05-12T11:34:33Z</time>
</trkpt>
<trkpt lat="48.87111660093069" lon="9.301638593897223">
<ele>225.2</ele>
<time>2024-05-12T11:34:34Z</time>
</trkpt>
<trkpt lat="48.87111660093069" lon="9.301705313846467">
<ele>225.2</ele>
<time>2024-05-12T11:34:35Z</time>
</trkpt>
<trkpt lat="48.87111274525523" lon="9.301765412092209">
<ele>225.4</ele>
<time>2024-05-12T11:34:36Z</time>
</trkpt>
<trkpt lat="48.871108973398805" lon="9.301830288022757">
<ele>225.6</ele>
<time>2024-05-12T11:34:37Z</time>
</trkpt>
<trkpt lat="48.871105117723346" lon="9.301893152296543">
<ele>225.6</ele>
<time>2024-05-12T11:34:38Z</time>
</trkpt>
<trkpt lat="48.87109749019146" lon="9.301950400695205">
<ele>225.6</ele>
<time>2024-05-12T11:34:39Z</time>
</trkpt>
<trkpt lat="48.871089862659574" lon="9.302013348788025">
<ele>225.8</ele>
<time>2024-05-12T11:34:40Z</time>
</trkpt>
<trkpt lat="48.871086090803146" lon="9.302075374871492">
<ele>225.6</ele>
<time>2024-05-12T11:34:41Z</time>
</trkpt>
<trkpt lat="48.87108223512769" lon="9.30213832296431">
<ele>225.6</ele>
<time>2024-05-12T11:34:42Z</time>
</trkpt>
<trkpt lat="48.87107846327126" lon="9.30219833739102">
<ele>225.6</ele>
<time>2024-05-12T11:34:43Z</time>
</trkpt>
<trkpt lat="48.871070835739374" lon="9.30225843563676">
<ele>225.6</ele>
<time>2024-05-12T11:34:44Z</time>
</trkpt>
<trkpt lat="48.87106320820749" lon="9.302323311567308">
<ele>225.4</ele>
<time>2024-05-12T11:34:45Z</time>
</trkpt>
<trkpt lat="48.8710555806756" lon="9.30239288136363">
<ele>225.6</ele>
<time>2024-05-12T11:34:46Z</time>
</trkpt>
<trkpt lat="48.87104795314371" lon="9.302465384826064">
<ele>225.6</ele>
<time>2024-05-12T11:34:47Z</time>
</trkpt>
<trkpt lat="48.871032698079944" lon="9.30253311060369">
<ele>225.6</ele>
<time>2024-05-12T11:34:48Z</time>
</trkpt>
<trkpt lat="48.87101358734071" lon="9.302597986534238">
<ele>225.8</ele>
<time>2024-05-12T11:34:49Z</time>
</trkpt>
<trkpt lat="48.87099833227694" lon="9.302666634321213">
<ele>225.8</ele>
<time>2024-05-12T11:34:50Z</time>
</trkpt>
<trkpt lat="48.87098307721317" lon="9.302736204117537">
<ele>226</ele>
<time>2024-05-12T11:34:51Z</time>
</trkpt>
<trkpt lat="48.870971677824855" lon="9.30280870757997">
<ele>226.2</ele>
<time>2024-05-12T11:34:52Z</time>
</trkpt>
<trkpt lat="48.87096405029297" lon="9.302880205214024">
<ele>226.4</ele>
<time>2024-05-12T11:34:53Z</time>
</trkpt>
<trkpt lat="48.870948711410165" lon="9.30294793099165">
<ele>226.4</ele>
<time>2024-05-12T11:34:54Z</time>
</trkpt>
<trkpt lat="48.87093345634639" lon="9.303018506616354">
<ele>226.6</ele>
<time>2024-05-12T11:34:55Z</time>
</trkpt>
<trkpt lat="48.87091442942619" lon="9.303083382546902">
<ele>226.6</ele>
<time>2024-05-12T11:34:56Z</time>
</trkpt>
<trkpt lat="48.87089531868696" lon="9.303143480792642">
<ele>226.6</ele>
<time>2024-05-12T11:34:57Z</time>
</trkpt>
<trkpt lat="48.87088769115507" lon="9.30320642888546">
<ele>226.6</ele>
<time>2024-05-12T11:34:58Z</time>
</trkpt>
<trkpt lat="48.87086866423488" lon="9.303271220996976">
<ele>226.6</ele>
<time>2024-05-12T11:34:59Z</time>
</trkpt>
<trkpt lat="48.870853409171104" lon="9.303337018936872">
<ele>226.8</ele>
<time>2024-05-12T11:35:00Z</time>
</trkpt>
<trkpt lat="48.87084192596376" lon="9.303396195173264">
<ele>226.8</ele>
<time>2024-05-12T11:35:01Z</time>
</trkpt>
<trkpt lat="48.87082667089999" lon="9.3034581374377">
<ele>227</ele>
<time>2024-05-12T11:35:02Z</time>
</trkpt>
<trkpt lat="48.870815271511674" lon="9.303515385836365">
<ele>227</ele>
<time>2024-05-12T11:35:03Z</time>
</trkpt>
<trkpt lat="48.8708000164479" lon="9.303567856550217">
<ele>227</ele>
<time>2024-05-12T11:35:04Z</time>
</trkpt>
<trkpt lat="48.8707846775651" lon="9.30362124927342">
<ele>227.2</ele>
<time>2024-05-12T11:35:05Z</time>
</trkpt>
<trkpt lat="48.87075802311301" lon="9.30368134751916">
<ele>227.2</ele>
<time>2024-05-12T11:35:06Z</time>
</trkpt>
<trkpt lat="48.870731284841895" lon="9.3037414457649">
<ele>227</ele>
<time>2024-05-12T11:35:07Z</time>
</trkpt>
<trkpt lat="48.87070840224624" lon="9.303794838488102">
<ele>227.2</ele>
<time>2024-05-12T11:35:08Z</time>
</trkpt>
<trkpt lat="48.87068174779415" lon="9.303846303373575">
<ele>227.4</ele>
<time>2024-05-12T11:35:09Z</time>
</trkpt>
<trkpt lat="48.870655009523034" lon="9.303901623934507">
<ele>227.4</ele>
<time>2024-05-12T11:35:10Z</time>
</trkpt>
<trkpt lat="48.87062072753906" lon="9.303957866504788">
<ele>227.2</ele>
<time>2024-05-12T11:35:11Z</time>
</trkpt>
<trkpt lat="48.870590133592486" lon="9.304011343047025">
<ele>227</ele>
<time>2024-05-12T11:35:12Z</time>
</trkpt>
<trkpt lat="48.87055962346494" lon="9.304064735770226">
<ele>227</ele>
<time>2024-05-12T11:35:13Z</time>
</trkpt>
<trkpt lat="48.87053296901286" lon="9.30411335080862">
<ele>227</ele>
<time>2024-05-12T11:35:14Z</time>
</trkpt>
<trkpt lat="48.87050623074174" lon="9.304160038009286">
<ele>226.8</ele>
<time>2024-05-12T11:35:15Z</time>
</trkpt>
<trkpt lat="48.870479576289654" lon="9.304202953353524">
<ele>226.8</ele>
<time>2024-05-12T11:35:16Z</time>
</trkpt>
<trkpt lat="48.87045283801854" lon="9.304240169003606">
<ele>226.6</ele>
<time>2024-05-12T11:35:17Z</time>
</trkpt>
<trkpt lat="48.87042609974742" lon="9.304278306663036">
<ele>226.6</ele>
<time>2024-05-12T11:35:18Z</time>
</trkpt>
<trkpt lat="48.870399445295334" lon="9.304320299997926">
<ele>226.6</ele>
<time>2024-05-12T11:35:19Z</time>
</trkpt>
<trkpt lat="48.87036507949233" lon="9.304361287504436">
<ele>226.6</ele>
<time>2024-05-12T11:35:20Z</time>
</trkpt>
<trkpt lat="48.870334569364786" lon="9.304401353001596">
<ele>226.6</ele>
<time>2024-05-12T11:35:21Z</time>
</trkpt>
<trkpt lat="48.870300287380815" lon="9.304438568651676">
<ele>226.6</ele>
<time>2024-05-12T11:35:22Z</time>
</trkpt>
<trkpt lat="48.87026592157781" lon="9.3044719286263">
<ele>226.6</ele>
<time>2024-05-12T11:35:23Z</time>
</trkpt>
<trkpt lat="48.870220156386495" lon="9.304503360763192">
<ele>226.6</ele>
<time>2024-05-12T11:35:24Z</time>
</trkpt>
<trkpt lat="48.870178163051605" lon="9.304532948881388">
<ele>226.8</ele>
<time>2024-05-12T11:35:25Z</time>
</trkpt>
<trkpt lat="48.870140025392175" lon="9.3045720923692">
<ele>227</ele>
<time>2024-05-12T11:35:26Z</time>
</trkpt>
<trkpt lat="48.870098032057285" lon="9.30461023002863">
<ele>227</ele>
<time>2024-05-12T11:35:27Z</time>
</trkpt>
<trkpt lat="48.87005612254143" lon="9.30464643985033">
<ele>227</ele>
<time>2024-05-12T11:35:28Z</time>
</trkpt>
<trkpt lat="48.87001035735011" lon="9.30468457750976">
<ele>227</ele>
<time>2024-05-12T11:35:29Z</time>
</trkpt>
<trkpt lat="48.86997221969068" lon="9.30472464300692">
<ele>226.8</ele>
<time>2024-05-12T11:35:30Z</time>
</trkpt>
<trkpt lat="48.86993408203125" lon="9.30476470850408">
<ele>226.6</ele>
<time>2024-05-12T11:35:31Z</time>
</trkpt>
<trkpt lat="48.86989208869636" lon="9.304802846163511">
<ele>226.4</ele>
<time>2024-05-12T11:35:32Z</time>
</trkpt>
<trkpt lat="48.86985395103693" lon="9.304841989651322">
<ele>226.2</ele>
<time>2024-05-12T11:35:33Z</time>
</trkpt>
<trkpt lat="48.86980818584561" lon="9.304880127310753">
<ele>226</ele>
<time>2024-05-12T11:35:34Z</time>
</trkpt>
<trkpt lat="48.86977004818618" lon="9.304920192807913">
<ele>225.8</ele>
<time>2024-05-12T11:35:35Z</time>
</trkpt>
<trkpt lat="48.869728054851294" lon="9.30496017448604">
<ele>225.6</ele>
<time>2024-05-12T11:35:36Z</time>
</trkpt>
<trkpt lat="48.8696860615164" lon="9.305005017668009">
<ele>225.6</ele>
<time>2024-05-12T11:35:37Z</time>
</trkpt>
<trkpt lat="48.86964415200055" lon="9.305049860849977">
<ele>225.8</ele>
<time>2024-05-12T11:35:38Z</time>
</trkpt>
<trkpt lat="48.86960215866566" lon="9.305093698203564">
<ele>225.8</ele>
<time>2024-05-12T11:35:39Z</time>
</trkpt>
<trkpt lat="48.86956016533077" lon="9.305136613547802">
<ele>225.6</ele>
<time>2024-05-12T11:35:40Z</time>
</trkpt>
<trkpt lat="48.86951825581491" lon="9.305174751207232">
<ele>225.6</ele>
<time>2024-05-12T11:35:41Z</time>
</trkpt>
<trkpt lat="48.86947249062359" lon="9.305214816704392">
<ele>225.8</ele>
<time>2024-05-12T11:35:42Z</time>
</trkpt>
<trkpt lat="48.869430497288704" lon="9.305254882201552">
<ele>225.8</ele>
<time>2024-05-12T11:35:43Z</time>
</trkpt>
<trkpt lat="48.86938473209739" lon="9.305294947698712">
<ele>225.8</ele>
<time>2024-05-12T11:35:44Z</time>
</trkpt>
<trkpt lat="48.8693427387625" lon="9.305333085358145">
<ele>225.8</ele>
<time>2024-05-12T11:35:45Z</time>
</trkpt>
<trkpt lat="48.86930460110307" lon="9.305368373170497">
<ele>225.8</ele>
<time>2024-05-12T11:35:46Z</time>
</trkpt>
<trkpt lat="48.86926646344364" lon="9.305406510829926">
<ele>226</ele>
<time>2024-05-12T11:35:47Z</time>
</trkpt>
<trkpt lat="48.86922069825232" lon="9.305435176938772">
<ele>225.8</ele>
<time>2024-05-12T11:35:48Z</time>
</trkpt>
<trkpt lat="48.86917870491743" lon="9.305463759228587">
<ele>225.6</ele>
<time>2024-05-12T11:35:49Z</time>
</trkpt>
<trkpt lat="48.869140567258" lon="9.305489491671324">
<ele>225.6</ele>
<time>2024-05-12T11:35:50Z</time>
</trkpt>
<trkpt lat="48.86910242959857" lon="9.305513380095364">
<ele>225.4</ele>
<time>2024-05-12T11:35:51Z</time>
</trkpt>
<trkpt lat="48.86906806379557" lon="9.305533329024913">
<ele>225.2</ele>
<time>2024-05-12T11:35:52Z</time>
</trkpt>
<trkpt lat="48.86902615427971" lon="9.305551517754791">
<ele>225.2</ele>
<time>2024-05-12T11:35:53Z</time>
</trkpt>
<trkpt lat="48.86898416094482" lon="9.305580100044608">
<ele>225</ele>
<time>2024-05-12T11:35:54Z</time>
</trkpt>
<trkpt lat="48.86893462389707" lon="9.30561630986631">
<ele>225.2</ele>
<time>2024-05-12T11:35:55Z</time>
</trkpt>
<trkpt lat="48.8688850030303" lon="9.30565637536347">
<ele>225.4</ele>
<time>2024-05-12T11:35:56Z</time>
</trkpt>
<trkpt lat="48.86884300969541" lon="9.30569836869836">
<ele>225.6</ele>
<time>2024-05-12T11:35:57Z</time>
</trkpt>
<trkpt lat="48.86880487203598" lon="9.305740278214216">
<ele>225.6</ele>
<time>2024-05-12T11:35:58Z</time>
</trkpt>
<trkpt lat="48.86876673437655" lon="9.305780343711376">
<ele>225.6</ele>
<time>2024-05-12T11:35:59Z</time>
</trkpt>
<trkpt lat="48.86872474104166" lon="9.305816637352107">
<ele>225.6</ele>
<time>2024-05-12T11:36:00Z</time>
</trkpt>
<trkpt lat="48.8686828315258" lon="9.305849997326732">
<ele>225.6</ele>
<time>2024-05-12T11:36:01Z</time>
</trkpt>
<trkpt lat="48.86863321065903" lon="9.305881429463623">
<ele>225.6</ele>
<time>2024-05-12T11:36:02Z</time>
</trkpt>
<trkpt lat="48.86858744546771" lon="9.305908167734742">
<ele>225.6</ele>
<time>2024-05-12T11:36:03Z</time>
</trkpt>
<trkpt lat="48.868541680276394" lon="9.305936750024555">
<ele>225.6</ele>
<time>2024-05-12T11:36:04Z</time>
</trkpt>
<trkpt lat="48.86849591508508" lon="9.305966338142753">
<ele>225.6</ele>
<time>2024-05-12T11:36:05Z</time>
</trkpt>
<trkpt lat="48.86845014989376" lon="9.305994920432568">
<ele>225.6</ele>
<time>2024-05-12T11:36:06Z</time>
</trkpt>
<trkpt lat="48.86840438470245" lon="9.306028364226222">
<ele>225.6</ele>
<time>2024-05-12T11:36:07Z</time>
</trkpt>
<trkpt lat="48.868358535692096" lon="9.306063652038574">
<ele>225.6</ele>
<time>2024-05-12T11:36:08Z</time>
</trkpt>
<trkpt lat="48.868320398032665" lon="9.306097012013195">
<ele>225.6</ele>
<time>2024-05-12T11:36:09Z</time>
</trkpt>
<trkpt lat="48.868282260373235" lon="9.306124672293665">
<ele>225.6</ele>
<time>2024-05-12T11:36:10Z</time>
</trkpt>
<trkpt lat="48.86823272332549" lon="9.3061504047364">
<ele>225.8</ele>
<time>2024-05-12T11:36:11Z</time>
</trkpt>
<trkpt lat="48.86818687431514" lon="9.306177059188483">
<ele>226</ele>
<time>2024-05-12T11:36:12Z</time>
</trkpt>
<trkpt lat="48.868141109123826" lon="9.306200025603175">
<ele>226</ele>
<time>2024-05-12T11:36:13Z</time>
</trkpt>
<trkpt lat="48.86809534393251" lon="9.306215280666947">
<ele>226.2</ele>
<time>2024-05-12T11:36:14Z</time>
</trkpt>
<trkpt lat="48.86805343441665" lon="9.306224752217531">
<ele>226.4</ele>
<time>2024-05-12T11:36:15Z</time>
</trkpt>
<trkpt lat="48.86800381354987" lon="9.306233385577798">
<ele>226.6</ele>
<time>2024-05-12T11:36:16Z</time>
</trkpt>
<trkpt lat="48.8679541926831" lon="9.306244784966111">
<ele>226.8</ele>
<time>2024-05-12T11:36:17Z</time>
</trkpt>
<trkpt lat="48.86790465563536" lon="9.306258196011186">
<ele>227</ele>
<time>2024-05-12T11:36:18Z</time>
</trkpt>
<trkpt lat="48.86785503476858" lon="9.3062695953995">
<ele>227.2</ele>
<time>2024-05-12T11:36:19Z</time>
</trkpt>
<trkpt lat="48.86781304143369" lon="9.306280072778463">
<ele>227.2</ele>
<time>2024-05-12T11:36:20Z</time>
</trkpt>
<trkpt lat="48.86777490377426" lon="9.306291555985808">
<ele>227.2</ele>
<time>2024-05-12T11:36:21Z</time>
</trkpt>
<trkpt lat="48.86773676611483" lon="9.306311588734388">
<ele>227.2</ele>
<time>2024-05-12T11:36:22Z</time>
</trkpt>
<trkpt lat="48.867691000923514" lon="9.30632877163589">
<ele>227.4</ele>
<time>2024-05-12T11:36:23Z</time>
</trkpt>
<trkpt lat="48.8676452357322" lon="9.30634687654674">
<ele>227.4</ele>
<time>2024-05-12T11:36:24Z</time>
</trkpt>
<trkpt lat="48.867587987333536" lon="9.30636690929532">
<ele>227.4</ele>
<time>2024-05-12T11:36:25Z</time>
</trkpt>
<trkpt lat="48.86753459461033" lon="9.306381158530712">
<ele>227.4</ele>
<time>2024-05-12T11:36:26Z</time>
</trkpt>
<trkpt lat="48.867473574355245" lon="9.306398341432214">
<ele>227.6</ele>
<time>2024-05-12T11:36:27Z</time>
</trkpt>
<trkpt lat="48.86742395348847" lon="9.306411668658257">
<ele>227.6</ele>
<time>2024-05-12T11:36:28Z</time>
</trkpt>
<trkpt lat="48.867374416440725" lon="9.306425079703333">
<ele>227.6</ele>
<time>2024-05-12T11:36:29Z</time>
</trkpt>
<trkpt lat="48.86732093989849" lon="9.306434551253917">
<ele>227.6</ele>
<time>2024-05-12T11:36:30Z</time>
</trkpt>
<trkpt lat="48.86727140285075" lon="9.306445112451913">
<ele>227.6</ele>
<time>2024-05-12T11:36:31Z</time>
</trkpt>
<trkpt lat="48.86722178198397" lon="9.306451734155416">
<ele>227.6</ele>
<time>2024-05-12T11:36:32Z</time>
</trkpt>
<trkpt lat="48.8671721611172" lon="9.306460367515683">
<ele>227.8</ele>
<time>2024-05-12T11:36:33Z</time>
</trkpt>
<trkpt lat="48.86712639592588" lon="9.306469839066269">
<ele>227.8</ele>
<time>2024-05-12T11:36:34Z</time>
</trkpt>
<trkpt lat="48.86708063073456" lon="9.306474616751077">
<ele>227.8</ele>
<time>2024-05-12T11:36:35Z</time>
</trkpt>
<trkpt lat="48.867038721218705" lon="9.306480400264263">
<ele>228</ele>
<time>2024-05-12T11:36:36Z</time>
</trkpt>
<trkpt lat="48.866996727883816" lon="9.30648509413004">
<ele>228</ele>
<time>2024-05-12T11:36:37Z</time>
</trkpt>
<trkpt lat="48.866954734548926" lon="9.306491799652576">
<ele>228.2</ele>
<time>2024-05-12T11:36:38Z</time>
</trkpt>
<trkpt lat="48.86690134182573" lon="9.306501355022192">
<ele>228.4</ele>
<time>2024-05-12T11:36:39Z</time>
</trkpt>
<trkpt lat="48.86685557663441" lon="9.306501355022192">
<ele>228.4</ele>
<time>2024-05-12T11:36:40Z</time>
</trkpt>
<trkpt lat="48.86680981144309" lon="9.306500433012843">
<ele>228.4</ele>
<time>2024-05-12T11:36:41Z</time>
</trkpt>
<trkpt lat="48.866760190576315" lon="9.30650328285992">
<ele>228.6</ele>
<time>2024-05-12T11:36:42Z</time>
</trkpt>
<trkpt lat="48.86671065352857" lon="9.306507054716349">
<ele>228.6</ele>
<time>2024-05-12T11:36:43Z</time>
</trkpt>
<trkpt lat="48.86666480451822" lon="9.30650806054473">
<ele>228.6</ele>
<time>2024-05-12T11:36:44Z</time>
</trkpt>
<trkpt lat="48.866622895002365" lon="9.306509904563429">
<ele>228.6</ele>
<time>2024-05-12T11:36:45Z</time>
</trkpt>
<trkpt lat="48.86657327413559" lon="9.306514682248237">
<ele>228.8</ele>
<time>2024-05-12T11:36:46Z</time>
</trkpt>
<trkpt lat="48.86653136461973" lon="9.306520381942391">
<ele>228.8</ele>
<time>2024-05-12T11:36:47Z</time>
</trkpt>
<trkpt lat="48.86648174375296" lon="9.306521387770772">
<ele>228.8</ele>
<time>2024-05-12T11:36:48Z</time>
</trkpt>
<trkpt lat="48.86643975041807" lon="9.3065251596272">
<ele>229</ele>
<time>2024-05-12T11:36:49Z</time>
</trkpt>
<trkpt lat="48.86639021337032" lon="9.3065251596272">
<ele>229</ele>
<time>2024-05-12T11:36:50Z</time>
</trkpt>
<trkpt lat="48.866348220035434" lon="9.30652616545558">
<ele>229</ele>
<time>2024-05-12T11:36:51Z</time>
</trkpt>
<trkpt lat="48.86630245484412" lon="9.30652616545558">
<ele>229</ele>
<time>2024-05-12T11:36:52Z</time>
</trkpt>
<trkpt lat="48.86626046150923" lon="9.306528009474276">
<ele>229</ele>
<time>2024-05-12T11:36:53Z</time>
</trkpt>
<trkpt lat="48.86621855199337" lon="9.3065233156085">
<ele>229</ele>
<time>2024-05-12T11:36:54Z</time>
</trkpt>
<trkpt lat="48.86617655865848" lon="9.306516610085964">
<ele>229</ele>
<time>2024-05-12T11:36:55Z</time>
</trkpt>
<trkpt lat="48.86614219285548" lon="9.30650328285992">
<ele>228.8</ele>
<time>2024-05-12T11:36:56Z</time>
</trkpt>
<trkpt lat="48.86610028333962" lon="9.306481322273612">
<ele>228.8</ele>
<time>2024-05-12T11:36:57Z</time>
</trkpt>
<trkpt lat="48.86605829000473" lon="9.306465145200493">
<ele>228.6</ele>
<time>2024-05-12T11:36:58Z</time>
</trkpt>
<trkpt lat="48.86601638048887" lon="9.30644989013672">
<ele>228.6</ele>
<time>2024-05-12T11:36:59Z</time>
</trkpt>
<trkpt lat="48.86597053147853" lon="9.306440334767103">
<ele>228.6</ele>
<time>2024-05-12T11:37:00Z</time>
</trkpt>
<trkpt lat="48.86592099443078" lon="9.306440334767103">
<ele>228.6</ele>
<time>2024-05-12T11:37:01Z</time>
</trkpt>
<trkpt lat="48.865875229239464" lon="9.306445112451913">
<ele>228.6</ele>
<time>2024-05-12T11:37:02Z</time>
</trkpt>
<trkpt lat="48.86582946404815" lon="9.30644989013672">
<ele>229</ele>
<time>2024-05-12T11:37:03Z</time>
</trkpt>
<trkpt lat="48.8657836150378" lon="9.306453661993146">
<ele>229.2</ele>
<time>2024-05-12T11:37:04Z</time>
</trkpt>
<trkpt lat="48.86574170552194" lon="9.306453661993146">
<ele>229.4</ele>
<time>2024-05-12T11:37:05Z</time>
</trkpt>
<trkpt lat="48.86569971218705" lon="9.306454584002497">
<ele>229.4</ele>
<time>2024-05-12T11:37:06Z</time>
</trkpt>
<trkpt lat="48.865653946995735" lon="9.30644989013672">
<ele>229.4</ele>
<time>2024-05-12T11:37:07Z</time>
</trkpt>
<trkpt lat="48.865615809336305" lon="9.306441256776452">
<ele>229.4</ele>
<time>2024-05-12T11:37:08Z</time>
</trkpt>
<trkpt lat="48.865577671676874" lon="9.306436479091644">
<ele>229.2</ele>
<time>2024-05-12T11:37:09Z</time>
</trkpt>
<trkpt lat="48.86554330587387" lon="9.30642792955041">
<ele>229.2</ele>
<time>2024-05-12T11:37:10Z</time>
</trkpt>
<trkpt lat="48.865512795746326" lon="9.306421224027872">
<ele>229</ele>
<time>2024-05-12T11:37:11Z</time>
</trkpt>
<trkpt lat="48.865478513762355" lon="9.306411668658257">
<ele>228.8</ele>
<time>2024-05-12T11:37:12Z</time>
</trkpt>
<trkpt lat="48.86545177549124" lon="9.306400269269943">
<ele>228.6</ele>
<time>2024-05-12T11:37:13Z</time>
</trkpt>
<trkpt lat="48.86542503722012" lon="9.30638786405325">
<ele>228.6</ele>
<time>2024-05-12T11:37:14Z</time>
</trkpt>
<trkpt lat="48.865394527092576" lon="9.30636783130467">
<ele>228.4</ele>
<time>2024-05-12T11:37:15Z</time>
</trkpt>
<trkpt lat="48.86536024510861" lon="9.306344948709013">
<ele>228.4</ele>
<time>2024-05-12T11:37:16Z</time>
</trkpt>
<trkpt lat="48.865318251773715" lon="9.306322066113353">
<ele>228.2</ele>
<time>2024-05-12T11:37:17Z</time>
</trkpt>
<trkpt lat="48.865280114114285" lon="9.306295327842236">
<ele>228.2</ele>
<time>2024-05-12T11:37:18Z</time>
</trkpt>
<trkpt lat="48.865238120779395" lon="9.3062695953995">
<ele>228.4</ele>
<time>2024-05-12T11:37:19Z</time>
</trkpt>
<trkpt lat="48.86519621126354" lon="9.306240007281303">
<ele>228.4</ele>
<time>2024-05-12T11:37:20Z</time>
</trkpt>
<trkpt lat="48.86514659039676" lon="9.30620664730668">
<ele>228.4</ele>
<time>2024-05-12T11:37:21Z</time>
</trkpt>
<trkpt lat="48.865081714466214" lon="9.306184686720371">
<ele>228.4</ele>
<time>2024-05-12T11:37:22Z</time>
</trkpt>
<trkpt lat="48.865024549886584" lon="9.30616850964725">
<ele>228.4</ele>
<time>2024-05-12T11:37:23Z</time>
</trkpt>
<trkpt lat="48.864982556551695" lon="9.306137999519706">
<ele>228.4</ele>
<time>2024-05-12T11:37:24Z</time>
</trkpt>
<trkpt lat="48.864921536296606" lon="9.306119894608855">
<ele>228.4</ele>
<time>2024-05-12T11:37:25Z</time>
</trkpt>
<trkpt lat="48.86487191542983" lon="9.306093156337738">
<ele>228.6</ele>
<time>2024-05-12T11:37:26Z</time>
</trkpt>
<trkpt lat="48.8648147508502" lon="9.306077901273966">
<ele>228.8</ele>
<time>2024-05-12T11:37:27Z</time>
</trkpt>
<trkpt lat="48.86476890183985" lon="9.3060502409935">
<ele>229</ele>
<time>2024-05-12T11:37:28Z</time>
</trkpt>
<trkpt lat="48.86471550911665" lon="9.306028364226222">
<ele>229.4</ele>
<time>2024-05-12T11:37:29Z</time>
</trkpt>
<trkpt lat="48.86465834453702" lon="9.30601017549634">
<ele>229.6</ele>
<time>2024-05-12T11:37:30Z</time>
</trkpt>
<trkpt lat="48.864604867994785" lon="9.305983521044254">
<ele>229.6</ele>
<time>2024-05-12T11:37:31Z</time>
</trkpt>
<trkpt lat="48.86455533094704" lon="9.305961560457945">
<ele>229.8</ele>
<time>2024-05-12T11:37:32Z</time>
</trkpt>
<trkpt lat="48.86451333761215" lon="9.30593197233975">
<ele>229.8</ele>
<time>2024-05-12T11:37:33Z</time>
</trkpt>
<trkpt lat="48.86446380056441" lon="9.305905317887664">
<ele>229.8</ele>
<time>2024-05-12T11:37:34Z</time>
</trkpt>
<trkpt lat="48.86440655216575" lon="9.305870030075312">
<ele>230</ele>
<time>2024-05-12T11:37:35Z</time>
</trkpt>
<trkpt lat="48.864349303767085" lon="9.305843291804194">
<ele>230.2</ele>
<time>2024-05-12T11:37:36Z</time>
</trkpt>
<trkpt lat="48.864288283512" lon="9.305803226307034">
<ele>230.4</ele>
<time>2024-05-12T11:37:37Z</time>
</trkpt>
<trkpt lat="48.864234890788794" lon="9.305767938494682">
<ele>230.6</ele>
<time>2024-05-12T11:37:38Z</time>
</trkpt>
<trkpt lat="48.86418149806559" lon="9.305727956816554">
<ele>230.8</ele>
<time>2024-05-12T11:37:39Z</time>
</trkpt>
<trkpt lat="48.8641395047307" lon="9.305701218545437">
<ele>230.8</ele>
<time>2024-05-12T11:37:40Z</time>
</trkpt>
<trkpt lat="48.86409759521485" lon="9.305683113634586">
<ele>231</ele>
<time>2024-05-12T11:37:41Z</time>
</trkpt>
<trkpt lat="48.864051746204495" lon="9.305649753659964">
<ele>230.8</ele>
<time>2024-05-12T11:37:42Z</time>
</trkpt>
<trkpt lat="48.864013608545065" lon="9.305626787245274">
<ele>230.8</ele>
<time>2024-05-12T11:37:43Z</time>
</trkpt>
<trkpt lat="48.86397169902921" lon="9.305602060630918">
<ele>230.8</ele>
<time>2024-05-12T11:37:44Z</time>
</trkpt>
<trkpt lat="48.86392970569432" lon="9.3055753223598">
<ele>230.8</ele>
<time>2024-05-12T11:37:45Z</time>
</trkpt>
<trkpt lat="48.86388771235943" lon="9.305548667907717">
<ele>230.8</ele>
<time>2024-05-12T11:37:46Z</time>
</trkpt>
<trkpt lat="48.86384580284357" lon="9.305521929636598">
<ele>230.8</ele>
<time>2024-05-12T11:37:47Z</time>
</trkpt>
<trkpt lat="48.86381143704057" lon="9.305499969050288">
<ele>230.8</ele>
<time>2024-05-12T11:37:48Z</time>
</trkpt>
<trkpt lat="48.86376952752471" lon="9.305468536913397">
<ele>230.8</ele>
<time>2024-05-12T11:37:49Z</time>
</trkpt>
<trkpt lat="48.863735161721706" lon="9.30543802678585">
<ele>230.8</ele>
<time>2024-05-12T11:37:50Z</time>
</trkpt>
<trkpt lat="48.8637007959187" lon="9.305406510829926">
<ele>230.8</ele>
<time>2024-05-12T11:37:51Z</time>
</trkpt>
<trkpt lat="48.863658886402845" lon="9.305371223017572">
<ele>230.8</ele>
<time>2024-05-12T11:37:52Z</time>
</trkpt>
<trkpt lat="48.863620748743415" lon="9.30534171871841">
<ele>230.8</ele>
<time>2024-05-12T11:37:53Z</time>
</trkpt>
<trkpt lat="48.86357489973307" lon="9.305310202762485">
<ele>230.6</ele>
<time>2024-05-12T11:37:54Z</time>
</trkpt>
<trkpt lat="48.86353299021721" lon="9.30527969263494">
<ele>230.6</ele>
<time>2024-05-12T11:37:55Z</time>
</trkpt>
<trkpt lat="48.86348722502589" lon="9.305250104516745">
<ele>230.6</ele>
<time>2024-05-12T11:37:56Z</time>
</trkpt>
<trkpt lat="48.86344908736646" lon="9.30522345006466">
<ele>230.6</ele>
<time>2024-05-12T11:37:57Z</time>
</trkpt>
<trkpt lat="48.86340709403157" lon="9.30519956164062">
<ele>230.6</ele>
<time>2024-05-12T11:37:58Z</time>
</trkpt>
<trkpt lat="48.86337272822857" lon="9.305174751207232">
<ele>230.6</ele>
<time>2024-05-12T11:37:59Z</time>
</trkpt>
<trkpt lat="48.86333459056914" lon="9.30514139123261">
<ele>230.6</ele>
<time>2024-05-12T11:38:00Z</time>
</trkpt>
<trkpt lat="48.86329645290971" lon="9.305111803114414">
<ele>230.8</ele>
<time>2024-05-12T11:38:01Z</time>
</trkpt>
<trkpt lat="48.86325831525028" lon="9.305073665454984">
<ele>230.8</ele>
<time>2024-05-12T11:38:02Z</time>
</trkpt>
<trkpt lat="48.86322017759085" lon="9.305036533623934">
<ele>230.8</ele>
<time>2024-05-12T11:38:03Z</time>
</trkpt>
<trkpt lat="48.86318581178784" lon="9.30500308983028">
<ele>230.8</ele>
<time>2024-05-12T11:38:04Z</time>
</trkpt>
<trkpt lat="48.86314767412841" lon="9.304969729855657">
<ele>230.6</ele>
<time>2024-05-12T11:38:05Z</time>
</trkpt>
<trkpt lat="48.86310953646898" lon="9.304946847259998">
<ele>230.6</ele>
<time>2024-05-12T11:38:06Z</time>
</trkpt>
<trkpt lat="48.86307525448501" lon="9.304918264970183">
<ele>230.4</ele>
<time>2024-05-12T11:38:07Z</time>
</trkpt>
<trkpt lat="48.86303703300655" lon="9.304896304383874">
<ele>230.4</ele>
<time>2024-05-12T11:38:08Z</time>
</trkpt>
<trkpt lat="48.86299889534712" lon="9.304878199473023">
<ele>230.4</ele>
<time>2024-05-12T11:38:09Z</time>
</trkpt>
<trkpt lat="48.86296075768769" lon="9.30486487224698">
<ele>230.2</ele>
<time>2024-05-12T11:38:10Z</time>
</trkpt>
<trkpt lat="48.86292262002826" lon="9.304851461201906">
<ele>230.4</ele>
<time>2024-05-12T11:38:11Z</time>
</trkpt>
<trkpt lat="48.86288448236883" lon="9.304838133975863">
<ele>230.2</ele>
<time>2024-05-12T11:38:12Z</time>
</trkpt>
<trkpt lat="48.86284634470939" lon="9.30482673458755">
<ele>230.2</ele>
<time>2024-05-12T11:38:13Z</time>
</trkpt>
<trkpt lat="48.86281197890639" lon="9.304816173389554">
<ele>230.2</ele>
<time>2024-05-12T11:38:14Z</time>
</trkpt>
<trkpt lat="48.86277769692242" lon="9.30480670183897">
<ele>230.2</ele>
<time>2024-05-12T11:38:15Z</time>
</trkpt>
<trkpt lat="48.86274718679488" lon="9.304793290793896">
<ele>230.2</ele>
<time>2024-05-12T11:38:16Z</time>
</trkpt>
<trkpt lat="48.8627165928483" lon="9.304775185883043">
<ele>230</ele>
<time>2024-05-12T11:38:17Z</time>
</trkpt>
<trkpt lat="48.8626975659281" lon="9.3047446757555">
<ele>230</ele>
<time>2024-05-12T11:38:18Z</time>
</trkpt>
<trkpt lat="48.86267845518887" lon="9.30470653809607">
<ele>230</ele>
<time>2024-05-12T11:38:19Z</time>
</trkpt>
<trkpt lat="48.86267468333244" lon="9.30466454476118">
<ele>230</ele>
<time>2024-05-12T11:38:20Z</time>
</trkpt>
<trkpt lat="48.86268231086433" lon="9.304619785398245">
<ele>230</ele>
<time>2024-05-12T11:38:21Z</time>
</trkpt>
<trkpt lat="48.862689938396215" lon="9.30456630885601">
<ele>229.8</ele>
<time>2024-05-12T11:38:22Z</time>
</trkpt>
<trkpt lat="48.86270133778453" lon="9.30451006628573">
<ele>229.8</ele>
<time>2024-05-12T11:38:23Z</time>
</trkpt>
<trkpt lat="48.862708965316415" lon="9.304448124021292">
<ele>229.6</ele>
<time>2024-05-12T11:38:24Z</time>
</trkpt>
<trkpt lat="48.862712820991874" lon="9.304381320253016">
<ele>229.4</ele>
<time>2024-05-12T11:38:25Z</time>
</trkpt>
<trkpt lat="48.862708965316415" lon="9.304314600303767">
<ele>229.2</ele>
<time>2024-05-12T11:38:26Z</time>
</trkpt>
<trkpt lat="48.862689938396215" lon="9.30425165221095">
<ele>229.2</ele>
<time>2024-05-12T11:38:27Z</time>
</trkpt>
<trkpt lat="48.86265942826867" lon="9.30419633165002">
<ele>229</ele>
<time>2024-05-12T11:38:28Z</time>
</trkpt>
<trkpt lat="48.86262129060924" lon="9.30415341630578">
<ele>228.8</ele>
<time>2024-05-12T11:38:29Z</time>
</trkpt>
<trkpt lat="48.86257552541792" lon="9.304111422970893">
<ele>228.6</ele>
<time>2024-05-12T11:38:30Z</time>
</trkpt>
<trkpt lat="48.86253730393946" lon="9.304069513455032">
<ele>228.4</ele>
<time>2024-05-12T11:38:31Z</time>
</trkpt>
<trkpt lat="48.86249916628003" lon="9.304026598110797">
<ele>228.2</ele>
<time>2024-05-12T11:38:32Z</time>
</trkpt>
<trkpt lat="48.8624610286206" lon="9.303988376632333">
<ele>228.2</ele>
<time>2024-05-12T11:38:33Z</time>
</trkpt>
<trkpt lat="48.86242674663663" lon="9.303948394954205">
<ele>228</ele>
<time>2024-05-12T11:38:34Z</time>
</trkpt>
<trkpt lat="48.862392380833626" lon="9.30391687899828">
<ele>227.8</ele>
<time>2024-05-12T11:38:35Z</time>
</trkpt>
<trkpt lat="48.86235801503062" lon="9.303886368870735">
<ele>227.8</ele>
<time>2024-05-12T11:38:36Z</time>
</trkpt>
<trkpt lat="48.86232750490308" lon="9.30385678075254">
<ele>227.6</ele>
<time>2024-05-12T11:38:37Z</time>
</trkpt>
<trkpt lat="48.86229322291911" lon="9.303821492940187">
<ele>227.4</ele>
<time>2024-05-12T11:38:38Z</time>
</trkpt>
<trkpt lat="48.86225508525968" lon="9.303788132965565">
<ele>227.4</ele>
<time>2024-05-12T11:38:39Z</time>
</trkpt>
<trkpt lat="48.862216947600245" lon="9.303754772990942">
<ele>227.4</ele>
<time>2024-05-12T11:38:40Z</time>
</trkpt>
<trkpt lat="48.86217872612178" lon="9.30372040718794">
<ele>227.2</ele>
<time>2024-05-12T11:38:41Z</time>
</trkpt>
<trkpt lat="48.86214444413781" lon="9.303685119375588">
<ele>227</ele>
<time>2024-05-12T11:38:42Z</time>
</trkpt>
<trkpt lat="48.86210630647838" lon="9.303649831563234">
<ele>227</ele>
<time>2024-05-12T11:38:43Z</time>
</trkpt>
<trkpt lat="48.86206816881895" lon="9.303613621741532">
<ele>226.8</ele>
<time>2024-05-12T11:38:44Z</time>
</trkpt>
<trkpt lat="48.86202617548406" lon="9.303576406091452">
<ele>226.8</ele>
<time>2024-05-12T11:38:45Z</time>
</trkpt>
<trkpt lat="48.86198803782463" lon="9.30354019626975">
<ele>227</ele>
<time>2024-05-12T11:38:46Z</time>
</trkpt>
<trkpt lat="48.8619499001652" lon="9.303506836295128">
<ele>227.2</ele>
<time>2024-05-12T11:38:47Z</time>
</trkpt>
<trkpt lat="48.86190790683031" lon="9.303475320339205">
<ele>227.2</ele>
<time>2024-05-12T11:38:48Z</time>
</trkpt>
<trkpt lat="48.86186599731445" lon="9.30343810468912">
<ele>227.4</ele>
<time>2024-05-12T11:38:49Z</time>
</trkpt>
<trkpt lat="48.86182777583599" lon="9.30339996702969">
<ele>227.4</ele>
<time>2024-05-12T11:38:50Z</time>
</trkpt>
<trkpt lat="48.86178963817656" lon="9.30336182937026">
<ele>227.6</ele>
<time>2024-05-12T11:38:51Z</time>
</trkpt>
<trkpt lat="48.8617477286607" lon="9.3033217638731">
<ele>227.6</ele>
<time>2024-05-12T11:38:52Z</time>
</trkpt>
<trkpt lat="48.86170959100127" lon="9.303281782194972">
<ele>227.6</ele>
<time>2024-05-12T11:38:53Z</time>
</trkpt>
<trkpt lat="48.86167136952281" lon="9.303239788860084">
<ele>227.4</ele>
<time>2024-05-12T11:38:54Z</time>
</trkpt>
<trkpt lat="48.86163323186338" lon="9.303197795525191">
<ele>227.4</ele>
<time>2024-05-12T11:38:55Z</time>
</trkpt>
<trkpt lat="48.86159509420395" lon="9.303156808018684">
<ele>227.4</ele>
<time>2024-05-12T11:38:56Z</time>
</trkpt>
<trkpt lat="48.86155695654452" lon="9.303112970665095">
<ele>227.4</ele>
<time>2024-05-12T11:38:57Z</time>
</trkpt>
<trkpt lat="48.86151496320963" lon="9.303071899339557">
<ele>227.4</ele>
<time>2024-05-12T11:38:58Z</time>
</trkpt>
<trkpt lat="48.86148068122566" lon="9.30302806198597">
<ele>227.4</ele>
<time>2024-05-12T11:38:59Z</time>
</trkpt>
<trkpt lat="48.86144254356623" lon="9.30298707447946">
<ele>227.6</ele>
<time>2024-05-12T11:39:00Z</time>
</trkpt>
<trkpt lat="48.861408177763224" lon="9.302941309288144">
<ele>227.6</ele>
<time>2024-05-12T11:39:01Z</time>
</trkpt>
<trkpt lat="48.86137004010379" lon="9.302896466106176">
<ele>227.6</ele>
<time>2024-05-12T11:39:02Z</time>
</trkpt>
<trkpt lat="48.86133190244436" lon="9.30284877307713">
<ele>227.6</ele>
<time>2024-05-12T11:39:03Z</time>
</trkpt>
<trkpt lat="48.86129376478493" lon="9.302800158038735">
<ele>227.6</ele>
<time>2024-05-12T11:39:04Z</time>
</trkpt>
<trkpt lat="48.8612556271255" lon="9.302753387019038">
<ele>227.8</ele>
<time>2024-05-12T11:39:05Z</time>
</trkpt>
<trkpt lat="48.8612212613225" lon="9.30270854383707">
<ele>227.8</ele>
<time>2024-05-12T11:39:06Z</time>
</trkpt>
<trkpt lat="48.86117935180664" lon="9.302661856636403">
<ele>228</ele>
<time>2024-05-12T11:39:07Z</time>
</trkpt>
<trkpt lat="48.86114113032818" lon="9.302615085616708">
<ele>228</ele>
<time>2024-05-12T11:39:08Z</time>
</trkpt>
<trkpt lat="48.86110299266875" lon="9.302568398416042">
<ele>227.8</ele>
<time>2024-05-12T11:39:09Z</time>
</trkpt>
<trkpt lat="48.86106485500932" lon="9.302521627396343">
<ele>227.8</ele>
<time>2024-05-12T11:39:10Z</time>
</trkpt>
<trkpt lat="48.86102671734989" lon="9.30247301235795">
<ele>227.6</ele>
<time>2024-05-12T11:39:11Z</time>
</trkpt>
<trkpt lat="48.860988579690456" lon="9.302426325157285">
<ele>227.6</ele>
<time>2024-05-12T11:39:12Z</time>
</trkpt>
<trkpt lat="48.860950442031026" lon="9.30237863212824">
<ele>227.6</ele>
<time>2024-05-12T11:39:13Z</time>
</trkpt>
<trkpt lat="48.86091607622802" lon="9.302328089252114">
<ele>227.4</ele>
<time>2024-05-12T11:39:14Z</time>
</trkpt>
<trkpt lat="48.86087793856859" lon="9.30227654054761">
<ele>227.4</ele>
<time>2024-05-12T11:39:15Z</time>
</trkpt>
<trkpt lat="48.86083980090916" lon="9.302223147824408">
<ele>227.4</ele>
<time>2024-05-12T11:39:16Z</time>
</trkpt>
<trkpt lat="48.86080166324973" lon="9.302167827263474">
<ele>227.2</ele>
<time>2024-05-12T11:39:17Z</time>
</trkpt>
<trkpt lat="48.8607635255903" lon="9.302115440368652">
<ele>227.2</ele>
<time>2024-05-12T11:39:18Z</time>
</trkpt>
<trkpt lat="48.86072538793087" lon="9.30205819196999">
<ele>227</ele>
<time>2024-05-12T11:39:19Z</time>
</trkpt>
<trkpt lat="48.86069102212787" lon="9.30200002156198">
<ele>227</ele>
<time>2024-05-12T11:39:20Z</time>
</trkpt>
<trkpt lat="48.86065665632486" lon="9.3019437789917">
<ele>227</ele>
<time>2024-05-12T11:39:21Z</time>
</trkpt>
<trkpt lat="48.86061851866543" lon="9.301886530593038">
<ele>226.8</ele>
<time>2024-05-12T11:39:22Z</time>
</trkpt>
<trkpt lat="48.86058423668146" lon="9.301831210032104">
<ele>226.8</ele>
<time>2024-05-12T11:39:23Z</time>
</trkpt>
<trkpt lat="48.86054609902203" lon="9.301774967461824">
<ele>226.6</ele>
<time>2024-05-12T11:39:24Z</time>
</trkpt>
<trkpt lat="48.86051173321903" lon="9.301718641072512">
<ele>226.4</ele>
<time>2024-05-12T11:39:25Z</time>
</trkpt>
<trkpt lat="48.86046973988414" lon="9.30166625417769">
<ele>226.2</ele>
<time>2024-05-12T11:39:26Z</time>
</trkpt>
<trkpt lat="48.86043160222471" lon="9.301616633310914">
<ele>226.2</ele>
<time>2024-05-12T11:39:27Z</time>
</trkpt>
<trkpt lat="48.86038969270885" lon="9.30156801827252">
<ele>226</ele>
<time>2024-05-12T11:39:28Z</time>
</trkpt>
<trkpt lat="48.86035155504942" lon="9.301521247252822">
<ele>226</ele>
<time>2024-05-12T11:39:29Z</time>
</trkpt>
<trkpt lat="48.86030956171453" lon="9.301478331908584">
<ele>226</ele>
<time>2024-05-12T11:39:30Z</time>
</trkpt>
<trkpt lat="48.86026756837964" lon="9.301438266411424">
<ele>226</ele>
<time>2024-05-12T11:39:31Z</time>
</trkpt>
<trkpt lat="48.86022565886378" lon="9.301400128751991">
<ele>226</ele>
<time>2024-05-12T11:39:32Z</time>
</trkpt>
<trkpt lat="48.860179893672466" lon="9.301361991092564">
<ele>226</ele>
<time>2024-05-12T11:39:33Z</time>
</trkpt>
<trkpt lat="48.86013027280569" lon="9.30132477544248">
<ele>226</ele>
<time>2024-05-12T11:39:34Z</time>
</trkpt>
<trkpt lat="48.8600882794708" lon="9.301291415467858">
<ele>226</ele>
<time>2024-05-12T11:39:35Z</time>
</trkpt>
<trkpt lat="48.86003874242306" lon="9.301263755187392">
<ele>226</ele>
<time>2024-05-12T11:39:36Z</time>
</trkpt>
<trkpt lat="48.85999297723174" lon="9.301237100735309">
<ele>226</ele>
<time>2024-05-12T11:39:37Z</time>
</trkpt>
<trkpt lat="48.859943356364965" lon="9.301213212311268">
<ele>226.2</ele>
<time>2024-05-12T11:39:38Z</time>
</trkpt>
<trkpt lat="48.85989373549819" lon="9.301193179562688">
<ele>226.2</ele>
<time>2024-05-12T11:39:39Z</time>
</trkpt>
<trkpt lat="48.859844198450446" lon="9.301175074651836">
<ele>226.4</ele>
<time>2024-05-12T11:39:40Z</time>
</trkpt>
<trkpt lat="48.85979457758367" lon="9.301157891750336">
<ele>226.4</ele>
<time>2024-05-12T11:39:41Z</time>
</trkpt>
<trkpt lat="48.859744956716895" lon="9.301143642514944">
<ele>226.4</ele>
<time>2024-05-12T11:39:42Z</time>
</trkpt>
<trkpt lat="48.85969156399369" lon="9.301137859001756">
<ele>226.6</ele>
<time>2024-05-12T11:39:43Z</time>
</trkpt>
<trkpt lat="48.85964202694595" lon="9.301137859001756">
<ele>226.8</ele>
<time>2024-05-12T11:39:44Z</time>
</trkpt>
<trkpt lat="48.85959240607917" lon="9.301143642514944">
<ele>227</ele>
<time>2024-05-12T11:39:45Z</time>
</trkpt>
<trkpt lat="48.8595427852124" lon="9.301155041903256">
<ele>227</ele>
<time>2024-05-12T11:39:46Z</time>
</trkpt>
<trkpt lat="48.859493248164654" lon="9.3011683691293">
<ele>227.2</ele>
<time>2024-05-12T11:39:47Z</time>
</trkpt>
<trkpt lat="48.85944362729788" lon="9.301181780174376">
<ele>227.4</ele>
<time>2024-05-12T11:39:48Z</time>
</trkpt>
<trkpt lat="48.85939786210656" lon="9.301195107400416">
<ele>227.6</ele>
<time>2024-05-12T11:39:49Z</time>
</trkpt>
<trkpt lat="48.85935586877167" lon="9.301213212311268">
<ele>227.6</ele>
<time>2024-05-12T11:39:50Z</time>
</trkpt>
<trkpt lat="48.85931773111224" lon="9.301233245059848">
<ele>227.6</ele>
<time>2024-05-12T11:39:51Z</time>
</trkpt>
<trkpt lat="48.859271965920925" lon="9.301255205646155">
<ele>227.6</ele>
<time>2024-05-12T11:39:52Z</time>
</trkpt>
<trkpt lat="48.85922997258603" lon="9.301276160404086">
<ele>227.6</ele>
<time>2024-05-12T11:39:53Z</time>
</trkpt>
<trkpt lat="48.85918420739472" lon="9.301296193152666">
<ele>227.8</ele>
<time>2024-05-12T11:39:54Z</time>
</trkpt>
<trkpt lat="48.8591384422034" lon="9.301315303891895">
<ele>228</ele>
<time>2024-05-12T11:39:55Z</time>
</trkpt>
<trkpt lat="48.859092677012086" lon="9.301331480965018">
<ele>228.2</ele>
<time>2024-05-12T11:39:56Z</time>
</trkpt>
<trkpt lat="48.85904691182077" lon="9.30134480819106">
<ele>228.2</ele>
<time>2024-05-12T11:39:57Z</time>
</trkpt>
<trkpt lat="48.858997290953994" lon="9.301355285570024">
<ele>228.2</ele>
<time>2024-05-12T11:39:58Z</time>
</trkpt>
<trkpt lat="48.85894775390625" lon="9.301355285570024">
<ele>228.2</ele>
<time>2024-05-12T11:39:59Z</time>
</trkpt>
<trkpt lat="48.858898133039474" lon="9.301355285570024">
<ele>228.2</ele>
<time>2024-05-12T11:40:00Z</time>
</trkpt>
<trkpt lat="48.85885236784816" lon="9.301355285570024">
<ele>228.2</ele>
<time>2024-05-12T11:40:01Z</time>
</trkpt>
<trkpt lat="48.85880274698138" lon="9.301360063254831">
<ele>228.2</ele>
<time>2024-05-12T11:40:02Z</time>
</trkpt>
<trkpt lat="48.85875312611461" lon="9.301369618624449">
<ele>228.2</ele>
<time>2024-05-12T11:40:03Z</time>
</trkpt>
<trkpt lat="48.85870736092329" lon="9.30138487368822">
<ele>228.2</ele>
<time>2024-05-12T11:40:04Z</time>
</trkpt>
<trkpt lat="48.858661595731974" lon="9.301400128751991">
<ele>228.2</ele>
<time>2024-05-12T11:40:05Z</time>
</trkpt>
<trkpt lat="48.85861205868423" lon="9.301422089338304">
<ele>228.2</ele>
<time>2024-05-12T11:40:06Z</time>
</trkpt>
<trkpt lat="48.85856620967388" lon="9.30144689977169">
<ele>228.4</ele>
<time>2024-05-12T11:40:07Z</time>
</trkpt>
<trkpt lat="48.858524300158024" lon="9.301478331908584">
<ele>228.4</ele>
<time>2024-05-12T11:40:08Z</time>
</trkpt>
<trkpt lat="48.85848616249859" lon="9.301511691883206">
<ele>228.6</ele>
<time>2024-05-12T11:40:09Z</time>
</trkpt>
<trkpt lat="48.85844802483916" lon="9.30154697969556">
<ele>228.8</ele>
<time>2024-05-12T11:40:10Z</time>
</trkpt>
<trkpt lat="48.85841365903616" lon="9.301589895039797">
<ele>228.8</ele>
<time>2024-05-12T11:40:11Z</time>
</trkpt>
<trkpt lat="48.85837929323315" lon="9.301638593897223">
<ele>228.8</ele>
<time>2024-05-12T11:40:12Z</time>
</trkpt>
<trkpt lat="48.858341155573726" lon="9.30168628692627">
<ele>228.8</ele>
<time>2024-05-12T11:40:13Z</time>
</trkpt>
<trkpt lat="48.858306873589754" lon="9.301738673821092">
<ele>228.6</ele>
<time>2024-05-12T11:40:14Z</time>
</trkpt>
<trkpt lat="48.85827250778675" lon="9.301795000210404">
<ele>228.6</ele>
<time>2024-05-12T11:40:15Z</time>
</trkpt>
<trkpt lat="48.858241997659206" lon="9.301856942474842">
<ele>228.4</ele>
<time>2024-05-12T11:40:16Z</time>
</trkpt>
<trkpt lat="48.85821148753166" lon="9.30191989056766">
<ele>228.4</ele>
<time>2024-05-12T11:40:17Z</time>
</trkpt>
<trkpt lat="48.858184749260545" lon="9.301984766498208">
<ele>228.4</ele>
<time>2024-05-12T11:40:18Z</time>
</trkpt>
<trkpt lat="48.85815809480846" lon="9.302051486447452">
<ele>228.2</ele>
<time>2024-05-12T11:40:19Z</time>
</trkpt>
<trkpt lat="48.85813135653734" lon="9.302120134234428">
<ele>228.2</ele>
<time>2024-05-12T11:40:20Z</time>
</trkpt>
<trkpt lat="48.85811232961714" lon="9.302189787849784">
<ele>228.2</ele>
<time>2024-05-12T11:40:21Z</time>
</trkpt>
<trkpt lat="48.85808944702149" lon="9.302260363474488">
<ele>228</ele>
<time>2024-05-12T11:40:22Z</time>
</trkpt>
<trkpt lat="48.85807410813868" lon="9.30233471095562">
<ele>228</ele>
<time>2024-05-12T11:40:23Z</time>
</trkpt>
<trkpt lat="48.85806270875037" lon="9.302410064265132">
<ele>227.8</ele>
<time>2024-05-12T11:40:24Z</time>
</trkpt>
<trkpt lat="48.85805508121848" lon="9.302484495565295">
<ele>227.8</ele>
<time>2024-05-12T11:40:25Z</time>
</trkpt>
<trkpt lat="48.85805122554302" lon="9.302561692893503">
<ele>227.8</ele>
<time>2024-05-12T11:40:26Z</time>
</trkpt>
<trkpt lat="48.85805122554302" lon="9.302638052031398">
<ele>227.8</ele>
<time>2024-05-12T11:40:27Z</time>
</trkpt>
<trkpt lat="48.85805885307491" lon="9.302709549665453">
<ele>228</ele>
<time>2024-05-12T11:40:28Z</time>
</trkpt>
<trkpt lat="48.85807033628225" lon="9.302776269614697">
<ele>228</ele>
<time>2024-05-12T11:40:29Z</time>
</trkpt>
<trkpt lat="48.85808173567057" lon="9.302843073382974">
<ele>228</ele>
<time>2024-05-12T11:40:30Z</time>
</trkpt>
<trkpt lat="48.85808944702149" lon="9.30290694348514">
<ele>228</ele>
<time>2024-05-12T11:40:31Z</time>
</trkpt>
<trkpt lat="48.8581008464098" lon="9.30296796374023">
<ele>228.2</ele>
<time>2024-05-12T11:40:32Z</time>
</trkpt>
<trkpt lat="48.85811232961714" lon="9.3030299898237">
<ele>228</ele>
<time>2024-05-12T11:40:33Z</time>
</trkpt>
<trkpt lat="48.858123729005456" lon="9.303092937916515">
<ele>228.2</ele>
<time>2024-05-12T11:40:34Z</time>
</trkpt>
<trkpt lat="48.8581352122128" lon="9.303158735856414">
<ele>228.2</ele>
<time>2024-05-12T11:40:35Z</time>
</trkpt>
<trkpt lat="48.85815046727657" lon="9.30322352796793">
<ele>228.2</ele>
<time>2024-05-12T11:40:36Z</time>
</trkpt>
<trkpt lat="48.85816186666489" lon="9.30328463204205">
<ele>228.2</ele>
<time>2024-05-12T11:40:37Z</time>
</trkpt>
<trkpt lat="48.85817712172866" lon="9.303348502144216">
<ele>228</ele>
<time>2024-05-12T11:40:38Z</time>
</trkpt>
<trkpt lat="48.858188604936" lon="9.303409522399306">
<ele>228</ele>
<time>2024-05-12T11:40:39Z</time>
</trkpt>
<trkpt lat="48.858203859999776" lon="9.303473392501472">
<ele>228</ele>
<time>2024-05-12T11:40:40Z</time>
</trkpt>
<trkpt lat="48.858222886919975" lon="9.303535418584945">
<ele>228</ele>
<time>2024-05-12T11:40:41Z</time>
</trkpt>
<trkpt lat="48.858241997659206" lon="9.303594511002302">
<ele>228.2</ele>
<time>2024-05-12T11:40:42Z</time>
</trkpt>
<trkpt lat="48.85826110839844" lon="9.303654609248042">
<ele>228</ele>
<time>2024-05-12T11:40:43Z</time>
</trkpt>
<trkpt lat="48.85828013531864" lon="9.303716635331511">
<ele>228</ele>
<time>2024-05-12T11:40:44Z</time>
</trkpt>
<trkpt lat="48.858303017914295" lon="9.303776733577251">
<ele>228</ele>
<time>2024-05-12T11:40:45Z</time>
</trkpt>
<trkpt lat="48.858322128653526" lon="9.303838675841687">
<ele>227.8</ele>
<time>2024-05-12T11:40:46Z</time>
</trkpt>
<trkpt lat="48.858341155573726" lon="9.30389785207808">
<ele>227.6</ele>
<time>2024-05-12T11:40:47Z</time>
</trkpt>
<trkpt lat="48.858364038169384" lon="9.303961722180247">
<ele>227.4</ele>
<time>2024-05-12T11:40:48Z</time>
</trkpt>
<trkpt lat="48.85838692076504" lon="9.304023664444683">
<ele>227.4</ele>
<time>2024-05-12T11:40:49Z</time>
</trkpt>
<trkpt lat="48.8584098033607" lon="9.304084768518806">
<ele>227.4</ele>
<time>2024-05-12T11:40:50Z</time>
</trkpt>
<trkpt lat="48.85843276977539" lon="9.304148638620973">
<ele>227.4</ele>
<time>2024-05-12T11:40:51Z</time>
</trkpt>
<trkpt lat="48.85845179669559" lon="9.304208736866713">
<ele>227.6</ele>
<time>2024-05-12T11:40:52Z</time>
</trkpt>
<trkpt lat="48.85847853496671" lon="9.304267829284072">
<ele>227.6</ele>
<time>2024-05-12T11:40:53Z</time>
</trkpt>
<trkpt lat="48.85850518941879" lon="9.304327927529812">
<ele>227.6</ele>
<time>2024-05-12T11:40:54Z</time>
</trkpt>
<trkpt lat="48.85853192768991" lon="9.30438995361328">
<ele>227.8</ele>
<time>2024-05-12T11:40:55Z</time>
</trkpt>
<trkpt lat="48.85855481028557" lon="9.304452817887068">
<ele>227.8</ele>
<time>2024-05-12T11:40:56Z</time>
</trkpt>
<trkpt lat="48.858581464737654" lon="9.304512916132808">
<ele>228</ele>
<time>2024-05-12T11:40:57Z</time>
</trkpt>
<trkpt lat="48.85861205868423" lon="9.3045720923692">
<ele>228.2</ele>
<time>2024-05-12T11:40:58Z</time>
</trkpt>
<trkpt lat="48.858638713136315" lon="9.30462640710175">
<ele>228.2</ele>
<time>2024-05-12T11:40:59Z</time>
</trkpt>
<trkpt lat="48.85866545140743" lon="9.304677955806255">
<ele>228.4</ele>
<time>2024-05-12T11:41:00Z</time>
</trkpt>
<trkpt lat="48.85869210585952" lon="9.304731348529458">
<ele>228.4</ele>
<time>2024-05-12T11:41:01Z</time>
</trkpt>
<trkpt lat="48.85872261598706" lon="9.304782813414931">
<ele>228.4</ele>
<time>2024-05-12T11:41:02Z</time>
</trkpt>
<trkpt lat="48.85875312611461" lon="9.304833356291056">
<ele>228.4</ele>
<time>2024-05-12T11:41:03Z</time>
</trkpt>
<trkpt lat="48.85878749191761" lon="9.304880127310753">
<ele>228.6</ele>
<time>2024-05-12T11:41:04Z</time>
</trkpt>
<trkpt lat="48.85882185772061" lon="9.304923042654991">
<ele>228.6</ele>
<time>2024-05-12T11:41:05Z</time>
</trkpt>
<trkpt lat="48.858856139704585" lon="9.304964952170849">
<ele>228.8</ele>
<time>2024-05-12T11:41:06Z</time>
</trkpt>
<trkpt lat="48.85889050550759" lon="9.305001245811582">
<ele>229</ele>
<time>2024-05-12T11:41:07Z</time>
</trkpt>
<trkpt lat="48.85892478749156" lon="9.305034605786204">
<ele>229.4</ele>
<time>2024-05-12T11:41:08Z</time>
</trkpt>
<trkpt lat="48.85896300897002" lon="9.305074671283364">
<ele>229.8</ele>
<time>2024-05-12T11:41:09Z</time>
</trkpt>
<trkpt lat="48.85899351909757" lon="9.305111803114414">
<ele>229.8</ele>
<time>2024-05-12T11:41:10Z</time>
</trkpt>
<trkpt lat="48.85902017354965" lon="9.30514331907034">
<ele>230</ele>
<time>2024-05-12T11:41:11Z</time>
</trkpt>
<trkpt lat="48.85904691182077" lon="9.305172907188537">
<ele>230</ele>
<time>2024-05-12T11:41:12Z</time>
</trkpt>
<trkpt lat="48.85906979441643" lon="9.30520148947835">
<ele>230</ele>
<time>2024-05-12T11:41:13Z</time>
</trkpt>
<trkpt lat="48.859092677012086" lon="9.305231999605894">
<ele>229.8</ele>
<time>2024-05-12T11:41:14Z</time>
</trkpt>
<trkpt lat="48.85912318713963" lon="9.30526351556182">
<ele>229.8</ele>
<time>2024-05-12T11:41:15Z</time>
</trkpt>
<trkpt lat="48.859157552942634" lon="9.305293019860985">
<ele>229.8</ele>
<time>2024-05-12T11:41:16Z</time>
</trkpt>
<trkpt lat="48.859195690602064" lon="9.305331157520412">
<ele>229.8</ele>
<time>2024-05-12T11:41:17Z</time>
</trkpt>
<trkpt lat="48.859233828261495" lon="9.305368373170497">
<ele>229.8</ele>
<time>2024-05-12T11:41:18Z</time>
</trkpt>
<trkpt lat="48.85927573777735" lon="9.305413216352465">
<ele>229.6</ele>
<time>2024-05-12T11:41:19Z</time>
</trkpt>
<trkpt lat="48.859313959255815" lon="9.305459903553128">
<ele>229.4</ele>
<time>2024-05-12T11:41:20Z</time>
</trkpt>
<trkpt lat="48.859348241239786" lon="9.305502818897368">
<ele>229.2</ele>
<time>2024-05-12T11:41:21Z</time>
</trkpt>
<trkpt lat="48.85939023457467" lon="9.3055562954396">
<ele>229.2</ele>
<time>2024-05-12T11:41:22Z</time>
</trkpt>
<trkpt lat="48.85943977162242" lon="9.30561538785696">
<ele>229.2</ele>
<time>2024-05-12T11:41:23Z</time>
</trkpt>
<trkpt lat="48.85948176495731" lon="9.30567355826497">
<ele>229.2</ele>
<time>2024-05-12T11:41:24Z</time>
</trkpt>
<trkpt lat="48.85953138582408" lon="9.30573457852006">
<ele>229.4</ele>
<time>2024-05-12T11:41:25Z</time>
</trkpt>
<trkpt lat="48.8595771510154" lon="9.30579182691872">
<ele>229.6</ele>
<time>2024-05-12T11:41:26Z</time>
</trkpt>
<trkpt lat="48.85962291620672" lon="9.305849997326732">
<ele>229.8</ele>
<time>2024-05-12T11:41:27Z</time>
</trkpt>
<trkpt lat="48.85966105386615" lon="9.305903390049934">
<ele>230</ele>
<time>2024-05-12T11:41:28Z</time>
</trkpt>
<trkpt lat="48.85969541966915" lon="9.305946305394173">
<ele>230.2</ele>
<time>2024-05-12T11:41:29Z</time>
</trkpt>
<trkpt lat="48.85972970165312" lon="9.30599307641387">
<ele>230.2</ele>
<time>2024-05-12T11:41:30Z</time>
</trkpt>
<trkpt lat="48.85976021178067" lon="9.306041691452265">
<ele>230.2</ele>
<time>2024-05-12T11:41:31Z</time>
</trkpt>
<trkpt lat="48.85979072190821" lon="9.30608837865293">
<ele>230</ele>
<time>2024-05-12T11:41:32Z</time>
</trkpt>
<trkpt lat="48.859825087711215" lon="9.306141771376131">
<ele>230</ele>
<time>2024-05-12T11:41:33Z</time>
</trkpt>
<trkpt lat="48.859867081046104" lon="9.306200025603175">
<ele>230.2</ele>
<time>2024-05-12T11:41:34Z</time>
</trkpt>
<trkpt lat="48.85990136303008" lon="9.306253418326378">
<ele>230.2</ele>
<time>2024-05-12T11:41:35Z</time>
</trkpt>
<trkpt lat="48.85993187315762" lon="9.306302955374122">
<ele>230.2</ele>
<time>2024-05-12T11:41:36Z</time>
</trkpt>
<trkpt lat="48.859966238960624" lon="9.306348720565438">
<ele>230.2</ele>
<time>2024-05-12T11:41:37Z</time>
</trkpt>
<trkpt lat="48.860004376620054" lon="9.306396413594484">
<ele>230.2</ele>
<time>2024-05-12T11:41:38Z</time>
</trkpt>
<trkpt lat="48.86003874242306" lon="9.306446956470609">
<ele>230.4</ele>
<time>2024-05-12T11:41:39Z</time>
</trkpt>
<trkpt lat="48.86007302440703" lon="9.306496577337384">
<ele>230.4</ele>
<time>2024-05-12T11:41:40Z</time>
</trkpt>
<trkpt lat="48.86010739021003" lon="9.306549970060589">
<ele>230.4</ele>
<time>2024-05-12T11:41:41Z</time>
</trkpt>
<trkpt lat="48.860141672194" lon="9.306601518765092">
<ele>230.4</ele>
<time>2024-05-12T11:41:42Z</time>
</trkpt>
<trkpt lat="48.86017603799701" lon="9.306652983650563">
<ele>230.4</ele>
<time>2024-05-12T11:41:43Z</time>
</trkpt>
<trkpt lat="48.86020654812455" lon="9.30670545436442">
<ele>230.4</ele>
<time>2024-05-12T11:41:44Z</time>
</trkpt>
<trkpt lat="48.860240913927555" lon="9.306757925078273">
<ele>230.6</ele>
<time>2024-05-12T11:41:45Z</time>
</trkpt>
<trkpt lat="48.86027519591153" lon="9.306808467954395">
<ele>230.6</ele>
<time>2024-05-12T11:41:46Z</time>
</trkpt>
<trkpt lat="48.86031333357096" lon="9.306857082992792">
<ele>230.6</ele>
<time>2024-05-12T11:41:47Z</time>
</trkpt>
<trkpt lat="48.86035155504942" lon="9.306915253400804">
<ele>230.6</ele>
<time>2024-05-12T11:41:48Z</time>
</trkpt>
<trkpt lat="48.86038206517696" lon="9.306973423808811">
<ele>230.6</ele>
<time>2024-05-12T11:41:49Z</time>
</trkpt>
<trkpt lat="48.860416347160935" lon="9.307028744369743">
<ele>230.6</ele>
<time>2024-05-12T11:41:50Z</time>
</trkpt>
<trkpt lat="48.86044685728848" lon="9.307083059102297">
<ele>230.8</ele>
<time>2024-05-12T11:41:51Z</time>
</trkpt>
<trkpt lat="48.860477367416024" lon="9.30713360197842">
<ele>230.6</ele>
<time>2024-05-12T11:41:52Z</time>
</trkpt>
<trkpt lat="48.86050410568714" lon="9.307185150682926">
<ele>230.6</ele>
<time>2024-05-12T11:41:53Z</time>
</trkpt>
<trkpt lat="48.860534615814686" lon="9.307238543406129">
<ele>230.4</ele>
<time>2024-05-12T11:41:54Z</time>
</trkpt>
<trkpt lat="48.860557498410344" lon="9.30729285813868">
<ele>230.4</ele>
<time>2024-05-12T11:41:55Z</time>
</trkpt>
<trkpt lat="48.86058800853789" lon="9.307348178699613">
<ele>230.4</ele>
<time>2024-05-12T11:41:56Z</time>
</trkpt>
<trkpt lat="48.86061851866543" lon="9.307403499260545">
<ele>230.4</ele>
<time>2024-05-12T11:41:57Z</time>
</trkpt>
<trkpt lat="48.86064525693655" lon="9.307456891983747">
<ele>230.2</ele>
<time>2024-05-12T11:41:58Z</time>
</trkpt>
<trkpt lat="48.860675767064095" lon="9.307510368525982">
<ele>229.6</ele>
<time>2024-05-12T11:41:59Z</time>
</trkpt>
<trkpt lat="48.86070250533521" lon="9.307559905573726">
<ele>229.6</ele>
<time>2024-05-12T11:42:00Z</time>
</trkpt>
<trkpt lat="48.86072538793087" lon="9.30761145427823">
<ele>229.6</ele>
<time>2024-05-12T11:42:01Z</time>
</trkpt>
<trkpt lat="48.860755898058414" lon="9.307666774839165">
<ele>229.4</ele>
<time>2024-05-12T11:42:02Z</time>
</trkpt>
<trkpt lat="48.8607825525105" lon="9.307726789265873">
<ele>229.4</ele>
<time>2024-05-12T11:42:03Z</time>
</trkpt>
<trkpt lat="48.86080543510616" lon="9.30778973735869">
<ele>229.6</ele>
<time>2024-05-12T11:42:04Z</time>
</trkpt>
<trkpt lat="48.860832173377275" lon="9.30785176344216">
<ele>229.6</ele>
<time>2024-05-12T11:42:05Z</time>
</trkpt>
<trkpt lat="48.86085891164839" lon="9.307918483391404">
<ele>229.4</ele>
<time>2024-05-12T11:42:06Z</time>
</trkpt>
<trkpt lat="48.86088556610048" lon="9.307991908863189">
<ele>229.4</ele>
<time>2024-05-12T11:42:07Z</time>
</trkpt>
<trkpt lat="48.860912304371595" lon="9.308063490316272">
<ele>229.4</ele>
<time>2024-05-12T11:42:08Z</time>
</trkpt>
<trkpt lat="48.86093895882368" lon="9.308131216093898">
<ele>229.6</ele>
<time>2024-05-12T11:42:09Z</time>
</trkpt>
<trkpt lat="48.86096184141934" lon="9.308197936043143">
<ele>229.6</ele>
<time>2024-05-12T11:42:10Z</time>
</trkpt>
<trkpt lat="48.86098095215857" lon="9.308264655992389">
<ele>229.4</ele>
<time>2024-05-12T11:42:11Z</time>
</trkpt>
<trkpt lat="48.86100383475423" lon="9.308331459760666">
<ele>229.4</ele>
<time>2024-05-12T11:42:12Z</time>
</trkpt>
<trkpt lat="48.86102671734989" lon="9.30840010754764">
<ele>229.2</ele>
<time>2024-05-12T11:42:13Z</time>
</trkpt>
<trkpt lat="48.86104582808912" lon="9.308467833325269">
<ele>229.2</ele>
<time>2024-05-12T11:42:14Z</time>
</trkpt>
<trkpt lat="48.86106485500932" lon="9.308538408949971">
<ele>229.2</ele>
<time>2024-05-12T11:42:15Z</time>
</trkpt>
<trkpt lat="48.86108396574855" lon="9.308607978746297">
<ele>229.2</ele>
<time>2024-05-12T11:42:16Z</time>
</trkpt>
<trkpt lat="48.86109922081232" lon="9.308678554371">
<ele>229.2</ele>
<time>2024-05-12T11:42:17Z</time>
</trkpt>
<trkpt lat="48.86111447587609" lon="9.308750135824084">
<ele>229.2</ele>
<time>2024-05-12T11:42:18Z</time>
</trkpt>
<trkpt lat="48.861125875264406" lon="9.308821633458138">
<ele>229.4</ele>
<time>2024-05-12T11:42:19Z</time>
</trkpt>
<trkpt lat="48.86113735847175" lon="9.308888353407385">
<ele>229.4</ele>
<time>2024-05-12T11:42:20Z</time>
</trkpt>
<trkpt lat="48.86114498600364" lon="9.308958007022738">
<ele>229.4</ele>
<time>2024-05-12T11:42:21Z</time>
</trkpt>
<trkpt lat="48.861148757860065" lon="9.309026654809712">
<ele>229.6</ele>
<time>2024-05-12T11:42:22Z</time>
</trkpt>
<trkpt lat="48.861148757860065" lon="9.30909153074026">
<ele>229.6</ele>
<time>2024-05-12T11:42:23Z</time>
</trkpt>
<trkpt lat="48.86115261353552" lon="9.309160178527236">
<ele>229.6</ele>
<time>2024-05-12T11:42:24Z</time>
</trkpt>
<trkpt lat="48.86115638539195" lon="9.309225054457784">
<ele>229.6</ele>
<time>2024-05-12T11:42:25Z</time>
</trkpt>
<trkpt lat="48.86116401292384" lon="9.309288002550602">
<ele>229.8</ele>
<time>2024-05-12T11:42:26Z</time>
</trkpt>
<trkpt lat="48.86117164045572" lon="9.309352794662118">
<ele>229.8</ele>
<time>2024-05-12T11:42:27Z</time>
</trkpt>
<trkpt lat="48.86117549613118" lon="9.309423370286822">
<ele>230</ele>
<time>2024-05-12T11:42:28Z</time>
</trkpt>
<trkpt lat="48.86117935180664" lon="9.309494951739907">
<ele>230</ele>
<time>2024-05-12T11:42:29Z</time>
</trkpt>
<trkpt lat="48.86117935180664" lon="9.30957030504942">
<ele>230.2</ele>
<time>2024-05-12T11:42:30Z</time>
</trkpt>
<trkpt lat="48.86117549613118" lon="9.309644652530553">
<ele>230.2</ele>
<time>2024-05-12T11:42:31Z</time>
</trkpt>
<trkpt lat="48.86117164045572" lon="9.309720005840065">
<ele>230.2</ele>
<time>2024-05-12T11:42:32Z</time>
</trkpt>
<trkpt lat="48.861167868599296" lon="9.309795359149575">
<ele>230.2</ele>
<time>2024-05-12T11:42:33Z</time>
</trkpt>
<trkpt lat="48.86116401292384" lon="9.309867778792976">
<ele>230.4</ele>
<time>2024-05-12T11:42:34Z</time>
</trkpt>
<trkpt lat="48.86115638539195" lon="9.309941288083792">
<ele>230.4</ele>
<time>2024-05-12T11:42:35Z</time>
</trkpt>
<trkpt lat="48.861148757860065" lon="9.310014713555574">
<ele>230.6</ele>
<time>2024-05-12T11:42:36Z</time>
</trkpt>
<trkpt lat="48.86114113032818" lon="9.310088139027355">
<ele>230.8</ele>
<time>2024-05-12T11:42:37Z</time>
</trkpt>
<trkpt lat="48.861129730939865" lon="9.31015963666141">
<ele>230.8</ele>
<time>2024-05-12T11:42:38Z</time>
</trkpt>
<trkpt lat="48.86112210340798" lon="9.310230212286116">
<ele>230.8</ele>
<time>2024-05-12T11:42:39Z</time>
</trkpt>
<trkpt lat="48.86111447587609" lon="9.310295088216662">
<ele>230.8</ele>
<time>2024-05-12T11:42:40Z</time>
</trkpt>
<trkpt lat="48.86109922081232" lon="9.3103570304811">
<ele>230.8</ele>
<time>2024-05-12T11:42:41Z</time>
</trkpt>
<trkpt lat="48.861087737604976" lon="9.310421906411648">
<ele>230.8</ele>
<time>2024-05-12T11:42:42Z</time>
</trkpt>
<trkpt lat="48.86107633821666" lon="9.310486782342196">
<ele>230.8</ele>
<time>2024-05-12T11:42:43Z</time>
</trkpt>
<trkpt lat="48.861068710684776" lon="9.310551574453712">
<ele>230.8</ele>
<time>2024-05-12T11:42:44Z</time>
</trkpt>
<trkpt lat="48.86106485500932" lon="9.31061360053718">
<ele>230.8</ele>
<time>2024-05-12T11:42:45Z</time>
</trkpt>
<trkpt lat="48.86105345562101" lon="9.310678476467729">
<ele>230.8</ele>
<time>2024-05-12T11:42:46Z</time>
</trkpt>
<trkpt lat="48.86103820055723" lon="9.310747124254704">
<ele>231</ele>
<time>2024-05-12T11:42:47Z</time>
</trkpt>
<trkpt lat="48.86102294549346" lon="9.310816694051027">
<ele>231</ele>
<time>2024-05-12T11:42:48Z</time>
</trkpt>
<trkpt lat="48.86099997907877" lon="9.310883497819304">
<ele>231.2</ele>
<time>2024-05-12T11:42:49Z</time>
</trkpt>
<trkpt lat="48.86097709648311" lon="9.31095021776855">
<ele>231.2</ele>
<time>2024-05-12T11:42:50Z</time>
</trkpt>
<trkpt lat="48.86095421388745" lon="9.311015093699098">
<ele>231</ele>
<time>2024-05-12T11:42:51Z</time>
</trkpt>
<trkpt lat="48.86092755943537" lon="9.311081813648345">
<ele>231</ele>
<time>2024-05-12T11:42:52Z</time>
</trkpt>
<trkpt lat="48.86090082116425" lon="9.311142917722464">
<ele>231</ele>
<time>2024-05-12T11:42:53Z</time>
</trkpt>
<trkpt lat="48.860874166712165" lon="9.311202932149172">
<ele>231</ele>
<time>2024-05-12T11:42:54Z</time>
</trkpt>
<trkpt lat="48.86084742844105" lon="9.311263030394912">
<ele>231.2</ele>
<time>2024-05-12T11:42:55Z</time>
</trkpt>
<trkpt lat="48.86082069016993" lon="9.311321200802922">
<ele>231.2</ele>
<time>2024-05-12T11:42:56Z</time>
</trkpt>
<trkpt lat="48.860794035717845" lon="9.31138515472412">
<ele>231.2</ele>
<time>2024-05-12T11:42:57Z</time>
</trkpt>
<trkpt lat="48.86077115312219" lon="9.311448018997908">
<ele>231.2</ele>
<time>2024-05-12T11:42:58Z</time>
</trkpt>
<trkpt lat="48.86074441485107" lon="9.311511972919106">
<ele>231.2</ele>
<time>2024-05-12T11:42:59Z</time>
</trkpt>
<trkpt lat="48.860717760398984" lon="9.311570143327115">
<ele>231.2</ele>
<time>2024-05-12T11:43:00Z</time>
</trkpt>
<trkpt lat="48.86069102212787" lon="9.311624458059669">
<ele>231.2</ele>
<time>2024-05-12T11:43:01Z</time>
</trkpt>
<trkpt lat="48.86066051200032" lon="9.311675000935791">
<ele>231.2</ele>
<time>2024-05-12T11:43:02Z</time>
</trkpt>
<trkpt lat="48.86063000187278" lon="9.31172177195549">
<ele>231.2</ele>
<time>2024-05-12T11:43:03Z</time>
</trkpt>
<trkpt lat="48.86059949174523" lon="9.311768459156156">
<ele>231.2</ele>
<time>2024-05-12T11:43:04Z</time>
</trkpt>
<trkpt lat="48.86056512594223" lon="9.311811374500394">
<ele>231.2</ele>
<time>2024-05-12T11:43:05Z</time>
</trkpt>
<trkpt lat="48.86053084395826" lon="9.311853367835283">
<ele>231.2</ele>
<time>2024-05-12T11:43:06Z</time>
</trkpt>
<trkpt lat="48.860496478155255" lon="9.311891505494714">
<ele>231.2</ele>
<time>2024-05-12T11:43:07Z</time>
</trkpt>
<trkpt lat="48.86046211235225" lon="9.311931570991874">
<ele>231.2</ele>
<time>2024-05-12T11:43:08Z</time>
</trkpt>
<trkpt lat="48.86042783036828" lon="9.31197641417384">
<ele>231.2</ele>
<time>2024-05-12T11:43:09Z</time>
</trkpt>
<trkpt lat="48.86039346456528" lon="9.312021173536776">
<ele>231.4</ele>
<time>2024-05-12T11:43:10Z</time>
</trkpt>
<trkpt lat="48.860359182581306" lon="9.312065094709396">
<ele>231.4</ele>
<time>2024-05-12T11:43:11Z</time>
</trkpt>
<trkpt lat="48.86032867245376" lon="9.312105160206556">
<ele>231.6</ele>
<time>2024-05-12T11:43:12Z</time>
</trkpt>
<trkpt lat="48.8602904509753" lon="9.312143297865989">
<ele>231.6</ele>
<time>2024-05-12T11:43:13Z</time>
</trkpt>
<trkpt lat="48.86024854145944" lon="9.31217665784061">
<ele>231.4</ele>
<time>2024-05-12T11:43:14Z</time>
</trkpt>
<trkpt lat="48.86020654812455" lon="9.312208173796536">
<ele>231.4</ele>
<time>2024-05-12T11:43:15Z</time>
</trkpt>
<trkpt lat="48.86016841046512" lon="9.312239605933428">
<ele>231.2</ele>
<time>2024-05-12T11:43:16Z</time>
</trkpt>
<trkpt lat="48.86012641713023" lon="9.312272043898702">
<ele>231.2</ele>
<time>2024-05-12T11:43:17Z</time>
</trkpt>
<trkpt lat="48.8600882794708" lon="9.312303476035597">
<ele>231</ele>
<time>2024-05-12T11:43:18Z</time>
</trkpt>
<trkpt lat="48.86003874242306" lon="9.312330214306712">
<ele>231</ele>
<time>2024-05-12T11:43:19Z</time>
</trkpt>
<trkpt lat="48.85999297723174" lon="9.312356868758798">
<ele>231.2</ele>
<time>2024-05-12T11:43:20Z</time>
</trkpt>
<trkpt lat="48.859943356364965" lon="9.312379835173488">
<ele>231.2</ele>
<time>2024-05-12T11:43:21Z</time>
</trkpt>
<trkpt lat="48.85989373549819" lon="9.31239509023726">
<ele>231.4</ele>
<time>2024-05-12T11:43:22Z</time>
</trkpt>
<trkpt lat="48.85984797030687" lon="9.312410345301032">
<ele>231.4</ele>
<time>2024-05-12T11:43:23Z</time>
</trkpt>
<trkpt lat="48.8597983494401" lon="9.312424594536424">
<ele>231.6</ele>
<time>2024-05-12T11:43:24Z</time>
</trkpt>
<trkpt lat="48.85975258424878" lon="9.312448482960464">
<ele>231.8</ele>
<time>2024-05-12T11:43:25Z</time>
</trkpt>
<trkpt lat="48.85970304720104" lon="9.31247136555612">
<ele>231.8</ele>
<time>2024-05-12T11:43:26Z</time>
</trkpt>
<trkpt lat="48.85965342633426" lon="9.312481842935084">
<ele>231.8</ele>
<time>2024-05-12T11:43:27Z</time>
</trkpt>
<trkpt lat="48.85960003361106" lon="9.312477065250278">
<ele>231.8</ele>
<time>2024-05-12T11:43:28Z</time>
</trkpt>
<trkpt lat="48.85954664088786" lon="9.312463738024237">
<ele>231.6</ele>
<time>2024-05-12T11:43:29Z</time>
</trkpt>
<trkpt lat="48.859493248164654" lon="9.312448482960464">
<ele>231.4</ele>
<time>2024-05-12T11:43:30Z</time>
</trkpt>
<trkpt lat="48.85943977162242" lon="9.31243322789669">
<ele>231.2</ele>
<time>2024-05-12T11:43:31Z</time>
</trkpt>
<trkpt lat="48.85938637889922" lon="9.312421744689344">
<ele>231</ele>
<time>2024-05-12T11:43:32Z</time>
</trkpt>
<trkpt lat="48.85933684185147" lon="9.312406489625571">
<ele>230.8</ele>
<time>2024-05-12T11:43:33Z</time>
</trkpt>
<trkpt lat="48.8592872209847" lon="9.312388384714724">
<ele>230.6</ele>
<time>2024-05-12T11:43:34Z</time>
</trkpt>
<trkpt lat="48.85923760011792" lon="9.31237120181322">
<ele>230.4</ele>
<time>2024-05-12T11:43:35Z</time>
</trkpt>
<trkpt lat="48.859191834926605" lon="9.3123550247401">
<ele>230.2</ele>
<time>2024-05-12T11:43:36Z</time>
</trkpt>
<trkpt lat="48.85914229787886" lon="9.312337841838598">
<ele>230</ele>
<time>2024-05-12T11:43:37Z</time>
</trkpt>
<trkpt lat="48.85909644886851" lon="9.312318731099367">
<ele>230</ele>
<time>2024-05-12T11:43:38Z</time>
</trkpt>
<trkpt lat="48.859054539352655" lon="9.312299704179168">
<ele>230</ele>
<time>2024-05-12T11:43:39Z</time>
</trkpt>
<trkpt lat="48.859012546017766" lon="9.31227489374578">
<ele>230</ele>
<time>2024-05-12T11:43:40Z</time>
</trkpt>
<trkpt lat="48.858974408358335" lon="9.312252011150122">
<ele>230</ele>
<time>2024-05-12T11:43:41Z</time>
</trkpt>
<trkpt lat="48.85894004255533" lon="9.312226278707383">
<ele>230.2</ele>
<time>2024-05-12T11:43:42Z</time>
</trkpt>
<trkpt lat="48.858898133039474" lon="9.31219669058919">
<ele>230.2</ele>
<time>2024-05-12T11:43:43Z</time>
</trkpt>
<trkpt lat="48.85885999538005" lon="9.312166180461643">
<ele>230.2</ele>
<time>2024-05-12T11:43:44Z</time>
</trkpt>
<trkpt lat="48.85882185772061" lon="9.312141370028256">
<ele>230.4</ele>
<time>2024-05-12T11:43:45Z</time>
</trkpt>
<trkpt lat="48.8587760925293" lon="9.3121184874326">
<ele>230.4</ele>
<time>2024-05-12T11:43:46Z</time>
</trkpt>
<trkpt lat="48.85872647166252" lon="9.312087055295706">
<ele>230.4</ele>
<time>2024-05-12T11:43:47Z</time>
</trkpt>
<trkpt lat="48.858680706471205" lon="9.31205646134913">
<ele>230.4</ele>
<time>2024-05-12T11:43:48Z</time>
</trkpt>
<trkpt lat="48.85863494127989" lon="9.312027879059317">
<ele>230.4</ele>
<time>2024-05-12T11:43:49Z</time>
</trkpt>
<trkpt lat="48.85858909226954" lon="9.312007846310737">
<ele>230.4</ele>
<time>2024-05-12T11:43:50Z</time>
</trkpt>
<trkpt lat="48.85854332707822" lon="9.311987813562157">
<ele>230.2</ele>
<time>2024-05-12T11:43:51Z</time>
</trkpt>
<trkpt lat="48.85848993435502" lon="9.311971636489034">
<ele>230.2</ele>
<time>2024-05-12T11:43:52Z</time>
</trkpt>
<trkpt lat="48.85843654163182" lon="9.311962081119418">
<ele>230</ele>
<time>2024-05-12T11:43:53Z</time>
</trkpt>
<trkpt lat="48.858383148908615" lon="9.311953531578183">
<ele>230</ele>
<time>2024-05-12T11:43:54Z</time>
</trkpt>
<trkpt lat="48.85832975618541" lon="9.311944898217916">
<ele>230</ele>
<time>2024-05-12T11:43:55Z</time>
</trkpt>
<trkpt lat="48.85828013531864" lon="9.311933498829603">
<ele>230</ele>
<time>2024-05-12T11:43:56Z</time>
</trkpt>
<trkpt lat="48.85823437012732" lon="9.311916315928102">
<ele>229.8</ele>
<time>2024-05-12T11:43:57Z</time>
</trkpt>
<trkpt lat="48.858188604936" lon="9.311893433332443">
<ele>229.8</ele>
<time>2024-05-12T11:43:58Z</time>
</trkpt>
<trkpt lat="48.858146611601114" lon="9.311866695061326">
<ele>229.8</ele>
<time>2024-05-12T11:43:59Z</time>
</trkpt>
<trkpt lat="48.8581008464098" lon="9.311835262924433">
<ele>229.8</ele>
<time>2024-05-12T11:44:00Z</time>
</trkpt>
<trkpt lat="48.85805508121848" lon="9.31179997511208">
<ele>229.8</ele>
<time>2024-05-12T11:44:01Z</time>
</trkpt>
<trkpt lat="48.858009316027164" lon="9.311766615137458">
<ele>229.8</ele>
<time>2024-05-12T11:44:02Z</time>
</trkpt>
<trkpt lat="48.85796355083585" lon="9.311733171343803">
<ele>229.8</ele>
<time>2024-05-12T11:44:03Z</time>
</trkpt>
<trkpt lat="48.85792155750096" lon="9.311697883531451">
<ele>229.8</ele>
<time>2024-05-12T11:44:04Z</time>
</trkpt>
<trkpt lat="48.85787193663418" lon="9.311654968187211">
<ele>229.8</ele>
<time>2024-05-12T11:44:05Z</time>
</trkpt>
<trkpt lat="48.857830027118325" lon="9.311613058671355">
<ele>229.8</ele>
<time>2024-05-12T11:44:06Z</time>
</trkpt>
<trkpt lat="48.85778426192701" lon="9.311570143327115">
<ele>229.8</ele>
<time>2024-05-12T11:44:07Z</time>
</trkpt>
<trkpt lat="48.85774226859212" lon="9.311528149992228">
<ele>230</ele>
<time>2024-05-12T11:44:08Z</time>
</trkpt>
<trkpt lat="48.8576965034008" lon="9.311490012332795">
<ele>230</ele>
<time>2024-05-12T11:44:09Z</time>
</trkpt>
<trkpt lat="48.857650738209486" lon="9.311452796682715">
<ele>230</ele>
<time>2024-05-12T11:44:10Z</time>
</trkpt>
<trkpt lat="48.8576087448746" lon="9.311421364545822">
<ele>230.2</ele>
<time>2024-05-12T11:44:11Z</time>
</trkpt>
<trkpt lat="48.85756675153971" lon="9.311393704265356">
<ele>230.2</ele>
<time>2024-05-12T11:44:12Z</time>
</trkpt>
<trkpt lat="48.85752484202385" lon="9.311363194137812">
<ele>230.2</ele>
<time>2024-05-12T11:44:13Z</time>
</trkpt>
<trkpt lat="48.85748670436442" lon="9.311336455866694">
<ele>230.4</ele>
<time>2024-05-12T11:44:14Z</time>
</trkpt>
<trkpt lat="48.85744856670499" lon="9.311309801414607">
<ele>230.4</ele>
<time>2024-05-12T11:44:15Z</time>
</trkpt>
<trkpt lat="48.8574065733701" lon="9.31128691881895">
<ele>230.6</ele>
<time>2024-05-12T11:44:16Z</time>
</trkpt>
<trkpt lat="48.85736458003521" lon="9.31126495823264">
<ele>230.8</ele>
<time>2024-05-12T11:44:17Z</time>
</trkpt>
<trkpt lat="48.85732267051935" lon="9.311242997646332">
<ele>231</ele>
<time>2024-05-12T11:44:18Z</time>
</trkpt>
<trkpt lat="48.857276905328035" lon="9.31122489273548">
<ele>231</ele>
<time>2024-05-12T11:44:19Z</time>
</trkpt>
<trkpt lat="48.857234911993146" lon="9.311209637671707">
<ele>231.2</ele>
<time>2024-05-12T11:44:20Z</time>
</trkpt>
<trkpt lat="48.85719291865826" lon="9.311193460598588">
<ele>231.4</ele>
<time>2024-05-12T11:44:21Z</time>
</trkpt>
<trkpt lat="48.85714338161051" lon="9.311176277697086">
<ele>231.4</ele>
<time>2024-05-12T11:44:22Z</time>
</trkpt>
<trkpt lat="48.85710138827562" lon="9.311156244948506">
<ele>231.6</ele>
<time>2024-05-12T11:44:23Z</time>
</trkpt>
<trkpt lat="48.85705562308431" lon="9.31114476174116">
<ele>231.8</ele>
<time>2024-05-12T11:44:24Z</time>
</trkpt>
<trkpt lat="48.857002230361104" lon="9.311133362352848">
<ele>231.8</ele>
<time>2024-05-12T11:44:25Z</time>
</trkpt>
<trkpt lat="48.8569488376379" lon="9.311121879145505">
<ele>231.6</ele>
<time>2024-05-12T11:44:26Z</time>
</trkpt>
<trkpt lat="48.8568954449147" lon="9.311116179451346">
<ele>231.6</ele>
<time>2024-05-12T11:44:27Z</time>
</trkpt>
<trkpt lat="48.85684959590435" lon="9.311113329604268">
<ele>231.6</ele>
<time>2024-05-12T11:44:28Z</time>
</trkpt>
<trkpt lat="48.85680005885661" lon="9.31110855191946">
<ele>231.4</ele>
<time>2024-05-12T11:44:29Z</time>
</trkpt>
<trkpt lat="48.85675043798983" lon="9.311101846396925">
<ele>231.2</ele>
<time>2024-05-12T11:44:30Z</time>
</trkpt>
<trkpt lat="48.856704672798514" lon="9.311093296855688">
<ele>231.2</ele>
<time>2024-05-12T11:44:31Z</time>
</trkpt>
<trkpt lat="48.85665505193174" lon="9.31108659133315">
<ele>231.2</ele>
<time>2024-05-12T11:44:32Z</time>
</trkpt>
<trkpt lat="48.85661314241588" lon="9.311081813648345">
<ele>231.2</ele>
<time>2024-05-12T11:44:33Z</time>
</trkpt>
<trkpt lat="48.856567377224565" lon="9.311077035963535">
<ele>231.4</ele>
<time>2024-05-12T11:44:34Z</time>
</trkpt>
<trkpt lat="48.856521528214216" lon="9.31107133626938">
<ele>231.4</ele>
<time>2024-05-12T11:44:35Z</time>
</trkpt>
<trkpt lat="48.85647961869836" lon="9.311063708737493">
<ele>231.6</ele>
<time>2024-05-12T11:44:36Z</time>
</trkpt>
<trkpt lat="48.85643762536347" lon="9.3110513035208">
<ele>231.6</ele>
<time>2024-05-12T11:44:37Z</time>
</trkpt>
<trkpt lat="48.85639571584761" lon="9.311039904132484">
<ele>231.6</ele>
<time>2024-05-12T11:44:38Z</time>
</trkpt>
<trkpt lat="48.85635372251272" lon="9.311026493087413">
<ele>231.6</ele>
<time>2024-05-12T11:44:39Z</time>
</trkpt>
<trkpt lat="48.85631172917783" lon="9.311013165861368">
<ele>231.6</ele>
<time>2024-05-12T11:44:40Z</time>
</trkpt>
<trkpt lat="48.8562735915184" lon="9.311004616320131">
<ele>231.8</ele>
<time>2024-05-12T11:44:41Z</time>
</trkpt>
<trkpt lat="48.85623545385897" lon="9.310997910797596">
<ele>231.8</ele>
<time>2024-05-12T11:44:42Z</time>
</trkpt>
<trkpt lat="48.856201171875" lon="9.310993133112788">
<ele>232</ele>
<time>2024-05-12T11:44:43Z</time>
</trkpt>
<trkpt lat="48.856166806072" lon="9.310986511409284">
<ele>232</ele>
<time>2024-05-12T11:44:44Z</time>
</trkpt>
<trkpt lat="48.85614006780088" lon="9.310973100364208">
<ele>232</ele>
<time>2024-05-12T11:44:45Z</time>
</trkpt>
<trkpt lat="48.856109557673335" lon="9.31095122359693">
<ele>232</ele>
<time>2024-05-12T11:44:46Z</time>
</trkpt>
<trkpt lat="48.85608290322125" lon="9.310919707641006">
<ele>232</ele>
<time>2024-05-12T11:44:47Z</time>
</trkpt>
<trkpt lat="48.85605616495013" lon="9.310886347666385">
<ele>232</ele>
<time>2024-05-12T11:44:48Z</time>
</trkpt>
<trkpt lat="48.85602565482259" lon="9.31085198186338">
<ele>232</ele>
<time>2024-05-12T11:44:49Z</time>
</trkpt>
<trkpt lat="48.85599891655147" lon="9.310821471735837">
<ele>232.2</ele>
<time>2024-05-12T11:44:50Z</time>
</trkpt>
<trkpt lat="48.855972262099385" lon="9.310788111761212">
<ele>232.2</ele>
<time>2024-05-12T11:44:51Z</time>
</trkpt>
<trkpt lat="48.85594937950373" lon="9.310758523643017">
<ele>232</ele>
<time>2024-05-12T11:44:52Z</time>
</trkpt>
<trkpt lat="48.85591501370072" lon="9.310727091506124">
<ele>232</ele>
<time>2024-05-12T11:44:53Z</time>
</trkpt>
<trkpt lat="48.85587687604129" lon="9.310698509216309">
<ele>232.2</ele>
<time>2024-05-12T11:44:54Z</time>
</trkpt>
<trkpt lat="48.85583873838186" lon="9.310667915269732">
<ele>232.4</ele>
<time>2024-05-12T11:44:55Z</time>
</trkpt>
<trkpt lat="48.85579674504697" lon="9.310626927763224">
<ele>232.4</ele>
<time>2024-05-12T11:44:56Z</time>
</trkpt>
<trkpt lat="48.85575860738754" lon="9.310600273311138">
<ele>232.6</ele>
<time>2024-05-12T11:44:57Z</time>
</trkpt>
<trkpt lat="48.85572809726" lon="9.31057353504002">
<ele>232.6</ele>
<time>2024-05-12T11:44:58Z</time>
</trkpt>
<trkpt lat="48.85568995960057" lon="9.310546796768904">
<ele>232.8</ele>
<time>2024-05-12T11:44:59Z</time>
</trkpt>
<trkpt lat="48.855655593797565" lon="9.310522070154548">
<ele>233</ele>
<time>2024-05-12T11:45:00Z</time>
</trkpt>
<trkpt lat="48.85560605674982" lon="9.310488626360891">
<ele>233.2</ele>
<time>2024-05-12T11:45:01Z</time>
</trkpt>
<trkpt lat="48.85555266402662" lon="9.31045333854854">
<ele>233.4</ele>
<time>2024-05-12T11:45:02Z</time>
</trkpt>
<trkpt lat="48.85550681501627" lon="9.310421906411648">
<ele>233.4</ele>
<time>2024-05-12T11:45:03Z</time>
</trkpt>
<trkpt lat="48.85546104982495" lon="9.310386618599296">
<ele>233.6</ele>
<time>2024-05-12T11:45:04Z</time>
</trkpt>
<trkpt lat="48.85542291216552" lon="9.3103570304811">
<ele>233.8</ele>
<time>2024-05-12T11:45:05Z</time>
</trkpt>
<trkpt lat="48.855381002649665" lon="9.31033699773252">
<ele>233.8</ele>
<time>2024-05-12T11:45:06Z</time>
</trkpt>
<trkpt lat="48.85534663684666" lon="9.310311265289783">
<ele>233.8</ele>
<time>2024-05-12T11:45:07Z</time>
</trkpt>
<trkpt lat="48.85531612671912" lon="9.310290310531856">
<ele>233.8</ele>
<time>2024-05-12T11:45:08Z</time>
</trkpt>
<trkpt lat="48.855281760916114" lon="9.310264578089118">
<ele>234</ele>
<time>2024-05-12T11:45:09Z</time>
</trkpt>
<trkpt lat="48.855239851400256" lon="9.31024169549346">
<ele>234</ele>
<time>2024-05-12T11:45:10Z</time>
</trkpt>
<trkpt lat="48.85520548559725" lon="9.310208251699803">
<ele>234</ele>
<time>2024-05-12T11:45:11Z</time>
</trkpt>
<trkpt lat="48.85516349226236" lon="9.31017966940999">
<ele>234.2</ele>
<time>2024-05-12T11:45:12Z</time>
</trkpt>
<trkpt lat="48.855121582746506" lon="9.310150081291797">
<ele>234.4</ele>
<time>2024-05-12T11:45:13Z</time>
</trkpt>
<trkpt lat="48.85507581755519" lon="9.310114793479444">
<ele>234.4</ele>
<time>2024-05-12T11:45:14Z</time>
</trkpt>
<trkpt lat="48.85503005236387" lon="9.310072883963583">
<ele>234.4</ele>
<time>2024-05-12T11:45:15Z</time>
</trkpt>
<trkpt lat="48.85497280396521" lon="9.310048073530195">
<ele>234.6</ele>
<time>2024-05-12T11:45:16Z</time>
</trkpt>
<trkpt lat="48.854923183098435" lon="9.310020413249733">
<ele>234.6</ele>
<time>2024-05-12T11:45:17Z</time>
</trkpt>
<trkpt lat="48.85487364605069" lon="9.309989903122188">
<ele>234.6</ele>
<time>2024-05-12T11:45:18Z</time>
</trkpt>
<trkpt lat="48.85482016950846" lon="9.309954615309834">
<ele>234.4</ele>
<time>2024-05-12T11:45:19Z</time>
</trkpt>
<trkpt lat="48.85477440431714" lon="9.309921255335212">
<ele>234.4</ele>
<time>2024-05-12T11:45:20Z</time>
</trkpt>
<trkpt lat="48.854728639125824" lon="9.309880184009671">
<ele>234.4</ele>
<time>2024-05-12T11:45:21Z</time>
</trkpt>
<trkpt lat="48.85468287393451" lon="9.30984489619732">
<ele>234.4</ele>
<time>2024-05-12T11:45:22Z</time>
</trkpt>
<trkpt lat="48.854625625535846" lon="9.309813464060426">
<ele>234.6</ele>
<time>2024-05-12T11:45:23Z</time>
</trkpt>
<trkpt lat="48.8545760884881" lon="9.309791503474116">
<ele>234.6</ele>
<time>2024-05-12T11:45:24Z</time>
</trkpt>
<trkpt lat="48.854526467621326" lon="9.30976484902203">
<ele>234.6</ele>
<time>2024-05-12T11:45:25Z</time>
</trkpt>
<trkpt lat="48.85447684675455" lon="9.30972956120968">
<ele>234.8</ele>
<time>2024-05-12T11:45:26Z</time>
</trkpt>
<trkpt lat="48.85442730970681" lon="9.309695195406675">
<ele>234.8</ele>
<time>2024-05-12T11:45:27Z</time>
</trkpt>
<trkpt lat="48.85438154451549" lon="9.309663763269782">
<ele>234.8</ele>
<time>2024-05-12T11:45:28Z</time>
</trkpt>
<trkpt lat="48.8543395511806" lon="9.309633253142238">
<ele>234.8</ele>
<time>2024-05-12T11:45:29Z</time>
</trkpt>
<trkpt lat="48.85430141352117" lon="9.309595031663775">
<ele>234.6</ele>
<time>2024-05-12T11:45:30Z</time>
</trkpt>
<trkpt lat="48.854255648329854" lon="9.309564521536233">
<ele>234.4</ele>
<time>2024-05-12T11:45:31Z</time>
</trkpt>
<trkpt lat="48.85420988313854" lon="9.309543566778302">
<ele>234.6</ele>
<time>2024-05-12T11:45:32Z</time>
</trkpt>
<trkpt lat="48.854156490415335" lon="9.309518756344914">
<ele>234.6</ele>
<time>2024-05-12T11:45:33Z</time>
</trkpt>
<trkpt lat="48.85410686954856" lon="9.30948824621737">
<ele>234.8</ele>
<time>2024-05-12T11:45:34Z</time>
</trkpt>
<trkpt lat="48.8540496211499" lon="9.309459663927557">
<ele>234.8</ele>
<time>2024-05-12T11:45:35Z</time>
</trkpt>
<trkpt lat="48.853996228426695" lon="9.309432003647087">
<ele>234.8</ele>
<time>2024-05-12T11:45:36Z</time>
</trkpt>
<trkpt lat="48.85393898002803" lon="9.309406271204352">
<ele>234.8</ele>
<time>2024-05-12T11:45:37Z</time>
</trkpt>
<trkpt lat="48.8538818154484" lon="9.309385232627392">
<ele>234.8</ele>
<time>2024-05-12T11:45:38Z</time>
</trkpt>
<trkpt lat="48.85383219458163" lon="9.309363355860114">
<ele>234.8</ele>
<time>2024-05-12T11:45:39Z</time>
</trkpt>
<trkpt lat="48.85378257371485" lon="9.309339467436075">
<ele>234.8</ele>
<time>2024-05-12T11:45:40Z</time>
</trkpt>
<trkpt lat="48.85372918099165" lon="9.309320440515876">
<ele>234.8</ele>
<time>2024-05-12T11:45:41Z</time>
</trkpt>
<trkpt lat="48.85367578826845" lon="9.309300407767296">
<ele>234.8</ele>
<time>2024-05-12T11:45:42Z</time>
</trkpt>
<trkpt lat="48.85363002307713" lon="9.309280375018716">
<ele>234.6</ele>
<time>2024-05-12T11:45:43Z</time>
</trkpt>
<trkpt lat="48.853584257885814" lon="9.309256486594675">
<ele>234.6</ele>
<time>2024-05-12T11:45:44Z</time>
</trkpt>
<trkpt lat="48.85353086516261" lon="9.30923360399902">
<ele>234.6</ele>
<time>2024-05-12T11:45:45Z</time>
</trkpt>
<trkpt lat="48.85347361676395" lon="9.30921357125044">
<ele>234.8</ele>
<time>2024-05-12T11:45:46Z</time>
</trkpt>
<trkpt lat="48.85342022404075" lon="9.309196472167969">
<ele>234.8</ele>
<time>2024-05-12T11:45:47Z</time>
</trkpt>
<trkpt lat="48.85337060317397" lon="9.309176439419389">
<ele>235</ele>
<time>2024-05-12T11:45:48Z</time>
</trkpt>
<trkpt lat="48.85331721045077" lon="9.30915447883308">
<ele>235</ele>
<time>2024-05-12T11:45:49Z</time>
</trkpt>
<trkpt lat="48.85326758958399" lon="9.309135368093848">
<ele>235</ele>
<time>2024-05-12T11:45:50Z</time>
</trkpt>
<trkpt lat="48.85321042500436" lon="9.309120113030076">
<ele>235</ele>
<time>2024-05-12T11:45:51Z</time>
</trkpt>
<trkpt lat="48.85316080413759" lon="9.309102930128574">
<ele>235</ele>
<time>2024-05-12T11:45:52Z</time>
</trkpt>
<trkpt lat="48.85311126708984" lon="9.30909153074026">
<ele>235</ele>
<time>2024-05-12T11:45:53Z</time>
</trkpt>
<trkpt lat="48.85306164622307" lon="9.309076275676489">
<ele>235</ele>
<time>2024-05-12T11:45:54Z</time>
</trkpt>
<trkpt lat="48.853008253499866" lon="9.309061942622066">
<ele>235</ele>
<time>2024-05-12T11:45:55Z</time>
</trkpt>
<trkpt lat="48.85296248830855" lon="9.309042915701866">
<ele>235</ele>
<time>2024-05-12T11:45:56Z</time>
</trkpt>
<trkpt lat="48.8529166392982" lon="9.30903143249452">
<ele>234.8</ele>
<time>2024-05-12T11:45:57Z</time>
</trkpt>
<trkpt lat="48.85287087410688" lon="9.309021877124906">
<ele>235</ele>
<time>2024-05-12T11:45:58Z</time>
</trkpt>
<trkpt lat="48.85282510891557" lon="9.309006622061132">
<ele>235</ele>
<time>2024-05-12T11:45:59Z</time>
</trkpt>
<trkpt lat="48.85277934372425" lon="9.30899329483509">
<ele>235</ele>
<time>2024-05-12T11:46:00Z</time>
</trkpt>
<trkpt lat="48.852733578532934" lon="9.308981895446776">
<ele>235</ele>
<time>2024-05-12T11:46:01Z</time>
</trkpt>
<trkpt lat="48.852691585198045" lon="9.30897326208651">
<ele>235</ele>
<time>2024-05-12T11:46:02Z</time>
</trkpt>
<trkpt lat="48.852653447538614" lon="9.308961862698196">
<ele>234.8</ele>
<time>2024-05-12T11:46:03Z</time>
</trkpt>
<trkpt lat="48.852615309879184" lon="9.30895322933793">
<ele>234.8</ele>
<time>2024-05-12T11:46:04Z</time>
</trkpt>
<trkpt lat="48.85257717221975" lon="9.308948451653125">
<ele>234.8</ele>
<time>2024-05-12T11:46:05Z</time>
</trkpt>
<trkpt lat="48.85253903456032" lon="9.308943673968315">
<ele>234.8</ele>
<time>2024-05-12T11:46:06Z</time>
</trkpt>
<trkpt lat="48.852493269369006" lon="9.308946607634423">
<ele>235</ele>
<time>2024-05-12T11:46:07Z</time>
</trkpt>
<trkpt lat="48.8524398766458" lon="9.308948451653125">
<ele>235.2</ele>
<time>2024-05-12T11:46:08Z</time>
</trkpt>
<trkpt lat="48.85239025577903" lon="9.30895322933793">
<ele>235.4</ele>
<time>2024-05-12T11:46:09Z</time>
</trkpt>
<trkpt lat="48.85234063491225" lon="9.308958007022738">
<ele>235.6</ele>
<time>2024-05-12T11:46:10Z</time>
</trkpt>
<trkpt lat="48.85229109786451" lon="9.308968484401705">
<ele>235.6</ele>
<time>2024-05-12T11:46:11Z</time>
</trkpt>
<trkpt lat="48.85224524885416" lon="9.308984745293856">
<ele>235.8</ele>
<time>2024-05-12T11:46:12Z</time>
</trkpt>
<trkpt lat="48.85219948366285" lon="9.30901332758367">
<ele>235.8</ele>
<time>2024-05-12T11:46:13Z</time>
</trkpt>
<trkpt lat="48.852157574146986" lon="9.309040065854788">
<ele>236</ele>
<time>2024-05-12T11:46:14Z</time>
</trkpt>
<trkpt lat="48.85211180895567" lon="9.30907342582941">
<ele>236</ele>
<time>2024-05-12T11:46:15Z</time>
</trkpt>
<trkpt lat="48.85206595994532" lon="9.309106785804032">
<ele>236</ele>
<time>2024-05-12T11:46:16Z</time>
</trkpt>
<trkpt lat="48.852020194754" lon="9.309142995625734">
<ele>236</ele>
<time>2024-05-12T11:46:17Z</time>
</trkpt>
<trkpt lat="48.851982057094574" lon="9.309181133285165">
<ele>236</ele>
<time>2024-05-12T11:46:18Z</time>
</trkpt>
<trkpt lat="48.85194391943514" lon="9.309220276772976">
<ele>236</ele>
<time>2024-05-12T11:46:19Z</time>
</trkpt>
<trkpt lat="48.85190963745117" lon="9.309258414432406">
<ele>236</ele>
<time>2024-05-12T11:46:20Z</time>
</trkpt>
<trkpt lat="48.851882899180055" lon="9.309296552091835">
<ele>236.2</ele>
<time>2024-05-12T11:46:21Z</time>
</trkpt>
<trkpt lat="48.85184853337705" lon="9.309328068047762">
<ele>236.2</ele>
<time>2024-05-12T11:46:22Z</time>
</trkpt>
<trkpt lat="48.851821878924966" lon="9.309359500184655">
<ele>236.4</ele>
<time>2024-05-12T11:46:23Z</time>
</trkpt>
<trkpt lat="48.85179136879742" lon="9.3093900103122">
<ele>236.4</ele>
<time>2024-05-12T11:46:24Z</time>
</trkpt>
<trkpt lat="48.85176085866988" lon="9.309418676421046">
<ele>236.6</ele>
<time>2024-05-12T11:46:25Z</time>
</trkpt>
<trkpt lat="48.85173412039876" lon="9.30944625288248">
<ele>236.8</ele>
<time>2024-05-12T11:46:26Z</time>
</trkpt>
<trkpt lat="48.85170738212764" lon="9.309474918991327">
<ele>237</ele>
<time>2024-05-12T11:46:27Z</time>
</trkpt>
<trkpt lat="48.8516768720001" lon="9.309505429118872">
<ele>237.2</ele>
<time>2024-05-12T11:46:28Z</time>
</trkpt>
<trkpt lat="48.851646361872554" lon="9.309536861255763">
<ele>237.4</ele>
<time>2024-05-12T11:46:29Z</time>
</trkpt>
<trkpt lat="48.85161585174501" lon="9.309564521536233">
<ele>237.6</ele>
<time>2024-05-12T11:46:30Z</time>
</trkpt>
<trkpt lat="48.851585341617465" lon="9.309593187645078">
<ele>237.6</ele>
<time>2024-05-12T11:46:31Z</time>
</trkpt>
<trkpt lat="48.85155860334635" lon="9.309621769934893">
<ele>237.8</ele>
<time>2024-05-12T11:46:32Z</time>
</trkpt>
<trkpt lat="48.85153194889426" lon="9.309650352224708">
<ele>238</ele>
<time>2024-05-12T11:46:33Z</time>
</trkpt>
<trkpt lat="48.85150143876672" lon="9.309678012505174">
<ele>238</ele>
<time>2024-05-12T11:46:34Z</time>
</trkpt>
<trkpt lat="48.8514747004956" lon="9.309708522632718">
<ele>238</ele>
<time>2024-05-12T11:46:35Z</time>
</trkpt>
<trkpt lat="48.851448046043515" lon="9.309738110750914">
<ele>238.2</ele>
<time>2024-05-12T11:46:36Z</time>
</trkpt>
<trkpt lat="48.8514213077724" lon="9.309768620878458">
<ele>238.2</ele>
<time>2024-05-12T11:46:37Z</time>
</trkpt>
<trkpt lat="48.851390797644854" lon="9.309798208996654">
<ele>238.2</ele>
<time>2024-05-12T11:46:38Z</time>
</trkpt>
<trkpt lat="48.85136028751731" lon="9.309828719124198">
<ele>238.2</ele>
<time>2024-05-12T11:46:39Z</time>
</trkpt>
<trkpt lat="48.851325921714306" lon="9.309860151261091">
<ele>238.2</ele>
<time>2024-05-12T11:46:40Z</time>
</trkpt>
<trkpt lat="48.85129541158676" lon="9.309896444901824">
<ele>238.4</ele>
<time>2024-05-12T11:46:41Z</time>
</trkpt>
<trkpt lat="48.85126112960279" lon="9.309931732714176">
<ele>238.4</ele>
<time>2024-05-12T11:46:42Z</time>
</trkpt>
<trkpt lat="48.851230619475245" lon="9.309971798211336">
<ele>238.6</ele>
<time>2024-05-12T11:46:43Z</time>
</trkpt>
<trkpt lat="48.85120002552867" lon="9.310016557574272">
<ele>238.6</ele>
<time>2024-05-12T11:46:44Z</time>
</trkpt>
<trkpt lat="48.851169515401125" lon="9.31006140075624">
<ele>238.8</ele>
<time>2024-05-12T11:46:45Z</time>
</trkpt>
<trkpt lat="48.85113523341715" lon="9.310111943632364">
<ele>238.8</ele>
<time>2024-05-12T11:46:46Z</time>
</trkpt>
<trkpt lat="48.85110086761415" lon="9.310165336355569">
<ele>238.8</ele>
<time>2024-05-12T11:46:47Z</time>
</trkpt>
<trkpt lat="48.85106658563018" lon="9.31021872907877">
<ele>238.8</ele>
<time>2024-05-12T11:46:48Z</time>
</trkpt>
<trkpt lat="48.851032219827175" lon="9.31027790531516">
<ele>238.8</ele>
<time>2024-05-12T11:46:49Z</time>
</trkpt>
<trkpt lat="48.85099785402417" lon="9.310343703255056">
<ele>238.6</ele>
<time>2024-05-12T11:46:50Z</time>
</trkpt>
<trkpt lat="48.85096734389663" lon="9.31041520088911">
<ele>238.6</ele>
<time>2024-05-12T11:46:51Z</time>
</trkpt>
<trkpt lat="48.850913951173425" lon="9.310461971908808">
<ele>238.6</ele>
<time>2024-05-12T11:46:52Z</time>
</trkpt>
<trkpt lat="48.850871957838535" lon="9.31051343679428">
<ele>238.4</ele>
<time>2024-05-12T11:46:53Z</time>
</trkpt>
<trkpt lat="48.85083767585456" lon="9.310578312724829">
<ele>238.4</ele>
<time>2024-05-12T11:46:54Z</time>
</trkpt>
<trkpt lat="48.85080331005156" lon="9.310651738196611">
<ele>238.2</ele>
<time>2024-05-12T11:46:55Z</time>
</trkpt>
<trkpt lat="48.85078428313136" lon="9.31073471903801">
<ele>238</ele>
<time>2024-05-12T11:46:56Z</time>
</trkpt>
<trkpt lat="48.850772799924016" lon="9.310818621888757">
<ele>237.8</ele>
<time>2024-05-12T11:46:57Z</time>
</trkpt>
<trkpt lat="48.85076902806759" lon="9.310903530567884">
<ele>237.4</ele>
<time>2024-05-12T11:46:58Z</time>
</trkpt>
<trkpt lat="48.85076902806759" lon="9.310983577743173">
<ele>237</ele>
<time>2024-05-12T11:46:59Z</time>
</trkpt>
<trkpt lat="48.8507804274559" lon="9.31107041426003">
<ele>236.6</ele>
<time>2024-05-12T11:47:00Z</time>
</trkpt>
<trkpt lat="48.85079953819513" lon="9.311153395101428">
<ele>236.2</ele>
<time>2024-05-12T11:47:01Z</time>
</trkpt>
<trkpt lat="48.85081856511533" lon="9.311238219961524">
<ele>235.8</ele>
<time>2024-05-12T11:47:02Z</time>
</trkpt>
<trkpt lat="48.85083767585456" lon="9.311321200802922">
<ele>235.4</ele>
<time>2024-05-12T11:47:03Z</time>
</trkpt>
<trkpt lat="48.85086433030665" lon="9.311403259634972">
<ele>235</ele>
<time>2024-05-12T11:47:04Z</time>
</trkpt>
<trkpt lat="48.850891068577766" lon="9.31148523464799">
<ele>234.8</ele>
<time>2024-05-12T11:47:05Z</time>
</trkpt>
<trkpt lat="48.85091780684888" lon="9.311559665948153">
<ele>234.4</ele>
<time>2024-05-12T11:47:06Z</time>
</trkpt>
<trkpt lat="48.85094831697643" lon="9.311633091419935">
<ele>234.2</ele>
<time>2024-05-12T11:47:07Z</time>
</trkpt>
<trkpt lat="48.85096734389663" lon="9.311690255999563">
<ele>234</ele>
<time>2024-05-12T11:47:08Z</time>
</trkpt>
<trkpt lat="48.850994082167745" lon="9.311750354245303">
<ele>234</ele>
<time>2024-05-12T11:47:09Z</time>
</trkpt>
<trkpt lat="48.85102073661983" lon="9.31182000786066">
<ele>233.8</ele>
<time>2024-05-12T11:47:10Z</time>
</trkpt>
<trkpt lat="48.85104361921549" lon="9.311884799972177">
<ele>233.4</ele>
<time>2024-05-12T11:47:11Z</time>
</trkpt>
<trkpt lat="48.85106658563018" lon="9.311949675902724">
<ele>233.2</ele>
<time>2024-05-12T11:47:12Z</time>
</trkpt>
<trkpt lat="48.851093240082264" lon="9.312013546004891">
<ele>233.2</ele>
<time>2024-05-12T11:47:13Z</time>
</trkpt>
<trkpt lat="48.85111612267792" lon="9.31207842193544">
<ele>233.2</ele>
<time>2024-05-12T11:47:14Z</time>
</trkpt>
<trkpt lat="48.85114663280547" lon="9.31213852018118">
<ele>233.2</ele>
<time>2024-05-12T11:47:15Z</time>
</trkpt>
<trkpt lat="48.851173371076584" lon="9.312188141047956">
<ele>233.2</ele>
<time>2024-05-12T11:47:16Z</time>
</trkpt>
<trkpt lat="48.85120002552867" lon="9.312243461608888">
<ele>233.2</ele>
<time>2024-05-12T11:47:17Z</time>
</trkpt>
<trkpt lat="48.85122676379979" lon="9.312306325882671">
<ele>233.2</ele>
<time>2024-05-12T11:47:18Z</time>
</trkpt>
<trkpt lat="48.851249646395445" lon="9.312363574281337">
<ele>233.2</ele>
<time>2024-05-12T11:47:19Z</time>
</trkpt>
<trkpt lat="48.85127638466656" lon="9.31243322789669">
<ele>233</ele>
<time>2024-05-12T11:47:20Z</time>
</trkpt>
<trkpt lat="48.85129541158676" lon="9.312486620619891">
<ele>233</ele>
<time>2024-05-12T11:47:21Z</time>
</trkpt>
<trkpt lat="48.85131452232599" lon="9.312566751614211">
<ele>233</ele>
<time>2024-05-12T11:47:22Z</time>
</trkpt>
<trkpt lat="48.85134117677808" lon="9.312638249248266">
<ele>232.8</ele>
<time>2024-05-12T11:47:23Z</time>
</trkpt>
<trkpt lat="48.85136028751731" lon="9.31270689703524">
<ele>232.8</ele>
<time>2024-05-12T11:47:24Z</time>
</trkpt>
<trkpt lat="48.85139842517674" lon="9.312785100191832">
<ele>232.8</ele>
<time>2024-05-12T11:47:25Z</time>
</trkpt>
<trkpt lat="48.85143279097974" lon="9.312863303348422">
<ele>232.8</ele>
<time>2024-05-12T11:47:26Z</time>
</trkpt>
<trkpt lat="48.851467072963715" lon="9.31294628418982">
<ele>232.8</ele>
<time>2024-05-12T11:47:27Z</time>
</trkpt>
<trkpt lat="48.85148995555937" lon="9.313028259202838">
<ele>233</ele>
<time>2024-05-12T11:47:28Z</time>
</trkpt>
<trkpt lat="48.85150906629861" lon="9.313111240044236">
<ele>233</ele>
<time>2024-05-12T11:47:29Z</time>
</trkpt>
<trkpt lat="48.85153957642615" lon="9.313186593353748">
<ele>233</ele>
<time>2024-05-12T11:47:30Z</time>
</trkpt>
<trkpt lat="48.85155860334635" lon="9.31326286867261">
<ele>233</ele>
<time>2024-05-12T11:47:31Z</time>
</trkpt>
<trkpt lat="48.85158919729293" lon="9.313348699361086">
<ele>233</ele>
<time>2024-05-12T11:47:32Z</time>
</trkpt>
<trkpt lat="48.85161585174501" lon="9.313431680202484">
<ele>233</ele>
<time>2024-05-12T11:47:33Z</time>
</trkpt>
<trkpt lat="48.85164259001613" lon="9.313514661043882">
<ele>233</ele>
<time>2024-05-12T11:47:34Z</time>
</trkpt>
<trkpt lat="48.85166924446821" lon="9.31359956972301">
<ele>233</ele>
<time>2024-05-12T11:47:35Z</time>
</trkpt>
<trkpt lat="48.85169212706387" lon="9.313681544736028">
<ele>233</ele>
<time>2024-05-12T11:47:36Z</time>
</trkpt>
<trkpt lat="48.85171500965953" lon="9.313757820054889">
<ele>233</ele>
<time>2024-05-12T11:47:37Z</time>
</trkpt>
<trkpt lat="48.85173797607422" lon="9.313837951049209">
<ele>233</ele>
<time>2024-05-12T11:47:38Z</time>
</trkpt>
<trkpt lat="48.85174937546253" lon="9.31391330435872">
<ele>233</ele>
<time>2024-05-12T11:47:39Z</time>
</trkpt>
<trkpt lat="48.85176085866988" lon="9.313978180289268">
<ele>233</ele>
<time>2024-05-12T11:47:40Z</time>
</trkpt>
<trkpt lat="48.85177225805819" lon="9.314042050391436">
<ele>233</ele>
<time>2024-05-12T11:47:41Z</time>
</trkpt>
<trkpt lat="48.851783741265535" lon="9.314104998484254">
<ele>233</ele>
<time>2024-05-12T11:47:42Z</time>
</trkpt>
<trkpt lat="48.85179514065385" lon="9.314166940748692">
<ele>233</ele>
<time>2024-05-12T11:47:43Z</time>
</trkpt>
<trkpt lat="48.851806623861194" lon="9.314225194975734">
<ele>233</ele>
<time>2024-05-12T11:47:44Z</time>
</trkpt>
<trkpt lat="48.85181425139308" lon="9.31428998708725">
<ele>233</ele>
<time>2024-05-12T11:47:45Z</time>
</trkpt>
<trkpt lat="48.85181802324951" lon="9.314358634874225">
<ele>233</ele>
<time>2024-05-12T11:47:46Z</time>
</trkpt>
<trkpt lat="48.85182565078139" lon="9.31443021632731">
<ele>233</ele>
<time>2024-05-12T11:47:47Z</time>
</trkpt>
<trkpt lat="48.851840905845165" lon="9.314497942104936">
<ele>233</ele>
<time>2024-05-12T11:47:48Z</time>
</trkpt>
<trkpt lat="48.85185238905251" lon="9.314571367576718">
<ele>233</ele>
<time>2024-05-12T11:47:49Z</time>
</trkpt>
<trkpt lat="48.851863788440824" lon="9.314649570733309">
<ele>233</ele>
<time>2024-05-12T11:47:50Z</time>
</trkpt>
<trkpt lat="48.85187141597271" lon="9.31472676806152">
<ele>233</ele>
<time>2024-05-12T11:47:51Z</time>
</trkpt>
<trkpt lat="48.85187904350459" lon="9.31480304338038">
<ele>233.2</ele>
<time>2024-05-12T11:47:52Z</time>
</trkpt>
<trkpt lat="48.85188667103648" lon="9.314878396689892">
<ele>233.2</ele>
<time>2024-05-12T11:47:53Z</time>
</trkpt>
<trkpt lat="48.85189052671194" lon="9.314952827990057">
<ele>233.4</ele>
<time>2024-05-12T11:47:54Z</time>
</trkpt>
<trkpt lat="48.85189815424383" lon="9.31502340361476">
<ele>233.4</ele>
<time>2024-05-12T11:47:55Z</time>
</trkpt>
<trkpt lat="48.85189815424383" lon="9.315092973411083">
<ele>233.4</ele>
<time>2024-05-12T11:47:56Z</time>
</trkpt>
<trkpt lat="48.851901926100254" lon="9.31516170501709">
<ele>233.4</ele>
<time>2024-05-12T11:47:57Z</time>
</trkpt>
<trkpt lat="48.85190578177571" lon="9.315235130488873">
<ele>233.2</ele>
<time>2024-05-12T11:47:58Z</time>
</trkpt>
<trkpt lat="48.85190963745117" lon="9.315306628122926">
<ele>233.2</ele>
<time>2024-05-12T11:47:59Z</time>
</trkpt>
<trkpt lat="48.85190578177571" lon="9.315381981432438">
<ele>233</ele>
<time>2024-05-12T11:48:00Z</time>
</trkpt>
<trkpt lat="48.85189815424383" lon="9.315451551228762">
<ele>233</ele>
<time>2024-05-12T11:48:01Z</time>
</trkpt>
<trkpt lat="48.85189429856837" lon="9.315524976700544">
<ele>233</ele>
<time>2024-05-12T11:48:02Z</time>
</trkpt>
<trkpt lat="48.85189815424383" lon="9.31559655815363">
<ele>233</ele>
<time>2024-05-12T11:48:03Z</time>
</trkpt>
<trkpt lat="48.85189429856837" lon="9.315660428255796">
<ele>233</ele>
<time>2024-05-12T11:48:04Z</time>
</trkpt>
<trkpt lat="48.85188667103648" lon="9.31573192588985">
<ele>233</ele>
<time>2024-05-12T11:48:05Z</time>
</trkpt>
<trkpt lat="48.85187141597271" lon="9.315799651667476">
<ele>233.2</ele>
<time>2024-05-12T11:48:06Z</time>
</trkpt>
<trkpt lat="48.8518600165844" lon="9.31587022729218">
<ele>233.2</ele>
<time>2024-05-12T11:48:07Z</time>
</trkpt>
<trkpt lat="48.85185238905251" lon="9.315939880907536">
<ele>233.4</ele>
<time>2024-05-12T11:48:08Z</time>
</trkpt>
<trkpt lat="48.851840905845165" lon="9.316004673019052">
<ele>233.4</ele>
<time>2024-05-12T11:48:09Z</time>
</trkpt>
<trkpt lat="48.85183713398874" lon="9.316075248643756">
<ele>233.6</ele>
<time>2024-05-12T11:48:10Z</time>
</trkpt>
<trkpt lat="48.85183327831328" lon="9.31614683009684">
<ele>233.6</ele>
<time>2024-05-12T11:48:11Z</time>
</trkpt>
<trkpt lat="48.85183327831328" lon="9.316221177577972">
<ele>233.8</ele>
<time>2024-05-12T11:48:12Z</time>
</trkpt>
<trkpt lat="48.85183713398874" lon="9.316303236410022">
<ele>233.8</ele>
<time>2024-05-12T11:48:13Z</time>
</trkpt>
<trkpt lat="48.85183713398874" lon="9.316379511728885">
<ele>234</ele>
<time>2024-05-12T11:48:14Z</time>
</trkpt>
<trkpt lat="48.85183713398874" lon="9.316458636894822">
<ele>234.2</ele>
<time>2024-05-12T11:48:15Z</time>
</trkpt>
<trkpt lat="48.85182950645685" lon="9.316519657149913">
<ele>234.2</ele>
<time>2024-05-12T11:48:16Z</time>
</trkpt>
<trkpt lat="48.85182565078139" lon="9.316588388755918">
<ele>234.2</ele>
<time>2024-05-12T11:48:17Z</time>
</trkpt>
<trkpt lat="48.851821878924966" lon="9.316651336848736">
<ele>234.4</ele>
<time>2024-05-12T11:48:18Z</time>
</trkpt>
<trkpt lat="48.85181425139308" lon="9.31671805679798">
<ele>234.4</ele>
<time>2024-05-12T11:48:19Z</time>
</trkpt>
<trkpt lat="48.851806623861194" lon="9.316775305196645">
<ele>234.6</ele>
<time>2024-05-12T11:48:20Z</time>
</trkpt>
<trkpt lat="48.851806623861194" lon="9.316828697919846">
<ele>234.6</ele>
<time>2024-05-12T11:48:21Z</time>
</trkpt>
<trkpt lat="48.851806623861194" lon="9.316876390948892">
<ele>234.8</ele>
<time>2024-05-12T11:48:22Z</time>
</trkpt>
<trkpt lat="48.851806623861194" lon="9.316933555528522">
<ele>235</ele>
<time>2024-05-12T11:48:23Z</time>
</trkpt>
<trkpt lat="48.851806623861194" lon="9.316985104233028">
<ele>235.4</ele>
<time>2024-05-12T11:48:24Z</time>
</trkpt>
<trkpt lat="48.85181425139308" lon="9.31704042479396">
<ele>235.6</ele>
<time>2024-05-12T11:48:25Z</time>
</trkpt>
<trkpt lat="48.85181425139308" lon="9.317092895507813">
<ele>235.8</ele>
<time>2024-05-12T11:48:26Z</time>
</trkpt>
<trkpt lat="48.85181039571762" lon="9.317143438383937">
<ele>236</ele>
<time>2024-05-12T11:48:27Z</time>
</trkpt>
<trkpt lat="48.851806623861194" lon="9.317183420062063">
<ele>236.2</ele>
<time>2024-05-12T11:48:28Z</time>
</trkpt>
<trkpt lat="48.85179899632931" lon="9.317239746451378">
<ele>236.2</ele>
<time>2024-05-12T11:48:29Z</time>
</trkpt>
<trkpt lat="48.85179514065385" lon="9.317297916859388">
<ele>236.6</ele>
<time>2024-05-12T11:48:30Z</time>
</trkpt>
<trkpt lat="48.851783741265535" lon="9.317366564646363">
<ele>236.6</ele>
<time>2024-05-12T11:48:31Z</time>
</trkpt>
<trkpt lat="48.85177225805819" lon="9.317429512739182">
<ele>236.8</ele>
<time>2024-05-12T11:48:32Z</time>
</trkpt>
<trkpt lat="48.851764630526304" lon="9.317481983453035">
<ele>237</ele>
<time>2024-05-12T11:48:33Z</time>
</trkpt>
<trkpt lat="48.85175323113799" lon="9.317535376176238">
<ele>237</ele>
<time>2024-05-12T11:48:34Z</time>
</trkpt>
<trkpt lat="48.851741747930646" lon="9.317593546584249">
<ele>237</ele>
<time>2024-05-12T11:48:35Z</time>
</trkpt>
<trkpt lat="48.851726492866874" lon="9.317653644829988">
<ele>237.2</ele>
<time>2024-05-12T11:48:36Z</time>
</trkpt>
<trkpt lat="48.8517112378031" lon="9.317721286788585">
<ele>237.2</ele>
<time>2024-05-12T11:48:37Z</time>
</trkpt>
<trkpt lat="48.85168072767556" lon="9.317792868241668">
<ele>237.4</ele>
<time>2024-05-12T11:48:38Z</time>
</trkpt>
<trkpt lat="48.8516578450799" lon="9.3178481888026">
<ele>237.6</ele>
<time>2024-05-12T11:48:39Z</time>
</trkpt>
<trkpt lat="48.85163496248424" lon="9.31790635921061">
<ele>237.8</ele>
<time>2024-05-12T11:48:40Z</time>
</trkpt>
<trkpt lat="48.85161585174501" lon="9.317968301475048">
<ele>238</ele>
<time>2024-05-12T11:48:41Z</time>
</trkpt>
<trkpt lat="48.85159682482481" lon="9.318028399720788">
<ele>238.2</ele>
<time>2024-05-12T11:48:42Z</time>
</trkpt>
<trkpt lat="48.85157394222915" lon="9.318097047507765">
<ele>238.4</ele>
<time>2024-05-12T11:48:43Z</time>
</trkpt>
<trkpt lat="48.85155097581446" lon="9.318156223744154">
<ele>238.6</ele>
<time>2024-05-12T11:48:44Z</time>
</trkpt>
<trkpt lat="48.8515280932188" lon="9.318215316161512">
<ele>238.6</ele>
<time>2024-05-12T11:48:45Z</time>
</trkpt>
<trkpt lat="48.851505210623145" lon="9.318275414407251">
<ele>238.6</ele>
<time>2024-05-12T11:48:46Z</time>
</trkpt>
<trkpt lat="48.85147855617106" lon="9.318331656977534">
<ele>238.6</ele>
<time>2024-05-12T11:48:47Z</time>
</trkpt>
<trkpt lat="48.851448046043515" lon="9.318385049700735">
<ele>238.6</ele>
<time>2024-05-12T11:48:48Z</time>
</trkpt>
<trkpt lat="48.8514213077724" lon="9.318436598405242">
<ele>238.6</ele>
<time>2024-05-12T11:48:49Z</time>
</trkpt>
<trkpt lat="48.8514022808522" lon="9.318483285605907">
<ele>238.8</ele>
<time>2024-05-12T11:48:50Z</time>
</trkpt>
<trkpt lat="48.851386941969395" lon="9.318530056625605">
<ele>238.8</ele>
<time>2024-05-12T11:48:51Z</time>
</trkpt>
<trkpt lat="48.851367915049195" lon="9.318572971969845">
<ele>238.8</ele>
<time>2024-05-12T11:48:52Z</time>
</trkpt>
<trkpt lat="48.85134503245354" lon="9.318610187619925">
<ele>239</ele>
<time>2024-05-12T11:48:53Z</time>
</trkpt>
<trkpt lat="48.85132214985788" lon="9.31865687482059">
<ele>239</ele>
<time>2024-05-12T11:48:54Z</time>
</trkpt>
<trkpt lat="48.85130303911865" lon="9.31869501248002">
<ele>239</ele>
<time>2024-05-12T11:48:55Z</time>
</trkpt>
<trkpt lat="48.851287784054875" lon="9.318739855661988">
<ele>239</ele>
<time>2024-05-12T11:48:56Z</time>
</trkpt>
<trkpt lat="48.85126875713467" lon="9.318783693015575">
<ele>239.2</ele>
<time>2024-05-12T11:48:57Z</time>
</trkpt>
<trkpt lat="48.851253502070904" lon="9.318828536197543">
<ele>239.2</ele>
<time>2024-05-12T11:48:58Z</time>
</trkpt>
<trkpt lat="48.85123824700713" lon="9.318866673856974">
<ele>239.4</ele>
<time>2024-05-12T11:48:59Z</time>
</trkpt>
<trkpt lat="48.85122299194336" lon="9.318904811516404">
<ele>239.4</ele>
<time>2024-05-12T11:49:00Z</time>
</trkpt>
<trkpt lat="48.851211508736014" lon="9.318942027166486">
<ele>239.6</ele>
<time>2024-05-12T11:49:01Z</time>
</trkpt>
<trkpt lat="48.85120002552867" lon="9.31897161528468">
<ele>239.6</ele>
<time>2024-05-12T11:49:02Z</time>
</trkpt>
<trkpt lat="48.85118099860847" lon="9.31899449788034">
<ele>239.6</ele>
<time>2024-05-12T11:49:03Z</time>
</trkpt>
<trkpt lat="48.85116188786924" lon="9.319016374647616">
<ele>239.6</ele>
<time>2024-05-12T11:49:04Z</time>
</trkpt>
<trkpt lat="48.85113523341715" lon="9.319036407396196">
<ele>239.6</ele>
<time>2024-05-12T11:49:05Z</time>
</trkpt>
<trkpt lat="48.85110849514603" lon="9.319046968594192">
<ele>239.6</ele>
<time>2024-05-12T11:49:06Z</time>
</trkpt>
<trkpt lat="48.85108561255038" lon="9.319038335233929">
<ele>239.4</ele>
<time>2024-05-12T11:49:07Z</time>
</trkpt>
<trkpt lat="48.85106272995472" lon="9.31901352480054">
<ele>239.4</ele>
<time>2024-05-12T11:49:08Z</time>
</trkpt>
<trkpt lat="48.85104361921549" lon="9.31897345930338">
<ele>239.2</ele>
<time>2024-05-12T11:49:09Z</time>
</trkpt>
<trkpt lat="48.85102836415171" lon="9.318924844264984">
<ele>239</ele>
<time>2024-05-12T11:49:10Z</time>
</trkpt>
<trkpt lat="48.851013109087944" lon="9.318869523704052">
<ele>239</ele>
<time>2024-05-12T11:49:11Z</time>
</trkpt>
<trkpt lat="48.85099785402417" lon="9.318806575611234">
<ele>238.8</ele>
<time>2024-05-12T11:49:12Z</time>
</trkpt>
<trkpt lat="48.85097497142851" lon="9.318730300292373">
<ele>238.6</ele>
<time>2024-05-12T11:49:13Z</time>
</trkpt>
<trkpt lat="48.850955944508314" lon="9.318651175126432">
<ele>238.2</ele>
<time>2024-05-12T11:49:14Z</time>
</trkpt>
<trkpt lat="48.85093683376908" lon="9.318570122122765">
<ele>238</ele>
<time>2024-05-12T11:49:15Z</time>
</trkpt>
<trkpt lat="48.850913951173425" lon="9.318491918966174">
<ele>237.8</ele>
<time>2024-05-12T11:49:16Z</time>
</trkpt>
<trkpt lat="48.850891068577766" lon="9.318413715809584">
<ele>237.6</ele>
<time>2024-05-12T11:49:17Z</time>
</trkpt>
<trkpt lat="48.85086818598211" lon="9.3183402903378">
<ele>237.4</ele>
<time>2024-05-12T11:49:18Z</time>
</trkpt>
<trkpt lat="48.850852930918336" lon="9.318266864866018">
<ele>237.2</ele>
<time>2024-05-12T11:49:19Z</time>
</trkpt>
<trkpt lat="48.850833820179105" lon="9.318196289241314">
<ele>237</ele>
<time>2024-05-12T11:49:20Z</time>
</trkpt>
<trkpt lat="48.850814793258905" lon="9.318129485473037">
<ele>237</ele>
<time>2024-05-12T11:49:21Z</time>
</trkpt>
<trkpt lat="48.85079953819513" lon="9.318064609542487">
<ele>236.8</ele>
<time>2024-05-12T11:49:22Z</time>
</trkpt>
<trkpt lat="48.85078428313136" lon="9.3180035892874">
<ele>236.6</ele>
<time>2024-05-12T11:49:23Z</time>
</trkpt>
<trkpt lat="48.85076517239213" lon="9.31794349104166">
<ele>236.6</ele>
<time>2024-05-12T11:49:24Z</time>
</trkpt>
<trkpt lat="48.85074614547193" lon="9.317883476614952">
<ele>236.4</ele>
<time>2024-05-12T11:49:25Z</time>
</trkpt>
<trkpt lat="48.8507270347327" lon="9.31782622821629">
<ele>236.4</ele>
<time>2024-05-12T11:49:26Z</time>
</trkpt>
<trkpt lat="48.85071177966893" lon="9.317773757502437">
<ele>236.4</ele>
<time>2024-05-12T11:49:27Z</time>
</trkpt>
<trkpt lat="48.850692668929696" lon="9.317725142464042">
<ele>236.4</ele>
<time>2024-05-12T11:49:28Z</time>
</trkpt>
<trkpt lat="48.85067741386592" lon="9.317681305110456">
<ele>236.4</ele>
<time>2024-05-12T11:49:29Z</time>
</trkpt>
<trkpt lat="48.850658386945724" lon="9.317643083631992">
<ele>236.4</ele>
<time>2024-05-12T11:49:30Z</time>
</trkpt>
<trkpt lat="48.850635504350066" lon="9.3176116514951">
<ele>236.4</ele>
<time>2024-05-12T11:49:31Z</time>
</trkpt>
<trkpt lat="48.85060876607895" lon="9.31759161874652">
<ele>236.4</ele>
<time>2024-05-12T11:49:32Z</time>
</trkpt>
<trkpt lat="48.850578255951405" lon="9.31758876889944">
<ele>236.4</ele>
<time>2024-05-12T11:49:33Z</time>
</trkpt>
<trkpt lat="48.850540118291974" lon="9.317614501342176">
<ele>236.4</ele>
<time>2024-05-12T11:49:34Z</time>
</trkpt>
<trkpt lat="48.85051338002086" lon="9.317663116380572">
<ele>236.4</ele>
<time>2024-05-12T11:49:35Z</time>
</trkpt>
<trkpt lat="48.85048286989331" lon="9.317721286788585">
<ele>236.4</ele>
<time>2024-05-12T11:49:36Z</time>
</trkpt>
<trkpt lat="48.85045621544123" lon="9.317778535187244">
<ele>236.2</ele>
<time>2024-05-12T11:49:37Z</time>
</trkpt>
<trkpt lat="48.85042947717011" lon="9.317834777757524">
<ele>236.2</ele>
<time>2024-05-12T11:49:38Z</time>
</trkpt>
<trkpt lat="48.85039519518614" lon="9.31788532063365">
<ele>236</ele>
<time>2024-05-12T11:49:39Z</time>
</trkpt>
<trkpt lat="48.85035697370768" lon="9.317933013662696">
<ele>235.8</ele>
<time>2024-05-12T11:49:40Z</time>
</trkpt>
<trkpt lat="48.85032646358013" lon="9.317981712520124">
<ele>235.6</ele>
<time>2024-05-12T11:49:41Z</time>
</trkpt>
<trkpt lat="48.8502883259207" lon="9.31802362203598">
<ele>235.6</ele>
<time>2024-05-12T11:49:42Z</time>
</trkpt>
<trkpt lat="48.85025781579316" lon="9.318055137991903">
<ele>235.4</ele>
<time>2024-05-12T11:49:43Z</time>
</trkpt>
<trkpt lat="48.850223533809185" lon="9.318073242902756">
<ele>235.2</ele>
<time>2024-05-12T11:49:44Z</time>
</trkpt>
<trkpt lat="48.85019302368164" lon="9.31808372028172">
<ele>235</ele>
<time>2024-05-12T11:49:45Z</time>
</trkpt>
<trkpt lat="48.85015865787864" lon="9.318090425804256">
<ele>234.8</ele>
<time>2024-05-12T11:49:46Z</time>
</trkpt>
<trkpt lat="48.85012814775109" lon="9.318095203489063">
<ele>234.8</ele>
<time>2024-05-12T11:49:47Z</time>
</trkpt>
<trkpt lat="48.850101409479976" lon="9.318095203489063">
<ele>234.6</ele>
<time>2024-05-12T11:49:48Z</time>
</trkpt>
<trkpt lat="48.85007089935243" lon="9.318091347813606">
<ele>234.4</ele>
<time>2024-05-12T11:49:49Z</time>
</trkpt>
<trkpt lat="48.85004038922489" lon="9.318090425804256">
<ele>234.2</ele>
<time>2024-05-12T11:49:50Z</time>
</trkpt>
<trkpt lat="48.85001365095377" lon="9.318086570128798">
<ele>234.2</ele>
<time>2024-05-12T11:49:51Z</time>
</trkpt>
<trkpt lat="48.84998699650168" lon="9.31808372028172">
<ele>234</ele>
<time>2024-05-12T11:49:52Z</time>
</trkpt>
<trkpt lat="48.84995648637414" lon="9.318079948425291">
<ele>234</ele>
<time>2024-05-12T11:49:53Z</time>
</trkpt>
<trkpt lat="48.84992974810302" lon="9.318078020587564">
<ele>234</ele>
<time>2024-05-12T11:49:54Z</time>
</trkpt>
<trkpt lat="48.84989923797548" lon="9.318073242902756">
<ele>233.8</ele>
<time>2024-05-12T11:49:55Z</time>
</trkpt>
<trkpt lat="48.849868727847934" lon="9.318068465217948">
<ele>233.8</ele>
<time>2024-05-12T11:49:56Z</time>
</trkpt>
<trkpt lat="48.84983436204493" lon="9.31806175969541">
<ele>233.8</ele>
<time>2024-05-12T11:49:57Z</time>
</trkpt>
<trkpt lat="48.8497962243855" lon="9.318056982010605">
<ele>233.8</ele>
<time>2024-05-12T11:49:58Z</time>
</trkpt>
<trkpt lat="48.84975808672607" lon="9.318051282316446">
<ele>233.8</ele>
<time>2024-05-12T11:49:59Z</time>
</trkpt>
<trkpt lat="48.84971994906664" lon="9.31804650463164">
<ele>233.8</ele>
<time>2024-05-12T11:50:00Z</time>
</trkpt>
<trkpt lat="48.84968181140721" lon="9.318039882928131">
<ele>233.8</ele>
<time>2024-05-12T11:50:01Z</time>
</trkpt>
<trkpt lat="48.849647445604205" lon="9.318033177405596">
<ele>233.8</ele>
<time>2024-05-12T11:50:02Z</time>
</trkpt>
<trkpt lat="48.84961316362023" lon="9.31802647188306">
<ele>233.8</ele>
<time>2024-05-12T11:50:03Z</time>
</trkpt>
<trkpt lat="48.8495750259608" lon="9.31802362203598">
<ele>234</ele>
<time>2024-05-12T11:50:04Z</time>
</trkpt>
<trkpt lat="48.84954451583326" lon="9.31802169419825">
<ele>234</ele>
<time>2024-05-12T11:50:05Z</time>
</trkpt>
<trkpt lat="48.84951777756214" lon="9.31802169419825">
<ele>234.2</ele>
<time>2024-05-12T11:50:06Z</time>
</trkpt>
<trkpt lat="48.8494872674346" lon="9.31802362203598">
<ele>234.4</ele>
<time>2024-05-12T11:50:07Z</time>
</trkpt>
<trkpt lat="48.84946052916348" lon="9.31802647188306">
<ele>234.4</ele>
<time>2024-05-12T11:50:08Z</time>
</trkpt>
<trkpt lat="48.849433874711394" lon="9.318028399720788">
<ele>234.6</ele>
<time>2024-05-12T11:50:09Z</time>
</trkpt>
<trkpt lat="48.84940713644028" lon="9.318028399720788">
<ele>234.6</ele>
<time>2024-05-12T11:50:10Z</time>
</trkpt>
<trkpt lat="48.84938048198819" lon="9.318033177405596">
<ele>234.8</ele>
<time>2024-05-12T11:50:11Z</time>
</trkpt>
<trkpt lat="48.84935759939253" lon="9.31804466061294">
<ele>235</ele>
<time>2024-05-12T11:50:12Z</time>
</trkpt>
<trkpt lat="48.8493384886533" lon="9.318056982010605">
<ele>235</ele>
<time>2024-05-12T11:50:13Z</time>
</trkpt>
<trkpt lat="48.84932323358953" lon="9.318071315065026">
<ele>235</ele>
<time>2024-05-12T11:50:14Z</time>
</trkpt>
<trkpt lat="48.84931560605765" lon="9.318090425804256">
<ele>235.2</ele>
<time>2024-05-12T11:50:15Z</time>
</trkpt>
<trkpt lat="48.8493041228503" lon="9.318115152418612">
<ele>235.4</ele>
<time>2024-05-12T11:50:16Z</time>
</trkpt>
<trkpt lat="48.84929649531841" lon="9.318144740536807">
<ele>235.6</ele>
<time>2024-05-12T11:50:17Z</time>
</trkpt>
<trkpt lat="48.849292723461986" lon="9.318178100511432">
<ele>235.8</ele>
<time>2024-05-12T11:50:18Z</time>
</trkpt>
<trkpt lat="48.849292723461986" lon="9.318213388323784">
<ele>235.8</ele>
<time>2024-05-12T11:50:19Z</time>
</trkpt>
<trkpt lat="48.84929649531841" lon="9.3182401265949">
<ele>236</ele>
<time>2024-05-12T11:50:20Z</time>
</trkpt>
<trkpt lat="48.84930035099387" lon="9.318248676136136">
<ele>236</ele>
<time>2024-05-12T11:50:21Z</time>
</trkpt>
<trkpt lat="48.8493041228503" lon="9.318251609802246">
<ele>236</ele>
<time>2024-05-12T11:50:22Z</time>
</trkpt>
<trkpt lat="48.84930035099387" lon="9.318251609802246">
<ele>236</ele>
<time>2024-05-12T11:50:23Z</time>
</trkpt>
<trkpt lat="48.84930035099387" lon="9.318253453820944">
<ele>235.8</ele>
<time>2024-05-12T11:50:24Z</time>
</trkpt>
<trkpt lat="48.84930035099387" lon="9.318251609802246">
<ele>235.8</ele>
<time>2024-05-12T11:50:26Z</time>
</trkpt>
<trkpt lat="48.8493041228503" lon="9.318251609802246">
<ele>235.6</ele>
<time>2024-05-12T11:50:28Z</time>
</trkpt>
<trkpt lat="48.8493041228503" lon="9.318253453820944">
<ele>235.6</ele>
<time>2024-05-12T11:50:31Z</time>
</trkpt>
<trkpt lat="48.84930797852576" lon="9.318256303668022">
<ele>235.6</ele>
<time>2024-05-12T11:50:33Z</time>
</trkpt>
<trkpt lat="48.849311750382185" lon="9.318255381658672">
<ele>235.4</ele>
<time>2024-05-12T11:50:34Z</time>
</trkpt>
<trkpt lat="48.84931937791407" lon="9.31826015934348">
<ele>235.4</ele>
<time>2024-05-12T11:50:35Z</time>
</trkpt>
<trkpt lat="48.84932323358953" lon="9.31826208718121">
<ele>235.2</ele>
<time>2024-05-12T11:50:36Z</time>
</trkpt>
<trkpt lat="48.84932323358953" lon="9.31826300919056">
<ele>235.2</ele>
<time>2024-05-12T11:50:37Z</time>
</trkpt>
<trkpt lat="48.84932700544596" lon="9.31826300919056">
<ele>235</ele>
<time>2024-05-12T11:50:39Z</time>
</trkpt>
<trkpt lat="48.84932700544596" lon="9.318264937028289">
<ele>235</ele>
<time>2024-05-12T11:50:43Z</time>
</trkpt>
<trkpt lat="48.849330861121416" lon="9.318264937028289">
<ele>235</ele>
<time>2024-05-12T11:50:44Z</time>
</trkpt>
<trkpt lat="48.849330861121416" lon="9.318266864866018">
<ele>235</ele>
<time>2024-05-12T11:50:46Z</time>
</trkpt>
<trkpt lat="48.849330861121416" lon="9.318268708884716">
<ele>235</ele>
<time>2024-05-12T11:50:49Z</time>
</trkpt>
<trkpt lat="48.849330861121416" lon="9.318269714713097">
<ele>234.8</ele>
<time>2024-05-12T11:50:56Z</time>
</trkpt>
<trkpt lat="48.849330861121416" lon="9.318268708884716">
<ele>234.8</ele>
<time>2024-05-12T11:50:58Z</time>
</trkpt>
<trkpt lat="48.849330861121416" lon="9.318269714713097">
<ele>234.8</ele>
<time>2024-05-12T11:50:59Z</time>
</trkpt>
<trkpt lat="48.849334716796875" lon="9.318264937028289">
<ele>234.6</ele>
<time>2024-05-12T11:51:04Z</time>
</trkpt>
<trkpt lat="48.849334716796875" lon="9.31826300919056">
<ele>234.6</ele>
<time>2024-05-12T11:51:11Z</time>
</trkpt>
<trkpt lat="48.8493384886533" lon="9.31826208718121">
<ele>234.6</ele>
<time>2024-05-12T11:51:17Z</time>
</trkpt>
<trkpt lat="48.8493384886533" lon="9.31826300919056">
<ele>234.4</ele>
<time>2024-05-12T11:51:18Z</time>
</trkpt>
<trkpt lat="48.8493384886533" lon="9.31826208718121">
<ele>234.4</ele>
<time>2024-05-12T11:51:26Z</time>
</trkpt>
<trkpt lat="48.8493384886533" lon="9.31826300919056">
<ele>234.2</ele>
<time>2024-05-12T11:51:27Z</time>
</trkpt>
<trkpt lat="48.8493384886533" lon="9.318264937028289">
<ele>234.2</ele>
<time>2024-05-12T11:51:30Z</time>
</trkpt>
<trkpt lat="48.84934234432876" lon="9.318264937028289">
<ele>234.2</ele>
<time>2024-05-12T11:51:31Z</time>
</trkpt>
<trkpt lat="48.84934234432876" lon="9.318266864866018">
<ele>234</ele>
<time>2024-05-12T11:51:50Z</time>
</trkpt>
<trkpt lat="48.84934234432876" lon="9.318264937028289">
<ele>234</ele>
<time>2024-05-12T11:51:59Z</time>
</trkpt>
<trkpt lat="48.84934234432876" lon="9.31826300919056">
<ele>233.8</ele>
<time>2024-05-12T11:52:03Z</time>
</trkpt>
<trkpt lat="48.84934234432876" lon="9.31826208718121">
<ele>233.8</ele>
<time>2024-05-12T11:52:06Z</time>
</trkpt>
<trkpt lat="48.84934234432876" lon="9.31826015934348">
<ele>233.6</ele>
<time>2024-05-12T11:52:07Z</time>
</trkpt>
<trkpt lat="48.84934234432876" lon="9.318258231505752">
<ele>233.6</ele>
<time>2024-05-12T11:52:09Z</time>
</trkpt>
<trkpt lat="48.84934611618519" lon="9.318258231505752">
<ele>233.6</ele>
<time>2024-05-12T11:52:11Z</time>
</trkpt>
<trkpt lat="48.84934997186065" lon="9.318258231505752">
<ele>233.6</ele>
<time>2024-05-12T11:52:13Z</time>
</trkpt>
<trkpt lat="48.84936522692442" lon="9.318253453820944">
<ele>233.6</ele>
<time>2024-05-12T11:52:14Z</time>
</trkpt>
<trkpt lat="48.84938048198819" lon="9.318248676136136">
<ele>233.6</ele>
<time>2024-05-12T11:52:15Z</time>
</trkpt>
<trkpt lat="48.849391881376505" lon="9.318233421072364">
<ele>233.6</ele>
<time>2024-05-12T11:52:16Z</time>
</trkpt>
<trkpt lat="48.84940336458385" lon="9.318211544305086">
<ele>233.8</ele>
<time>2024-05-12T11:52:17Z</time>
</trkpt>
<trkpt lat="48.849410992115736" lon="9.318189583718777">
<ele>233.8</ele>
<time>2024-05-12T11:52:18Z</time>
</trkpt>
<trkpt lat="48.84941476397216" lon="9.318168628960848">
<ele>234</ele>
<time>2024-05-12T11:52:19Z</time>
</trkpt>
<trkpt lat="48.84941476397216" lon="9.318149518221617">
<ele>234.2</ele>
<time>2024-05-12T11:52:20Z</time>
</trkpt>
<trkpt lat="48.84940713644028" lon="9.318136190995574">
<ele>234.4</ele>
<time>2024-05-12T11:52:21Z</time>
</trkpt>
<trkpt lat="48.84940336458385" lon="9.318128563463688">
<ele>234.6</ele>
<time>2024-05-12T11:52:22Z</time>
</trkpt>
<trkpt lat="48.84939573705197" lon="9.31812185794115">
<ele>235</ele>
<time>2024-05-12T11:52:23Z</time>
</trkpt>
<trkpt lat="48.84938810952008" lon="9.318118086084723">
<ele>235.2</ele>
<time>2024-05-12T11:52:24Z</time>
</trkpt>
<trkpt lat="48.84938425384462" lon="9.318111380562186">
<ele>235.4</ele>
<time>2024-05-12T11:52:25Z</time>
</trkpt>
<trkpt lat="48.84938048198819" lon="9.31809989735484">
<ele>235.6</ele>
<time>2024-05-12T11:52:26Z</time>
</trkpt>
<trkpt lat="48.84937662631273" lon="9.318090425804256">
<ele>235.8</ele>
<time>2024-05-12T11:52:27Z</time>
</trkpt>
<trkpt lat="48.84937662631273" lon="9.318078020587564">
<ele>235.8</ele>
<time>2024-05-12T11:52:28Z</time>
</trkpt>
<trkpt lat="48.849372854456306" lon="9.318068465217948">
<ele>236</ele>
<time>2024-05-12T11:52:29Z</time>
</trkpt>
<trkpt lat="48.849372854456306" lon="9.31806653738022">
<ele>236</ele>
<time>2024-05-12T11:52:30Z</time>
</trkpt>
<trkpt lat="48.849372854456306" lon="9.318055137991903">
<ele>236.2</ele>
<time>2024-05-12T11:52:31Z</time>
</trkpt>
<trkpt lat="48.84936522692442" lon="9.318048432469368">
<ele>236.2</ele>
<time>2024-05-12T11:52:32Z</time>
</trkpt>
<trkpt lat="48.84936522692442" lon="9.31804650463164">
<ele>236.2</ele>
<time>2024-05-12T11:52:33Z</time>
</trkpt>
<trkpt lat="48.84936522692442" lon="9.31804466061294">
<ele>236.2</ele>
<time>2024-05-12T11:52:34Z</time>
</trkpt>
<trkpt lat="48.84936522692442" lon="9.31804365478456">
<ele>236.2</ele>
<time>2024-05-12T11:52:35Z</time>
</trkpt>
<trkpt lat="48.84936137124896" lon="9.31804172694683">
<ele>236.4</ele>
<time>2024-05-12T11:52:38Z</time>
</trkpt>
<trkpt lat="48.84936137124896" lon="9.318039882928131">
<ele>236.4</ele>
<time>2024-05-12T11:52:39Z</time>
</trkpt>
<trkpt lat="48.84936137124896" lon="9.318037955090404">
<ele>236.4</ele>
<time>2024-05-12T11:52:42Z</time>
</trkpt>
<trkpt lat="48.84936137124896" lon="9.318037033081056">
<ele>236.4</ele>
<time>2024-05-12T11:52:45Z</time>
</trkpt>
<trkpt lat="48.84935759939253" lon="9.318037033081056">
<ele>236.4</ele>
<time>2024-05-12T11:52:46Z</time>
</trkpt>
<trkpt lat="48.84935759939253" lon="9.318035105243323">
<ele>236.6</ele>
<time>2024-05-12T11:52:50Z</time>
</trkpt>
<trkpt lat="48.84935759939253" lon="9.318037033081056">
<ele>236.6</ele>
<time>2024-05-12T11:52:52Z</time>
</trkpt>
<trkpt lat="48.84935759939253" lon="9.318037955090404">
<ele>236.8</ele>
<time>2024-05-12T11:53:05Z</time>
</trkpt>
<trkpt lat="48.84935759939253" lon="9.318039882928131">
<ele>236.8</ele>
<time>2024-05-12T11:53:13Z</time>
</trkpt>
<trkpt lat="48.84935759939253" lon="9.318037955090404">
<ele>236.8</ele>
<time>2024-05-12T11:53:14Z</time>
</trkpt>
<trkpt lat="48.84935759939253" lon="9.318037033081056">
<ele>237</ele>
<time>2024-05-12T11:53:19Z</time>
</trkpt>
<trkpt lat="48.849353743717074" lon="9.318035105243323">
<ele>237</ele>
<time>2024-05-12T11:53:24Z</time>
</trkpt>
<trkpt lat="48.849353743717074" lon="9.318033177405596">
<ele>237.2</ele>
<time>2024-05-12T11:53:48Z</time>
</trkpt>
<trkpt lat="48.84935759939253" lon="9.318033177405596">
<ele>237.2</ele>
<time>2024-05-12T11:53:51Z</time>
</trkpt>
<trkpt lat="48.84935759939253" lon="9.318031249567866">
<ele>237.4</ele>
<time>2024-05-12T11:53:57Z</time>
</trkpt>
<trkpt lat="48.84935759939253" lon="9.318030327558516">
<ele>237.6</ele>
<time>2024-05-12T11:54:06Z</time>
</trkpt>
<trkpt lat="48.84936137124896" lon="9.318030327558516">
<ele>237.8</ele>
<time>2024-05-12T11:54:07Z</time>
</trkpt>
<trkpt lat="48.84936137124896" lon="9.318031249567866">
<ele>237.8</ele>
<time>2024-05-12T11:54:12Z</time>
</trkpt>
<trkpt lat="48.84936137124896" lon="9.318030327558516">
<ele>238</ele>
<time>2024-05-12T11:54:13Z</time>
</trkpt>
<trkpt lat="48.84936522692442" lon="9.318031249567866">
<ele>238</ele>
<time>2024-05-12T11:54:15Z</time>
</trkpt>
<trkpt lat="48.84936522692442" lon="9.318033177405596">
<ele>238.2</ele>
<time>2024-05-12T11:54:18Z</time>
</trkpt>
<trkpt lat="48.84936522692442" lon="9.318035105243323">
<ele>238.2</ele>
<time>2024-05-12T11:54:24Z</time>
</trkpt>
<trkpt lat="48.84936899878085" lon="9.318035105243323">
<ele>238.2</ele>
<time>2024-05-12T11:54:28Z</time>
</trkpt>
<trkpt lat="48.84936899878085" lon="9.318037033081056">
<ele>238.4</ele>
<time>2024-05-12T11:54:30Z</time>
</trkpt>
<trkpt lat="48.84936899878085" lon="9.318035105243323">
<ele>238.2</ele>
<time>2024-05-12T11:54:41Z</time>
</trkpt>
<trkpt lat="48.849372854456306" lon="9.318035105243323">
<ele>238.2</ele>
<time>2024-05-12T11:54:42Z</time>
</trkpt>
<trkpt lat="48.849372854456306" lon="9.318033177405596">
<ele>238.2</ele>
<time>2024-05-12T11:54:43Z</time>
</trkpt>
<trkpt lat="48.849372854456306" lon="9.318031249567866">
<ele>238</ele>
<time>2024-05-12T11:54:45Z</time>
</trkpt>
<trkpt lat="48.849372854456306" lon="9.318030327558516">
<ele>238</ele>
<time>2024-05-12T11:54:47Z</time>
</trkpt>
<trkpt lat="48.84937662631273" lon="9.318030327558516">
<ele>238</ele>
<time>2024-05-12T11:54:51Z</time>
</trkpt>
<trkpt lat="48.84937662631273" lon="9.318028399720788">
<ele>237.8</ele>
<time>2024-05-12T11:54:54Z</time>
</trkpt>
<trkpt lat="48.84937662631273" lon="9.318030327558516">
<ele>237.8</ele>
<time>2024-05-12T11:54:56Z</time>
</trkpt>
<trkpt lat="48.84937662631273" lon="9.318028399720788">
<ele>237.8</ele>
<time>2024-05-12T11:54:57Z</time>
</trkpt>
<trkpt lat="48.84937662631273" lon="9.318031249567866">
<ele>237.8</ele>
<time>2024-05-12T11:54:59Z</time>
</trkpt>
<trkpt lat="48.84937662631273" lon="9.318033177405596">
<ele>238</ele>
<time>2024-05-12T11:55:02Z</time>
</trkpt>
<trkpt lat="48.84937662631273" lon="9.318035105243323">
<ele>238</ele>
<time>2024-05-12T11:55:08Z</time>
</trkpt>
<trkpt lat="48.84937662631273" lon="9.318037033081056">
<ele>238</ele>
<time>2024-05-12T11:55:14Z</time>
</trkpt>
<trkpt lat="48.84937662631273" lon="9.318037955090404">
<ele>238</ele>
<time>2024-05-12T11:55:17Z</time>
</trkpt>
<trkpt lat="48.84937662631273" lon="9.318037033081056">
<ele>238</ele>
<time>2024-05-12T11:55:19Z</time>
</trkpt>
<trkpt lat="48.84937662631273" lon="9.318037955090404">
<ele>238</ele>
<time>2024-05-12T11:55:20Z</time>
</trkpt>
<trkpt lat="48.84937662631273" lon="9.318037033081056">
<ele>238</ele>
<time>2024-05-12T11:55:21Z</time>
</trkpt>
<trkpt lat="48.84937662631273" lon="9.318037955090404">
<ele>238</ele>
<time>2024-05-12T11:55:22Z</time>
</trkpt>
<trkpt lat="48.84937662631273" lon="9.318037033081056">
<ele>238</ele>
<time>2024-05-12T11:55:25Z</time>
</trkpt>
<trkpt lat="48.84937662631273" lon="9.318037955090404">
<ele>238.2</ele>
<time>2024-05-12T11:55:36Z</time>
</trkpt>
<trkpt lat="48.84938048198819" lon="9.318039882928131">
<ele>238.2</ele>
<time>2024-05-12T11:55:38Z</time>
</trkpt>
<trkpt lat="48.84937662631273" lon="9.318039882928131">
<ele>238.2</ele>
<time>2024-05-12T11:55:40Z</time>
</trkpt>
<trkpt lat="48.84937662631273" lon="9.31804172694683">
<ele>238.2</ele>
<time>2024-05-12T11:55:44Z</time>
</trkpt>
<trkpt lat="48.84937662631273" lon="9.318039882928131">
<ele>238.2</ele>
<time>2024-05-12T11:55:48Z</time>
</trkpt>
<trkpt lat="48.84937662631273" lon="9.31804172694683">
<ele>238.2</ele>
<time>2024-05-12T11:55:53Z</time>
</trkpt>
<trkpt lat="48.84937662631273" lon="9.318039882928131">
<ele>238.2</ele>
<time>2024-05-12T11:55:57Z</time>
</trkpt>
<trkpt lat="48.84937662631273" lon="9.31804172694683">
<ele>238.2</ele>
<time>2024-05-12T11:55:58Z</time>
</trkpt>
<trkpt lat="48.84937662631273" lon="9.318039882928131">
<ele>238.2</ele>
<time>2024-05-12T11:55:59Z</time>
</trkpt>
<trkpt lat="48.84937662631273" lon="9.318037955090404">
<ele>238.2</ele>
<time>2024-05-12T11:56:01Z</time>
</trkpt>
<trkpt lat="48.84937662631273" lon="9.318037033081056">
<ele>238.2</ele>
<time>2024-05-12T11:56:04Z</time>
</trkpt>
<trkpt lat="48.84937662631273" lon="9.318035105243323">
<ele>238.2</ele>
<time>2024-05-12T11:56:09Z</time>
</trkpt>
<trkpt lat="48.84937662631273" lon="9.318033177405596">
<ele>238.2</ele>
<time>2024-05-12T11:56:12Z</time>
</trkpt>
<trkpt lat="48.84937662631273" lon="9.318035105243323">
<ele>238.2</ele>
<time>2024-05-12T11:56:19Z</time>
</trkpt>
<trkpt lat="48.84937662631273" lon="9.318033177405596">
<ele>238.2</ele>
<time>2024-05-12T11:56:25Z</time>
</trkpt>
<trkpt lat="48.84937662631273" lon="9.318031249567866">
<ele>238.2</ele>
<time>2024-05-12T11:56:34Z</time>
</trkpt>
<trkpt lat="48.84937662631273" lon="9.318030327558516">
<ele>238.2</ele>
<time>2024-05-12T11:56:44Z</time>
</trkpt>
<trkpt lat="48.849372854456306" lon="9.318030327558516">
<ele>238.2</ele>
<time>2024-05-12T11:56:55Z</time>
</trkpt>
<trkpt lat="48.849372854456306" lon="9.318028399720788">
<ele>238.2</ele>
<time>2024-05-12T11:57:04Z</time>
</trkpt>
<trkpt lat="48.849372854456306" lon="9.318030327558516">
<ele>238.2</ele>
<time>2024-05-12T11:57:05Z</time>
</trkpt>
<trkpt lat="48.849372854456306" lon="9.318031249567866">
<ele>238.2</ele>
<time>2024-05-12T11:57:13Z</time>
</trkpt>
<trkpt lat="48.849372854456306" lon="9.318033177405596">
<ele>238.2</ele>
<time>2024-05-12T11:57:21Z</time>
</trkpt>
<trkpt lat="48.849372854456306" lon="9.318035105243323">
<ele>238.2</ele>
<time>2024-05-12T11:57:27Z</time>
</trkpt>
<trkpt lat="48.849372854456306" lon="9.318033177405596">
<ele>238</ele>
<time>2024-05-12T11:57:31Z</time>
</trkpt>
<trkpt lat="48.849372854456306" lon="9.318035105243323">
<ele>238</ele>
<time>2024-05-12T11:57:32Z</time>
</trkpt>
<trkpt lat="48.84936899878085" lon="9.318033177405596">
<ele>238</ele>
<time>2024-05-12T11:57:33Z</time>
</trkpt>
<trkpt lat="48.84936522692442" lon="9.318033177405596">
<ele>238</ele>
<time>2024-05-12T11:57:53Z</time>
</trkpt>
<trkpt lat="48.84936899878085" lon="9.318033177405596">
<ele>238</ele>
<time>2024-05-12T11:57:57Z</time>
</trkpt>
<trkpt lat="48.84936522692442" lon="9.318033177405596">
<ele>238</ele>
<time>2024-05-12T11:58:00Z</time>
</trkpt>
<trkpt lat="48.84936522692442" lon="9.318035105243323">
<ele>238</ele>
<time>2024-05-12T11:58:05Z</time>
</trkpt>
<trkpt lat="48.84936522692442" lon="9.318037033081056">
<ele>238</ele>
<time>2024-05-12T11:58:11Z</time>
</trkpt>
<trkpt lat="48.84936522692442" lon="9.318037955090404">
<ele>238</ele>
<time>2024-05-12T11:58:17Z</time>
</trkpt>
<trkpt lat="48.84936522692442" lon="9.318037033081056">
<ele>238</ele>
<time>2024-05-12T11:58:34Z</time>
</trkpt>
<trkpt lat="48.84936899878085" lon="9.318037033081056">
<ele>238</ele>
<time>2024-05-12T11:58:37Z</time>
</trkpt>
<trkpt lat="48.84936899878085" lon="9.318037955090404">
<ele>238</ele>
<time>2024-05-12T11:58:42Z</time>
</trkpt>
<trkpt lat="48.84936899878085" lon="9.318039882928131">
<ele>238</ele>
<time>2024-05-12T11:58:49Z</time>
</trkpt>
<trkpt lat="48.84936899878085" lon="9.31804172694683">
<ele>238</ele>
<time>2024-05-12T11:58:54Z</time>
</trkpt>
<trkpt lat="48.84936899878085" lon="9.31804365478456">
<ele>238</ele>
<time>2024-05-12T11:59:05Z</time>
</trkpt>
<trkpt lat="48.84936899878085" lon="9.31804466061294">
<ele>238</ele>
<time>2024-05-12T11:59:14Z</time>
</trkpt>
<trkpt lat="48.84936899878085" lon="9.31804650463164">
<ele>238</ele>
<time>2024-05-12T11:59:23Z</time>
</trkpt>
<trkpt lat="48.84936899878085" lon="9.318048432469368">
<ele>238</ele>
<time>2024-05-12T11:59:30Z</time>
</trkpt>
<trkpt lat="48.84936899878085" lon="9.318050360307096">
<ele>238</ele>
<time>2024-05-12T11:59:34Z</time>
</trkpt>
<trkpt lat="48.84936899878085" lon="9.318051282316446">
<ele>238</ele>
<time>2024-05-12T11:59:37Z</time>
</trkpt>
<trkpt lat="48.84936899878085" lon="9.318053210154176">
<ele>238</ele>
<time>2024-05-12T11:59:40Z</time>
</trkpt>
<trkpt lat="48.84936522692442" lon="9.318053210154176">
<ele>238</ele>
<time>2024-05-12T11:59:42Z</time>
</trkpt>
<trkpt lat="48.84936522692442" lon="9.318055137991903">
<ele>238</ele>
<time>2024-05-12T11:59:47Z</time>
</trkpt>
<trkpt lat="48.84936522692442" lon="9.318053210154176">
<ele>238</ele>
<time>2024-05-12T12:00:07Z</time>
</trkpt>
<trkpt lat="48.84936522692442" lon="9.318055137991903">
<ele>238</ele>
<time>2024-05-12T12:00:27Z</time>
</trkpt>
<trkpt lat="48.84936522692442" lon="9.318053210154176">
<ele>238</ele>
<time>2024-05-12T12:00:48Z</time>
</trkpt>
<trkpt lat="48.84936522692442" lon="9.318055137991903">
<ele>238</ele>
<time>2024-05-12T12:00:52Z</time>
</trkpt>
<trkpt lat="48.84936522692442" lon="9.318056982010605">
<ele>238</ele>
<time>2024-05-12T12:00:59Z</time>
</trkpt>
<trkpt lat="48.84936522692442" lon="9.318057987838984">
<ele>238</ele>
<time>2024-05-12T12:01:16Z</time>
</trkpt>
<trkpt lat="48.84936137124896" lon="9.318057987838984">
<ele>238</ele>
<time>2024-05-12T12:01:38Z</time>
</trkpt>
<trkpt lat="48.84936137124896" lon="9.318056982010605">
<ele>238</ele>
<time>2024-05-12T12:01:40Z</time>
</trkpt>
<trkpt lat="48.84936137124896" lon="9.318057987838984">
<ele>238</ele>
<time>2024-05-12T12:01:48Z</time>
</trkpt>
<trkpt lat="48.84935759939253" lon="9.318057987838984">
<ele>238</ele>
<time>2024-05-12T12:02:18Z</time>
</trkpt>
<trkpt lat="48.84936137124896" lon="9.318057987838984">
<ele>238</ele>
<time>2024-05-12T12:02:19Z</time>
</trkpt>
<trkpt lat="48.84936137124896" lon="9.318056982010605">
<ele>238</ele>
<time>2024-05-12T12:02:48Z</time>
</trkpt>
<trkpt lat="48.84936137124896" lon="9.318057987838984">
<ele>238</ele>
<time>2024-05-12T12:02:53Z</time>
</trkpt>
<trkpt lat="48.84936137124896" lon="9.318056982010605">
<ele>238</ele>
<time>2024-05-12T12:02:56Z</time>
</trkpt>
<trkpt lat="48.84936137124896" lon="9.318055137991903">
<ele>238</ele>
<time>2024-05-12T12:02:58Z</time>
</trkpt>
<trkpt lat="48.84936522692442" lon="9.318055137991903">
<ele>238</ele>
<time>2024-05-12T12:03:00Z</time>
</trkpt>
<trkpt lat="48.84936522692442" lon="9.318053210154176">
<ele>238</ele>
<time>2024-05-12T12:03:04Z</time>
</trkpt>
<trkpt lat="48.84936522692442" lon="9.318055137991903">
<ele>238</ele>
<time>2024-05-12T12:03:09Z</time>
</trkpt>
<trkpt lat="48.84936522692442" lon="9.318053210154176">
<ele>238</ele>
<time>2024-05-12T12:03:10Z</time>
</trkpt>
<trkpt lat="48.84936522692442" lon="9.318051282316446">
<ele>238</ele>
<time>2024-05-12T12:03:14Z</time>
</trkpt>
<trkpt lat="48.84936522692442" lon="9.318050360307096">
<ele>238</ele>
<time>2024-05-12T12:03:17Z</time>
</trkpt>
<trkpt lat="48.84936522692442" lon="9.318048432469368">
<ele>238</ele>
<time>2024-05-12T12:03:20Z</time>
</trkpt>
<trkpt lat="48.84936522692442" lon="9.31804650463164">
<ele>238</ele>
<time>2024-05-12T12:03:23Z</time>
</trkpt>
<trkpt lat="48.84936522692442" lon="9.31804466061294">
<ele>238</ele>
<time>2024-05-12T12:03:27Z</time>
</trkpt>
<trkpt lat="48.84935759939253" lon="9.318037955090404">
<ele>238</ele>
<time>2024-05-12T12:03:30Z</time>
</trkpt>
<trkpt lat="48.84934997186065" lon="9.318035105243323">
<ele>238</ele>
<time>2024-05-12T12:03:31Z</time>
</trkpt>
<trkpt lat="48.84934234432876" lon="9.31802462786436">
<ele>238</ele>
<time>2024-05-12T12:03:32Z</time>
</trkpt>
<trkpt lat="48.849334716796875" lon="9.318015072494743">
<ele>238</ele>
<time>2024-05-12T12:03:33Z</time>
</trkpt>
<trkpt lat="48.84932323358953" lon="9.31800459511578">
<ele>238</ele>
<time>2024-05-12T12:03:34Z</time>
</trkpt>
<trkpt lat="48.849311750382185" lon="9.317996967583897">
<ele>238</ele>
<time>2024-05-12T12:03:35Z</time>
</trkpt>
<trkpt lat="48.84930035099387" lon="9.317990262061356">
<ele>238</ele>
<time>2024-05-12T12:03:36Z</time>
</trkpt>
<trkpt lat="48.8492850959301" lon="9.317977856844664">
<ele>238</ele>
<time>2024-05-12T12:03:37Z</time>
</trkpt>
<trkpt lat="48.84926221333444" lon="9.317968301475048">
<ele>238</ele>
<time>2024-05-12T12:03:38Z</time>
</trkpt>
<trkpt lat="48.84923933073878" lon="9.317959751933811">
<ele>238</ele>
<time>2024-05-12T12:03:39Z</time>
</trkpt>
<trkpt lat="48.849212592467666" lon="9.31794642470777">
<ele>238</ele>
<time>2024-05-12T12:03:40Z</time>
</trkpt>
<trkpt lat="48.849178310483694" lon="9.317930163815618">
<ele>238</ele>
<time>2024-05-12T12:03:41Z</time>
</trkpt>
<trkpt lat="48.84914771653712" lon="9.317912980914116">
<ele>238</ele>
<time>2024-05-12T12:03:42Z</time>
</trkpt>
<trkpt lat="48.849113434553146" lon="9.317890098318458">
<ele>238</ele>
<time>2024-05-12T12:03:43Z</time>
</trkpt>
<trkpt lat="48.8490829244256" lon="9.31786629371345">
<ele>238</ele>
<time>2024-05-12T12:03:44Z</time>
</trkpt>
<trkpt lat="48.8490485586226" lon="9.317841483280064">
<ele>238</ele>
<time>2024-05-12T12:03:45Z</time>
</trkpt>
<trkpt lat="48.84902190417051" lon="9.317812900990248">
<ele>238</ele>
<time>2024-05-12T12:03:46Z</time>
</trkpt>
<trkpt lat="48.84899139404297" lon="9.317785240709782">
<ele>238</ele>
<time>2024-05-12T12:03:47Z</time>
</trkpt>
<trkpt lat="48.84896080009639" lon="9.317765207961202">
<ele>238</ele>
<time>2024-05-12T12:03:48Z</time>
</trkpt>
<trkpt lat="48.84891503490507" lon="9.317756574600937">
<ele>238.2</ele>
<time>2024-05-12T12:03:49Z</time>
</trkpt>
<trkpt lat="48.848876897245646" lon="9.317758502438664">
<ele>238.2</ele>
<time>2024-05-12T12:03:50Z</time>
</trkpt>
<trkpt lat="48.84883498772979" lon="9.31776805780828">
<ele>238.4</ele>
<time>2024-05-12T12:03:51Z</time>
</trkpt>
<trkpt lat="48.8487929943949" lon="9.317778535187244">
<ele>238.4</ele>
<time>2024-05-12T12:03:52Z</time>
</trkpt>
<trkpt lat="48.84875100106001" lon="9.31779001839459">
<ele>238.4</ele>
<time>2024-05-12T12:03:53Z</time>
</trkpt>
<trkpt lat="48.84870909154415" lon="9.317785240709782">
<ele>238.4</ele>
<time>2024-05-12T12:03:54Z</time>
</trkpt>
<trkpt lat="48.84867095388472" lon="9.317765207961202">
<ele>238.4</ele>
<time>2024-05-12T12:03:55Z</time>
</trkpt>
<trkpt lat="48.84860607795417" lon="9.317696560174229">
<ele>238.6</ele>
<time>2024-05-12T12:03:57Z</time>
</trkpt>
<trkpt lat="48.848579339683056" lon="9.317656494677069">
<ele>238.6</ele>
<time>2024-05-12T12:03:58Z</time>
</trkpt>
<trkpt lat="48.84855268523097" lon="9.317614501342176">
<ele>238.6</ele>
<time>2024-05-12T12:03:59Z</time>
</trkpt>
<trkpt lat="48.848522175103426" lon="9.317566808313131">
<ele>238.6</ele>
<time>2024-05-12T12:04:00Z</time>
</trkpt>
<trkpt lat="48.84849166497588" lon="9.317515343427658">
<ele>238.6</ele>
<time>2024-05-12T12:04:01Z</time>
</trkpt>
<trkpt lat="48.84846492670477" lon="9.317461950704455">
<ele>238.6</ele>
<time>2024-05-12T12:04:02Z</time>
</trkpt>
<trkpt lat="48.84843818843365" lon="9.317411407828333">
<ele>238.6</ele>
<time>2024-05-12T12:04:03Z</time>
</trkpt>
<trkpt lat="48.8484076783061" lon="9.317361786961555">
<ele>238.6</ele>
<time>2024-05-12T12:04:04Z</time>
</trkpt>
<trkpt lat="48.84837716817856" lon="9.317311244085433">
<ele>238.6</ele>
<time>2024-05-12T12:04:05Z</time>
</trkpt>
<trkpt lat="48.84834288619459" lon="9.317263551056383">
<ele>238.6</ele>
<time>2024-05-12T12:04:06Z</time>
</trkpt>
<trkpt lat="48.84830852039158" lon="9.317221641540527">
<ele>238.8</ele>
<time>2024-05-12T12:04:07Z</time>
</trkpt>
<trkpt lat="48.84827415458858" lon="9.317179648205638">
<ele>238.8</ele>
<time>2024-05-12T12:04:08Z</time>
</trkpt>
<trkpt lat="48.84823987260461" lon="9.31713480502367">
<ele>239</ele>
<time>2024-05-12T12:04:09Z</time>
</trkpt>
<trkpt lat="48.848209362477064" lon="9.317086189985275">
<ele>239.2</ele>
<time>2024-05-12T12:04:10Z</time>
</trkpt>
<trkpt lat="48.84817499667406" lon="9.317041346803308">
<ele>239.2</ele>
<time>2024-05-12T12:04:11Z</time>
</trkpt>
<trkpt lat="48.84814448654651" lon="9.31699843145907">
<ele>239.4</ele>
<time>2024-05-12T12:04:12Z</time>
</trkpt>
<trkpt lat="48.84811012074351" lon="9.316953588277102">
<ele>239.4</ele>
<time>2024-05-12T12:04:13Z</time>
</trkpt>
<trkpt lat="48.84807198308408" lon="9.316903045400975">
<ele>239.6</ele>
<time>2024-05-12T12:04:14Z</time>
</trkpt>
<trkpt lat="48.84803770110011" lon="9.316855352371933">
<ele>239.6</ele>
<time>2024-05-12T12:04:15Z</time>
</trkpt>
<trkpt lat="48.84800333529711" lon="9.31680011563003">
<ele>239.6</ele>
<time>2024-05-12T12:04:16Z</time>
</trkpt>
<trkpt lat="48.847969053313136" lon="9.316749572753906">
<ele>239.8</ele>
<time>2024-05-12T12:04:17Z</time>
</trkpt>
<trkpt lat="48.84793845936656" lon="9.316695174202325">
<ele>239.8</ele>
<time>2024-05-12T12:04:18Z</time>
</trkpt>
<trkpt lat="48.8478965498507" lon="9.316637003794312">
<ele>239.8</ele>
<time>2024-05-12T12:04:19Z</time>
</trkpt>
<trkpt lat="48.84785841219127" lon="9.316576905548573">
<ele>239.8</ele>
<time>2024-05-12T12:04:20Z</time>
</trkpt>
<trkpt lat="48.84782790206373" lon="9.316516807302833">
<ele>239.8</ele>
<time>2024-05-12T12:04:21Z</time>
</trkpt>
<trkpt lat="48.84779739193618" lon="9.316459642723204">
<ele>239.8</ele>
<time>2024-05-12T12:04:22Z</time>
</trkpt>
<trkpt lat="48.84776679798961" lon="9.316401472315192">
<ele>239.6</ele>
<time>2024-05-12T12:04:23Z</time>
</trkpt>
<trkpt lat="48.84773628786206" lon="9.316343301907182">
<ele>239.6</ele>
<time>2024-05-12T12:04:24Z</time>
</trkpt>
<trkpt lat="48.84770963340998" lon="9.316281275823712">
<ele>239.6</ele>
<time>2024-05-12T12:04:25Z</time>
</trkpt>
<trkpt lat="48.847675267606974" lon="9.316213550046086">
<ele>239.4</ele>
<time>2024-05-12T12:04:26Z</time>
</trkpt>
<trkpt lat="48.84763712994754" lon="9.316142974421382">
<ele>239.4</ele>
<time>2024-05-12T12:04:27Z</time>
</trkpt>
<trkpt lat="48.84760276414454" lon="9.316076254472136">
<ele>239.2</ele>
<time>2024-05-12T12:04:28Z</time>
</trkpt>
<trkpt lat="48.84756848216057" lon="9.316013306379318">
<ele>239</ele>
<time>2024-05-12T12:04:29Z</time>
</trkpt>
<trkpt lat="48.847534116357565" lon="9.315941808745263">
<ele>238.8</ele>
<time>2024-05-12T12:04:30Z</time>
</trkpt>
<trkpt lat="48.84749983437359" lon="9.315875004976988">
<ele>238.6</ele>
<time>2024-05-12T12:04:31Z</time>
</trkpt>
<trkpt lat="48.84747309610248" lon="9.31581306271255">
<ele>238.6</ele>
<time>2024-05-12T12:04:32Z</time>
</trkpt>
<trkpt lat="48.84744258597493" lon="9.31575296446681">
<ele>238.4</ele>
<time>2024-05-12T12:04:33Z</time>
</trkpt>
<trkpt lat="48.84741207584739" lon="9.315688088536264">
<ele>238.4</ele>
<time>2024-05-12T12:04:34Z</time>
</trkpt>
<trkpt lat="48.84738156571984" lon="9.315623212605717">
<ele>238.4</ele>
<time>2024-05-12T12:04:35Z</time>
</trkpt>
<trkpt lat="48.847354827448726" lon="9.315561270341275">
<ele>238.2</ele>
<time>2024-05-12T12:04:36Z</time>
</trkpt>
<trkpt lat="48.84732817299664" lon="9.31549639441073">
<ele>238.2</ele>
<time>2024-05-12T12:04:37Z</time>
</trkpt>
<trkpt lat="48.84730143472552" lon="9.315433446317911">
<ele>238.2</ele>
<time>2024-05-12T12:04:38Z</time>
</trkpt>
<trkpt lat="48.84726706892252" lon="9.315373348072171">
<ele>238.2</ele>
<time>2024-05-12T12:04:39Z</time>
</trkpt>
<trkpt lat="48.847236558794975" lon="9.31531517766416">
<ele>238.2</ele>
<time>2024-05-12T12:04:40Z</time>
</trkpt>
<trkpt lat="48.84720604866743" lon="9.315255163237453">
<ele>238.2</ele>
<time>2024-05-12T12:04:41Z</time>
</trkpt>
<trkpt lat="48.84717176668346" lon="9.315197914838793">
<ele>238.2</ele>
<time>2024-05-12T12:04:42Z</time>
</trkpt>
<trkpt lat="48.847141256555915" lon="9.315143516287208">
<ele>238.2</ele>
<time>2024-05-12T12:04:43Z</time>
</trkpt>
<trkpt lat="48.84711074642837" lon="9.315090123564003">
<ele>238</ele>
<time>2024-05-12T12:04:44Z</time>
</trkpt>
<trkpt lat="48.847080152481794" lon="9.315034803003073">
<ele>238</ele>
<time>2024-05-12T12:04:45Z</time>
</trkpt>
<trkpt lat="48.84705349802971" lon="9.314974704757333">
<ele>238</ele>
<time>2024-05-12T12:04:46Z</time>
</trkpt>
<trkpt lat="48.84702675975859" lon="9.314913684502244">
<ele>238</ele>
<time>2024-05-12T12:04:47Z</time>
</trkpt>
<trkpt lat="48.84700387716293" lon="9.314853586256504">
<ele>238</ele>
<time>2024-05-12T12:04:48Z</time>
</trkpt>
<trkpt lat="48.84697722271085" lon="9.314794493839145">
<ele>238</ele>
<time>2024-05-12T12:04:49Z</time>
</trkpt>
<trkpt lat="48.8469467125833" lon="9.314740179106591">
<ele>238.2</ele>
<time>2024-05-12T12:04:50Z</time>
</trkpt>
<trkpt lat="48.8469123467803" lon="9.31468485854566">
<ele>238.2</ele>
<time>2024-05-12T12:04:51Z</time>
</trkpt>
<trkpt lat="48.8468779809773" lon="9.314629537984729">
<ele>238.4</ele>
<time>2024-05-12T12:04:52Z</time>
</trkpt>
<trkpt lat="48.846843698993325" lon="9.314577989280224">
<ele>238.4</ele>
<time>2024-05-12T12:04:53Z</time>
</trkpt>
<trkpt lat="48.84681318886578" lon="9.314523674547672">
<ele>238.4</ele>
<time>2024-05-12T12:04:54Z</time>
</trkpt>
<trkpt lat="48.84677505120635" lon="9.314471203833818">
<ele>238.6</ele>
<time>2024-05-12T12:04:55Z</time>
</trkpt>
<trkpt lat="48.84673682972789" lon="9.314423510804772">
<ele>238.4</ele>
<time>2024-05-12T12:04:56Z</time>
</trkpt>
<trkpt lat="48.8467101752758" lon="9.314378667622805">
<ele>238.4</ele>
<time>2024-05-12T12:04:57Z</time>
</trkpt>
<trkpt lat="48.846687292680144" lon="9.314332902431488">
<ele>238.4</ele>
<time>2024-05-12T12:04:58Z</time>
</trkpt>
<trkpt lat="48.846664410084486" lon="9.314286215230824">
<ele>238.6</ele>
<time>2024-05-12T12:04:59Z</time>
</trkpt>
<trkpt lat="48.84664152748883" lon="9.314248077571392">
<ele>238.8</ele>
<time>2024-05-12T12:05:00Z</time>
</trkpt>
<trkpt lat="48.84661864489317" lon="9.314216561615469">
<ele>239</ele>
<time>2024-05-12T12:05:01Z</time>
</trkpt>
<trkpt lat="48.84659576229751" lon="9.31419175118208">
<ele>239.2</ele>
<time>2024-05-12T12:05:02Z</time>
</trkpt>
<trkpt lat="48.84657665155828" lon="9.3141717184335">
<ele>239.4</ele>
<time>2024-05-12T12:05:03Z</time>
</trkpt>
<trkpt lat="48.84655754081905" lon="9.314156463369727">
<ele>239.6</ele>
<time>2024-05-12T12:05:04Z</time>
</trkpt>
<trkpt lat="48.84653465822339" lon="9.314146991819143">
<ele>240</ele>
<time>2024-05-12T12:05:05Z</time>
</trkpt>
<trkpt lat="48.84651563130319" lon="9.314161241054537">
<ele>240.2</ele>
<time>2024-05-12T12:05:06Z</time>
</trkpt>
<trkpt lat="48.84649274870753" lon="9.314180351793766">
<ele>240.2</ele>
<time>2024-05-12T12:05:07Z</time>
</trkpt>
<trkpt lat="48.8464736379683" lon="9.314214633777738">
<ele>240.4</ele>
<time>2024-05-12T12:05:08Z</time>
</trkpt>
<trkpt lat="48.84645075537264" lon="9.314260482788086">
<ele>240.4</ele>
<time>2024-05-12T12:05:09Z</time>
</trkpt>
<trkpt lat="48.84642410092056" lon="9.3143080919981">
<ele>240.4</ele>
<time>2024-05-12T12:05:10Z</time>
</trkpt>
<trkpt lat="48.84639350697398" lon="9.31435201317072">
<ele>240.4</ele>
<time>2024-05-12T12:05:11Z</time>
</trkpt>
<trkpt lat="48.84637062437832" lon="9.314393000677228">
<ele>240.4</ele>
<time>2024-05-12T12:05:12Z</time>
</trkpt>
<trkpt lat="48.846347741782665" lon="9.31443214416504">
<ele>240.4</ele>
<time>2024-05-12T12:05:13Z</time>
</trkpt>
<trkpt lat="48.84632485918701" lon="9.314463576301932">
<ele>240.4</ele>
<time>2024-05-12T12:05:14Z</time>
</trkpt>
<trkpt lat="48.84630583226681" lon="9.314499786123632">
<ele>240.4</ele>
<time>2024-05-12T12:05:15Z</time>
</trkpt>
<trkpt lat="48.84628294967115" lon="9.314537923783064">
<ele>240.2</ele>
<time>2024-05-12T12:05:16Z</time>
</trkpt>
<trkpt lat="48.84626006707549" lon="9.314577067270877">
<ele>240</ele>
<time>2024-05-12T12:05:17Z</time>
</trkpt>
<trkpt lat="48.84624095633626" lon="9.314618054777384">
<ele>240</ele>
<time>2024-05-12T12:05:18Z</time>
</trkpt>
<trkpt lat="48.84621421806514" lon="9.314661975950004">
<ele>239.8</ele>
<time>2024-05-12T12:05:19Z</time>
</trkpt>
<trkpt lat="48.84618756361306" lon="9.31470673531294">
<ele>239.6</ele>
<time>2024-05-12T12:05:20Z</time>
</trkpt>
<trkpt lat="48.84616082534194" lon="9.314749650657175">
<ele>239.6</ele>
<time>2024-05-12T12:05:21Z</time>
</trkpt>
<trkpt lat="48.84613794274628" lon="9.314791643992066">
<ele>239.4</ele>
<time>2024-05-12T12:05:22Z</time>
</trkpt>
<trkpt lat="48.84611506015062" lon="9.314833637326956">
<ele>239.4</ele>
<time>2024-05-12T12:05:23Z</time>
</trkpt>
<trkpt lat="48.846096033230424" lon="9.314869847148657">
<ele>239.4</ele>
<time>2024-05-12T12:05:24Z</time>
</trkpt>
<trkpt lat="48.846073150634766" lon="9.314907062798738">
<ele>239.4</ele>
<time>2024-05-12T12:05:25Z</time>
</trkpt>
<trkpt lat="48.84605018422008" lon="9.31494134478271">
<ele>239.4</ele>
<time>2024-05-12T12:05:26Z</time>
</trkpt>
<trkpt lat="48.84603115729987" lon="9.314974704757333">
<ele>239.6</ele>
<time>2024-05-12T12:05:27Z</time>
</trkpt>
<trkpt lat="48.84600827470422" lon="9.315011920407414">
<ele>239.6</ele>
<time>2024-05-12T12:05:28Z</time>
</trkpt>
<trkpt lat="48.845993019640446" lon="9.315046286210418">
<ele>239.6</ele>
<time>2024-05-12T12:05:29Z</time>
</trkpt>
<trkpt lat="48.84597776457667" lon="9.315076796337962">
<ele>239.6</ele>
<time>2024-05-12T12:05:30Z</time>
</trkpt>
<trkpt lat="48.84595865383744" lon="9.315106384456158">
<ele>239.6</ele>
<time>2024-05-12T12:05:31Z</time>
</trkpt>
<trkpt lat="48.84593199938536" lon="9.3151197116822">
<ele>239.8</ele>
<time>2024-05-12T12:05:32Z</time>
</trkpt>
<trkpt lat="48.8459091167897" lon="9.315110156312585">
<ele>239.8</ele>
<time>2024-05-12T12:05:33Z</time>
</trkpt>
<trkpt lat="48.84588237851858" lon="9.315088195726275">
<ele>239.8</ele>
<time>2024-05-12T12:05:34Z</time>
</trkpt>
<trkpt lat="48.845855640247464" lon="9.31505961343646">
<ele>240</ele>
<time>2024-05-12T12:05:35Z</time>
</trkpt>
<trkpt lat="48.84582513011992" lon="9.315025247633455">
<ele>240</ele>
<time>2024-05-12T12:05:36Z</time>
</trkpt>
<trkpt lat="48.845794619992375" lon="9.314994737505913">
<ele>240.2</ele>
<time>2024-05-12T12:05:37Z</time>
</trkpt>
<trkpt lat="48.8457603380084" lon="9.314968083053827">
<ele>240.2</ele>
<time>2024-05-12T12:05:38Z</time>
</trkpt>
<trkpt lat="48.84572982788086" lon="9.314936567097902">
<ele>240.2</ele>
<time>2024-05-12T12:05:39Z</time>
</trkpt>
<trkpt lat="48.84569923393428" lon="9.3149003572762">
<ele>240.2</ele>
<time>2024-05-12T12:05:40Z</time>
</trkpt>
<trkpt lat="48.84566495195031" lon="9.314865069463847">
<ele>240.2</ele>
<time>2024-05-12T12:05:41Z</time>
</trkpt>
<trkpt lat="48.84562295861542" lon="9.314821232110262">
<ele>240.2</ele>
<time>2024-05-12T12:05:42Z</time>
</trkpt>
<trkpt lat="48.845577193424106" lon="9.314773539081216">
<ele>240.2</ele>
<time>2024-05-12T12:05:43Z</time>
</trkpt>
<trkpt lat="48.845539055764675" lon="9.31472676806152">
<ele>240.2</ele>
<time>2024-05-12T12:05:44Z</time>
</trkpt>
<trkpt lat="48.845497062429786" lon="9.314676225185394">
<ele>240.4</ele>
<time>2024-05-12T12:05:45Z</time>
</trkpt>
<trkpt lat="48.845462780445814" lon="9.314629537984729">
<ele>240.4</ele>
<time>2024-05-12T12:05:46Z</time>
</trkpt>
<trkpt lat="48.845420787110925" lon="9.314581844955685">
<ele>240.4</ele>
<time>2024-05-12T12:05:47Z</time>
</trkpt>
<trkpt lat="48.845378793776035" lon="9.314537001773717">
<ele>240.2</ele>
<time>2024-05-12T12:05:48Z</time>
</trkpt>
<trkpt lat="48.845340656116605" lon="9.314493164420128">
<ele>240</ele>
<time>2024-05-12T12:05:49Z</time>
</trkpt>
<trkpt lat="48.845302518457174" lon="9.31444639340043">
<ele>240</ele>
<time>2024-05-12T12:05:50Z</time>
</trkpt>
<trkpt lat="48.8452682364732" lon="9.314399706199763">
<ele>240</ele>
<time>2024-05-12T12:05:51Z</time>
</trkpt>
<trkpt lat="48.84523009881377" lon="9.314358634874225">
<ele>240</ele>
<time>2024-05-12T12:05:52Z</time>
</trkpt>
<trkpt lat="48.84519187733531" lon="9.314316725358369">
<ele>240</ele>
<time>2024-05-12T12:05:53Z</time>
</trkpt>
<trkpt lat="48.84515759535134" lon="9.314272804185748">
<ele>240</ele>
<time>2024-05-12T12:05:54Z</time>
</trkpt>
<trkpt lat="48.84511945769191" lon="9.314227038994431">
<ele>240.2</ele>
<time>2024-05-12T12:05:55Z</time>
</trkpt>
<trkpt lat="48.845085091888905" lon="9.314180351793766">
<ele>240.4</ele>
<time>2024-05-12T12:05:56Z</time>
</trkpt>
<trkpt lat="48.845046954229474" lon="9.31413458660245">
<ele>240.8</ele>
<time>2024-05-12T12:05:57Z</time>
</trkpt>
<trkpt lat="48.84500881657005" lon="9.314091671258211">
<ele>241</ele>
<time>2024-05-12T12:05:58Z</time>
</trkpt>
<trkpt lat="48.84497067891061" lon="9.314051605761051">
<ele>241.2</ele>
<time>2024-05-12T12:05:59Z</time>
</trkpt>
<trkpt lat="48.84493631310761" lon="9.314002990722656">
<ele>241.4</ele>
<time>2024-05-12T12:06:00Z</time>
</trkpt>
<trkpt lat="48.84489817544818" lon="9.31395529769361">
<ele>241.4</ele>
<time>2024-05-12T12:06:01Z</time>
</trkpt>
<trkpt lat="48.84486003778875" lon="9.313904754817486">
<ele>241.6</ele>
<time>2024-05-12T12:06:02Z</time>
</trkpt>
<trkpt lat="48.84481804445386" lon="9.313857983797789">
<ele>241.8</ele>
<time>2024-05-12T12:06:03Z</time>
</trkpt>
<trkpt lat="48.84477990679443" lon="9.313810290768744">
<ele>241.8</ele>
<time>2024-05-12T12:06:04Z</time>
</trkpt>
<trkpt lat="48.844741769135" lon="9.313763603568075">
<ele>241.8</ele>
<time>2024-05-12T12:06:05Z</time>
</trkpt>
<trkpt lat="48.84470363147557" lon="9.31371876038611">
<ele>241.8</ele>
<time>2024-05-12T12:06:06Z</time>
</trkpt>
<trkpt lat="48.84466163814068" lon="9.313670145347714">
<ele>241.8</ele>
<time>2024-05-12T12:06:07Z</time>
</trkpt>
<trkpt lat="48.84461972862482" lon="9.313621446490288">
<ele>241.6</ele>
<time>2024-05-12T12:06:08Z</time>
</trkpt>
<trkpt lat="48.84458159096539" lon="9.313574759289622">
<ele>241.6</ele>
<time>2024-05-12T12:06:09Z</time>
</trkpt>
<trkpt lat="48.8445395976305" lon="9.313527066260576">
<ele>241.6</ele>
<time>2024-05-12T12:06:10Z</time>
</trkpt>
<trkpt lat="48.844493832439184" lon="9.313474595546722">
<ele>241.4</ele>
<time>2024-05-12T12:06:11Z</time>
</trkpt>
<trkpt lat="48.844451839104295" lon="9.31342313066125">
<ele>241.4</ele>
<time>2024-05-12T12:06:12Z</time>
</trkpt>
<trkpt lat="48.84440992958844" lon="9.313375437632205">
<ele>241.2</ele>
<time>2024-05-12T12:06:13Z</time>
</trkpt>
<trkpt lat="48.84436793625355" lon="9.313326822593808">
<ele>241</ele>
<time>2024-05-12T12:06:14Z</time>
</trkpt>
<trkpt lat="48.84432217106223" lon="9.313276279717684">
<ele>240.8</ele>
<time>2024-05-12T12:06:15Z</time>
</trkpt>
<trkpt lat="48.844276405870914" lon="9.313226658850908">
<ele>240.6</ele>
<time>2024-05-12T12:06:16Z</time>
</trkpt>
<trkpt lat="48.8442306406796" lon="9.313177037984133">
<ele>240.4</ele>
<time>2024-05-12T12:06:17Z</time>
</trkpt>
<trkpt lat="48.84418487548828" lon="9.31312364526093">
<ele>240.4</ele>
<time>2024-05-12T12:06:18Z</time>
</trkpt>
<trkpt lat="48.844135254621506" lon="9.313068324699998">
<ele>240.2</ele>
<time>2024-05-12T12:06:19Z</time>
</trkpt>
<trkpt lat="48.84408563375473" lon="9.313018787652254">
<ele>240</ele>
<time>2024-05-12T12:06:20Z</time>
</trkpt>
<trkpt lat="48.8440284691751" lon="9.312973022460938">
<ele>240</ele>
<time>2024-05-12T12:06:21Z</time>
</trkpt>
<trkpt lat="48.843974992632866" lon="9.31292625144124">
<ele>240</ele>
<time>2024-05-12T12:06:22Z</time>
</trkpt>
<trkpt lat="48.84392545558512" lon="9.312878558412194">
<ele>240</ele>
<time>2024-05-12T12:06:23Z</time>
</trkpt>
<trkpt lat="48.84387206286192" lon="9.312834721058609">
<ele>240</ele>
<time>2024-05-12T12:06:24Z</time>
</trkpt>
<trkpt lat="48.843818586319685" lon="9.312798427417874">
<ele>240</ele>
<time>2024-05-12T12:06:25Z</time>
</trkpt>
<trkpt lat="48.84376519359648" lon="9.31276699528098">
<ele>240</ele>
<time>2024-05-12T12:06:26Z</time>
</trkpt>
<trkpt lat="48.84371180087328" lon="9.312740257009864">
<ele>240.2</ele>
<time>2024-05-12T12:06:27Z</time>
</trkpt>
<trkpt lat="48.84365840815008" lon="9.31270781904459">
<ele>240</ele>
<time>2024-05-12T12:06:28Z</time>
</trkpt>
<trkpt lat="48.843605015426874" lon="9.312675464898348">
<ele>240</ele>
<time>2024-05-12T12:06:29Z</time>
</trkpt>
<trkpt lat="48.84355925023556" lon="9.312643026933074">
<ele>239.8</ele>
<time>2024-05-12T12:06:30Z</time>
</trkpt>
<trkpt lat="48.843505857512355" lon="9.312615366652608">
<ele>239.6</ele>
<time>2024-05-12T12:06:31Z</time>
</trkpt>
<trkpt lat="48.84345623664558" lon="9.312591478228567">
<ele>239.6</ele>
<time>2024-05-12T12:06:32Z</time>
</trkpt>
<trkpt lat="48.84340284392238" lon="9.312564823776484">
<ele>239.4</ele>
<time>2024-05-12T12:06:33Z</time>
</trkpt>
<trkpt lat="48.843349451199174" lon="9.312540013343096">
<ele>239.2</ele>
<time>2024-05-12T12:06:34Z</time>
</trkpt>
<trkpt lat="48.84329597465694" lon="9.31251327507198">
<ele>239</ele>
<time>2024-05-12T12:06:35Z</time>
</trkpt>
<trkpt lat="48.84324258193374" lon="9.3124913983047">
<ele>239</ele>
<time>2024-05-12T12:06:36Z</time>
</trkpt>
<trkpt lat="48.843189189210534" lon="9.31247035972774">
<ele>239</ele>
<time>2024-05-12T12:06:37Z</time>
</trkpt>
<trkpt lat="48.84313579648733" lon="9.31245032697916">
<ele>239</ele>
<time>2024-05-12T12:06:38Z</time>
</trkpt>
<trkpt lat="48.84308240376413" lon="9.312430378049612">
<ele>239</ele>
<time>2024-05-12T12:06:39Z</time>
</trkpt>
<trkpt lat="48.843029011040926" lon="9.312408417463304">
<ele>239</ele>
<time>2024-05-12T12:06:40Z</time>
</trkpt>
<trkpt lat="48.84297553449869" lon="9.312388384714724">
<ele>239.2</ele>
<time>2024-05-12T12:06:41Z</time>
</trkpt>
<trkpt lat="48.84292599745095" lon="9.31237120181322">
<ele>239.2</ele>
<time>2024-05-12T12:06:42Z</time>
</trkpt>
<trkpt lat="48.84287637658417" lon="9.312364496290684">
<ele>239.2</ele>
<time>2024-05-12T12:06:43Z</time>
</trkpt>
<trkpt lat="48.84282298386097" lon="9.312357874587178">
<ele>239.2</ele>
<time>2024-05-12T12:06:44Z</time>
</trkpt>
<trkpt lat="48.84276573546231" lon="9.312350247055292">
<ele>239.4</ele>
<time>2024-05-12T12:06:45Z</time>
</trkpt>
<trkpt lat="48.84270857088268" lon="9.312341613695024">
<ele>239.4</ele>
<time>2024-05-12T12:06:46Z</time>
</trkpt>
<trkpt lat="48.842655178159475" lon="9.31233499199152">
<ele>239.4</ele>
<time>2024-05-12T12:06:47Z</time>
</trkpt>
<trkpt lat="48.84260170161724" lon="9.312328286468984">
<ele>239.4</ele>
<time>2024-05-12T12:06:48Z</time>
</trkpt>
<trkpt lat="48.84254830889404" lon="9.312321580946444">
<ele>239.4</ele>
<time>2024-05-12T12:06:49Z</time>
</trkpt>
<trkpt lat="48.842494916170835" lon="9.31231495924294">
<ele>239.6</ele>
<time>2024-05-12T12:06:50Z</time>
</trkpt>
<trkpt lat="48.84244152344763" lon="9.312306325882671">
<ele>239.6</ele>
<time>2024-05-12T12:06:51Z</time>
</trkpt>
<trkpt lat="48.84238813072443" lon="9.312303476035597">
<ele>239.6</ele>
<time>2024-05-12T12:06:52Z</time>
</trkpt>
<trkpt lat="48.84233088232577" lon="9.312299704179168">
<ele>239.6</ele>
<time>2024-05-12T12:06:53Z</time>
</trkpt>
<trkpt lat="48.842277489602566" lon="9.31229492649436">
<ele>239.6</ele>
<time>2024-05-12T12:06:54Z</time>
</trkpt>
<trkpt lat="48.84222409687936" lon="9.31229492649436">
<ele>239.6</ele>
<time>2024-05-12T12:06:55Z</time>
</trkpt>
<trkpt lat="48.84217070415616" lon="9.312285371124744">
<ele>239.6</ele>
<time>2024-05-12T12:06:56Z</time>
</trkpt>
<trkpt lat="48.8421134557575" lon="9.312279671430588">
<ele>239.6</ele>
<time>2024-05-12T12:06:57Z</time>
</trkpt>
<trkpt lat="48.84205620735884" lon="9.312278665602207">
<ele>239.6</ele>
<time>2024-05-12T12:06:58Z</time>
</trkpt>
<trkpt lat="48.84199904277921" lon="9.312279671430588">
<ele>239.6</ele>
<time>2024-05-12T12:06:59Z</time>
</trkpt>
<trkpt lat="48.841941794380546" lon="9.312285371124744">
<ele>239.6</ele>
<time>2024-05-12T12:07:00Z</time>
</trkpt>
<trkpt lat="48.84188840165734" lon="9.312292076647282">
<ele>239.4</ele>
<time>2024-05-12T12:07:01Z</time>
</trkpt>
<trkpt lat="48.84183500893414" lon="9.312299704179168">
<ele>239.4</ele>
<time>2024-05-12T12:07:02Z</time>
</trkpt>
<trkpt lat="48.84177776053548" lon="9.312308253720404">
<ele>239.4</ele>
<time>2024-05-12T12:07:03Z</time>
</trkpt>
<trkpt lat="48.84172436781227" lon="9.31231688708067">
<ele>239.2</ele>
<time>2024-05-12T12:07:04Z</time>
</trkpt>
<trkpt lat="48.84167097508907" lon="9.312326358631251">
<ele>239.2</ele>
<time>2024-05-12T12:07:05Z</time>
</trkpt>
<trkpt lat="48.84161758236587" lon="9.31233306415379">
<ele>239.2</ele>
<time>2024-05-12T12:07:06Z</time>
</trkpt>
<trkpt lat="48.841567961499095" lon="9.31233691982925">
<ele>239</ele>
<time>2024-05-12T12:07:07Z</time>
</trkpt>
<trkpt lat="48.84151456877589" lon="9.312343541532757">
<ele>239</ele>
<time>2024-05-12T12:07:08Z</time>
</trkpt>
<trkpt lat="48.84146117605269" lon="9.312350247055292">
<ele>239</ele>
<time>2024-05-12T12:07:09Z</time>
</trkpt>
<trkpt lat="48.841407699510455" lon="9.3123550247401">
<ele>239</ele>
<time>2024-05-12T12:07:10Z</time>
</trkpt>
<trkpt lat="48.841350534930825" lon="9.312361646443604">
<ele>238.8</ele>
<time>2024-05-12T12:07:11Z</time>
</trkpt>
<trkpt lat="48.84129714220762" lon="9.31237120181322">
<ele>238.8</ele>
<time>2024-05-12T12:07:12Z</time>
</trkpt>
<trkpt lat="48.84124366566539" lon="9.312381679192184">
<ele>238.6</ele>
<time>2024-05-12T12:07:13Z</time>
</trkpt>
<trkpt lat="48.841190272942185" lon="9.31239316239953">
<ele>238.6</ele>
<time>2024-05-12T12:07:14Z</time>
</trkpt>
<trkpt lat="48.84113688021898" lon="9.312406489625571">
<ele>238.4</ele>
<time>2024-05-12T12:07:15Z</time>
</trkpt>
<trkpt lat="48.84108348749578" lon="9.312421744689344">
<ele>238.4</ele>
<time>2024-05-12T12:07:16Z</time>
</trkpt>
<trkpt lat="48.84103009477258" lon="9.312435071915388">
<ele>238.4</ele>
<time>2024-05-12T12:07:17Z</time>
</trkpt>
<trkpt lat="48.840976702049375" lon="9.312448482960464">
<ele>238.2</ele>
<time>2024-05-12T12:07:18Z</time>
</trkpt>
<trkpt lat="48.8409270811826" lon="9.312459882348776">
<ele>238.2</ele>
<time>2024-05-12T12:07:19Z</time>
</trkpt>
<trkpt lat="48.840877460315824" lon="9.31247035972774">
<ele>238</ele>
<time>2024-05-12T12:07:20Z</time>
</trkpt>
<trkpt lat="48.84082406759262" lon="9.312481842935084">
<ele>237.8</ele>
<time>2024-05-12T12:07:21Z</time>
</trkpt>
<trkpt lat="48.840778302401304" lon="9.3124932423234">
<ele>237.8</ele>
<time>2024-05-12T12:07:22Z</time>
</trkpt>
<trkpt lat="48.84072868153453" lon="9.312503803521397">
<ele>237.8</ele>
<time>2024-05-12T12:07:23Z</time>
</trkpt>
<trkpt lat="48.840679144486785" lon="9.312509503215551">
<ele>237.8</ele>
<time>2024-05-12T12:07:24Z</time>
</trkpt>
<trkpt lat="48.84063337929547" lon="9.312524758279324">
<ele>237.8</ele>
<time>2024-05-12T12:07:25Z</time>
</trkpt>
<trkpt lat="48.84058375842869" lon="9.312541941180823">
<ele>237.8</ele>
<time>2024-05-12T12:07:26Z</time>
</trkpt>
<trkpt lat="48.840537993237376" lon="9.312560046091676">
<ele>238</ele>
<time>2024-05-12T12:07:27Z</time>
</trkpt>
<trkpt lat="48.84049222804606" lon="9.312578151002526">
<ele>238</ele>
<time>2024-05-12T12:07:28Z</time>
</trkpt>
<trkpt lat="48.84044646285474" lon="9.312596255913377">
<ele>238.2</ele>
<time>2024-05-12T12:07:29Z</time>
</trkpt>
<trkpt lat="48.840400613844395" lon="9.312616288661957">
<ele>238.2</ele>
<time>2024-05-12T12:07:30Z</time>
</trkpt>
<trkpt lat="48.84036247618496" lon="9.312636321410537">
<ele>238.4</ele>
<time>2024-05-12T12:07:31Z</time>
</trkpt>
<trkpt lat="48.84031671099365" lon="9.312660209834576">
<ele>238.4</ele>
<time>2024-05-12T12:07:32Z</time>
</trkpt>
<trkpt lat="48.84027480147779" lon="9.31268686428666">
<ele>238.4</ele>
<time>2024-05-12T12:07:33Z</time>
</trkpt>
<trkpt lat="48.84022895246744" lon="9.312714524567127">
<ele>238.4</ele>
<time>2024-05-12T12:07:34Z</time>
</trkpt>
<trkpt lat="48.840187042951584" lon="9.312743106856942">
<ele>238.2</ele>
<time>2024-05-12T12:07:35Z</time>
</trkpt>
<trkpt lat="48.840145049616694" lon="9.31276984512806">
<ele>238.2</ele>
<time>2024-05-12T12:07:36Z</time>
</trkpt>
<trkpt lat="48.84009928442538" lon="9.312794655561447">
<ele>238.2</ele>
<time>2024-05-12T12:07:37Z</time>
</trkpt>
<trkpt lat="48.84005729109049" lon="9.312820388004184">
<ele>238.2</ele>
<time>2024-05-12T12:07:38Z</time>
</trkpt>
<trkpt lat="48.84001152589917" lon="9.31284804828465">
<ele>238.2</ele>
<time>2024-05-12T12:07:39Z</time>
</trkpt>
<trkpt lat="48.839965760707855" lon="9.312876630574465">
<ele>238</ele>
<time>2024-05-12T12:07:40Z</time>
</trkpt>
<trkpt lat="48.83991999551654" lon="9.312905296683311">
<ele>238</ele>
<time>2024-05-12T12:07:41Z</time>
</trkpt>
<trkpt lat="48.83987037464976" lon="9.312932956963778">
<ele>238</ele>
<time>2024-05-12T12:07:42Z</time>
</trkpt>
<trkpt lat="48.839828465133905" lon="9.312952989712358">
<ele>238</ele>
<time>2024-05-12T12:07:43Z</time>
</trkpt>
<trkpt lat="48.8397750724107" lon="9.312978722155094">
<ele>238</ele>
<time>2024-05-12T12:07:44Z</time>
</trkpt>
<trkpt lat="48.83972545154393" lon="9.312990121543407">
<ele>238</ele>
<time>2024-05-12T12:07:45Z</time>
</trkpt>
<trkpt lat="48.83967583067715" lon="9.312999676913025">
<ele>238</ele>
<time>2024-05-12T12:07:46Z</time>
</trkpt>
<trkpt lat="48.839630065485835" lon="9.313016859814525">
<ele>238.2</ele>
<time>2024-05-12T12:07:47Z</time>
</trkpt>
<trkpt lat="48.83957667276263" lon="9.313039742410185">
<ele>238.2</ele>
<time>2024-05-12T12:07:48Z</time>
</trkpt>
<trkpt lat="48.83952328003943" lon="9.313056925311685">
<ele>238.4</ele>
<time>2024-05-12T12:07:49Z</time>
</trkpt>
<trkpt lat="48.839473659172654" lon="9.313075030222535">
<ele>238.4</ele>
<time>2024-05-12T12:07:50Z</time>
</trkpt>
<trkpt lat="48.83942412212491" lon="9.313095062971115">
<ele>238.6</ele>
<time>2024-05-12T12:07:51Z</time>
</trkpt>
<trkpt lat="48.839374501258135" lon="9.313115095719697">
<ele>238.6</ele>
<time>2024-05-12T12:07:52Z</time>
</trkpt>
<trkpt lat="48.83932488039136" lon="9.313137978315352">
<ele>238.6</ele>
<time>2024-05-12T12:07:53Z</time>
</trkpt>
<trkpt lat="48.839275343343616" lon="9.31316371075809">
<ele>238.8</ele>
<time>2024-05-12T12:07:54Z</time>
</trkpt>
<trkpt lat="48.83922195062041" lon="9.313196148723364">
<ele>238.8</ele>
<time>2024-05-12T12:07:55Z</time>
</trkpt>
<trkpt lat="48.83917232975364" lon="9.313233364373446">
<ele>238.8</ele>
<time>2024-05-12T12:07:56Z</time>
</trkpt>
<trkpt lat="48.83912656456232" lon="9.313249541446568">
<ele>238.8</ele>
<time>2024-05-12T12:07:57Z</time>
</trkpt>
<trkpt lat="48.83907317183912" lon="9.313269574195148">
<ele>238.8</ele>
<time>2024-05-12T12:07:58Z</time>
</trkpt>
<trkpt lat="48.83901969529688" lon="9.313293378800154">
<ele>238.8</ele>
<time>2024-05-12T12:07:59Z</time>
</trkpt>
<trkpt lat="48.83897393010557" lon="9.313322044909">
<ele>238.8</ele>
<time>2024-05-12T12:08:00Z</time>
</trkpt>
<trkpt lat="48.83892053738237" lon="9.313353477045894">
<ele>238.8</ele>
<time>2024-05-12T12:08:01Z</time>
</trkpt>
<trkpt lat="48.83887100033462" lon="9.313393542543054">
<ele>238.8</ele>
<time>2024-05-12T12:08:02Z</time>
</trkpt>
<trkpt lat="48.83882515132427" lon="9.313431680202484">
<ele>238.8</ele>
<time>2024-05-12T12:08:03Z</time>
</trkpt>
<trkpt lat="48.83877938613296" lon="9.313474595546722">
<ele>239</ele>
<time>2024-05-12T12:08:04Z</time>
</trkpt>
<trkpt lat="48.83872984908521" lon="9.313516588881612">
<ele>239</ele>
<time>2024-05-12T12:08:05Z</time>
</trkpt>
<trkpt lat="48.83868785575032" lon="9.313556654378772">
<ele>239</ele>
<time>2024-05-12T12:08:06Z</time>
</trkpt>
<trkpt lat="48.838642090559006" lon="9.313592864200473">
<ele>239</ele>
<time>2024-05-12T12:08:07Z</time>
</trkpt>
<trkpt lat="48.83860009722411" lon="9.313628152012823">
<ele>239.2</ele>
<time>2024-05-12T12:08:08Z</time>
</trkpt>
<trkpt lat="48.8385543320328" lon="9.313665367662908">
<ele>239.2</ele>
<time>2024-05-12T12:08:09Z</time>
</trkpt>
<trkpt lat="48.83851619437337" lon="9.313703505322335">
<ele>239.2</ele>
<time>2024-05-12T12:08:10Z</time>
</trkpt>
<trkpt lat="48.838466573506594" lon="9.313751198351383">
<ele>239</ele>
<time>2024-05-12T12:08:11Z</time>
</trkpt>
<trkpt lat="48.83842843584716" lon="9.31379310786724">
<ele>239</ele>
<time>2024-05-12T12:08:12Z</time>
</trkpt>
<trkpt lat="48.83838267065585" lon="9.313830323517324">
<ele>239</ele>
<time>2024-05-12T12:08:13Z</time>
</trkpt>
<trkpt lat="48.83833304978907" lon="9.313861839473248">
<ele>238.8</ele>
<time>2024-05-12T12:08:14Z</time>
</trkpt>
<trkpt lat="48.83829491212964" lon="9.313891343772411">
<ele>238.8</ele>
<time>2024-05-12T12:08:15Z</time>
</trkpt>
<trkpt lat="48.83825300261378" lon="9.313924787566066">
<ele>238.6</ele>
<time>2024-05-12T12:08:16Z</time>
</trkpt>
<trkpt lat="48.83821100927889" lon="9.31395621970296">
<ele>238.6</ele>
<time>2024-05-12T12:08:17Z</time>
</trkpt>
<trkpt lat="48.83816524408758" lon="9.313986729830503">
<ele>238.6</ele>
<time>2024-05-12T12:08:18Z</time>
</trkpt>
<trkpt lat="48.83812325075269" lon="9.314018245786428">
<ele>238.6</ele>
<time>2024-05-12T12:08:19Z</time>
</trkpt>
<trkpt lat="48.83808134123683" lon="9.31405353359878">
<ele>238.6</ele>
<time>2024-05-12T12:08:20Z</time>
</trkpt>
<trkpt lat="48.83803934790194" lon="9.314084965735674">
<ele>238.6</ele>
<time>2024-05-12T12:08:21Z</time>
</trkpt>
<trkpt lat="48.837993582710624" lon="9.314116397872567">
<ele>238.8</ele>
<time>2024-05-12T12:08:22Z</time>
</trkpt>
<trkpt lat="48.837951589375734" lon="9.31415168568492">
<ele>239</ele>
<time>2024-05-12T12:08:23Z</time>
</trkpt>
<trkpt lat="48.837913451716304" lon="9.314186973497272">
<ele>239</ele>
<time>2024-05-12T12:08:24Z</time>
</trkpt>
<trkpt lat="48.83787531405687" lon="9.314218489453197">
<ele>239</ele>
<time>2024-05-12T12:08:25Z</time>
</trkpt>
<trkpt lat="48.8378410320729" lon="9.314252771437168">
<ele>239.2</ele>
<time>2024-05-12T12:08:26Z</time>
</trkpt>
<trkpt lat="48.8378066662699" lon="9.31428998708725">
<ele>239.2</ele>
<time>2024-05-12T12:08:27Z</time>
</trkpt>
<trkpt lat="48.837776156142354" lon="9.314321503043177">
<ele>239.2</ele>
<time>2024-05-12T12:08:28Z</time>
</trkpt>
<trkpt lat="48.83774179033935" lon="9.314352935180068">
<ele>239.2</ele>
<time>2024-05-12T12:08:29Z</time>
</trkpt>
<trkpt lat="48.83770750835538" lon="9.31438629515469">
<ele>239.2</ele>
<time>2024-05-12T12:08:30Z</time>
</trkpt>
<trkpt lat="48.83766937069595" lon="9.314419738948343">
<ele>239.2</ele>
<time>2024-05-12T12:08:31Z</time>
</trkpt>
<trkpt lat="48.837631149217486" lon="9.314453098922968">
<ele>239.2</ele>
<time>2024-05-12T12:08:32Z</time>
</trkpt>
<trkpt lat="48.837593011558056" lon="9.31448453105986">
<ele>239.2</ele>
<time>2024-05-12T12:08:33Z</time>
</trkpt>
<trkpt lat="48.83756250143051" lon="9.314515041187406">
<ele>239</ele>
<time>2024-05-12T12:08:34Z</time>
</trkpt>
<trkpt lat="48.83752821944654" lon="9.3145446293056">
<ele>239</ele>
<time>2024-05-12T12:08:35Z</time>
</trkpt>
<trkpt lat="48.83750148117542" lon="9.314570361748338">
<ele>239</ele>
<time>2024-05-12T12:08:36Z</time>
</trkpt>
<trkpt lat="48.837474742904305" lon="9.314588466659188">
<ele>239</ele>
<time>2024-05-12T12:08:37Z</time>
</trkpt>
<trkpt lat="48.837455715984106" lon="9.314598022028804">
<ele>239.2</ele>
<time>2024-05-12T12:08:38Z</time>
</trkpt>
<trkpt lat="48.837436605244875" lon="9.314611433073878">
<ele>239.2</ele>
<time>2024-05-12T12:08:39Z</time>
</trkpt>
<trkpt lat="48.83742897771299" lon="9.314618054777384">
<ele>239.2</ele>
<time>2024-05-12T12:08:40Z</time>
</trkpt>
<trkpt lat="48.83741757832467" lon="9.31462476029992">
<ele>239.2</ele>
<time>2024-05-12T12:08:41Z</time>
</trkpt>
<trkpt lat="48.83740995079279" lon="9.314628532156348">
<ele>239.2</ele>
<time>2024-05-12T12:08:42Z</time>
</trkpt>
<trkpt lat="48.83740609511733" lon="9.31462668813765">
<ele>239.2</ele>
<time>2024-05-12T12:08:43Z</time>
</trkpt>
<trkpt lat="48.8374023232609" lon="9.314621910452844">
<ele>239</ele>
<time>2024-05-12T12:08:44Z</time>
</trkpt>
<trkpt lat="48.83739846758544" lon="9.314608499407768">
<ele>239</ele>
<time>2024-05-12T12:08:45Z</time>
</trkpt>
<trkpt lat="48.83739846758544" lon="9.314603805541992">
<ele>238.8</ele>
<time>2024-05-12T12:08:46Z</time>
</trkpt>
<trkpt lat="48.83739846758544" lon="9.314593244343996">
<ele>238.8</ele>
<time>2024-05-12T12:08:47Z</time>
</trkpt>
<trkpt lat="48.8374023232609" lon="9.31458469480276">
<ele>238.6</ele>
<time>2024-05-12T12:08:48Z</time>
</trkpt>
<trkpt lat="48.83740995079279" lon="9.314577067270877">
<ele>238.6</ele>
<time>2024-05-12T12:08:49Z</time>
</trkpt>
<trkpt lat="48.83742520585656" lon="9.314563740044832">
<ele>238.6</ele>
<time>2024-05-12T12:08:50Z</time>
</trkpt>
<trkpt lat="48.83743283338845" lon="9.314551334828138">
<ele>238.4</ele>
<time>2024-05-12T12:08:51Z</time>
</trkpt>
<trkpt lat="48.837440460920334" lon="9.314533229917288">
<ele>238.4</ele>
<time>2024-05-12T12:08:52Z</time>
</trkpt>
<trkpt lat="48.837440460920334" lon="9.314515041187406">
<ele>238.4</ele>
<time>2024-05-12T12:08:53Z</time>
</trkpt>
<trkpt lat="48.837436605244875" lon="9.314497942104936">
<ele>238.4</ele>
<time>2024-05-12T12:08:54Z</time>
</trkpt>
<trkpt lat="48.83742520585656" lon="9.31446835398674">
<ele>238.4</ele>
<time>2024-05-12T12:08:55Z</time>
</trkpt>
<trkpt lat="48.83740609511733" lon="9.314434994012116">
<ele>238.4</ele>
<time>2024-05-12T12:08:56Z</time>
</trkpt>
<trkpt lat="48.83738321252167" lon="9.314394928514956">
<ele>238.2</ele>
<time>2024-05-12T12:08:57Z</time>
</trkpt>
<trkpt lat="48.83735655806959" lon="9.314345307648182">
<ele>238.2</ele>
<time>2024-05-12T12:08:58Z</time>
</trkpt>
<trkpt lat="48.83731070905924" lon="9.314321503043177">
<ele>238.2</ele>
<time>2024-05-12T12:08:59Z</time>
</trkpt>
<trkpt lat="48.837261172011495" lon="9.314312869682908">
<ele>238</ele>
<time>2024-05-12T12:09:00Z</time>
</trkpt>
<trkpt lat="48.83720777928829" lon="9.314303398132324">
<ele>237.8</ele>
<time>2024-05-12T12:09:01Z</time>
</trkpt>
<trkpt lat="48.83717726916075" lon="9.314283365383744">
<ele>237.4</ele>
<time>2024-05-12T12:09:02Z</time>
</trkpt>
<trkpt lat="48.8371314201504" lon="9.31428998708725">
<ele>237.2</ele>
<time>2024-05-12T12:09:03Z</time>
</trkpt>
<trkpt lat="48.837081883102655" lon="9.31428998708725">
<ele>237</ele>
<time>2024-05-12T12:09:04Z</time>
</trkpt>
<trkpt lat="48.837024634703994" lon="9.314272804185748">
<ele>236.8</ele>
<time>2024-05-12T12:09:05Z</time>
</trkpt>
<trkpt lat="48.836982725188136" lon="9.314299542456864">
<ele>236.6</ele>
<time>2024-05-12T12:09:06Z</time>
</trkpt>
<trkpt lat="48.836944503709674" lon="9.314332902431488">
<ele>236.4</ele>
<time>2024-05-12T12:09:07Z</time>
</trkpt>
<trkpt lat="48.836902594193816" lon="9.314374895766376">
<ele>236.4</ele>
<time>2024-05-12T12:09:08Z</time>
</trkpt>
<trkpt lat="48.836864456534386" lon="9.314421582967045">
<ele>236.4</ele>
<time>2024-05-12T12:09:09Z</time>
</trkpt>
<trkpt lat="48.836826318874955" lon="9.314473131671548">
<ele>236.6</ele>
<time>2024-05-12T12:09:10Z</time>
</trkpt>
<trkpt lat="48.83677669800818" lon="9.314535073935986">
<ele>236.8</ele>
<time>2024-05-12T12:09:11Z</time>
</trkpt>
<trkpt lat="48.83676144294441" lon="9.31462668813765">
<ele>237</ele>
<time>2024-05-12T12:09:12Z</time>
</trkpt>
<trkpt lat="48.83673093281686" lon="9.314691480249166">
<ele>237.2</ele>
<time>2024-05-12T12:09:13Z</time>
</trkpt>
<trkpt lat="48.83670042268932" lon="9.31474202312529">
<ele>237.4</ele>
<time>2024-05-12T12:09:14Z</time>
</trkpt>
<trkpt lat="48.836666056886315" lon="9.31478016078472">
<ele>237.6</ele>
<time>2024-05-12T12:09:15Z</time>
</trkpt>
<trkpt lat="48.83661643601954" lon="9.314816454425454">
<ele>237.8</ele>
<time>2024-05-12T12:09:16Z</time>
</trkpt>
<trkpt lat="48.83657452650368" lon="9.314858363941312">
<ele>237.8</ele>
<time>2024-05-12T12:09:17Z</time>
</trkpt>
<trkpt lat="48.836528761312366" lon="9.314896501600742">
<ele>238</ele>
<time>2024-05-12T12:09:18Z</time>
</trkpt>
<trkpt lat="48.83648676797747" lon="9.314936567097902">
<ele>238.2</ele>
<time>2024-05-12T12:09:19Z</time>
</trkpt>
<trkpt lat="48.83644477464259" lon="9.314978560432792">
<ele>238.4</ele>
<time>2024-05-12T12:09:20Z</time>
</trkpt>
<trkpt lat="48.83640663698315" lon="9.315025247633455">
<ele>238.6</ele>
<time>2024-05-12T12:09:21Z</time>
</trkpt>
<trkpt lat="48.83636087179184" lon="9.315065313130615">
<ele>238.6</ele>
<time>2024-05-12T12:09:22Z</time>
</trkpt>
<trkpt lat="48.83632273413241" lon="9.315105378627775">
<ele>238.6</ele>
<time>2024-05-12T12:09:23Z</time>
</trkpt>
<trkpt lat="48.83628459647298" lon="9.315144522115588">
<ele>238.6</ele>
<time>2024-05-12T12:09:24Z</time>
</trkpt>
<trkpt lat="48.83624645881355" lon="9.315181653946638">
<ele>238.6</ele>
<time>2024-05-12T12:09:25Z</time>
</trkpt>
<trkpt lat="48.83620832115412" lon="9.3152198754251">
<ele>238.6</ele>
<time>2024-05-12T12:09:26Z</time>
</trkpt>
<trkpt lat="48.83617018349469" lon="9.31525700725615">
<ele>238.6</ele>
<time>2024-05-12T12:09:27Z</time>
</trkpt>
<trkpt lat="48.83613204583526" lon="9.315293300896885">
<ele>238.6</ele>
<time>2024-05-12T12:09:28Z</time>
</trkpt>
<trkpt lat="48.83609768003225" lon="9.315329510718584">
<ele>238.8</ele>
<time>2024-05-12T12:09:29Z</time>
</trkpt>
<trkpt lat="48.83606331422925" lon="9.315364798530936">
<ele>238.8</ele>
<time>2024-05-12T12:09:30Z</time>
</trkpt>
<trkpt lat="48.83602517656982" lon="9.31539815850556">
<ele>238.8</ele>
<time>2024-05-12T12:09:31Z</time>
</trkpt>
<trkpt lat="48.83598703891039" lon="9.31543537415564">
<ele>238.8</ele>
<time>2024-05-12T12:09:32Z</time>
</trkpt>
<trkpt lat="48.83594890125096" lon="9.315469739958644">
<ele>238.8</ele>
<time>2024-05-12T12:09:33Z</time>
</trkpt>
<trkpt lat="48.835914535447955" lon="9.315509721636772">
<ele>239</ele>
<time>2024-05-12T12:09:34Z</time>
</trkpt>
<trkpt lat="48.83588025346398" lon="9.315543165430428">
<ele>239</ele>
<time>2024-05-12T12:09:35Z</time>
</trkpt>
<trkpt lat="48.83584211580455" lon="9.31557845324278">
<ele>239</ele>
<time>2024-05-12T12:09:36Z</time>
</trkpt>
<trkpt lat="48.83580397814512" lon="9.31561466306448">
<ele>239</ele>
<time>2024-05-12T12:09:37Z</time>
</trkpt>
<trkpt lat="48.83576961234212" lon="9.31565187871456">
<ele>239</ele>
<time>2024-05-12T12:09:38Z</time>
</trkpt>
<trkpt lat="48.835739102214575" lon="9.31569286622107">
<ele>239</ele>
<time>2024-05-12T12:09:39Z</time>
</trkpt>
<trkpt lat="48.83570859208703" lon="9.315728154033422">
<ele>239</ele>
<time>2024-05-12T12:09:40Z</time>
</trkpt>
<trkpt lat="48.83568185381591" lon="9.315768219530582">
<ele>239</ele>
<time>2024-05-12T12:09:41Z</time>
</trkpt>
<trkpt lat="48.83565134368837" lon="9.31581012904644">
<ele>239</ele>
<time>2024-05-12T12:09:42Z</time>
</trkpt>
<trkpt lat="48.83562846109271" lon="9.3158501945436">
<ele>239</ele>
<time>2024-05-12T12:09:43Z</time>
</trkpt>
<trkpt lat="48.83560557849705" lon="9.315899815410376">
<ele>239</ele>
<time>2024-05-12T12:09:44Z</time>
</trkpt>
<trkpt lat="48.835582695901394" lon="9.315963685512545">
<ele>239</ele>
<time>2024-05-12T12:09:45Z</time>
</trkpt>
<trkpt lat="48.835559813305736" lon="9.31602948345244">
<ele>239</ele>
<time>2024-05-12T12:09:46Z</time>
</trkpt>
<trkpt lat="48.83553693071008" lon="9.316100059077144">
<ele>239.2</ele>
<time>2024-05-12T12:09:47Z</time>
</trkpt>
<trkpt lat="48.835517819970846" lon="9.31616870686412">
<ele>239.2</ele>
<time>2024-05-12T12:09:48Z</time>
</trkpt>
<trkpt lat="48.835502564907074" lon="9.316234588623049">
<ele>239.2</ele>
<time>2024-05-12T12:09:49Z</time>
</trkpt>
<trkpt lat="48.8354873098433" lon="9.316296530887485">
<ele>239.2</ele>
<time>2024-05-12T12:09:50Z</time>
</trkpt>
<trkpt lat="48.83547591045499" lon="9.316361406818032">
<ele>239.2</ele>
<time>2024-05-12T12:09:51Z</time>
</trkpt>
<trkpt lat="48.83546442724764" lon="9.3164252769202">
<ele>239.2</ele>
<time>2024-05-12T12:09:52Z</time>
</trkpt>
<trkpt lat="48.83545679971576" lon="9.316488225013018">
<ele>239.2</ele>
<time>2024-05-12T12:09:53Z</time>
</trkpt>
<trkpt lat="48.83544917218387" lon="9.316556872799993">
<ele>239.2</ele>
<time>2024-05-12T12:09:54Z</time>
</trkpt>
<trkpt lat="48.835441544651985" lon="9.31662459857762">
<ele>239.2</ele>
<time>2024-05-12T12:09:55Z</time>
</trkpt>
<trkpt lat="48.8354339171201" lon="9.316691318526864">
<ele>239.2</ele>
<time>2024-05-12T12:09:56Z</time>
</trkpt>
<trkpt lat="48.83543014526367" lon="9.31675812229514">
<ele>239.4</ele>
<time>2024-05-12T12:09:57Z</time>
</trkpt>
<trkpt lat="48.83543014526367" lon="9.316821992397308">
<ele>239.4</ele>
<time>2024-05-12T12:09:58Z</time>
</trkpt>
<trkpt lat="48.835422433912754" lon="9.316883012652395">
<ele>239.4</ele>
<time>2024-05-12T12:09:59Z</time>
</trkpt>
<trkpt lat="48.83541866205633" lon="9.316943110898135">
<ele>239.4</ele>
<time>2024-05-12T12:10:00Z</time>
</trkpt>
<trkpt lat="48.83541866205633" lon="9.317003209143875">
<ele>239.4</ele>
<time>2024-05-12T12:10:01Z</time>
</trkpt>
<trkpt lat="48.83541480638087" lon="9.317065235227346">
<ele>239.4</ele>
<time>2024-05-12T12:10:02Z</time>
</trkpt>
<trkpt lat="48.83540717884898" lon="9.317123405635355">
<ele>239.4</ele>
<time>2024-05-12T12:10:03Z</time>
</trkpt>
<trkpt lat="48.835399551317096" lon="9.317178726196287">
<ele>239.4</ele>
<time>2024-05-12T12:10:04Z</time>
</trkpt>
<trkpt lat="48.83538815192878" lon="9.317230191081762">
<ele>239.4</ele>
<time>2024-05-12T12:10:05Z</time>
</trkpt>
<trkpt lat="48.835380524396896" lon="9.317276878282428">
<ele>239.4</ele>
<time>2024-05-12T12:10:06Z</time>
</trkpt>
<trkpt lat="48.83536526933312" lon="9.317323649302123">
<ele>239.4</ele>
<time>2024-05-12T12:10:07Z</time>
</trkpt>
<trkpt lat="48.83535001426935" lon="9.317364636808634">
<ele>239.4</ele>
<time>2024-05-12T12:10:08Z</time>
</trkpt>
<trkpt lat="48.83533090353012" lon="9.317404702305794">
<ele>239.4</ele>
<time>2024-05-12T12:10:09Z</time>
</trkpt>
<trkpt lat="48.83531564846635" lon="9.317442839965224">
<ele>239.4</ele>
<time>2024-05-12T12:10:10Z</time>
</trkpt>
<trkpt lat="48.83529662154615" lon="9.317482905462384">
<ele>239.4</ele>
<time>2024-05-12T12:10:11Z</time>
</trkpt>
<trkpt lat="48.83528136648238" lon="9.317522970959544">
<ele>239.4</ele>
<time>2024-05-12T12:10:12Z</time>
</trkpt>
<trkpt lat="48.835262255743146" lon="9.317566808313131">
<ele>239.4</ele>
<time>2024-05-12T12:10:13Z</time>
</trkpt>
<trkpt lat="48.835243145003915" lon="9.317614501342176">
<ele>239.4</ele>
<time>2024-05-12T12:10:14Z</time>
</trkpt>
<trkpt lat="48.835224118083715" lon="9.317663116380572">
<ele>239.4</ele>
<time>2024-05-12T12:10:15Z</time>
</trkpt>
<trkpt lat="48.83520123548806" lon="9.317711815238">
<ele>239.2</ele>
<time>2024-05-12T12:10:16Z</time>
</trkpt>
<trkpt lat="48.835185980424285" lon="9.317753724753857">
<ele>239.2</ele>
<time>2024-05-12T12:10:17Z</time>
</trkpt>
<trkpt lat="48.835166869685054" lon="9.317794796079395">
<ele>239</ele>
<time>2024-05-12T12:10:18Z</time>
</trkpt>
<trkpt lat="48.835143987089396" lon="9.317834777757524">
<ele>238.8</ele>
<time>2024-05-12T12:10:19Z</time>
</trkpt>
<trkpt lat="48.83512110449374" lon="9.317876771092417">
<ele>238.8</ele>
<time>2024-05-12T12:10:20Z</time>
</trkpt>
<trkpt lat="48.83509822189808" lon="9.317923542112112">
<ele>238.8</ele>
<time>2024-05-12T12:10:21Z</time>
</trkpt>
<trkpt lat="48.83507148362696" lon="9.317975006997584">
<ele>238.6</ele>
<time>2024-05-12T12:10:22Z</time>
</trkpt>
<trkpt lat="48.83504482917488" lon="9.31802647188306">
<ele>238.6</ele>
<time>2024-05-12T12:10:23Z</time>
</trkpt>
<trkpt lat="48.83501809090376" lon="9.318078020587564">
<ele>238.6</ele>
<time>2024-05-12T12:10:24Z</time>
</trkpt>
<trkpt lat="48.834987580776215" lon="9.318131413310766">
<ele>238.4</ele>
<time>2024-05-12T12:10:25Z</time>
</trkpt>
<trkpt lat="48.83495707064867" lon="9.318186733871698">
<ele>238.4</ele>
<time>2024-05-12T12:10:26Z</time>
</trkpt>
<trkpt lat="48.834926560521126" lon="9.318236270919442">
<ele>238.4</ele>
<time>2024-05-12T12:10:27Z</time>
</trkpt>
<trkpt lat="48.83489982225001" lon="9.318288741633296">
<ele>238.4</ele>
<time>2024-05-12T12:10:28Z</time>
</trkpt>
<trkpt lat="48.83487316779792" lon="9.3183402903378">
<ele>238.4</ele>
<time>2024-05-12T12:10:29Z</time>
</trkpt>
<trkpt lat="48.83483880199492" lon="9.318391755223274">
<ele>238.4</ele>
<time>2024-05-12T12:10:30Z</time>
</trkpt>
<trkpt lat="48.834808291867375" lon="9.318445147946475">
<ele>238.4</ele>
<time>2024-05-12T12:10:31Z</time>
</trkpt>
<trkpt lat="48.83477400988341" lon="9.31849854066968">
<ele>238.4</ele>
<time>2024-05-12T12:10:32Z</time>
</trkpt>
<trkpt lat="48.83474349975586" lon="9.318554867058992">
<ele>238.4</ele>
<time>2024-05-12T12:10:33Z</time>
</trkpt>
<trkpt lat="48.8347052782774" lon="9.31861680932343">
<ele>238.4</ele>
<time>2024-05-12T12:10:34Z</time>
</trkpt>
<trkpt lat="48.83467476814985" lon="9.318673051893713">
<ele>238.4</ele>
<time>2024-05-12T12:10:35Z</time>
</trkpt>
<trkpt lat="48.83463663049042" lon="9.318726528435946">
<ele>238.4</ele>
<time>2024-05-12T12:10:36Z</time>
</trkpt>
<trkpt lat="48.83460234850645" lon="9.318779921159148">
<ele>238.4</ele>
<time>2024-05-12T12:10:37Z</time>
</trkpt>
<trkpt lat="48.834571838378906" lon="9.31883138604462">
<ele>238.4</ele>
<time>2024-05-12T12:10:38Z</time>
</trkpt>
<trkpt lat="48.8345374725759" lon="9.318882934749126">
<ele>238.4</ele>
<time>2024-05-12T12:10:39Z</time>
</trkpt>
<trkpt lat="48.8345031067729" lon="9.31893825531006">
<ele>238.6</ele>
<time>2024-05-12T12:10:40Z</time>
</trkpt>
<trkpt lat="48.834472596645355" lon="9.31899349205196">
<ele>238.8</ele>
<time>2024-05-12T12:10:41Z</time>
</trkpt>
<trkpt lat="48.834438314661384" lon="9.319045040756464">
<ele>238.8</ele>
<time>2024-05-12T12:10:42Z</time>
</trkpt>
<trkpt lat="48.83440780453384" lon="9.319096505641935">
<ele>239</ele>
<time>2024-05-12T12:10:43Z</time>
</trkpt>
<trkpt lat="48.83437721058726" lon="9.319147048518062">
<ele>239</ele>
<time>2024-05-12T12:10:44Z</time>
</trkpt>
<trkpt lat="48.83434292860329" lon="9.319196669384835">
<ele>239</ele>
<time>2024-05-12T12:10:45Z</time>
</trkpt>
<trkpt lat="48.83430856280029" lon="9.319246290251613">
<ele>239</ele>
<time>2024-05-12T12:10:46Z</time>
</trkpt>
<trkpt lat="48.834278052672744" lon="9.319292977452278">
<ele>239</ele>
<time>2024-05-12T12:10:47Z</time>
</trkpt>
<trkpt lat="48.83425139822066" lon="9.319339748471975">
<ele>239</ele>
<time>2024-05-12T12:10:48Z</time>
</trkpt>
<trkpt lat="48.83422080427408" lon="9.31938643567264">
<ele>239.2</ele>
<time>2024-05-12T12:10:49Z</time>
</trkpt>
<trkpt lat="48.83419029414654" lon="9.319436978548763">
<ele>239</ele>
<time>2024-05-12T12:10:50Z</time>
</trkpt>
<trkpt lat="48.83415978401899" lon="9.319484671577811">
<ele>239</ele>
<time>2024-05-12T12:10:51Z</time>
</trkpt>
<trkpt lat="48.83412927389145" lon="9.319536136463284">
<ele>239</ele>
<time>2024-05-12T12:10:52Z</time>
</trkpt>
<trkpt lat="48.83409499190748" lon="9.319588607177138">
<ele>239</ele>
<time>2024-05-12T12:10:53Z</time>
</trkpt>
<trkpt lat="48.83406448177993" lon="9.319638228043914">
<ele>239</ele>
<time>2024-05-12T12:10:54Z</time>
</trkpt>
<trkpt lat="48.83403011597693" lon="9.319688770920038">
<ele>238.8</ele>
<time>2024-05-12T12:10:55Z</time>
</trkpt>
<trkpt lat="48.833995750173926" lon="9.319736463949084">
<ele>238.8</ele>
<time>2024-05-12T12:10:56Z</time>
</trkpt>
<trkpt lat="48.833961468189955" lon="9.31978507898748">
<ele>238.8</ele>
<time>2024-05-12T12:10:57Z</time>
</trkpt>
<trkpt lat="48.83392710238695" lon="9.319833694025874">
<ele>238.8</ele>
<time>2024-05-12T12:10:58Z</time>
</trkpt>
<trkpt lat="48.83389659225941" lon="9.31988138705492">
<ele>238.8</ele>
<time>2024-05-12T12:10:59Z</time>
</trkpt>
<trkpt lat="48.83386608213186" lon="9.319926230236888">
<ele>239</ele>
<time>2024-05-12T12:11:00Z</time>
</trkpt>
<trkpt lat="48.83383557200432" lon="9.319968223571776">
<ele>239</ele>
<time>2024-05-12T12:11:01Z</time>
</trkpt>
<trkpt lat="48.8338088337332" lon="9.320010133087637">
<ele>239</ele>
<time>2024-05-12T12:11:02Z</time>
</trkpt>
<trkpt lat="48.83378595113754" lon="9.320046342909336">
<ele>239</ele>
<time>2024-05-12T12:11:03Z</time>
</trkpt>
<trkpt lat="48.83376306854189" lon="9.320081630721688">
<ele>239</ele>
<time>2024-05-12T12:11:04Z</time>
</trkpt>
<trkpt lat="48.833744041621685" lon="9.320113146677611">
<ele>239</ele>
<time>2024-05-12T12:11:05Z</time>
</trkpt>
<trkpt lat="48.83372115902603" lon="9.32013695128262">
<ele>239</ele>
<time>2024-05-12T12:11:06Z</time>
</trkpt>
<trkpt lat="48.83369442075491" lon="9.320166539400816">
<ele>239</ele>
<time>2024-05-12T12:11:07Z</time>
</trkpt>
<trkpt lat="48.83367531001568" lon="9.320188499987124">
<ele>239</ele>
<time>2024-05-12T12:11:08Z</time>
</trkpt>
<trkpt lat="48.833660054951906" lon="9.320206604897976">
<ele>239</ele>
<time>2024-05-12T12:11:09Z</time>
</trkpt>
<trkpt lat="48.833644799888134" lon="9.320206604897976">
<ele>239.2</ele>
<time>2024-05-12T12:11:10Z</time>
</trkpt>
<trkpt lat="48.83363340049982" lon="9.320204677060246">
<ele>239.2</ele>
<time>2024-05-12T12:11:11Z</time>
</trkpt>
<trkpt lat="48.83362191729248" lon="9.320211382582784">
<ele>239.2</ele>
<time>2024-05-12T12:11:12Z</time>
</trkpt>
<trkpt lat="48.83361428976059" lon="9.320221859961748">
<ele>239.4</ele>
<time>2024-05-12T12:11:13Z</time>
</trkpt>
<trkpt lat="48.83361051790416" lon="9.320231415331364">
<ele>239.4</ele>
<time>2024-05-12T12:11:14Z</time>
</trkpt>
<trkpt lat="48.8336066622287" lon="9.32023518718779">
<ele>239.6</ele>
<time>2024-05-12T12:11:15Z</time>
</trkpt>
<trkpt lat="48.83360289037227" lon="9.32023518718779">
<ele>239.6</ele>
<time>2024-05-12T12:11:17Z</time>
</trkpt>
<trkpt lat="48.83360289037227" lon="9.320236193016171">
<ele>239.6</ele>
<time>2024-05-12T12:11:18Z</time>
</trkpt>
<trkpt lat="48.83360289037227" lon="9.32023518718779">
<ele>239.6</ele>
<time>2024-05-12T12:11:19Z</time>
</trkpt>
<trkpt lat="48.83359903469682" lon="9.320236193016171">
<ele>239.6</ele>
<time>2024-05-12T12:11:20Z</time>
</trkpt>
<trkpt lat="48.83359140716493" lon="9.320236193016171">
<ele>239.6</ele>
<time>2024-05-12T12:11:21Z</time>
</trkpt>
<trkpt lat="48.833587635308504" lon="9.32023518718779">
<ele>239.6</ele>
<time>2024-05-12T12:11:22Z</time>
</trkpt>
<trkpt lat="48.833583779633045" lon="9.32023518718779">
<ele>239.4</ele>
<time>2024-05-12T12:11:27Z</time>
</trkpt>
<trkpt lat="48.833583779633045" lon="9.320236193016171">
<ele>239.4</ele>
<time>2024-05-12T12:11:36Z</time>
</trkpt>
<trkpt lat="48.833583779633045" lon="9.32023803703487">
<ele>239.2</ele>
<time>2024-05-12T12:11:42Z</time>
</trkpt>
<trkpt lat="48.83358000777662" lon="9.32023803703487">
<ele>239</ele>
<time>2024-05-12T12:11:44Z</time>
</trkpt>
<trkpt lat="48.83358000777662" lon="9.320236193016171">
<ele>238.8</ele>
<time>2024-05-12T12:11:45Z</time>
</trkpt>
<trkpt lat="48.833583779633045" lon="9.320236193016171">
<ele>238.4</ele>
<time>2024-05-12T12:11:47Z</time>
</trkpt>
<trkpt lat="48.83358000777662" lon="9.320236193016171">
<ele>238.2</ele>
<time>2024-05-12T12:11:48Z</time>
</trkpt>
<trkpt lat="48.83358000777662" lon="9.32023803703487">
<ele>238</ele>
<time>2024-05-12T12:11:54Z</time>
</trkpt>
<trkpt lat="48.83358000777662" lon="9.320236193016171">
<ele>238</ele>
<time>2024-05-12T12:11:55Z</time>
</trkpt>
<trkpt lat="48.83357238024473" lon="9.320241892710328">
<ele>237.8</ele>
<time>2024-05-12T12:11:56Z</time>
</trkpt>
<trkpt lat="48.83356089703739" lon="9.320244742557406">
<ele>237.8</ele>
<time>2024-05-12T12:11:57Z</time>
</trkpt>
<trkpt lat="48.833549497649074" lon="9.32025329209864">
<ele>237.6</ele>
<time>2024-05-12T12:11:58Z</time>
</trkpt>
<trkpt lat="48.83353415876627" lon="9.320266703143716">
<ele>237.6</ele>
<time>2024-05-12T12:11:59Z</time>
</trkpt>
<trkpt lat="48.8335189037025" lon="9.320288579910994">
<ele>237.6</ele>
<time>2024-05-12T12:12:00Z</time>
</trkpt>
<trkpt lat="48.8334998767823" lon="9.32030006311834">
<ele>237.6</ele>
<time>2024-05-12T12:12:01Z</time>
</trkpt>
<trkpt lat="48.83347699418664" lon="9.320318168029187">
<ele>237.4</ele>
<time>2024-05-12T12:12:02Z</time>
</trkpt>
<trkpt lat="48.83345025591552" lon="9.3203401286155">
<ele>237.4</ele>
<time>2024-05-12T12:12:03Z</time>
</trkpt>
<trkpt lat="48.83342360146344" lon="9.320362089201808">
<ele>237.4</ele>
<time>2024-05-12T12:12:04Z</time>
</trkpt>
<trkpt lat="48.83339686319232" lon="9.320378266274927">
<ele>237.6</ele>
<time>2024-05-12T12:12:05Z</time>
</trkpt>
<trkpt lat="48.833370208740234" lon="9.3203935213387">
<ele>237.6</ele>
<time>2024-05-12T12:12:06Z</time>
</trkpt>
<trkpt lat="48.83333961479366" lon="9.320403076708317">
<ele>237.6</ele>
<time>2024-05-12T12:12:07Z</time>
</trkpt>
<trkpt lat="48.83330533280969" lon="9.320411626249552">
<ele>237.6</ele>
<time>2024-05-12T12:12:08Z</time>
</trkpt>
<trkpt lat="48.83327482268214" lon="9.320421181619167">
<ele>237.6</ele>
<time>2024-05-12T12:12:09Z</time>
</trkpt>
<trkpt lat="48.833248084411025" lon="9.32043450884521">
<ele>237.6</ele>
<time>2024-05-12T12:12:10Z</time>
</trkpt>
<trkpt lat="48.83322520181537" lon="9.32045454159379">
<ele>237.8</ele>
<time>2024-05-12T12:12:11Z</time>
</trkpt>
<trkpt lat="48.83320231921971" lon="9.320481279864907">
<ele>238</ele>
<time>2024-05-12T12:12:12Z</time>
</trkpt>
<trkpt lat="48.83318320848048" lon="9.320521345362067">
<ele>238</ele>
<time>2024-05-12T12:12:13Z</time>
</trkpt>
<trkpt lat="48.83316032588482" lon="9.320565182715654">
<ele>238.2</ele>
<time>2024-05-12T12:12:14Z</time>
</trkpt>
<trkpt lat="48.83313744328916" lon="9.320610025897622">
<ele>238.2</ele>
<time>2024-05-12T12:12:15Z</time>
</trkpt>
<trkpt lat="48.833110788837075" lon="9.320656713098288">
<ele>238.2</ele>
<time>2024-05-12T12:12:16Z</time>
</trkpt>
<trkpt lat="48.83308405056596" lon="9.320701556280255">
<ele>238.4</ele>
<time>2024-05-12T12:12:17Z</time>
</trkpt>
<trkpt lat="48.833049768581986" lon="9.320743549615145">
<ele>238.6</ele>
<time>2024-05-12T12:12:18Z</time>
</trkpt>
<trkpt lat="48.83301540277898" lon="9.320781687274575">
<ele>238.6</ele>
<time>2024-05-12T12:12:19Z</time>
</trkpt>
<trkpt lat="48.83297726511955" lon="9.320815047249198">
<ele>238.8</ele>
<time>2024-05-12T12:12:20Z</time>
</trkpt>
<trkpt lat="48.83294289931655" lon="9.320844635367392">
<ele>239</ele>
<time>2024-05-12T12:12:21Z</time>
</trkpt>
<trkpt lat="48.83290476165712" lon="9.320875145494938">
<ele>239.2</ele>
<time>2024-05-12T12:12:22Z</time>
</trkpt>
<trkpt lat="48.83286662399769" lon="9.320904649794102">
<ele>239.4</ele>
<time>2024-05-12T12:12:23Z</time>
</trkpt>
<trkpt lat="48.83282848633826" lon="9.320935243740678">
<ele>239.6</ele>
<time>2024-05-12T12:12:24Z</time>
</trkpt>
<trkpt lat="48.83278649300337" lon="9.320962904021144">
<ele>239.8</ele>
<time>2024-05-12T12:12:25Z</time>
</trkpt>
<trkpt lat="48.83274458348751" lon="9.320998191833496">
<ele>240</ele>
<time>2024-05-12T12:12:26Z</time>
</trkpt>
<trkpt lat="48.83270644582808" lon="9.321033395826817">
<ele>240.2</ele>
<time>2024-05-12T12:12:27Z</time>
</trkpt>
<trkpt lat="48.83266822434962" lon="9.321062061935663">
<ele>240.2</ele>
<time>2024-05-12T12:12:28Z</time>
</trkpt>
<trkpt lat="48.83263008669019" lon="9.32108972221613">
<ele>240.2</ele>
<time>2024-05-12T12:12:29Z</time>
</trkpt>
<trkpt lat="48.83259194903076" lon="9.321120232343674">
<ele>240.4</ele>
<time>2024-05-12T12:12:30Z</time>
</trkpt>
<trkpt lat="48.83256143890321" lon="9.321151664480569">
<ele>240.6</ele>
<time>2024-05-12T12:12:31Z</time>
</trkpt>
<trkpt lat="48.83252715691924" lon="9.321183180436492">
<ele>240.6</ele>
<time>2024-05-12T12:12:32Z</time>
</trkpt>
<trkpt lat="48.832496562972665" lon="9.321214612573383">
<ele>240.8</ele>
<time>2024-05-12T12:12:33Z</time>
</trkpt>
<trkpt lat="48.83246228098869" lon="9.321253756061196">
<ele>240.8</ele>
<time>2024-05-12T12:12:34Z</time>
</trkpt>
<trkpt lat="48.83243177086115" lon="9.321294743567703">
<ele>241</ele>
<time>2024-05-12T12:12:35Z</time>
</trkpt>
<trkpt lat="48.83239363320172" lon="9.321341514587402">
<ele>241</ele>
<time>2024-05-12T12:12:36Z</time>
</trkpt>
<trkpt lat="48.83235549554229" lon="9.321392057463529">
<ele>241</ele>
<time>2024-05-12T12:12:37Z</time>
</trkpt>
<trkpt lat="48.832317274063826" lon="9.321443522349">
<ele>241</ele>
<time>2024-05-12T12:12:38Z</time>
</trkpt>
<trkpt lat="48.832282992079854" lon="9.321494987234471">
<ele>241</ele>
<time>2024-05-12T12:12:39Z</time>
</trkpt>
<trkpt lat="48.83224485442042" lon="9.321548379957676">
<ele>241.2</ele>
<time>2024-05-12T12:12:40Z</time>
</trkpt>
<trkpt lat="48.83221048861742" lon="9.321603700518608">
<ele>241.2</ele>
<time>2024-05-12T12:12:41Z</time>
</trkpt>
<trkpt lat="48.83217235095799" lon="9.321651393547654">
<ele>241.4</ele>
<time>2024-05-12T12:12:42Z</time>
</trkpt>
<trkpt lat="48.832141840830445" lon="9.321696236729622">
<ele>241.4</ele>
<time>2024-05-12T12:12:43Z</time>
</trkpt>
<trkpt lat="48.83210747502744" lon="9.321736302226782">
<ele>241.6</ele>
<time>2024-05-12T12:12:44Z</time>
</trkpt>
<trkpt lat="48.8320769648999" lon="9.321778295561671">
<ele>241.6</ele>
<time>2024-05-12T12:12:45Z</time>
</trkpt>
<trkpt lat="48.83204645477235" lon="9.321811655536294">
<ele>241.8</ele>
<time>2024-05-12T12:12:46Z</time>
</trkpt>
<trkpt lat="48.83201980032027" lon="9.32183830998838">
<ele>241.8</ele>
<time>2024-05-12T12:12:47Z</time>
</trkpt>
<trkpt lat="48.83199691772461" lon="9.321856498718262">
<ele>241.8</ele>
<time>2024-05-12T12:12:48Z</time>
</trkpt>
<trkpt lat="48.831981578841805" lon="9.321873597800732">
<ele>242</ele>
<time>2024-05-12T12:12:49Z</time>
</trkpt>
<trkpt lat="48.83196632377803" lon="9.321887930855157">
<ele>242</ele>
<time>2024-05-12T12:12:50Z</time>
</trkpt>
<trkpt lat="48.83195106871426" lon="9.321907963603737">
<ele>242</ele>
<time>2024-05-12T12:12:51Z</time>
</trkpt>
<trkpt lat="48.83192055858672" lon="9.32193461805582">
<ele>242</ele>
<time>2024-05-12T12:12:52Z</time>
</trkpt>
<trkpt lat="48.83187864907086" lon="9.321965212002397">
<ele>242</ele>
<time>2024-05-12T12:12:53Z</time>
</trkpt>
<trkpt lat="48.83184051141143" lon="9.322005193680525">
<ele>241.8</ele>
<time>2024-05-12T12:12:54Z</time>
</trkpt>
<trkpt lat="48.831802289932966" lon="9.322041487321258">
<ele>241.8</ele>
<time>2024-05-12T12:12:55Z</time>
</trkpt>
<trkpt lat="48.83175652474165" lon="9.322071997448802">
<ele>241.6</ele>
<time>2024-05-12T12:12:56Z</time>
</trkpt>
<trkpt lat="48.83172224275768" lon="9.322145422920585">
<ele>241.6</ele>
<time>2024-05-12T12:12:57Z</time>
</trkpt>
<trkpt lat="48.83164211176336" lon="9.322301829233766">
<ele>241.4</ele>
<time>2024-05-12T12:12:59Z</time>
</trkpt>
<trkpt lat="48.83157346397638" lon="9.322322783991694">
<ele>241.2</ele>
<time>2024-05-12T12:13:00Z</time>
</trkpt>
<trkpt lat="48.83155435323715" lon="9.322382882237434">
<ele>241.2</ele>
<time>2024-05-12T12:13:01Z</time>
</trkpt>
<trkpt lat="48.83153909817338" lon="9.322428647428753">
<ele>241</ele>
<time>2024-05-12T12:13:02Z</time>
</trkpt>
<trkpt lat="48.83154295384884" lon="9.322475418448448">
<ele>241</ele>
<time>2024-05-12T12:13:03Z</time>
</trkpt>
<trkpt lat="48.83153532631695" lon="9.32252688333392">
<ele>241</ele>
<time>2024-05-12T12:13:04Z</time>
</trkpt>
<trkpt lat="48.831531470641494" lon="9.32259175926447">
<ele>241</ele>
<time>2024-05-12T12:13:05Z</time>
</trkpt>
<trkpt lat="48.83152007125318" lon="9.322656551375983">
<ele>241</ele>
<time>2024-05-12T12:13:06Z</time>
</trkpt>
<trkpt lat="48.83150096051395" lon="9.322712877765298">
<ele>241</ele>
<time>2024-05-12T12:13:07Z</time>
</trkpt>
<trkpt lat="48.83147422224283" lon="9.322774820029736">
<ele>240.8</ele>
<time>2024-05-12T12:13:08Z</time>
</trkpt>
<trkpt lat="48.831451339647174" lon="9.322828212752938">
<ele>240.8</ele>
<time>2024-05-12T12:13:09Z</time>
</trkpt>
<trkpt lat="48.83142845705152" lon="9.322879761457443">
<ele>240.8</ele>
<time>2024-05-12T12:13:10Z</time>
</trkpt>
<trkpt lat="48.83140180259943" lon="9.322930304333568">
<ele>240.8</ele>
<time>2024-05-12T12:13:11Z</time>
</trkpt>
<trkpt lat="48.83136743679643" lon="9.32296173647046">
<ele>240.8</ele>
<time>2024-05-12T12:13:12Z</time>
</trkpt>
<trkpt lat="48.83134078234434" lon="9.322979925200343">
<ele>241</ele>
<time>2024-05-12T12:13:13Z</time>
</trkpt>
<trkpt lat="48.831314044073224" lon="9.322990402579308">
<ele>241</ele>
<time>2024-05-12T12:13:14Z</time>
</trkpt>
<trkpt lat="48.83128730580211" lon="9.322999874129891">
<ele>241.2</ele>
<time>2024-05-12T12:13:15Z</time>
</trkpt>
<trkpt lat="48.83126827888191" lon="9.323015213012695">
<ele>241.2</ele>
<time>2024-05-12T12:13:16Z</time>
</trkpt>
<trkpt lat="48.83124916814267" lon="9.323031390085816">
<ele>241.2</ele>
<time>2024-05-12T12:13:17Z</time>
</trkpt>
<trkpt lat="48.83123014122248" lon="9.323058128356934">
<ele>241.2</ele>
<time>2024-05-12T12:13:18Z</time>
</trkpt>
<trkpt lat="48.83120725862682" lon="9.323098110035062">
<ele>241.4</ele>
<time>2024-05-12T12:13:19Z</time>
</trkpt>
<trkpt lat="48.83118437603116" lon="9.323140103369951">
<ele>241.4</ele>
<time>2024-05-12T12:13:20Z</time>
</trkpt>
<trkpt lat="48.8311614934355" lon="9.32318494655192">
<ele>241.4</ele>
<time>2024-05-12T12:13:21Z</time>
</trkpt>
<trkpt lat="48.831134755164385" lon="9.323231633752584">
<ele>241.4</ele>
<time>2024-05-12T12:13:22Z</time>
</trkpt>
<trkpt lat="48.83110801689327" lon="9.32328125461936">
<ele>241.4</ele>
<time>2024-05-12T12:13:23Z</time>
</trkpt>
<trkpt lat="48.83108513429761" lon="9.323334647342564">
<ele>241.4</ele>
<time>2024-05-12T12:13:24Z</time>
</trkpt>
<trkpt lat="48.83105847984552" lon="9.323387118056417">
<ele>241.4</ele>
<time>2024-05-12T12:13:25Z</time>
</trkpt>
<trkpt lat="48.831035597249866" lon="9.32343958877027">
<ele>241.6</ele>
<time>2024-05-12T12:13:26Z</time>
</trkpt>
<trkpt lat="48.83101271465421" lon="9.323492981493471">
<ele>241.6</ele>
<time>2024-05-12T12:13:27Z</time>
</trkpt>
<trkpt lat="48.83098983205855" lon="9.323546374216676">
<ele>241.6</ele>
<time>2024-05-12T12:13:28Z</time>
</trkpt>
<trkpt lat="48.83096309378743" lon="9.3235969170928">
<ele>241.6</ele>
<time>2024-05-12T12:13:29Z</time>
</trkpt>
<trkpt lat="48.83094021119177" lon="9.323646537959576">
<ele>241.6</ele>
<time>2024-05-12T12:13:30Z</time>
</trkpt>
<trkpt lat="48.830913472920656" lon="9.32369322516024">
<ele>241.6</ele>
<time>2024-05-12T12:13:31Z</time>
</trkpt>
<trkpt lat="48.830890590325" lon="9.32373521849513">
<ele>241.6</ele>
<time>2024-05-12T12:13:32Z</time>
</trkpt>
<trkpt lat="48.83086770772934" lon="9.323761872947216">
<ele>241.6</ele>
<time>2024-05-12T12:13:33Z</time>
</trkpt>
<trkpt lat="48.830841053277254" lon="9.323778133839369">
<ele>241.6</ele>
<time>2024-05-12T12:13:34Z</time>
</trkpt>
<trkpt lat="48.8308181706816" lon="9.323789533227682">
<ele>241.6</ele>
<time>2024-05-12T12:13:35Z</time>
</trkpt>
<trkpt lat="48.83079143241048" lon="9.323802944272757">
<ele>241.6</ele>
<time>2024-05-12T12:13:36Z</time>
</trkpt>
<trkpt lat="48.83076854981482" lon="9.323821971192956">
<ele>241.6</ele>
<time>2024-05-12T12:13:37Z</time>
</trkpt>
<trkpt lat="48.83074566721916" lon="9.323838232085109">
<ele>241.6</ele>
<time>2024-05-12T12:13:38Z</time>
</trkpt>
<trkpt lat="48.830722784623504" lon="9.32385533116758">
<ele>241.4</ele>
<time>2024-05-12T12:13:39Z</time>
</trkpt>
<trkpt lat="48.83070367388427" lon="9.32387351989746">
<ele>241.4</ele>
<time>2024-05-12T12:13:40Z</time>
</trkpt>
<trkpt lat="48.8306884188205" lon="9.32389640249312">
<ele>241.4</ele>
<time>2024-05-12T12:13:41Z</time>
</trkpt>
<trkpt lat="48.83067316375673" lon="9.323920207098126">
<ele>241.4</ele>
<time>2024-05-12T12:13:42Z</time>
</trkpt>
<trkpt lat="48.83065413683653" lon="9.323945017531514">
<ele>241.4</ele>
<time>2024-05-12T12:13:43Z</time>
</trkpt>
<trkpt lat="48.83063888177276" lon="9.323961194604635">
<ele>241.2</ele>
<time>2024-05-12T12:13:44Z</time>
</trkpt>
<trkpt lat="48.83062739856541" lon="9.3239716719836">
<ele>241.2</ele>
<time>2024-05-12T12:13:45Z</time>
</trkpt>
<trkpt lat="48.83060828782618" lon="9.323969827964902">
<ele>241</ele>
<time>2024-05-12T12:13:46Z</time>
</trkpt>
<trkpt lat="48.83059303276241" lon="9.323966978117824">
<ele>240.8</ele>
<time>2024-05-12T12:13:47Z</time>
</trkpt>
<trkpt lat="48.83058540523052" lon="9.323958344757555">
<ele>240.6</ele>
<time>2024-05-12T12:13:48Z</time>
</trkpt>
<trkpt lat="48.830581633374095" lon="9.32395163923502">
<ele>240.4</ele>
<time>2024-05-12T12:13:49Z</time>
</trkpt>
<trkpt lat="48.83057777769864" lon="9.323943089693785">
<ele>240.2</ele>
<time>2024-05-12T12:13:50Z</time>
</trkpt>
<trkpt lat="48.83057400584221" lon="9.323936384171247">
<ele>240</ele>
<time>2024-05-12T12:13:51Z</time>
</trkpt>
<trkpt lat="48.83057015016675" lon="9.32393454015255">
<ele>240</ele>
<time>2024-05-12T12:13:52Z</time>
</trkpt>
<trkpt lat="48.83057400584221" lon="9.32393353432417">
<ele>239.8</ele>
<time>2024-05-12T12:13:54Z</time>
</trkpt>
<trkpt lat="48.83057400584221" lon="9.323931690305471">
<ele>239.8</ele>
<time>2024-05-12T12:13:55Z</time>
</trkpt>
<trkpt lat="48.83057015016675" lon="9.323929762467742">
<ele>239.6</ele>
<time>2024-05-12T12:13:56Z</time>
</trkpt>
<trkpt lat="48.83057400584221" lon="9.323927834630013">
<ele>239.6</ele>
<time>2024-05-12T12:13:57Z</time>
</trkpt>
<trkpt lat="48.83057015016675" lon="9.323927834630013">
<ele>239.4</ele>
<time>2024-05-12T12:13:59Z</time>
</trkpt>
<trkpt lat="48.83057015016675" lon="9.323929762467742">
<ele>239.4</ele>
<time>2024-05-12T12:14:01Z</time>
</trkpt>
<trkpt lat="48.83057015016675" lon="9.323931690305471">
<ele>239.4</ele>
<time>2024-05-12T12:14:02Z</time>
</trkpt>
<trkpt lat="48.83057015016675" lon="9.32393353432417">
<ele>239.4</ele>
<time>2024-05-12T12:14:06Z</time>
</trkpt>
<trkpt lat="48.83056637831032" lon="9.32393454015255">
<ele>239.4</ele>
<time>2024-05-12T12:14:08Z</time>
</trkpt>
<trkpt lat="48.83056637831032" lon="9.323936384171247">
<ele>239.4</ele>
<time>2024-05-12T12:14:09Z</time>
</trkpt>
<trkpt lat="48.830562522634864" lon="9.323936384171247">
<ele>239.4</ele>
<time>2024-05-12T12:14:10Z</time>
</trkpt>
<trkpt lat="48.830562522634864" lon="9.32393454015255">
<ele>239.4</ele>
<time>2024-05-12T12:14:11Z</time>
</trkpt>
<trkpt lat="48.83055875077844" lon="9.32393353432417">
<ele>239.4</ele>
<time>2024-05-12T12:14:12Z</time>
</trkpt>
<trkpt lat="48.83055875077844" lon="9.323931690305471">
<ele>239.4</ele>
<time>2024-05-12T12:14:13Z</time>
</trkpt>
<trkpt lat="48.83055875077844" lon="9.323929762467742">
<ele>239.4</ele>
<time>2024-05-12T12:14:16Z</time>
</trkpt>
<trkpt lat="48.83055489510298" lon="9.323929762467742">
<ele>239.4</ele>
<time>2024-05-12T12:14:17Z</time>
</trkpt>
<trkpt lat="48.83055489510298" lon="9.323927834630013">
<ele>239.4</ele>
<time>2024-05-12T12:14:18Z</time>
</trkpt>
<trkpt lat="48.83055489510298" lon="9.323926912620664">
<ele>239.4</ele>
<time>2024-05-12T12:14:19Z</time>
</trkpt>
<trkpt lat="48.83055489510298" lon="9.323927834630013">
<ele>239.4</ele>
<time>2024-05-12T12:14:21Z</time>
</trkpt>
<trkpt lat="48.83055489510298" lon="9.323929762467742">
<ele>239.4</ele>
<time>2024-05-12T12:14:23Z</time>
</trkpt>
<trkpt lat="48.83055875077844" lon="9.32393454015255">
<ele>239.4</ele>
<time>2024-05-12T12:14:26Z</time>
</trkpt>
<trkpt lat="48.83055875077844" lon="9.323936384171247">
<ele>239.4</ele>
<time>2024-05-12T12:14:28Z</time>
</trkpt>
<trkpt lat="48.83055875077844" lon="9.32393454015255">
<ele>239.4</ele>
<time>2024-05-12T12:14:33Z</time>
</trkpt>
<trkpt lat="48.83055875077844" lon="9.323938312008975">
<ele>239.4</ele>
<time>2024-05-12T12:14:39Z</time>
</trkpt>
<trkpt lat="48.830562522634864" lon="9.323945017531514">
<ele>239.4</ele>
<time>2024-05-12T12:14:40Z</time>
</trkpt>
<trkpt lat="48.830562522634864" lon="9.32395163923502">
<ele>239.4</ele>
<time>2024-05-12T12:14:41Z</time>
</trkpt>
<trkpt lat="48.83056637831032" lon="9.323960272595286">
<ele>239.4</ele>
<time>2024-05-12T12:14:42Z</time>
</trkpt>
<trkpt lat="48.83056637831032" lon="9.323965050280094">
<ele>239.6</ele>
<time>2024-05-12T12:14:43Z</time>
</trkpt>
<trkpt lat="48.83056637831032" lon="9.32397359982133">
<ele>239.6</ele>
<time>2024-05-12T12:14:44Z</time>
</trkpt>
<trkpt lat="48.83057015016675" lon="9.323978377506135">
<ele>239.6</ele>
<time>2024-05-12T12:14:45Z</time>
</trkpt>
<trkpt lat="48.83057400584221" lon="9.323985083028674">
<ele>239.8</ele>
<time>2024-05-12T12:14:46Z</time>
</trkpt>
<trkpt lat="48.83057400584221" lon="9.323989860713482">
<ele>239.8</ele>
<time>2024-05-12T12:14:47Z</time>
</trkpt>
<trkpt lat="48.83057777769864" lon="9.323993632569907">
<ele>240</ele>
<time>2024-05-12T12:14:48Z</time>
</trkpt>
<trkpt lat="48.83057777769864" lon="9.323996482416987">
<ele>240</ele>
<time>2024-05-12T12:14:49Z</time>
</trkpt>
<trkpt lat="48.83057777769864" lon="9.323998410254717">
<ele>240</ele>
<time>2024-05-12T12:14:50Z</time>
</trkpt>
<trkpt lat="48.830581633374095" lon="9.324000338092446">
<ele>240</ele>
<time>2024-05-12T12:14:51Z</time>
</trkpt>
<trkpt lat="48.830581633374095" lon="9.324001260101795">
<ele>240</ele>
<time>2024-05-12T12:14:52Z</time>
</trkpt>
<trkpt lat="48.830581633374095" lon="9.324003187939525">
<ele>239.8</ele>
<time>2024-05-12T12:14:53Z</time>
</trkpt>
<trkpt lat="48.830581633374095" lon="9.324005115777254">
<ele>239.6</ele>
<time>2024-05-12T12:14:54Z</time>
</trkpt>
<trkpt lat="48.830581633374095" lon="9.324009893462062">
<ele>239.6</ele>
<time>2024-05-12T12:14:55Z</time>
</trkpt>
<trkpt lat="48.83057400584221" lon="9.324025148525834">
<ele>239.4</ele>
<time>2024-05-12T12:14:56Z</time>
</trkpt>
<trkpt lat="48.83055875077844" lon="9.324048031121492">
<ele>239.4</ele>
<time>2024-05-12T12:14:57Z</time>
</trkpt>
<trkpt lat="48.830539640039206" lon="9.324079463258386">
<ele>239.4</ele>
<time>2024-05-12T12:14:58Z</time>
</trkpt>
<trkpt lat="48.83051675744355" lon="9.32413193397224">
<ele>239.2</ele>
<time>2024-05-12T12:14:59Z</time>
</trkpt>
<trkpt lat="48.83049010299146" lon="9.32418817654252">
<ele>239.2</ele>
<time>2024-05-12T12:15:00Z</time>
</trkpt>
<trkpt lat="48.8304672203958" lon="9.324241569265723">
<ele>239</ele>
<time>2024-05-12T12:15:01Z</time>
</trkpt>
<trkpt lat="48.83044425398111" lon="9.32428834028542">
<ele>239</ele>
<time>2024-05-12T12:15:02Z</time>
</trkpt>
<trkpt lat="48.830425227060914" lon="9.324335027486086">
<ele>239</ele>
<time>2024-05-12T12:15:03Z</time>
</trkpt>
<trkpt lat="48.8303984887898" lon="9.324383726343513">
<ele>239</ele>
<time>2024-05-12T12:15:04Z</time>
</trkpt>
<trkpt lat="48.83037560619414" lon="9.324421864002945">
<ele>239</ele>
<time>2024-05-12T12:15:05Z</time>
</trkpt>
<trkpt lat="48.83035657927394" lon="9.324460001662374">
<ele>239</ele>
<time>2024-05-12T12:15:06Z</time>
</trkpt>
<trkpt lat="48.83033369667828" lon="9.324501911178231">
<ele>239</ele>
<time>2024-05-12T12:15:07Z</time>
</trkpt>
<trkpt lat="48.83031081408262" lon="9.324536276981236">
<ele>239</ele>
<time>2024-05-12T12:15:08Z</time>
</trkpt>
<trkpt lat="48.83028793148696" lon="9.324573492631316">
<ele>239</ele>
<time>2024-05-12T12:15:09Z</time>
</trkpt>
<trkpt lat="48.83026119321585" lon="9.324613558128476">
<ele>239.2</ele>
<time>2024-05-12T12:15:10Z</time>
</trkpt>
<trkpt lat="48.83023445494473" lon="9.324656473472714">
<ele>239.2</ele>
<time>2024-05-12T12:15:11Z</time>
</trkpt>
<trkpt lat="48.83020017296076" lon="9.324700310826302">
<ele>239.2</ele>
<time>2024-05-12T12:15:12Z</time>
</trkpt>
<trkpt lat="48.830169662833214" lon="9.324747081846">
<ele>239.2</ele>
<time>2024-05-12T12:15:13Z</time>
</trkpt>
<trkpt lat="48.83013915270567" lon="9.324796618893744">
<ele>239.2</ele>
<time>2024-05-12T12:15:14Z</time>
</trkpt>
<trkpt lat="48.83011241443455" lon="9.324852861464024">
<ele>239.2</ele>
<time>2024-05-12T12:15:15Z</time>
</trkpt>
<trkpt lat="48.830085676163435" lon="9.324912037700416">
<ele>239.2</ele>
<time>2024-05-12T12:15:16Z</time>
</trkpt>
<trkpt lat="48.83006664924323" lon="9.324972135946156">
<ele>239.2</ele>
<time>2024-05-12T12:15:17Z</time>
</trkpt>
<trkpt lat="48.830047538504" lon="9.325030306354163">
<ele>239.2</ele>
<time>2024-05-12T12:15:18Z</time>
</trkpt>
<trkpt lat="48.83003228344023" lon="9.325088476762176">
<ele>239.2</ele>
<time>2024-05-12T12:15:19Z</time>
</trkpt>
<trkpt lat="48.83001702837646" lon="9.325144719332457">
<ele>239.2</ele>
<time>2024-05-12T12:15:20Z</time>
</trkpt>
<trkpt lat="48.83000562898815" lon="9.325202889740469">
<ele>239.2</ele>
<time>2024-05-12T12:15:21Z</time>
</trkpt>
<trkpt lat="48.82999800145626" lon="9.325273465365171">
<ele>239.2</ele>
<time>2024-05-12T12:15:22Z</time>
</trkpt>
<trkpt lat="48.8299941457808" lon="9.325343118980529">
<ele>239.2</ele>
<time>2024-05-12T12:15:23Z</time>
</trkpt>
<trkpt lat="48.8299941457808" lon="9.32541654445231">
<ele>239.2</ele>
<time>2024-05-12T12:15:24Z</time>
</trkpt>
<trkpt lat="48.8299941457808" lon="9.325491897761822">
<ele>239.2</ele>
<time>2024-05-12T12:15:25Z</time>
</trkpt>
<trkpt lat="48.829990373924375" lon="9.325570100918412">
<ele>239.2</ele>
<time>2024-05-12T12:15:26Z</time>
</trkpt>
<trkpt lat="48.82998651824891" lon="9.325646376237271">
<ele>239.2</ele>
<time>2024-05-12T12:15:27Z</time>
</trkpt>
<trkpt lat="48.8299751188606" lon="9.325721729546784">
<ele>239.2</ele>
<time>2024-05-12T12:15:28Z</time>
</trkpt>
<trkpt lat="48.82995986379683" lon="9.325795155018568">
<ele>239.2</ele>
<time>2024-05-12T12:15:29Z</time>
</trkpt>
<trkpt lat="48.8299407530576" lon="9.325861874967812">
<ele>239.2</ele>
<time>2024-05-12T12:15:30Z</time>
</trkpt>
<trkpt lat="48.82992164231837" lon="9.325931528583167">
<ele>239.2</ele>
<time>2024-05-12T12:15:31Z</time>
</trkpt>
<trkpt lat="48.82989498786628" lon="9.326002104207872">
<ele>239.2</ele>
<time>2024-05-12T12:15:32Z</time>
</trkpt>
<trkpt lat="48.829868249595165" lon="9.3260698299855">
<ele>239.4</ele>
<time>2024-05-12T12:15:33Z</time>
</trkpt>
<trkpt lat="48.82983773946762" lon="9.326134622097015">
<ele>239.4</ele>
<time>2024-05-12T12:15:34Z</time>
</trkpt>
<trkpt lat="48.82980722934008" lon="9.326200420036912">
<ele>239.4</ele>
<time>2024-05-12T12:15:35Z</time>
</trkpt>
<trkpt lat="48.82977671921253" lon="9.326268145814538">
<ele>239.6</ele>
<time>2024-05-12T12:15:36Z</time>
</trkpt>
<trkpt lat="48.829749980941415" lon="9.326332015916703">
<ele>239.6</ele>
<time>2024-05-12T12:15:37Z</time>
</trkpt>
<trkpt lat="48.82972332648933" lon="9.326394964009523">
<ele>239.8</ele>
<time>2024-05-12T12:15:38Z</time>
</trkpt>
<trkpt lat="48.829692816361785" lon="9.326455062255263">
<ele>240</ele>
<time>2024-05-12T12:15:39Z</time>
</trkpt>
<trkpt lat="48.82966607809067" lon="9.326517088338733">
<ele>240.2</ele>
<time>2024-05-12T12:15:40Z</time>
</trkpt>
<trkpt lat="48.82963942363858" lon="9.326571403071284">
<ele>240.4</ele>
<time>2024-05-12T12:15:41Z</time>
</trkpt>
<trkpt lat="48.829612685367465" lon="9.32662295177579">
<ele>240.6</ele>
<time>2024-05-12T12:15:42Z</time>
</trkpt>
<trkpt lat="48.82958980277181" lon="9.32667827233672">
<ele>240.8</ele>
<time>2024-05-12T12:15:43Z</time>
</trkpt>
<trkpt lat="48.82956306450069" lon="9.326729737222196">
<ele>241</ele>
<time>2024-05-12T12:15:44Z</time>
</trkpt>
<trkpt lat="48.82953641004861" lon="9.326794613152742">
<ele>241</ele>
<time>2024-05-12T12:15:45Z</time>
</trkpt>
<trkpt lat="48.82950967177749" lon="9.326867032796144">
<ele>241.2</ele>
<time>2024-05-12T12:15:46Z</time>
</trkpt>
<trkpt lat="48.82948678918183" lon="9.32693861424923">
<ele>241.2</ele>
<time>2024-05-12T12:15:47Z</time>
</trkpt>
<trkpt lat="48.82946390658617" lon="9.327012039721012">
<ele>241.2</ele>
<time>2024-05-12T12:15:48Z</time>
</trkpt>
<trkpt lat="48.829437252134085" lon="9.327081609517336">
<ele>241</ele>
<time>2024-05-12T12:15:49Z</time>
</trkpt>
<trkpt lat="48.82941051386297" lon="9.327151263132691">
<ele>241</ele>
<time>2024-05-12T12:15:50Z</time>
</trkpt>
<trkpt lat="48.82938763126731" lon="9.327224688604474">
<ele>240.8</ele>
<time>2024-05-12T12:15:51Z</time>
</trkpt>
<trkpt lat="48.82936852052808" lon="9.327296186238527">
<ele>240.8</ele>
<time>2024-05-12T12:15:52Z</time>
</trkpt>
<trkpt lat="48.82934563793242" lon="9.327366761863232">
<ele>241</ele>
<time>2024-05-12T12:15:53Z</time>
</trkpt>
<trkpt lat="48.82933038286865" lon="9.32743163779378">
<ele>241</ele>
<time>2024-05-12T12:15:54Z</time>
</trkpt>
<trkpt lat="48.82931135594845" lon="9.327496513724329">
<ele>241</ele>
<time>2024-05-12T12:15:55Z</time>
</trkpt>
<trkpt lat="48.82929224520922" lon="9.327563233673573">
<ele>241</ele>
<time>2024-05-12T12:15:56Z</time>
</trkpt>
<trkpt lat="48.82927321828902" lon="9.327632887288928">
<ele>241</ele>
<time>2024-05-12T12:15:57Z</time>
</trkpt>
<trkpt lat="48.829257963225245" lon="9.327701535075905">
<ele>241</ele>
<time>2024-05-12T12:15:58Z</time>
</trkpt>
<trkpt lat="48.829238852486014" lon="9.327768255025148">
<ele>241</ele>
<time>2024-05-12T12:15:59Z</time>
</trkpt>
<trkpt lat="48.82922359742224" lon="9.327835058793426">
<ele>241</ele>
<time>2024-05-12T12:16:00Z</time>
</trkpt>
<trkpt lat="48.82920834235847" lon="9.32790655642748">
<ele>240.8</ele>
<time>2024-05-12T12:16:01Z</time>
</trkpt>
<trkpt lat="48.82918923161924" lon="9.327976210042834">
<ele>240.8</ele>
<time>2024-05-12T12:16:02Z</time>
</trkpt>
<trkpt lat="48.82917397655547" lon="9.32804678566754">
<ele>240.8</ele>
<time>2024-05-12T12:16:03Z</time>
</trkpt>
<trkpt lat="48.82915494963527" lon="9.328111577779056">
<ele>240.8</ele>
<time>2024-05-12T12:16:04Z</time>
</trkpt>
<trkpt lat="48.82913206703961" lon="9.328173603862524">
<ele>240.8</ele>
<time>2024-05-12T12:16:05Z</time>
</trkpt>
<trkpt lat="48.82910918444395" lon="9.328238479793072">
<ele>240.8</ele>
<time>2024-05-12T12:16:06Z</time>
</trkpt>
<trkpt lat="48.829078674316406" lon="9.32829849421978">
<ele>240.8</ele>
<time>2024-05-12T12:16:07Z</time>
</trkpt>
<trkpt lat="48.8290443085134" lon="9.328350042924283">
<ele>240.8</ele>
<time>2024-05-12T12:16:08Z</time>
</trkpt>
<trkpt lat="48.8290099427104" lon="9.328394886106253">
<ele>240.8</ele>
<time>2024-05-12T12:16:09Z</time>
</trkpt>
<trkpt lat="48.82896803319454" lon="9.32843486778438">
<ele>240.8</ele>
<time>2024-05-12T12:16:10Z</time>
</trkpt>
<trkpt lat="48.82892989553511" lon="9.328466383740306">
<ele>240.8</ele>
<time>2024-05-12T12:16:11Z</time>
</trkpt>
<trkpt lat="48.82888404652476" lon="9.328486416488886">
<ele>240.8</ele>
<time>2024-05-12T12:16:12Z</time>
</trkpt>
<trkpt lat="48.82884590886533" lon="9.3284978158772">
<ele>240.6</ele>
<time>2024-05-12T12:16:13Z</time>
</trkpt>
<trkpt lat="48.82881162688136" lon="9.328504521399736">
<ele>240.6</ele>
<time>2024-05-12T12:16:14Z</time>
</trkpt>
<trkpt lat="48.82877726107836" lon="9.3285149987787">
<ele>240.6</ele>
<time>2024-05-12T12:16:15Z</time>
</trkpt>
<trkpt lat="48.828742979094386" lon="9.328528326004744">
<ele>240.6</ele>
<time>2024-05-12T12:16:16Z</time>
</trkpt>
<trkpt lat="48.8287009857595" lon="9.328543581068516">
<ele>240.6</ele>
<time>2024-05-12T12:16:17Z</time>
</trkpt>
<trkpt lat="48.82865899242461" lon="9.32855791412294">
<ele>240.6</ele>
<time>2024-05-12T12:16:18Z</time>
</trkpt>
<trkpt lat="48.82861708290875" lon="9.32857794687152">
<ele>240.4</ele>
<time>2024-05-12T12:16:19Z</time>
</trkpt>
<trkpt lat="48.82857894524932" lon="9.3285979796201">
<ele>240.4</ele>
<time>2024-05-12T12:16:20Z</time>
</trkpt>
<trkpt lat="48.82853309623897" lon="9.3286151625216">
<ele>240.4</ele>
<time>2024-05-12T12:16:21Z</time>
</trkpt>
<trkpt lat="48.82848355919123" lon="9.328630417585371">
<ele>240.4</ele>
<time>2024-05-12T12:16:22Z</time>
</trkpt>
<trkpt lat="48.82843393832445" lon="9.328651372343302">
<ele>240.4</ele>
<time>2024-05-12T12:16:23Z</time>
</trkpt>
<trkpt lat="48.828388173133135" lon="9.328680038452148">
<ele>240.4</ele>
<time>2024-05-12T12:16:24Z</time>
</trkpt>
<trkpt lat="48.82834240794182" lon="9.328713398426771">
<ele>240.4</ele>
<time>2024-05-12T12:16:25Z</time>
</trkpt>
<trkpt lat="48.8282966427505" lon="9.328751536086202">
<ele>240.4</ele>
<time>2024-05-12T12:16:26Z</time>
</trkpt>
<trkpt lat="48.82825464941561" lon="9.328791601583362">
<ele>240.4</ele>
<time>2024-05-12T12:16:27Z</time>
</trkpt>
<trkpt lat="48.82821265608072" lon="9.328831667080522">
<ele>240.4</ele>
<time>2024-05-12T12:16:28Z</time>
</trkpt>
<trkpt lat="48.828166890889406" lon="9.32887458242476">
<ele>240.4</ele>
<time>2024-05-12T12:16:29Z</time>
</trkpt>
<trkpt lat="48.82812498137355" lon="9.328920347616076">
<ele>240.4</ele>
<time>2024-05-12T12:16:30Z</time>
</trkpt>
<trkpt lat="48.82808298803866" lon="9.328965106979012">
<ele>240.4</ele>
<time>2024-05-12T12:16:31Z</time>
</trkpt>
<trkpt lat="48.82804099470377" lon="9.32901187799871">
<ele>240.4</ele>
<time>2024-05-12T12:16:32Z</time>
</trkpt>
<trkpt lat="48.82799522951245" lon="9.329061498865483">
<ele>240.4</ele>
<time>2024-05-12T12:16:33Z</time>
</trkpt>
<trkpt lat="48.827953319996595" lon="9.329114891588688">
<ele>240.4</ele>
<time>2024-05-12T12:16:34Z</time>
</trkpt>
<trkpt lat="48.827911326661706" lon="9.32916635647416">
<ele>240.4</ele>
<time>2024-05-12T12:16:35Z</time>
</trkpt>
<trkpt lat="48.82786933332682" lon="9.329221677035092">
<ele>240.6</ele>
<time>2024-05-12T12:16:36Z</time>
</trkpt>
<trkpt lat="48.8278235681355" lon="9.329276997596024">
<ele>240.6</ele>
<time>2024-05-12T12:16:37Z</time>
</trkpt>
<trkpt lat="48.82778165861964" lon="9.329333240166306">
<ele>240.8</ele>
<time>2024-05-12T12:16:38Z</time>
</trkpt>
<trkpt lat="48.82773966528475" lon="9.32938663288951">
<ele>240.8</ele>
<time>2024-05-12T12:16:39Z</time>
</trkpt>
<trkpt lat="48.82770152762532" lon="9.329440109431744">
<ele>240.8</ele>
<time>2024-05-12T12:16:40Z</time>
</trkpt>
<trkpt lat="48.82766338996589" lon="9.329495429992676">
<ele>240.8</ele>
<time>2024-05-12T12:16:41Z</time>
</trkpt>
<trkpt lat="48.82762525230646" lon="9.329551672562957">
<ele>240.8</ele>
<time>2024-05-12T12:16:42Z</time>
</trkpt>
<trkpt lat="48.82759474217892" lon="9.329606993123887">
<ele>240.8</ele>
<time>2024-05-12T12:16:43Z</time>
</trkpt>
<trkpt lat="48.82756423205137" lon="9.329656530171633">
<ele>240.8</ele>
<time>2024-05-12T12:16:44Z</time>
</trkpt>
<trkpt lat="48.82753372192383" lon="9.329696595668793">
<ele>240.8</ele>
<time>2024-05-12T12:16:45Z</time>
</trkpt>
<trkpt lat="48.82750698365271" lon="9.329729955643415">
<ele>240.8</ele>
<time>2024-05-12T12:16:46Z</time>
</trkpt>
<trkpt lat="48.82747647352517" lon="9.329752922058104">
<ele>240.8</ele>
<time>2024-05-12T12:16:47Z</time>
</trkpt>
<trkpt lat="48.82744210772216" lon="9.329768177121878">
<ele>240.8</ele>
<time>2024-05-12T12:16:48Z</time>
</trkpt>
<trkpt lat="48.82740782573819" lon="9.329779576510193">
<ele>240.8</ele>
<time>2024-05-12T12:16:49Z</time>
</trkpt>
<trkpt lat="48.8273658324033" lon="9.329788126051426">
<ele>240.8</ele>
<time>2024-05-12T12:16:50Z</time>
</trkpt>
<trkpt lat="48.82732383906841" lon="9.329799609258773">
<ele>240.8</ele>
<time>2024-05-12T12:16:51Z</time>
</trkpt>
<trkpt lat="48.827281929552555" lon="9.329812014475465">
<ele>240.8</ele>
<time>2024-05-12T12:16:52Z</time>
</trkpt>
<trkpt lat="48.827239936217666" lon="9.329818719998002">
<ele>240.8</ele>
<time>2024-05-12T12:16:53Z</time>
</trkpt>
<trkpt lat="48.82719802670181" lon="9.329828191548586">
<ele>240.6</ele>
<time>2024-05-12T12:16:54Z</time>
</trkpt>
<trkpt lat="48.82715217769146" lon="9.329832969233394">
<ele>240.6</ele>
<time>2024-05-12T12:16:55Z</time>
</trkpt>
<trkpt lat="48.82710641250014" lon="9.329838752746582">
<ele>240.4</ele>
<time>2024-05-12T12:16:56Z</time>
</trkpt>
<trkpt lat="48.827064502984285" lon="9.329843446612358">
<ele>240.4</ele>
<time>2024-05-12T12:16:57Z</time>
</trkpt>
<trkpt lat="48.82702250964939" lon="9.329843446612358">
<ele>240.2</ele>
<time>2024-05-12T12:16:58Z</time>
</trkpt>
<trkpt lat="48.82698051631451" lon="9.329834897071123">
<ele>240.2</ele>
<time>2024-05-12T12:16:59Z</time>
</trkpt>
<trkpt lat="48.82693860679865" lon="9.329823413863778">
<ele>240.4</ele>
<time>2024-05-12T12:17:00Z</time>
</trkpt>
<trkpt lat="48.82689661346376" lon="9.329812014475465">
<ele>240.4</ele>
<time>2024-05-12T12:17:01Z</time>
</trkpt>
<trkpt lat="48.82685847580433" lon="9.329799609258773">
<ele>240.4</ele>
<time>2024-05-12T12:17:02Z</time>
</trkpt>
<trkpt lat="48.82681648246944" lon="9.329785276204348">
<ele>240.6</ele>
<time>2024-05-12T12:17:03Z</time>
</trkpt>
<trkpt lat="48.82677834481001" lon="9.329766249284148">
<ele>240.8</ele>
<time>2024-05-12T12:17:04Z</time>
</trkpt>
<trkpt lat="48.82673643529415" lon="9.329739511013033">
<ele>241</ele>
<time>2024-05-12T12:17:05Z</time>
</trkpt>
<trkpt lat="48.82669829763472" lon="9.3297013733536">
<ele>241.2</ele>
<time>2024-05-12T12:17:06Z</time>
</trkpt>
<trkpt lat="48.82666393183172" lon="9.329667091369627">
<ele>241.4</ele>
<time>2024-05-12T12:17:07Z</time>
</trkpt>
<trkpt lat="48.82663342170417" lon="9.329633647575974">
<ele>241.6</ele>
<time>2024-05-12T12:17:08Z</time>
</trkpt>
<trkpt lat="48.82659905590117" lon="9.32960313744843">
<ele>241.8</ele>
<time>2024-05-12T12:17:09Z</time>
</trkpt>
<trkpt lat="48.82656091824174" lon="9.329578327015042">
<ele>241.8</ele>
<time>2024-05-12T12:17:10Z</time>
</trkpt>
<trkpt lat="48.82652663625777" lon="9.32956307195127">
<ele>242</ele>
<time>2024-05-12T12:17:11Z</time>
</trkpt>
<trkpt lat="48.826488414779305" lon="9.329554522410035">
<ele>242.2</ele>
<time>2024-05-12T12:17:12Z</time>
</trkpt>
<trkpt lat="48.826454132795334" lon="9.329553600400686">
<ele>242.2</ele>
<time>2024-05-12T12:17:13Z</time>
</trkpt>
<trkpt lat="48.82642362266779" lon="9.329556450247765">
<ele>242.4</ele>
<time>2024-05-12T12:17:14Z</time>
</trkpt>
<trkpt lat="48.826393112540245" lon="9.329561227932572">
<ele>242.4</ele>
<time>2024-05-12T12:17:15Z</time>
</trkpt>
<trkpt lat="48.8263626024127" lon="9.329573549330236">
<ele>242.4</ele>
<time>2024-05-12T12:17:16Z</time>
</trkpt>
<trkpt lat="48.82633586414158" lon="9.329586960375307">
<ele>242.6</ele>
<time>2024-05-12T12:17:17Z</time>
</trkpt>
<trkpt lat="48.826309125870466" lon="9.329598359763622">
<ele>242.6</ele>
<time>2024-05-12T12:17:18Z</time>
</trkpt>
<trkpt lat="48.82628624327481" lon="9.329609842970967">
<ele>242.6</ele>
<time>2024-05-12T12:17:19Z</time>
</trkpt>
<trkpt lat="48.82626336067915" lon="9.329618392512202">
<ele>242.6</ele>
<time>2024-05-12T12:17:20Z</time>
</trkpt>
<trkpt lat="48.82624810561538" lon="9.329616464674473">
<ele>242.6</ele>
<time>2024-05-12T12:17:21Z</time>
</trkpt>
<trkpt lat="48.82622907869518" lon="9.329609842970967">
<ele>242.6</ele>
<time>2024-05-12T12:17:22Z</time>
</trkpt>
<trkpt lat="48.826213823631406" lon="9.3296012096107">
<ele>242.6</ele>
<time>2024-05-12T12:17:23Z</time>
</trkpt>
<trkpt lat="48.826198568567634" lon="9.329596515744925">
<ele>242.6</ele>
<time>2024-05-12T12:17:24Z</time>
</trkpt>
<trkpt lat="48.82618331350386" lon="9.32958503253758">
<ele>242.6</ele>
<time>2024-05-12T12:17:25Z</time>
</trkpt>
<trkpt lat="48.82616805844009" lon="9.329576482996345">
<ele>242.6</ele>
<time>2024-05-12T12:17:26Z</time>
</trkpt>
<trkpt lat="48.82614894770086" lon="9.329571705311537">
<ele>242.6</ele>
<time>2024-05-12T12:17:27Z</time>
</trkpt>
<trkpt lat="48.8261260651052" lon="9.329561227932572">
<ele>242.6</ele>
<time>2024-05-12T12:17:28Z</time>
</trkpt>
<trkpt lat="48.82610695436597" lon="9.329551672562957">
<ele>242.6</ele>
<time>2024-05-12T12:17:29Z</time>
</trkpt>
<trkpt lat="48.826095554977655" lon="9.329546894878147">
<ele>242.8</ele>
<time>2024-05-12T12:17:30Z</time>
</trkpt>
<trkpt lat="48.82608407177031" lon="9.329538345336914">
<ele>242.8</ele>
<time>2024-05-12T12:17:31Z</time>
</trkpt>
<trkpt lat="48.82606881670654" lon="9.3295287899673">
<ele>243</ele>
<time>2024-05-12T12:17:32Z</time>
</trkpt>
<trkpt lat="48.826057417318225" lon="9.329518312588334">
<ele>243</ele>
<time>2024-05-12T12:17:33Z</time>
</trkpt>
<trkpt lat="48.82604978978634" lon="9.329506829380987">
<ele>243</ele>
<time>2024-05-12T12:17:34Z</time>
</trkpt>
<trkpt lat="48.82603453472257" lon="9.329498279839754">
<ele>243.2</ele>
<time>2024-05-12T12:17:35Z</time>
</trkpt>
<trkpt lat="48.826015423983335" lon="9.329491574317217">
<ele>243.2</ele>
<time>2024-05-12T12:17:36Z</time>
</trkpt>
<trkpt lat="48.82600402459502" lon="9.3294820189476">
<ele>243.2</ele>
<time>2024-05-12T12:17:37Z</time>
</trkpt>
<trkpt lat="48.82598876953125" lon="9.329471541568635">
<ele>243.2</ele>
<time>2024-05-12T12:17:38Z</time>
</trkpt>
<trkpt lat="48.825977286323905" lon="9.329456286504865">
<ele>243.2</ele>
<time>2024-05-12T12:17:39Z</time>
</trkpt>
<trkpt lat="48.82596965879202" lon="9.32944865897298">
<ele>243</ele>
<time>2024-05-12T12:17:40Z</time>
</trkpt>
<trkpt lat="48.825958175584674" lon="9.32944480329752">
<ele>243</ele>
<time>2024-05-12T12:17:41Z</time>
</trkpt>
<trkpt lat="48.82594677619636" lon="9.32944673113525">
<ele>242.8</ele>
<time>2024-05-12T12:17:42Z</time>
</trkpt>
<trkpt lat="48.825939148664474" lon="9.329442959278822">
<ele>242.8</ele>
<time>2024-05-12T12:17:43Z</time>
</trkpt>
<trkpt lat="48.82592766545713" lon="9.329429548233747">
<ele>242.8</ele>
<time>2024-05-12T12:17:44Z</time>
</trkpt>
<trkpt lat="48.825916266068816" lon="9.329415298998356">
<ele>242.6</ele>
<time>2024-05-12T12:17:45Z</time>
</trkpt>
<trkpt lat="48.82590478286147" lon="9.329400043934584">
<ele>242.6</ele>
<time>2024-05-12T12:17:46Z</time>
</trkpt>
<trkpt lat="48.82589338347316" lon="9.32938663288951">
<ele>242.6</ele>
<time>2024-05-12T12:17:47Z</time>
</trkpt>
<trkpt lat="48.825878128409386" lon="9.329376155510545">
<ele>242.4</ele>
<time>2024-05-12T12:17:48Z</time>
</trkpt>
<trkpt lat="48.82586664520204" lon="9.32936668395996">
<ele>242.4</ele>
<time>2024-05-12T12:17:49Z</time>
</trkpt>
<trkpt lat="48.82585524581373" lon="9.329358050599694">
<ele>242.4</ele>
<time>2024-05-12T12:17:50Z</time>
</trkpt>
<trkpt lat="48.82584376260638" lon="9.329358050599694">
<ele>242.4</ele>
<time>2024-05-12T12:17:51Z</time>
</trkpt>
<trkpt lat="48.825836135074496" lon="9.32934950105846">
<ele>242.4</ele>
<time>2024-05-12T12:17:52Z</time>
</trkpt>
<trkpt lat="48.82582088001072" lon="9.329335168004036">
<ele>242.4</ele>
<time>2024-05-12T12:17:53Z</time>
</trkpt>
<trkpt lat="48.82580939680338" lon="9.329324690625072">
<ele>242.4</ele>
<time>2024-05-12T12:17:54Z</time>
</trkpt>
<trkpt lat="48.825797997415066" lon="9.329311363399029">
<ele>242.4</ele>
<time>2024-05-12T12:17:55Z</time>
</trkpt>
<trkpt lat="48.825782742351294" lon="9.329295102506876">
<ele>242.4</ele>
<time>2024-05-12T12:17:56Z</time>
</trkpt>
<trkpt lat="48.82577511481941" lon="9.329293174669148">
<ele>242.4</ele>
<time>2024-05-12T12:17:57Z</time>
</trkpt>
<trkpt lat="48.82576748728752" lon="9.329297952353954">
<ele>242.4</ele>
<time>2024-05-12T12:17:58Z</time>
</trkpt>
<trkpt lat="48.82576363161206" lon="9.329304657876492">
<ele>242.4</ele>
<time>2024-05-12T12:17:59Z</time>
</trkpt>
<trkpt lat="48.825759859755635" lon="9.329321840777991">
<ele>242.4</ele>
<time>2024-05-12T12:18:00Z</time>
</trkpt>
<trkpt lat="48.82575223222375" lon="9.329341873526571">
<ele>242.6</ele>
<time>2024-05-12T12:18:01Z</time>
</trkpt>
<trkpt lat="48.82574460469186" lon="9.32936953380704">
<ele>242.6</ele>
<time>2024-05-12T12:18:02Z</time>
</trkpt>
<trkpt lat="48.8257407490164" lon="9.329396188259125">
<ele>242.6</ele>
<time>2024-05-12T12:18:03Z</time>
</trkpt>
<trkpt lat="48.82573312148452" lon="9.329415298998356">
<ele>242.6</ele>
<time>2024-05-12T12:18:04Z</time>
</trkpt>
<trkpt lat="48.82572549395263" lon="9.329440109431744">
<ele>242.8</ele>
<time>2024-05-12T12:18:05Z</time>
</trkpt>
<trkpt lat="48.82572549395263" lon="9.329462992027402">
<ele>242.8</ele>
<time>2024-05-12T12:18:06Z</time>
</trkpt>
<trkpt lat="48.825717866420746" lon="9.329496352002025">
<ele>242.8</ele>
<time>2024-05-12T12:18:07Z</time>
</trkpt>
<trkpt lat="48.825717866420746" lon="9.32952300645411">
<ele>242.8</ele>
<time>2024-05-12T12:18:08Z</time>
</trkpt>
<trkpt lat="48.82571023888886" lon="9.329556450247765">
<ele>242.8</ele>
<time>2024-05-12T12:18:09Z</time>
</trkpt>
<trkpt lat="48.825702611356974" lon="9.32958310469985">
<ele>242.8</ele>
<time>2024-05-12T12:18:10Z</time>
</trkpt>
<trkpt lat="48.82569121196866" lon="9.329607915133238">
<ele>242.8</ele>
<time>2024-05-12T12:18:11Z</time>
</trkpt>
<trkpt lat="48.825683584436774" lon="9.32964127510786">
<ele>242.8</ele>
<time>2024-05-12T12:18:12Z</time>
</trkpt>
<trkpt lat="48.825668329373" lon="9.329676562920213">
<ele>243</ele>
<time>2024-05-12T12:18:13Z</time>
</trkpt>
<trkpt lat="48.82565307430923" lon="9.329716628417373">
<ele>243.2</ele>
<time>2024-05-12T12:18:14Z</time>
</trkpt>
<trkpt lat="48.825637735426426" lon="9.329765243455768">
<ele>243.2</ele>
<time>2024-05-12T12:18:15Z</time>
</trkpt>
<trkpt lat="48.82561870850623" lon="9.329812936484814">
<ele>243.2</ele>
<time>2024-05-12T12:18:16Z</time>
</trkpt>
<trkpt lat="48.825603453442454" lon="9.329854929819705">
<ele>243.4</ele>
<time>2024-05-12T12:18:17Z</time>
</trkpt>
<trkpt lat="48.82558819837868" lon="9.329891139641404">
<ele>243.4</ele>
<time>2024-05-12T12:18:18Z</time>
</trkpt>
<trkpt lat="48.82557671517134" lon="9.329933132976294">
<ele>243.4</ele>
<time>2024-05-12T12:18:19Z</time>
</trkpt>
<trkpt lat="48.825561460107565" lon="9.32997797615826">
<ele>243.4</ele>
<time>2024-05-12T12:18:20Z</time>
</trkpt>
<trkpt lat="48.82555006071925" lon="9.330028519034386">
<ele>243.4</ele>
<time>2024-05-12T12:18:21Z</time>
</trkpt>
<trkpt lat="48.82553480565548" lon="9.330069506540896">
<ele>243.6</ele>
<time>2024-05-12T12:18:22Z</time>
</trkpt>
<trkpt lat="48.825523322448134" lon="9.330104794353248">
<ele>243.6</ele>
<time>2024-05-12T12:18:23Z</time>
</trkpt>
<trkpt lat="48.82551192305982" lon="9.3301400821656">
<ele>243.4</ele>
<time>2024-05-12T12:18:24Z</time>
</trkpt>
<trkpt lat="48.825504295527935" lon="9.3301762919873">
<ele>243.4</ele>
<time>2024-05-12T12:18:25Z</time>
</trkpt>
<trkpt lat="48.82549666799605" lon="9.330209651961924">
<ele>243.4</ele>
<time>2024-05-12T12:18:26Z</time>
</trkpt>
<trkpt lat="48.82549281232059" lon="9.330231612548232">
<ele>243.4</ele>
<time>2024-05-12T12:18:27Z</time>
</trkpt>
<trkpt lat="48.82548141293228" lon="9.330261200666428">
<ele>243.4</ele>
<time>2024-05-12T12:18:28Z</time>
</trkpt>
<trkpt lat="48.82547378540039" lon="9.330283161252735">
<ele>243.4</ele>
<time>2024-05-12T12:18:29Z</time>
</trkpt>
<trkpt lat="48.82545844651759" lon="9.330311743542552">
<ele>243.4</ele>
<time>2024-05-12T12:18:30Z</time>
</trkpt>
<trkpt lat="48.825443191453815" lon="9.33035373687744">
<ele>243.4</ele>
<time>2024-05-12T12:18:31Z</time>
</trkpt>
<trkpt lat="48.82542030885816" lon="9.330408051609991">
<ele>243.2</ele>
<time>2024-05-12T12:18:32Z</time>
</trkpt>
<trkpt lat="48.8253974262625" lon="9.330458594486116">
<ele>243.2</ele>
<time>2024-05-12T12:18:33Z</time>
</trkpt>
<trkpt lat="48.82537454366684" lon="9.330506287515163">
<ele>243</ele>
<time>2024-05-12T12:18:34Z</time>
</trkpt>
<trkpt lat="48.82535166107118" lon="9.330554902553558">
<ele>243.2</ele>
<time>2024-05-12T12:18:35Z</time>
</trkpt>
<trkpt lat="48.82533263415098" lon="9.330601673573256">
<ele>243.2</ele>
<time>2024-05-12T12:18:36Z</time>
</trkpt>
<trkpt lat="48.82531737908721" lon="9.330637883394957">
<ele>243.4</ele>
<time>2024-05-12T12:18:37Z</time>
</trkpt>
<trkpt lat="48.825305895879865" lon="9.330675099045038">
<ele>243.4</ele>
<time>2024-05-12T12:18:38Z</time>
</trkpt>
<trkpt lat="48.82529064081609" lon="9.330717008560896">
<ele>243.6</ele>
<time>2024-05-12T12:18:39Z</time>
</trkpt>
<trkpt lat="48.82527153007686" lon="9.330764701589942">
<ele>243.8</ele>
<time>2024-05-12T12:18:40Z</time>
</trkpt>
<trkpt lat="48.82525627501309" lon="9.33080862276256">
<ele>243.8</ele>
<time>2024-05-12T12:18:41Z</time>
</trkpt>
<trkpt lat="48.825244875624776" lon="9.33084868825972">
<ele>244</ele>
<time>2024-05-12T12:18:42Z</time>
</trkpt>
<trkpt lat="48.82522962056101" lon="9.330886825919151">
<ele>244</ele>
<time>2024-05-12T12:18:43Z</time>
</trkpt>
<trkpt lat="48.82521813735366" lon="9.330923035740852">
<ele>244.2</ele>
<time>2024-05-12T12:18:44Z</time>
</trkpt>
<trkpt lat="48.825206737965345" lon="9.330956395715477">
<ele>244</ele>
<time>2024-05-12T12:18:45Z</time>
</trkpt>
<trkpt lat="48.825195254758" lon="9.3309879116714">
<ele>244</ele>
<time>2024-05-12T12:18:46Z</time>
</trkpt>
<trkpt lat="48.825187627226114" lon="9.331014566123486">
<ele>243.8</ele>
<time>2024-05-12T12:18:47Z</time>
</trkpt>
<trkpt lat="48.82517999969423" lon="9.331038454547524">
<ele>243.6</ele>
<time>2024-05-12T12:18:48Z</time>
</trkpt>
<trkpt lat="48.82517237216234" lon="9.331060331314802">
<ele>243.6</ele>
<time>2024-05-12T12:18:49Z</time>
</trkpt>
<trkpt lat="48.82515711709857" lon="9.331091847270727">
<ele>243.4</ele>
<time>2024-05-12T12:18:50Z</time>
</trkpt>
<trkpt lat="48.82515334524214" lon="9.33112327940762">
<ele>243.2</ele>
<time>2024-05-12T12:18:51Z</time>
</trkpt>
<trkpt lat="48.82513423450291" lon="9.33116619475186">
<ele>243.2</ele>
<time>2024-05-12T12:18:52Z</time>
</trkpt>
<trkpt lat="48.82511512376368" lon="9.331210115924478">
<ele>243</ele>
<time>2024-05-12T12:18:53Z</time>
</trkpt>
<trkpt lat="48.82509224116802" lon="9.331250181421638">
<ele>243</ele>
<time>2024-05-12T12:18:54Z</time>
</trkpt>
<trkpt lat="48.82507321424782" lon="9.33128639124334">
<ele>242.8</ele>
<time>2024-05-12T12:18:55Z</time>
</trkpt>
<trkpt lat="48.82505410350859" lon="9.331330228596926">
<ele>242.6</ele>
<time>2024-05-12T12:18:56Z</time>
</trkpt>
<trkpt lat="48.82503507658839" lon="9.331390326842666">
<ele>242.6</ele>
<time>2024-05-12T12:18:57Z</time>
</trkpt>
<trkpt lat="48.82501596584916" lon="9.331443719565868">
<ele>242.6</ele>
<time>2024-05-12T12:18:58Z</time>
</trkpt>
<trkpt lat="48.82499693892896" lon="9.331491412594914">
<ele>242.4</ele>
<time>2024-05-12T12:18:59Z</time>
</trkpt>
<trkpt lat="48.82498168386519" lon="9.331533405929804">
<ele>242.4</ele>
<time>2024-05-12T12:19:00Z</time>
</trkpt>
<trkpt lat="48.82496642880142" lon="9.331568693742156">
<ele>242.4</ele>
<time>2024-05-12T12:19:01Z</time>
</trkpt>
<trkpt lat="48.82495108991861" lon="9.331602975726128">
<ele>242.6</ele>
<time>2024-05-12T12:19:02Z</time>
</trkpt>
<trkpt lat="48.824932062998414" lon="9.331644969061015">
<ele>242.6</ele>
<time>2024-05-12T12:19:03Z</time>
</trkpt>
<trkpt lat="48.82491680793464" lon="9.331693584099412">
<ele>242.6</ele>
<time>2024-05-12T12:19:04Z</time>
</trkpt>
<trkpt lat="48.82489392533898" lon="9.331743204966187">
<ele>242.6</ele>
<time>2024-05-12T12:19:05Z</time>
</trkpt>
<trkpt lat="48.82487481459975" lon="9.331803303211927">
<ele>242.6</ele>
<time>2024-05-12T12:19:06Z</time>
</trkpt>
<trkpt lat="48.82484816014767" lon="9.33185669593513">
<ele>242.4</ele>
<time>2024-05-12T12:19:07Z</time>
</trkpt>
<trkpt lat="48.82482142187655" lon="9.331912016496062">
<ele>242.6</ele>
<time>2024-05-12T12:19:08Z</time>
</trkpt>
<trkpt lat="48.824794767424464" lon="9.33197496458888">
<ele>242.6</ele>
<time>2024-05-12T12:19:09Z</time>
</trkpt>
<trkpt lat="48.82476802915335" lon="9.332031207159162">
<ele>242.6</ele>
<time>2024-05-12T12:19:10Z</time>
</trkpt>
<trkpt lat="48.82474129088223" lon="9.332088455557823">
<ele>242.6</ele>
<time>2024-05-12T12:19:11Z</time>
</trkpt>
<trkpt lat="48.82472226396203" lon="9.332137070596218">
<ele>242.6</ele>
<time>2024-05-12T12:19:12Z</time>
</trkpt>
<trkpt lat="48.8247031532228" lon="9.332178058102729">
<ele>242.6</ele>
<time>2024-05-12T12:19:13Z</time>
</trkpt>
<trkpt lat="48.824672643095255" lon="9.33223337866366">
<ele>242.6</ele>
<time>2024-05-12T12:19:14Z</time>
</trkpt>
<trkpt lat="48.82463836111128" lon="9.332303032279016">
<ele>242.8</ele>
<time>2024-05-12T12:19:15Z</time>
</trkpt>
<trkpt lat="48.824611622840166" lon="9.33236782439053">
<ele>242.8</ele>
<time>2024-05-12T12:19:16Z</time>
</trkpt>
<trkpt lat="48.82458874024451" lon="9.332429850474">
<ele>243</ele>
<time>2024-05-12T12:19:17Z</time>
</trkpt>
<trkpt lat="48.82456585764885" lon="9.332481315359471">
<ele>243</ele>
<time>2024-05-12T12:19:18Z</time>
</trkpt>
<trkpt lat="48.82454674690962" lon="9.33252808637917">
<ele>243</ele>
<time>2024-05-12T12:19:19Z</time>
</trkpt>
<trkpt lat="48.82452386431396" lon="9.332581479102371">
<ele>243</ele>
<time>2024-05-12T12:19:20Z</time>
</trkpt>
<trkpt lat="48.82450483739376" lon="9.33262531645596">
<ele>243</ele>
<time>2024-05-12T12:19:21Z</time>
</trkpt>
<trkpt lat="48.8244819547981" lon="9.332679715007544">
<ele>243</ele>
<time>2024-05-12T12:19:22Z</time>
</trkpt>
<trkpt lat="48.82445144467056" lon="9.332739813253284">
<ele>243</ele>
<time>2024-05-12T12:19:23Z</time>
</trkpt>
<trkpt lat="48.82442085072398" lon="9.332797983661294">
<ele>243</ele>
<time>2024-05-12T12:19:24Z</time>
</trkpt>
<trkpt lat="48.82439796812832" lon="9.332850454375148">
<ele>243</ele>
<time>2024-05-12T12:19:25Z</time>
</trkpt>
<trkpt lat="48.82436368614435" lon="9.332913318648934">
<ele>243.2</ele>
<time>2024-05-12T12:19:26Z</time>
</trkpt>
<trkpt lat="48.824336947873235" lon="9.332975344732404">
<ele>243.2</ele>
<time>2024-05-12T12:19:27Z</time>
</trkpt>
<trkpt lat="48.824314065277576" lon="9.333026809617875">
<ele>243.2</ele>
<time>2024-05-12T12:19:28Z</time>
</trkpt>
<trkpt lat="48.82429881021381" lon="9.333073580637574">
<ele>243.2</ele>
<time>2024-05-12T12:19:29Z</time>
</trkpt>
<trkpt lat="48.824279783293605" lon="9.333126973360775">
<ele>243.2</ele>
<time>2024-05-12T12:19:30Z</time>
</trkpt>
<trkpt lat="48.824260672554374" lon="9.33318137191236">
<ele>243.2</ele>
<time>2024-05-12T12:19:31Z</time>
</trkpt>
<trkpt lat="48.8242454174906" lon="9.33323853649199">
<ele>243.2</ele>
<time>2024-05-12T12:19:32Z</time>
</trkpt>
<trkpt lat="48.82423016242683" lon="9.333286229521036">
<ele>243.2</ele>
<time>2024-05-12T12:19:33Z</time>
</trkpt>
<trkpt lat="48.82421867921949" lon="9.333334844559433">
<ele>243.2</ele>
<time>2024-05-12T12:19:34Z</time>
</trkpt>
<trkpt lat="48.82420342415571" lon="9.333388321101664">
<ele>243.2</ele>
<time>2024-05-12T12:19:35Z</time>
</trkpt>
<trkpt lat="48.824180541560054" lon="9.33343785814941">
<ele>243.2</ele>
<time>2024-05-12T12:19:36Z</time>
</trkpt>
<trkpt lat="48.8241576589644" lon="9.333471218124032">
<ele>243.2</ele>
<time>2024-05-12T12:19:37Z</time>
</trkpt>
<trkpt lat="48.82411574944854" lon="9.333530394360425">
<ele>243.2</ele>
<time>2024-05-12T12:19:38Z</time>
</trkpt>
<trkpt lat="48.82408901117742" lon="9.33357615955174">
<ele>243.2</ele>
<time>2024-05-12T12:19:39Z</time>
</trkpt>
<trkpt lat="48.82405087351799" lon="9.333629552274942">
<ele>243.2</ele>
<time>2024-05-12T12:19:40Z</time>
</trkpt>
<trkpt lat="48.8240088801831" lon="9.333718232810496">
<ele>243.2</ele>
<time>2024-05-12T12:19:41Z</time>
</trkpt>
<trkpt lat="48.82398599758744" lon="9.333781180903316">
<ele>243.2</ele>
<time>2024-05-12T12:19:42Z</time>
</trkpt>
<trkpt lat="48.82395934313536" lon="9.333854606375098">
<ele>243.2</ele>
<time>2024-05-12T12:19:43Z</time>
</trkpt>
<trkpt lat="48.8239364605397" lon="9.333923337981105">
<ele>243.2</ele>
<time>2024-05-12T12:19:44Z</time>
</trkpt>
<trkpt lat="48.823902094736695" lon="9.333994835615158">
<ele>243.2</ele>
<time>2024-05-12T12:19:45Z</time>
</trkpt>
<trkpt lat="48.82387535646558" lon="9.334054933860898">
<ele>243.2</ele>
<time>2024-05-12T12:19:46Z</time>
</trkpt>
<trkpt lat="48.823844846338034" lon="9.334114948287606">
<ele>243</ele>
<time>2024-05-12T12:19:47Z</time>
</trkpt>
<trkpt lat="48.82381433621049" lon="9.334177896380424">
<ele>243</ele>
<time>2024-05-12T12:19:48Z</time>
</trkpt>
<trkpt lat="48.823783826082945" lon="9.334237994626164">
<ele>243</ele>
<time>2024-05-12T12:19:49Z</time>
</trkpt>
<trkpt lat="48.8237533159554" lon="9.334298092871904">
<ele>243</ele>
<time>2024-05-12T12:19:50Z</time>
</trkpt>
<trkpt lat="48.82372657768428" lon="9.334356263279917">
<ele>243</ele>
<time>2024-05-12T12:19:51Z</time>
</trkpt>
<trkpt lat="48.8236999232322" lon="9.334413511678576">
<ele>242.8</ele>
<time>2024-05-12T12:19:52Z</time>
</trkpt>
<trkpt lat="48.82368081249297" lon="9.334467826411128">
<ele>242.8</ele>
<time>2024-05-12T12:19:53Z</time>
</trkpt>
<trkpt lat="48.823665557429194" lon="9.334518369287252">
<ele>242.8</ele>
<time>2024-05-12T12:19:54Z</time>
</trkpt>
<trkpt lat="48.82365030236542" lon="9.33456321246922">
<ele>242.6</ele>
<time>2024-05-12T12:19:55Z</time>
</trkpt>
<trkpt lat="48.82363504730165" lon="9.334608055651188">
<ele>242.6</ele>
<time>2024-05-12T12:19:56Z</time>
</trkpt>
<trkpt lat="48.82361216470599" lon="9.334656670689585">
<ele>242.6</ele>
<time>2024-05-12T12:19:57Z</time>
</trkpt>
<trkpt lat="48.82358928211033" lon="9.334705285727978">
<ele>242.4</ele>
<time>2024-05-12T12:19:58Z</time>
</trkpt>
<trkpt lat="48.82355491630733" lon="9.334745351225138">
<ele>242.4</ele>
<time>2024-05-12T12:19:59Z</time>
</trkpt>
<trkpt lat="48.823524406179786" lon="9.33477971702814">
<ele>242.2</ele>
<time>2024-05-12T12:20:00Z</time>
</trkpt>
<trkpt lat="48.823486268520355" lon="9.334811149165034">
<ele>242.2</ele>
<time>2024-05-12T12:20:01Z</time>
</trkpt>
<trkpt lat="48.8234443590045" lon="9.334848364815116">
<ele>242.2</ele>
<time>2024-05-12T12:20:02Z</time>
</trkpt>
<trkpt lat="48.82339473813772" lon="9.334890358150004">
<ele>242</ele>
<time>2024-05-12T12:20:03Z</time>
</trkpt>
<trkpt lat="48.823348972946405" lon="9.334933273494244">
<ele>242</ele>
<time>2024-05-12T12:20:04Z</time>
</trkpt>
<trkpt lat="48.82330320775509" lon="9.33497803285718">
<ele>242</ele>
<time>2024-05-12T12:20:05Z</time>
</trkpt>
<trkpt lat="48.82325744256377" lon="9.3350219540298">
<ele>242</ele>
<time>2024-05-12T12:20:06Z</time>
</trkpt>
<trkpt lat="48.82321544922888" lon="9.335062941536307">
<ele>242</ele>
<time>2024-05-12T12:20:07Z</time>
</trkpt>
<trkpt lat="48.82317345589399" lon="9.335100157186387">
<ele>242</ele>
<time>2024-05-12T12:20:08Z</time>
</trkpt>
<trkpt lat="48.823131546378136" lon="9.335131589323282">
<ele>242.2</ele>
<time>2024-05-12T12:20:09Z</time>
</trkpt>
<trkpt lat="48.82308192551136" lon="9.335164949297903">
<ele>242.2</ele>
<time>2024-05-12T12:20:10Z</time>
</trkpt>
<trkpt lat="48.82303993217647" lon="9.33519646525383">
<ele>242.4</ele>
<time>2024-05-12T12:20:11Z</time>
</trkpt>
<trkpt lat="48.82299039512873" lon="9.335225047543643">
<ele>242.6</ele>
<time>2024-05-12T12:20:12Z</time>
</trkpt>
<trkpt lat="48.82294462993741" lon="9.335253713652492">
<ele>242.6</ele>
<time>2024-05-12T12:20:13Z</time>
</trkpt>
<trkpt lat="48.82290263660252" lon="9.335280368104575">
<ele>242.8</ele>
<time>2024-05-12T12:20:14Z</time>
</trkpt>
<trkpt lat="48.8228568714112" lon="9.335311884060502">
<ele>242.8</ele>
<time>2024-05-12T12:20:15Z</time>
</trkpt>
<trkpt lat="48.822814878076315" lon="9.335341388359666">
<ele>242.8</ele>
<time>2024-05-12T12:20:16Z</time>
</trkpt>
<trkpt lat="48.82276534102857" lon="9.335370054468513">
<ele>243</ele>
<time>2024-05-12T12:20:17Z</time>
</trkpt>
<trkpt lat="48.82271949201822" lon="9.335399558767676">
<ele>243</ele>
<time>2024-05-12T12:20:18Z</time>
</trkpt>
<trkpt lat="48.822673726826906" lon="9.33543006889522">
<ele>243</ele>
<time>2024-05-12T12:20:19Z</time>
</trkpt>
<trkpt lat="48.82263181731105" lon="9.335456807166338">
<ele>243</ele>
<time>2024-05-12T12:20:20Z</time>
</trkpt>
<trkpt lat="48.82258605211973" lon="9.335485389456151">
<ele>243</ele>
<time>2024-05-12T12:20:21Z</time>
</trkpt>
<trkpt lat="48.822540203109384" lon="9.335517827421429">
<ele>243.2</ele>
<time>2024-05-12T12:20:22Z</time>
</trkpt>
<trkpt lat="48.82249443791807" lon="9.3355502653867">
<ele>243.2</ele>
<time>2024-05-12T12:20:23Z</time>
</trkpt>
<trkpt lat="48.82244490087032" lon="9.335581697523594">
<ele>243.4</ele>
<time>2024-05-12T12:20:24Z</time>
</trkpt>
<trkpt lat="48.82239913567901" lon="9.33561036363244">
<ele>243.4</ele>
<time>2024-05-12T12:20:25Z</time>
</trkpt>
<trkpt lat="48.82235328666866" lon="9.335639951750636">
<ele>243.6</ele>
<time>2024-05-12T12:20:26Z</time>
</trkpt>
<trkpt lat="48.82230752147734" lon="9.33567138388753">
<ele>243.8</ele>
<time>2024-05-12T12:20:27Z</time>
</trkpt>
<trkpt lat="48.822261756286025" lon="9.335702816024424">
<ele>244</ele>
<time>2024-05-12T12:20:28Z</time>
</trkpt>
<trkpt lat="48.82221221923828" lon="9.33573148213327">
<ele>244</ele>
<time>2024-05-12T12:20:29Z</time>
</trkpt>
<trkpt lat="48.82216637022793" lon="9.335758136585357">
<ele>244.2</ele>
<time>2024-05-12T12:20:30Z</time>
</trkpt>
<trkpt lat="48.822120605036616" lon="9.33578965254128">
<ele>244.2</ele>
<time>2024-05-12T12:20:31Z</time>
</trkpt>
<trkpt lat="48.8220748398453" lon="9.33582686819136">
<ele>244.2</ele>
<time>2024-05-12T12:20:32Z</time>
</trkpt>
<trkpt lat="48.82202521897853" lon="9.335861150175331">
<ele>244.2</ele>
<time>2024-05-12T12:20:33Z</time>
</trkpt>
<trkpt lat="48.82197182625532" lon="9.335891660302876">
<ele>244.4</ele>
<time>2024-05-12T12:20:34Z</time>
</trkpt>
<trkpt lat="48.821926061064005" lon="9.335918398573996">
<ele>244.4</ele>
<time>2024-05-12T12:20:35Z</time>
</trkpt>
<trkpt lat="48.82187652401626" lon="9.33594505302608">
<ele>244.4</ele>
<time>2024-05-12T12:20:36Z</time>
</trkpt>
<trkpt lat="48.82183453068137" lon="9.335973719134929">
<ele>244.4</ele>
<time>2024-05-12T12:20:37Z</time>
</trkpt>
<trkpt lat="48.82178490981459" lon="9.336001379415393">
<ele>244.4</ele>
<time>2024-05-12T12:20:38Z</time>
</trkpt>
<trkpt lat="48.82174300029874" lon="9.336031889542936">
<ele>244.4</ele>
<time>2024-05-12T12:20:39Z</time>
</trkpt>
<trkpt lat="48.82169723510742" lon="9.336058543995025">
<ele>244.4</ele>
<time>2024-05-12T12:20:40Z</time>
</trkpt>
<trkpt lat="48.821651386097074" lon="9.336086204275489">
<ele>244.2</ele>
<time>2024-05-12T12:20:41Z</time>
</trkpt>
<trkpt lat="48.821609476581216" lon="9.336114870384336">
<ele>244.2</ele>
<time>2024-05-12T12:20:42Z</time>
</trkpt>
<trkpt lat="48.8215637113899" lon="9.336148230358958">
<ele>244</ele>
<time>2024-05-12T12:20:43Z</time>
</trkpt>
<trkpt lat="48.82151786237955" lon="9.33618351817131">
<ele>243.8</ele>
<time>2024-05-12T12:20:44Z</time>
</trkpt>
<trkpt lat="48.821472097188234" lon="9.336217800155282">
<ele>243.8</ele>
<time>2024-05-12T12:20:45Z</time>
</trkpt>
<trkpt lat="48.82143018767238" lon="9.336248394101858">
<ele>243.6</ele>
<time>2024-05-12T12:20:46Z</time>
</trkpt>
<trkpt lat="48.82138819433749" lon="9.33628175407648">
<ele>243.6</ele>
<time>2024-05-12T12:20:47Z</time>
</trkpt>
<trkpt lat="48.82134242914617" lon="9.336317041888831">
<ele>243.6</ele>
<time>2024-05-12T12:20:48Z</time>
</trkpt>
<trkpt lat="48.82130043581128" lon="9.336351323872805">
<ele>243.6</ele>
<time>2024-05-12T12:20:49Z</time>
</trkpt>
<trkpt lat="48.82125852629542" lon="9.336389461532235">
<ele>243.6</ele>
<time>2024-05-12T12:20:50Z</time>
</trkpt>
<trkpt lat="48.821216532960534" lon="9.336431454867125">
<ele>243.8</ele>
<time>2024-05-12T12:20:51Z</time>
</trkpt>
<trkpt lat="48.821174539625645" lon="9.336469592526557">
<ele>243.8</ele>
<time>2024-05-12T12:20:52Z</time>
</trkpt>
<trkpt lat="48.82113263010979" lon="9.336504880338907">
<ele>243.8</ele>
<time>2024-05-12T12:20:53Z</time>
</trkpt>
<trkpt lat="48.82108686491847" lon="9.336542095988989">
<ele>244</ele>
<time>2024-05-12T12:20:54Z</time>
</trkpt>
<trkpt lat="48.82104487158358" lon="9.336574533954265">
<ele>244</ele>
<time>2024-05-12T12:20:55Z</time>
</trkpt>
<trkpt lat="48.82100287824869" lon="9.336603116244078">
<ele>244</ele>
<time>2024-05-12T12:20:56Z</time>
</trkpt>
<trkpt lat="48.820957113057375" lon="9.336631698533893">
<ele>244</ele>
<time>2024-05-12T12:20:57Z</time>
</trkpt>
<trkpt lat="48.82090757600963" lon="9.336661286652088">
<ele>244.2</ele>
<time>2024-05-12T12:20:58Z</time>
</trkpt>
<trkpt lat="48.820861810818315" lon="9.336683247238398">
<ele>244.2</ele>
<time>2024-05-12T12:20:59Z</time>
</trkpt>
<trkpt lat="48.82080833427608" lon="9.33669850230217">
<ele>244.2</ele>
<time>2024-05-12T12:21:00Z</time>
</trkpt>
<trkpt lat="48.82075494155288" lon="9.336713757365942">
<ele>244.2</ele>
<time>2024-05-12T12:21:01Z</time>
</trkpt>
<trkpt lat="48.82069777697325" lon="9.336731862276793">
<ele>244.4</ele>
<time>2024-05-12T12:21:02Z</time>
</trkpt>
<trkpt lat="48.82064430043101" lon="9.33675281703472">
<ele>244.6</ele>
<time>2024-05-12T12:21:03Z</time>
</trkpt>
<trkpt lat="48.82059090770781" lon="9.3367728497833">
<ele>244.6</ele>
<time>2024-05-12T12:21:04Z</time>
</trkpt>
<trkpt lat="48.82054137066007" lon="9.336790032684805">
<ele>244.6</ele>
<time>2024-05-12T12:21:05Z</time>
</trkpt>
<trkpt lat="48.82049174979329" lon="9.336805287748575">
<ele>244.6</ele>
<time>2024-05-12T12:21:06Z</time>
</trkpt>
<trkpt lat="48.82043835707009" lon="9.336821548640728">
<ele>244.6</ele>
<time>2024-05-12T12:21:07Z</time>
</trkpt>
<trkpt lat="48.82038873620331" lon="9.33683487586677">
<ele>244.6</ele>
<time>2024-05-12T12:21:08Z</time>
</trkpt>
<trkpt lat="48.820342971012" lon="9.336852058768272">
<ele>244.6</ele>
<time>2024-05-12T12:21:09Z</time>
</trkpt>
<trkpt lat="48.82029720582068" lon="9.336870163679125">
<ele>244.6</ele>
<time>2024-05-12T12:21:10Z</time>
</trkpt>
<trkpt lat="48.82025144062936" lon="9.336888268589972">
<ele>244.6</ele>
<time>2024-05-12T12:21:11Z</time>
</trkpt>
<trkpt lat="48.820209447294474" lon="9.336906373500824">
<ele>244.6</ele>
<time>2024-05-12T12:21:12Z</time>
</trkpt>
<trkpt lat="48.82016368210316" lon="9.336926406249404">
<ele>244.6</ele>
<time>2024-05-12T12:21:13Z</time>
</trkpt>
<trkpt lat="48.82012168876827" lon="9.336951216682792">
<ele>244.8</ele>
<time>2024-05-12T12:21:14Z</time>
</trkpt>
<trkpt lat="48.82007977925241" lon="9.336979798972608">
<ele>244.8</ele>
<time>2024-05-12T12:21:15Z</time>
</trkpt>
<trkpt lat="48.82003401406109" lon="9.337004609405994">
<ele>245</ele>
<time>2024-05-12T12:21:16Z</time>
</trkpt>
<trkpt lat="48.81998824886978" lon="9.337024642154574">
<ele>245.2</ele>
<time>2024-05-12T12:21:17Z</time>
</trkpt>
<trkpt lat="48.819950027391315" lon="9.337037969380615">
<ele>245.2</ele>
<time>2024-05-12T12:21:18Z</time>
</trkpt>
<trkpt lat="48.81990811787546" lon="9.337046602740884">
<ele>245.4</ele>
<time>2024-05-12T12:21:19Z</time>
</trkpt>
<trkpt lat="48.81987375207245" lon="9.337063785642384">
<ele>245.4</ele>
<time>2024-05-12T12:21:20Z</time>
</trkpt>
<trkpt lat="48.819850869476795" lon="9.337086668238044">
<ele>245.4</ele>
<time>2024-05-12T12:21:21Z</time>
</trkpt>
<trkpt lat="48.81983184255659" lon="9.337120028212668">
<ele>245.6</ele>
<time>2024-05-12T12:21:22Z</time>
</trkpt>
<trkpt lat="48.819816587492824" lon="9.337162943556905">
<ele>245.6</ele>
<time>2024-05-12T12:21:23Z</time>
</trkpt>
<trkpt lat="48.81980895996094" lon="9.337218264117835">
<ele>245.6</ele>
<time>2024-05-12T12:21:24Z</time>
</trkpt>
<trkpt lat="48.81980124861002" lon="9.337278362363575">
<ele>245.6</ele>
<time>2024-05-12T12:21:25Z</time>
</trkpt>
<trkpt lat="48.819789849221706" lon="9.337343154475093">
<ele>245.4</ele>
<time>2024-05-12T12:21:26Z</time>
</trkpt>
<trkpt lat="48.81978222168982" lon="9.33740995824337">
<ele>245.4</ele>
<time>2024-05-12T12:21:27Z</time>
</trkpt>
<trkpt lat="48.81977836601436" lon="9.337476678192616">
<ele>245.2</ele>
<time>2024-05-12T12:21:28Z</time>
</trkpt>
<trkpt lat="48.819770738482475" lon="9.337541554123163">
<ele>245.2</ele>
<time>2024-05-12T12:21:29Z</time>
</trkpt>
<trkpt lat="48.81976311095059" lon="9.3376034963876">
<ele>245.2</ele>
<time>2024-05-12T12:21:30Z</time>
</trkpt>
<trkpt lat="48.81975171156227" lon="9.33766359463334">
<ele>245</ele>
<time>2024-05-12T12:21:31Z</time>
</trkpt>
<trkpt lat="48.81974785588682" lon="9.33772654272616">
<ele>245</ele>
<time>2024-05-12T12:21:32Z</time>
</trkpt>
<trkpt lat="48.81974022835493" lon="9.337788568809628">
<ele>245</ele>
<time>2024-05-12T12:21:33Z</time>
</trkpt>
<trkpt lat="48.819732600823045" lon="9.337849589064716">
<ele>244.8</ele>
<time>2024-05-12T12:21:34Z</time>
</trkpt>
<trkpt lat="48.81972497329116" lon="9.337911531329157">
<ele>244.8</ele>
<time>2024-05-12T12:21:35Z</time>
</trkpt>
<trkpt lat="48.81971734575927" lon="9.337971629574897">
<ele>244.8</ele>
<time>2024-05-12T12:21:36Z</time>
</trkpt>
<trkpt lat="48.81970971822739" lon="9.338029799982904">
<ele>244.8</ele>
<time>2024-05-12T12:21:37Z</time>
</trkpt>
<trkpt lat="48.81970594637096" lon="9.338093753904104">
<ele>244.8</ele>
<time>2024-05-12T12:21:38Z</time>
</trkpt>
<trkpt lat="48.81969831883907" lon="9.33815854601562">
<ele>244.8</ele>
<time>2024-05-12T12:21:39Z</time>
</trkpt>
<trkpt lat="48.81968683563173" lon="9.338225349783896">
<ele>244.8</ele>
<time>2024-05-12T12:21:40Z</time>
</trkpt>
<trkpt lat="48.81967920809984" lon="9.33829491958022">
<ele>244.8</ele>
<time>2024-05-12T12:21:41Z</time>
</trkpt>
<trkpt lat="48.819675436243415" lon="9.338366501033306">
<ele>244.8</ele>
<time>2024-05-12T12:21:42Z</time>
</trkpt>
<trkpt lat="48.819675436243415" lon="9.33843707665801">
<ele>245</ele>
<time>2024-05-12T12:21:43Z</time>
</trkpt>
<trkpt lat="48.81967920809984" lon="9.338501868769526">
<ele>245</ele>
<time>2024-05-12T12:21:44Z</time>
</trkpt>
<trkpt lat="48.81969069130719" lon="9.338561967015266">
<ele>245</ele>
<time>2024-05-12T12:21:45Z</time>
</trkpt>
<trkpt lat="48.8197020906955" lon="9.338618209585547">
<ele>245.2</ele>
<time>2024-05-12T12:21:46Z</time>
</trkpt>
<trkpt lat="48.81971734575927" lon="9.33867353014648">
<ele>245.2</ele>
<time>2024-05-12T12:21:47Z</time>
</trkpt>
<trkpt lat="48.819736456498504" lon="9.338723151013255">
<ele>245.2</ele>
<time>2024-05-12T12:21:48Z</time>
</trkpt>
<trkpt lat="48.81975171156227" lon="9.33877176605165">
<ele>245.2</ele>
<time>2024-05-12T12:21:49Z</time>
</trkpt>
<trkpt lat="48.8197554834187" lon="9.338820381090043">
<ele>245.2</ele>
<time>2024-05-12T12:21:50Z</time>
</trkpt>
<trkpt lat="48.81974785588682" lon="9.33887000195682">
<ele>245.2</ele>
<time>2024-05-12T12:21:51Z</time>
</trkpt>
<trkpt lat="48.819732600823045" lon="9.338916772976518">
<ele>245.2</ele>
<time>2024-05-12T12:21:52Z</time>
</trkpt>
<trkpt lat="48.819713573902845" lon="9.338965388014913">
<ele>245.2</ele>
<time>2024-05-12T12:21:53Z</time>
</trkpt>
<trkpt lat="48.81969831883907" lon="9.339014925062656">
<ele>245.2</ele>
<time>2024-05-12T12:21:54Z</time>
</trkpt>
<trkpt lat="48.8196830637753" lon="9.339063623920085">
<ele>245</ele>
<time>2024-05-12T12:21:55Z</time>
</trkpt>
<trkpt lat="48.81966395303607" lon="9.339117016643286">
<ele>244.8</ele>
<time>2024-05-12T12:21:56Z</time>
</trkpt>
<trkpt lat="48.81964107044041" lon="9.339176109060643">
<ele>244.8</ele>
<time>2024-05-12T12:21:57Z</time>
</trkpt>
<trkpt lat="48.81961818784475" lon="9.339240062981844">
<ele>244.8</ele>
<time>2024-05-12T12:21:58Z</time>
</trkpt>
<trkpt lat="48.81959144957363" lon="9.339303011074662">
<ele>244.8</ele>
<time>2024-05-12T12:21:59Z</time>
</trkpt>
<trkpt lat="48.81956479512155" lon="9.339374508708715">
<ele>244.8</ele>
<time>2024-05-12T12:22:00Z</time>
</trkpt>
<trkpt lat="48.819534284994006" lon="9.339447934180498">
<ele>244.6</ele>
<time>2024-05-12T12:22:01Z</time>
</trkpt>
<trkpt lat="48.81950377486646" lon="9.33952135965228">
<ele>244.6</ele>
<time>2024-05-12T12:22:02Z</time>
</trkpt>
<trkpt lat="48.81946940906346" lon="9.339598640799522">
<ele>244.6</ele>
<time>2024-05-12T12:22:03Z</time>
</trkpt>
<trkpt lat="48.81943127140403" lon="9.33967868797481">
<ele>244.4</ele>
<time>2024-05-12T12:22:04Z</time>
</trkpt>
<trkpt lat="48.8193931337446" lon="9.339753119274974">
<ele>244.2</ele>
<time>2024-05-12T12:22:05Z</time>
</trkpt>
<trkpt lat="48.81935499608517" lon="9.339830316603184">
<ele>244</ele>
<time>2024-05-12T12:22:06Z</time>
</trkpt>
<trkpt lat="48.81932063028216" lon="9.339906675741076">
<ele>243.8</ele>
<time>2024-05-12T12:22:07Z</time>
</trkpt>
<trkpt lat="48.81929012015462" lon="9.339982029050589">
<ele>243.6</ele>
<time>2024-05-12T12:22:08Z</time>
</trkpt>
<trkpt lat="48.819255754351616" lon="9.340055454522371">
<ele>243.4</ele>
<time>2024-05-12T12:22:09Z</time>
</trkpt>
<trkpt lat="48.81922147236765" lon="9.340129802003505">
<ele>243.2</ele>
<time>2024-05-12T12:22:10Z</time>
</trkpt>
<trkpt lat="48.8191909622401" lon="9.340207083150744">
<ele>243</ele>
<time>2024-05-12T12:22:11Z</time>
</trkpt>
<trkpt lat="48.81916045211256" lon="9.340283358469604">
<ele>243</ele>
<time>2024-05-12T12:22:12Z</time>
</trkpt>
<trkpt lat="48.81912994198501" lon="9.340358711779118">
<ele>242.8</ele>
<time>2024-05-12T12:22:13Z</time>
</trkpt>
<trkpt lat="48.81909557618201" lon="9.34043020941317">
<ele>242.8</ele>
<time>2024-05-12T12:22:14Z</time>
</trkpt>
<trkpt lat="48.81906506605446" lon="9.340504640713334">
<ele>242.8</ele>
<time>2024-05-12T12:22:15Z</time>
</trkpt>
<trkpt lat="48.81903455592692" lon="9.340578066185117">
<ele>242.8</ele>
<time>2024-05-12T12:22:16Z</time>
</trkpt>
<trkpt lat="48.819004045799375" lon="9.3406514916569">
<ele>242.8</ele>
<time>2024-05-12T12:22:17Z</time>
</trkpt>
<trkpt lat="48.81897730752826" lon="9.340726844966412">
<ele>242.8</ele>
<time>2024-05-12T12:22:18Z</time>
</trkpt>
<trkpt lat="48.81895065307617" lon="9.340798342600465">
<ele>242.8</ele>
<time>2024-05-12T12:22:19Z</time>
</trkpt>
<trkpt lat="48.818923914805055" lon="9.34086699038744">
<ele>242.8</ele>
<time>2024-05-12T12:22:20Z</time>
</trkpt>
<trkpt lat="48.81889717653394" lon="9.340934716165066">
<ele>242.8</ele>
<time>2024-05-12T12:22:21Z</time>
</trkpt>
<trkpt lat="48.81887052208185" lon="9.341001436114311">
<ele>242.8</ele>
<time>2024-05-12T12:22:22Z</time>
</trkpt>
<trkpt lat="48.818843783810735" lon="9.341068239882588">
<ele>243</ele>
<time>2024-05-12T12:22:23Z</time>
</trkpt>
<trkpt lat="48.81882090121507" lon="9.341133115813136">
<ele>243</ele>
<time>2024-05-12T12:22:24Z</time>
</trkpt>
<trkpt lat="48.81879424676299" lon="9.341197907924652">
<ele>243</ele>
<time>2024-05-12T12:22:25Z</time>
</trkpt>
<trkpt lat="48.818767508491874" lon="9.34126471169293">
<ele>243</ele>
<time>2024-05-12T12:22:26Z</time>
</trkpt>
<trkpt lat="48.81874077022076" lon="9.341333359479904">
<ele>243</ele>
<time>2024-05-12T12:22:27Z</time>
</trkpt>
<trkpt lat="48.8187178876251" lon="9.34140200726688">
<ele>242.8</ele>
<time>2024-05-12T12:22:28Z</time>
</trkpt>
<trkpt lat="48.81869123317301" lon="9.341469733044503">
<ele>242.8</ele>
<time>2024-05-12T12:22:29Z</time>
</trkpt>
<trkpt lat="48.818668350577354" lon="9.341527903452516">
<ele>242.8</ele>
<time>2024-05-12T12:22:30Z</time>
</trkpt>
<trkpt lat="48.81864161230624" lon="9.341573668643832">
<ele>242.6</ele>
<time>2024-05-12T12:22:31Z</time>
</trkpt>
<trkpt lat="48.81861110217869" lon="9.341608034446836">
<ele>242.6</ele>
<time>2024-05-12T12:22:32Z</time>
</trkpt>
<trkpt lat="48.81857296451926" lon="9.34161658398807">
<ele>242.4</ele>
<time>2024-05-12T12:22:33Z</time>
</trkpt>
<trkpt lat="48.81853859871626" lon="9.34161658398807">
<ele>242.4</ele>
<time>2024-05-12T12:22:34Z</time>
</trkpt>
<trkpt lat="48.81850431673229" lon="9.341613734140992">
<ele>242.4</ele>
<time>2024-05-12T12:22:35Z</time>
</trkpt>
<trkpt lat="48.81846617907286" lon="9.3416185118258">
<ele>242.4</ele>
<time>2024-05-12T12:22:36Z</time>
</trkpt>
<trkpt lat="48.81843566894531" lon="9.341646172106266">
<ele>242.4</ele>
<time>2024-05-12T12:22:37Z</time>
</trkpt>
<trkpt lat="48.81841655820608" lon="9.34169478714466">
<ele>242.2</ele>
<time>2024-05-12T12:22:38Z</time>
</trkpt>
<trkpt lat="48.81839367561042" lon="9.341752035543324">
<ele>242</ele>
<time>2024-05-12T12:22:39Z</time>
</trkpt>
<trkpt lat="48.818370793014765" lon="9.34181498363614">
<ele>242</ele>
<time>2024-05-12T12:22:40Z</time>
</trkpt>
<trkpt lat="48.81834791041911" lon="9.341879775747657">
<ele>242.2</ele>
<time>2024-05-12T12:22:41Z</time>
</trkpt>
<trkpt lat="48.81832502782345" lon="9.341944651678205">
<ele>242.4</ele>
<time>2024-05-12T12:22:42Z</time>
</trkpt>
<trkpt lat="48.81830214522779" lon="9.342009527608752">
<ele>242.4</ele>
<time>2024-05-12T12:22:43Z</time>
</trkpt>
<trkpt lat="48.81827926263213" lon="9.34207339771092">
<ele>242.6</ele>
<time>2024-05-12T12:22:44Z</time>
</trkpt>
<trkpt lat="48.81825629621744" lon="9.342140117660165">
<ele>242.6</ele>
<time>2024-05-12T12:22:45Z</time>
</trkpt>
<trkpt lat="48.81823341362178" lon="9.342203065752985">
<ele>242.6</ele>
<time>2024-05-12T12:22:46Z</time>
</trkpt>
<trkpt lat="48.818210531026125" lon="9.34226794168353">
<ele>242.6</ele>
<time>2024-05-12T12:22:47Z</time>
</trkpt>
<trkpt lat="48.81818764843047" lon="9.342331811785698">
<ele>242.8</ele>
<time>2024-05-12T12:22:48Z</time>
</trkpt>
<trkpt lat="48.81816476583481" lon="9.342391910031438">
<ele>243</ele>
<time>2024-05-12T12:22:49Z</time>
</trkpt>
<trkpt lat="48.81814188323915" lon="9.342452930286528">
<ele>243</ele>
<time>2024-05-12T12:22:50Z</time>
</trkpt>
<trkpt lat="48.81811900064349" lon="9.342514956369996">
<ele>243.2</ele>
<time>2024-05-12T12:22:51Z</time>
</trkpt>
<trkpt lat="48.81809997372329" lon="9.342577904462814">
<ele>243.2</ele>
<time>2024-05-12T12:22:52Z</time>
</trkpt>
<trkpt lat="48.8180770073086" lon="9.34264177456498">
<ele>243.4</ele>
<time>2024-05-12T12:22:53Z</time>
</trkpt>
<trkpt lat="48.818054124712944" lon="9.3427047226578">
<ele>243.4</ele>
<time>2024-05-12T12:22:54Z</time>
</trkpt>
<trkpt lat="48.818031242117286" lon="9.342766748741267">
<ele>243.4</ele>
<time>2024-05-12T12:22:55Z</time>
</trkpt>
<trkpt lat="48.81800835952163" lon="9.342829696834087">
<ele>243.4</ele>
<time>2024-05-12T12:22:56Z</time>
</trkpt>
<trkpt lat="48.81798547692597" lon="9.342893566936256">
<ele>243.4</ele>
<time>2024-05-12T12:22:57Z</time>
</trkpt>
<trkpt lat="48.81796645000577" lon="9.342958442866802">
<ele>243.4</ele>
<time>2024-05-12T12:22:58Z</time>
</trkpt>
<trkpt lat="48.81794356741011" lon="9.343025162816048">
<ele>243.4</ele>
<time>2024-05-12T12:22:59Z</time>
</trkpt>
<trkpt lat="48.81792831234634" lon="9.343092888593674">
<ele>243.4</ele>
<time>2024-05-12T12:23:00Z</time>
</trkpt>
<trkpt lat="48.81790920160711" lon="9.34315960854292">
<ele>243.4</ele>
<time>2024-05-12T12:23:01Z</time>
</trkpt>
<trkpt lat="48.81789771839976" lon="9.343226412311196">
<ele>243.4</ele>
<time>2024-05-12T12:23:02Z</time>
</trkpt>
<trkpt lat="48.81788246333599" lon="9.34329983778298">
<ele>243.6</ele>
<time>2024-05-12T12:23:03Z</time>
</trkpt>
<trkpt lat="48.81787106394768" lon="9.343377035111187">
<ele>243.6</ele>
<time>2024-05-12T12:23:04Z</time>
</trkpt>
<trkpt lat="48.81785195320845" lon="9.34345523826778">
<ele>243.6</ele>
<time>2024-05-12T12:23:05Z</time>
</trkpt>
<trkpt lat="48.817836698144674" lon="9.343538219109178">
<ele>243.6</ele>
<time>2024-05-12T12:23:06Z</time>
</trkpt>
<trkpt lat="48.817817671224475" lon="9.343623127788304">
<ele>243.6</ele>
<time>2024-05-12T12:23:07Z</time>
</trkpt>
<trkpt lat="48.81779478862882" lon="9.343708036467431">
<ele>243.6</ele>
<time>2024-05-12T12:23:08Z</time>
</trkpt>
<trkpt lat="48.817775677889585" lon="9.34379193931818">
<ele>243.6</ele>
<time>2024-05-12T12:23:09Z</time>
</trkpt>
<trkpt lat="48.817756650969386" lon="9.343874920159578">
<ele>243.6</ele>
<time>2024-05-12T12:23:10Z</time>
</trkpt>
<trkpt lat="48.817737540230155" lon="9.343957901000977">
<ele>243.6</ele>
<time>2024-05-12T12:23:11Z</time>
</trkpt>
<trkpt lat="48.81771842949093" lon="9.344039876013994">
<ele>243.4</ele>
<time>2024-05-12T12:23:12Z</time>
</trkpt>
<trkpt lat="48.81769940257072" lon="9.344121851027012">
<ele>243.4</ele>
<time>2024-05-12T12:23:13Z</time>
</trkpt>
<trkpt lat="48.81768029183149" lon="9.344200054183602">
<ele>243.4</ele>
<time>2024-05-12T12:23:14Z</time>
</trkpt>
<trkpt lat="48.817661264911294" lon="9.344278257340193">
<ele>243.4</ele>
<time>2024-05-12T12:23:15Z</time>
</trkpt>
<trkpt lat="48.81764600984752" lon="9.344358388334513">
<ele>243.4</ele>
<time>2024-05-12T12:23:16Z</time>
</trkpt>
<trkpt lat="48.81762689910829" lon="9.344440447166562">
<ele>243.4</ele>
<time>2024-05-12T12:23:17Z</time>
</trkpt>
<trkpt lat="48.81761164404452" lon="9.34452150017023">
<ele>243.4</ele>
<time>2024-05-12T12:23:18Z</time>
</trkpt>
<trkpt lat="48.81759261712432" lon="9.34460163116455">
<ele>243.2</ele>
<time>2024-05-12T12:23:19Z</time>
</trkpt>
<trkpt lat="48.81757350638509" lon="9.34467975050211">
<ele>243.2</ele>
<time>2024-05-12T12:23:20Z</time>
</trkpt>
<trkpt lat="48.81756202317774" lon="9.34475988149643">
<ele>243.2</ele>
<time>2024-05-12T12:23:21Z</time>
</trkpt>
<trkpt lat="48.81755439564586" lon="9.34483808465302">
<ele>243.2</ele>
<time>2024-05-12T12:23:22Z</time>
</trkpt>
<trkpt lat="48.81754676811397" lon="9.34491628780961">
<ele>243.2</ele>
<time>2024-05-12T12:23:23Z</time>
</trkpt>
<trkpt lat="48.817539140582085" lon="9.344991641119124">
<ele>243.2</ele>
<time>2024-05-12T12:23:24Z</time>
</trkpt>
<trkpt lat="48.8175315130502" lon="9.345067916437984">
<ele>243.2</ele>
<time>2024-05-12T12:23:25Z</time>
</trkpt>
<trkpt lat="48.817520113661885" lon="9.345143269747496">
<ele>243.2</ele>
<time>2024-05-12T12:23:26Z</time>
</trkpt>
<trkpt lat="48.81750863045454" lon="9.345216695219278">
<ele>243.4</ele>
<time>2024-05-12T12:23:27Z</time>
</trkpt>
<trkpt lat="48.81749723106623" lon="9.34529204852879">
<ele>243.4</ele>
<time>2024-05-12T12:23:28Z</time>
</trkpt>
<trkpt lat="48.81748960353434" lon="9.345364551991224">
<ele>243.4</ele>
<time>2024-05-12T12:23:29Z</time>
</trkpt>
<trkpt lat="48.817481976002455" lon="9.345436971634626">
<ele>243.4</ele>
<time>2024-05-12T12:23:30Z</time>
</trkpt>
<trkpt lat="48.81747434847057" lon="9.345506625249982">
<ele>243.4</ele>
<time>2024-05-12T12:23:31Z</time>
</trkpt>
<trkpt lat="48.81746672093868" lon="9.345578122884037">
<ele>243.6</ele>
<time>2024-05-12T12:23:32Z</time>
</trkpt>
<trkpt lat="48.81745523773134" lon="9.34564869850874">
<ele>243.6</ele>
<time>2024-05-12T12:23:33Z</time>
</trkpt>
<trkpt lat="48.81744761019945" lon="9.345721201971172">
<ele>243.6</ele>
<time>2024-05-12T12:23:34Z</time>
</trkpt>
<trkpt lat="48.81743621081114" lon="9.345791777595878">
<ele>243.6</ele>
<time>2024-05-12T12:23:35Z</time>
</trkpt>
<trkpt lat="48.81742472760379" lon="9.345861431211231">
<ele>243.6</ele>
<time>2024-05-12T12:23:36Z</time>
</trkpt>
<trkpt lat="48.817401845008135" lon="9.345932006835938">
<ele>243.6</ele>
<time>2024-05-12T12:23:37Z</time>
</trkpt>
<trkpt lat="48.81737896241248" lon="9.34598824940622">
<ele>243.6</ele>
<time>2024-05-12T12:23:38Z</time>
</trkpt>
<trkpt lat="48.81735222414136" lon="9.34604356996715">
<ele>243.6</ele>
<time>2024-05-12T12:23:39Z</time>
</trkpt>
<trkpt lat="48.817325569689274" lon="9.346093107014894">
<ele>243.6</ele>
<time>2024-05-12T12:23:40Z</time>
</trkpt>
<trkpt lat="48.81729505956173" lon="9.3461446557194">
<ele>243.6</ele>
<time>2024-05-12T12:23:41Z</time>
</trkpt>
<trkpt lat="48.81726832129061" lon="9.346199976280332">
<ele>243.6</ele>
<time>2024-05-12T12:23:42Z</time>
</trkpt>
<trkpt lat="48.81724166683853" lon="9.346255296841264">
<ele>243.8</ele>
<time>2024-05-12T12:23:43Z</time>
</trkpt>
<trkpt lat="48.817222556099296" lon="9.346315311267972">
<ele>243.8</ele>
<time>2024-05-12T12:23:44Z</time>
</trkpt>
<trkpt lat="48.81721107289195" lon="9.34638018719852">
<ele>243.8</ele>
<time>2024-05-12T12:23:45Z</time>
</trkpt>
<trkpt lat="48.81719967350364" lon="9.346447912976146">
<ele>244</ele>
<time>2024-05-12T12:23:46Z</time>
</trkpt>
<trkpt lat="48.81719204597175" lon="9.34651656076312">
<ele>244</ele>
<time>2024-05-12T12:23:47Z</time>
</trkpt>
<trkpt lat="48.81719581782818" lon="9.346585208550096">
<ele>244.2</ele>
<time>2024-05-12T12:23:48Z</time>
</trkpt>
<trkpt lat="48.81719967350364" lon="9.346654862165453">
<ele>244.2</ele>
<time>2024-05-12T12:23:49Z</time>
</trkpt>
<trkpt lat="48.81720730103552" lon="9.346725437790155">
<ele>244.2</ele>
<time>2024-05-12T12:23:50Z</time>
</trkpt>
<trkpt lat="48.81721492856741" lon="9.34679500758648">
<ele>244.2</ele>
<time>2024-05-12T12:23:51Z</time>
</trkpt>
<trkpt lat="48.817222556099296" lon="9.346866589039564">
<ele>244.2</ele>
<time>2024-05-12T12:23:52Z</time>
</trkpt>
<trkpt lat="48.81723018363118" lon="9.346941942349076">
<ele>244</ele>
<time>2024-05-12T12:23:53Z</time>
</trkpt>
<trkpt lat="48.81723403930664" lon="9.347016289830208">
<ele>244</ele>
<time>2024-05-12T12:23:54Z</time>
</trkpt>
<trkpt lat="48.81723781116307" lon="9.34709164313972">
<ele>244</ele>
<time>2024-05-12T12:23:55Z</time>
</trkpt>
<trkpt lat="48.81724166683853" lon="9.347166996449232">
<ele>243.8</ele>
<time>2024-05-12T12:23:56Z</time>
</trkpt>
<trkpt lat="48.817245438694954" lon="9.347241343930364">
<ele>243.8</ele>
<time>2024-05-12T12:23:57Z</time>
</trkpt>
<trkpt lat="48.81725306622684" lon="9.347318625077603">
<ele>243.6</ele>
<time>2024-05-12T12:23:58Z</time>
</trkpt>
<trkpt lat="48.8172569219023" lon="9.347392972558737">
<ele>243.6</ele>
<time>2024-05-12T12:23:59Z</time>
</trkpt>
<trkpt lat="48.817264549434185" lon="9.34746639803052">
<ele>243.6</ele>
<time>2024-05-12T12:24:00Z</time>
</trkpt>
<trkpt lat="48.81726832129061" lon="9.347541751340032">
<ele>243.4</ele>
<time>2024-05-12T12:24:01Z</time>
</trkpt>
<trkpt lat="48.8172759488225" lon="9.347615176811814">
<ele>243.4</ele>
<time>2024-05-12T12:24:02Z</time>
</trkpt>
<trkpt lat="48.81727980449796" lon="9.3476867582649">
<ele>243.4</ele>
<time>2024-05-12T12:24:03Z</time>
</trkpt>
<trkpt lat="48.81728743202984" lon="9.347756328061225">
<ele>243.2</ele>
<time>2024-05-12T12:24:04Z</time>
</trkpt>
<trkpt lat="48.81728743202984" lon="9.3478231318295">
<ele>243.2</ele>
<time>2024-05-12T12:24:05Z</time>
</trkpt>
<trkpt lat="48.81728743202984" lon="9.34788130223751">
<ele>243.2</ele>
<time>2024-05-12T12:24:06Z</time>
</trkpt>
<trkpt lat="48.81728743202984" lon="9.347931845113637">
<ele>243.2</ele>
<time>2024-05-12T12:24:07Z</time>
</trkpt>
<trkpt lat="48.817283576354384" lon="9.3479785323143">
<ele>243.4</ele>
<time>2024-05-12T12:24:08Z</time>
</trkpt>
<trkpt lat="48.81727980449796" lon="9.348030081018806">
<ele>243.4</ele>
<time>2024-05-12T12:24:09Z</time>
</trkpt>
<trkpt lat="48.81727980449796" lon="9.348071990534663">
<ele>243.6</ele>
<time>2024-05-12T12:24:10Z</time>
</trkpt>
<trkpt lat="48.81727980449796" lon="9.348108284175396">
<ele>243.8</ele>
<time>2024-05-12T12:24:11Z</time>
</trkpt>
<trkpt lat="48.8172759488225" lon="9.348146421834826">
<ele>244</ele>
<time>2024-05-12T12:24:12Z</time>
</trkpt>
<trkpt lat="48.817260693758726" lon="9.348183553665876">
<ele>244.2</ele>
<time>2024-05-12T12:24:13Z</time>
</trkpt>
<trkpt lat="48.81726832129061" lon="9.3482150696218">
<ele>244.4</ele>
<time>2024-05-12T12:24:14Z</time>
</trkpt>
<trkpt lat="48.81726832129061" lon="9.348259912803767">
<ele>244.6</ele>
<time>2024-05-12T12:24:15Z</time>
</trkpt>
<trkpt lat="48.81727217696607" lon="9.348299978300927">
<ele>244.8</ele>
<time>2024-05-12T12:24:16Z</time>
</trkpt>
<trkpt lat="48.81729120388627" lon="9.348331410437822">
<ele>245</ele>
<time>2024-05-12T12:24:17Z</time>
</trkpt>
<trkpt lat="48.8173103146255" lon="9.34835521504283">
<ele>245.4</ele>
<time>2024-05-12T12:24:18Z</time>
</trkpt>
<trkpt lat="48.817340824753046" lon="9.34837625361979">
<ele>245.8</ele>
<time>2024-05-12T12:24:19Z</time>
</trkpt>
<trkpt lat="48.81736747920513" lon="9.348393436521292">
<ele>246.2</ele>
<time>2024-05-12T12:24:20Z</time>
</trkpt>
<trkpt lat="48.81739798933267" lon="9.348406763747334">
<ele>246.4</ele>
<time>2024-05-12T12:24:21Z</time>
</trkpt>
<trkpt lat="48.81742472760379" lon="9.34841631911695">
<ele>246.6</ele>
<time>2024-05-12T12:24:22Z</time>
</trkpt>
<trkpt lat="48.81744761019945" lon="9.348424868658183">
<ele>246.6</ele>
<time>2024-05-12T12:24:23Z</time>
</trkpt>
<trkpt lat="48.81746672093868" lon="9.348431574180722">
<ele>246.6</ele>
<time>2024-05-12T12:24:24Z</time>
</trkpt>
<trkpt lat="48.81749337539077" lon="9.348438195884228">
<ele>246.6</ele>
<time>2024-05-12T12:24:25Z</time>
</trkpt>
<trkpt lat="48.817516257986426" lon="9.348448673263192">
<ele>246.8</ele>
<time>2024-05-12T12:24:26Z</time>
</trkpt>
<trkpt lat="48.817542996257544" lon="9.348456300795078">
<ele>246.8</ele>
<time>2024-05-12T12:24:27Z</time>
</trkpt>
<trkpt lat="48.81757350638509" lon="9.348468706011772">
<ele>246.8</ele>
<time>2024-05-12T12:24:28Z</time>
</trkpt>
<trkpt lat="48.81760401651263" lon="9.348482117056848">
<ele>246.8</ele>
<time>2024-05-12T12:24:29Z</time>
</trkpt>
<trkpt lat="48.81763838231563" lon="9.34849158860743">
<ele>246.6</ele>
<time>2024-05-12T12:24:30Z</time>
</trkpt>
<trkpt lat="48.81766889244318" lon="9.348503071814775">
<ele>246.6</ele>
<time>2024-05-12T12:24:31Z</time>
</trkpt>
<trkpt lat="48.81769940257072" lon="9.34851455502212">
<ele>246.6</ele>
<time>2024-05-12T12:24:32Z</time>
</trkpt>
<trkpt lat="48.81772991269827" lon="9.348527882248163">
<ele>246.6</ele>
<time>2024-05-12T12:24:33Z</time>
</trkpt>
<trkpt lat="48.81776042282581" lon="9.348543137311935">
<ele>246.4</ele>
<time>2024-05-12T12:24:34Z</time>
</trkpt>
<trkpt lat="48.81778330542147" lon="9.34857171960175">
<ele>246.2</ele>
<time>2024-05-12T12:24:35Z</time>
</trkpt>
<trkpt lat="48.81779093295336" lon="9.34861178509891">
<ele>246</ele>
<time>2024-05-12T12:24:36Z</time>
</trkpt>
<trkpt lat="48.81778330542147" lon="9.348678588867188">
<ele>245.8</ele>
<time>2024-05-12T12:24:37Z</time>
</trkpt>
<trkpt lat="48.81777190603316" lon="9.348745308816431">
<ele>245.6</ele>
<time>2024-05-12T12:24:38Z</time>
</trkpt>
<trkpt lat="48.817756650969386" lon="9.348818734288216">
<ele>245.2</ele>
<time>2024-05-12T12:24:39Z</time>
</trkpt>
<trkpt lat="48.81774516776204" lon="9.34889316558838">
<ele>245</ele>
<time>2024-05-12T12:24:40Z</time>
</trkpt>
<trkpt lat="48.81772991269827" lon="9.348957957699897">
<ele>244.6</ele>
<time>2024-05-12T12:24:41Z</time>
</trkpt>
<trkpt lat="48.81771842949093" lon="9.349023755639791">
<ele>244.4</ele>
<time>2024-05-12T12:24:42Z</time>
</trkpt>
<trkpt lat="48.81770317442715" lon="9.349095337092876">
<ele>244.2</ele>
<time>2024-05-12T12:24:43Z</time>
</trkpt>
<trkpt lat="48.81768791936338" lon="9.34916297905147">
<ele>243.8</ele>
<time>2024-05-12T12:24:44Z</time>
</trkpt>
<trkpt lat="48.817676519975066" lon="9.349234560504556">
<ele>243.6</ele>
<time>2024-05-12T12:24:45Z</time>
</trkpt>
<trkpt lat="48.81766503676772" lon="9.34930513612926">
<ele>243.4</ele>
<time>2024-05-12T12:24:46Z</time>
</trkpt>
<trkpt lat="48.81765363737941" lon="9.349371856078506">
<ele>243.2</ele>
<time>2024-05-12T12:24:47Z</time>
</trkpt>
<trkpt lat="48.81764600984752" lon="9.349436732009051">
<ele>243</ele>
<time>2024-05-12T12:24:48Z</time>
</trkpt>
<trkpt lat="48.81763838231563" lon="9.349499680101871">
<ele>243</ele>
<time>2024-05-12T12:24:49Z</time>
</trkpt>
<trkpt lat="48.81762689910829" lon="9.349568327888846">
<ele>242.8</ele>
<time>2024-05-12T12:24:50Z</time>
</trkpt>
<trkpt lat="48.81761549971998" lon="9.34963697567582">
<ele>242.8</ele>
<time>2024-05-12T12:24:51Z</time>
</trkpt>
<trkpt lat="48.81760401651263" lon="9.34969992376864">
<ele>242.8</ele>
<time>2024-05-12T12:24:52Z</time>
</trkpt>
<trkpt lat="48.81759261712432" lon="9.34975809417665">
<ele>242.8</ele>
<time>2024-05-12T12:24:53Z</time>
</trkpt>
<trkpt lat="48.81757350638509" lon="9.349813414737582">
<ele>242.8</ele>
<time>2024-05-12T12:24:54Z</time>
</trkpt>
<trkpt lat="48.81755062378943" lon="9.349868735298514">
<ele>242.8</ele>
<time>2024-05-12T12:24:55Z</time>
</trkpt>
<trkpt lat="48.817520113661885" lon="9.349920200183988">
<ele>243</ele>
<time>2024-05-12T12:24:56Z</time>
</trkpt>
<trkpt lat="48.81749337539077" lon="9.349965043365955">
<ele>243</ele>
<time>2024-05-12T12:24:57Z</time>
</trkpt>
<trkpt lat="48.81746672093868" lon="9.35001365840435">
<ele>243.2</ele>
<time>2024-05-12T12:24:58Z</time>
</trkpt>
<trkpt lat="48.817443838343024" lon="9.350063279271126">
<ele>243.2</ele>
<time>2024-05-12T12:24:59Z</time>
</trkpt>
<trkpt lat="48.81743621081114" lon="9.350123377516866">
<ele>243.4</ele>
<time>2024-05-12T12:25:00Z</time>
</trkpt>
<trkpt lat="48.817439982667565" lon="9.350186325609684">
<ele>243.4</ele>
<time>2024-05-12T12:25:01Z</time>
</trkpt>
<trkpt lat="48.817443838343024" lon="9.35025304555893">
<ele>243.4</ele>
<time>2024-05-12T12:25:02Z</time>
</trkpt>
<trkpt lat="48.81745146587491" lon="9.350323621183634">
<ele>243.4</ele>
<time>2024-05-12T12:25:03Z</time>
</trkpt>
<trkpt lat="48.81745523773134" lon="9.35039134696126">
<ele>243.6</ele>
<time>2024-05-12T12:25:04Z</time>
</trkpt>
<trkpt lat="48.817462865263224" lon="9.350456222891808">
<ele>243.6</ele>
<time>2024-05-12T12:25:05Z</time>
</trkpt>
<trkpt lat="48.817462865263224" lon="9.350522020831704">
<ele>243.6</ele>
<time>2024-05-12T12:25:06Z</time>
</trkpt>
<trkpt lat="48.8174590934068" lon="9.3505878187716">
<ele>243.6</ele>
<time>2024-05-12T12:25:07Z</time>
</trkpt>
<trkpt lat="48.81745146587491" lon="9.350654538720846">
<ele>243.8</ele>
<time>2024-05-12T12:25:08Z</time>
</trkpt>
<trkpt lat="48.817439982667565" lon="9.35072511434555">
<ele>243.8</ele>
<time>2024-05-12T12:25:09Z</time>
</trkpt>
<trkpt lat="48.81742858327925" lon="9.350794767960906">
<ele>244</ele>
<time>2024-05-12T12:25:10Z</time>
</trkpt>
<trkpt lat="48.81741332821548" lon="9.350868193432689">
<ele>244</ele>
<time>2024-05-12T12:25:11Z</time>
</trkpt>
<trkpt lat="48.817401845008135" lon="9.3509435467422">
<ele>244.2</ele>
<time>2024-05-12T12:25:12Z</time>
</trkpt>
<trkpt lat="48.81739036180079" lon="9.351021749898791">
<ele>244.4</ele>
<time>2024-05-12T12:25:13Z</time>
</trkpt>
<trkpt lat="48.81737510673702" lon="9.351099953055382">
<ele>244.4</ele>
<time>2024-05-12T12:25:14Z</time>
</trkpt>
<trkpt lat="48.817363707348704" lon="9.351176228374245">
<ele>244.4</ele>
<time>2024-05-12T12:25:15Z</time>
</trkpt>
<trkpt lat="48.81735222414136" lon="9.351255353540182">
<ele>244.4</ele>
<time>2024-05-12T12:25:16Z</time>
</trkpt>
<trkpt lat="48.81733696907759" lon="9.351331628859043">
<ele>244.4</ele>
<time>2024-05-12T12:25:17Z</time>
</trkpt>
<trkpt lat="48.817325569689274" lon="9.351406982168555">
<ele>244.4</ele>
<time>2024-05-12T12:25:18Z</time>
</trkpt>
<trkpt lat="48.8173103146255" lon="9.351483341306448">
<ele>244.4</ele>
<time>2024-05-12T12:25:19Z</time>
</trkpt>
<trkpt lat="48.81729883141816" lon="9.351558610796928">
<ele>244.2</ele>
<time>2024-05-12T12:25:20Z</time>
</trkpt>
<trkpt lat="48.81728743202984" lon="9.351632036268713">
<ele>244.2</ele>
<time>2024-05-12T12:25:21Z</time>
</trkpt>
<trkpt lat="48.8172759488225" lon="9.351704539731143">
<ele>244.2</ele>
<time>2024-05-12T12:25:22Z</time>
</trkpt>
<trkpt lat="48.817264549434185" lon="9.351779893040655">
<ele>244.2</ele>
<time>2024-05-12T12:25:23Z</time>
</trkpt>
<trkpt lat="48.81725306622684" lon="9.35185331851244">
<ele>244.2</ele>
<time>2024-05-12T12:25:24Z</time>
</trkpt>
<trkpt lat="48.81724166683853" lon="9.351924816146491">
<ele>244</ele>
<time>2024-05-12T12:25:25Z</time>
</trkpt>
<trkpt lat="48.81723018363118" lon="9.351995391771196">
<ele>244.2</ele>
<time>2024-05-12T12:25:26Z</time>
</trkpt>
<trkpt lat="48.817222556099296" lon="9.352066973224282">
<ele>244.2</ele>
<time>2024-05-12T12:25:27Z</time>
</trkpt>
<trkpt lat="48.81721492856741" lon="9.352140398696063">
<ele>244.4</ele>
<time>2024-05-12T12:25:28Z</time>
</trkpt>
<trkpt lat="48.817203445360065" lon="9.3522129021585">
<ele>244.4</ele>
<time>2024-05-12T12:25:29Z</time>
</trkpt>
<trkpt lat="48.81719204597175" lon="9.35228632763028">
<ele>244.6</ele>
<time>2024-05-12T12:25:30Z</time>
</trkpt>
<trkpt lat="48.81717679090798" lon="9.352359753102064">
<ele>244.6</ele>
<time>2024-05-12T12:25:31Z</time>
</trkpt>
<trkpt lat="48.81716153584421" lon="9.352431250736116">
<ele>244.8</ele>
<time>2024-05-12T12:25:32Z</time>
</trkpt>
<trkpt lat="48.81713865324855" lon="9.352498054504396">
<ele>244.8</ele>
<time>2024-05-12T12:25:33Z</time>
</trkpt>
<trkpt lat="48.81711577065289" lon="9.352559996768832">
<ele>245</ele>
<time>2024-05-12T12:25:34Z</time>
</trkpt>
<trkpt lat="48.81708903238177" lon="9.352613389492037">
<ele>244.8</ele>
<time>2024-05-12T12:25:35Z</time>
</trkpt>
<trkpt lat="48.81706237792969" lon="9.35266493819654">
<ele>244.8</ele>
<time>2024-05-12T12:25:36Z</time>
</trkpt>
<trkpt lat="48.81704703904688" lon="9.352724952623248">
<ele>244.6</ele>
<time>2024-05-12T12:25:37Z</time>
</trkpt>
<trkpt lat="48.81705466657877" lon="9.352785050868988">
<ele>244.4</ele>
<time>2024-05-12T12:25:38Z</time>
</trkpt>
<trkpt lat="48.81708140484989" lon="9.352833665907385">
<ele>244.2</ele>
<time>2024-05-12T12:25:39Z</time>
</trkpt>
<trkpt lat="48.81711577065289" lon="9.352871887385843">
<ele>244</ele>
<time>2024-05-12T12:25:40Z</time>
</trkpt>
<trkpt lat="48.81715390831232" lon="9.35289854183793">
<ele>243.8</ele>
<time>2024-05-12T12:25:41Z</time>
</trkpt>
<trkpt lat="48.81719581782818" lon="9.35291664674878">
<ele>243.8</ele>
<time>2024-05-12T12:25:42Z</time>
</trkpt>
<trkpt lat="48.81723781116307" lon="9.352932907640934">
<ele>243.6</ele>
<time>2024-05-12T12:25:43Z</time>
</trkpt>
<trkpt lat="48.81727980449796" lon="9.35295671224594">
<ele>243.6</ele>
<time>2024-05-12T12:25:44Z</time>
</trkpt>
<trkpt lat="48.8173293415457" lon="9.352983450517058">
<ele>243.4</ele>
<time>2024-05-12T12:25:45Z</time>
</trkpt>
<trkpt lat="48.81737896241248" lon="9.353010104969144">
<ele>243.4</ele>
<time>2024-05-12T12:25:46Z</time>
</trkpt>
<trkpt lat="48.81742858327925" lon="9.35303969308734">
<ele>243.4</ele>
<time>2024-05-12T12:25:47Z</time>
</trkpt>
<trkpt lat="48.81747812032699" lon="9.353063581511378">
<ele>243.4</ele>
<time>2024-05-12T12:25:48Z</time>
</trkpt>
<trkpt lat="48.81752388551831" lon="9.353088308125734">
<ele>243.4</ele>
<time>2024-05-12T12:25:49Z</time>
</trkpt>
<trkpt lat="48.8175658788532" lon="9.353115046396852">
<ele>243.6</ele>
<time>2024-05-12T12:25:50Z</time>
</trkpt>
<trkpt lat="48.817600244656205" lon="9.353148406371474">
<ele>243.6</ele>
<time>2024-05-12T12:25:51Z</time>
</trkpt>
<trkpt lat="48.81762312725186" lon="9.35319802723825">
<ele>243.8</ele>
<time>2024-05-12T12:25:52Z</time>
</trkpt>
<trkpt lat="48.81763075478375" lon="9.353259969502687">
<ele>243.8</ele>
<time>2024-05-12T12:25:53Z</time>
</trkpt>
<trkpt lat="48.81762312725186" lon="9.353322917595506">
<ele>243.8</ele>
<time>2024-05-12T12:25:54Z</time>
</trkpt>
<trkpt lat="48.81760401651263" lon="9.353383015841246">
<ele>243.8</ele>
<time>2024-05-12T12:25:55Z</time>
</trkpt>
<trkpt lat="48.817581133916974" lon="9.353443114086986">
<ele>244</ele>
<time>2024-05-12T12:25:56Z</time>
</trkpt>
<trkpt lat="48.81755825132131" lon="9.353506984189153">
<ele>244</ele>
<time>2024-05-12T12:25:57Z</time>
</trkpt>
<trkpt lat="48.81753536872566" lon="9.353568004444242">
<ele>244</ele>
<time>2024-05-12T12:25:58Z</time>
</trkpt>
<trkpt lat="48.81751248613" lon="9.353630030527713">
<ele>244</ele>
<time>2024-05-12T12:25:59Z</time>
</trkpt>
<trkpt lat="48.81748574785888" lon="9.35369297862053">
<ele>243.8</ele>
<time>2024-05-12T12:26:00Z</time>
</trkpt>
<trkpt lat="48.817462865263224" lon="9.353754920884969">
<ele>243.8</ele>
<time>2024-05-12T12:26:01Z</time>
</trkpt>
<trkpt lat="48.81743621081114" lon="9.353816946968436">
<ele>243.8</ele>
<time>2024-05-12T12:26:02Z</time>
</trkpt>
<trkpt lat="48.81740947254002" lon="9.353881822898984">
<ele>243.6</ele>
<time>2024-05-12T12:26:03Z</time>
</trkpt>
<trkpt lat="48.81738658994436" lon="9.3539466150105">
<ele>243.6</ele>
<time>2024-05-12T12:26:04Z</time>
</trkpt>
<trkpt lat="48.817359851673245" lon="9.354013418778775">
<ele>243.6</ele>
<time>2024-05-12T12:26:05Z</time>
</trkpt>
<trkpt lat="48.81733696907759" lon="9.354078210890291">
<ele>243.6</ele>
<time>2024-05-12T12:26:06Z</time>
</trkpt>
<trkpt lat="48.81731408648193" lon="9.35414501465857">
<ele>243.6</ele>
<time>2024-05-12T12:26:07Z</time>
</trkpt>
<trkpt lat="48.81728743202984" lon="9.354211734607816">
<ele>243.6</ele>
<time>2024-05-12T12:26:08Z</time>
</trkpt>
<trkpt lat="48.817264549434185" lon="9.354280466213822">
<ele>243.6</ele>
<time>2024-05-12T12:26:09Z</time>
</trkpt>
<trkpt lat="48.81723781116307" lon="9.35434626415372">
<ele>243.6</ele>
<time>2024-05-12T12:26:10Z</time>
</trkpt>
<trkpt lat="48.81721107289195" lon="9.354412984102964">
<ele>243.6</ele>
<time>2024-05-12T12:26:11Z</time>
</trkpt>
<trkpt lat="48.817184418439865" lon="9.35448163188994">
<ele>243.6</ele>
<time>2024-05-12T12:26:12Z</time>
</trkpt>
<trkpt lat="48.81715768016875" lon="9.354548435658216">
<ele>243.6</ele>
<time>2024-05-12T12:26:13Z</time>
</trkpt>
<trkpt lat="48.81713102571666" lon="9.354617083445191">
<ele>243.6</ele>
<time>2024-05-12T12:26:14Z</time>
</trkpt>
<trkpt lat="48.817104287445545" lon="9.354684809222816">
<ele>243.6</ele>
<time>2024-05-12T12:26:15Z</time>
</trkpt>
<trkpt lat="48.81708140484989" lon="9.354755384847522">
<ele>243.6</ele>
<time>2024-05-12T12:26:16Z</time>
</trkpt>
<trkpt lat="48.81705466657877" lon="9.354826882481577">
<ele>243.8</ele>
<time>2024-05-12T12:26:17Z</time>
</trkpt>
<trkpt lat="48.81703563965857" lon="9.354900307953358">
<ele>243.8</ele>
<time>2024-05-12T12:26:18Z</time>
</trkpt>
<trkpt lat="48.8170203845948" lon="9.35497658327222">
<ele>244</ele>
<time>2024-05-12T12:26:19Z</time>
</trkpt>
<trkpt lat="48.817005129531026" lon="9.35505671426654">
<ele>244</ele>
<time>2024-05-12T12:26:20Z</time>
</trkpt>
<trkpt lat="48.81699364632368" lon="9.355138773098588">
<ele>244.2</ele>
<time>2024-05-12T12:26:21Z</time>
</trkpt>
<trkpt lat="48.816986018791795" lon="9.355217898264527">
<ele>244.2</ele>
<time>2024-05-12T12:26:22Z</time>
</trkpt>
<trkpt lat="48.81697839125991" lon="9.355297023430468">
<ele>244.4</ele>
<time>2024-05-12T12:26:23Z</time>
</trkpt>
<trkpt lat="48.81697076372802" lon="9.35537338256836">
<ele>244.4</ele>
<time>2024-05-12T12:26:24Z</time>
</trkpt>
<trkpt lat="48.81696313619614" lon="9.355446808040142">
<ele>244.4</ele>
<time>2024-05-12T12:26:25Z</time>
</trkpt>
<trkpt lat="48.81695936433971" lon="9.355520233511925">
<ele>244.4</ele>
<time>2024-05-12T12:26:26Z</time>
</trkpt>
<trkpt lat="48.81695550866425" lon="9.355591731145978">
<ele>244.4</ele>
<time>2024-05-12T12:26:27Z</time>
</trkpt>
<trkpt lat="48.81694788113237" lon="9.35566708445549">
<ele>244.4</ele>
<time>2024-05-12T12:26:28Z</time>
</trkpt>
<trkpt lat="48.81694025360048" lon="9.355741431936622">
<ele>244.4</ele>
<time>2024-05-12T12:26:29Z</time>
</trkpt>
<trkpt lat="48.81693262606859" lon="9.355816785246134">
<ele>244.4</ele>
<time>2024-05-12T12:26:30Z</time>
</trkpt>
<trkpt lat="48.816924998536706" lon="9.355891216546295">
<ele>244.4</ele>
<time>2024-05-12T12:26:31Z</time>
</trkpt>
<trkpt lat="48.81691359914839" lon="9.355966486036776">
<ele>244.4</ele>
<time>2024-05-12T12:26:32Z</time>
</trkpt>
<trkpt lat="48.81690211594105" lon="9.35604183934629">
<ele>244.6</ele>
<time>2024-05-12T12:26:33Z</time>
</trkpt>
<trkpt lat="48.81689834408462" lon="9.356118198484182">
<ele>244.6</ele>
<time>2024-05-12T12:26:34Z</time>
</trkpt>
<trkpt lat="48.816890716552734" lon="9.356195395812392">
<ele>244.6</ele>
<time>2024-05-12T12:26:35Z</time>
</trkpt>
<trkpt lat="48.816886860877275" lon="9.356269827112556">
<ele>244.6</ele>
<time>2024-05-12T12:26:36Z</time>
</trkpt>
<trkpt lat="48.81688300520182" lon="9.356343252584338">
<ele>244.4</ele>
<time>2024-05-12T12:26:37Z</time>
</trkpt>
<trkpt lat="48.816886860877275" lon="9.35641667805612">
<ele>244.4</ele>
<time>2024-05-12T12:26:38Z</time>
</trkpt>
<trkpt lat="48.816890716552734" lon="9.356492031365631">
<ele>244.4</ele>
<time>2024-05-12T12:26:39Z</time>
</trkpt>
<trkpt lat="48.81689834408462" lon="9.356563528999686">
<ele>244.4</ele>
<time>2024-05-12T12:26:40Z</time>
</trkpt>
<trkpt lat="48.816909743472934" lon="9.356637876480818">
<ele>244.2</ele>
<time>2024-05-12T12:26:41Z</time>
</trkpt>
<trkpt lat="48.816924998536706" lon="9.356710379943252">
<ele>244.2</ele>
<time>2024-05-12T12:26:42Z</time>
</trkpt>
<trkpt lat="48.81693648174405" lon="9.356780033558609">
<ele>244.2</ele>
<time>2024-05-12T12:26:43Z</time>
</trkpt>
<trkpt lat="48.81695173680782" lon="9.35685153119266">
<ele>244</ele>
<time>2024-05-12T12:26:44Z</time>
</trkpt>
<trkpt lat="48.816966991871595" lon="9.356923028826714">
<ele>244</ele>
<time>2024-05-12T12:26:45Z</time>
</trkpt>
<trkpt lat="48.81698224693537" lon="9.356993604451418">
<ele>244</ele>
<time>2024-05-12T12:26:46Z</time>
</trkpt>
<trkpt lat="48.81699750199914" lon="9.357063258066772">
<ele>243.8</ele>
<time>2024-05-12T12:26:47Z</time>
</trkpt>
<trkpt lat="48.81701275706291" lon="9.357132911682127">
<ele>243.8</ele>
<time>2024-05-12T12:26:48Z</time>
</trkpt>
<trkpt lat="48.81702801212669" lon="9.357203403487802">
<ele>243.8</ele>
<time>2024-05-12T12:26:49Z</time>
</trkpt>
<trkpt lat="48.817043267190456" lon="9.357273057103155">
<ele>243.8</ele>
<time>2024-05-12T12:26:50Z</time>
</trkpt>
<trkpt lat="48.81705852225423" lon="9.35734363272786">
<ele>243.8</ele>
<time>2024-05-12T12:26:51Z</time>
</trkpt>
<trkpt lat="48.817073777318" lon="9.357413286343215">
<ele>243.8</ele>
<time>2024-05-12T12:26:52Z</time>
</trkpt>
<trkpt lat="48.81708903238177" lon="9.35748285613954">
<ele>243.8</ele>
<time>2024-05-12T12:26:53Z</time>
</trkpt>
<trkpt lat="48.817104287445545" lon="9.357553431764243">
<ele>243.6</ele>
<time>2024-05-12T12:26:54Z</time>
</trkpt>
<trkpt lat="48.81711954250932" lon="9.3576230853796">
<ele>243.6</ele>
<time>2024-05-12T12:26:55Z</time>
</trkpt>
<trkpt lat="48.81713479757309" lon="9.357694583013654">
<ele>243.6</ele>
<time>2024-05-12T12:26:56Z</time>
</trkpt>
<trkpt lat="48.81715005263686" lon="9.357768008485436">
<ele>243.6</ele>
<time>2024-05-12T12:26:57Z</time>
</trkpt>
<trkpt lat="48.81716153584421" lon="9.35784143395722">
<ele>243.6</ele>
<time>2024-05-12T12:26:58Z</time>
</trkpt>
<trkpt lat="48.817180562764406" lon="9.357913015410304">
<ele>243.6</ele>
<time>2024-05-12T12:26:59Z</time>
</trkpt>
<trkpt lat="48.81719581782818" lon="9.357984513044356">
<ele>243.8</ele>
<time>2024-05-12T12:27:00Z</time>
</trkpt>
<trkpt lat="48.81720730103552" lon="9.358057016506791">
<ele>243.8</ele>
<time>2024-05-12T12:27:01Z</time>
</trkpt>
<trkpt lat="48.817222556099296" lon="9.358130441978574">
<ele>243.8</ele>
<time>2024-05-12T12:27:02Z</time>
</trkpt>
<trkpt lat="48.81723781116307" lon="9.358202861621976">
<ele>243.8</ele>
<time>2024-05-12T12:27:03Z</time>
</trkpt>
<trkpt lat="48.81725306622684" lon="9.358278214931488">
<ele>243.8</ele>
<time>2024-05-12T12:27:04Z</time>
</trkpt>
<trkpt lat="48.81726832129061" lon="9.358353568241">
<ele>243.8</ele>
<time>2024-05-12T12:27:05Z</time>
</trkpt>
<trkpt lat="48.81727980449796" lon="9.35842984355986">
<ele>243.8</ele>
<time>2024-05-12T12:27:06Z</time>
</trkpt>
<trkpt lat="48.81729505956173" lon="9.358501425012946">
<ele>243.8</ele>
<time>2024-05-12T12:27:07Z</time>
</trkpt>
<trkpt lat="48.81731408648193" lon="9.35857200063765">
<ele>243.8</ele>
<time>2024-05-12T12:27:08Z</time>
</trkpt>
<trkpt lat="48.8173293415457" lon="9.358638720586896">
<ele>243.8</ele>
<time>2024-05-12T12:27:09Z</time>
</trkpt>
<trkpt lat="48.817340824753046" lon="9.358706446364522">
<ele>243.8</ele>
<time>2024-05-12T12:27:10Z</time>
</trkpt>
<trkpt lat="48.81735607981682" lon="9.358773166313767">
<ele>243.8</ele>
<time>2024-05-12T12:27:11Z</time>
</trkpt>
<trkpt lat="48.81736747920513" lon="9.358839970082045">
<ele>243.8</ele>
<time>2024-05-12T12:27:12Z</time>
</trkpt>
<trkpt lat="48.817382734268904" lon="9.35890476219356">
<ele>243.8</ele>
<time>2024-05-12T12:27:13Z</time>
</trkpt>
<trkpt lat="48.81739421747625" lon="9.358969638124108">
<ele>243.8</ele>
<time>2024-05-12T12:27:14Z</time>
</trkpt>
<trkpt lat="48.817401845008135" lon="9.359034514054656">
<ele>243.8</ele>
<time>2024-05-12T12:27:15Z</time>
</trkpt>
<trkpt lat="48.81739798933267" lon="9.3591012340039">
<ele>243.8</ele>
<time>2024-05-12T12:27:16Z</time>
</trkpt>
<trkpt lat="48.81737510673702" lon="9.3591651879251">
<ele>243.8</ele>
<time>2024-05-12T12:27:17Z</time>
</trkpt>
<trkpt lat="48.81733319722116" lon="9.359209947288036">
<ele>243.8</ele>
<time>2024-05-12T12:27:18Z</time>
</trkpt>
<trkpt lat="48.81727980449796" lon="9.359238613396885">
<ele>243.8</ele>
<time>2024-05-12T12:27:19Z</time>
</trkpt>
<trkpt lat="48.81723018363118" lon="9.359256718307734">
<ele>243.8</ele>
<time>2024-05-12T12:27:20Z</time>
</trkpt>
<trkpt lat="48.817184418439865" lon="9.359274823218584">
<ele>243.8</ele>
<time>2024-05-12T12:27:21Z</time>
</trkpt>
<trkpt lat="48.81713479757309" lon="9.359294855967164">
<ele>243.8</ele>
<time>2024-05-12T12:27:22Z</time>
</trkpt>
<trkpt lat="48.81709665991366" lon="9.359316816553472">
<ele>243.6</ele>
<time>2024-05-12T12:27:23Z</time>
</trkpt>
<trkpt lat="48.81705089472234" lon="9.359345398843288">
<ele>243.6</ele>
<time>2024-05-12T12:27:24Z</time>
</trkpt>
<trkpt lat="48.81701652891934" lon="9.359386386349795">
<ele>243.6</ele>
<time>2024-05-12T12:27:25Z</time>
</trkpt>
<trkpt lat="48.816986018791795" lon="9.359436929225922">
<ele>243.6</ele>
<time>2024-05-12T12:27:26Z</time>
</trkpt>
<trkpt lat="48.81696313619614" lon="9.359497027471662">
<ele>243.6</ele>
<time>2024-05-12T12:27:27Z</time>
</trkpt>
<trkpt lat="48.81694410927594" lon="9.35955997556448">
<ele>243.8</ele>
<time>2024-05-12T12:27:28Z</time>
</trkpt>
<trkpt lat="48.816928854212165" lon="9.359628623351457">
<ele>243.8</ele>
<time>2024-05-12T12:27:29Z</time>
</trkpt>
<trkpt lat="48.81691737100482" lon="9.359700120985508">
<ele>244</ele>
<time>2024-05-12T12:27:30Z</time>
</trkpt>
<trkpt lat="48.81690597161651" lon="9.359773630276322">
<ele>244</ele>
<time>2024-05-12T12:27:31Z</time>
</trkpt>
<trkpt lat="48.81689834408462" lon="9.359847977757454">
<ele>244.2</ele>
<time>2024-05-12T12:27:32Z</time>
</trkpt>
<trkpt lat="48.816886860877275" lon="9.359926180914044">
<ele>244.2</ele>
<time>2024-05-12T12:27:33Z</time>
</trkpt>
<trkpt lat="48.8168716058135" lon="9.360001534223557">
<ele>244.4</ele>
<time>2024-05-12T12:27:34Z</time>
</trkpt>
<trkpt lat="48.81686397828162" lon="9.360076887533069">
<ele>244.4</ele>
<time>2024-05-12T12:27:35Z</time>
</trkpt>
<trkpt lat="48.81685249507427" lon="9.3601512350142">
<ele>244.6</ele>
<time>2024-05-12T12:27:36Z</time>
</trkpt>
<trkpt lat="48.816844867542386" lon="9.360226588323712">
<ele>244.8</ele>
<time>2024-05-12T12:27:37Z</time>
</trkpt>
<trkpt lat="48.81683346815407" lon="9.360300013795497">
<ele>245</ele>
<time>2024-05-12T12:27:38Z</time>
</trkpt>
<trkpt lat="48.81682584062219" lon="9.360373439267278">
<ele>245.2</ele>
<time>2024-05-12T12:27:39Z</time>
</trkpt>
<trkpt lat="48.8168182130903" lon="9.360445020720364">
<ele>245.4</ele>
<time>2024-05-12T12:27:40Z</time>
</trkpt>
<trkpt lat="48.8168182130903" lon="9.360514590516686">
<ele>245.6</ele>
<time>2024-05-12T12:27:41Z</time>
</trkpt>
<trkpt lat="48.8168182130903" lon="9.360581394284964">
<ele>245.8</ele>
<time>2024-05-12T12:27:42Z</time>
</trkpt>
<trkpt lat="48.8168182130903" lon="9.36065004207194">
<ele>245.8</ele>
<time>2024-05-12T12:27:43Z</time>
</trkpt>
<trkpt lat="48.81682198494673" lon="9.360719611868262">
<ele>246</ele>
<time>2024-05-12T12:27:44Z</time>
</trkpt>
<trkpt lat="48.81682198494673" lon="9.360790187492968">
<ele>246</ele>
<time>2024-05-12T12:27:45Z</time>
</trkpt>
<trkpt lat="48.816829612478614" lon="9.360859841108322">
<ele>246.2</ele>
<time>2024-05-12T12:27:46Z</time>
</trkpt>
<trkpt lat="48.81683346815407" lon="9.360931338742375">
<ele>246.2</ele>
<time>2024-05-12T12:27:47Z</time>
</trkpt>
<trkpt lat="48.81683346815407" lon="9.361006692051888">
<ele>246.2</ele>
<time>2024-05-12T12:27:48Z</time>
</trkpt>
<trkpt lat="48.81683346815407" lon="9.36107818968594">
<ele>246.4</ele>
<time>2024-05-12T12:27:49Z</time>
</trkpt>
<trkpt lat="48.8168372400105" lon="9.361151615157723">
<ele>246.4</ele>
<time>2024-05-12T12:27:50Z</time>
</trkpt>
<trkpt lat="48.81684109568596" lon="9.361225124448538">
<ele>246.6</ele>
<time>2024-05-12T12:27:51Z</time>
</trkpt>
<trkpt lat="48.816844867542386" lon="9.361293772235513">
<ele>246.6</ele>
<time>2024-05-12T12:27:52Z</time>
</trkpt>
<trkpt lat="48.816844867542386" lon="9.36136149801314">
<ele>246.8</ele>
<time>2024-05-12T12:27:53Z</time>
</trkpt>
<trkpt lat="48.816844867542386" lon="9.36143676750362">
<ele>246.8</ele>
<time>2024-05-12T12:27:54Z</time>
</trkpt>
<trkpt lat="48.816844867542386" lon="9.361510276794434">
<ele>246.8</ele>
<time>2024-05-12T12:27:55Z</time>
</trkpt>
<trkpt lat="48.816844867542386" lon="9.361577918753028">
<ele>247</ele>
<time>2024-05-12T12:27:56Z</time>
</trkpt>
<trkpt lat="48.81685249507427" lon="9.361644722521303">
<ele>247</ele>
<time>2024-05-12T12:27:57Z</time>
</trkpt>
<trkpt lat="48.81685249507427" lon="9.36171529814601">
<ele>247</ele>
<time>2024-05-12T12:27:58Z</time>
</trkpt>
<trkpt lat="48.81685249507427" lon="9.361784867942331">
<ele>247</ele>
<time>2024-05-12T12:27:59Z</time>
</trkpt>
<trkpt lat="48.81685635074973" lon="9.36185359954834">
<ele>247</ele>
<time>2024-05-12T12:28:00Z</time>
</trkpt>
<trkpt lat="48.81685249507427" lon="9.361925097182391">
<ele>247</ele>
<time>2024-05-12T12:28:01Z</time>
</trkpt>
<trkpt lat="48.81685249507427" lon="9.361994666978717">
<ele>247</ele>
<time>2024-05-12T12:28:02Z</time>
</trkpt>
<trkpt lat="48.81685249507427" lon="9.36206524260342">
<ele>247</ele>
<time>2024-05-12T12:28:03Z</time>
</trkpt>
<trkpt lat="48.81685249507427" lon="9.362130118533967">
<ele>247</ele>
<time>2024-05-12T12:28:04Z</time>
</trkpt>
<trkpt lat="48.816848723217845" lon="9.362194994464517">
<ele>247</ele>
<time>2024-05-12T12:28:05Z</time>
</trkpt>
<trkpt lat="48.816844867542386" lon="9.362259786576033">
<ele>247</ele>
<time>2024-05-12T12:28:06Z</time>
</trkpt>
<trkpt lat="48.81684109568596" lon="9.36232466250658">
<ele>247.2</ele>
<time>2024-05-12T12:28:07Z</time>
</trkpt>
<trkpt lat="48.81683346815407" lon="9.36238476075232">
<ele>247.4</ele>
<time>2024-05-12T12:28:08Z</time>
</trkpt>
<trkpt lat="48.816829612478614" lon="9.36244485899806">
<ele>247.4</ele>
<time>2024-05-12T12:28:09Z</time>
</trkpt>
<trkpt lat="48.81682198494673" lon="9.362508729100227">
<ele>247.6</ele>
<time>2024-05-12T12:28:10Z</time>
</trkpt>
<trkpt lat="48.8168182130903" lon="9.362574527040124">
<ele>247.6</ele>
<time>2024-05-12T12:28:11Z</time>
</trkpt>
<trkpt lat="48.816810585558414" lon="9.36264032498002">
<ele>247.8</ele>
<time>2024-05-12T12:28:12Z</time>
</trkpt>
<trkpt lat="48.81680295802653" lon="9.362708050757648">
<ele>247.8</ele>
<time>2024-05-12T12:28:13Z</time>
</trkpt>
<trkpt lat="48.81679533049464" lon="9.3627795483917">
<ele>247.8</ele>
<time>2024-05-12T12:28:14Z</time>
</trkpt>
<trkpt lat="48.81678770296275" lon="9.362854901701212">
<ele>247.8</ele>
<time>2024-05-12T12:28:15Z</time>
</trkpt>
<trkpt lat="48.81678007543087" lon="9.362923549488189">
<ele>247.8</ele>
<time>2024-05-12T12:28:16Z</time>
</trkpt>
<trkpt lat="48.816772447898984" lon="9.362988425418736">
<ele>247.8</ele>
<time>2024-05-12T12:28:17Z</time>
</trkpt>
<trkpt lat="48.8167648203671" lon="9.363044667989016">
<ele>247.8</ele>
<time>2024-05-12T12:28:18Z</time>
</trkpt>
<trkpt lat="48.81675719283521" lon="9.363093366846442">
<ele>247.8</ele>
<time>2024-05-12T12:28:19Z</time>
</trkpt>
<trkpt lat="48.816749565303326" lon="9.363149609416723">
<ele>247.8</ele>
<time>2024-05-12T12:28:20Z</time>
</trkpt>
<trkpt lat="48.81674193777144" lon="9.363206857815385">
<ele>247.8</ele>
<time>2024-05-12T12:28:21Z</time>
</trkpt>
<trkpt lat="48.81673431023955" lon="9.3632716499269">
<ele>247.8</ele>
<time>2024-05-12T12:28:22Z</time>
</trkpt>
<trkpt lat="48.81672282703221" lon="9.363338453695178">
<ele>247.8</ele>
<time>2024-05-12T12:28:23Z</time>
</trkpt>
<trkpt lat="48.81671519950032" lon="9.363405173644423">
<ele>247.8</ele>
<time>2024-05-12T12:28:24Z</time>
</trkpt>
<trkpt lat="48.81670371629298" lon="9.3634719774127">
<ele>247.8</ele>
<time>2024-05-12T12:28:25Z</time>
</trkpt>
<trkpt lat="48.81669608876109" lon="9.363539619371297">
<ele>247.8</ele>
<time>2024-05-12T12:28:26Z</time>
</trkpt>
<trkpt lat="48.81668468937278" lon="9.363606423139572">
<ele>247.8</ele>
<time>2024-05-12T12:28:27Z</time>
</trkpt>
<trkpt lat="48.81667320616543" lon="9.363675070926549">
<ele>247.8</ele>
<time>2024-05-12T12:28:28Z</time>
</trkpt>
<trkpt lat="48.81666180677712" lon="9.363743718713522">
<ele>248</ele>
<time>2024-05-12T12:28:29Z</time>
</trkpt>
<trkpt lat="48.81664655171335" lon="9.363811444491148">
<ele>248</ele>
<time>2024-05-12T12:28:30Z</time>
</trkpt>
<trkpt lat="48.816635068506" lon="9.3638829421252">
<ele>248</ele>
<time>2024-05-12T12:28:31Z</time>
</trkpt>
<trkpt lat="48.81662366911769" lon="9.363954523578286">
<ele>247.8</ele>
<time>2024-05-12T12:28:32Z</time>
</trkpt>
<trkpt lat="48.816612185910344" lon="9.36402509920299">
<ele>247.8</ele>
<time>2024-05-12T12:28:33Z</time>
</trkpt>
<trkpt lat="48.81660078652203" lon="9.364093746989964">
<ele>247.8</ele>
<time>2024-05-12T12:28:34Z</time>
</trkpt>
<trkpt lat="48.816593158990145" lon="9.36416331678629">
<ele>247.6</ele>
<time>2024-05-12T12:28:35Z</time>
</trkpt>
<trkpt lat="48.81658553145826" lon="9.364236826077104">
<ele>247.6</ele>
<time>2024-05-12T12:28:36Z</time>
</trkpt>
<trkpt lat="48.816574048250914" lon="9.364313101395965">
<ele>247.6</ele>
<time>2024-05-12T12:28:37Z</time>
</trkpt>
<trkpt lat="48.81656642071903" lon="9.364384599030018">
<ele>247.4</ele>
<time>2024-05-12T12:28:38Z</time>
</trkpt>
<trkpt lat="48.81656642071903" lon="9.364463724195955">
<ele>247.4</ele>
<time>2024-05-12T12:28:39Z</time>
</trkpt>
<trkpt lat="48.81655879318714" lon="9.3645581882447">
<ele>247.4</ele>
<time>2024-05-12T12:28:40Z</time>
</trkpt>
<trkpt lat="48.816555021330714" lon="9.364644940942526">
<ele>247.4</ele>
<time>2024-05-12T12:28:41Z</time>
</trkpt>
<trkpt lat="48.8165626488626" lon="9.364721216261389">
<ele>247.4</ele>
<time>2024-05-12T12:28:42Z</time>
</trkpt>
<trkpt lat="48.8165626488626" lon="9.364798497408628">
<ele>247.4</ele>
<time>2024-05-12T12:28:43Z</time>
</trkpt>
<trkpt lat="48.81656642071903" lon="9.364871922880411">
<ele>247.6</ele>
<time>2024-05-12T12:28:44Z</time>
</trkpt>
<trkpt lat="48.816570276394486" lon="9.36493679881096">
<ele>247.6</ele>
<time>2024-05-12T12:28:45Z</time>
</trkpt>
<trkpt lat="48.81657790392637" lon="9.364992119371893">
<ele>247.6</ele>
<time>2024-05-12T12:28:46Z</time>
</trkpt>
<trkpt lat="48.81658553145826" lon="9.365037884563208">
<ele>247.6</ele>
<time>2024-05-12T12:28:47Z</time>
</trkpt>
<trkpt lat="48.816593158990145" lon="9.36509035527706">
<ele>247.8</ele>
<time>2024-05-12T12:28:48Z</time>
</trkpt>
<trkpt lat="48.81660078652203" lon="9.365139892324803">
<ele>247.8</ele>
<time>2024-05-12T12:28:49Z</time>
</trkpt>
<trkpt lat="48.8166160415858" lon="9.365195212885736">
<ele>248</ele>
<time>2024-05-12T12:28:50Z</time>
</trkpt>
<trkpt lat="48.816631296649575" lon="9.365246761590242">
<ele>248.2</ele>
<time>2024-05-12T12:28:51Z</time>
</trkpt>
<trkpt lat="48.81664655171335" lon="9.365302082151176">
<ele>248.4</ele>
<time>2024-05-12T12:28:52Z</time>
</trkpt>
<trkpt lat="48.81666180677712" lon="9.36536494642496">
<ele>248.4</ele>
<time>2024-05-12T12:28:53Z</time>
</trkpt>
<trkpt lat="48.81667706184089" lon="9.365429822355509">
<ele>248.6</ele>
<time>2024-05-12T12:28:54Z</time>
</trkpt>
<trkpt lat="48.81669608876109" lon="9.365498470142484">
<ele>248.6</ele>
<time>2024-05-12T12:28:55Z</time>
</trkpt>
<trkpt lat="48.81671519950032" lon="9.365579523146152">
<ele>248.6</ele>
<time>2024-05-12T12:28:56Z</time>
</trkpt>
<trkpt lat="48.81673808209598" lon="9.365659654140472">
<ele>248.6</ele>
<time>2024-05-12T12:28:57Z</time>
</trkpt>
<trkpt lat="48.81676096469164" lon="9.365737857297065">
<ele>248.6</ele>
<time>2024-05-12T12:28:58Z</time>
</trkpt>
<trkpt lat="48.81677621975541" lon="9.365819916129112">
<ele>248.4</ele>
<time>2024-05-12T12:28:59Z</time>
</trkpt>
<trkpt lat="48.81679533049464" lon="9.365893341600897">
<ele>248.4</ele>
<time>2024-05-12T12:29:00Z</time>
</trkpt>
<trkpt lat="48.81681435741484" lon="9.36596198938787">
<ele>248.2</ele>
<time>2024-05-12T12:29:01Z</time>
</trkpt>
<trkpt lat="48.81683346815407" lon="9.366029715165496">
<ele>248.2</ele>
<time>2024-05-12T12:29:02Z</time>
</trkpt>
<trkpt lat="48.81685249507427" lon="9.36609643511474">
<ele>248.2</ele>
<time>2024-05-12T12:29:03Z</time>
</trkpt>
<trkpt lat="48.8168716058135" lon="9.36616038903594">
<ele>248</ele>
<time>2024-05-12T12:29:04Z</time>
</trkpt>
<trkpt lat="48.81689834408462" lon="9.36621663160622">
<ele>248</ele>
<time>2024-05-12T12:29:05Z</time>
</trkpt>
<trkpt lat="48.81691737100482" lon="9.366274802014232">
<ele>248</ele>
<time>2024-05-12T12:29:06Z</time>
</trkpt>
<trkpt lat="48.81693262606859" lon="9.366330122575164">
<ele>248</ele>
<time>2024-05-12T12:29:07Z</time>
</trkpt>
<trkpt lat="48.81695550866425" lon="9.366385443136096">
<ele>247.8</ele>
<time>2024-05-12T12:29:08Z</time>
</trkpt>
<trkpt lat="48.81697461940348" lon="9.36643690802157">
<ele>247.6</ele>
<time>2024-05-12T12:29:09Z</time>
</trkpt>
<trkpt lat="48.81699750199914" lon="9.366490300744772">
<ele>247.6</ele>
<time>2024-05-12T12:29:10Z</time>
</trkpt>
<trkpt lat="48.81701652891934" lon="9.366544699296355">
<ele>247.6</ele>
<time>2024-05-12T12:29:11Z</time>
</trkpt>
<trkpt lat="48.81703178398311" lon="9.366600019857287">
<ele>247.6</ele>
<time>2024-05-12T12:29:12Z</time>
</trkpt>
<trkpt lat="48.81705466657877" lon="9.36665341258049">
<ele>247.6</ele>
<time>2024-05-12T12:29:13Z</time>
</trkpt>
<trkpt lat="48.817070005461574" lon="9.366708733141422">
<ele>247.8</ele>
<time>2024-05-12T12:29:14Z</time>
</trkpt>
<trkpt lat="48.81708903238177" lon="9.366763047873974">
<ele>247.8</ele>
<time>2024-05-12T12:29:15Z</time>
</trkpt>
<trkpt lat="48.81710814312101" lon="9.366818368434906">
<ele>247.8</ele>
<time>2024-05-12T12:29:16Z</time>
</trkpt>
<trkpt lat="48.817123398184776" lon="9.366871761158109">
<ele>247.8</ele>
<time>2024-05-12T12:29:17Z</time>
</trkpt>
<trkpt lat="48.81713865324855" lon="9.366923309862614">
<ele>247.8</ele>
<time>2024-05-12T12:29:18Z</time>
</trkpt>
<trkpt lat="48.81715390831232" lon="9.366972846910356">
<ele>247.6</ele>
<time>2024-05-12T12:29:19Z</time>
</trkpt>
<trkpt lat="48.817165307700634" lon="9.367023389786482">
<ele>247.8</ele>
<time>2024-05-12T12:29:20Z</time>
</trkpt>
<trkpt lat="48.81717293523252" lon="9.36707016080618">
<ele>247.8</ele>
<time>2024-05-12T12:29:21Z</time>
</trkpt>
<trkpt lat="48.817184418439865" lon="9.367113076150416">
<ele>247.8</ele>
<time>2024-05-12T12:29:22Z</time>
</trkpt>
<trkpt lat="48.81719581782818" lon="9.36714836396277">
<ele>247.8</ele>
<time>2024-05-12T12:29:23Z</time>
</trkpt>
<trkpt lat="48.81721492856741" lon="9.36717032454908">
<ele>248</ele>
<time>2024-05-12T12:29:24Z</time>
</trkpt>
<trkpt lat="48.81724166683853" lon="9.367183651775122">
<ele>248</ele>
<time>2024-05-12T12:29:25Z</time>
</trkpt>
<trkpt lat="48.81727217696607" lon="9.3671865016222">
<ele>248</ele>
<time>2024-05-12T12:29:26Z</time>
</trkpt>
<trkpt lat="48.81730645895004" lon="9.3671865016222">
<ele>248</ele>
<time>2024-05-12T12:29:27Z</time>
</trkpt>
<trkpt lat="48.81734845228493" lon="9.367183651775122">
<ele>248</ele>
<time>2024-05-12T12:29:28Z</time>
</trkpt>
<trkpt lat="48.81737896241248" lon="9.367179796099665">
<ele>248</ele>
<time>2024-05-12T12:29:29Z</time>
</trkpt>
<trkpt lat="48.817405700683594" lon="9.367179796099665">
<ele>248</ele>
<time>2024-05-12T12:29:30Z</time>
</trkpt>
<trkpt lat="48.81742858327925" lon="9.367177952080963">
<ele>248</ele>
<time>2024-05-12T12:29:31Z</time>
</trkpt>
<trkpt lat="48.817443838343024" lon="9.36718457378447">
<ele>248</ele>
<time>2024-05-12T12:29:32Z</time>
</trkpt>
<trkpt lat="48.81745523773134" lon="9.367201756685972">
<ele>247.8</ele>
<time>2024-05-12T12:29:33Z</time>
</trkpt>
<trkpt lat="48.81747049279511" lon="9.36722656711936">
<ele>247.8</ele>
<time>2024-05-12T12:29:34Z</time>
</trkpt>
<trkpt lat="48.81747434847057" lon="9.36726856045425">
<ele>247.6</ele>
<time>2024-05-12T12:29:35Z</time>
</trkpt>
<trkpt lat="48.81747434847057" lon="9.367318097501991">
<ele>247.6</ele>
<time>2024-05-12T12:29:36Z</time>
</trkpt>
<trkpt lat="48.81747434847057" lon="9.367369646206498">
<ele>247.4</ele>
<time>2024-05-12T12:29:37Z</time>
</trkpt>
<trkpt lat="48.81747434847057" lon="9.367420189082624">
<ele>247.4</ele>
<time>2024-05-12T12:29:38Z</time>
</trkpt>
<trkpt lat="48.81747434847057" lon="9.367473581805823">
<ele>247.4</ele>
<time>2024-05-12T12:29:39Z</time>
</trkpt>
<trkpt lat="48.817481976002455" lon="9.367529824376106">
<ele>247.2</ele>
<time>2024-05-12T12:29:40Z</time>
</trkpt>
<trkpt lat="48.81748960353434" lon="9.367587994784117">
<ele>247.2</ele>
<time>2024-05-12T12:29:41Z</time>
</trkpt>
<trkpt lat="48.81749337539077" lon="9.367646165192127">
<ele>247.2</ele>
<time>2024-05-12T12:29:42Z</time>
</trkpt>
<trkpt lat="48.81749723106623" lon="9.367706263437867">
<ele>247.2</ele>
<time>2024-05-12T12:29:43Z</time>
</trkpt>
<trkpt lat="48.817501002922654" lon="9.367766361683609">
<ele>247.2</ele>
<time>2024-05-12T12:29:44Z</time>
</trkpt>
<trkpt lat="48.81750485859811" lon="9.367830231785774">
<ele>247.2</ele>
<time>2024-05-12T12:29:45Z</time>
</trkpt>
<trkpt lat="48.817501002922654" lon="9.367891252040865">
<ele>247.2</ele>
<time>2024-05-12T12:29:46Z</time>
</trkpt>
<trkpt lat="48.817501002922654" lon="9.36795704998076">
<ele>247.2</ele>
<time>2024-05-12T12:29:47Z</time>
</trkpt>
<trkpt lat="48.817501002922654" lon="9.368021925911307">
<ele>247.4</ele>
<time>2024-05-12T12:29:48Z</time>
</trkpt>
<trkpt lat="48.817501002922654" lon="9.368084874004126">
<ele>247.2</ele>
<time>2024-05-12T12:29:49Z</time>
</trkpt>
<trkpt lat="48.817501002922654" lon="9.368143044412136">
<ele>247.2</ele>
<time>2024-05-12T12:29:50Z</time>
</trkpt>
<trkpt lat="48.817501002922654" lon="9.368203142657876">
<ele>247.2</ele>
<time>2024-05-12T12:29:51Z</time>
</trkpt>
<trkpt lat="48.817501002922654" lon="9.368258463218808">
<ele>247.2</ele>
<time>2024-05-12T12:29:52Z</time>
</trkpt>
<trkpt lat="48.817501002922654" lon="9.36830992810428">
<ele>247.2</ele>
<time>2024-05-12T12:29:53Z</time>
</trkpt>
<trkpt lat="48.81749723106623" lon="9.368365248665214">
<ele>247.2</ele>
<time>2024-05-12T12:29:54Z</time>
</trkpt>
<trkpt lat="48.81749337539077" lon="9.368419647216797">
<ele>247</ele>
<time>2024-05-12T12:29:55Z</time>
</trkpt>
<trkpt lat="48.81749337539077" lon="9.368474883958696">
<ele>247</ele>
<time>2024-05-12T12:29:56Z</time>
</trkpt>
<trkpt lat="48.81749337539077" lon="9.368528360500932">
<ele>247</ele>
<time>2024-05-12T12:29:57Z</time>
</trkpt>
<trkpt lat="48.81749723106623" lon="9.368577897548676">
<ele>247.2</ele>
<time>2024-05-12T12:29:58Z</time>
</trkpt>
<trkpt lat="48.81749723106623" lon="9.3686284404248">
<ele>247.2</ele>
<time>2024-05-12T12:29:59Z</time>
</trkpt>
<trkpt lat="48.81749723106623" lon="9.368673283606768">
<ele>247.2</ele>
<time>2024-05-12T12:30:00Z</time>
</trkpt>
<trkpt lat="48.81750485859811" lon="9.368720054626465">
<ele>247.2</ele>
<time>2024-05-12T12:30:01Z</time>
</trkpt>
<trkpt lat="48.81750863045454" lon="9.36876866966486">
<ele>247.2</ele>
<time>2024-05-12T12:30:02Z</time>
</trkpt>
<trkpt lat="48.817516257986426" lon="9.368816362693906">
<ele>247.4</ele>
<time>2024-05-12T12:30:03Z</time>
</trkpt>
<trkpt lat="48.81752388551831" lon="9.36886690557003">
<ele>247.4</ele>
<time>2024-05-12T12:30:04Z</time>
</trkpt>
<trkpt lat="48.81752774119377" lon="9.36892507597804">
<ele>247.4</ele>
<time>2024-05-12T12:30:05Z</time>
</trkpt>
<trkpt lat="48.8175315130502" lon="9.368987018242478">
<ele>247.6</ele>
<time>2024-05-12T12:30:06Z</time>
</trkpt>
<trkpt lat="48.81754676811397" lon="9.369049966335297">
<ele>247.8</ele>
<time>2024-05-12T12:30:07Z</time>
</trkpt>
<trkpt lat="48.81756202317774" lon="9.369125319644809">
<ele>247.8</ele>
<time>2024-05-12T12:30:08Z</time>
</trkpt>
<trkpt lat="48.817581133916974" lon="9.369197823107244">
<ele>247.8</ele>
<time>2024-05-12T12:30:09Z</time>
</trkpt>
<trkpt lat="48.817596388980746" lon="9.369276948273182">
<ele>247.8</ele>
<time>2024-05-12T12:30:10Z</time>
</trkpt>
<trkpt lat="48.817596388980746" lon="9.369357079267502">
<ele>247.8</ele>
<time>2024-05-12T12:30:11Z</time>
</trkpt>
<trkpt lat="48.81759261712432" lon="9.36943620443344">
<ele>247.6</ele>
<time>2024-05-12T12:30:12Z</time>
</trkpt>
<trkpt lat="48.81758498959243" lon="9.36951633542776">
<ele>247.6</ele>
<time>2024-05-12T12:30:13Z</time>
</trkpt>
<trkpt lat="48.81757736206055" lon="9.369593616575004">
<ele>247.4</ele>
<time>2024-05-12T12:30:14Z</time>
</trkpt>
<trkpt lat="48.8175658788532" lon="9.369669891893864">
<ele>247.4</ele>
<time>2024-05-12T12:30:15Z</time>
</trkpt>
<trkpt lat="48.81755825132131" lon="9.369743317365646">
<ele>247.2</ele>
<time>2024-05-12T12:30:16Z</time>
</trkpt>
<trkpt lat="48.81754676811397" lon="9.3698148149997">
<ele>247.2</ele>
<time>2024-05-12T12:30:17Z</time>
</trkpt>
<trkpt lat="48.81753536872566" lon="9.369886396452785">
<ele>247.2</ele>
<time>2024-05-12T12:30:18Z</time>
</trkpt>
<trkpt lat="48.8175315130502" lon="9.369959821924567">
<ele>247.4</ele>
<time>2024-05-12T12:30:19Z</time>
</trkpt>
<trkpt lat="48.8175315130502" lon="9.370028469711542">
<ele>247.2</ele>
<time>2024-05-12T12:30:20Z</time>
</trkpt>
<trkpt lat="48.8175315130502" lon="9.370095189660788">
<ele>247.2</ele>
<time>2024-05-12T12:30:21Z</time>
</trkpt>
<trkpt lat="48.81752774119377" lon="9.370158137753606">
<ele>247.4</ele>
<time>2024-05-12T12:30:22Z</time>
</trkpt>
<trkpt lat="48.81752388551831" lon="9.37022678554058">
<ele>247.4</ele>
<time>2024-05-12T12:30:23Z</time>
</trkpt>
<trkpt lat="48.817520113661885" lon="9.370296439155936">
<ele>247.4</ele>
<time>2024-05-12T12:30:24Z</time>
</trkpt>
<trkpt lat="48.817520113661885" lon="9.370365086942911">
<ele>247.4</ele>
<time>2024-05-12T12:30:25Z</time>
</trkpt>
<trkpt lat="48.81750863045454" lon="9.370433734729886">
<ele>247.6</ele>
<time>2024-05-12T12:30:26Z</time>
</trkpt>
<trkpt lat="48.817501002922654" lon="9.370499532669784">
<ele>247.8</ele>
<time>2024-05-12T12:30:27Z</time>
</trkpt>
<trkpt lat="48.81748960353434" lon="9.370570108294489">
<ele>247.8</ele>
<time>2024-05-12T12:30:28Z</time>
</trkpt>
<trkpt lat="48.817481976002455" lon="9.370639761909842">
<ele>248</ele>
<time>2024-05-12T12:30:29Z</time>
</trkpt>
<trkpt lat="48.81747812032699" lon="9.370710337534549">
<ele>248.2</ele>
<time>2024-05-12T12:30:30Z</time>
</trkpt>
<trkpt lat="48.81747049279511" lon="9.370778063312171">
<ele>248.2</ele>
<time>2024-05-12T12:30:31Z</time>
</trkpt>
<trkpt lat="48.81746672093868" lon="9.370849560946226">
<ele>248.4</ele>
<time>2024-05-12T12:30:32Z</time>
</trkpt>
<trkpt lat="48.817462865263224" lon="9.370924914255738">
<ele>248.4</ele>
<time>2024-05-12T12:30:33Z</time>
</trkpt>
<trkpt lat="48.8174590934068" lon="9.371003117412329">
<ele>248.6</ele>
<time>2024-05-12T12:30:34Z</time>
</trkpt>
<trkpt lat="48.81745523773134" lon="9.37107847072184">
<ele>248.6</ele>
<time>2024-05-12T12:30:35Z</time>
</trkpt>
<trkpt lat="48.81745146587491" lon="9.371154746040702">
<ele>248.6</ele>
<time>2024-05-12T12:30:36Z</time>
</trkpt>
<trkpt lat="48.817443838343024" lon="9.37123965471983">
<ele>248.8</ele>
<time>2024-05-12T12:30:37Z</time>
</trkpt>
<trkpt lat="48.817439982667565" lon="9.371323557570577">
<ele>248.8</ele>
<time>2024-05-12T12:30:38Z</time>
</trkpt>
<trkpt lat="48.81742858327925" lon="9.371406538411977">
<ele>248.8</ele>
<time>2024-05-12T12:30:39Z</time>
</trkpt>
<trkpt lat="48.81741332821548" lon="9.371482813730836">
<ele>248.8</ele>
<time>2024-05-12T12:30:40Z</time>
</trkpt>
<trkpt lat="48.81739798933267" lon="9.371558167040348">
<ele>248.8</ele>
<time>2024-05-12T12:30:41Z</time>
</trkpt>
<trkpt lat="48.81738658994436" lon="9.37163159251213">
<ele>248.8</ele>
<time>2024-05-12T12:30:42Z</time>
</trkpt>
<trkpt lat="48.81737510673702" lon="9.371703090146184">
<ele>248.8</ele>
<time>2024-05-12T12:30:43Z</time>
</trkpt>
<trkpt lat="48.817359851673245" lon="9.371773665770888">
<ele>248.8</ele>
<time>2024-05-12T12:30:44Z</time>
</trkpt>
<trkpt lat="48.81734845228493" lon="9.371854718774555">
<ele>249</ele>
<time>2024-05-12T12:30:45Z</time>
</trkpt>
<trkpt lat="48.817340824753046" lon="9.371936777606606">
<ele>249</ele>
<time>2024-05-12T12:30:46Z</time>
</trkpt>
<trkpt lat="48.81733696907759" lon="9.372019758448005">
<ele>249</ele>
<time>2024-05-12T12:30:47Z</time>
</trkpt>
<trkpt lat="48.8173293415457" lon="9.372103661298752">
<ele>249.2</ele>
<time>2024-05-12T12:30:48Z</time>
</trkpt>
<trkpt lat="48.817321714013815" lon="9.372188486158848">
<ele>249.2</ele>
<time>2024-05-12T12:30:49Z</time>
</trkpt>
<trkpt lat="48.81731408648193" lon="9.372268617153168">
<ele>249.4</ele>
<time>2024-05-12T12:30:50Z</time>
</trkpt>
<trkpt lat="48.81729883141816" lon="9.372348748147488">
<ele>249.4</ele>
<time>2024-05-12T12:30:51Z</time>
</trkpt>
<trkpt lat="48.817283576354384" lon="9.372436506673694">
<ele>249.4</ele>
<time>2024-05-12T12:30:52Z</time>
</trkpt>
<trkpt lat="48.81727217696607" lon="9.372514709830284">
<ele>249.4</ele>
<time>2024-05-12T12:30:53Z</time>
</trkpt>
<trkpt lat="48.817264549434185" lon="9.372598612681031">
<ele>249.4</ele>
<time>2024-05-12T12:30:54Z</time>
</trkpt>
<trkpt lat="48.81724929437041" lon="9.372685365378857">
<ele>249.2</ele>
<time>2024-05-12T12:30:55Z</time>
</trkpt>
<trkpt lat="48.81723781116307" lon="9.37277790158987">
<ele>249.2</ele>
<time>2024-05-12T12:30:56Z</time>
</trkpt>
<trkpt lat="48.817222556099296" lon="9.372871359810231">
<ele>249</ele>
<time>2024-05-12T12:30:57Z</time>
</trkpt>
<trkpt lat="48.81721107289195" lon="9.372961968183516">
<ele>249</ele>
<time>2024-05-12T12:30:58Z</time>
</trkpt>
<trkpt lat="48.817203445360065" lon="9.373043021187186">
<ele>248.8</ele>
<time>2024-05-12T12:30:59Z</time>
</trkpt>
<trkpt lat="48.81719581782818" lon="9.373126924037932">
<ele>248.8</ele>
<time>2024-05-12T12:31:00Z</time>
</trkpt>
<trkpt lat="48.81718819029629" lon="9.37321376055479">
<ele>248.8</ele>
<time>2024-05-12T12:31:01Z</time>
</trkpt>
<trkpt lat="48.81717679090798" lon="9.37331291846931">
<ele>248.6</ele>
<time>2024-05-12T12:31:02Z</time>
</trkpt>
<trkpt lat="48.81717293523252" lon="9.373405454680324">
<ele>248.8</ele>
<time>2024-05-12T12:31:03Z</time>
</trkpt>
<trkpt lat="48.81717293523252" lon="9.37349027954042">
<ele>248.8</ele>
<time>2024-05-12T12:31:04Z</time>
</trkpt>
<trkpt lat="48.817165307700634" lon="9.373581809923053">
<ele>248.8</ele>
<time>2024-05-12T12:31:05Z</time>
</trkpt>
<trkpt lat="48.817165307700634" lon="9.373664790764453">
<ele>248.8</ele>
<time>2024-05-12T12:31:06Z</time>
</trkpt>
<trkpt lat="48.817165307700634" lon="9.37374299392104">
<ele>248.6</ele>
<time>2024-05-12T12:31:07Z</time>
</trkpt>
<trkpt lat="48.81716153584421" lon="9.37382698059082">
<ele>248.6</ele>
<time>2024-05-12T12:31:08Z</time>
</trkpt>
<trkpt lat="48.81715768016875" lon="9.373908033594487">
<ele>248.6</ele>
<time>2024-05-12T12:31:09Z</time>
</trkpt>
<trkpt lat="48.81715768016875" lon="9.37398623675108">
<ele>248.4</ele>
<time>2024-05-12T12:31:10Z</time>
</trkpt>
<trkpt lat="48.81715390831232" lon="9.374068211764095">
<ele>248.2</ele>
<time>2024-05-12T12:31:11Z</time>
</trkpt>
<trkpt lat="48.81715005263686" lon="9.374151192605495">
<ele>248.2</ele>
<time>2024-05-12T12:31:12Z</time>
</trkpt>
<trkpt lat="48.817142425104976" lon="9.374235095456244">
<ele>248.2</ele>
<time>2024-05-12T12:31:13Z</time>
</trkpt>
<trkpt lat="48.81713102571666" lon="9.37432000413537">
<ele>248.2</ele>
<time>2024-05-12T12:31:14Z</time>
</trkpt>
<trkpt lat="48.817123398184776" lon="9.37440013512969">
<ele>248.2</ele>
<time>2024-05-12T12:31:15Z</time>
</trkpt>
<trkpt lat="48.81711577065289" lon="9.37447833828628">
<ele>248.2</ele>
<time>2024-05-12T12:31:16Z</time>
</trkpt>
<trkpt lat="48.81710814312101" lon="9.374554613605142">
<ele>248.2</ele>
<time>2024-05-12T12:31:17Z</time>
</trkpt>
<trkpt lat="48.817104287445545" lon="9.374631810933352">
<ele>248.4</ele>
<time>2024-05-12T12:31:18Z</time>
</trkpt>
<trkpt lat="48.81710814312101" lon="9.374703392386436">
<ele>248.4</ele>
<time>2024-05-12T12:31:19Z</time>
</trkpt>
<trkpt lat="48.81710814312101" lon="9.374772040173411">
<ele>248.6</ele>
<time>2024-05-12T12:31:20Z</time>
</trkpt>
<trkpt lat="48.81710814312101" lon="9.374843537807465">
<ele>248.6</ele>
<time>2024-05-12T12:31:21Z</time>
</trkpt>
<trkpt lat="48.81710814312101" lon="9.37491511926055">
<ele>248.6</ele>
<time>2024-05-12T12:31:22Z</time>
</trkpt>
<trkpt lat="48.81711191497743" lon="9.37499139457941">
<ele>248.6</ele>
<time>2024-05-12T12:31:23Z</time>
</trkpt>
<trkpt lat="48.81711954250932" lon="9.375064820051191">
<ele>248.6</ele>
<time>2024-05-12T12:31:24Z</time>
</trkpt>
<trkpt lat="48.817123398184776" lon="9.375138245522976">
<ele>248.8</ele>
<time>2024-05-12T12:31:25Z</time>
</trkpt>
<trkpt lat="48.8171271700412" lon="9.375207899138331">
<ele>248.8</ele>
<time>2024-05-12T12:31:26Z</time>
</trkpt>
<trkpt lat="48.81713102571666" lon="9.375278390944004">
<ele>248.8</ele>
<time>2024-05-12T12:31:27Z</time>
</trkpt>
<trkpt lat="48.81713479757309" lon="9.37534712255001">
<ele>249</ele>
<time>2024-05-12T12:31:28Z</time>
</trkpt>
<trkpt lat="48.81713479757309" lon="9.375414848327637">
<ele>249</ele>
<time>2024-05-12T12:31:29Z</time>
</trkpt>
<trkpt lat="48.81713479757309" lon="9.375483496114612">
<ele>249.2</ele>
<time>2024-05-12T12:31:30Z</time>
</trkpt>
<trkpt lat="48.81713865324855" lon="9.375554993748665">
<ele>249.2</ele>
<time>2024-05-12T12:31:31Z</time>
</trkpt>
<trkpt lat="48.817142425104976" lon="9.375619869679213">
<ele>249.2</ele>
<time>2024-05-12T12:31:32Z</time>
</trkpt>
<trkpt lat="48.817146280780435" lon="9.375686589628458">
<ele>249.2</ele>
<time>2024-05-12T12:31:33Z</time>
</trkpt>
<trkpt lat="48.81715005263686" lon="9.375755237415431">
<ele>249.4</ele>
<time>2024-05-12T12:31:34Z</time>
</trkpt>
<trkpt lat="48.81715005263686" lon="9.375824891030788">
<ele>249.4</ele>
<time>2024-05-12T12:31:35Z</time>
</trkpt>
<trkpt lat="48.81715005263686" lon="9.375894544646144">
<ele>249.2</ele>
<time>2024-05-12T12:31:36Z</time>
</trkpt>
<trkpt lat="48.81715005263686" lon="9.375969814136624">
<ele>249.2</ele>
<time>2024-05-12T12:31:37Z</time>
</trkpt>
<trkpt lat="48.81715005263686" lon="9.376051872968674">
<ele>249.2</ele>
<time>2024-05-12T12:31:38Z</time>
</trkpt>
<trkpt lat="48.81715005263686" lon="9.376134853810072">
<ele>249</ele>
<time>2024-05-12T12:31:39Z</time>
</trkpt>
<trkpt lat="48.81715005263686" lon="9.37621875666082">
<ele>249</ele>
<time>2024-05-12T12:31:40Z</time>
</trkpt>
<trkpt lat="48.81715005263686" lon="9.376301737502216">
<ele>249</ele>
<time>2024-05-12T12:31:41Z</time>
</trkpt>
<trkpt lat="48.81715005263686" lon="9.376386562362311">
<ele>248.8</ele>
<time>2024-05-12T12:31:42Z</time>
</trkpt>
<trkpt lat="48.81715005263686" lon="9.376466693356631">
<ele>248.8</ele>
<time>2024-05-12T12:31:43Z</time>
</trkpt>
<trkpt lat="48.81715390831232" lon="9.376542968675494">
<ele>248.8</ele>
<time>2024-05-12T12:31:44Z</time>
</trkpt>
<trkpt lat="48.81716153584421" lon="9.3766135443002">
<ele>248.8</ele>
<time>2024-05-12T12:31:45Z</time>
</trkpt>
<trkpt lat="48.81716916337609" lon="9.376685125753284">
<ele>249</ele>
<time>2024-05-12T12:31:46Z</time>
</trkpt>
<trkpt lat="48.81717679090798" lon="9.376756623387337">
<ele>249</ele>
<time>2024-05-12T12:31:47Z</time>
</trkpt>
<trkpt lat="48.81719204597175" lon="9.376823343336582">
<ele>249.2</ele>
<time>2024-05-12T12:31:48Z</time>
</trkpt>
<trkpt lat="48.817203445360065" lon="9.376881597563624">
<ele>249.2</ele>
<time>2024-05-12T12:31:49Z</time>
</trkpt>
<trkpt lat="48.81720730103552" lon="9.376951167359948">
<ele>249.2</ele>
<time>2024-05-12T12:31:50Z</time>
</trkpt>
<trkpt lat="48.81721492856741" lon="9.377023670822382">
<ele>249.4</ele>
<time>2024-05-12T12:31:51Z</time>
</trkpt>
<trkpt lat="48.81721492856741" lon="9.377095168456435">
<ele>249.4</ele>
<time>2024-05-12T12:31:52Z</time>
</trkpt>
<trkpt lat="48.81721870042384" lon="9.377168593928218">
<ele>249.6</ele>
<time>2024-05-12T12:31:53Z</time>
</trkpt>
<trkpt lat="48.817222556099296" lon="9.37724302522838">
<ele>249.6</ele>
<time>2024-05-12T12:31:54Z</time>
</trkpt>
<trkpt lat="48.81722632795572" lon="9.377313600853086">
<ele>249.8</ele>
<time>2024-05-12T12:31:55Z</time>
</trkpt>
<trkpt lat="48.81723018363118" lon="9.37738124281168">
<ele>250</ele>
<time>2024-05-12T12:31:56Z</time>
</trkpt>
<trkpt lat="48.81723018363118" lon="9.377449974417686">
<ele>250</ele>
<time>2024-05-12T12:31:57Z</time>
</trkpt>
<trkpt lat="48.81723403930664" lon="9.377516694366932">
<ele>250.2</ele>
<time>2024-05-12T12:31:58Z</time>
</trkpt>
<trkpt lat="48.81723403930664" lon="9.377588192000983">
<ele>250.2</ele>
<time>2024-05-12T12:31:59Z</time>
</trkpt>
<trkpt lat="48.81723403930664" lon="9.377656923606992">
<ele>250.2</ele>
<time>2024-05-12T12:32:00Z</time>
</trkpt>
<trkpt lat="48.81723018363118" lon="9.377724565565586">
<ele>250.2</ele>
<time>2024-05-12T12:32:01Z</time>
</trkpt>
<trkpt lat="48.81722632795572" lon="9.377790447324514">
<ele>250.2</ele>
<time>2024-05-12T12:32:02Z</time>
</trkpt>
<trkpt lat="48.817222556099296" lon="9.3778533115983">
<ele>250.4</ele>
<time>2024-05-12T12:32:03Z</time>
</trkpt>
<trkpt lat="48.817222556099296" lon="9.37791340984404">
<ele>250.4</ele>
<time>2024-05-12T12:32:04Z</time>
</trkpt>
<trkpt lat="48.817222556099296" lon="9.377971580252051">
<ele>250.4</ele>
<time>2024-05-12T12:32:05Z</time>
</trkpt>
<trkpt lat="48.81721870042384" lon="9.378026900812984">
<ele>250.6</ele>
<time>2024-05-12T12:32:06Z</time>
</trkpt>
<trkpt lat="48.817222556099296" lon="9.378083227202296">
<ele>250.6</ele>
<time>2024-05-12T12:32:07Z</time>
</trkpt>
<trkpt lat="48.817222556099296" lon="9.378140391781926">
<ele>250.6</ele>
<time>2024-05-12T12:32:08Z</time>
</trkpt>
<trkpt lat="48.817222556099296" lon="9.378199568018315">
<ele>250.8</ele>
<time>2024-05-12T12:32:09Z</time>
</trkpt>
<trkpt lat="48.81722632795572" lon="9.378258660435677">
<ele>251</ele>
<time>2024-05-12T12:32:10Z</time>
</trkpt>
<trkpt lat="48.81722632795572" lon="9.378314903005958">
<ele>251</ele>
<time>2024-05-12T12:32:11Z</time>
</trkpt>
<trkpt lat="48.81722632795572" lon="9.378377851098776">
<ele>251.2</ele>
<time>2024-05-12T12:32:12Z</time>
</trkpt>
<trkpt lat="48.817222556099296" lon="9.378443649038672">
<ele>251.2</ele>
<time>2024-05-12T12:32:13Z</time>
</trkpt>
<trkpt lat="48.81721492856741" lon="9.378501819446685">
<ele>251.2</ele>
<time>2024-05-12T12:32:14Z</time>
</trkpt>
<trkpt lat="48.817203445360065" lon="9.378559989854692">
<ele>251.2</ele>
<time>2024-05-12T12:32:15Z</time>
</trkpt>
<trkpt lat="48.817184418439865" lon="9.378616316244006">
<ele>251.2</ele>
<time>2024-05-12T12:32:16Z</time>
</trkpt>
<trkpt lat="48.81717293523252" lon="9.378681108355522">
<ele>251.2</ele>
<time>2024-05-12T12:32:17Z</time>
</trkpt>
<trkpt lat="48.81715768016875" lon="9.37874690629542">
<ele>251.2</ele>
<time>2024-05-12T12:32:18Z</time>
</trkpt>
<trkpt lat="48.817146280780435" lon="9.378811782225966">
<ele>251.2</ele>
<time>2024-05-12T12:32:19Z</time>
</trkpt>
<trkpt lat="48.81713479757309" lon="9.378876658156514">
<ele>251.2</ele>
<time>2024-05-12T12:32:20Z</time>
</trkpt>
<trkpt lat="48.817123398184776" lon="9.378941534087062">
<ele>251.2</ele>
<time>2024-05-12T12:32:21Z</time>
</trkpt>
<trkpt lat="48.81711954250932" lon="9.379014959558845">
<ele>251.2</ele>
<time>2024-05-12T12:32:22Z</time>
</trkpt>
<trkpt lat="48.81711191497743" lon="9.379097856581213">
<ele>251.2</ele>
<time>2024-05-12T12:32:23Z</time>
</trkpt>
<trkpt lat="48.81710814312101" lon="9.379175137728453">
<ele>251.2</ele>
<time>2024-05-12T12:32:24Z</time>
</trkpt>
<trkpt lat="48.81710814312101" lon="9.379246635362506">
<ele>251</ele>
<time>2024-05-12T12:32:25Z</time>
</trkpt>
<trkpt lat="48.81710814312101" lon="9.37931821681559">
<ele>251</ele>
<time>2024-05-12T12:32:26Z</time>
</trkpt>
<trkpt lat="48.81710814312101" lon="9.379388792440295">
<ele>250.8</ele>
<time>2024-05-12T12:32:27Z</time>
</trkpt>
<trkpt lat="48.81710051558912" lon="9.37945651821792">
<ele>250.8</ele>
<time>2024-05-12T12:32:28Z</time>
</trkpt>
<trkpt lat="48.81709665991366" lon="9.379525166004896">
<ele>250.8</ele>
<time>2024-05-12T12:32:29Z</time>
</trkpt>
<trkpt lat="48.81710051558912" lon="9.37959473580122">
<ele>250.6</ele>
<time>2024-05-12T12:32:30Z</time>
</trkpt>
<trkpt lat="48.817104287445545" lon="9.379663467407228">
<ele>250.6</ele>
<time>2024-05-12T12:32:31Z</time>
</trkpt>
<trkpt lat="48.81710814312101" lon="9.37973303720355">
<ele>250.4</ele>
<time>2024-05-12T12:32:32Z</time>
</trkpt>
<trkpt lat="48.81711191497743" lon="9.379801684990523">
<ele>250.4</ele>
<time>2024-05-12T12:32:33Z</time>
</trkpt>
<trkpt lat="48.81711954250932" lon="9.37987133860588">
<ele>250.2</ele>
<time>2024-05-12T12:32:34Z</time>
</trkpt>
<trkpt lat="48.817123398184776" lon="9.379938058555126">
<ele>250.2</ele>
<time>2024-05-12T12:32:35Z</time>
</trkpt>
<trkpt lat="48.8171271700412" lon="9.380006790161133">
<ele>250.2</ele>
<time>2024-05-12T12:32:36Z</time>
</trkpt>
<trkpt lat="48.8171271700412" lon="9.380075437948108">
<ele>250.2</ele>
<time>2024-05-12T12:32:37Z</time>
</trkpt>
<trkpt lat="48.81713102571666" lon="9.380141235888004">
<ele>250.2</ele>
<time>2024-05-12T12:32:38Z</time>
</trkpt>
<trkpt lat="48.81713102571666" lon="9.38020795583725">
<ele>250.2</ele>
<time>2024-05-12T12:32:39Z</time>
</trkpt>
<trkpt lat="48.81713102571666" lon="9.380276603624225">
<ele>250.2</ele>
<time>2024-05-12T12:32:40Z</time>
</trkpt>
<trkpt lat="48.81713102571666" lon="9.380343407392502">
<ele>250.2</ele>
<time>2024-05-12T12:32:41Z</time>
</trkpt>
<trkpt lat="48.81713479757309" lon="9.380410127341747">
<ele>250.2</ele>
<time>2024-05-12T12:32:42Z</time>
</trkpt>
<trkpt lat="48.81713865324855" lon="9.380476931110024">
<ele>250.2</ele>
<time>2024-05-12T12:32:43Z</time>
</trkpt>
<trkpt lat="48.817142425104976" lon="9.38054365105927">
<ele>250</ele>
<time>2024-05-12T12:32:44Z</time>
</trkpt>
<trkpt lat="48.817146280780435" lon="9.380611376836896">
<ele>250</ele>
<time>2024-05-12T12:32:45Z</time>
</trkpt>
<trkpt lat="48.81715005263686" lon="9.38067809678614">
<ele>250</ele>
<time>2024-05-12T12:32:46Z</time>
</trkpt>
<trkpt lat="48.81715390831232" lon="9.38074490055442">
<ele>250</ele>
<time>2024-05-12T12:32:47Z</time>
</trkpt>
<trkpt lat="48.81715768016875" lon="9.380811620503664">
<ele>250</ele>
<time>2024-05-12T12:32:48Z</time>
</trkpt>
<trkpt lat="48.81716153584421" lon="9.380876496434212">
<ele>250</ele>
<time>2024-05-12T12:32:49Z</time>
</trkpt>
<trkpt lat="48.81716153584421" lon="9.380947072058916">
<ele>250.2</ele>
<time>2024-05-12T12:32:50Z</time>
</trkpt>
<trkpt lat="48.81715768016875" lon="9.381016725674272">
<ele>250.2</ele>
<time>2024-05-12T12:32:51Z</time>
</trkpt>
<trkpt lat="48.81715390831232" lon="9.381088223308325">
<ele>250.4</ele>
<time>2024-05-12T12:32:52Z</time>
</trkpt>
<trkpt lat="48.81715390831232" lon="9.381159720942378">
<ele>250.4</ele>
<time>2024-05-12T12:32:53Z</time>
</trkpt>
<trkpt lat="48.81715390831232" lon="9.381226524710655">
<ele>250.6</ele>
<time>2024-05-12T12:32:54Z</time>
</trkpt>
<trkpt lat="48.81715390831232" lon="9.3812932446599">
<ele>250.6</ele>
<time>2024-05-12T12:32:55Z</time>
</trkpt>
<trkpt lat="48.81715390831232" lon="9.381362898275256">
<ele>250.8</ele>
<time>2024-05-12T12:32:56Z</time>
</trkpt>
<trkpt lat="48.81715390831232" lon="9.381429618224502">
<ele>250.8</ele>
<time>2024-05-12T12:32:57Z</time>
</trkpt>
<trkpt lat="48.81715390831232" lon="9.381493488326669">
<ele>250.8</ele>
<time>2024-05-12T12:32:58Z</time>
</trkpt>
<trkpt lat="48.81715768016875" lon="9.381558364257216">
<ele>250.8</ele>
<time>2024-05-12T12:32:59Z</time>
</trkpt>
<trkpt lat="48.81715768016875" lon="9.381627012044191">
<ele>250.8</ele>
<time>2024-05-12T12:33:00Z</time>
</trkpt>
<trkpt lat="48.81715768016875" lon="9.381696665659549">
<ele>250.8</ele>
<time>2024-05-12T12:33:01Z</time>
</trkpt>
<trkpt lat="48.81715768016875" lon="9.381763385608792">
<ele>250.8</ele>
<time>2024-05-12T12:33:02Z</time>
</trkpt>
<trkpt lat="48.81716153584421" lon="9.38183018937707">
<ele>250.6</ele>
<time>2024-05-12T12:33:03Z</time>
</trkpt>
<trkpt lat="48.81716916337609" lon="9.381895065307615">
<ele>250.6</ele>
<time>2024-05-12T12:33:04Z</time>
</trkpt>
<trkpt lat="48.81717679090798" lon="9.381957929581404">
<ele>250.6</ele>
<time>2024-05-12T12:33:05Z</time>
</trkpt>
<trkpt lat="48.817184418439865" lon="9.382022805511951">
<ele>250.6</ele>
<time>2024-05-12T12:33:06Z</time>
</trkpt>
<trkpt lat="48.81719581782818" lon="9.38208483159542">
<ele>250.6</ele>
<time>2024-05-12T12:33:07Z</time>
</trkpt>
<trkpt lat="48.817203445360065" lon="9.382144846022127">
<ele>250.6</ele>
<time>2024-05-12T12:33:08Z</time>
</trkpt>
<trkpt lat="48.81721492856741" lon="9.382203100249171">
<ele>250.8</ele>
<time>2024-05-12T12:33:09Z</time>
</trkpt>
<trkpt lat="48.81722632795572" lon="9.382258336991072">
<ele>251</ele>
<time>2024-05-12T12:33:10Z</time>
</trkpt>
<trkpt lat="48.81723018363118" lon="9.382311813533306">
<ele>251</ele>
<time>2024-05-12T12:33:11Z</time>
</trkpt>
<trkpt lat="48.81723781116307" lon="9.382365206256509">
<ele>251.2</ele>
<time>2024-05-12T12:33:12Z</time>
</trkpt>
<trkpt lat="48.81724166683853" lon="9.382418598979712">
<ele>251.4</ele>
<time>2024-05-12T12:33:13Z</time>
</trkpt>
<trkpt lat="48.81725306622684" lon="9.382472913712265">
<ele>251.6</ele>
<time>2024-05-12T12:33:14Z</time>
</trkpt>
<trkpt lat="48.8172569219023" lon="9.382530162110925">
<ele>251.6</ele>
<time>2024-05-12T12:33:15Z</time>
</trkpt>
<trkpt lat="48.817260693758726" lon="9.382590260356665">
<ele>251.8</ele>
<time>2024-05-12T12:33:16Z</time>
</trkpt>
<trkpt lat="48.8172569219023" lon="9.382659830152988">
<ele>252</ele>
<time>2024-05-12T12:33:17Z</time>
</trkpt>
<trkpt lat="48.8172569219023" lon="9.382731411606072">
<ele>252</ele>
<time>2024-05-12T12:33:18Z</time>
</trkpt>
<trkpt lat="48.81725306622684" lon="9.382809614762664">
<ele>252.2</ele>
<time>2024-05-12T12:33:19Z</time>
</trkpt>
<trkpt lat="48.817245438694954" lon="9.382886812090874">
<ele>252.2</ele>
<time>2024-05-12T12:33:20Z</time>
</trkpt>
<trkpt lat="48.81724166683853" lon="9.382969792932272">
<ele>252</ele>
<time>2024-05-12T12:33:21Z</time>
</trkpt>
<trkpt lat="48.81723403930664" lon="9.383056629449127">
<ele>252</ele>
<time>2024-05-12T12:33:22Z</time>
</trkpt>
<trkpt lat="48.81722632795572" lon="9.383143382146956">
<ele>251.8</ele>
<time>2024-05-12T12:33:23Z</time>
</trkpt>
<trkpt lat="48.81721870042384" lon="9.38323306851089">
<ele>251.8</ele>
<time>2024-05-12T12:33:24Z</time>
</trkpt>
<trkpt lat="48.81721107289195" lon="9.383321749046443">
<ele>251.6</ele>
<time>2024-05-12T12:33:25Z</time>
</trkpt>
<trkpt lat="48.817203445360065" lon="9.383401796221731">
<ele>251.6</ele>
<time>2024-05-12T12:33:26Z</time>
</trkpt>
<trkpt lat="48.81718819029629" lon="9.383475221693516">
<ele>251.4</ele>
<time>2024-05-12T12:33:27Z</time>
</trkpt>
<trkpt lat="48.81717293523252" lon="9.3835468031466">
<ele>251.2</ele>
<time>2024-05-12T12:33:28Z</time>
</trkpt>
<trkpt lat="48.81716153584421" lon="9.383613523095846">
<ele>251</ele>
<time>2024-05-12T12:33:29Z</time>
</trkpt>
<trkpt lat="48.817142425104976" lon="9.383676471188664">
<ele>250.8</ele>
<time>2024-05-12T12:33:30Z</time>
</trkpt>
<trkpt lat="48.8171271700412" lon="9.383738497272134">
<ele>250.6</ele>
<time>2024-05-12T12:33:31Z</time>
</trkpt>
<trkpt lat="48.81710814312101" lon="9.383796667680144">
<ele>250.4</ele>
<time>2024-05-12T12:33:32Z</time>
</trkpt>
<trkpt lat="48.81709288805723" lon="9.383854838088157">
<ele>250.2</ele>
<time>2024-05-12T12:33:33Z</time>
</trkpt>
<trkpt lat="48.817073777318" lon="9.383910158649089">
<ele>250</ele>
<time>2024-05-12T12:33:34Z</time>
</trkpt>
<trkpt lat="48.81705466657877" lon="9.38396162353456">
<ele>249.6</ele>
<time>2024-05-12T12:33:35Z</time>
</trkpt>
<trkpt lat="48.81702801212669" lon="9.384011244401336">
<ele>249.4</ele>
<time>2024-05-12T12:33:36Z</time>
</trkpt>
<trkpt lat="48.817005129531026" lon="9.384053153917192">
<ele>249.2</ele>
<time>2024-05-12T12:33:37Z</time>
</trkpt>
<trkpt lat="48.81697461940348" lon="9.384095147252085">
<ele>249</ele>
<time>2024-05-12T12:33:38Z</time>
</trkpt>
<trkpt lat="48.81695173680782" lon="9.384142840281129">
<ele>248.8</ele>
<time>2024-05-12T12:33:39Z</time>
</trkpt>
<trkpt lat="48.81694025360048" lon="9.38420008867979">
<ele>248.6</ele>
<time>2024-05-12T12:33:40Z</time>
</trkpt>
<trkpt lat="48.81693262606859" lon="9.384262030944228">
<ele>248.6</ele>
<time>2024-05-12T12:33:41Z</time>
</trkpt>
<trkpt lat="48.816928854212165" lon="9.384324979037046">
<ele>248.4</ele>
<time>2024-05-12T12:33:42Z</time>
</trkpt>
<trkpt lat="48.816924998536706" lon="9.384389854967594">
<ele>248.4</ele>
<time>2024-05-12T12:33:43Z</time>
</trkpt>
<trkpt lat="48.81692122668028" lon="9.384451797232032">
<ele>248.2</ele>
<time>2024-05-12T12:33:44Z</time>
</trkpt>
<trkpt lat="48.81692122668028" lon="9.38451667316258">
<ele>248.2</ele>
<time>2024-05-12T12:33:45Z</time>
</trkpt>
<trkpt lat="48.81692122668028" lon="9.384579621255398">
<ele>248.2</ele>
<time>2024-05-12T12:33:46Z</time>
</trkpt>
<trkpt lat="48.81692122668028" lon="9.384643491357563">
<ele>248.2</ele>
<time>2024-05-12T12:33:47Z</time>
</trkpt>
<trkpt lat="48.816924998536706" lon="9.384710295125842">
<ele>248.2</ele>
<time>2024-05-12T12:33:48Z</time>
</trkpt>
<trkpt lat="48.816924998536706" lon="9.384775087237358">
<ele>248.2</ele>
<time>2024-05-12T12:33:49Z</time>
</trkpt>
<trkpt lat="48.816924998536706" lon="9.384835185483098">
<ele>248.2</ele>
<time>2024-05-12T12:33:50Z</time>
</trkpt>
<trkpt lat="48.81692122668028" lon="9.38489142805338">
<ele>248.2</ele>
<time>2024-05-12T12:33:51Z</time>
</trkpt>
<trkpt lat="48.816909743472934" lon="9.384938199073076">
<ele>248.2</ele>
<time>2024-05-12T12:33:52Z</time>
</trkpt>
<trkpt lat="48.816886860877275" lon="9.384975414723158">
<ele>248.2</ele>
<time>2024-05-12T12:33:53Z</time>
</trkpt>
<trkpt lat="48.81685635074973" lon="9.385006846860051">
<ele>248.2</ele>
<time>2024-05-12T12:33:54Z</time>
</trkpt>
<trkpt lat="48.81682584062219" lon="9.385033585131168">
<ele>248.2</ele>
<time>2024-05-12T12:33:55Z</time>
</trkpt>
<trkpt lat="48.81679147481918" lon="9.385054539889095">
<ele>248.2</ele>
<time>2024-05-12T12:33:56Z</time>
</trkpt>
<trkpt lat="48.81675333715975" lon="9.385063089430332">
<ele>248.2</ele>
<time>2024-05-12T12:33:57Z</time>
</trkpt>
<trkpt lat="48.81671519950032" lon="9.38506786711514">
<ele>248.2</ele>
<time>2024-05-12T12:33:58Z</time>
</trkpt>
<trkpt lat="48.81668083369732" lon="9.385074572637675">
<ele>248.2</ele>
<time>2024-05-12T12:33:59Z</time>
</trkpt>
<trkpt lat="48.81664269603789" lon="9.38508982770145">
<ele>248.2</ele>
<time>2024-05-12T12:34:00Z</time>
</trkpt>
<trkpt lat="48.81660841405392" lon="9.3851079326123">
<ele>248.2</ele>
<time>2024-05-12T12:34:01Z</time>
</trkpt>
<trkpt lat="48.816574048250914" lon="9.385133665055037">
<ele>248.4</ele>
<time>2024-05-12T12:34:02Z</time>
</trkpt>
<trkpt lat="48.81654353812337" lon="9.385165181010962">
<ele>248.4</ele>
<time>2024-05-12T12:34:03Z</time>
</trkpt>
<trkpt lat="48.816509172320366" lon="9.385199546813965">
<ele>248.4</ele>
<time>2024-05-12T12:34:04Z</time>
</trkpt>
<trkpt lat="48.816474890336394" lon="9.385239528492091">
<ele>248.4</ele>
<time>2024-05-12T12:34:05Z</time>
</trkpt>
<trkpt lat="48.81644438020885" lon="9.385281521826982">
<ele>248.4</ele>
<time>2024-05-12T12:34:06Z</time>
</trkpt>
<trkpt lat="48.81641001440585" lon="9.38532535918057">
<ele>248.4</ele>
<time>2024-05-12T12:34:07Z</time>
</trkpt>
<trkpt lat="48.81636802107096" lon="9.38536643050611">
<ele>248.4</ele>
<time>2024-05-12T12:34:08Z</time>
</trkpt>
<trkpt lat="48.81632988341153" lon="9.385415045544503">
<ele>248.4</ele>
<time>2024-05-12T12:34:09Z</time>
</trkpt>
<trkpt lat="48.816295601427555" lon="9.385466510429978">
<ele>248.4</ele>
<time>2024-05-12T12:34:10Z</time>
</trkpt>
<trkpt lat="48.81626509130001" lon="9.385518059134483">
<ele>248.4</ele>
<time>2024-05-12T12:34:11Z</time>
</trkpt>
<trkpt lat="48.81623072549701" lon="9.385569524019957">
<ele>248.4</ele>
<time>2024-05-12T12:34:12Z</time>
</trkpt>
<trkpt lat="48.81620021536946" lon="9.38562291674316">
<ele>248.6</ele>
<time>2024-05-12T12:34:13Z</time>
</trkpt>
<trkpt lat="48.81616970524192" lon="9.385676309466362">
<ele>248.6</ele>
<time>2024-05-12T12:34:14Z</time>
</trkpt>
<trkpt lat="48.816135339438915" lon="9.385731630027294">
<ele>248.8</ele>
<time>2024-05-12T12:34:15Z</time>
</trkpt>
<trkpt lat="48.81610868498683" lon="9.385785022750497">
<ele>248.8</ele>
<time>2024-05-12T12:34:16Z</time>
</trkpt>
<trkpt lat="48.81608194671571" lon="9.385834643617272">
<ele>249</ele>
<time>2024-05-12T12:34:17Z</time>
</trkpt>
<trkpt lat="48.81605529226363" lon="9.385888036340477">
<ele>249</ele>
<time>2024-05-12T12:34:18Z</time>
</trkpt>
<trkpt lat="48.81603240966797" lon="9.385941429063678">
<ele>249</ele>
<time>2024-05-12T12:34:19Z</time>
</trkpt>
<trkpt lat="48.81600944325328" lon="9.38599867746234">
<ele>249.2</ele>
<time>2024-05-12T12:34:20Z</time>
</trkpt>
<trkpt lat="48.81599041633308" lon="9.386053076013924">
<ele>249.2</ele>
<time>2024-05-12T12:34:21Z</time>
</trkpt>
<trkpt lat="48.81597516126931" lon="9.386104540899396">
<ele>249.2</ele>
<time>2024-05-12T12:34:22Z</time>
</trkpt>
<trkpt lat="48.81595605053008" lon="9.386164639145136">
<ele>249.2</ele>
<time>2024-05-12T12:34:23Z</time>
</trkpt>
<trkpt lat="48.815940795466304" lon="9.386226581409574">
<ele>249.2</ele>
<time>2024-05-12T12:34:24Z</time>
</trkpt>
<trkpt lat="48.81592939607799" lon="9.38629145734012">
<ele>249.4</ele>
<time>2024-05-12T12:34:25Z</time>
</trkpt>
<trkpt lat="48.815917912870646" lon="9.386356333270667">
<ele>249.4</ele>
<time>2024-05-12T12:34:26Z</time>
</trkpt>
<trkpt lat="48.81591414101422" lon="9.386421125382183">
<ele>249.4</ele>
<time>2024-05-12T12:34:27Z</time>
</trkpt>
<trkpt lat="48.81591028533876" lon="9.386487007141112">
<ele>249.4</ele>
<time>2024-05-12T12:34:28Z</time>
</trkpt>
<trkpt lat="48.81591028533876" lon="9.386547021567822">
<ele>249.4</ele>
<time>2024-05-12T12:34:29Z</time>
</trkpt>
<trkpt lat="48.81591028533876" lon="9.386601420119405">
<ele>249.4</ele>
<time>2024-05-12T12:34:30Z</time>
</trkpt>
<trkpt lat="48.81591414101422" lon="9.3866500351578">
<ele>249.4</ele>
<time>2024-05-12T12:34:31Z</time>
</trkpt>
<trkpt lat="48.815917912870646" lon="9.386698650196196">
<ele>249.4</ele>
<time>2024-05-12T12:34:32Z</time>
</trkpt>
<trkpt lat="48.815917912870646" lon="9.386745421215892">
<ele>249.4</ele>
<time>2024-05-12T12:34:33Z</time>
</trkpt>
<trkpt lat="48.815921768546104" lon="9.386793114244938">
<ele>249.4</ele>
<time>2024-05-12T12:34:34Z</time>
</trkpt>
<trkpt lat="48.815921768546104" lon="9.386839801445603">
<ele>249.4</ele>
<time>2024-05-12T12:34:35Z</time>
</trkpt>
<trkpt lat="48.81591414101422" lon="9.3868865724653">
<ele>249.4</ele>
<time>2024-05-12T12:34:36Z</time>
</trkpt>
<trkpt lat="48.815898885950446" lon="9.386938037350774">
<ele>249.6</ele>
<time>2024-05-12T12:34:37Z</time>
</trkpt>
<trkpt lat="48.8158683758229" lon="9.386988580226898">
<ele>249.6</ele>
<time>2024-05-12T12:34:38Z</time>
</trkpt>
<trkpt lat="48.81584926508367" lon="9.387055383995175">
<ele>249.6</ele>
<time>2024-05-12T12:34:39Z</time>
</trkpt>
<trkpt lat="48.815837781876326" lon="9.387129731476309">
<ele>249.6</ele>
<time>2024-05-12T12:34:40Z</time>
</trkpt>
<trkpt lat="48.81583015434444" lon="9.387207012623549">
<ele>249.6</ele>
<time>2024-05-12T12:34:41Z</time>
</trkpt>
<trkpt lat="48.81583015434444" lon="9.38728328794241">
<ele>249.6</ele>
<time>2024-05-12T12:34:42Z</time>
</trkpt>
<trkpt lat="48.81583015434444" lon="9.387361491099">
<ele>249.8</ele>
<time>2024-05-12T12:34:43Z</time>
</trkpt>
<trkpt lat="48.815837781876326" lon="9.387438772246242">
<ele>249.8</ele>
<time>2024-05-12T12:34:44Z</time>
</trkpt>
<trkpt lat="48.81584540940821" lon="9.387516975402832">
<ele>249.8</ele>
<time>2024-05-12T12:34:45Z</time>
</trkpt>
<trkpt lat="48.8158530369401" lon="9.387591322883964">
<ele>250</ele>
<time>2024-05-12T12:34:46Z</time>
</trkpt>
<trkpt lat="48.815860748291016" lon="9.387664748355746">
<ele>250</ele>
<time>2024-05-12T12:34:47Z</time>
</trkpt>
<trkpt lat="48.81587214767933" lon="9.387738173827527">
<ele>250.2</ele>
<time>2024-05-12T12:34:48Z</time>
</trkpt>
<trkpt lat="48.815879775211215" lon="9.387809671461582">
<ele>250.2</ele>
<time>2024-05-12T12:34:49Z</time>
</trkpt>
<trkpt lat="48.81589503027499" lon="9.387878403067589">
<ele>250.4</ele>
<time>2024-05-12T12:34:50Z</time>
</trkpt>
<trkpt lat="48.81590265780687" lon="9.387945123016834">
<ele>250.6</ele>
<time>2024-05-12T12:34:51Z</time>
</trkpt>
<trkpt lat="48.81591414101422" lon="9.388011926785111">
<ele>250.8</ele>
<time>2024-05-12T12:34:52Z</time>
</trkpt>
<trkpt lat="48.815921768546104" lon="9.388076718896627">
<ele>251</ele>
<time>2024-05-12T12:34:53Z</time>
</trkpt>
<trkpt lat="48.81593316793442" lon="9.388141594827175">
<ele>251</ele>
<time>2024-05-12T12:34:54Z</time>
</trkpt>
<trkpt lat="48.815940795466304" lon="9.388204542919992">
<ele>251.2</ele>
<time>2024-05-12T12:34:55Z</time>
</trkpt>
<trkpt lat="48.81595227867365" lon="9.388266485184433">
<ele>251.4</ele>
<time>2024-05-12T12:34:56Z</time>
</trkpt>
<trkpt lat="48.815959906205535" lon="9.388326583430173">
<ele>251.4</ele>
<time>2024-05-12T12:34:57Z</time>
</trkpt>
<trkpt lat="48.81597516126931" lon="9.38838475383818">
<ele>251.6</ele>
<time>2024-05-12T12:34:58Z</time>
</trkpt>
<trkpt lat="48.81598656065762" lon="9.388442002236845">
<ele>251.6</ele>
<time>2024-05-12T12:34:59Z</time>
</trkpt>
<trkpt lat="48.81600181572139" lon="9.388496316969396">
<ele>251.6</ele>
<time>2024-05-12T12:35:00Z</time>
</trkpt>
<trkpt lat="48.81601329892874" lon="9.388549793511627">
<ele>251.6</ele>
<time>2024-05-12T12:35:01Z</time>
</trkpt>
<trkpt lat="48.81602855399251" lon="9.388600336387752">
<ele>251.6</ele>
<time>2024-05-12T12:35:02Z</time>
</trkpt>
<trkpt lat="48.81604380905628" lon="9.388651801273229">
<ele>251.6</ele>
<time>2024-05-12T12:35:03Z</time>
</trkpt>
<trkpt lat="48.81605529226363" lon="9.388700416311622">
<ele>251.6</ele>
<time>2024-05-12T12:35:04Z</time>
</trkpt>
<trkpt lat="48.8160705473274" lon="9.38874525949359">
<ele>251.4</ele>
<time>2024-05-12T12:35:05Z</time>
</trkpt>
<trkpt lat="48.81608580239117" lon="9.388788174837828">
<ele>251.4</ele>
<time>2024-05-12T12:35:06Z</time>
</trkpt>
<trkpt lat="48.816101057454944" lon="9.388826312497258">
<ele>251.2</ele>
<time>2024-05-12T12:35:07Z</time>
</trkpt>
<trkpt lat="48.8161239400506" lon="9.38885967247188">
<ele>251.2</ele>
<time>2024-05-12T12:35:08Z</time>
</trkpt>
<trkpt lat="48.81615059450269" lon="9.388890266418455">
<ele>251</ele>
<time>2024-05-12T12:35:09Z</time>
</trkpt>
<trkpt lat="48.81618496030569" lon="9.388914993032811">
<ele>250.8</ele>
<time>2024-05-12T12:35:10Z</time>
</trkpt>
<trkpt lat="48.81622309796512" lon="9.388930248096583">
<ele>250.8</ele>
<time>2024-05-12T12:35:11Z</time>
</trkpt>
<trkpt lat="48.816257463768125" lon="9.388928404077888">
<ele>250.6</ele>
<time>2024-05-12T12:35:12Z</time>
</trkpt>
<trkpt lat="48.81628797389567" lon="9.38892362639308">
<ele>250.4</ele>
<time>2024-05-12T12:35:13Z</time>
</trkpt>
<trkpt lat="48.816314628347754" lon="9.388914993032811">
<ele>250.2</ele>
<time>2024-05-12T12:35:14Z</time>
</trkpt>
<trkpt lat="48.816333739086986" lon="9.388910215348004">
<ele>250</ele>
<time>2024-05-12T12:35:15Z</time>
</trkpt>
<trkpt lat="48.816352766007185" lon="9.388904515653849">
<ele>250</ele>
<time>2024-05-12T12:35:16Z</time>
</trkpt>
<trkpt lat="48.81636802107096" lon="9.388897893950343">
<ele>249.8</ele>
<time>2024-05-12T12:35:17Z</time>
</trkpt>
<trkpt lat="48.81638713181019" lon="9.388894960284231">
<ele>249.8</ele>
<time>2024-05-12T12:35:18Z</time>
</trkpt>
<trkpt lat="48.81640238687396" lon="9.388891188427806">
<ele>249.6</ele>
<time>2024-05-12T12:35:19Z</time>
</trkpt>
<trkpt lat="48.81641764193773" lon="9.388888338580728">
<ele>249.6</ele>
<time>2024-05-12T12:35:20Z</time>
</trkpt>
<trkpt lat="48.81642526946962" lon="9.388888338580728">
<ele>249.6</ele>
<time>2024-05-12T12:35:21Z</time>
</trkpt>
<trkpt lat="48.81642912514508" lon="9.388888338580728">
<ele>249.4</ele>
<time>2024-05-12T12:35:22Z</time>
</trkpt>
<trkpt lat="48.81642912514508" lon="9.388886410742998">
<ele>249.4</ele>
<time>2024-05-12T12:35:23Z</time>
</trkpt>
<trkpt lat="48.81642912514508" lon="9.388888338580728">
<ele>249.4</ele>
<time>2024-05-12T12:35:25Z</time>
</trkpt>
<trkpt lat="48.816432897001505" lon="9.388891188427806">
<ele>249.4</ele>
<time>2024-05-12T12:35:26Z</time>
</trkpt>
<trkpt lat="48.81643675267696" lon="9.388894960284231">
<ele>249.4</ele>
<time>2024-05-12T12:35:29Z</time>
</trkpt>
<trkpt lat="48.81644438020885" lon="9.3889035936445">
<ele>249.4</ele>
<time>2024-05-12T12:35:30Z</time>
</trkpt>
<trkpt lat="48.81645577959716" lon="9.38891977071762">
<ele>249.4</ele>
<time>2024-05-12T12:35:31Z</time>
</trkpt>
<trkpt lat="48.81646340712905" lon="9.38894173130393">
<ele>249.2</ele>
<time>2024-05-12T12:35:32Z</time>
</trkpt>
<trkpt lat="48.816474890336394" lon="9.388968385756016">
<ele>249.2</ele>
<time>2024-05-12T12:35:33Z</time>
</trkpt>
<trkpt lat="48.81649014540017" lon="9.38900182954967">
<ele>249</ele>
<time>2024-05-12T12:35:34Z</time>
</trkpt>
<trkpt lat="48.81650540046394" lon="9.389038039371371">
<ele>248.8</ele>
<time>2024-05-12T12:35:35Z</time>
</trkpt>
<trkpt lat="48.81652065552771" lon="9.389075255021451">
<ele>248.8</ele>
<time>2024-05-12T12:35:36Z</time>
</trkpt>
<trkpt lat="48.8165282830596" lon="9.389111464843154">
<ele>248.8</ele>
<time>2024-05-12T12:35:37Z</time>
</trkpt>
<trkpt lat="48.816532054916024" lon="9.389151530340314">
<ele>248.8</ele>
<time>2024-05-12T12:35:38Z</time>
</trkpt>
<trkpt lat="48.81653591059148" lon="9.389196373522282">
<ele>248.6</ele>
<time>2024-05-12T12:35:39Z</time>
</trkpt>
<trkpt lat="48.81653591059148" lon="9.389253538101912">
<ele>248.6</ele>
<time>2024-05-12T12:35:40Z</time>
</trkpt>
<trkpt lat="48.81653968244791" lon="9.38931648619473">
<ele>248.6</ele>
<time>2024-05-12T12:35:41Z</time>
</trkpt>
<trkpt lat="48.81653968244791" lon="9.389381362125278">
<ele>248.6</ele>
<time>2024-05-12T12:35:42Z</time>
</trkpt>
<trkpt lat="48.81653591059148" lon="9.389451937749982">
<ele>248.6</ele>
<time>2024-05-12T12:35:43Z</time>
</trkpt>
<trkpt lat="48.81653591059148" lon="9.3895148858428">
<ele>248.6</ele>
<time>2024-05-12T12:35:44Z</time>
</trkpt>
<trkpt lat="48.81653591059148" lon="9.389579761773348">
<ele>248.6</ele>
<time>2024-05-12T12:35:45Z</time>
</trkpt>
<trkpt lat="48.816532054916024" lon="9.389644553884864">
<ele>248.6</ele>
<time>2024-05-12T12:35:46Z</time>
</trkpt>
<trkpt lat="48.816532054916024" lon="9.38971135765314">
<ele>248.4</ele>
<time>2024-05-12T12:35:47Z</time>
</trkpt>
<trkpt lat="48.8165282830596" lon="9.389775227755308">
<ele>248.4</ele>
<time>2024-05-12T12:35:48Z</time>
</trkpt>
<trkpt lat="48.8165282830596" lon="9.389840103685856">
<ele>248.4</ele>
<time>2024-05-12T12:35:49Z</time>
</trkpt>
<trkpt lat="48.8165282830596" lon="9.389904895797372">
<ele>248.4</ele>
<time>2024-05-12T12:35:50Z</time>
</trkpt>
<trkpt lat="48.8165282830596" lon="9.389971699565647">
<ele>248.4</ele>
<time>2024-05-12T12:35:51Z</time>
</trkpt>
<trkpt lat="48.8165282830596" lon="9.390040347352624">
<ele>248.4</ele>
<time>2024-05-12T12:35:52Z</time>
</trkpt>
<trkpt lat="48.81652442738414" lon="9.390111844986675">
<ele>248.4</ele>
<time>2024-05-12T12:35:53Z</time>
</trkpt>
<trkpt lat="48.81652065552771" lon="9.390179570764303">
<ele>248.6</ele>
<time>2024-05-12T12:35:54Z</time>
</trkpt>
<trkpt lat="48.81652065552771" lon="9.390252996236086">
<ele>248.6</ele>
<time>2024-05-12T12:35:55Z</time>
</trkpt>
<trkpt lat="48.81652065552771" lon="9.390326421707869">
<ele>248.4</ele>
<time>2024-05-12T12:35:56Z</time>
</trkpt>
<trkpt lat="48.81651679985225" lon="9.39040177501738">
<ele>248.4</ele>
<time>2024-05-12T12:35:57Z</time>
</trkpt>
<trkpt lat="48.81651679985225" lon="9.390475200489163">
<ele>248.4</ele>
<time>2024-05-12T12:35:58Z</time>
</trkpt>
<trkpt lat="48.81651679985225" lon="9.390548625960946">
<ele>248.4</ele>
<time>2024-05-12T12:35:59Z</time>
</trkpt>
<trkpt lat="48.81651679985225" lon="9.39062112942338">
<ele>248.4</ele>
<time>2024-05-12T12:36:00Z</time>
</trkpt>
<trkpt lat="48.81651679985225" lon="9.390693632885814">
<ele>248.4</ele>
<time>2024-05-12T12:36:01Z</time>
</trkpt>
<trkpt lat="48.816513027995825" lon="9.390763202682136">
<ele>248.4</ele>
<time>2024-05-12T12:36:02Z</time>
</trkpt>
<trkpt lat="48.816513027995825" lon="9.390830006450416">
<ele>248.2</ele>
<time>2024-05-12T12:36:03Z</time>
</trkpt>
<trkpt lat="48.816509172320366" lon="9.390894882380962">
<ele>248.2</ele>
<time>2024-05-12T12:36:04Z</time>
</trkpt>
<trkpt lat="48.816509172320366" lon="9.390959674492478">
<ele>248.2</ele>
<time>2024-05-12T12:36:05Z</time>
</trkpt>
<trkpt lat="48.816509172320366" lon="9.391028322279452">
<ele>248.2</ele>
<time>2024-05-12T12:36:06Z</time>
</trkpt>
<trkpt lat="48.816513027995825" lon="9.39109512604773">
<ele>248.2</ele>
<time>2024-05-12T12:36:07Z</time>
</trkpt>
<trkpt lat="48.81651679985225" lon="9.391162851825356">
<ele>248.2</ele>
<time>2024-05-12T12:36:08Z</time>
</trkpt>
<trkpt lat="48.81652065552771" lon="9.39123527146876">
<ele>248.2</ele>
<time>2024-05-12T12:36:09Z</time>
</trkpt>
<trkpt lat="48.81653591059148" lon="9.391302997246385">
<ele>248.4</ele>
<time>2024-05-12T12:36:10Z</time>
</trkpt>
<trkpt lat="48.816555021330714" lon="9.391369801014662">
<ele>248.4</ele>
<time>2024-05-12T12:36:11Z</time>
</trkpt>
<trkpt lat="48.816574048250914" lon="9.391434593126178">
<ele>248.6</ele>
<time>2024-05-12T12:36:12Z</time>
</trkpt>
<trkpt lat="48.816589303314686" lon="9.391503324732184">
<ele>248.6</ele>
<time>2024-05-12T12:36:13Z</time>
</trkpt>
<trkpt lat="48.81660078652203" lon="9.391565266996622">
<ele>248.8</ele>
<time>2024-05-12T12:36:14Z</time>
</trkpt>
<trkpt lat="48.8166160415858" lon="9.391618659719825">
<ele>248.8</ele>
<time>2024-05-12T12:36:15Z</time>
</trkpt>
<trkpt lat="48.816631296649575" lon="9.391676830127835">
<ele>249</ele>
<time>2024-05-12T12:36:16Z</time>
</trkpt>
<trkpt lat="48.81664655171335" lon="9.391735000535846">
<ele>249.2</ele>
<time>2024-05-12T12:36:17Z</time>
</trkpt>
<trkpt lat="48.81666180677712" lon="9.391793170943856">
<ele>249.4</ele>
<time>2024-05-12T12:36:18Z</time>
</trkpt>
<trkpt lat="48.816669434309006" lon="9.391849497333167">
<ele>249.6</ele>
<time>2024-05-12T12:36:19Z</time>
</trkpt>
<trkpt lat="48.81667320616543" lon="9.391900040209292">
<ele>249.8</ele>
<time>2024-05-12T12:36:20Z</time>
</trkpt>
<trkpt lat="48.81667706184089" lon="9.39194488339126">
<ele>250</ele>
<time>2024-05-12T12:36:21Z</time>
</trkpt>
<trkpt lat="48.81668083369732" lon="9.391983021050692">
<ele>250.2</ele>
<time>2024-05-12T12:36:22Z</time>
</trkpt>
<trkpt lat="48.816688461229205" lon="9.392015375196934">
<ele>250.2</ele>
<time>2024-05-12T12:36:23Z</time>
</trkpt>
<trkpt lat="48.81669608876109" lon="9.392047813162208">
<ele>250.4</ele>
<time>2024-05-12T12:36:24Z</time>
</trkpt>
<trkpt lat="48.81670757196843" lon="9.392076479271054">
<ele>250.4</ele>
<time>2024-05-12T12:36:25Z</time>
</trkpt>
<trkpt lat="48.81671905517578" lon="9.39210506156087">
<ele>250.4</ele>
<time>2024-05-12T12:36:26Z</time>
</trkpt>
<trkpt lat="48.81672668270767" lon="9.392127944156528">
<ele>250.4</ele>
<time>2024-05-12T12:36:27Z</time>
</trkpt>
<trkpt lat="48.81672668270767" lon="9.392153676599264">
<ele>250.4</ele>
<time>2024-05-12T12:36:28Z</time>
</trkpt>
<trkpt lat="48.81671519950032" lon="9.392173709347844">
<ele>250.6</ele>
<time>2024-05-12T12:36:29Z</time>
</trkpt>
<trkpt lat="48.81669994443655" lon="9.39218519255519">
<ele>250.4</ele>
<time>2024-05-12T12:36:30Z</time>
</trkpt>
<trkpt lat="48.81667706184089" lon="9.392198519781232">
<ele>250.4</ele>
<time>2024-05-12T12:36:31Z</time>
</trkpt>
<trkpt lat="48.81664655171335" lon="9.392210002988575">
<ele>250.2</ele>
<time>2024-05-12T12:36:32Z</time>
</trkpt>
<trkpt lat="48.816612185910344" lon="9.392256690189242">
<ele>250</ele>
<time>2024-05-12T12:36:33Z</time>
</trkpt>
<trkpt lat="48.8165816757828" lon="9.392318716272712">
<ele>249.8</ele>
<time>2024-05-12T12:36:34Z</time>
</trkpt>
<trkpt lat="48.816555021330714" lon="9.392345370724795">
<ele>249.8</ele>
<time>2024-05-12T12:36:35Z</time>
</trkpt>
<trkpt lat="48.81651679985225" lon="9.392377808690073">
<ele>249.8</ele>
<time>2024-05-12T12:36:36Z</time>
</trkpt>
<trkpt lat="48.81648628972471" lon="9.392397841438653">
<ele>250</ele>
<time>2024-05-12T12:36:37Z</time>
</trkpt>
<trkpt lat="48.81645577959716" lon="9.392413096502423">
<ele>250</ele>
<time>2024-05-12T12:36:38Z</time>
</trkpt>
<trkpt lat="48.81642526946962" lon="9.392426423728466">
<ele>250</ele>
<time>2024-05-12T12:36:39Z</time>
</trkpt>
<trkpt lat="48.816394759342074" lon="9.392437906935813">
<ele>250</ele>
<time>2024-05-12T12:36:40Z</time>
</trkpt>
<trkpt lat="48.81636802107096" lon="9.39243983477354">
<ele>250</ele>
<time>2024-05-12T12:36:41Z</time>
</trkpt>
<trkpt lat="48.816352766007185" lon="9.392441678792238">
<ele>250</ele>
<time>2024-05-12T12:36:42Z</time>
</trkpt>
<trkpt lat="48.81634136661887" lon="9.392446456477046">
<ele>250</ele>
<time>2024-05-12T12:36:43Z</time>
</trkpt>
<trkpt lat="48.81632225587964" lon="9.392450312152503">
<ele>249.8</ele>
<time>2024-05-12T12:36:44Z</time>
</trkpt>
<trkpt lat="48.81631085649133" lon="9.392453161999583">
<ele>249.8</ele>
<time>2024-05-12T12:36:45Z</time>
</trkpt>
<trkpt lat="48.81630322895944" lon="9.39245986752212">
<ele>249.6</ele>
<time>2024-05-12T12:36:46Z</time>
</trkpt>
<trkpt lat="48.81630322895944" lon="9.392464561387897">
<ele>249.6</ele>
<time>2024-05-12T12:36:47Z</time>
</trkpt>
<trkpt lat="48.81630322895944" lon="9.392468417063355">
<ele>249.6</ele>
<time>2024-05-12T12:36:48Z</time>
</trkpt>
<trkpt lat="48.81630322895944" lon="9.392471266910434">
<ele>249.4</ele>
<time>2024-05-12T12:36:49Z</time>
</trkpt>
<trkpt lat="48.81630700081587" lon="9.392473194748163">
<ele>249.4</ele>
<time>2024-05-12T12:36:50Z</time>
</trkpt>
<trkpt lat="48.81630700081587" lon="9.392475122585893">
<ele>249.4</ele>
<time>2024-05-12T12:36:51Z</time>
</trkpt>
<trkpt lat="48.81631085649133" lon="9.392479816451669">
<ele>249.4</ele>
<time>2024-05-12T12:36:52Z</time>
</trkpt>
<trkpt lat="48.81631848402321" lon="9.392484594136477">
<ele>249.4</ele>
<time>2024-05-12T12:36:53Z</time>
</trkpt>
<trkpt lat="48.81632225587964" lon="9.392486521974206">
<ele>249.2</ele>
<time>2024-05-12T12:36:54Z</time>
</trkpt>
<trkpt lat="48.8163261115551" lon="9.392486521974206">
<ele>249.2</ele>
<time>2024-05-12T12:36:57Z</time>
</trkpt>
<trkpt lat="48.8163261115551" lon="9.392484594136477">
<ele>249.2</ele>
<time>2024-05-12T12:36:58Z</time>
</trkpt>
<trkpt lat="48.816333739086986" lon="9.392484594136477">
<ele>249</ele>
<time>2024-05-12T12:36:59Z</time>
</trkpt>
<trkpt lat="48.8163451384753" lon="9.392486521974206">
<ele>249</ele>
<time>2024-05-12T12:37:00Z</time>
</trkpt>
<trkpt lat="48.81636424921453" lon="9.392493227496743">
<ele>248.8</ele>
<time>2024-05-12T12:37:01Z</time>
</trkpt>
<trkpt lat="48.81638335995376" lon="9.392510410398245">
<ele>248.8</ele>
<time>2024-05-12T12:37:02Z</time>
</trkpt>
<trkpt lat="48.81640624254942" lon="9.392533292993903">
<ele>248.6</ele>
<time>2024-05-12T12:37:03Z</time>
</trkpt>
<trkpt lat="48.81642912514508" lon="9.392566652968526">
<ele>248.6</ele>
<time>2024-05-12T12:37:04Z</time>
</trkpt>
<trkpt lat="48.81644815206528" lon="9.392601940780878">
<ele>248.4</ele>
<time>2024-05-12T12:37:05Z</time>
</trkpt>
<trkpt lat="48.81646726280451" lon="9.3926353007555">
<ele>248.4</ele>
<time>2024-05-12T12:37:06Z</time>
</trkpt>
<trkpt lat="48.81648628972471" lon="9.392671510577202">
<ele>248.4</ele>
<time>2024-05-12T12:37:07Z</time>
</trkpt>
<trkpt lat="48.81650154478848" lon="9.39271635375917">
<ele>248.4</ele>
<time>2024-05-12T12:37:08Z</time>
</trkpt>
<trkpt lat="48.816513027995825" lon="9.392763124778869">
<ele>248.4</ele>
<time>2024-05-12T12:37:09Z</time>
</trkpt>
<trkpt lat="48.81652065552771" lon="9.3928184453398">
<ele>248.6</ele>
<time>2024-05-12T12:37:10Z</time>
</trkpt>
<trkpt lat="48.8165282830596" lon="9.39287661574781">
<ele>248.6</ele>
<time>2024-05-12T12:37:11Z</time>
</trkpt>
<trkpt lat="48.8165282830596" lon="9.392939563840628">
<ele>248.8</ele>
<time>2024-05-12T12:37:12Z</time>
</trkpt>
<trkpt lat="48.816532054916024" lon="9.393003433942797">
<ele>248.8</ele>
<time>2024-05-12T12:37:13Z</time>
</trkpt>
<trkpt lat="48.816532054916024" lon="9.39307015389204">
<ele>248.8</ele>
<time>2024-05-12T12:37:14Z</time>
</trkpt>
<trkpt lat="48.816532054916024" lon="9.393136957660316">
<ele>248.8</ele>
<time>2024-05-12T12:37:15Z</time>
</trkpt>
<trkpt lat="48.816532054916024" lon="9.39320845529437">
<ele>248.8</ele>
<time>2024-05-12T12:37:16Z</time>
</trkpt>
<trkpt lat="48.81653591059148" lon="9.393279952928424">
<ele>248.6</ele>
<time>2024-05-12T12:37:17Z</time>
</trkpt>
<trkpt lat="48.81653968244791" lon="9.393358156085014">
<ele>248.6</ele>
<time>2024-05-12T12:37:18Z</time>
</trkpt>
<trkpt lat="48.81654353812337" lon="9.393434515222909">
<ele>248.6</ele>
<time>2024-05-12T12:37:19Z</time>
</trkpt>
<trkpt lat="48.81653968244791" lon="9.393511712551115">
<ele>248.8</ele>
<time>2024-05-12T12:37:20Z</time>
</trkpt>
<trkpt lat="48.81653968244791" lon="9.393587065860627">
<ele>248.8</ele>
<time>2024-05-12T12:37:21Z</time>
</trkpt>
<trkpt lat="48.81653591059148" lon="9.393659569323065">
<ele>248.8</ele>
<time>2024-05-12T12:37:22Z</time>
</trkpt>
<trkpt lat="48.81653591059148" lon="9.393726289272308">
<ele>249</ele>
<time>2024-05-12T12:37:23Z</time>
</trkpt>
<trkpt lat="48.81653591059148" lon="9.393786387518048">
<ele>249</ele>
<time>2024-05-12T12:37:24Z</time>
</trkpt>
<trkpt lat="48.81653968244791" lon="9.39384363591671">
<ele>249</ele>
<time>2024-05-12T12:37:25Z</time>
</trkpt>
<trkpt lat="48.81653968244791" lon="9.393893172964454">
<ele>249</ele>
<time>2024-05-12T12:37:26Z</time>
</trkpt>
<trkpt lat="48.81653968244791" lon="9.393931310623884">
<ele>249.2</ele>
<time>2024-05-12T12:37:27Z</time>
</trkpt>
<trkpt lat="48.81654353812337" lon="9.393968526273966">
<ele>249.2</ele>
<time>2024-05-12T12:37:28Z</time>
</trkpt>
<trkpt lat="48.816551165655255" lon="9.39399811439216">
<ele>249.4</ele>
<time>2024-05-12T12:37:29Z</time>
</trkpt>
<trkpt lat="48.81656642071903" lon="9.394021918997169">
<ele>249.4</ele>
<time>2024-05-12T12:37:30Z</time>
</trkpt>
<trkpt lat="48.81659693084657" lon="9.394035330042245">
<ele>249.6</ele>
<time>2024-05-12T12:37:31Z</time>
</trkpt>
<trkpt lat="48.816635068506" lon="9.39404010772705">
<ele>249.8</ele>
<time>2024-05-12T12:37:32Z</time>
</trkpt>
<trkpt lat="48.81668468937278" lon="9.394044801592829">
<ele>249.8</ele>
<time>2024-05-12T12:37:33Z</time>
</trkpt>
<trkpt lat="48.81673431023955" lon="9.394053434953094">
<ele>249.6</ele>
<time>2024-05-12T12:37:34Z</time>
</trkpt>
<trkpt lat="48.81678007543087" lon="9.394071539863944">
<ele>249.6</ele>
<time>2024-05-12T12:37:35Z</time>
</trkpt>
<trkpt lat="48.81681435741484" lon="9.394106827676296">
<ele>249.6</ele>
<time>2024-05-12T12:37:36Z</time>
</trkpt>
<trkpt lat="48.8168372400105" lon="9.394156448543072">
<ele>249.6</ele>
<time>2024-05-12T12:37:37Z</time>
</trkpt>
<trkpt lat="48.816848723217845" lon="9.394211769104004">
<ele>249.6</ele>
<time>2024-05-12T12:37:38Z</time>
</trkpt>
<trkpt lat="48.81686012260616" lon="9.394269939512014">
<ele>249.8</ele>
<time>2024-05-12T12:37:39Z</time>
</trkpt>
<trkpt lat="48.81686012260616" lon="9.394328109920025">
<ele>249.8</ele>
<time>2024-05-12T12:37:40Z</time>
</trkpt>
<trkpt lat="48.81686397828162" lon="9.394390052184464">
<ele>250</ele>
<time>2024-05-12T12:37:41Z</time>
</trkpt>
<trkpt lat="48.8168716058135" lon="9.39445300027728">
<ele>250</ele>
<time>2024-05-12T12:37:42Z</time>
</trkpt>
<trkpt lat="48.81687537766993" lon="9.394517876207829">
<ele>250</ele>
<time>2024-05-12T12:37:43Z</time>
</trkpt>
<trkpt lat="48.81687923334539" lon="9.394583674147723">
<ele>250.2</ele>
<time>2024-05-12T12:37:44Z</time>
</trkpt>
<trkpt lat="48.816886860877275" lon="9.394648550078273">
<ele>250.4</ele>
<time>2024-05-12T12:37:45Z</time>
</trkpt>
<trkpt lat="48.816890716552734" lon="9.394709570333362">
<ele>250.4</ele>
<time>2024-05-12T12:37:46Z</time>
</trkpt>
<trkpt lat="48.81689448840916" lon="9.3947715125978">
<ele>250.4</ele>
<time>2024-05-12T12:37:47Z</time>
</trkpt>
<trkpt lat="48.81689834408462" lon="9.394838316366076">
<ele>250.6</ele>
<time>2024-05-12T12:37:48Z</time>
</trkpt>
<trkpt lat="48.81690597161651" lon="9.394903108477592">
<ele>250.6</ele>
<time>2024-05-12T12:37:49Z</time>
</trkpt>
<trkpt lat="48.816909743472934" lon="9.39496991224587">
<ele>250.6</ele>
<time>2024-05-12T12:37:50Z</time>
</trkpt>
<trkpt lat="48.81691737100482" lon="9.395032860338688">
<ele>250.4</ele>
<time>2024-05-12T12:37:51Z</time>
</trkpt>
<trkpt lat="48.816924998536706" lon="9.395098658278584">
<ele>250.4</ele>
<time>2024-05-12T12:37:52Z</time>
</trkpt>
<trkpt lat="48.816928854212165" lon="9.395163534209132">
<ele>250.4</ele>
<time>2024-05-12T12:37:53Z</time>
</trkpt>
<trkpt lat="48.81693648174405" lon="9.395231176167728">
<ele>250.4</ele>
<time>2024-05-12T12:37:54Z</time>
</trkpt>
<trkpt lat="48.81694025360048" lon="9.39530175179243">
<ele>250.4</ele>
<time>2024-05-12T12:37:55Z</time>
</trkpt>
<trkpt lat="48.81695173680782" lon="9.395371405407786">
<ele>250.4</ele>
<time>2024-05-12T12:37:56Z</time>
</trkpt>
<trkpt lat="48.81695550866425" lon="9.39544005319476">
<ele>250.4</ele>
<time>2024-05-12T12:37:57Z</time>
</trkpt>
<trkpt lat="48.81696313619614" lon="9.395506856963038">
<ele>250.6</ele>
<time>2024-05-12T12:37:58Z</time>
</trkpt>
<trkpt lat="48.816966991871595" lon="9.395569721236823">
<ele>250.6</ele>
<time>2024-05-12T12:37:59Z</time>
</trkpt>
<trkpt lat="48.81697461940348" lon="9.395636525005102">
<ele>250.6</ele>
<time>2024-05-12T12:38:00Z</time>
</trkpt>
<trkpt lat="48.81697839125991" lon="9.39570140093565">
<ele>250.6</ele>
<time>2024-05-12T12:38:01Z</time>
</trkpt>
<trkpt lat="48.816986018791795" lon="9.395766193047166">
<ele>250.6</ele>
<time>2024-05-12T12:38:02Z</time>
</trkpt>
<trkpt lat="48.81699364632368" lon="9.395832996815445">
<ele>250.6</ele>
<time>2024-05-12T12:38:03Z</time>
</trkpt>
<trkpt lat="48.81699750199914" lon="9.395901644602418">
<ele>250.6</ele>
<time>2024-05-12T12:38:04Z</time>
</trkpt>
<trkpt lat="48.817005129531026" lon="9.395971298217772">
<ele>250.4</ele>
<time>2024-05-12T12:38:05Z</time>
</trkpt>
<trkpt lat="48.81700890138745" lon="9.396043717861176">
<ele>250.4</ele>
<time>2024-05-12T12:38:06Z</time>
</trkpt>
<trkpt lat="48.81701652891934" lon="9.396111443638802">
<ele>250.4</ele>
<time>2024-05-12T12:38:07Z</time>
</trkpt>
<trkpt lat="48.8170203845948" lon="9.396182019263506">
<ele>250.6</ele>
<time>2024-05-12T12:38:08Z</time>
</trkpt>
<trkpt lat="48.81702801212669" lon="9.396246895194054">
<ele>250.4</ele>
<time>2024-05-12T12:38:09Z</time>
</trkpt>
<trkpt lat="48.81703178398311" lon="9.396306909620762">
<ele>250.4</ele>
<time>2024-05-12T12:38:10Z</time>
</trkpt>
<trkpt lat="48.81703563965857" lon="9.396367007866502">
<ele>250.2</ele>
<time>2024-05-12T12:38:11Z</time>
</trkpt>
<trkpt lat="48.817043267190456" lon="9.39642995595932">
<ele>250.2</ele>
<time>2024-05-12T12:38:12Z</time>
</trkpt>
<trkpt lat="48.81704703904688" lon="9.396492904052138">
<ele>249.8</ele>
<time>2024-05-12T12:38:13Z</time>
</trkpt>
<trkpt lat="48.81705466657877" lon="9.396558701992037">
<ele>249.6</ele>
<time>2024-05-12T12:38:14Z</time>
</trkpt>
<trkpt lat="48.81705852225423" lon="9.396623577922584">
<ele>249.4</ele>
<time>2024-05-12T12:38:15Z</time>
</trkpt>
<trkpt lat="48.81706237792969" lon="9.39668845385313">
<ele>249</ele>
<time>2024-05-12T12:38:16Z</time>
</trkpt>
<trkpt lat="48.817070005461574" lon="9.396753245964646">
<ele>249</ele>
<time>2024-05-12T12:38:17Z</time>
</trkpt>
<trkpt lat="48.817073777318" lon="9.396818121895194">
<ele>248.6</ele>
<time>2024-05-12T12:38:18Z</time>
</trkpt>
<trkpt lat="48.81708140484989" lon="9.39688199199736">
<ele>248.6</ele>
<time>2024-05-12T12:38:19Z</time>
</trkpt>
<trkpt lat="48.81708903238177" lon="9.39694301225245">
<ele>248.8</ele>
<time>2024-05-12T12:38:20Z</time>
</trkpt>
<trkpt lat="48.81709665991366" lon="9.397006966173649">
<ele>249</ele>
<time>2024-05-12T12:38:21Z</time>
</trkpt>
<trkpt lat="48.817104287445545" lon="9.397071758285165">
<ele>249.2</ele>
<time>2024-05-12T12:38:22Z</time>
</trkpt>
<trkpt lat="48.81711191497743" lon="9.397136634215713">
<ele>249.6</ele>
<time>2024-05-12T12:38:23Z</time>
</trkpt>
<trkpt lat="48.81711577065289" lon="9.39720343798399">
<ele>249.8</ele>
<time>2024-05-12T12:38:24Z</time>
</trkpt>
<trkpt lat="48.81711954250932" lon="9.397272085770965">
<ele>250</ele>
<time>2024-05-12T12:38:25Z</time>
</trkpt>
<trkpt lat="48.817123398184776" lon="9.39733981154859">
<ele>250</ele>
<time>2024-05-12T12:38:26Z</time>
</trkpt>
<trkpt lat="48.81711954250932" lon="9.397411309182644">
<ele>250.2</ele>
<time>2024-05-12T12:38:27Z</time>
</trkpt>
<trkpt lat="48.817104287445545" lon="9.397486662492156">
<ele>250.2</ele>
<time>2024-05-12T12:38:28Z</time>
</trkpt>
<trkpt lat="48.81707763299346" lon="9.3975533824414">
<ele>250.4</ele>
<time>2024-05-12T12:38:29Z</time>
</trkpt>
<trkpt lat="48.81705089472234" lon="9.397623036056755">
<ele>250.4</ele>
<time>2024-05-12T12:38:30Z</time>
</trkpt>
<trkpt lat="48.8170203845948" lon="9.397691683843732">
<ele>250.4</ele>
<time>2024-05-12T12:38:31Z</time>
</trkpt>
<trkpt lat="48.816989874467254" lon="9.397758403792976">
<ele>250.4</ele>
<time>2024-05-12T12:38:32Z</time>
</trkpt>
<trkpt lat="48.81696313619614" lon="9.397823279723523">
<ele>250.6</ele>
<time>2024-05-12T12:38:33Z</time>
</trkpt>
<trkpt lat="48.81693648174405" lon="9.397886227816343">
<ele>250.6</ele>
<time>2024-05-12T12:38:34Z</time>
</trkpt>
<trkpt lat="48.816909743472934" lon="9.397948253899813">
<ele>250.8</ele>
<time>2024-05-12T12:38:35Z</time>
</trkpt>
<trkpt lat="48.816886860877275" lon="9.39800826832652">
<ele>250.8</ele>
<time>2024-05-12T12:38:36Z</time>
</trkpt>
<trkpt lat="48.81686397828162" lon="9.398066438734531">
<ele>251</ele>
<time>2024-05-12T12:38:37Z</time>
</trkpt>
<trkpt lat="48.81684109568596" lon="9.398123687133191">
<ele>251</ele>
<time>2024-05-12T12:38:38Z</time>
</trkpt>
<trkpt lat="48.8168182130903" lon="9.398179929703474">
<ele>251</ele>
<time>2024-05-12T12:38:39Z</time>
</trkpt>
<trkpt lat="48.81679533049464" lon="9.398236256092789">
<ele>251.2</ele>
<time>2024-05-12T12:38:40Z</time>
</trkpt>
<trkpt lat="48.816772447898984" lon="9.39829157665372">
<ele>251.2</ele>
<time>2024-05-12T12:38:41Z</time>
</trkpt>
<trkpt lat="48.81675333715975" lon="9.398347819224">
<ele>251.2</ele>
<time>2024-05-12T12:38:42Z</time>
</trkpt>
<trkpt lat="48.81672668270767" lon="9.398405067622662">
<ele>251.2</ele>
<time>2024-05-12T12:38:43Z</time>
</trkpt>
<trkpt lat="48.81670371629298" lon="9.398461310192944">
<ele>251.2</ele>
<time>2024-05-12T12:38:44Z</time>
</trkpt>
<trkpt lat="48.81668083369732" lon="9.398519480600951">
<ele>251.4</ele>
<time>2024-05-12T12:38:45Z</time>
</trkpt>
<trkpt lat="48.81665795110166" lon="9.398576728999616">
<ele>251.4</ele>
<time>2024-05-12T12:38:46Z</time>
</trkpt>
<trkpt lat="48.816635068506" lon="9.398636743426325">
<ele>251.4</ele>
<time>2024-05-12T12:38:47Z</time>
</trkpt>
<trkpt lat="48.816612185910344" lon="9.398693069815636">
<ele>251.4</ele>
<time>2024-05-12T12:38:48Z</time>
</trkpt>
<trkpt lat="48.816589303314686" lon="9.398751240223646">
<ele>251.6</ele>
<time>2024-05-12T12:38:49Z</time>
</trkpt>
<trkpt lat="48.81656642071903" lon="9.398811338469386">
<ele>251.6</ele>
<time>2024-05-12T12:38:50Z</time>
</trkpt>
<trkpt lat="48.81654353812337" lon="9.398870430886744">
<ele>251.8</ele>
<time>2024-05-12T12:38:51Z</time>
</trkpt>
<trkpt lat="48.81652065552771" lon="9.398928601294756">
<ele>252</ele>
<time>2024-05-12T12:38:52Z</time>
</trkpt>
<trkpt lat="48.81650154478848" lon="9.398986771702766">
<ele>252</ele>
<time>2024-05-12T12:38:53Z</time>
</trkpt>
<trkpt lat="48.81647866219282" lon="9.399047791957855">
<ele>252.2</ele>
<time>2024-05-12T12:38:54Z</time>
</trkpt>
<trkpt lat="48.81645963527262" lon="9.399107890203595">
<ele>252.4</ele>
<time>2024-05-12T12:38:55Z</time>
</trkpt>
<trkpt lat="48.81644052453339" lon="9.399173688143492">
<ele>252.6</ele>
<time>2024-05-12T12:38:56Z</time>
</trkpt>
<trkpt lat="48.81642912514508" lon="9.399241413921118">
<ele>252.8</ele>
<time>2024-05-12T12:38:57Z</time>
</trkpt>
<trkpt lat="48.816413870081306" lon="9.399310061708093">
<ele>252.8</ele>
<time>2024-05-12T12:38:58Z</time>
</trkpt>
<trkpt lat="48.81640624254942" lon="9.399378709495068">
<ele>253</ele>
<time>2024-05-12T12:38:59Z</time>
</trkpt>
<trkpt lat="48.81639861501753" lon="9.399446435272694">
<ele>253</ele>
<time>2024-05-12T12:39:00Z</time>
</trkpt>
<trkpt lat="48.816394759342074" lon="9.399517010897398">
<ele>253</ele>
<time>2024-05-12T12:39:01Z</time>
</trkpt>
<trkpt lat="48.81638713181019" lon="9.399586664512752">
<ele>253.2</ele>
<time>2024-05-12T12:39:02Z</time>
</trkpt>
<trkpt lat="48.81638335995376" lon="9.399658162146808">
<ele>253.2</ele>
<time>2024-05-12T12:39:03Z</time>
</trkpt>
<trkpt lat="48.8163795042783" lon="9.39972965978086">
<ele>253.2</ele>
<time>2024-05-12T12:39:04Z</time>
</trkpt>
<trkpt lat="48.816375732421875" lon="9.399803085252644">
<ele>253.2</ele>
<time>2024-05-12T12:39:05Z</time>
</trkpt>
<trkpt lat="48.81636802107096" lon="9.399876594543455">
<ele>253.2</ele>
<time>2024-05-12T12:39:06Z</time>
</trkpt>
<trkpt lat="48.81636424921453" lon="9.399951864033936">
<ele>253.2</ele>
<time>2024-05-12T12:39:07Z</time>
</trkpt>
<trkpt lat="48.81635662168264" lon="9.400030067190528">
<ele>253.2</ele>
<time>2024-05-12T12:39:08Z</time>
</trkpt>
<trkpt lat="48.81634899415076" lon="9.400112126022576">
<ele>253.2</ele>
<time>2024-05-12T12:39:09Z</time>
</trkpt>
<trkpt lat="48.81634136661887" lon="9.400195106863976">
<ele>253.2</ele>
<time>2024-05-12T12:39:10Z</time>
</trkpt>
<trkpt lat="48.81632988341153" lon="9.4002818595618">
<ele>253.2</ele>
<time>2024-05-12T12:39:11Z</time>
</trkpt>
<trkpt lat="48.8163261115551" lon="9.400368612259626">
<ele>253.2</ele>
<time>2024-05-12T12:39:12Z</time>
</trkpt>
<trkpt lat="48.81631848402321" lon="9.400453520938754">
<ele>253.2</ele>
<time>2024-05-12T12:39:13Z</time>
</trkpt>
<trkpt lat="48.816314628347754" lon="9.400538429617882">
<ele>253</ele>
<time>2024-05-12T12:39:14Z</time>
</trkpt>
<trkpt lat="48.81630700081587" lon="9.40062141045928">
<ele>253</ele>
<time>2024-05-12T12:39:15Z</time>
</trkpt>
<trkpt lat="48.81630322895944" lon="9.400705313310027">
<ele>252.8</ele>
<time>2024-05-12T12:39:16Z</time>
</trkpt>
<trkpt lat="48.816295601427555" lon="9.400786366313696">
<ele>252.6</ele>
<time>2024-05-12T12:39:17Z</time>
</trkpt>
<trkpt lat="48.81628797389567" lon="9.400870269164445">
<ele>252.6</ele>
<time>2024-05-12T12:39:18Z</time>
</trkpt>
<trkpt lat="48.81628034636378" lon="9.400951322168112">
<ele>252.6</ele>
<time>2024-05-12T12:39:19Z</time>
</trkpt>
<trkpt lat="48.81627649068832" lon="9.40103338100016">
<ele>252.6</ele>
<time>2024-05-12T12:39:20Z</time>
</trkpt>
<trkpt lat="48.81626886315644" lon="9.40111535601318">
<ele>252.6</ele>
<time>2024-05-12T12:39:21Z</time>
</trkpt>
<trkpt lat="48.81626509130001" lon="9.40119456499815">
<ele>252.6</ele>
<time>2024-05-12T12:39:22Z</time>
</trkpt>
<trkpt lat="48.816257463768125" lon="9.40127369016409">
<ele>252.4</ele>
<time>2024-05-12T12:39:23Z</time>
</trkpt>
<trkpt lat="48.81624983623624" lon="9.40135189332068">
<ele>252.4</ele>
<time>2024-05-12T12:39:24Z</time>
</trkpt>
<trkpt lat="48.81624220870435" lon="9.401426240801811">
<ele>252.2</ele>
<time>2024-05-12T12:39:25Z</time>
</trkpt>
<trkpt lat="48.81623835302889" lon="9.401498744264243">
<ele>252.2</ele>
<time>2024-05-12T12:39:26Z</time>
</trkpt>
<trkpt lat="48.816234581172466" lon="9.401570241898298">
<ele>252.2</ele>
<time>2024-05-12T12:39:27Z</time>
</trkpt>
<trkpt lat="48.81622695364058" lon="9.401644673198462">
<ele>252.2</ele>
<time>2024-05-12T12:39:28Z</time>
</trkpt>
<trkpt lat="48.81622309796512" lon="9.401720026507974">
<ele>252.2</ele>
<time>2024-05-12T12:39:29Z</time>
</trkpt>
<trkpt lat="48.816215470433235" lon="9.401793451979756">
<ele>252</ele>
<time>2024-05-12T12:39:30Z</time>
</trkpt>
<trkpt lat="48.81621169857681" lon="9.40186687745154">
<ele>252</ele>
<time>2024-05-12T12:39:31Z</time>
</trkpt>
<trkpt lat="48.81620407104492" lon="9.401936531066896">
<ele>252</ele>
<time>2024-05-12T12:39:32Z</time>
</trkpt>
<trkpt lat="48.81618110463023" lon="9.40198707394302">
<ele>252</ele>
<time>2024-05-12T12:39:33Z</time>
</trkpt>
<trkpt lat="48.81614682264626" lon="9.402008028700948">
<ele>252</ele>
<time>2024-05-12T12:39:34Z</time>
</trkpt>
<trkpt lat="48.81610482931137" lon="9.402009956538675">
<ele>252</ele>
<time>2024-05-12T12:39:35Z</time>
</trkpt>
<trkpt lat="48.81606291979551" lon="9.40200517885387">
<ele>252</ele>
<time>2024-05-12T12:39:36Z</time>
</trkpt>
<trkpt lat="48.81601329892874" lon="9.40200132317841">
<ele>252</ele>
<time>2024-05-12T12:39:37Z</time>
</trkpt>
<trkpt lat="48.81596753373742" lon="9.40200132317841">
<ele>252</ele>
<time>2024-05-12T12:39:38Z</time>
</trkpt>
<trkpt lat="48.815917912870646" lon="9.402000401169062">
<ele>252</ele>
<time>2024-05-12T12:39:39Z</time>
</trkpt>
<trkpt lat="48.81586452014744" lon="9.401998473331332">
<ele>252</ele>
<time>2024-05-12T12:39:40Z</time>
</trkpt>
<trkpt lat="48.81581489928067" lon="9.401996545493605">
<ele>252</ele>
<time>2024-05-12T12:39:41Z</time>
</trkpt>
<trkpt lat="48.815761506557465" lon="9.401993695646524">
<ele>252</ele>
<time>2024-05-12T12:39:42Z</time>
</trkpt>
<trkpt lat="48.81570811383426" lon="9.401989923790095">
<ele>252</ele>
<time>2024-05-12T12:39:43Z</time>
</trkpt>
<trkpt lat="48.815658492967486" lon="9.401987995952368">
<ele>252</ele>
<time>2024-05-12T12:39:44Z</time>
</trkpt>
<trkpt lat="48.81560895591974" lon="9.401987995952368">
<ele>252.2</ele>
<time>2024-05-12T12:39:45Z</time>
</trkpt>
<trkpt lat="48.81555933505297" lon="9.401989923790095">
<ele>252.2</ele>
<time>2024-05-12T12:39:46Z</time>
</trkpt>
<trkpt lat="48.81550594232976" lon="9.401989923790095">
<ele>252.2</ele>
<time>2024-05-12T12:39:47Z</time>
</trkpt>
<trkpt lat="48.81545632146299" lon="9.401989923790095">
<ele>252.2</ele>
<time>2024-05-12T12:39:48Z</time>
</trkpt>
<trkpt lat="48.815406784415245" lon="9.40198707394302">
<ele>252.2</ele>
<time>2024-05-12T12:39:49Z</time>
</trkpt>
<trkpt lat="48.81535716354847" lon="9.40198514610529">
<ele>252</ele>
<time>2024-05-12T12:39:50Z</time>
</trkpt>
<trkpt lat="48.815307542681694" lon="9.40198514610529">
<ele>252</ele>
<time>2024-05-12T12:39:51Z</time>
</trkpt>
<trkpt lat="48.81526177749038" lon="9.40198514610529">
<ele>251.8</ele>
<time>2024-05-12T12:39:52Z</time>
</trkpt>
<trkpt lat="48.81521601229906" lon="9.401987995952368">
<ele>251.8</ele>
<time>2024-05-12T12:39:53Z</time>
</trkpt>
<trkpt lat="48.815170247107744" lon="9.40200325101614">
<ele>251.8</ele>
<time>2024-05-12T12:39:54Z</time>
</trkpt>
<trkpt lat="48.8151397369802" lon="9.40204524435103">
<ele>251.8</ele>
<time>2024-05-12T12:39:55Z</time>
</trkpt>
<trkpt lat="48.81511685438454" lon="9.40210148692131">
<ele>251.8</ele>
<time>2024-05-12T12:39:56Z</time>
</trkpt>
<trkpt lat="48.81509774364531" lon="9.402168206870556">
<ele>251.8</ele>
<time>2024-05-12T12:39:57Z</time>
</trkpt>
<trkpt lat="48.815086344257" lon="9.40223978832364">
<ele>251.8</ele>
<time>2024-05-12T12:39:58Z</time>
</trkpt>
<trkpt lat="48.815071089193225" lon="9.402310363948343">
<ele>251.8</ele>
<time>2024-05-12T12:39:59Z</time>
</trkpt>
<trkpt lat="48.815051978453994" lon="9.402383789420128">
<ele>251.8</ele>
<time>2024-05-12T12:40:00Z</time>
</trkpt>
<trkpt lat="48.81503672339022" lon="9.40245528705418">
<ele>252</ele>
<time>2024-05-12T12:40:01Z</time>
</trkpt>
<trkpt lat="48.81502146832645" lon="9.402528712525964">
<ele>252</ele>
<time>2024-05-12T12:40:02Z</time>
</trkpt>
<trkpt lat="48.815010068938136" lon="9.402603143826129">
<ele>252</ele>
<time>2024-05-12T12:40:03Z</time>
</trkpt>
<trkpt lat="48.814990958198905" lon="9.40267464146018">
<ele>252.2</ele>
<time>2024-05-12T12:40:04Z</time>
</trkpt>
<trkpt lat="48.81497947499156" lon="9.402746139094234">
<ele>252.2</ele>
<time>2024-05-12T12:40:05Z</time>
</trkpt>
<trkpt lat="48.81496421992779" lon="9.402819564566016">
<ele>252.4</ele>
<time>2024-05-12T12:40:06Z</time>
</trkpt>
<trkpt lat="48.81494519300759" lon="9.402888296172025">
<ele>252.6</ele>
<time>2024-05-12T12:40:07Z</time>
</trkpt>
<trkpt lat="48.814929937943816" lon="9.402957865968348">
<ele>252.6</ele>
<time>2024-05-12T12:40:08Z</time>
</trkpt>
<trkpt lat="48.814910827204585" lon="9.403028441593053">
<ele>252.6</ele>
<time>2024-05-12T12:40:09Z</time>
</trkpt>
<trkpt lat="48.81489557214081" lon="9.403097089380026">
<ele>252.6</ele>
<time>2024-05-12T12:40:10Z</time>
</trkpt>
<trkpt lat="48.81487654522061" lon="9.40316674299538">
<ele>252.8</ele>
<time>2024-05-12T12:40:11Z</time>
</trkpt>
<trkpt lat="48.81486129015684" lon="9.403235390782356">
<ele>252.8</ele>
<time>2024-05-12T12:40:12Z</time>
</trkpt>
<trkpt lat="48.81484217941761" lon="9.403301188722253">
<ele>253</ele>
<time>2024-05-12T12:40:13Z</time>
</trkpt>
<trkpt lat="48.81482692435384" lon="9.403369836509228">
<ele>253</ele>
<time>2024-05-12T12:40:14Z</time>
</trkpt>
<trkpt lat="48.814811669290066" lon="9.403438568115234">
<ele>253</ele>
<time>2024-05-12T12:40:15Z</time>
</trkpt>
<trkpt lat="48.81480781361461" lon="9.40350336022675">
<ele>253.2</ele>
<time>2024-05-12T12:40:16Z</time>
</trkpt>
<trkpt lat="48.814811669290066" lon="9.403568236157298">
<ele>253.2</ele>
<time>2024-05-12T12:40:17Z</time>
</trkpt>
<trkpt lat="48.81481929682195" lon="9.403628334403038">
<ele>253.2</ele>
<time>2024-05-12T12:40:18Z</time>
</trkpt>
<trkpt lat="48.81482692435384" lon="9.40368457697332">
<ele>253.4</ele>
<time>2024-05-12T12:40:19Z</time>
</trkpt>
<trkpt lat="48.81483840756118" lon="9.403743669390678">
<ele>253.4</ele>
<time>2024-05-12T12:40:20Z</time>
</trkpt>
<trkpt lat="48.814849806949496" lon="9.40380284562707">
<ele>253.2</ele>
<time>2024-05-12T12:40:21Z</time>
</trkpt>
<trkpt lat="48.81486506201327" lon="9.403868643566966">
<ele>253.4</ele>
<time>2024-05-12T12:40:22Z</time>
</trkpt>
<trkpt lat="48.81488031707704" lon="9.403936369344592">
<ele>253.4</ele>
<time>2024-05-12T12:40:23Z</time>
</trkpt>
<trkpt lat="48.814891800284386" lon="9.404001161456108">
<ele>253.6</ele>
<time>2024-05-12T12:40:24Z</time>
</trkpt>
<trkpt lat="48.8149031996727" lon="9.40405840985477">
<ele>253.6</ele>
<time>2024-05-12T12:40:25Z</time>
</trkpt>
<trkpt lat="48.814910827204585" lon="9.404113730415702">
<ele>253.8</ele>
<time>2024-05-12T12:40:26Z</time>
</trkpt>
<trkpt lat="48.81491845473647" lon="9.40417475067079">
<ele>253.8</ele>
<time>2024-05-12T12:40:27Z</time>
</trkpt>
<trkpt lat="48.81492231041193" lon="9.404243398457766">
<ele>254</ele>
<time>2024-05-12T12:40:28Z</time>
</trkpt>
<trkpt lat="48.81493370980024" lon="9.404316823929548">
<ele>254</ele>
<time>2024-05-12T12:40:29Z</time>
</trkpt>
<trkpt lat="48.81494133733213" lon="9.404391255229712">
<ele>254</ele>
<time>2024-05-12T12:40:30Z</time>
</trkpt>
<trkpt lat="48.814948964864016" lon="9.404468536376951">
<ele>254</ele>
<time>2024-05-12T12:40:31Z</time>
</trkpt>
<trkpt lat="48.8149565923959" lon="9.404544811695814">
<ele>254</ele>
<time>2024-05-12T12:40:32Z</time>
</trkpt>
<trkpt lat="48.8149565923959" lon="9.404623014852405">
<ele>254</ele>
<time>2024-05-12T12:40:33Z</time>
</trkpt>
<trkpt lat="48.8149565923959" lon="9.404701218008997">
<ele>253.8</ele>
<time>2024-05-12T12:40:34Z</time>
</trkpt>
<trkpt lat="48.8149565923959" lon="9.404778415337203">
<ele>253.8</ele>
<time>2024-05-12T12:40:35Z</time>
</trkpt>
<trkpt lat="48.8149565923959" lon="9.404851840808988">
<ele>253.8</ele>
<time>2024-05-12T12:40:36Z</time>
</trkpt>
<trkpt lat="48.8149565923959" lon="9.40492627210915">
<ele>253.8</ele>
<time>2024-05-12T12:40:37Z</time>
</trkpt>
<trkpt lat="48.8149565923959" lon="9.404998775571585">
<ele>253.8</ele>
<time>2024-05-12T12:40:38Z</time>
</trkpt>
<trkpt lat="48.814952820539474" lon="9.405068345367908">
<ele>253.6</ele>
<time>2024-05-12T12:40:39Z</time>
</trkpt>
<trkpt lat="48.81494519300759" lon="9.405137998983264">
<ele>253.8</ele>
<time>2024-05-12T12:40:40Z</time>
</trkpt>
<trkpt lat="48.81494133733213" lon="9.405213352292776">
<ele>254.2</ele>
<time>2024-05-12T12:40:41Z</time>
</trkpt>
<trkpt lat="48.81493370980024" lon="9.40528484992683">
<ele>254.4</ele>
<time>2024-05-12T12:40:42Z</time>
</trkpt>
<trkpt lat="48.81492608226836" lon="9.40536020323634">
<ele>254.6</ele>
<time>2024-05-12T12:40:43Z</time>
</trkpt>
<trkpt lat="48.81491468288005" lon="9.405434550717471">
<ele>254.6</ele>
<time>2024-05-12T12:40:44Z</time>
</trkpt>
<trkpt lat="48.81489942781627" lon="9.405507976189256">
<ele>254.6</ele>
<time>2024-05-12T12:40:45Z</time>
</trkpt>
<trkpt lat="48.8148841727525" lon="9.405583329498768">
<ele>254.2</ele>
<time>2024-05-12T12:40:46Z</time>
</trkpt>
<trkpt lat="48.81486891768873" lon="9.40565675497055">
<ele>254</ele>
<time>2024-05-12T12:40:47Z</time>
</trkpt>
<trkpt lat="48.814853662624955" lon="9.405728336423635">
<ele>253.8</ele>
<time>2024-05-12T12:40:48Z</time>
</trkpt>
<trkpt lat="48.81483840756118" lon="9.40579790621996">
<ele>253.8</ele>
<time>2024-05-12T12:40:49Z</time>
</trkpt>
<trkpt lat="48.81481929682195" lon="9.405864709988236">
<ele>254</ele>
<time>2024-05-12T12:40:50Z</time>
</trkpt>
<trkpt lat="48.81480404175818" lon="9.405929502099752">
<ele>254</ele>
<time>2024-05-12T12:40:51Z</time>
</trkpt>
<trkpt lat="48.81478493101895" lon="9.405993456020951">
<ele>253.8</ele>
<time>2024-05-12T12:40:52Z</time>
</trkpt>
<trkpt lat="48.81476204842329" lon="9.406055398285387">
<ele>253.8</ele>
<time>2024-05-12T12:40:53Z</time>
</trkpt>
<trkpt lat="48.81474302150309" lon="9.406118346378207">
<ele>253.8</ele>
<time>2024-05-12T12:40:54Z</time>
</trkpt>
<trkpt lat="48.81472013890743" lon="9.406183222308757">
<ele>253.8</ele>
<time>2024-05-12T12:40:55Z</time>
</trkpt>
<trkpt lat="48.814697256311774" lon="9.406246170401571">
<ele>253.6</ele>
<time>2024-05-12T12:40:56Z</time>
</trkpt>
<trkpt lat="48.81467051804066" lon="9.40630618482828">
<ele>253.4</ele>
<time>2024-05-12T12:40:57Z</time>
</trkpt>
<trkpt lat="48.814647635445" lon="9.40636628307402">
<ele>253.4</ele>
<time>2024-05-12T12:40:58Z</time>
</trkpt>
<trkpt lat="48.81462475284934" lon="9.406421603634952">
<ele>253.2</ele>
<time>2024-05-12T12:40:59Z</time>
</trkpt>
<trkpt lat="48.81459801457822" lon="9.406476924195886">
<ele>253.2</ele>
<time>2024-05-12T12:41:00Z</time>
</trkpt>
<trkpt lat="48.81457136012614" lon="9.406531322747467">
<ele>253.2</ele>
<time>2024-05-12T12:41:01Z</time>
</trkpt>
<trkpt lat="48.81454462185502" lon="9.406583709642293">
<ele>253.2</ele>
<time>2024-05-12T12:41:02Z</time>
</trkpt>
<trkpt lat="48.814517967402935" lon="9.40662955865264">
<ele>253.2</ele>
<time>2024-05-12T12:41:03Z</time>
</trkpt>
<trkpt lat="48.81449508480728" lon="9.406673396006228">
<ele>253.4</ele>
<time>2024-05-12T12:41:04Z</time>
</trkpt>
<trkpt lat="48.81446834653616" lon="9.406715389341116">
<ele>253.4</ele>
<time>2024-05-12T12:41:05Z</time>
</trkpt>
<trkpt lat="48.81444160826504" lon="9.40676299855113">
<ele>253.4</ele>
<time>2024-05-12T12:41:06Z</time>
</trkpt>
<trkpt lat="48.81440732628107" lon="9.406811697408555">
<ele>253.4</ele>
<time>2024-05-12T12:41:07Z</time>
</trkpt>
<trkpt lat="48.81437296047807" lon="9.406860312446952">
<ele>253.4</ele>
<time>2024-05-12T12:41:08Z</time>
</trkpt>
<trkpt lat="48.814338678494096" lon="9.406908005475998">
<ele>253.4</ele>
<time>2024-05-12T12:41:09Z</time>
</trkpt>
<trkpt lat="48.814300457015634" lon="9.406958548352122">
<ele>253.4</ele>
<time>2024-05-12T12:41:10Z</time>
</trkpt>
<trkpt lat="48.814258547499776" lon="9.407005235552788">
<ele>253.4</ele>
<time>2024-05-12T12:41:11Z</time>
</trkpt>
<trkpt lat="48.814220409840345" lon="9.407045301049948">
<ele>253.6</ele>
<time>2024-05-12T12:41:12Z</time>
</trkpt>
<trkpt lat="48.81418604403734" lon="9.407079666852953">
<ele>253.6</ele>
<time>2024-05-12T12:41:13Z</time>
</trkpt>
<trkpt lat="48.81415176205337" lon="9.407113026827574">
<ele>253.6</ele>
<time>2024-05-12T12:41:14Z</time>
</trkpt>
<trkpt lat="48.81411739625037" lon="9.407146386802197">
<ele>253.8</ele>
<time>2024-05-12T12:41:15Z</time>
</trkpt>
<trkpt lat="48.81407925859094" lon="9.407186452299356">
<ele>253.8</ele>
<time>2024-05-12T12:41:16Z</time>
</trkpt>
<trkpt lat="48.81404489278793" lon="9.407226517796516">
<ele>253.8</ele>
<time>2024-05-12T12:41:17Z</time>
</trkpt>
<trkpt lat="48.81401061080396" lon="9.407264655455949">
<ele>253.8</ele>
<time>2024-05-12T12:41:18Z</time>
</trkpt>
<trkpt lat="48.81397624500096" lon="9.407306648790836">
<ele>253.8</ele>
<time>2024-05-12T12:41:19Z</time>
</trkpt>
<trkpt lat="48.813941879197955" lon="9.407348558306694">
<ele>253.8</ele>
<time>2024-05-12T12:41:20Z</time>
</trkpt>
<trkpt lat="48.813903741538525" lon="9.407391473650932">
<ele>253.8</ele>
<time>2024-05-12T12:41:21Z</time>
</trkpt>
<trkpt lat="48.81386945955455" lon="9.407431539148092">
<ele>253.6</ele>
<time>2024-05-12T12:41:22Z</time>
</trkpt>
<trkpt lat="48.81383509375155" lon="9.407464899122717">
<ele>253.6</ele>
<time>2024-05-12T12:41:23Z</time>
</trkpt>
<trkpt lat="48.813804583624005" lon="9.40749834291637">
<ele>253.4</ele>
<time>2024-05-12T12:41:24Z</time>
</trkpt>
<trkpt lat="48.81377407349646" lon="9.407540252432227">
<ele>253.4</ele>
<time>2024-05-12T12:41:25Z</time>
</trkpt>
<trkpt lat="48.81373593583703" lon="9.407587023451924">
<ele>253.4</ele>
<time>2024-05-12T12:41:26Z</time>
</trkpt>
<trkpt lat="48.813690170645714" lon="9.407629938796164">
<ele>253.4</ele>
<time>2024-05-12T12:41:27Z</time>
</trkpt>
<trkpt lat="48.81364054977894" lon="9.407676625996828">
<ele>253.6</ele>
<time>2024-05-12T12:41:28Z</time>
</trkpt>
<trkpt lat="48.81359478458762" lon="9.407725324854256">
<ele>253.6</ele>
<time>2024-05-12T12:41:29Z</time>
</trkpt>
<trkpt lat="48.81355279125273" lon="9.4077730178833">
<ele>253.8</ele>
<time>2024-05-12T12:41:30Z</time>
</trkpt>
<trkpt lat="48.813510881736875" lon="9.407816855236888">
<ele>254</ele>
<time>2024-05-12T12:41:31Z</time>
</trkpt>
<trkpt lat="48.813468888401985" lon="9.407859770581126">
<ele>254</ele>
<time>2024-05-12T12:41:32Z</time>
</trkpt>
<trkpt lat="48.813426895067096" lon="9.407904613763094">
<ele>254.2</ele>
<time>2024-05-12T12:41:33Z</time>
</trkpt>
<trkpt lat="48.81338112987578" lon="9.40794845111668">
<ele>254.2</ele>
<time>2024-05-12T12:41:34Z</time>
</trkpt>
<trkpt lat="48.81333922035992" lon="9.407993294298649">
<ele>254.2</ele>
<time>2024-05-12T12:41:35Z</time>
</trkpt>
<trkpt lat="48.813293455168605" lon="9.408039981499314">
<ele>254.2</ele>
<time>2024-05-12T12:41:36Z</time>
</trkpt>
<trkpt lat="48.813251461833715" lon="9.408082896843553">
<ele>254.2</ele>
<time>2024-05-12T12:41:37Z</time>
</trkpt>
<trkpt lat="48.813209468498826" lon="9.408122962340713">
<ele>254</ele>
<time>2024-05-12T12:41:38Z</time>
</trkpt>
<trkpt lat="48.81316755898297" lon="9.408166883513331">
<ele>254</ele>
<time>2024-05-12T12:41:39Z</time>
</trkpt>
<trkpt lat="48.81312179379165" lon="9.40820787101984">
<ele>254</ele>
<time>2024-05-12T12:41:40Z</time>
</trkpt>
<trkpt lat="48.81307980045676" lon="9.408251708373427">
<ele>254</ele>
<time>2024-05-12T12:41:41Z</time>
</trkpt>
<trkpt lat="48.81304166279733" lon="9.408300323411822">
<ele>254</ele>
<time>2024-05-12T12:41:42Z</time>
</trkpt>
<trkpt lat="48.81299966946244" lon="9.40834617242217">
<ele>253.8</ele>
<time>2024-05-12T12:41:43Z</time>
</trkpt>
<trkpt lat="48.812957759946585" lon="9.408396715298297">
<ele>253.8</ele>
<time>2024-05-12T12:41:44Z</time>
</trkpt>
<trkpt lat="48.81291953846812" lon="9.408439630642532">
<ele>253.8</ele>
<time>2024-05-12T12:41:45Z</time>
</trkpt>
<trkpt lat="48.812877628952265" lon="9.408488245680928">
<ele>253.8</ele>
<time>2024-05-12T12:41:46Z</time>
</trkpt>
<trkpt lat="48.81284326314926" lon="9.408538788557053">
<ele>254</ele>
<time>2024-05-12T12:41:47Z</time>
</trkpt>
<trkpt lat="48.8128203805536" lon="9.408574998378754">
<ele>254</ele>
<time>2024-05-12T12:41:48Z</time>
</trkpt>
<trkpt lat="48.81278224289417" lon="9.40862176939845">
<ele>254</ele>
<time>2024-05-12T12:41:49Z</time>
</trkpt>
<trkpt lat="48.81274024955928" lon="9.40867993980646">
<ele>254.2</ele>
<time>2024-05-12T12:41:50Z</time>
</trkpt>
<trkpt lat="48.81270973943174" lon="9.408751437440516">
<ele>254.4</ele>
<time>2024-05-12T12:41:51Z</time>
</trkpt>
<trkpt lat="48.81268308497965" lon="9.408831568434834">
<ele>254.4</ele>
<time>2024-05-12T12:41:52Z</time>
</trkpt>
<trkpt lat="48.81265257485211" lon="9.408903066068888">
<ele>254.6</ele>
<time>2024-05-12T12:41:53Z</time>
</trkpt>
<trkpt lat="48.81262969225645" lon="9.40897649154067">
<ele>254.6</ele>
<time>2024-05-12T12:41:54Z</time>
</trkpt>
<trkpt lat="48.81260680966079" lon="9.409051844850184">
<ele>254.6</ele>
<time>2024-05-12T12:41:55Z</time>
</trkpt>
<trkpt lat="48.81258769892156" lon="9.409132897853851">
<ele>254.6</ele>
<time>2024-05-12T12:41:56Z</time>
</trkpt>
<trkpt lat="48.81256858818233" lon="9.409213028848171">
<ele>254.6</ele>
<time>2024-05-12T12:41:57Z</time>
</trkpt>
<trkpt lat="48.81254956126213" lon="9.409290309995413">
<ele>254.6</ele>
<time>2024-05-12T12:41:58Z</time>
</trkpt>
<trkpt lat="48.81253430619836" lon="9.409357951954007">
<ele>254.4</ele>
<time>2024-05-12T12:41:59Z</time>
</trkpt>
<trkpt lat="48.812519051134586" lon="9.409428527578712">
<ele>254.4</ele>
<time>2024-05-12T12:42:00Z</time>
</trkpt>
<trkpt lat="48.81250756792724" lon="9.409506730735302">
<ele>254.2</ele>
<time>2024-05-12T12:42:01Z</time>
</trkpt>
<trkpt lat="48.81249616853893" lon="9.409586861729622">
<ele>254.2</ele>
<time>2024-05-12T12:42:02Z</time>
</trkpt>
<trkpt lat="48.81249616853893" lon="9.409661293029783">
<ele>254.2</ele>
<time>2024-05-12T12:42:03Z</time>
</trkpt>
<trkpt lat="48.81249616853893" lon="9.409733712673187">
<ele>254.2</ele>
<time>2024-05-12T12:42:04Z</time>
</trkpt>
<trkpt lat="48.81249231286347" lon="9.409803366288545">
<ele>254.2</ele>
<time>2024-05-12T12:42:05Z</time>
</trkpt>
<trkpt lat="48.81248468533158" lon="9.409878719598057">
<ele>254.2</ele>
<time>2024-05-12T12:42:06Z</time>
</trkpt>
<trkpt lat="48.81248468533158" lon="9.409950217232108">
<ele>254.2</ele>
<time>2024-05-12T12:42:07Z</time>
</trkpt>
<trkpt lat="48.81248468533158" lon="9.41002456471324">
<ele>254.2</ele>
<time>2024-05-12T12:42:08Z</time>
</trkpt>
<trkpt lat="48.81248468533158" lon="9.41010184586048">
<ele>254.4</ele>
<time>2024-05-12T12:42:09Z</time>
</trkpt>
<trkpt lat="48.81248468533158" lon="9.41018289886415">
<ele>254.4</ele>
<time>2024-05-12T12:42:10Z</time>
</trkpt>
<trkpt lat="48.81249231286347" lon="9.41026302985847">
<ele>254.6</ele>
<time>2024-05-12T12:42:11Z</time>
</trkpt>
<trkpt lat="48.812499940395355" lon="9.410345004871488">
<ele>254.6</ele>
<time>2024-05-12T12:42:12Z</time>
</trkpt>
<trkpt lat="48.812503796070814" lon="9.41041843034327">
<ele>254.6</ele>
<time>2024-05-12T12:42:13Z</time>
</trkpt>
<trkpt lat="48.81250756792724" lon="9.410491939634085">
<ele>254.6</ele>
<time>2024-05-12T12:42:14Z</time>
</trkpt>
<trkpt lat="48.8125114236027" lon="9.410568214952946">
<ele>254.6</ele>
<time>2024-05-12T12:42:15Z</time>
</trkpt>
<trkpt lat="48.81251519545913" lon="9.410644490271808">
<ele>254.6</ele>
<time>2024-05-12T12:42:16Z</time>
</trkpt>
<trkpt lat="48.81252282299101" lon="9.410721771419048">
<ele>254.4</ele>
<time>2024-05-12T12:42:17Z</time>
</trkpt>
<trkpt lat="48.81252667866647" lon="9.41079804673791">
<ele>254.4</ele>
<time>2024-05-12T12:42:18Z</time>
</trkpt>
<trkpt lat="48.8125304505229" lon="9.4108762498945">
<ele>254.4</ele>
<time>2024-05-12T12:42:19Z</time>
</trkpt>
<trkpt lat="48.81253430619836" lon="9.41095344722271">
<ele>254.4</ele>
<time>2024-05-12T12:42:20Z</time>
</trkpt>
<trkpt lat="48.812538078054786" lon="9.411027878522871">
<ele>254.6</ele>
<time>2024-05-12T12:42:21Z</time>
</trkpt>
<trkpt lat="48.812541933730245" lon="9.411105075851085">
<ele>254.6</ele>
<time>2024-05-12T12:42:22Z</time>
</trkpt>
<trkpt lat="48.81254570558667" lon="9.411181434988976">
<ele>254.8</ele>
<time>2024-05-12T12:42:23Z</time>
</trkpt>
<trkpt lat="48.81254570558667" lon="9.411256788298488">
<ele>254.8</ele>
<time>2024-05-12T12:42:24Z</time>
</trkpt>
<trkpt lat="48.81254956126213" lon="9.41133113577962">
<ele>255</ele>
<time>2024-05-12T12:42:25Z</time>
</trkpt>
<trkpt lat="48.81254570558667" lon="9.41140841692686">
<ele>255</ele>
<time>2024-05-12T12:42:26Z</time>
</trkpt>
<trkpt lat="48.81254956126213" lon="9.411484692245722">
<ele>255.2</ele>
<time>2024-05-12T12:42:27Z</time>
</trkpt>
<trkpt lat="48.81254956126213" lon="9.411562895402312">
<ele>255.2</ele>
<time>2024-05-12T12:42:28Z</time>
</trkpt>
<trkpt lat="48.81254956126213" lon="9.411640092730522">
<ele>255.2</ele>
<time>2024-05-12T12:42:29Z</time>
</trkpt>
<trkpt lat="48.81254956126213" lon="9.411718295887113">
<ele>255.2</ele>
<time>2024-05-12T12:42:30Z</time>
</trkpt>
<trkpt lat="48.812541933730245" lon="9.411796499043705">
<ele>255.2</ele>
<time>2024-05-12T12:42:31Z</time>
</trkpt>
<trkpt lat="48.812538078054786" lon="9.411871852353215">
<ele>255.4</ele>
<time>2024-05-12T12:42:32Z</time>
</trkpt>
<trkpt lat="48.81253430619836" lon="9.411945277824998">
<ele>255.2</ele>
<time>2024-05-12T12:42:33Z</time>
</trkpt>
<trkpt lat="48.8125304505229" lon="9.412016859278085">
<ele>255.4</ele>
<time>2024-05-12T12:42:34Z</time>
</trkpt>
<trkpt lat="48.81252282299101" lon="9.412088356912136">
<ele>255.4</ele>
<time>2024-05-12T12:42:35Z</time>
</trkpt>
<trkpt lat="48.81251519545913" lon="9.412151305004954">
<ele>255.6</ele>
<time>2024-05-12T12:42:36Z</time>
</trkpt>
<trkpt lat="48.81250756792724" lon="9.4122180249542">
<ele>255.6</ele>
<time>2024-05-12T12:42:37Z</time>
</trkpt>
<trkpt lat="48.812499940395355" lon="9.41228005103767">
<ele>255.6</ele>
<time>2024-05-12T12:42:38Z</time>
</trkpt>
<trkpt lat="48.81249231286347" lon="9.41233629360795">
<ele>255.6</ele>
<time>2024-05-12T12:42:39Z</time>
</trkpt>
<trkpt lat="48.81248468533158" lon="9.412389686331151">
<ele>255.6</ele>
<time>2024-05-12T12:42:40Z</time>
</trkpt>
<trkpt lat="48.8124770577997" lon="9.412441235035658">
<ele>255.6</ele>
<time>2024-05-12T12:42:41Z</time>
</trkpt>
<trkpt lat="48.81247328594327" lon="9.412487922236323">
<ele>255.6</ele>
<time>2024-05-12T12:42:42Z</time>
</trkpt>
<trkpt lat="48.81246943026781" lon="9.41253368742764">
<ele>255.4</ele>
<time>2024-05-12T12:42:43Z</time>
</trkpt>
<trkpt lat="48.812461802735925" lon="9.412592863664033">
<ele>255.4</ele>
<time>2024-05-12T12:42:44Z</time>
</trkpt>
<trkpt lat="48.81245417520404" lon="9.412661511451006">
<ele>255.2</ele>
<time>2024-05-12T12:42:45Z</time>
</trkpt>
<trkpt lat="48.81244654767215" lon="9.41273015923798">
<ele>255.2</ele>
<time>2024-05-12T12:42:46Z</time>
</trkpt>
<trkpt lat="48.81244654767215" lon="9.412796963006258">
<ele>255.2</ele>
<time>2024-05-12T12:42:47Z</time>
</trkpt>
<trkpt lat="48.812442775815725" lon="9.412866532802582">
<ele>255</ele>
<time>2024-05-12T12:42:48Z</time>
</trkpt>
<trkpt lat="48.812438920140266" lon="9.412936186417936">
<ele>254.8</ele>
<time>2024-05-12T12:42:49Z</time>
</trkpt>
<trkpt lat="48.81243514828384" lon="9.41300961188972">
<ele>254.8</ele>
<time>2024-05-12T12:42:50Z</time>
</trkpt>
<trkpt lat="48.81243129260838" lon="9.413083037361504">
<ele>254.8</ele>
<time>2024-05-12T12:42:51Z</time>
</trkpt>
<trkpt lat="48.81242752075195" lon="9.413158390671017">
<ele>254.8</ele>
<time>2024-05-12T12:42:52Z</time>
</trkpt>
<trkpt lat="48.81242752075195" lon="9.413231816142796">
<ele>254.8</ele>
<time>2024-05-12T12:42:53Z</time>
</trkpt>
<trkpt lat="48.81242752075195" lon="9.41330524161458">
<ele>254.8</ele>
<time>2024-05-12T12:42:54Z</time>
</trkpt>
<trkpt lat="48.81242752075195" lon="9.413379589095712">
<ele>255</ele>
<time>2024-05-12T12:42:55Z</time>
</trkpt>
<trkpt lat="48.81242752075195" lon="9.413454942405224">
<ele>255</ele>
<time>2024-05-12T12:42:56Z</time>
</trkpt>
<trkpt lat="48.81242752075195" lon="9.413531301543117">
<ele>255</ele>
<time>2024-05-12T12:42:57Z</time>
</trkpt>
<trkpt lat="48.81243129260838" lon="9.4136047270149">
<ele>255.2</ele>
<time>2024-05-12T12:42:58Z</time>
</trkpt>
<trkpt lat="48.81243514828384" lon="9.413678152486682">
<ele>255.2</ele>
<time>2024-05-12T12:42:59Z</time>
</trkpt>
<trkpt lat="48.812438920140266" lon="9.413749650120735">
<ele>255.2</ele>
<time>2024-05-12T12:43:00Z</time>
</trkpt>
<trkpt lat="48.81244654767215" lon="9.41382022574544">
<ele>255.2</ele>
<time>2024-05-12T12:43:01Z</time>
</trkpt>
<trkpt lat="48.81245040334761" lon="9.413891723379493">
<ele>255.4</ele>
<time>2024-05-12T12:43:02Z</time>
</trkpt>
<trkpt lat="48.81245417520404" lon="9.413967076689003">
<ele>255.4</ele>
<time>2024-05-12T12:43:03Z</time>
</trkpt>
<trkpt lat="48.8124580308795" lon="9.41403673030436">
<ele>255.4</ele>
<time>2024-05-12T12:43:04Z</time>
</trkpt>
<trkpt lat="48.812461802735925" lon="9.414106300100684">
<ele>255.4</ele>
<time>2024-05-12T12:43:05Z</time>
</trkpt>
<trkpt lat="48.81246943026781" lon="9.414177881553767">
<ele>255.6</ele>
<time>2024-05-12T12:43:06Z</time>
</trkpt>
<trkpt lat="48.81247328594327" lon="9.414250301197171">
<ele>255.6</ele>
<time>2024-05-12T12:43:07Z</time>
</trkpt>
<trkpt lat="48.81248091347515" lon="9.414319954812528">
<ele>255.6</ele>
<time>2024-05-12T12:43:08Z</time>
</trkpt>
<trkpt lat="48.81248854100704" lon="9.41439145244658">
<ele>255.6</ele>
<time>2024-05-12T12:43:09Z</time>
</trkpt>
<trkpt lat="48.81249616853893" lon="9.414464877918364">
<ele>255.6</ele>
<time>2024-05-12T12:43:10Z</time>
</trkpt>
<trkpt lat="48.812499940395355" lon="9.414534531533718">
<ele>255.6</ele>
<time>2024-05-12T12:43:11Z</time>
</trkpt>
<trkpt lat="48.81250756792724" lon="9.414605107158422">
<ele>255.6</ele>
<time>2024-05-12T12:43:12Z</time>
</trkpt>
<trkpt lat="48.81251519545913" lon="9.414674676954746">
<ele>255.6</ele>
<time>2024-05-12T12:43:13Z</time>
</trkpt>
<trkpt lat="48.812519051134586" lon="9.41474525257945">
<ele>255.6</ele>
<time>2024-05-12T12:43:14Z</time>
</trkpt>
<trkpt lat="48.81252667866647" lon="9.414814906194806">
<ele>255.6</ele>
<time>2024-05-12T12:43:15Z</time>
</trkpt>
<trkpt lat="48.812538078054786" lon="9.41488640382886">
<ele>255.4</ele>
<time>2024-05-12T12:43:16Z</time>
</trkpt>
<trkpt lat="48.81254570558667" lon="9.414961757138371">
<ele>255.2</ele>
<time>2024-05-12T12:43:17Z</time>
</trkpt>
<trkpt lat="48.81255333311856" lon="9.415035182610154">
<ele>255.2</ele>
<time>2024-05-12T12:43:18Z</time>
</trkpt>
<trkpt lat="48.81256096065045" lon="9.415108608081937">
<ele>255</ele>
<time>2024-05-12T12:43:19Z</time>
</trkpt>
<trkpt lat="48.8125648163259" lon="9.4151830393821">
<ele>255</ele>
<time>2024-05-12T12:43:20Z</time>
</trkpt>
<trkpt lat="48.81256858818233" lon="9.415254537016152">
<ele>254.8</ele>
<time>2024-05-12T12:43:21Z</time>
</trkpt>
<trkpt lat="48.812576215714216" lon="9.415323184803128">
<ele>254.6</ele>
<time>2024-05-12T12:43:22Z</time>
</trkpt>
<trkpt lat="48.812580071389675" lon="9.415392838418484">
<ele>254.6</ele>
<time>2024-05-12T12:43:23Z</time>
</trkpt>
<trkpt lat="48.8125838432461" lon="9.415465341880918">
<ele>254.4</ele>
<time>2024-05-12T12:43:24Z</time>
</trkpt>
<trkpt lat="48.8125838432461" lon="9.41553683951497">
<ele>254.4</ele>
<time>2024-05-12T12:43:25Z</time>
</trkpt>
<trkpt lat="48.81258769892156" lon="9.415608337149024">
<ele>254.4</ele>
<time>2024-05-12T12:43:26Z</time>
</trkpt>
<trkpt lat="48.81259147077799" lon="9.415679918602107">
<ele>254.4</ele>
<time>2024-05-12T12:43:27Z</time>
</trkpt>
<trkpt lat="48.81259147077799" lon="9.415753344073892">
<ele>254.4</ele>
<time>2024-05-12T12:43:28Z</time>
</trkpt>
<trkpt lat="48.81259532645345" lon="9.415824841707945">
<ele>254.4</ele>
<time>2024-05-12T12:43:29Z</time>
</trkpt>
<trkpt lat="48.812599182128906" lon="9.415896339341998">
<ele>254.4</ele>
<time>2024-05-12T12:43:30Z</time>
</trkpt>
<trkpt lat="48.81260295398533" lon="9.415969848632813">
<ele>254.4</ele>
<time>2024-05-12T12:43:31Z</time>
</trkpt>
<trkpt lat="48.81260295398533" lon="9.416045118123291">
<ele>254.4</ele>
<time>2024-05-12T12:43:32Z</time>
</trkpt>
<trkpt lat="48.81260295398533" lon="9.416116699576378">
<ele>254.4</ele>
<time>2024-05-12T12:43:33Z</time>
</trkpt>
<trkpt lat="48.81260680966079" lon="9.416186269372702">
<ele>254.4</ele>
<time>2024-05-12T12:43:34Z</time>
</trkpt>
<trkpt lat="48.81260680966079" lon="9.416256844997406">
<ele>254.6</ele>
<time>2024-05-12T12:43:35Z</time>
</trkpt>
<trkpt lat="48.81260295398533" lon="9.416324570775032">
<ele>254.6</ele>
<time>2024-05-12T12:43:36Z</time>
</trkpt>
<trkpt lat="48.81260295398533" lon="9.416395146399736">
<ele>254.6</ele>
<time>2024-05-12T12:43:37Z</time>
</trkpt>
<trkpt lat="48.81260295398533" lon="9.416464800015092">
<ele>254.6</ele>
<time>2024-05-12T12:43:38Z</time>
</trkpt>
<trkpt lat="48.812599182128906" lon="9.416538225486876">
<ele>254.6</ele>
<time>2024-05-12T12:43:39Z</time>
</trkpt>
<trkpt lat="48.812599182128906" lon="9.416609723120928">
<ele>254.6</ele>
<time>2024-05-12T12:43:40Z</time>
</trkpt>
<trkpt lat="48.812599182128906" lon="9.416676443070171">
<ele>254.6</ele>
<time>2024-05-12T12:43:41Z</time>
</trkpt>
<trkpt lat="48.812599182128906" lon="9.41674517467618">
<ele>254.6</ele>
<time>2024-05-12T12:43:42Z</time>
</trkpt>
<trkpt lat="48.812599182128906" lon="9.416812816634774">
<ele>254.6</ele>
<time>2024-05-12T12:43:43Z</time>
</trkpt>
<trkpt lat="48.81260295398533" lon="9.41688154824078">
<ele>254.6</ele>
<time>2024-05-12T12:43:44Z</time>
</trkpt>
<trkpt lat="48.812599182128906" lon="9.416952123865483">
<ele>254.6</ele>
<time>2024-05-12T12:43:45Z</time>
</trkpt>
<trkpt lat="48.812599182128906" lon="9.41701976582408">
<ele>254.8</ele>
<time>2024-05-12T12:43:46Z</time>
</trkpt>
<trkpt lat="48.81259532645345" lon="9.417088497430086">
<ele>254.8</ele>
<time>2024-05-12T12:43:47Z</time>
</trkpt>
<trkpt lat="48.81259147077799" lon="9.41715806722641">
<ele>255</ele>
<time>2024-05-12T12:43:48Z</time>
</trkpt>
<trkpt lat="48.81259147077799" lon="9.417226715013385">
<ele>255</ele>
<time>2024-05-12T12:43:49Z</time>
</trkpt>
<trkpt lat="48.8125838432461" lon="9.417295446619391">
<ele>255</ele>
<time>2024-05-12T12:43:50Z</time>
</trkpt>
<trkpt lat="48.812580071389675" lon="9.417361244559288">
<ele>255.2</ele>
<time>2024-05-12T12:43:51Z</time>
</trkpt>
<trkpt lat="48.812580071389675" lon="9.417425114661455">
<ele>255.2</ele>
<time>2024-05-12T12:43:52Z</time>
</trkpt>
<trkpt lat="48.812576215714216" lon="9.417488062754272">
<ele>255.4</ele>
<time>2024-05-12T12:43:53Z</time>
</trkpt>
<trkpt lat="48.81257244385779" lon="9.41755193285644">
<ele>255.6</ele>
<time>2024-05-12T12:43:54Z</time>
</trkpt>
<trkpt lat="48.8125648163259" lon="9.41761488094926">
<ele>255.8</ele>
<time>2024-05-12T12:43:55Z</time>
</trkpt>
<trkpt lat="48.81256096065045" lon="9.417677829042075">
<ele>256</ele>
<time>2024-05-12T12:43:56Z</time>
</trkpt>
<trkpt lat="48.81255333311856" lon="9.417743626981974">
<ele>256</ele>
<time>2024-05-12T12:43:57Z</time>
</trkpt>
<trkpt lat="48.812541933730245" lon="9.417803725227714">
<ele>256</ele>
<time>2024-05-12T12:43:58Z</time>
</trkpt>
<trkpt lat="48.812538078054786" lon="9.417859967797996">
<ele>256</ele>
<time>2024-05-12T12:43:59Z</time>
</trkpt>
<trkpt lat="48.81253430619836" lon="9.417916294187307">
<ele>256</ele>
<time>2024-05-12T12:44:00Z</time>
</trkpt>
<trkpt lat="48.81252667866647" lon="9.417973458766935">
<ele>255.8</ele>
<time>2024-05-12T12:44:01Z</time>
</trkpt>
<trkpt lat="48.812519051134586" lon="9.41802978515625">
<ele>255.8</ele>
<time>2024-05-12T12:44:02Z</time>
</trkpt>
<trkpt lat="48.81251519545913" lon="9.41808502189815">
<ele>255.8</ele>
<time>2024-05-12T12:44:03Z</time>
</trkpt>
<trkpt lat="48.81251519545913" lon="9.418133720755575">
<ele>256</ele>
<time>2024-05-12T12:44:04Z</time>
</trkpt>
<trkpt lat="48.8125114236027" lon="9.418176636099815">
<ele>256</ele>
<time>2024-05-12T12:44:05Z</time>
</trkpt>
<trkpt lat="48.81250756792724" lon="9.418212845921516">
<ele>256</ele>
<time>2024-05-12T12:44:06Z</time>
</trkpt>
<trkpt lat="48.81250756792724" lon="9.418252911418676">
<ele>256</ele>
<time>2024-05-12T12:44:07Z</time>
</trkpt>
<trkpt lat="48.81251519545913" lon="9.418294904753566">
<ele>256</ele>
<time>2024-05-12T12:44:08Z</time>
</trkpt>
<trkpt lat="48.8125304505229" lon="9.418330192565918">
<ele>256</ele>
<time>2024-05-12T12:44:09Z</time>
</trkpt>
<trkpt lat="48.81255333311856" lon="9.418352069333196">
<ele>256</ele>
<time>2024-05-12T12:44:10Z</time>
</trkpt>
<trkpt lat="48.812576215714216" lon="9.418361624702811">
<ele>256</ele>
<time>2024-05-12T12:44:11Z</time>
</trkpt>
<trkpt lat="48.81260680966079" lon="9.41836640238762">
<ele>255.8</ele>
<time>2024-05-12T12:44:12Z</time>
</trkpt>
<trkpt lat="48.81264109164477" lon="9.418370174244046">
<ele>255.8</ele>
<time>2024-05-12T12:44:13Z</time>
</trkpt>
<trkpt lat="48.81267160177231" lon="9.418373107910156">
<ele>255.6</ele>
<time>2024-05-12T12:44:14Z</time>
</trkpt>
<trkpt lat="48.81270973943174" lon="9.418377801775932">
<ele>255.4</ele>
<time>2024-05-12T12:44:15Z</time>
</trkpt>
<trkpt lat="48.81274787709117" lon="9.418379729613662">
<ele>255.2</ele>
<time>2024-05-12T12:44:16Z</time>
</trkpt>
<trkpt lat="48.81278987042606" lon="9.418391212821009">
<ele>255.2</ele>
<time>2024-05-12T12:44:17Z</time>
</trkpt>
<trkpt lat="48.812835635617375" lon="9.418417867273092">
<ele>255</ele>
<time>2024-05-12T12:44:18Z</time>
</trkpt>
<trkpt lat="48.812877628952265" lon="9.418468410149217">
<ele>255</ele>
<time>2024-05-12T12:44:19Z</time>
</trkpt>
<trkpt lat="48.812915766611695" lon="9.418531358242037">
<ele>254.8</ele>
<time>2024-05-12T12:44:20Z</time>
</trkpt>
<trkpt lat="48.81294627673924" lon="9.418598162010312">
<ele>254.8</ele>
<time>2024-05-12T12:44:21Z</time>
</trkpt>
<trkpt lat="48.81297301501036" lon="9.418666809797289">
<ele>254.6</ele>
<time>2024-05-12T12:44:22Z</time>
</trkpt>
<trkpt lat="48.812995897606015" lon="9.418734535574911">
<ele>254.6</ele>
<time>2024-05-12T12:44:23Z</time>
</trkpt>
<trkpt lat="48.81301115266979" lon="9.418809888884423">
<ele>254.4</ele>
<time>2024-05-12T12:44:24Z</time>
</trkpt>
<trkpt lat="48.8130225520581" lon="9.4188785366714">
<ele>254.4</ele>
<time>2024-05-12T12:44:25Z</time>
</trkpt>
<trkpt lat="48.81303017958999" lon="9.418941484764218">
<ele>254.4</ele>
<time>2024-05-12T12:44:26Z</time>
</trkpt>
<trkpt lat="48.813034035265446" lon="9.419006276875734">
<ele>254.2</ele>
<time>2024-05-12T12:44:27Z</time>
</trkpt>
<trkpt lat="48.81303780712187" lon="9.419071152806282">
<ele>254.2</ele>
<time>2024-05-12T12:44:28Z</time>
</trkpt>
<trkpt lat="48.81304166279733" lon="9.41913695074618">
<ele>254.2</ele>
<time>2024-05-12T12:44:29Z</time>
</trkpt>
<trkpt lat="48.81304929032922" lon="9.419201826676726">
<ele>254.2</ele>
<time>2024-05-12T12:44:30Z</time>
</trkpt>
<trkpt lat="48.813056917861104" lon="9.41927332431078">
<ele>254.2</ele>
<time>2024-05-12T12:44:31Z</time>
</trkpt>
<trkpt lat="48.81306454539299" lon="9.419346749782562">
<ele>254.2</ele>
<time>2024-05-12T12:44:32Z</time>
</trkpt>
<trkpt lat="48.8130759447813" lon="9.419414475560188">
<ele>254</ele>
<time>2024-05-12T12:44:33Z</time>
</trkpt>
<trkpt lat="48.81307980045676" lon="9.41949175670743">
<ele>254</ele>
<time>2024-05-12T12:44:34Z</time>
</trkpt>
<trkpt lat="48.81309119984507" lon="9.419561326503754">
<ele>254</ele>
<time>2024-05-12T12:44:35Z</time>
</trkpt>
<trkpt lat="48.81309882737696" lon="9.419634751975536">
<ele>254</ele>
<time>2024-05-12T12:44:36Z</time>
</trkpt>
<trkpt lat="48.81310645490885" lon="9.41970817744732">
<ele>254</ele>
<time>2024-05-12T12:44:37Z</time>
</trkpt>
<trkpt lat="48.813114166259766" lon="9.419779758900404">
<ele>254</ele>
<time>2024-05-12T12:44:38Z</time>
</trkpt>
<trkpt lat="48.81312179379165" lon="9.419855112209916">
<ele>254</ele>
<time>2024-05-12T12:44:39Z</time>
</trkpt>
<trkpt lat="48.81312942132354" lon="9.41992660984397">
<ele>254</ele>
<time>2024-05-12T12:44:40Z</time>
</trkpt>
<trkpt lat="48.813137048855424" lon="9.420000035315752">
<ele>254</ele>
<time>2024-05-12T12:44:41Z</time>
</trkpt>
<trkpt lat="48.81314082071185" lon="9.420075388625264">
<ele>254.2</ele>
<time>2024-05-12T12:44:42Z</time>
</trkpt>
<trkpt lat="48.81314467638731" lon="9.420153591781856">
<ele>254.2</ele>
<time>2024-05-12T12:44:43Z</time>
</trkpt>
<trkpt lat="48.81314844824374" lon="9.420225089415908">
<ele>254.2</ele>
<time>2024-05-12T12:44:44Z</time>
</trkpt>
<trkpt lat="48.81315607577562" lon="9.420294743031263">
<ele>254.2</ele>
<time>2024-05-12T12:44:45Z</time>
</trkpt>
<trkpt lat="48.81315993145108" lon="9.420370096340775">
<ele>254.2</ele>
<time>2024-05-12T12:44:46Z</time>
</trkpt>
<trkpt lat="48.81316755898297" lon="9.4204396661371">
<ele>254.4</ele>
<time>2024-05-12T12:44:47Z</time>
</trkpt>
<trkpt lat="48.813171330839396" lon="9.420513091608882">
<ele>254.4</ele>
<time>2024-05-12T12:44:48Z</time>
</trkpt>
<trkpt lat="48.813175186514854" lon="9.420584673061969">
<ele>254.6</ele>
<time>2024-05-12T12:44:49Z</time>
</trkpt>
<trkpt lat="48.81317895837128" lon="9.420655248686671">
<ele>254.6</ele>
<time>2024-05-12T12:44:50Z</time>
</trkpt>
<trkpt lat="48.81318658590317" lon="9.420724818482997">
<ele>254.6</ele>
<time>2024-05-12T12:44:51Z</time>
</trkpt>
<trkpt lat="48.81319044157863" lon="9.4207953941077">
<ele>254.8</ele>
<time>2024-05-12T12:44:52Z</time>
</trkpt>
<trkpt lat="48.813194213435054" lon="9.420865047723057">
<ele>254.8</ele>
<time>2024-05-12T12:44:53Z</time>
</trkpt>
<trkpt lat="48.81319806911051" lon="9.420936545357108">
<ele>255</ele>
<time>2024-05-12T12:44:54Z</time>
</trkpt>
<trkpt lat="48.81320184096694" lon="9.42100804299116">
<ele>255</ele>
<time>2024-05-12T12:44:55Z</time>
</trkpt>
<trkpt lat="48.8132056966424" lon="9.421076774597168">
<ele>255</ele>
<time>2024-05-12T12:44:56Z</time>
</trkpt>
<trkpt lat="48.813213324174285" lon="9.421143494546412">
<ele>255.2</ele>
<time>2024-05-12T12:44:57Z</time>
</trkpt>
<trkpt lat="48.81321709603071" lon="9.42120837047696">
<ele>255.2</ele>
<time>2024-05-12T12:44:58Z</time>
</trkpt>
<trkpt lat="48.8132247235626" lon="9.421273162588475">
<ele>255.2</ele>
<time>2024-05-12T12:44:59Z</time>
</trkpt>
<trkpt lat="48.8132247235626" lon="9.421342816203833">
<ele>255.2</ele>
<time>2024-05-12T12:45:00Z</time>
</trkpt>
<trkpt lat="48.81323235109448" lon="9.421413391828535">
<ele>255.2</ele>
<time>2024-05-12T12:45:01Z</time>
</trkpt>
<trkpt lat="48.81323620676994" lon="9.42148681730032">
<ele>255.2</ele>
<time>2024-05-12T12:45:02Z</time>
</trkpt>
<trkpt lat="48.81323997862637" lon="9.421560242772102">
<ele>255.2</ele>
<time>2024-05-12T12:45:03Z</time>
</trkpt>
<trkpt lat="48.81324383430183" lon="9.421629896387458">
<ele>255.4</ele>
<time>2024-05-12T12:45:04Z</time>
</trkpt>
<trkpt lat="48.81324760615826" lon="9.421696616336703">
<ele>255.4</ele>
<time>2024-05-12T12:45:05Z</time>
</trkpt>
<trkpt lat="48.813251461833715" lon="9.42176342010498">
<ele>255.4</ele>
<time>2024-05-12T12:45:06Z</time>
</trkpt>
<trkpt lat="48.81325523369014" lon="9.421832067891955">
<ele>255.6</ele>
<time>2024-05-12T12:45:07Z</time>
</trkpt>
<trkpt lat="48.81326286122203" lon="9.42189979366958">
<ele>255.6</ele>
<time>2024-05-12T12:45:08Z</time>
</trkpt>
<trkpt lat="48.81326671689749" lon="9.421973219141364">
<ele>255.8</ele>
<time>2024-05-12T12:45:09Z</time>
</trkpt>
<trkpt lat="48.813274344429374" lon="9.42204186692834">
<ele>255.8</ele>
<time>2024-05-12T12:45:10Z</time>
</trkpt>
<trkpt lat="48.8132781162858" lon="9.422109592705963">
<ele>255.8</ele>
<time>2024-05-12T12:45:11Z</time>
</trkpt>
<trkpt lat="48.8132781162858" lon="9.422183018177748">
<ele>255.8</ele>
<time>2024-05-12T12:45:12Z</time>
</trkpt>
<trkpt lat="48.81328197196126" lon="9.42225837148726">
<ele>256</ele>
<time>2024-05-12T12:45:13Z</time>
</trkpt>
<trkpt lat="48.81328197196126" lon="9.42233364097774">
<ele>256</ele>
<time>2024-05-12T12:45:14Z</time>
</trkpt>
<trkpt lat="48.81328582763672" lon="9.422408072277904">
<ele>256</ele>
<time>2024-05-12T12:45:15Z</time>
</trkpt>
<trkpt lat="48.81328582763672" lon="9.422483425587416">
<ele>256</ele>
<time>2024-05-12T12:45:16Z</time>
</trkpt>
<trkpt lat="48.81328197196126" lon="9.422559700906277">
<ele>256</ele>
<time>2024-05-12T12:45:17Z</time>
</trkpt>
<trkpt lat="48.813270488753915" lon="9.422635054215789">
<ele>256</ele>
<time>2024-05-12T12:45:18Z</time>
</trkpt>
<trkpt lat="48.813251461833715" lon="9.422706551849842">
<ele>256</ele>
<time>2024-05-12T12:45:19Z</time>
</trkpt>
<trkpt lat="48.81322857923806" lon="9.422776205465198">
<ele>256</ele>
<time>2024-05-12T12:45:20Z</time>
</trkpt>
<trkpt lat="48.8132056966424" lon="9.422842003405094">
<ele>255.8</ele>
<time>2024-05-12T12:45:21Z</time>
</trkpt>
<trkpt lat="48.81317895837128" lon="9.422898245975375">
<ele>255.8</ele>
<time>2024-05-12T12:45:22Z</time>
</trkpt>
<trkpt lat="48.81315607577562" lon="9.422951638698578">
<ele>255.6</ele>
<time>2024-05-12T12:45:23Z</time>
</trkpt>
<trkpt lat="48.81312179379165" lon="9.423009809106588">
<ele>255.6</ele>
<time>2024-05-12T12:45:24Z</time>
</trkpt>
<trkpt lat="48.813095055520535" lon="9.423069907352328">
<ele>255.6</ele>
<time>2024-05-12T12:45:25Z</time>
</trkpt>
<trkpt lat="48.813056917861104" lon="9.423130005598068">
<ele>255.6</ele>
<time>2024-05-12T12:45:26Z</time>
</trkpt>
<trkpt lat="48.81302640773356" lon="9.42318817600608">
<ele>255.6</ele>
<time>2024-05-12T12:45:27Z</time>
</trkpt>
<trkpt lat="48.81298827007413" lon="9.42324827425182">
<ele>255.6</ele>
<time>2024-05-12T12:45:28Z</time>
</trkpt>
<trkpt lat="48.812957759946585" lon="9.423311222344635">
<ele>255.6</ele>
<time>2024-05-12T12:45:29Z</time>
</trkpt>
<trkpt lat="48.81292339414358" lon="9.423375092446804">
<ele>255.6</ele>
<time>2024-05-12T12:45:30Z</time>
</trkpt>
<trkpt lat="48.81289288401604" lon="9.423435190692544">
<ele>255.8</ele>
<time>2024-05-12T12:45:31Z</time>
</trkpt>
<trkpt lat="48.81286614574492" lon="9.423496210947633">
<ele>255.8</ele>
<time>2024-05-12T12:45:32Z</time>
</trkpt>
<trkpt lat="48.812839491292834" lon="9.423556309193373">
<ele>255.8</ele>
<time>2024-05-12T12:45:33Z</time>
</trkpt>
<trkpt lat="48.812816608697176" lon="9.423616407439113">
<ele>256</ele>
<time>2024-05-12T12:45:34Z</time>
</trkpt>
<trkpt lat="48.81278987042606" lon="9.42368027754128">
<ele>256.2</ele>
<time>2024-05-12T12:45:35Z</time>
</trkpt>
<trkpt lat="48.8127669878304" lon="9.423741297796369">
<ele>256.4</ele>
<time>2024-05-12T12:45:36Z</time>
</trkpt>
<trkpt lat="48.81274410523474" lon="9.423801396042109">
<ele>256.4</ele>
<time>2024-05-12T12:45:37Z</time>
</trkpt>
<trkpt lat="48.81272122263909" lon="9.423861494287848">
<ele>256.6</ele>
<time>2024-05-12T12:45:38Z</time>
</trkpt>
<trkpt lat="48.812698340043426" lon="9.423921508714557">
<ele>256.6</ele>
<time>2024-05-12T12:45:39Z</time>
</trkpt>
<trkpt lat="48.81267545744777" lon="9.423981606960297">
<ele>256.799</ele>
<time>2024-05-12T12:45:40Z</time>
</trkpt>
<trkpt lat="48.81265257485211" lon="9.424036927521229">
<ele>256.799</ele>
<time>2024-05-12T12:45:41Z</time>
</trkpt>
<trkpt lat="48.81263346411288" lon="9.424088476225734">
<ele>256.799</ele>
<time>2024-05-12T12:45:42Z</time>
</trkpt>
<trkpt lat="48.812599182128906" lon="9.424141868948936">
<ele>257</ele>
<time>2024-05-12T12:45:43Z</time>
</trkpt>
<trkpt lat="48.812576215714216" lon="9.42419140599668">
<ele>257.2</ele>
<time>2024-05-12T12:45:44Z</time>
</trkpt>
<trkpt lat="48.81255333311856" lon="9.42425150424242">
<ele>257.2</ele>
<time>2024-05-12T12:45:45Z</time>
</trkpt>
<trkpt lat="48.8125304505229" lon="9.42431160248816">
<ele>257.2</ele>
<time>2024-05-12T12:45:46Z</time>
</trkpt>
<trkpt lat="48.8125114236027" lon="9.4243717007339">
<ele>257.2</ele>
<time>2024-05-12T12:45:47Z</time>
</trkpt>
<trkpt lat="48.81249616853893" lon="9.424425093457105">
<ele>257.4</ele>
<time>2024-05-12T12:45:48Z</time>
</trkpt>
<trkpt lat="48.8124770577997" lon="9.424483263865111">
<ele>257.4</ele>
<time>2024-05-12T12:45:49Z</time>
</trkpt>
<trkpt lat="48.8124580308795" lon="9.424543362110851">
<ele>257.4</ele>
<time>2024-05-12T12:45:50Z</time>
</trkpt>
<trkpt lat="48.81243514828384" lon="9.424606310203671">
<ele>257.4</ele>
<time>2024-05-12T12:45:51Z</time>
</trkpt>
<trkpt lat="48.81240841001272" lon="9.424678729847074">
<ele>257.4</ele>
<time>2024-05-12T12:45:52Z</time>
</trkpt>
<trkpt lat="48.812381671741605" lon="9.42474452778697">
<ele>257.4</ele>
<time>2024-05-12T12:45:53Z</time>
</trkpt>
<trkpt lat="48.812362644821405" lon="9.42480655387044">
<ele>257.4</ele>
<time>2024-05-12T12:45:54Z</time>
</trkpt>
<trkpt lat="48.81233976222575" lon="9.424868579953907">
<ele>257.4</ele>
<time>2024-05-12T12:45:55Z</time>
</trkpt>
<trkpt lat="48.81232065148651" lon="9.42492289468646">
<ele>257.4</ele>
<time>2024-05-12T12:45:56Z</time>
</trkpt>
<trkpt lat="48.81230162456632" lon="9.424980143085122">
<ele>257.2</ele>
<time>2024-05-12T12:45:57Z</time>
</trkpt>
<trkpt lat="48.812282513827085" lon="9.425031607970595">
<ele>257.2</ele>
<time>2024-05-12T12:45:58Z</time>
</trkpt>
<trkpt lat="48.81225963123143" lon="9.4250831566751">
<ele>257.2</ele>
<time>2024-05-12T12:45:59Z</time>
</trkpt>
<trkpt lat="48.81224052049219" lon="9.425136549398305">
<ele>257.4</ele>
<time>2024-05-12T12:46:00Z</time>
</trkpt>
<trkpt lat="48.81221386604011" lon="9.425194719806314">
<ele>257.4</ele>
<time>2024-05-12T12:46:01Z</time>
</trkpt>
<trkpt lat="48.81219098344445" lon="9.425254818052052">
<ele>257.6</ele>
<time>2024-05-12T12:46:02Z</time>
</trkpt>
<trkpt lat="48.81217187270522" lon="9.425312988460064">
<ele>257.6</ele>
<time>2024-05-12T12:46:03Z</time>
</trkpt>
<trkpt lat="48.812145218253136" lon="9.425376858562233">
<ele>257.4</ele>
<time>2024-05-12T12:46:04Z</time>
</trkpt>
<trkpt lat="48.81212233565748" lon="9.425433101132512">
<ele>257.4</ele>
<time>2024-05-12T12:46:05Z</time>
</trkpt>
<trkpt lat="48.81209945306182" lon="9.425491271540524">
<ele>257.4</ele>
<time>2024-05-12T12:46:06Z</time>
</trkpt>
<trkpt lat="48.81207648664713" lon="9.425543742254376">
<ele>257.4</ele>
<time>2024-05-12T12:46:07Z</time>
</trkpt>
<trkpt lat="48.81204983219504" lon="9.425599984824656">
<ele>257.4</ele>
<time>2024-05-12T12:46:08Z</time>
</trkpt>
<trkpt lat="48.812026949599385" lon="9.42565631121397">
<ele>257.4</ele>
<time>2024-05-12T12:46:09Z</time>
</trkpt>
<trkpt lat="48.81200021132827" lon="9.425711631774902">
<ele>257.4</ele>
<time>2024-05-12T12:46:10Z</time>
</trkpt>
<trkpt lat="48.81198118440807" lon="9.425760246813295">
<ele>257.4</ele>
<time>2024-05-12T12:46:11Z</time>
</trkpt>
<trkpt lat="48.81195830181241" lon="9.425800312310455">
<ele>257.4</ele>
<time>2024-05-12T12:46:12Z</time>
</trkpt>
<trkpt lat="48.81193919107318" lon="9.425846999511124">
<ele>257.4</ele>
<time>2024-05-12T12:46:13Z</time>
</trkpt>
<trkpt lat="48.81192016415298" lon="9.425896620377898">
<ele>257.4</ele>
<time>2024-05-12T12:46:14Z</time>
</trkpt>
<trkpt lat="48.81190105341375" lon="9.425943307578564">
<ele>257.4</ele>
<time>2024-05-12T12:46:15Z</time>
</trkpt>
<trkpt lat="48.81188194267452" lon="9.425988150760531">
<ele>257.2</ele>
<time>2024-05-12T12:46:16Z</time>
</trkpt>
<trkpt lat="48.81186291575432" lon="9.42603014409542">
<ele>257.2</ele>
<time>2024-05-12T12:46:17Z</time>
</trkpt>
<trkpt lat="48.81184380501509" lon="9.42607305943966">
<ele>257</ele>
<time>2024-05-12T12:46:18Z</time>
</trkpt>
<trkpt lat="48.81182477809489" lon="9.42611119709909">
<ele>257</ele>
<time>2024-05-12T12:46:19Z</time>
</trkpt>
<trkpt lat="48.81180566735566" lon="9.42615126259625">
<ele>256.799</ele>
<time>2024-05-12T12:46:20Z</time>
</trkpt>
<trkpt lat="48.81178664043546" lon="9.426195099949837">
<ele>256.799</ele>
<time>2024-05-12T12:46:21Z</time>
</trkpt>
<trkpt lat="48.81175990216434" lon="9.426253270357847">
<ele>257</ele>
<time>2024-05-12T12:46:22Z</time>
</trkpt>
<trkpt lat="48.81174087524414" lon="9.426309512928128">
<ele>257</ele>
<time>2024-05-12T12:46:23Z</time>
</trkpt>
<trkpt lat="48.81171790882945" lon="9.42636676132679">
<ele>257.2</ele>
<time>2024-05-12T12:46:24Z</time>
</trkpt>
<trkpt lat="48.81169502623379" lon="9.42642300389707">
<ele>257.2</ele>
<time>2024-05-12T12:46:25Z</time>
</trkpt>
<trkpt lat="48.81167599931359" lon="9.426476396620274">
<ele>257.2</ele>
<time>2024-05-12T12:46:26Z</time>
</trkpt>
<trkpt lat="48.811653116717935" lon="9.42652702331543">
<ele>257.2</ele>
<time>2024-05-12T12:46:27Z</time>
</trkpt>
<trkpt lat="48.81163023412227" lon="9.426571782678366">
<ele>257.4</ele>
<time>2024-05-12T12:46:28Z</time>
</trkpt>
<trkpt lat="48.81160735152662" lon="9.426616625860332">
<ele>257.4</ele>
<time>2024-05-12T12:46:29Z</time>
</trkpt>
<trkpt lat="48.81158824078739" lon="9.42666339688003">
<ele>257.4</ele>
<time>2024-05-12T12:46:30Z</time>
</trkpt>
<trkpt lat="48.81156150251627" lon="9.426714861765504">
<ele>257.4</ele>
<time>2024-05-12T12:46:31Z</time>
</trkpt>
<trkpt lat="48.81154247559607" lon="9.426759704947472">
<ele>257.4</ele>
<time>2024-05-12T12:46:32Z</time>
</trkpt>
<trkpt lat="48.81151959300041" lon="9.426804464310408">
<ele>257.4</ele>
<time>2024-05-12T12:46:33Z</time>
</trkpt>
<trkpt lat="48.811496710404754" lon="9.426853163167834">
<ele>257.4</ele>
<time>2024-05-12T12:46:34Z</time>
</trkpt>
<trkpt lat="48.811473827809095" lon="9.4268998503685">
<ele>257.4</ele>
<time>2024-05-12T12:46:35Z</time>
</trkpt>
<trkpt lat="48.81145857274532" lon="9.42694184370339">
<ele>257.6</ele>
<time>2024-05-12T12:46:36Z</time>
</trkpt>
<trkpt lat="48.81144331768155" lon="9.426986686885355">
<ele>257.6</ele>
<time>2024-05-12T12:46:37Z</time>
</trkpt>
<trkpt lat="48.811416579410434" lon="9.427042007446287">
<ele>257.799</ele>
<time>2024-05-12T12:46:38Z</time>
</trkpt>
<trkpt lat="48.81138984113932" lon="9.427095400169492">
<ele>257.799</ele>
<time>2024-05-12T12:46:39Z</time>
</trkpt>
<trkpt lat="48.81135933101177" lon="9.42715834826231">
<ele>257.799</ele>
<time>2024-05-12T12:46:40Z</time>
</trkpt>
<trkpt lat="48.81132882088423" lon="9.42721651867032">
<ele>257.799</ele>
<time>2024-05-12T12:46:41Z</time>
</trkpt>
<trkpt lat="48.81130593828857" lon="9.427271839231253">
<ele>258</ele>
<time>2024-05-12T12:46:42Z</time>
</trkpt>
<trkpt lat="48.81128305569291" lon="9.427326153963804">
<ele>258</ele>
<time>2024-05-12T12:46:43Z</time>
</trkpt>
<trkpt lat="48.811256401240826" lon="9.427379546687009">
<ele>257.799</ele>
<time>2024-05-12T12:46:44Z</time>
</trkpt>
<trkpt lat="48.81123351864517" lon="9.427438722923398">
<ele>258</ele>
<time>2024-05-12T12:46:45Z</time>
</trkpt>
<trkpt lat="48.81120678037405" lon="9.4274921156466">
<ele>258</ele>
<time>2024-05-12T12:46:46Z</time>
</trkpt>
<trkpt lat="48.81118389777839" lon="9.427543580532074">
<ele>258</ele>
<time>2024-05-12T12:46:47Z</time>
</trkpt>
<trkpt lat="48.81116101518273" lon="9.427588423714042">
<ele>258</ele>
<time>2024-05-12T12:46:48Z</time>
</trkpt>
<trkpt lat="48.811138132587075" lon="9.427630417048931">
<ele>258.2</ele>
<time>2024-05-12T12:46:49Z</time>
</trkpt>
<trkpt lat="48.81111524999142" lon="9.42767333239317">
<ele>258.2</ele>
<time>2024-05-12T12:46:50Z</time>
</trkpt>
<trkpt lat="48.811099994927645" lon="9.427716247737408">
<ele>258.2</ele>
<time>2024-05-12T12:46:51Z</time>
</trkpt>
<trkpt lat="48.811080884188414" lon="9.427755307406189">
<ele>258.2</ele>
<time>2024-05-12T12:46:52Z</time>
</trkpt>
<trkpt lat="48.811061857268214" lon="9.427793445065618">
<ele>258.2</ele>
<time>2024-05-12T12:46:53Z</time>
</trkpt>
<trkpt lat="48.81104274652898" lon="9.427836360409856">
<ele>258.2</ele>
<time>2024-05-12T12:46:54Z</time>
</trkpt>
<trkpt lat="48.811019863933325" lon="9.427883131429551">
<ele>258.2</ele>
<time>2024-05-12T12:46:55Z</time>
</trkpt>
<trkpt lat="48.81099698133767" lon="9.427921269088984">
<ele>258</ele>
<time>2024-05-12T12:46:56Z</time>
</trkpt>
<trkpt lat="48.810981726273894" lon="9.427951779216528">
<ele>258</ele>
<time>2024-05-12T12:46:57Z</time>
</trkpt>
<trkpt lat="48.81096261553466" lon="9.427993772551416">
<ele>258</ele>
<time>2024-05-12T12:46:58Z</time>
</trkpt>
<trkpt lat="48.810943588614464" lon="9.428032832220197">
<ele>258</ele>
<time>2024-05-12T12:46:59Z</time>
</trkpt>
<trkpt lat="48.810920706018806" lon="9.428072897717357">
<ele>258</ele>
<time>2024-05-12T12:47:00Z</time>
</trkpt>
<trkpt lat="48.81089782342315" lon="9.428114891052246">
<ele>258</ele>
<time>2024-05-12T12:47:01Z</time>
</trkpt>
<trkpt lat="48.81087485700846" lon="9.42816543392837">
<ele>258</ele>
<time>2024-05-12T12:47:02Z</time>
</trkpt>
<trkpt lat="48.81084820255637" lon="9.428228298202155">
<ele>258</ele>
<time>2024-05-12T12:47:03Z</time>
</trkpt>
<trkpt lat="48.81082531996071" lon="9.428299879655242">
<ele>258</ele>
<time>2024-05-12T12:47:04Z</time>
</trkpt>
<trkpt lat="48.81080620922148" lon="9.428369449451566">
<ele>258</ele>
<time>2024-05-12T12:47:05Z</time>
</trkpt>
<trkpt lat="48.810783326625824" lon="9.428433403372765">
<ele>258</ele>
<time>2024-05-12T12:47:06Z</time>
</trkpt>
<trkpt lat="48.810760444030166" lon="9.42850012332201">
<ele>257.799</ele>
<time>2024-05-12T12:47:07Z</time>
</trkpt>
<trkpt lat="48.81073756143451" lon="9.428563071414828">
<ele>257.799</ele>
<time>2024-05-12T12:47:08Z</time>
</trkpt>
<trkpt lat="48.81071853451431" lon="9.428625097498298">
<ele>257.6</ele>
<time>2024-05-12T12:47:09Z</time>
</trkpt>
<trkpt lat="48.81069179624319" lon="9.428689889609814">
<ele>257.6</ele>
<time>2024-05-12T12:47:10Z</time>
</trkpt>
<trkpt lat="48.81066891364753" lon="9.428752837702632">
<ele>257.6</ele>
<time>2024-05-12T12:47:11Z</time>
</trkpt>
<trkpt lat="48.810646031051874" lon="9.42881679162383">
<ele>257.6</ele>
<time>2024-05-12T12:47:12Z</time>
</trkpt>
<trkpt lat="48.810623148456216" lon="9.428883511573076">
<ele>257.799</ele>
<time>2024-05-12T12:47:13Z</time>
</trkpt>
<trkpt lat="48.81060026586056" lon="9.428951237350702">
<ele>257.799</ele>
<time>2024-05-12T12:47:14Z</time>
</trkpt>
<trkpt lat="48.810581155121326" lon="9.429017957299948">
<ele>257.799</ele>
<time>2024-05-12T12:47:15Z</time>
</trkpt>
<trkpt lat="48.81056212820113" lon="9.429088532924652">
<ele>257.799</ele>
<time>2024-05-12T12:47:16Z</time>
</trkpt>
<trkpt lat="48.810546873137355" lon="9.429160114377735">
<ele>257.799</ele>
<time>2024-05-12T12:47:17Z</time>
</trkpt>
<trkpt lat="48.810523906722665" lon="9.429236389696598">
<ele>257.799</ele>
<time>2024-05-12T12:47:18Z</time>
</trkpt>
<trkpt lat="48.810504879802465" lon="9.42930981516838">
<ele>258</ele>
<time>2024-05-12T12:47:19Z</time>
</trkpt>
<trkpt lat="48.810485769063234" lon="9.429381312802434">
<ele>258</ele>
<time>2024-05-12T12:47:20Z</time>
</trkpt>
<trkpt lat="48.81047051399946" lon="9.429454738274217">
<ele>258.2</ele>
<time>2024-05-12T12:47:21Z</time>
</trkpt>
<trkpt lat="48.81045525893569" lon="9.429526319727302">
<ele>258.2</ele>
<time>2024-05-12T12:47:22Z</time>
</trkpt>
<trkpt lat="48.81044000387192" lon="9.429599745199084">
<ele>258.2</ele>
<time>2024-05-12T12:47:23Z</time>
</trkpt>
<trkpt lat="48.810424748808146" lon="9.429670320823789">
<ele>258.2</ele>
<time>2024-05-12T12:47:24Z</time>
</trkpt>
<trkpt lat="48.81041334941983" lon="9.429741818457842">
<ele>258.2</ele>
<time>2024-05-12T12:47:25Z</time>
</trkpt>
<trkpt lat="48.81039809435606" lon="9.429811472073196">
<ele>258.2</ele>
<time>2024-05-12T12:47:26Z</time>
</trkpt>
<trkpt lat="48.81038283929229" lon="9.429882047697902">
<ele>257.799</ele>
<time>2024-05-12T12:47:27Z</time>
</trkpt>
<trkpt lat="48.81037135608494" lon="9.429951617494226">
<ele>257.6</ele>
<time>2024-05-12T12:47:28Z</time>
</trkpt>
<trkpt lat="48.8103598728776" lon="9.43002127110958">
<ele>257.4</ele>
<time>2024-05-12T12:47:29Z</time>
</trkpt>
<trkpt lat="48.810344617813826" lon="9.430091846734284">
<ele>257.4</ele>
<time>2024-05-12T12:47:30Z</time>
</trkpt>
<trkpt lat="48.81033321842551" lon="9.43015856668353">
<ele>257.2</ele>
<time>2024-05-12T12:47:31Z</time>
</trkpt>
<trkpt lat="48.81032173521817" lon="9.430225370451808">
<ele>257.2</ele>
<time>2024-05-12T12:47:32Z</time>
</trkpt>
<trkpt lat="48.810310335829854" lon="9.430292090401052">
<ele>257.2</ele>
<time>2024-05-12T12:47:33Z</time>
</trkpt>
<trkpt lat="48.81029508076608" lon="9.430361744016407">
<ele>257.2</ele>
<time>2024-05-12T12:47:34Z</time>
</trkpt>
<trkpt lat="48.81028359755874" lon="9.430428463965654">
<ele>257.2</ele>
<time>2024-05-12T12:47:35Z</time>
</trkpt>
<trkpt lat="48.81027219817042" lon="9.4304951839149">
<ele>257.2</ele>
<time>2024-05-12T12:47:36Z</time>
</trkpt>
<trkpt lat="48.81026457063854" lon="9.430561987683175">
<ele>257</ele>
<time>2024-05-12T12:47:37Z</time>
</trkpt>
<trkpt lat="48.81025308743119" lon="9.430624935775995">
<ele>257</ele>
<time>2024-05-12T12:47:38Z</time>
</trkpt>
<trkpt lat="48.810245459899306" lon="9.430686878040431">
<ele>257</ele>
<time>2024-05-12T12:47:39Z</time>
</trkpt>
<trkpt lat="48.81023406051099" lon="9.430745048448443">
<ele>257</ele>
<time>2024-05-12T12:47:40Z</time>
</trkpt>
<trkpt lat="48.81022643297911" lon="9.430807996541262">
<ele>257</ele>
<time>2024-05-12T12:47:41Z</time>
</trkpt>
<trkpt lat="48.81021494977176" lon="9.43087195046246">
<ele>257</ele>
<time>2024-05-12T12:47:42Z</time>
</trkpt>
<trkpt lat="48.81020355038345" lon="9.430936742573977">
<ele>257</ele>
<time>2024-05-12T12:47:43Z</time>
</trkpt>
<trkpt lat="48.810188211500645" lon="9.430999690666797">
<ele>257</ele>
<time>2024-05-12T12:47:44Z</time>
</trkpt>
<trkpt lat="48.81017681211233" lon="9.431066494435072">
<ele>257</ele>
<time>2024-05-12T12:47:45Z</time>
</trkpt>
<trkpt lat="48.8101577013731" lon="9.43113036453724">
<ele>257.2</ele>
<time>2024-05-12T12:47:46Z</time>
</trkpt>
<trkpt lat="48.81014244630933" lon="9.431191384792328">
<ele>257.2</ele>
<time>2024-05-12T12:47:47Z</time>
</trkpt>
<trkpt lat="48.81012719124555" lon="9.431249555200338">
<ele>257.2</ele>
<time>2024-05-12T12:47:48Z</time>
</trkpt>
<trkpt lat="48.81010816432536" lon="9.43130487576127">
<ele>257.2</ele>
<time>2024-05-12T12:47:49Z</time>
</trkpt>
<trkpt lat="48.81009668111801" lon="9.43136304616928">
<ele>257.4</ele>
<time>2024-05-12T12:47:50Z</time>
</trkpt>
<trkpt lat="48.81008142605424" lon="9.43142507225275">
<ele>257.6</ele>
<time>2024-05-12T12:47:51Z</time>
</trkpt>
<trkpt lat="48.810070026665926" lon="9.431481314823031">
<ele>257.6</ele>
<time>2024-05-12T12:47:52Z</time>
</trkpt>
<trkpt lat="48.81006239913404" lon="9.431536635383964">
<ele>257.799</ele>
<time>2024-05-12T12:47:53Z</time>
</trkpt>
<trkpt lat="48.81004714407027" lon="9.431583322584627">
<ele>257.799</ele>
<time>2024-05-12T12:47:54Z</time>
</trkpt>
<trkpt lat="48.81002803333104" lon="9.431646270677447">
<ele>257.799</ele>
<time>2024-05-12T12:47:55Z</time>
</trkpt>
<trkpt lat="48.810012778267264" lon="9.431699747219682">
<ele>258</ele>
<time>2024-05-12T12:47:56Z</time>
</trkpt>
<trkpt lat="48.80999366752803" lon="9.43175976164639">
<ele>258</ele>
<time>2024-05-12T12:47:57Z</time>
</trkpt>
<trkpt lat="48.809974640607834" lon="9.431813238188624">
<ele>258</ele>
<time>2024-05-12T12:47:58Z</time>
</trkpt>
<trkpt lat="48.8099555298686" lon="9.431868474930525">
<ele>258</ele>
<time>2024-05-12T12:47:59Z</time>
</trkpt>
<trkpt lat="48.80994027480483" lon="9.431922873482108">
<ele>258</ele>
<time>2024-05-12T12:48:00Z</time>
</trkpt>
<trkpt lat="48.80992501974106" lon="9.431973416358232">
<ele>257.799</ele>
<time>2024-05-12T12:48:01Z</time>
</trkpt>
<trkpt lat="48.8099021371454" lon="9.432029658928514">
<ele>257.799</ele>
<time>2024-05-12T12:48:02Z</time>
</trkpt>
<trkpt lat="48.8098831102252" lon="9.432080201804638">
<ele>257.799</ele>
<time>2024-05-12T12:48:03Z</time>
</trkpt>
<trkpt lat="48.80986785516143" lon="9.432118339464068">
<ele>257.799</ele>
<time>2024-05-12T12:48:04Z</time>
</trkpt>
<trkpt lat="48.8098487444222" lon="9.432163182646036">
<ele>257.799</ele>
<time>2024-05-12T12:48:05Z</time>
</trkpt>
<trkpt lat="48.80982586182654" lon="9.43221473135054">
<ele>257.799</ele>
<time>2024-05-12T12:48:06Z</time>
</trkpt>
<trkpt lat="48.80980675108731" lon="9.432266196236014">
<ele>257.6</ele>
<time>2024-05-12T12:48:07Z</time>
</trkpt>
<trkpt lat="48.80978386849165" lon="9.432318666949868">
<ele>257.6</ele>
<time>2024-05-12T12:48:08Z</time>
</trkpt>
<trkpt lat="48.809753358364105" lon="9.432363510131836">
<ele>257.4</ele>
<time>2024-05-12T12:48:09Z</time>
</trkpt>
<trkpt lat="48.80972284823656" lon="9.4324101973325">
<ele>257.4</ele>
<time>2024-05-12T12:48:10Z</time>
</trkpt>
<trkpt lat="48.809696193784475" lon="9.432444563135505">
<ele>257.2</ele>
<time>2024-05-12T12:48:11Z</time>
</trkpt>
<trkpt lat="48.8096655998379" lon="9.432488400489092">
<ele>257.2</ele>
<time>2024-05-12T12:48:12Z</time>
</trkpt>
<trkpt lat="48.809635089710355" lon="9.432528465986252">
<ele>257.2</ele>
<time>2024-05-12T12:48:13Z</time>
</trkpt>
<trkpt lat="48.80960843525827" lon="9.432568531483412">
<ele>257.2</ele>
<time>2024-05-12T12:48:14Z</time>
</trkpt>
<trkpt lat="48.809577925130725" lon="9.432616224512458">
<ele>257</ele>
<time>2024-05-12T12:48:15Z</time>
</trkpt>
<trkpt lat="48.809539787471294" lon="9.432676238939166">
<ele>257</ele>
<time>2024-05-12T12:48:16Z</time>
</trkpt>
<trkpt lat="48.80950542166829" lon="9.432733487337828">
<ele>257</ele>
<time>2024-05-12T12:48:17Z</time>
</trkpt>
<trkpt lat="48.80946728400886" lon="9.432789729908109">
<ele>257</ele>
<time>2024-05-12T12:48:18Z</time>
</trkpt>
<trkpt lat="48.80943677388131" lon="9.432840272784231">
<ele>257</ele>
<time>2024-05-12T12:48:19Z</time>
</trkpt>
<trkpt lat="48.80940240807831" lon="9.432883188128471">
<ele>257.2</ele>
<time>2024-05-12T12:48:20Z</time>
</trkpt>
<trkpt lat="48.80937189795077" lon="9.43292610347271">
<ele>257.2</ele>
<time>2024-05-12T12:48:21Z</time>
</trkpt>
<trkpt lat="48.809341387823224" lon="9.432963319122791">
<ele>257.2</ele>
<time>2024-05-12T12:48:22Z</time>
</trkpt>
<trkpt lat="48.809303250163794" lon="9.43300531245768">
<ele>257.4</ele>
<time>2024-05-12T12:48:23Z</time>
</trkpt>
<trkpt lat="48.80926888436079" lon="9.43304822780192">
<ele>257.4</ele>
<time>2024-05-12T12:48:24Z</time>
</trkpt>
<trkpt lat="48.80923460237682" lon="9.433094915002584">
<ele>257.4</ele>
<time>2024-05-12T12:48:25Z</time>
</trkpt>
<trkpt lat="48.80919646471739" lon="9.43314453586936">
<ele>257.4</ele>
<time>2024-05-12T12:48:26Z</time>
</trkpt>
<trkpt lat="48.809162098914385" lon="9.433197006583214">
<ele>257.4</ele>
<time>2024-05-12T12:48:27Z</time>
</trkpt>
<trkpt lat="48.809123961254954" lon="9.433248471468689">
<ele>257.4</ele>
<time>2024-05-12T12:48:28Z</time>
</trkpt>
<trkpt lat="48.80908959545195" lon="9.433306641876698">
<ele>257.2</ele>
<time>2024-05-12T12:48:29Z</time>
</trkpt>
<trkpt lat="48.80905145779252" lon="9.433364812284708">
<ele>257.2</ele>
<time>2024-05-12T12:48:30Z</time>
</trkpt>
<trkpt lat="48.80901332013309" lon="9.43342013284564">
<ele>257.2</ele>
<time>2024-05-12T12:48:31Z</time>
</trkpt>
<trkpt lat="48.80897895433009" lon="9.433474531397223">
<ele>257</ele>
<time>2024-05-12T12:48:32Z</time>
</trkpt>
<trkpt lat="48.80894844420254" lon="9.433523146435618">
<ele>257</ele>
<time>2024-05-12T12:48:33Z</time>
</trkpt>
<trkpt lat="48.80891416221857" lon="9.433565139770508">
<ele>257</ele>
<time>2024-05-12T12:48:34Z</time>
</trkpt>
<trkpt lat="48.808883652091026" lon="9.433611826971172">
<ele>256.799</ele>
<time>2024-05-12T12:48:35Z</time>
</trkpt>
<trkpt lat="48.808868397027254" lon="9.433629931882024">
<ele>256.799</ele>
<time>2024-05-12T12:48:36Z</time>
</trkpt>
<trkpt lat="48.80884165875614" lon="9.433645186945796">
<ele>256.799</ele>
<time>2024-05-12T12:48:37Z</time>
</trkpt>
<trkpt lat="48.80881877616048" lon="9.4336967356503">
<ele>256.799</ele>
<time>2024-05-12T12:48:38Z</time>
</trkpt>
<trkpt lat="48.808788266032934" lon="9.433752056211231">
<ele>256.799</ele>
<time>2024-05-12T12:48:39Z</time>
</trkpt>
<trkpt lat="48.80876538343728" lon="9.43381684832275">
<ele>256.799</ele>
<time>2024-05-12T12:48:40Z</time>
</trkpt>
<trkpt lat="48.80874250084162" lon="9.433904606848955">
<ele>257</ele>
<time>2024-05-12T12:48:41Z</time>
</trkpt>
<trkpt lat="48.8087157625705" lon="9.433984737843277">
<ele>257</ele>
<time>2024-05-12T12:48:42Z</time>
</trkpt>
<trkpt lat="48.808689108118415" lon="9.434089595451953">
<ele>257</ele>
<time>2024-05-12T12:48:43Z</time>
</trkpt>
<trkpt lat="48.8086623698473" lon="9.434181209653616">
<ele>257</ele>
<time>2024-05-12T12:48:44Z</time>
</trkpt>
<trkpt lat="48.80863948725164" lon="9.434271734207869">
<ele>257</ele>
<time>2024-05-12T12:48:45Z</time>
</trkpt>
<trkpt lat="48.80862037651241" lon="9.434361420571804">
<ele>257</ele>
<time>2024-05-12T12:48:46Z</time>
</trkpt>
<trkpt lat="48.80860134959221" lon="9.434452028945088">
<ele>257</ele>
<time>2024-05-12T12:48:47Z</time>
</trkpt>
<trkpt lat="48.80857846699655" lon="9.434539787471294">
<ele>257</ele>
<time>2024-05-12T12:48:48Z</time>
</trkpt>
<trkpt lat="48.80855935625732" lon="9.43462461233139">
<ele>257</ele>
<time>2024-05-12T12:48:49Z</time>
</trkpt>
<trkpt lat="48.80853647366166" lon="9.434713292866943">
<ele>256.799</ele>
<time>2024-05-12T12:48:50Z</time>
</trkpt>
<trkpt lat="48.80852507427335" lon="9.434796273708344">
<ele>256.6</ele>
<time>2024-05-12T12:48:51Z</time>
</trkpt>
<trkpt lat="48.808509819209576" lon="9.434873554855583">
<ele>256.4</ele>
<time>2024-05-12T12:48:52Z</time>
</trkpt>
<trkpt lat="48.8084945641458" lon="9.434947902336717">
<ele>256.2</ele>
<time>2024-05-12T12:48:53Z</time>
</trkpt>
<trkpt lat="48.80847930908203" lon="9.43501847796142">
<ele>256</ele>
<time>2024-05-12T12:48:54Z</time>
</trkpt>
<trkpt lat="48.808467825874686" lon="9.435090059414506">
<ele>256</ele>
<time>2024-05-12T12:48:55Z</time>
</trkpt>
<trkpt lat="48.80845634266734" lon="9.43515962921083">
<ele>255.8</ele>
<time>2024-05-12T12:48:56Z</time>
</trkpt>
<trkpt lat="48.80844494327903" lon="9.435228276997805">
<ele>255.6</ele>
<time>2024-05-12T12:48:57Z</time>
</trkpt>
<trkpt lat="48.80843346007168" lon="9.435295080766082">
<ele>255.6</ele>
<time>2024-05-12T12:48:58Z</time>
</trkpt>
<trkpt lat="48.80841820500791" lon="9.435364650562406">
<ele>255.4</ele>
<time>2024-05-12T12:48:59Z</time>
</trkpt>
<trkpt lat="48.80839917808771" lon="9.435429526492952">
<ele>255.4</ele>
<time>2024-05-12T12:49:00Z</time>
</trkpt>
<trkpt lat="48.80837629549205" lon="9.43549339659512">
<ele>255.2</ele>
<time>2024-05-12T12:49:01Z</time>
</trkpt>
<trkpt lat="48.80834578536451" lon="9.435546873137357">
<ele>255.2</ele>
<time>2024-05-12T12:49:02Z</time>
</trkpt>
<trkpt lat="48.808311419561505" lon="9.435583082959056">
<ele>255.2</ele>
<time>2024-05-12T12:49:03Z</time>
</trkpt>
<trkpt lat="48.80826565437019" lon="9.435600265860558">
<ele>255.2</ele>
<time>2024-05-12T12:49:04Z</time>
</trkpt>
<trkpt lat="48.80821988917887" lon="9.4355964101851">
<ele>255.2</ele>
<time>2024-05-12T12:49:05Z</time>
</trkpt>
<trkpt lat="48.80817789584398" lon="9.435580233111978">
<ele>255</ele>
<time>2024-05-12T12:49:06Z</time>
</trkpt>
<trkpt lat="48.80813975818455" lon="9.435549722984431">
<ele>255</ele>
<time>2024-05-12T12:49:07Z</time>
</trkpt>
<trkpt lat="48.80810162052512" lon="9.435522984713316">
<ele>255</ele>
<time>2024-05-12T12:49:08Z</time>
</trkpt>
<trkpt lat="48.80806725472212" lon="9.435502951964736">
<ele>255</ele>
<time>2024-05-12T12:49:09Z</time>
</trkpt>
<trkpt lat="48.808036744594574" lon="9.435480069369078">
<ele>255</ele>
<time>2024-05-12T12:49:10Z</time>
</trkpt>
<trkpt lat="48.80800623446703" lon="9.435451487079265">
<ele>255</ele>
<time>2024-05-12T12:49:11Z</time>
</trkpt>
<trkpt lat="48.807975724339485" lon="9.435429526492952">
<ele>255</ele>
<time>2024-05-12T12:49:12Z</time>
</trkpt>
<trkpt lat="48.80794135853648" lon="9.435424748808146">
<ele>255</ele>
<time>2024-05-12T12:49:13Z</time>
</trkpt>
<trkpt lat="48.80790322087705" lon="9.435438076034188">
<ele>255</ele>
<time>2024-05-12T12:49:14Z</time>
</trkpt>
<trkpt lat="48.80787271074951" lon="9.43547336384654">
<ele>255</ele>
<time>2024-05-12T12:49:15Z</time>
</trkpt>
<trkpt lat="48.80784982815385" lon="9.435522984713316">
<ele>255</ele>
<time>2024-05-12T12:49:16Z</time>
</trkpt>
<trkpt lat="48.80783080123365" lon="9.435581155121326">
<ele>255.2</ele>
<time>2024-05-12T12:49:17Z</time>
</trkpt>
<trkpt lat="48.80781169049442" lon="9.435641253367066">
<ele>255.2</ele>
<time>2024-05-12T12:49:18Z</time>
</trkpt>
<trkpt lat="48.80779266357422" lon="9.435701351612806">
<ele>255.2</ele>
<time>2024-05-12T12:49:19Z</time>
</trkpt>
<trkpt lat="48.80777355283499" lon="9.435763293877244">
<ele>255.2</ele>
<time>2024-05-12T12:49:20Z</time>
</trkpt>
<trkpt lat="48.807758297771215" lon="9.435825319960712">
<ele>255.2</ele>
<time>2024-05-12T12:49:21Z</time>
</trkpt>
<trkpt lat="48.807739187031984" lon="9.435886340215802">
<ele>255.2</ele>
<time>2024-05-12T12:49:22Z</time>
</trkpt>
<trkpt lat="48.807716304436326" lon="9.435948366299272">
<ele>255.2</ele>
<time>2024-05-12T12:49:23Z</time>
</trkpt>
<trkpt lat="48.80769342184067" lon="9.43601131439209">
<ele>255.2</ele>
<time>2024-05-12T12:49:24Z</time>
</trkpt>
<trkpt lat="48.80767053924501" lon="9.436075184494255">
<ele>255.4</ele>
<time>2024-05-12T12:49:25Z</time>
</trkpt>
<trkpt lat="48.80765151232481" lon="9.436138132587075">
<ele>255.4</ele>
<time>2024-05-12T12:49:26Z</time>
</trkpt>
<trkpt lat="48.80762862972915" lon="9.436202002689242">
<ele>255.6</ele>
<time>2024-05-12T12:49:27Z</time>
</trkpt>
<trkpt lat="48.80760951898992" lon="9.43626495078206">
<ele>255.6</ele>
<time>2024-05-12T12:49:28Z</time>
</trkpt>
<trkpt lat="48.80758663639426" lon="9.43632789887488">
<ele>255.8</ele>
<time>2024-05-12T12:49:29Z</time>
</trkpt>
<trkpt lat="48.80756752565503" lon="9.436391768977046">
<ele>256</ele>
<time>2024-05-12T12:49:30Z</time>
</trkpt>
<trkpt lat="48.80754849873483" lon="9.436452789232137">
<ele>256.2</ele>
<time>2024-05-12T12:49:31Z</time>
</trkpt>
<trkpt lat="48.8075293879956" lon="9.436516743153334">
<ele>256.2</ele>
<time>2024-05-12T12:49:32Z</time>
</trkpt>
<trkpt lat="48.8075103610754" lon="9.436579691246152">
<ele>256.2</ele>
<time>2024-05-12T12:49:33Z</time>
</trkpt>
<trkpt lat="48.80749510601163" lon="9.43663970567286">
<ele>256.4</ele>
<time>2024-05-12T12:49:34Z</time>
</trkpt>
<trkpt lat="48.8074759952724" lon="9.436704581603408">
<ele>256.4</ele>
<time>2024-05-12T12:49:35Z</time>
</trkpt>
<trkpt lat="48.807460740208626" lon="9.436770379543304">
<ele>256.4</ele>
<time>2024-05-12T12:49:36Z</time>
</trkpt>
<trkpt lat="48.80744934082031" lon="9.43683810532093">
<ele>256.4</ele>
<time>2024-05-12T12:49:37Z</time>
</trkpt>
<trkpt lat="48.807441629469395" lon="9.436902981251478">
<ele>256.4</ele>
<time>2024-05-12T12:49:38Z</time>
</trkpt>
<trkpt lat="48.80743400193751" lon="9.436967773362994">
<ele>256.4</ele>
<time>2024-05-12T12:49:39Z</time>
</trkpt>
<trkpt lat="48.80742637440562" lon="9.437029799446464">
<ele>256.4</ele>
<time>2024-05-12T12:49:40Z</time>
</trkpt>
<trkpt lat="48.807418746873736" lon="9.437094675377011">
<ele>256.4</ele>
<time>2024-05-12T12:49:41Z</time>
</trkpt>
<trkpt lat="48.80741111934185" lon="9.437161395326257">
<ele>256.2</ele>
<time>2024-05-12T12:49:42Z</time>
</trkpt>
<trkpt lat="48.80740349180997" lon="9.437226271256804">
<ele>256.2</ele>
<time>2024-05-12T12:49:43Z</time>
</trkpt>
<trkpt lat="48.80739586427808" lon="9.437290141358972">
<ele>256.2</ele>
<time>2024-05-12T12:49:44Z</time>
</trkpt>
<trkpt lat="48.80739209242165" lon="9.437356945127249">
<ele>256.2</ele>
<time>2024-05-12T12:49:45Z</time>
</trkpt>
<trkpt lat="48.80738823674619" lon="9.437424587085845">
<ele>256.2</ele>
<time>2024-05-12T12:49:46Z</time>
</trkpt>
<trkpt lat="48.807380609214306" lon="9.437496168538928">
<ele>256.2</ele>
<time>2024-05-12T12:49:47Z</time>
</trkpt>
<trkpt lat="48.80737683735788" lon="9.43756858818233">
<ele>256.2</ele>
<time>2024-05-12T12:49:48Z</time>
</trkpt>
<trkpt lat="48.80737298168242" lon="9.437640169635417">
<ele>256.2</ele>
<time>2024-05-12T12:49:49Z</time>
</trkpt>
<trkpt lat="48.80737298168242" lon="9.437713595107198">
<ele>256.2</ele>
<time>2024-05-12T12:49:50Z</time>
</trkpt>
<trkpt lat="48.80737298168242" lon="9.437785092741253">
<ele>256.2</ele>
<time>2024-05-12T12:49:51Z</time>
</trkpt>
<trkpt lat="48.80737683735788" lon="9.437858518213034">
<ele>256.2</ele>
<time>2024-05-12T12:49:52Z</time>
</trkpt>
<trkpt lat="48.807380609214306" lon="9.437931943684816">
<ele>256.2</ele>
<time>2024-05-12T12:49:53Z</time>
</trkpt>
<trkpt lat="48.807384464889765" lon="9.4380053691566">
<ele>256.4</ele>
<time>2024-05-12T12:49:54Z</time>
</trkpt>
<trkpt lat="48.80738823674619" lon="9.438079800456762">
<ele>256.4</ele>
<time>2024-05-12T12:49:55Z</time>
</trkpt>
<trkpt lat="48.80739586427808" lon="9.438155153766274">
<ele>256.4</ele>
<time>2024-05-12T12:49:56Z</time>
</trkpt>
<trkpt lat="48.80739971995354" lon="9.438228579238055">
<ele>256.4</ele>
<time>2024-05-12T12:49:57Z</time>
</trkpt>
<trkpt lat="48.80740349180997" lon="9.438295299187304">
<ele>256.6</ele>
<time>2024-05-12T12:49:58Z</time>
</trkpt>
<trkpt lat="48.80740734748542" lon="9.438356319442391">
<ele>256.6</ele>
<time>2024-05-12T12:49:59Z</time>
</trkpt>
<trkpt lat="48.80741111934185" lon="9.43842119537294">
<ele>256.6</ele>
<time>2024-05-12T12:50:00Z</time>
</trkpt>
<trkpt lat="48.807422602549195" lon="9.438486993312836">
<ele>256.799</ele>
<time>2024-05-12T12:50:01Z</time>
</trkpt>
<trkpt lat="48.807441629469395" lon="9.438547091558576">
<ele>256.799</ele>
<time>2024-05-12T12:50:02Z</time>
</trkpt>
<trkpt lat="48.80746836774051" lon="9.438596712425351">
<ele>257</ele>
<time>2024-05-12T12:50:03Z</time>
</trkpt>
<trkpt lat="48.807502733543515" lon="9.438638621941209">
<ele>257.2</ele>
<time>2024-05-12T12:50:04Z</time>
</trkpt>
<trkpt lat="48.80753701552749" lon="9.438678687438369">
<ele>257.2</ele>
<time>2024-05-12T12:50:05Z</time>
</trkpt>
<trkpt lat="48.80757138133049" lon="9.4387168250978">
<ele>257.4</ele>
<time>2024-05-12T12:50:06Z</time>
</trkpt>
<trkpt lat="48.80760566331446" lon="9.438763596117496">
<ele>257.4</ele>
<time>2024-05-12T12:50:07Z</time>
</trkpt>
<trkpt lat="48.80763240158558" lon="9.4388169888407">
<ele>257.6</ele>
<time>2024-05-12T12:50:08Z</time>
</trkpt>
<trkpt lat="48.80764765664935" lon="9.438881864771249">
<ele>257.6</ele>
<time>2024-05-12T12:50:09Z</time>
</trkpt>
<trkpt lat="48.80765151232481" lon="9.4389533624053">
<ele>257.6</ele>
<time>2024-05-12T12:50:10Z</time>
</trkpt>
<trkpt lat="48.80765151232481" lon="9.439026787877085">
<ele>257.6</ele>
<time>2024-05-12T12:50:11Z</time>
</trkpt>
<trkpt lat="48.80765151232481" lon="9.439100213348866">
<ele>257.6</ele>
<time>2024-05-12T12:50:12Z</time>
</trkpt>
<trkpt lat="48.80765151232481" lon="9.439174644649029">
<ele>257.4</ele>
<time>2024-05-12T12:50:13Z</time>
</trkpt>
<trkpt lat="48.80764765664935" lon="9.43924991413951">
<ele>257.4</ele>
<time>2024-05-12T12:50:14Z</time>
</trkpt>
<trkpt lat="48.807640029117465" lon="9.439321495592594">
<ele>257.2</ele>
<time>2024-05-12T12:50:15Z</time>
</trkpt>
<trkpt lat="48.80763240158558" lon="9.439392993226647">
<ele>257.2</ele>
<time>2024-05-12T12:50:16Z</time>
</trkpt>
<trkpt lat="48.80762477405369" lon="9.439463568851352">
<ele>257.2</ele>
<time>2024-05-12T12:50:17Z</time>
</trkpt>
<trkpt lat="48.80761714652181" lon="9.439531294628978">
<ele>257</ele>
<time>2024-05-12T12:50:18Z</time>
</trkpt>
<trkpt lat="48.80760566331446" lon="9.439596170559524">
<ele>257</ele>
<time>2024-05-12T12:50:19Z</time>
</trkpt>
<trkpt lat="48.807598035782576" lon="9.4396648183465">
<ele>256.799</ele>
<time>2024-05-12T12:50:20Z</time>
</trkpt>
<trkpt lat="48.80758663639426" lon="9.439735393971205">
<ele>256.799</ele>
<time>2024-05-12T12:50:21Z</time>
</trkpt>
<trkpt lat="48.8075827807188" lon="9.439804963767529">
<ele>256.799</ele>
<time>2024-05-12T12:50:22Z</time>
</trkpt>
<trkpt lat="48.80757515318692" lon="9.439876545220612">
<ele>256.6</ele>
<time>2024-05-12T12:50:23Z</time>
</trkpt>
<trkpt lat="48.80757138133049" lon="9.439948042854668">
<ele>256.6</ele>
<time>2024-05-12T12:50:24Z</time>
</trkpt>
<trkpt lat="48.80756375379861" lon="9.440018618479373">
<ele>256.6</ele>
<time>2024-05-12T12:50:25Z</time>
</trkpt>
<trkpt lat="48.807559898123145" lon="9.440090116113424">
<ele>256.6</ele>
<time>2024-05-12T12:50:26Z</time>
</trkpt>
<trkpt lat="48.80755227059126" lon="9.440163541585209">
<ele>256.6</ele>
<time>2024-05-12T12:50:27Z</time>
</trkpt>
<trkpt lat="48.807540871202946" lon="9.44023696705699">
<ele>256.6</ele>
<time>2024-05-12T12:50:28Z</time>
</trkpt>
<trkpt lat="48.80753324367106" lon="9.440308548510076">
<ele>256.6</ele>
<time>2024-05-12T12:50:29Z</time>
</trkpt>
<trkpt lat="48.8075293879956" lon="9.44037526845932">
<ele>256.6</ele>
<time>2024-05-12T12:50:30Z</time>
</trkpt>
<trkpt lat="48.807521760463715" lon="9.440442072227595">
<ele>256.4</ele>
<time>2024-05-12T12:50:31Z</time>
</trkpt>
<trkpt lat="48.80751413293183" lon="9.440506864339111">
<ele>256.4</ele>
<time>2024-05-12T12:50:32Z</time>
</trkpt>
<trkpt lat="48.80750650539994" lon="9.440566962584851">
<ele>256.2</ele>
<time>2024-05-12T12:50:33Z</time>
</trkpt>
<trkpt lat="48.807498877868056" lon="9.440627982839942">
<ele>256</ele>
<time>2024-05-12T12:50:34Z</time>
</trkpt>
<trkpt lat="48.80748747847974" lon="9.440685231238604">
<ele>256</ele>
<time>2024-05-12T12:50:35Z</time>
</trkpt>
<trkpt lat="48.8074759952724" lon="9.440741473808885">
<ele>256</ele>
<time>2024-05-12T12:50:36Z</time>
</trkpt>
<trkpt lat="48.807460740208626" lon="9.440794866532087">
<ele>256</ele>
<time>2024-05-12T12:50:37Z</time>
</trkpt>
<trkpt lat="48.807441629469395" lon="9.440845409408212">
<ele>256</ele>
<time>2024-05-12T12:50:38Z</time>
</trkpt>
<trkpt lat="48.80742637440562" lon="9.44089125841856">
<ele>256</ele>
<time>2024-05-12T12:50:39Z</time>
</trkpt>
<trkpt lat="48.80741111934185" lon="9.440937023609877">
<ele>256.2</ele>
<time>2024-05-12T12:50:40Z</time>
</trkpt>
<trkpt lat="48.80738823674619" lon="9.440981782972813">
<ele>256.2</ele>
<time>2024-05-12T12:50:41Z</time>
</trkpt>
<trkpt lat="48.80737298168242" lon="9.441020004451277">
<ele>256.2</ele>
<time>2024-05-12T12:50:42Z</time>
</trkpt>
<trkpt lat="48.80735009908676" lon="9.441055292263629">
<ele>256.2</ele>
<time>2024-05-12T12:50:43Z</time>
</trkpt>
<trkpt lat="48.8073272164911" lon="9.4410895742476">
<ele>256.2</ele>
<time>2024-05-12T12:50:44Z</time>
</trkpt>
<trkpt lat="48.807308189570904" lon="9.441122012212873">
<ele>256.2</ele>
<time>2024-05-12T12:50:45Z</time>
</trkpt>
<trkpt lat="48.807285306975245" lon="9.44114875048399">
<ele>256.2</ele>
<time>2024-05-12T12:50:46Z</time>
</trkpt>
<trkpt lat="48.80726996809244" lon="9.441173477098346">
<ele>256.2</ele>
<time>2024-05-12T12:50:47Z</time>
</trkpt>
<trkpt lat="48.80725094117224" lon="9.441196359694004">
<ele>256.2</ele>
<time>2024-05-12T12:50:48Z</time>
</trkpt>
<trkpt lat="48.80723183043301" lon="9.441218320280312">
<ele>256.2</ele>
<time>2024-05-12T12:50:49Z</time>
</trkpt>
<trkpt lat="48.80721280351281" lon="9.441236425191164">
<ele>256.4</ele>
<time>2024-05-12T12:50:50Z</time>
</trkpt>
<trkpt lat="48.80718992091715" lon="9.44124505855143">
<ele>256.4</ele>
<time>2024-05-12T12:50:51Z</time>
</trkpt>
<trkpt lat="48.80717081017792" lon="9.441241202875972">
<ele>256.4</ele>
<time>2024-05-12T12:50:52Z</time>
</trkpt>
<trkpt lat="48.80714415572584" lon="9.441211698576808">
<ele>256.4</ele>
<time>2024-05-12T12:50:53Z</time>
</trkpt>
<trkpt lat="48.807128900662065" lon="9.441194515675306">
<ele>256.6</ele>
<time>2024-05-12T12:50:54Z</time>
</trkpt>
<trkpt lat="48.80710978992283" lon="9.44114875048399">
<ele>256.6</ele>
<time>2024-05-12T12:50:55Z</time>
</trkpt>
<trkpt lat="48.80709830671549" lon="9.441111534833908">
<ele>256.6</ele>
<time>2024-05-12T12:50:56Z</time>
</trkpt>
<trkpt lat="48.8070716522634" lon="9.44106954149902">
<ele>256.6</ele>
<time>2024-05-12T12:50:57Z</time>
</trkpt>
<trkpt lat="48.80704114213586" lon="9.441022854298351">
<ele>256.6</ele>
<time>2024-05-12T12:50:58Z</time>
</trkpt>
<trkpt lat="48.80701440386474" lon="9.440979938954117">
<ele>256.6</ele>
<time>2024-05-12T12:50:59Z</time>
</trkpt>
<trkpt lat="48.806987749412656" lon="9.440939873456957">
<ele>256.799</ele>
<time>2024-05-12T12:51:00Z</time>
</trkpt>
<trkpt lat="48.806964866817" lon="9.440903663635254">
<ele>256.799</ele>
<time>2024-05-12T12:51:01Z</time>
</trkpt>
<trkpt lat="48.80693812854588" lon="9.440866447985172">
<ele>257</ele>
<time>2024-05-12T12:51:02Z</time>
</trkpt>
<trkpt lat="48.80691524595022" lon="9.440832082182167">
<ele>257.2</ele>
<time>2024-05-12T12:51:03Z</time>
</trkpt>
<trkpt lat="48.80689236335456" lon="9.440798722207546">
<ele>257.4</ele>
<time>2024-05-12T12:51:04Z</time>
</trkpt>
<trkpt lat="48.806869480758905" lon="9.440768212080002">
<ele>257.6</ele>
<time>2024-05-12T12:51:05Z</time>
</trkpt>
<trkpt lat="48.80684274248779" lon="9.440739629790189">
<ele>257.799</ele>
<time>2024-05-12T12:51:06Z</time>
</trkpt>
<trkpt lat="48.80681985989213" lon="9.44071289151907">
<ele>257.799</ele>
<time>2024-05-12T12:51:07Z</time>
</trkpt>
<trkpt lat="48.80680083297193" lon="9.440683303400874">
<ele>258</ele>
<time>2024-05-12T12:51:08Z</time>
</trkpt>
<trkpt lat="48.80677795037627" lon="9.440656648948789">
<ele>258</ele>
<time>2024-05-12T12:51:09Z</time>
</trkpt>
<trkpt lat="48.80675498396158" lon="9.44063468836248">
<ele>258.2</ele>
<time>2024-05-12T12:51:10Z</time>
</trkpt>
<trkpt lat="48.80673210136592" lon="9.440625132992864">
<ele>258.2</ele>
<time>2024-05-12T12:51:11Z</time>
</trkpt>
<trkpt lat="48.806709218770266" lon="9.440623205155134">
<ele>258.2</ele>
<time>2024-05-12T12:51:12Z</time>
</trkpt>
<trkpt lat="48.80668633617461" lon="9.440623205155134">
<ele>258.4</ele>
<time>2024-05-12T12:51:13Z</time>
</trkpt>
<trkpt lat="48.80666730925441" lon="9.440636616200209">
<ele>258.4</ele>
<time>2024-05-12T12:51:14Z</time>
</trkpt>
<trkpt lat="48.80665205419064" lon="9.440656648948789">
<ele>258.4</ele>
<time>2024-05-12T12:51:15Z</time>
</trkpt>
<trkpt lat="48.80664819851518" lon="9.440681375563145">
<ele>258.4</ele>
<time>2024-05-12T12:51:16Z</time>
</trkpt>
<trkpt lat="48.80664819851518" lon="9.440708113834262">
<ele>258.4</ele>
<time>2024-05-12T12:51:17Z</time>
</trkpt>
<trkpt lat="48.80664819851518" lon="9.440738623961806">
<ele>258.4</ele>
<time>2024-05-12T12:51:18Z</time>
</trkpt>
<trkpt lat="48.80664819851518" lon="9.440765362232924">
<ele>258.2</ele>
<time>2024-05-12T12:51:19Z</time>
</trkpt>
<trkpt lat="48.80664057098329" lon="9.440796794369817">
<ele>258.2</ele>
<time>2024-05-12T12:51:20Z</time>
</trkpt>
<trkpt lat="48.80663679912686" lon="9.44083308801055">
<ele>258.2</ele>
<time>2024-05-12T12:51:21Z</time>
</trkpt>
<trkpt lat="48.80662531591952" lon="9.440863598138094">
<ele>258</ele>
<time>2024-05-12T12:51:22Z</time>
</trkpt>
<trkpt lat="48.806613916531205" lon="9.44089125841856">
<ele>258</ele>
<time>2024-05-12T12:51:23Z</time>
</trkpt>
<trkpt lat="48.806610060855746" lon="9.440919840708377">
<ele>258</ele>
<time>2024-05-12T12:51:24Z</time>
</trkpt>
<trkpt lat="48.80660243332386" lon="9.440955128520727">
<ele>258</ele>
<time>2024-05-12T12:51:25Z</time>
</trkpt>
<trkpt lat="48.80658332258463" lon="9.44099041633308">
<ele>258</ele>
<time>2024-05-12T12:51:26Z</time>
</trkpt>
<trkpt lat="48.80656806752086" lon="9.44102947600186">
<ele>257.799</ele>
<time>2024-05-12T12:51:27Z</time>
</trkpt>
<trkpt lat="48.806556668132544" lon="9.441075325012209">
<ele>257.799</ele>
<time>2024-05-12T12:51:28Z</time>
</trkpt>
<trkpt lat="48.806533785536885" lon="9.44112963974476">
<ele>258</ele>
<time>2024-05-12T12:51:29Z</time>
</trkpt>
<trkpt lat="48.80651853047311" lon="9.441178254783154">
<ele>258</ele>
<time>2024-05-12T12:51:30Z</time>
</trkpt>
<trkpt lat="48.80650327540934" lon="9.441220248118045">
<ele>258</ele>
<time>2024-05-12T12:51:31Z</time>
</trkpt>
<trkpt lat="48.806491792202" lon="9.44126316346228">
<ele>258</ele>
<time>2024-05-12T12:51:32Z</time>
</trkpt>
<trkpt lat="48.806476537138224" lon="9.441321333870292">
<ele>258</ele>
<time>2024-05-12T12:51:33Z</time>
</trkpt>
<trkpt lat="48.80646513774991" lon="9.44136517122388">
<ele>257.799</ele>
<time>2024-05-12T12:51:34Z</time>
</trkpt>
<trkpt lat="48.806453654542565" lon="9.44140624254942">
<ele>257.799</ele>
<time>2024-05-12T12:51:35Z</time>
</trkpt>
<trkpt lat="48.80644225515425" lon="9.441452007740736">
<ele>257.799</ele>
<time>2024-05-12T12:51:36Z</time>
</trkpt>
<trkpt lat="48.806434627622366" lon="9.441492995247245">
<ele>258</ele>
<time>2024-05-12T12:51:37Z</time>
</trkpt>
<trkpt lat="48.80642314441502" lon="9.441528283059595">
<ele>258</ele>
<time>2024-05-12T12:51:38Z</time>
</trkpt>
<trkpt lat="48.80641166120768" lon="9.441566420719028">
<ele>258</ele>
<time>2024-05-12T12:51:39Z</time>
</trkpt>
<trkpt lat="48.80640403367579" lon="9.44160170853138">
<ele>258.2</ele>
<time>2024-05-12T12:51:40Z</time>
</trkpt>
<trkpt lat="48.80639263428748" lon="9.441635068506002">
<ele>258.4</ele>
<time>2024-05-12T12:51:41Z</time>
</trkpt>
<trkpt lat="48.80638115108013" lon="9.441657029092312">
<ele>258.4</ele>
<time>2024-05-12T12:51:42Z</time>
</trkpt>
<trkpt lat="48.806373523548245" lon="9.44170187227428">
<ele>258.6</ele>
<time>2024-05-12T12:51:43Z</time>
</trkpt>
<trkpt lat="48.80636212415993" lon="9.441744787618518">
<ele>258.799</ele>
<time>2024-05-12T12:51:44Z</time>
</trkpt>
<trkpt lat="48.80634686909616" lon="9.441793402656913">
<ele>258.799</ele>
<time>2024-05-12T12:51:45Z</time>
</trkpt>
<trkpt lat="48.80633161403239" lon="9.441849645227194">
<ele>258.799</ele>
<time>2024-05-12T12:51:46Z</time>
</trkpt>
<trkpt lat="48.80630873143673" lon="9.441896416246893">
<ele>259</ele>
<time>2024-05-12T12:51:47Z</time>
</trkpt>
<trkpt lat="48.80629347637296" lon="9.441960286349058">
<ele>259</ele>
<time>2024-05-12T12:51:48Z</time>
</trkpt>
<trkpt lat="48.806278221309185" lon="9.442021306604149">
<ele>259</ele>
<time>2024-05-12T12:51:49Z</time>
</trkpt>
<trkpt lat="48.80626673810184" lon="9.442086182534696">
<ele>258.799</ele>
<time>2024-05-12T12:51:50Z</time>
</trkpt>
<trkpt lat="48.80625533871353" lon="9.442151980474591">
<ele>258.799</ele>
<time>2024-05-12T12:51:51Z</time>
</trkpt>
<trkpt lat="48.80623999983072" lon="9.44221492856741">
<ele>259</ele>
<time>2024-05-12T12:51:52Z</time>
</trkpt>
<trkpt lat="48.80622474476695" lon="9.442266393452885">
<ele>259.2</ele>
<time>2024-05-12T12:51:53Z</time>
</trkpt>
<trkpt lat="48.80621334537864" lon="9.442321714013817">
<ele>259.2</ele>
<time>2024-05-12T12:51:54Z</time>
</trkpt>
<trkpt lat="48.806198090314865" lon="9.44237326271832">
<ele>259.4</ele>
<time>2024-05-12T12:51:55Z</time>
</trkpt>
<trkpt lat="48.80618660710752" lon="9.442419949918984">
<ele>259.6</ele>
<time>2024-05-12T12:51:56Z</time>
</trkpt>
<trkpt lat="48.80617135204375" lon="9.442458087578416">
<ele>259.6</ele>
<time>2024-05-12T12:51:57Z</time>
</trkpt>
<trkpt lat="48.806156096979976" lon="9.442495303228498">
<ele>259.799</ele>
<time>2024-05-12T12:51:58Z</time>
</trkpt>
<trkpt lat="48.8061408419162" lon="9.442542996257544">
<ele>259.799</ele>
<time>2024-05-12T12:51:59Z</time>
</trkpt>
<trkpt lat="48.806121814996" lon="9.442600244656203">
<ele>259.799</ele>
<time>2024-05-12T12:52:00Z</time>
</trkpt>
<trkpt lat="48.806098932400346" lon="9.442656487226486">
<ele>259.799</ele>
<time>2024-05-12T12:52:01Z</time>
</trkpt>
<trkpt lat="48.806083677336574" lon="9.442703174427152">
<ele>259.799</ele>
<time>2024-05-12T12:52:02Z</time>
</trkpt>
<trkpt lat="48.80606833845377" lon="9.44274516776204">
<ele>259.799</ele>
<time>2024-05-12T12:52:03Z</time>
</trkpt>
<trkpt lat="48.80604931153357" lon="9.44278808310628">
<ele>260</ele>
<time>2024-05-12T12:52:04Z</time>
</trkpt>
<trkpt lat="48.8060340564698" lon="9.44282814860344">
<ele>260</ele>
<time>2024-05-12T12:52:05Z</time>
</trkpt>
<trkpt lat="48.80601494573057" lon="9.442871985957026">
<ele>260</ele>
<time>2024-05-12T12:52:06Z</time>
</trkpt>
<trkpt lat="48.805999690666795" lon="9.442918756976724">
<ele>260</ele>
<time>2024-05-12T12:52:07Z</time>
</trkpt>
<trkpt lat="48.80597303621471" lon="9.44298648275435">
<ele>260</ele>
<time>2024-05-12T12:52:08Z</time>
</trkpt>
<trkpt lat="48.805942526087165" lon="9.44306368008256">
<ele>260</ele>
<time>2024-05-12T12:52:09Z</time>
</trkpt>
<trkpt lat="48.805923415347934" lon="9.443133333697917">
<ele>260</ele>
<time>2024-05-12T12:52:10Z</time>
</trkpt>
<trkpt lat="48.80590816028416" lon="9.443189576268196">
<ele>259.799</ele>
<time>2024-05-12T12:52:11Z</time>
</trkpt>
<trkpt lat="48.8058852776885" lon="9.443264929577708">
<ele>259.6</ele>
<time>2024-05-12T12:52:12Z</time>
</trkpt>
<trkpt lat="48.805862395092845" lon="9.443334499374032">
<ele>259.6</ele>
<time>2024-05-12T12:52:13Z</time>
</trkpt>
<trkpt lat="48.80583565682173" lon="9.44340323098004">
<ele>259.4</ele>
<time>2024-05-12T12:52:14Z</time>
</trkpt>
<trkpt lat="48.80581277422607" lon="9.443466179072855">
<ele>259.4</ele>
<time>2024-05-12T12:52:15Z</time>
</trkpt>
<trkpt lat="48.80578989163041" lon="9.443525271490216">
<ele>259.4</ele>
<time>2024-05-12T12:52:16Z</time>
</trkpt>
<trkpt lat="48.805763237178326" lon="9.4435796700418">
<ele>259.4</ele>
<time>2024-05-12T12:52:17Z</time>
</trkpt>
<trkpt lat="48.80573649890721" lon="9.443653095513582">
<ele>259.4</ele>
<time>2024-05-12T12:52:18Z</time>
</trkpt>
<trkpt lat="48.80571361631155" lon="9.443711265921593">
<ele>259.4</ele>
<time>2024-05-12T12:52:19Z</time>
</trkpt>
<trkpt lat="48.80569073371589" lon="9.443761808797715">
<ele>259.4</ele>
<time>2024-05-12T12:52:20Z</time>
</trkpt>
<trkpt lat="48.80567162297666" lon="9.443809501826763">
<ele>259.4</ele>
<time>2024-05-12T12:52:21Z</time>
</trkpt>
<trkpt lat="48.805648740381" lon="9.443861888721583">
<ele>259.4</ele>
<time>2024-05-12T12:52:22Z</time>
</trkpt>
<trkpt lat="48.8056297134608" lon="9.44391343742609">
<ele>259.4</ele>
<time>2024-05-12T12:52:23Z</time>
</trkpt>
<trkpt lat="48.805606830865145" lon="9.44397353567183">
<ele>259.4</ele>
<time>2024-05-12T12:52:24Z</time>
</trkpt>
<trkpt lat="48.805583948269486" lon="9.444018295034766">
<ele>259.2</ele>
<time>2024-05-12T12:52:25Z</time>
</trkpt>
<trkpt lat="48.805564837530255" lon="9.444078393280506">
<ele>259.2</ele>
<time>2024-05-12T12:52:26Z</time>
</trkpt>
<trkpt lat="48.805545726791024" lon="9.444145197048783">
<ele>259.2</ele>
<time>2024-05-12T12:52:27Z</time>
</trkpt>
<trkpt lat="48.805526699870825" lon="9.444203367456794">
<ele>259</ele>
<time>2024-05-12T12:52:28Z</time>
</trkpt>
<trkpt lat="48.805507589131594" lon="9.444261537864804">
<ele>259</ele>
<time>2024-05-12T12:52:29Z</time>
</trkpt>
<trkpt lat="48.80549618974328" lon="9.4443101529032">
<ele>259</ele>
<time>2024-05-12T12:52:30Z</time>
</trkpt>
<trkpt lat="48.80548093467951" lon="9.44436639547348">
<ele>259</ele>
<time>2024-05-12T12:52:31Z</time>
</trkpt>
<trkpt lat="48.805465679615736" lon="9.44442456588149">
<ele>259</ele>
<time>2024-05-12T12:52:32Z</time>
</trkpt>
<trkpt lat="48.805446568876505" lon="9.444491369649768">
<ele>259</ele>
<time>2024-05-12T12:52:33Z</time>
</trkpt>
<trkpt lat="48.805427541956306" lon="9.444548534229398">
<ele>259.2</ele>
<time>2024-05-12T12:52:34Z</time>
</trkpt>
<trkpt lat="48.805408431217074" lon="9.444609638303518">
<ele>259</ele>
<time>2024-05-12T12:52:35Z</time>
</trkpt>
<trkpt lat="48.805389404296875" lon="9.44466303102672">
<ele>259</ele>
<time>2024-05-12T12:52:36Z</time>
</trkpt>
<trkpt lat="48.805366437882185" lon="9.444731678813696">
<ele>259</ele>
<time>2024-05-12T12:52:37Z</time>
</trkpt>
<trkpt lat="48.80535118281841" lon="9.44480032660067">
<ele>258.799</ele>
<time>2024-05-12T12:52:38Z</time>
</trkpt>
<trkpt lat="48.80533592775464" lon="9.444871824234724">
<ele>258.799</ele>
<time>2024-05-12T12:52:39Z</time>
</trkpt>
<trkpt lat="48.80532067269087" lon="9.444932928308845">
<ele>258.799</ele>
<time>2024-05-12T12:52:40Z</time>
</trkpt>
<trkpt lat="48.805309273302555" lon="9.444988248869777">
<ele>258.799</ele>
<time>2024-05-12T12:52:41Z</time>
</trkpt>
<trkpt lat="48.80529779009521" lon="9.44503971375525">
<ele>259</ele>
<time>2024-05-12T12:52:42Z</time>
</trkpt>
<trkpt lat="48.80527876317501" lon="9.445106433704495">
<ele>259</ele>
<time>2024-05-12T12:52:43Z</time>
</trkpt>
<trkpt lat="48.805267279967666" lon="9.445171309635043">
<ele>259.2</ele>
<time>2024-05-12T12:52:44Z</time>
</trkpt>
<trkpt lat="48.80525588057935" lon="9.44523517973721">
<ele>259.2</ele>
<time>2024-05-12T12:52:45Z</time>
</trkpt>
<trkpt lat="48.80524439737201" lon="9.445298127830029">
<ele>259.4</ele>
<time>2024-05-12T12:52:46Z</time>
</trkpt>
<trkpt lat="48.805232997983694" lon="9.445360153913498">
<ele>259.4</ele>
<time>2024-05-12T12:52:47Z</time>
</trkpt>
<trkpt lat="48.80521774291992" lon="9.445418324321508">
<ele>259.4</ele>
<time>2024-05-12T12:52:48Z</time>
</trkpt>
<trkpt lat="48.80520625971258" lon="9.44547456689179">
<ele>259.4</ele>
<time>2024-05-12T12:52:49Z</time>
</trkpt>
<trkpt lat="48.80520240403712" lon="9.44557665847242">
<ele>259.4</ele>
<time>2024-05-12T12:52:50Z</time>
</trkpt>
<trkpt lat="48.80519863218069" lon="9.44565293379128">
<ele>259.6</ele>
<time>2024-05-12T12:52:51Z</time>
</trkpt>
<trkpt lat="48.80519477650523" lon="9.445725437253714">
<ele>259.6</ele>
<time>2024-05-12T12:52:52Z</time>
</trkpt>
<trkpt lat="48.805187148973346" lon="9.445793079212308">
<ele>259.6</ele>
<time>2024-05-12T12:52:53Z</time>
</trkpt>
<trkpt lat="48.80518337711692" lon="9.445859882980583">
<ele>259.6</ele>
<time>2024-05-12T12:52:54Z</time>
</trkpt>
<trkpt lat="48.80517574958503" lon="9.44592660292983">
<ele>259.6</ele>
<time>2024-05-12T12:52:55Z</time>
</trkpt>
<trkpt lat="48.805171893909574" lon="9.445996256545186">
<ele>259.6</ele>
<time>2024-05-12T12:52:56Z</time>
</trkpt>
<trkpt lat="48.80516049452126" lon="9.446060126647351">
<ele>259.6</ele>
<time>2024-05-12T12:52:57Z</time>
</trkpt>
<trkpt lat="48.805152866989374" lon="9.446120224893091">
<ele>259.6</ele>
<time>2024-05-12T12:52:58Z</time>
</trkpt>
<trkpt lat="48.80514523945749" lon="9.446176467463374">
<ele>259.799</ele>
<time>2024-05-12T12:52:59Z</time>
</trkpt>
<trkpt lat="48.80513375625014" lon="9.446229860186577">
<ele>259.6</ele>
<time>2024-05-12T12:53:00Z</time>
</trkpt>
<trkpt lat="48.80511850118637" lon="9.446283336728811">
<ele>259.6</ele>
<time>2024-05-12T12:53:01Z</time>
</trkpt>
<trkpt lat="48.8051032461226" lon="9.44634335115552">
<ele>259.6</ele>
<time>2024-05-12T12:53:02Z</time>
</trkpt>
<trkpt lat="48.80507659167051" lon="9.446418704465032">
<ele>259.4</ele>
<time>2024-05-12T12:53:03Z</time>
</trkpt>
<trkpt lat="48.80503837019205" lon="9.44648358039558">
<ele>259.4</ele>
<time>2024-05-12T12:53:04Z</time>
</trkpt>
<trkpt lat="48.80499646067619" lon="9.44654367864132">
<ele>259.2</ele>
<time>2024-05-12T12:53:05Z</time>
</trkpt>
<trkpt lat="48.804954467341304" lon="9.44659799337387">
<ele>259</ele>
<time>2024-05-12T12:53:06Z</time>
</trkpt>
<trkpt lat="48.80492018535733" lon="9.44666286930442">
<ele>259</ele>
<time>2024-05-12T12:53:07Z</time>
</trkpt>
<trkpt lat="48.80488967522979" lon="9.446733444929125">
<ele>258.799</ele>
<time>2024-05-12T12:53:08Z</time>
</trkpt>
<trkpt lat="48.8048667088151" lon="9.446806870400906">
<ele>258.6</ele>
<time>2024-05-12T12:53:09Z</time>
</trkpt>
<trkpt lat="48.80484005436301" lon="9.446874596178532">
<ele>258.6</ele>
<time>2024-05-12T12:53:10Z</time>
</trkpt>
<trkpt lat="48.804817171767354" lon="9.446943243965508">
<ele>258.4</ele>
<time>2024-05-12T12:53:11Z</time>
</trkpt>
<trkpt lat="48.804794289171696" lon="9.447008119896054">
<ele>258.4</ele>
<time>2024-05-12T12:53:12Z</time>
</trkpt>
<trkpt lat="48.80476755090058" lon="9.4470748398453">
<ele>258.4</ele>
<time>2024-05-12T12:53:13Z</time>
</trkpt>
<trkpt lat="48.80474466830492" lon="9.447139715775847">
<ele>258.2</ele>
<time>2024-05-12T12:53:14Z</time>
</trkpt>
<trkpt lat="48.80472178570926" lon="9.447206435725093">
<ele>258.2</ele>
<time>2024-05-12T12:53:15Z</time>
</trkpt>
<trkpt lat="48.804695047438145" lon="9.44727131165564">
<ele>258</ele>
<time>2024-05-12T12:53:16Z</time>
</trkpt>
<trkpt lat="48.80466839298606" lon="9.447336187586188">
<ele>257.799</ele>
<time>2024-05-12T12:53:17Z</time>
</trkpt>
<trkpt lat="48.80464165471494" lon="9.447400057688355">
<ele>257.799</ele>
<time>2024-05-12T12:53:18Z</time>
</trkpt>
<trkpt lat="48.80461877211928" lon="9.4474667776376">
<ele>257.6</ele>
<time>2024-05-12T12:53:19Z</time>
</trkpt>
<trkpt lat="48.8045921176672" lon="9.447533581405878">
<ele>257.6</ele>
<time>2024-05-12T12:53:20Z</time>
</trkpt>
<trkpt lat="48.80456537939608" lon="9.447603151202202">
<ele>257.6</ele>
<time>2024-05-12T12:53:21Z</time>
</trkpt>
<trkpt lat="48.80454249680042" lon="9.44766802713275">
<ele>257.4</ele>
<time>2024-05-12T12:53:22Z</time>
</trkpt>
<trkpt lat="48.80452338606119" lon="9.447732903063295">
<ele>257.4</ele>
<time>2024-05-12T12:53:23Z</time>
</trkpt>
<trkpt lat="48.80450050346553" lon="9.447796773165464">
<ele>257.4</ele>
<time>2024-05-12T12:53:24Z</time>
</trkpt>
<trkpt lat="48.80448524840176" lon="9.447861649096012">
<ele>257.4</ele>
<time>2024-05-12T12:53:25Z</time>
</trkpt>
<trkpt lat="48.804477620869875" lon="9.447930296882989">
<ele>257.4</ele>
<time>2024-05-12T12:53:26Z</time>
</trkpt>
<trkpt lat="48.804477620869875" lon="9.447993244975804">
<ele>257.6</ele>
<time>2024-05-12T12:53:27Z</time>
</trkpt>
<trkpt lat="48.804481476545334" lon="9.448053343221543">
<ele>257.799</ele>
<time>2024-05-12T12:53:28Z</time>
</trkpt>
<trkpt lat="48.80449287593365" lon="9.448106735944748">
<ele>257.799</ele>
<time>2024-05-12T12:53:29Z</time>
</trkpt>
<trkpt lat="48.80450435914099" lon="9.448169684037566">
<ele>258</ele>
<time>2024-05-12T12:53:30Z</time>
</trkpt>
<trkpt lat="48.804515758529305" lon="9.448245037347078">
<ele>258</ele>
<time>2024-05-12T12:53:31Z</time>
</trkpt>
<trkpt lat="48.80453109741211" lon="9.44831846281886">
<ele>258.2</ele>
<time>2024-05-12T12:53:32Z</time>
</trkpt>
<trkpt lat="48.80454635247588" lon="9.448388032615185">
<ele>258.2</ele>
<time>2024-05-12T12:53:33Z</time>
</trkpt>
<trkpt lat="48.804557751864195" lon="9.448468163609505">
<ele>258.4</ele>
<time>2024-05-12T12:53:34Z</time>
</trkpt>
<trkpt lat="48.80456537939608" lon="9.448548294603825">
<ele>258.4</ele>
<time>2024-05-12T12:53:35Z</time>
</trkpt>
<trkpt lat="48.804576862603426" lon="9.44863697513938">
<ele>258.4</ele>
<time>2024-05-12T12:53:36Z</time>
</trkpt>
<trkpt lat="48.80458449013531" lon="9.448721883818507">
<ele>258.6</ele>
<time>2024-05-12T12:53:37Z</time>
</trkpt>
<trkpt lat="48.8045921176672" lon="9.44880955852568">
<ele>258.6</ele>
<time>2024-05-12T12:53:38Z</time>
</trkpt>
<trkpt lat="48.80459974519909" lon="9.44889354519546">
<ele>258.6</ele>
<time>2024-05-12T12:53:39Z</time>
</trkpt>
<trkpt lat="48.80460351705551" lon="9.448978370055556">
<ele>258.4</ele>
<time>2024-05-12T12:53:40Z</time>
</trkpt>
<trkpt lat="48.8046111445874" lon="9.449065206572412">
<ele>258.4</ele>
<time>2024-05-12T12:53:41Z</time>
</trkpt>
<trkpt lat="48.80461500026286" lon="9.44914810359478">
<ele>258.2</ele>
<time>2024-05-12T12:53:42Z</time>
</trkpt>
<trkpt lat="48.80462639965117" lon="9.4492282345891">
<ele>258.2</ele>
<time>2024-05-12T12:53:43Z</time>
</trkpt>
<trkpt lat="48.80463025532663" lon="9.44930836558342">
<ele>258</ele>
<time>2024-05-12T12:53:44Z</time>
</trkpt>
<trkpt lat="48.80463025532663" lon="9.44938464090228">
<ele>257.799</ele>
<time>2024-05-12T12:53:45Z</time>
</trkpt>
<trkpt lat="48.80462639965117" lon="9.4494647718966">
<ele>257.799</ele>
<time>2024-05-12T12:53:46Z</time>
</trkpt>
<trkpt lat="48.80461877211928" lon="9.449542975053191">
<ele>257.799</ele>
<time>2024-05-12T12:53:47Z</time>
</trkpt>
<trkpt lat="48.8046111445874" lon="9.4496201723814">
<ele>257.6</ele>
<time>2024-05-12T12:53:48Z</time>
</trkpt>
<trkpt lat="48.80459974519909" lon="9.44970030337572">
<ele>257.6</ele>
<time>2024-05-12T12:53:49Z</time>
</trkpt>
<trkpt lat="48.80458826199174" lon="9.449774734675884">
<ele>257.6</ele>
<time>2024-05-12T12:53:50Z</time>
</trkpt>
<trkpt lat="48.80457300692797" lon="9.449848160147669">
<ele>257.6</ele>
<time>2024-05-12T12:53:51Z</time>
</trkpt>
<trkpt lat="48.804557751864195" lon="9.44991965778172">
<ele>257.6</ele>
<time>2024-05-12T12:53:52Z</time>
</trkpt>
<trkpt lat="48.80454635247588" lon="9.449993083253505">
<ele>257.4</ele>
<time>2024-05-12T12:53:53Z</time>
</trkpt>
<trkpt lat="48.80453109741211" lon="9.450066508725286">
<ele>257.4</ele>
<time>2024-05-12T12:53:54Z</time>
</trkpt>
<trkpt lat="48.80451961420477" lon="9.450139934197068">
<ele>257.4</ele>
<time>2024-05-12T12:53:55Z</time>
</trkpt>
<trkpt lat="48.80450813099742" lon="9.45021528750658">
<ele>257.4</ele>
<time>2024-05-12T12:53:56Z</time>
</trkpt>
<trkpt lat="48.804496731609106" lon="9.450289718806744">
<ele>257.4</ele>
<time>2024-05-12T12:53:57Z</time>
</trkpt>
<trkpt lat="48.80448524840176" lon="9.450364988297224">
<ele>257.2</ele>
<time>2024-05-12T12:53:58Z</time>
</trkpt>
<trkpt lat="48.80447384901345" lon="9.450440341606736">
<ele>257.2</ele>
<time>2024-05-12T12:53:59Z</time>
</trkpt>
<trkpt lat="48.8044623658061" lon="9.450516700744627">
<ele>257.2</ele>
<time>2024-05-12T12:54:00Z</time>
</trkpt>
<trkpt lat="48.80444711074233" lon="9.45059197023511">
<ele>257.2</ele>
<time>2024-05-12T12:54:01Z</time>
</trkpt>
<trkpt lat="48.80443571135402" lon="9.4506701733917">
<ele>257.2</ele>
<time>2024-05-12T12:54:02Z</time>
</trkpt>
<trkpt lat="48.804420456290245" lon="9.450746532529593">
<ele>257.4</ele>
<time>2024-05-12T12:54:03Z</time>
</trkpt>
<trkpt lat="48.80440520122647" lon="9.450821802020071">
<ele>257.4</ele>
<time>2024-05-12T12:54:04Z</time>
</trkpt>
<trkpt lat="48.8043899461627" lon="9.450896233320236">
<ele>257.6</ele>
<time>2024-05-12T12:54:05Z</time>
</trkpt>
<trkpt lat="48.80437083542347" lon="9.450973430648446">
<ele>257.799</ele>
<time>2024-05-12T12:54:06Z</time>
</trkpt>
<trkpt lat="48.80435172468424" lon="9.45104786194861">
<ele>257.799</ele>
<time>2024-05-12T12:54:07Z</time>
</trkpt>
<trkpt lat="48.804336469620466" lon="9.451125143095853">
<ele>257.799</ele>
<time>2024-05-12T12:54:08Z</time>
</trkpt>
<trkpt lat="48.804321214556694" lon="9.451198568567634">
<ele>257.799</ele>
<time>2024-05-12T12:54:09Z</time>
</trkpt>
<trkpt lat="48.804302187636495" lon="9.451272916048763">
<ele>257.799</ele>
<time>2024-05-12T12:54:10Z</time>
</trkpt>
<trkpt lat="48.80428307689726" lon="9.4513454195112">
<ele>257.799</ele>
<time>2024-05-12T12:54:11Z</time>
</trkpt>
<trkpt lat="48.804260194301605" lon="9.451414989307525">
<ele>257.799</ele>
<time>2024-05-12T12:54:12Z</time>
</trkpt>
<trkpt lat="48.80424493923783" lon="9.451484642922878">
<ele>257.799</ele>
<time>2024-05-12T12:54:13Z</time>
</trkpt>
<trkpt lat="48.804222056642175" lon="9.451555218547584">
<ele>257.6</ele>
<time>2024-05-12T12:54:14Z</time>
</trkpt>
<trkpt lat="48.80419917404651" lon="9.451626716181636">
<ele>257.6</ele>
<time>2024-05-12T12:54:15Z</time>
</trkpt>
<trkpt lat="48.804180063307285" lon="9.451696369796991">
<ele>257.6</ele>
<time>2024-05-12T12:54:16Z</time>
</trkpt>
<trkpt lat="48.80415718071163" lon="9.451766945421696">
<ele>257.6</ele>
<time>2024-05-12T12:54:17Z</time>
</trkpt>
<trkpt lat="48.80413429811597" lon="9.451834671199322">
<ele>257.6</ele>
<time>2024-05-12T12:54:18Z</time>
</trkpt>
<trkpt lat="48.80410764366388" lon="9.451903318986297">
<ele>257.6</ele>
<time>2024-05-12T12:54:19Z</time>
</trkpt>
<trkpt lat="48.804084761068225" lon="9.45197674445808">
<ele>257.799</ele>
<time>2024-05-12T12:54:20Z</time>
</trkpt>
<trkpt lat="48.80405802279711" lon="9.452048242092133">
<ele>257.799</ele>
<time>2024-05-12T12:54:21Z</time>
</trkpt>
<trkpt lat="48.80403514020145" lon="9.452119823545218">
<ele>258</ele>
<time>2024-05-12T12:54:22Z</time>
</trkpt>
<trkpt lat="48.80401225760579" lon="9.45219132117927">
<ele>258.2</ele>
<time>2024-05-12T12:54:23Z</time>
</trkpt>
<trkpt lat="48.803985519334674" lon="9.452264746651052">
<ele>258.2</ele>
<time>2024-05-12T12:54:24Z</time>
</trkpt>
<trkpt lat="48.803966492414474" lon="9.452342027798297">
<ele>258.4</ele>
<time>2024-05-12T12:54:25Z</time>
</trkpt>
<trkpt lat="48.803943609818816" lon="9.452416375279428">
<ele>258.4</ele>
<time>2024-05-12T12:54:26Z</time>
</trkpt>
<trkpt lat="48.80392072722316" lon="9.45249172858894">
<ele>258.6</ele>
<time>2024-05-12T12:54:27Z</time>
</trkpt>
<trkpt lat="48.80390161648393" lon="9.45256708189845">
<ele>258.6</ele>
<time>2024-05-12T12:54:28Z</time>
</trkpt>
<trkpt lat="48.80387873388827" lon="9.452639501541851">
<ele>258.6</ele>
<time>2024-05-12T12:54:29Z</time>
</trkpt>
<trkpt lat="48.80385970696807" lon="9.452712005004289">
<ele>258.6</ele>
<time>2024-05-12T12:54:30Z</time>
</trkpt>
<trkpt lat="48.80383674055338" lon="9.452781658619642">
<ele>258.799</ele>
<time>2024-05-12T12:54:31Z</time>
</trkpt>
<trkpt lat="48.80381771363318" lon="9.452855084091423">
<ele>258.799</ele>
<time>2024-05-12T12:54:32Z</time>
</trkpt>
<trkpt lat="48.80379860289395" lon="9.452926581725478">
<ele>259</ele>
<time>2024-05-12T12:54:33Z</time>
</trkpt>
<trkpt lat="48.80377957597375" lon="9.45300000719726">
<ele>259</ele>
<time>2024-05-12T12:54:34Z</time>
</trkpt>
<trkpt lat="48.80376046523452" lon="9.453071588650346">
<ele>259</ele>
<time>2024-05-12T12:54:35Z</time>
</trkpt>
<trkpt lat="48.80374143831432" lon="9.45314023643732">
<ele>259.2</ele>
<time>2024-05-12T12:54:36Z</time>
</trkpt>
<trkpt lat="48.80372232757509" lon="9.453209806233644">
<ele>259.2</ele>
<time>2024-05-12T12:54:37Z</time>
</trkpt>
<trkpt lat="48.80370330065489" lon="9.45328138768673">
<ele>259.2</ele>
<time>2024-05-12T12:54:38Z</time>
</trkpt>
<trkpt lat="48.80368804559112" lon="9.453351963311434">
<ele>259.2</ele>
<time>2024-05-12T12:54:39Z</time>
</trkpt>
<trkpt lat="48.803672790527344" lon="9.453419605270028">
<ele>259.2</ele>
<time>2024-05-12T12:54:40Z</time>
</trkpt>
<trkpt lat="48.80365367978811" lon="9.453485487028956">
<ele>259.2</ele>
<time>2024-05-12T12:54:41Z</time>
</trkpt>
<trkpt lat="48.80363842472434" lon="9.453544579446316">
<ele>259</ele>
<time>2024-05-12T12:54:42Z</time>
</trkpt>
<trkpt lat="48.80362316966057" lon="9.453601827844976">
<ele>259</ele>
<time>2024-05-12T12:54:43Z</time>
</trkpt>
<trkpt lat="48.80361168645322" lon="9.453658070415258">
<ele>259</ele>
<time>2024-05-12T12:54:44Z</time>
</trkpt>
<trkpt lat="48.80359643138945" lon="9.45371531881392">
<ele>259</ele>
<time>2024-05-12T12:54:45Z</time>
</trkpt>
<trkpt lat="48.80358503200114" lon="9.453768711537125">
<ele>259</ele>
<time>2024-05-12T12:54:46Z</time>
</trkpt>
<trkpt lat="48.80357354879379" lon="9.453820176422596">
<ele>259</ele>
<time>2024-05-12T12:54:47Z</time>
</trkpt>
<trkpt lat="48.80355829373002" lon="9.4538717251271">
<ele>259</ele>
<time>2024-05-12T12:54:48Z</time>
</trkpt>
<trkpt lat="48.80354689434171" lon="9.453921262174845">
<ele>259.2</ele>
<time>2024-05-12T12:54:49Z</time>
</trkpt>
<trkpt lat="48.80353541113436" lon="9.45397180505097">
<ele>259.2</ele>
<time>2024-05-12T12:54:50Z</time>
</trkpt>
<trkpt lat="48.80352401174605" lon="9.454023353755474">
<ele>259.2</ele>
<time>2024-05-12T12:54:51Z</time>
</trkpt>
<trkpt lat="48.80350875668228" lon="9.454083368182182">
<ele>259.4</ele>
<time>2024-05-12T12:54:52Z</time>
</trkpt>
<trkpt lat="48.80349341779947" lon="9.45414824411273">
<ele>259.4</ele>
<time>2024-05-12T12:54:53Z</time>
</trkpt>
<trkpt lat="48.8034781627357" lon="9.454216891899703">
<ele>259.4</ele>
<time>2024-05-12T12:54:54Z</time>
</trkpt>
<trkpt lat="48.8034591358155" lon="9.454290317371488">
<ele>259.4</ele>
<time>2024-05-12T12:54:55Z</time>
</trkpt>
<trkpt lat="48.80344002507627" lon="9.454368520528078">
<ele>259.6</ele>
<time>2024-05-12T12:54:56Z</time>
</trkpt>
<trkpt lat="48.80341714248061" lon="9.454449573531749">
<ele>259.6</ele>
<time>2024-05-12T12:54:57Z</time>
</trkpt>
<trkpt lat="48.80339425988495" lon="9.454529704526069">
<ele>259.6</ele>
<time>2024-05-12T12:54:58Z</time>
</trkpt>
<trkpt lat="48.803371377289295" lon="9.454609835520388">
<ele>259.6</ele>
<time>2024-05-12T12:54:59Z</time>
</trkpt>
<trkpt lat="48.803352350369096" lon="9.454691810533404">
<ele>259.6</ele>
<time>2024-05-12T12:55:00Z</time>
</trkpt>
<trkpt lat="48.803333239629865" lon="9.454772947356105">
<ele>259.6</ele>
<time>2024-05-12T12:55:01Z</time>
</trkpt>
<trkpt lat="48.803314128890634" lon="9.454852994531391">
<ele>259.6</ele>
<time>2024-05-12T12:55:02Z</time>
</trkpt>
<trkpt lat="48.80329887382686" lon="9.454933125525711">
<ele>259.6</ele>
<time>2024-05-12T12:55:03Z</time>
</trkpt>
<trkpt lat="48.80328361876309" lon="9.455011328682303">
<ele>259.6</ele>
<time>2024-05-12T12:55:04Z</time>
</trkpt>
<trkpt lat="48.80326836369932" lon="9.455088609829543">
<ele>259.4</ele>
<time>2024-05-12T12:55:05Z</time>
</trkpt>
<trkpt lat="48.803253108635545" lon="9.455164885148406">
<ele>259.4</ele>
<time>2024-05-12T12:55:06Z</time>
</trkpt>
<trkpt lat="48.80323785357177" lon="9.455238310620189">
<ele>259.4</ele>
<time>2024-05-12T12:55:07Z</time>
</trkpt>
<trkpt lat="48.80321882665157" lon="9.4553136639297">
<ele>259.2</ele>
<time>2024-05-12T12:55:08Z</time>
</trkpt>
<trkpt lat="48.8032035715878" lon="9.455389939248562">
<ele>259.2</ele>
<time>2024-05-12T12:55:09Z</time>
</trkpt>
<trkpt lat="48.80318831652403" lon="9.455463364720345">
<ele>259</ele>
<time>2024-05-12T12:55:10Z</time>
</trkpt>
<trkpt lat="48.80317306146026" lon="9.4555330183357">
<ele>259</ele>
<time>2024-05-12T12:55:11Z</time>
</trkpt>
<trkpt lat="48.80315780639648" lon="9.455603593960404">
<ele>259</ele>
<time>2024-05-12T12:55:12Z</time>
</trkpt>
<trkpt lat="48.80314246751368" lon="9.455673163756728">
<ele>259</ele>
<time>2024-05-12T12:55:13Z</time>
</trkpt>
<trkpt lat="48.80312721244991" lon="9.45574658922851">
<ele>258.799</ele>
<time>2024-05-12T12:55:14Z</time>
</trkpt>
<trkpt lat="48.80310818552971" lon="9.455818170681596">
<ele>258.799</ele>
<time>2024-05-12T12:55:15Z</time>
</trkpt>
<trkpt lat="48.80309670232237" lon="9.455893440172076">
<ele>258.799</ele>
<time>2024-05-12T12:55:16Z</time>
</trkpt>
<trkpt lat="48.80308144725859" lon="9.455969799309967">
<ele>258.799</ele>
<time>2024-05-12T12:55:17Z</time>
</trkpt>
<trkpt lat="48.80306619219482" lon="9.45604506880045">
<ele>258.799</ele>
<time>2024-05-12T12:55:18Z</time>
</trkpt>
<trkpt lat="48.803054792806506" lon="9.456119500100613">
<ele>258.799</ele>
<time>2024-05-12T12:55:19Z</time>
</trkpt>
<trkpt lat="48.803035682067275" lon="9.456194853410125">
<ele>258.799</ele>
<time>2024-05-12T12:55:20Z</time>
</trkpt>
<trkpt lat="48.8030204270035" lon="9.456272050738336">
<ele>258.799</ele>
<time>2024-05-12T12:55:21Z</time>
</trkpt>
<trkpt lat="48.80300902761519" lon="9.456348409876227">
<ele>258.799</ele>
<time>2024-05-12T12:55:22Z</time>
</trkpt>
<trkpt lat="48.80298991687596" lon="9.45642183534801">
<ele>258.799</ele>
<time>2024-05-12T12:55:23Z</time>
</trkpt>
<trkpt lat="48.80297843366861" lon="9.456495260819793">
<ele>258.799</ele>
<time>2024-05-12T12:55:24Z</time>
</trkpt>
<trkpt lat="48.80296317860484" lon="9.456571536138654">
<ele>258.799</ele>
<time>2024-05-12T12:55:25Z</time>
</trkpt>
<trkpt lat="48.80294792354107" lon="9.456651667132974">
<ele>258.799</ele>
<time>2024-05-12T12:55:26Z</time>
</trkpt>
<trkpt lat="48.80293652415275" lon="9.456733642145991">
<ele>258.799</ele>
<time>2024-05-12T12:55:27Z</time>
</trkpt>
<trkpt lat="48.80292504094541" lon="9.456813773140311">
<ele>258.799</ele>
<time>2024-05-12T12:55:28Z</time>
</trkpt>
<trkpt lat="48.8029136415571" lon="9.45689289830625">
<ele>258.799</ele>
<time>2024-05-12T12:55:29Z</time>
</trkpt>
<trkpt lat="48.80290601402521" lon="9.4569749571383">
<ele>258.799</ele>
<time>2024-05-12T12:55:30Z</time>
</trkpt>
<trkpt lat="48.802894530817866" lon="9.45705508813262">
<ele>258.799</ele>
<time>2024-05-12T12:55:31Z</time>
</trkpt>
<trkpt lat="48.80288690328598" lon="9.45713329128921">
<ele>258.799</ele>
<time>2024-05-12T12:55:32Z</time>
</trkpt>
<trkpt lat="48.802879275754094" lon="9.4572114944458">
<ele>258.799</ele>
<time>2024-05-12T12:55:33Z</time>
</trkpt>
<trkpt lat="48.80287164822221" lon="9.45728869177401">
<ele>259</ele>
<time>2024-05-12T12:55:34Z</time>
</trkpt>
<trkpt lat="48.80286402069032" lon="9.457364967092872">
<ele>259.2</ele>
<time>2024-05-12T12:55:35Z</time>
</trkpt>
<trkpt lat="48.802860248833895" lon="9.457441326230764">
<ele>259.2</ele>
<time>2024-05-12T12:55:36Z</time>
</trkpt>
<trkpt lat="48.80285639315843" lon="9.457516595721245">
<ele>259.4</ele>
<time>2024-05-12T12:55:37Z</time>
</trkpt>
<trkpt lat="48.80285639315843" lon="9.457591949030755">
<ele>259.4</ele>
<time>2024-05-12T12:55:38Z</time>
</trkpt>
<trkpt lat="48.80285639315843" lon="9.45766638033092">
<ele>259.6</ele>
<time>2024-05-12T12:55:39Z</time>
</trkpt>
<trkpt lat="48.80285262130201" lon="9.457741733640432">
<ele>259.6</ele>
<time>2024-05-12T12:55:40Z</time>
</trkpt>
<trkpt lat="48.80285262130201" lon="9.457815159112217">
<ele>259.6</ele>
<time>2024-05-12T12:55:41Z</time>
</trkpt>
<trkpt lat="48.80284876562655" lon="9.457888584583998">
<ele>259.799</ele>
<time>2024-05-12T12:55:42Z</time>
</trkpt>
<trkpt lat="48.80284499377012" lon="9.457960082218053">
<ele>259.799</ele>
<time>2024-05-12T12:55:43Z</time>
</trkpt>
<trkpt lat="48.802841138094664" lon="9.458031579852104">
<ele>259.799</ele>
<time>2024-05-12T12:55:44Z</time>
</trkpt>
<trkpt lat="48.80283736623824" lon="9.458105005323889">
<ele>259.799</ele>
<time>2024-05-12T12:55:45Z</time>
</trkpt>
<trkpt lat="48.80283736623824" lon="9.458176586776972">
<ele>259.799</ele>
<time>2024-05-12T12:55:46Z</time>
</trkpt>
<trkpt lat="48.80283736623824" lon="9.458248084411023">
<ele>259.799</ele>
<time>2024-05-12T12:55:47Z</time>
</trkpt>
<trkpt lat="48.802841138094664" lon="9.458319582045078">
<ele>259.799</ele>
<time>2024-05-12T12:55:48Z</time>
</trkpt>
<trkpt lat="48.802841138094664" lon="9.458391163498163">
<ele>259.799</ele>
<time>2024-05-12T12:55:49Z</time>
</trkpt>
<trkpt lat="48.80284499377012" lon="9.458461739122868">
<ele>259.6</ele>
<time>2024-05-12T12:55:50Z</time>
</trkpt>
<trkpt lat="48.80284499377012" lon="9.458531308919191">
<ele>259.6</ele>
<time>2024-05-12T12:55:51Z</time>
</trkpt>
<trkpt lat="48.80284499377012" lon="9.458601884543896">
<ele>259.4</ele>
<time>2024-05-12T12:55:52Z</time>
</trkpt>
<trkpt lat="48.80284499377012" lon="9.45867346599698">
<ele>259.4</ele>
<time>2024-05-12T12:55:53Z</time>
</trkpt>
<trkpt lat="48.80284499377012" lon="9.458742113783956">
<ele>259.4</ele>
<time>2024-05-12T12:55:54Z</time>
</trkpt>
<trkpt lat="48.802841138094664" lon="9.45881168358028">
<ele>259.4</ele>
<time>2024-05-12T12:55:55Z</time>
</trkpt>
<trkpt lat="48.80283736623824" lon="9.458881337195637">
<ele>259.4</ele>
<time>2024-05-12T12:55:56Z</time>
</trkpt>
<trkpt lat="48.80282973870635" lon="9.45895191282034">
<ele>259.4</ele>
<time>2024-05-12T12:55:57Z</time>
</trkpt>
<trkpt lat="48.802822111174464" lon="9.459019638597963">
<ele>259.4</ele>
<time>2024-05-12T12:55:58Z</time>
</trkpt>
<trkpt lat="48.80281448364258" lon="9.45908828638494">
<ele>259.4</ele>
<time>2024-05-12T12:55:59Z</time>
</trkpt>
<trkpt lat="48.80280677229166" lon="9.459155006334186">
<ele>259.2</ele>
<time>2024-05-12T12:56:00Z</time>
</trkpt>
<trkpt lat="48.802799144759774" lon="9.459217954427004">
<ele>259.2</ele>
<time>2024-05-12T12:56:01Z</time>
</trkpt>
<trkpt lat="48.80278774537146" lon="9.459281908348204">
<ele>259</ele>
<time>2024-05-12T12:56:02Z</time>
</trkpt>
<trkpt lat="48.80277626216411" lon="9.459349550306795">
<ele>259</ele>
<time>2024-05-12T12:56:03Z</time>
</trkpt>
<trkpt lat="48.802761007100344" lon="9.45942205376923">
<ele>259</ele>
<time>2024-05-12T12:56:04Z</time>
</trkpt>
<trkpt lat="48.80274960771203" lon="9.45948692969978">
<ele>258.799</ele>
<time>2024-05-12T12:56:05Z</time>
</trkpt>
<trkpt lat="48.80273435264826" lon="9.459551805630326">
<ele>258.799</ele>
<time>2024-05-12T12:56:06Z</time>
</trkpt>
<trkpt lat="48.80271524190903" lon="9.459613747894764">
<ele>258.6</ele>
<time>2024-05-12T12:56:07Z</time>
</trkpt>
<trkpt lat="48.802699986845255" lon="9.459671918302774">
<ele>258.6</ele>
<time>2024-05-12T12:56:08Z</time>
</trkpt>
<trkpt lat="48.80268858745694" lon="9.459728160873055">
<ele>258.6</ele>
<time>2024-05-12T12:56:09Z</time>
</trkpt>
<trkpt lat="48.80267333239317" lon="9.459791108965874">
<ele>258.4</ele>
<time>2024-05-12T12:56:10Z</time>
</trkpt>
<trkpt lat="48.8026580773294" lon="9.45985690690577">
<ele>258.4</ele>
<time>2024-05-12T12:56:11Z</time>
</trkpt>
<trkpt lat="48.802642822265625" lon="9.459919854998589">
<ele>258.2</ele>
<time>2024-05-12T12:56:12Z</time>
</trkpt>
<trkpt lat="48.80262748338282" lon="9.459982803091409">
<ele>258.2</ele>
<time>2024-05-12T12:56:13Z</time>
</trkpt>
<trkpt lat="48.80261222831905" lon="9.460042901337149">
<ele>258.2</ele>
<time>2024-05-12T12:56:14Z</time>
</trkpt>
<trkpt lat="48.80259697325528" lon="9.460102077573538">
<ele>258.2</ele>
<time>2024-05-12T12:56:15Z</time>
</trkpt>
<trkpt lat="48.80258557386696" lon="9.46015832014382">
<ele>258.2</ele>
<time>2024-05-12T12:56:16Z</time>
</trkpt>
<trkpt lat="48.80257409065962" lon="9.46021649055183">
<ele>258.2</ele>
<time>2024-05-12T12:56:17Z</time>
</trkpt>
<trkpt lat="48.802562691271305" lon="9.460280360653996">
<ele>258.4</ele>
<time>2024-05-12T12:56:18Z</time>
</trkpt>
<trkpt lat="48.80255506373942" lon="9.460343308746817">
<ele>258.4</ele>
<time>2024-05-12T12:56:19Z</time>
</trkpt>
<trkpt lat="48.80253980867565" lon="9.460401479154823">
<ele>258.4</ele>
<time>2024-05-12T12:56:20Z</time>
</trkpt>
<trkpt lat="48.80253595300019" lon="9.460454871878028">
<ele>258.4</ele>
<time>2024-05-12T12:56:21Z</time>
</trkpt>
<trkpt lat="48.8025283254683" lon="9.460506420582533">
<ele>258.4</ele>
<time>2024-05-12T12:56:22Z</time>
</trkpt>
<trkpt lat="48.802524553611875" lon="9.460555035620928">
<ele>258.4</ele>
<time>2024-05-12T12:56:23Z</time>
</trkpt>
<trkpt lat="48.80251692607999" lon="9.460601806640623">
<ele>258.4</ele>
<time>2024-05-12T12:56:24Z</time>
</trkpt>
<trkpt lat="48.80251307040453" lon="9.460644721984863">
<ele>258.6</ele>
<time>2024-05-12T12:56:25Z</time>
</trkpt>
<trkpt lat="48.80250544287264" lon="9.46068663150072">
<ele>258.6</ele>
<time>2024-05-12T12:56:26Z</time>
</trkpt>
<trkpt lat="48.802501671016216" lon="9.46072862483561">
<ele>258.6</ele>
<time>2024-05-12T12:56:27Z</time>
</trkpt>
<trkpt lat="48.80249018780887" lon="9.460775312036276">
<ele>258.6</ele>
<time>2024-05-12T12:56:28Z</time>
</trkpt>
<trkpt lat="48.802482560276985" lon="9.460824932903051">
<ele>258.6</ele>
<time>2024-05-12T12:56:29Z</time>
</trkpt>
<trkpt lat="48.8024749327451" lon="9.460883103311062">
<ele>258.6</ele>
<time>2024-05-12T12:56:30Z</time>
</trkpt>
<trkpt lat="48.80246730521321" lon="9.460941273719072">
<ele>258.6</ele>
<time>2024-05-12T12:56:31Z</time>
</trkpt>
<trkpt lat="48.80245967768133" lon="9.461001371964812">
<ele>258.6</ele>
<time>2024-05-12T12:56:32Z</time>
</trkpt>
<trkpt lat="48.80244819447398" lon="9.461061470210552">
<ele>258.6</ele>
<time>2024-05-12T12:56:33Z</time>
</trkpt>
<trkpt lat="48.802440566942096" lon="9.461119640618564">
<ele>258.6</ele>
<time>2024-05-12T12:56:34Z</time>
</trkpt>
<trkpt lat="48.80242916755378" lon="9.461176805198193">
<ele>258.6</ele>
<time>2024-05-12T12:56:35Z</time>
</trkpt>
<trkpt lat="48.80241768434644" lon="9.461230197921395">
<ele>258.6</ele>
<time>2024-05-12T12:56:36Z</time>
</trkpt>
<trkpt lat="48.802402429282665" lon="9.46128367446363">
<ele>258.6</ele>
<time>2024-05-12T12:56:37Z</time>
</trkpt>
<trkpt lat="48.80238717421889" lon="9.46134184487164">
<ele>258.6</ele>
<time>2024-05-12T12:56:38Z</time>
</trkpt>
<trkpt lat="48.80237191915512" lon="9.461404792964458">
<ele>258.799</ele>
<time>2024-05-12T12:56:39Z</time>
</trkpt>
<trkpt lat="48.80235666409135" lon="9.461471512913704">
<ele>258.799</ele>
<time>2024-05-12T12:56:40Z</time>
</trkpt>
<trkpt lat="48.802341409027576" lon="9.461542088538408">
<ele>258.799</ele>
<time>2024-05-12T12:56:41Z</time>
</trkpt>
<trkpt lat="48.80232615396381" lon="9.461611742153764">
<ele>259</ele>
<time>2024-05-12T12:56:42Z</time>
</trkpt>
<trkpt lat="48.80231089890003" lon="9.461681311950088">
<ele>259</ele>
<time>2024-05-12T12:56:43Z</time>
</trkpt>
<trkpt lat="48.80229564383626" lon="9.461751887574792">
<ele>259</ele>
<time>2024-05-12T12:56:44Z</time>
</trkpt>
<trkpt lat="48.80227653309703" lon="9.461821541190147">
<ele>259.2</ele>
<time>2024-05-12T12:56:45Z</time>
</trkpt>
<trkpt lat="48.802265133708715" lon="9.461888261139393">
<ele>259.2</ele>
<time>2024-05-12T12:56:46Z</time>
</trkpt>
<trkpt lat="48.80224987864494" lon="9.461956908926368">
<ele>259.2</ele>
<time>2024-05-12T12:56:47Z</time>
</trkpt>
<trkpt lat="48.8022383954376" lon="9.462023712694643">
<ele>259.2</ele>
<time>2024-05-12T12:56:48Z</time>
</trkpt>
<trkpt lat="48.802223140373826" lon="9.46208850480616">
<ele>259.2</ele>
<time>2024-05-12T12:56:49Z</time>
</trkpt>
<trkpt lat="48.80221174098551" lon="9.46214960888028">
<ele>259.2</ele>
<time>2024-05-12T12:56:50Z</time>
</trkpt>
<trkpt lat="48.80220411345363" lon="9.46221155114472">
<ele>259.4</ele>
<time>2024-05-12T12:56:51Z</time>
</trkpt>
<trkpt lat="48.80219263024628" lon="9.46227164939046">
<ele>259.4</ele>
<time>2024-05-12T12:56:52Z</time>
</trkpt>
<trkpt lat="48.80217737518251" lon="9.462333675473928">
<ele>259.4</ele>
<time>2024-05-12T12:56:53Z</time>
</trkpt>
<trkpt lat="48.80216212011874" lon="9.462396539747717">
<ele>259.4</ele>
<time>2024-05-12T12:56:54Z</time>
</trkpt>
<trkpt lat="48.802150720730424" lon="9.462458565831184">
<ele>259.4</ele>
<time>2024-05-12T12:56:55Z</time>
</trkpt>
<trkpt lat="48.80213546566665" lon="9.462521513924004">
<ele>259.4</ele>
<time>2024-05-12T12:56:56Z</time>
</trkpt>
<trkpt lat="48.80212398245931" lon="9.46258538402617">
<ele>259.4</ele>
<time>2024-05-12T12:56:57Z</time>
</trkpt>
<trkpt lat="48.802108727395535" lon="9.462650259956716">
<ele>259.4</ele>
<time>2024-05-12T12:56:58Z</time>
</trkpt>
<trkpt lat="48.80209724418819" lon="9.462715135887263">
<ele>259.6</ele>
<time>2024-05-12T12:56:59Z</time>
</trkpt>
<trkpt lat="48.80208198912442" lon="9.46277992799878">
<ele>259.6</ele>
<time>2024-05-12T12:57:00Z</time>
</trkpt>
<trkpt lat="48.802066734060645" lon="9.462844803929327">
<ele>259.6</ele>
<time>2024-05-12T12:57:01Z</time>
</trkpt>
<trkpt lat="48.80205147899687" lon="9.462911523878574">
<ele>259.6</ele>
<time>2024-05-12T12:57:02Z</time>
</trkpt>
<trkpt lat="48.80204007960856" lon="9.46298025548458">
<ele>259.6</ele>
<time>2024-05-12T12:57:03Z</time>
</trkpt>
<trkpt lat="48.80202482454479" lon="9.463046975433826">
<ele>259.4</ele>
<time>2024-05-12T12:57:04Z</time>
</trkpt>
<trkpt lat="48.802009569481015" lon="9.463116629049182">
<ele>259.4</ele>
<time>2024-05-12T12:57:05Z</time>
</trkpt>
<trkpt lat="48.80199431441724" lon="9.463185276836157">
<ele>259.4</ele>
<time>2024-05-12T12:57:06Z</time>
</trkpt>
<trkpt lat="48.80197905935347" lon="9.46325484663248">
<ele>259.4</ele>
<time>2024-05-12T12:57:07Z</time>
</trkpt>
<trkpt lat="48.801967576146126" lon="9.463324500247836">
<ele>259.4</ele>
<time>2024-05-12T12:57:08Z</time>
</trkpt>
<trkpt lat="48.801952321082354" lon="9.46339507587254">
<ele>259.4</ele>
<time>2024-05-12T12:57:09Z</time>
</trkpt>
<trkpt lat="48.80194083787501" lon="9.463461795821786">
<ele>259.6</ele>
<time>2024-05-12T12:57:10Z</time>
</trkpt>
<trkpt lat="48.801929438486695" lon="9.463526671752334">
<ele>259.6</ele>
<time>2024-05-12T12:57:11Z</time>
</trkpt>
<trkpt lat="48.80191418342292" lon="9.46359154768288">
<ele>259.6</ele>
<time>2024-05-12T12:57:12Z</time>
</trkpt>
<trkpt lat="48.80190270021558" lon="9.463656423613427">
<ele>259.6</ele>
<time>2024-05-12T12:57:13Z</time>
</trkpt>
<trkpt lat="48.801887445151806" lon="9.463723143562676">
<ele>259.4</ele>
<time>2024-05-12T12:57:14Z</time>
</trkpt>
<trkpt lat="48.80187604576349" lon="9.463788019493222">
<ele>259.4</ele>
<time>2024-05-12T12:57:15Z</time>
</trkpt>
<trkpt lat="48.80186456255615" lon="9.463856667280195">
<ele>259.4</ele>
<time>2024-05-12T12:57:16Z</time>
</trkpt>
<trkpt lat="48.801853163167834" lon="9.463925315067172">
<ele>259.2</ele>
<time>2024-05-12T12:57:17Z</time>
</trkpt>
<trkpt lat="48.80184167996049" lon="9.463993040844798">
<ele>259.2</ele>
<time>2024-05-12T12:57:18Z</time>
</trkpt>
<trkpt lat="48.80182642489672" lon="9.464061688631771">
<ele>259</ele>
<time>2024-05-12T12:57:19Z</time>
</trkpt>
<trkpt lat="48.8018150255084" lon="9.464130336418748">
<ele>259</ele>
<time>2024-05-12T12:57:20Z</time>
</trkpt>
<trkpt lat="48.80180354230106" lon="9.464196134358644">
<ele>259</ele>
<time>2024-05-12T12:57:21Z</time>
</trkpt>
<trkpt lat="48.80178828723729" lon="9.464262938126922">
<ele>259</ele>
<time>2024-05-12T12:57:22Z</time>
</trkpt>
<trkpt lat="48.801773032173514" lon="9.46432488039136">
<ele>258.799</ele>
<time>2024-05-12T12:57:23Z</time>
</trkpt>
<trkpt lat="48.80176154896617" lon="9.464387828484178">
<ele>258.799</ele>
<time>2024-05-12T12:57:24Z</time>
</trkpt>
<trkpt lat="48.8017462939024" lon="9.464453626424074">
<ele>258.799</ele>
<time>2024-05-12T12:57:25Z</time>
</trkpt>
<trkpt lat="48.80173489451408" lon="9.464520430192351">
<ele>258.799</ele>
<time>2024-05-12T12:57:26Z</time>
</trkpt>
<trkpt lat="48.80171963945031" lon="9.464588155969976">
<ele>258.799</ele>
<time>2024-05-12T12:57:27Z</time>
</trkpt>
<trkpt lat="48.80170438438654" lon="9.464656803756952">
<ele>258.799</ele>
<time>2024-05-12T12:57:28Z</time>
</trkpt>
<trkpt lat="48.80168912932277" lon="9.464724529534578">
<ele>259</ele>
<time>2024-05-12T12:57:29Z</time>
</trkpt>
<trkpt lat="48.801673874258995" lon="9.464793177321551">
<ele>259</ele>
<time>2024-05-12T12:57:30Z</time>
</trkpt>
<trkpt lat="48.80166239105165" lon="9.4648580532521">
<ele>259</ele>
<time>2024-05-12T12:57:31Z</time>
</trkpt>
<trkpt lat="48.80165099166334" lon="9.464924773201346">
<ele>259</ele>
<time>2024-05-12T12:57:32Z</time>
</trkpt>
<trkpt lat="48.801635736599565" lon="9.464989649131894">
<ele>259</ele>
<time>2024-05-12T12:57:33Z</time>
</trkpt>
<trkpt lat="48.80162425339222" lon="9.46505544707179">
<ele>259</ele>
<time>2024-05-12T12:57:34Z</time>
</trkpt>
<trkpt lat="48.801612854003906" lon="9.465123172849417">
<ele>259</ele>
<time>2024-05-12T12:57:35Z</time>
</trkpt>
<trkpt lat="48.80160137079656" lon="9.465189892798662">
<ele>259.2</ele>
<time>2024-05-12T12:57:36Z</time>
</trkpt>
<trkpt lat="48.801589887589216" lon="9.465256612747908">
<ele>259.2</ele>
<time>2024-05-12T12:57:37Z</time>
</trkpt>
<trkpt lat="48.80157463252544" lon="9.465321488678455">
<ele>259.2</ele>
<time>2024-05-12T12:57:38Z</time>
</trkpt>
<trkpt lat="48.80156323313713" lon="9.465388292446733">
<ele>259.2</ele>
<time>2024-05-12T12:57:39Z</time>
</trkpt>
<trkpt lat="48.80154797807336" lon="9.465455012395978">
<ele>259.2</ele>
<time>2024-05-12T12:57:40Z</time>
</trkpt>
<trkpt lat="48.80153649486601" lon="9.465519888326526">
<ele>259.2</ele>
<time>2024-05-12T12:57:41Z</time>
</trkpt>
<trkpt lat="48.80152123980224" lon="9.465586608275771">
<ele>259.2</ele>
<time>2024-05-12T12:57:42Z</time>
</trkpt>
<trkpt lat="48.80150598473847" lon="9.46564955636859">
<ele>259.2</ele>
<time>2024-05-12T12:57:43Z</time>
</trkpt>
<trkpt lat="48.8014907296747" lon="9.465713426470757">
<ele>259.2</ele>
<time>2024-05-12T12:57:44Z</time>
</trkpt>
<trkpt lat="48.801479330286384" lon="9.465778302401304">
<ele>259.4</ele>
<time>2024-05-12T12:57:45Z</time>
</trkpt>
<trkpt lat="48.80146407522261" lon="9.465841250494124">
<ele>259.4</ele>
<time>2024-05-12T12:57:46Z</time>
</trkpt>
<trkpt lat="48.801456447690725" lon="9.46590704843402">
<ele>259.4</ele>
<time>2024-05-12T12:57:47Z</time>
</trkpt>
<trkpt lat="48.80144496448338" lon="9.465969996526836">
<ele>259.4</ele>
<time>2024-05-12T12:57:48Z</time>
</trkpt>
<trkpt lat="48.80142970941961" lon="9.466032944619656">
<ele>259.4</ele>
<time>2024-05-12T12:57:49Z</time>
</trkpt>
<trkpt lat="48.80141822621226" lon="9.466094970703123">
<ele>259.4</ele>
<time>2024-05-12T12:57:50Z</time>
</trkpt>
<trkpt lat="48.80140682682395" lon="9.46615976281464">
<ele>259.4</ele>
<time>2024-05-12T12:57:51Z</time>
</trkpt>
<trkpt lat="48.801395343616605" lon="9.46622371673584">
<ele>259.4</ele>
<time>2024-05-12T12:57:52Z</time>
</trkpt>
<trkpt lat="48.80138008855283" lon="9.466288508847356">
<ele>259.6</ele>
<time>2024-05-12T12:57:53Z</time>
</trkpt>
<trkpt lat="48.80136483348906" lon="9.466353384777904">
<ele>259.6</ele>
<time>2024-05-12T12:57:54Z</time>
</trkpt>
<trkpt lat="48.80135343410075" lon="9.46641532704234">
<ele>259.799</ele>
<time>2024-05-12T12:57:55Z</time>
</trkpt>
<trkpt lat="48.8013419508934" lon="9.466476431116462">
<ele>259.799</ele>
<time>2024-05-12T12:57:56Z</time>
</trkpt>
<trkpt lat="48.80133055150509" lon="9.4665383733809">
<ele>260</ele>
<time>2024-05-12T12:57:57Z</time>
</trkpt>
<trkpt lat="48.801319068297744" lon="9.466600399464369">
<ele>260</ele>
<time>2024-05-12T12:57:58Z</time>
</trkpt>
<trkpt lat="48.80130766890943" lon="9.466663347557189">
<ele>260</ele>
<time>2024-05-12T12:57:59Z</time>
</trkpt>
<trkpt lat="48.801296185702085" lon="9.466728139668705">
<ele>260</ele>
<time>2024-05-12T12:58:00Z</time>
</trkpt>
<trkpt lat="48.80128478631377" lon="9.46679301559925">
<ele>260</ele>
<time>2024-05-12T12:58:01Z</time>
</trkpt>
<trkpt lat="48.80126953125" lon="9.466861663386226">
<ele>260</ele>
<time>2024-05-12T12:58:02Z</time>
</trkpt>
<trkpt lat="48.8012541923672" lon="9.466928467154505">
<ele>260</ele>
<time>2024-05-12T12:58:03Z</time>
</trkpt>
<trkpt lat="48.80124279297888" lon="9.466997114941478">
<ele>259.799</ele>
<time>2024-05-12T12:58:04Z</time>
</trkpt>
<trkpt lat="48.80122753791511" lon="9.467062912881374">
<ele>259.799</ele>
<time>2024-05-12T12:58:05Z</time>
</trkpt>
<trkpt lat="48.80121228285134" lon="9.46712963283062">
<ele>259.799</ele>
<time>2024-05-12T12:58:06Z</time>
</trkpt>
<trkpt lat="48.80120079964399" lon="9.467196436598895">
<ele>259.799</ele>
<time>2024-05-12T12:58:07Z</time>
</trkpt>
<trkpt lat="48.80118940025568" lon="9.467261312529445">
<ele>259.799</ele>
<time>2024-05-12T12:58:08Z</time>
</trkpt>
<trkpt lat="48.80117414519191" lon="9.467323254793882">
<ele>259.6</ele>
<time>2024-05-12T12:58:09Z</time>
</trkpt>
<trkpt lat="48.80116266198456" lon="9.4673862028867">
<ele>259.6</ele>
<time>2024-05-12T12:58:10Z</time>
</trkpt>
<trkpt lat="48.80115126259625" lon="9.467450072988868">
<ele>259.6</ele>
<time>2024-05-12T12:58:11Z</time>
</trkpt>
<trkpt lat="48.801139779388905" lon="9.467513021081686">
<ele>259.6</ele>
<time>2024-05-12T12:58:12Z</time>
</trkpt>
<trkpt lat="48.80112838000059" lon="9.467576975002885">
<ele>259.6</ele>
<time>2024-05-12T12:58:13Z</time>
</trkpt>
<trkpt lat="48.801116896793246" lon="9.467637995257974">
<ele>259.6</ele>
<time>2024-05-12T12:58:14Z</time>
</trkpt>
<trkpt lat="48.80110549740493" lon="9.467699937522411">
<ele>259.6</ele>
<time>2024-05-12T12:58:15Z</time>
</trkpt>
<trkpt lat="48.80109401419759" lon="9.467760035768151">
<ele>259.6</ele>
<time>2024-05-12T12:58:16Z</time>
</trkpt>
<trkpt lat="48.80108253099024" lon="9.467820134013891">
<ele>259.6</ele>
<time>2024-05-12T12:58:17Z</time>
</trkpt>
<trkpt lat="48.80107113160193" lon="9.46788308210671">
<ele>259.6</ele>
<time>2024-05-12T12:58:18Z</time>
</trkpt>
<trkpt lat="48.801059648394585" lon="9.467949802055957">
<ele>259.6</ele>
<time>2024-05-12T12:58:19Z</time>
</trkpt>
<trkpt lat="48.80104439333081" lon="9.46801844984293">
<ele>259.6</ele>
<time>2024-05-12T12:58:20Z</time>
</trkpt>
<trkpt lat="48.80102913826704" lon="9.468085253611209">
<ele>259.6</ele>
<time>2024-05-12T12:58:21Z</time>
</trkpt>
<trkpt lat="48.80101388320327" lon="9.468152979388831">
<ele>259.6</ele>
<time>2024-05-12T12:58:22Z</time>
</trkpt>
<trkpt lat="48.800998628139496" lon="9.468223555013536">
<ele>259.6</ele>
<time>2024-05-12T12:58:23Z</time>
</trkpt>
<trkpt lat="48.80098337307573" lon="9.46829312480986">
<ele>259.6</ele>
<time>2024-05-12T12:58:24Z</time>
</trkpt>
<trkpt lat="48.80097197368741" lon="9.468363700434566">
<ele>259.799</ele>
<time>2024-05-12T12:58:25Z</time>
</trkpt>
<trkpt lat="48.80095671862364" lon="9.468429498374462">
<ele>260</ele>
<time>2024-05-12T12:58:26Z</time>
</trkpt>
<trkpt lat="48.80094523541629" lon="9.46849345229566">
<ele>260</ele>
<time>2024-05-12T12:58:27Z</time>
</trkpt>
<trkpt lat="48.80092998035252" lon="9.4685553945601">
<ele>260.2</ele>
<time>2024-05-12T12:58:28Z</time>
</trkpt>
<trkpt lat="48.800918497145176" lon="9.46861457079649">
<ele>260.2</ele>
<time>2024-05-12T12:58:29Z</time>
</trkpt>
<trkpt lat="48.80090709775686" lon="9.46867173537612">
<ele>260.4</ele>
<time>2024-05-12T12:58:30Z</time>
</trkpt>
<trkpt lat="48.80089947022498" lon="9.468723284080625">
<ele>260.4</ele>
<time>2024-05-12T12:58:31Z</time>
</trkpt>
<trkpt lat="48.80089184269309" lon="9.46877189911902">
<ele>260.6</ele>
<time>2024-05-12T12:58:32Z</time>
</trkpt>
<trkpt lat="48.800880359485745" lon="9.468821519985797">
<ele>260.6</ele>
<time>2024-05-12T12:58:33Z</time>
</trkpt>
<trkpt lat="48.80087273195386" lon="9.46886820718646">
<ele>260.6</ele>
<time>2024-05-12T12:58:34Z</time>
</trkpt>
<trkpt lat="48.80086510442197" lon="9.468916822224855">
<ele>260.799</ele>
<time>2024-05-12T12:58:35Z</time>
</trkpt>
<trkpt lat="48.8008498493582" lon="9.4689645152539">
<ele>260.799</ele>
<time>2024-05-12T12:58:36Z</time>
</trkpt>
<trkpt lat="48.80083844996989" lon="9.469015058130026">
<ele>260.799</ele>
<time>2024-05-12T12:58:37Z</time>
</trkpt>
<trkpt lat="48.80082696676254" lon="9.46906660683453">
<ele>261</ele>
<time>2024-05-12T12:58:38Z</time>
</trkpt>
<trkpt lat="48.80081556737423" lon="9.46912662126124">
<ele>261</ele>
<time>2024-05-12T12:58:39Z</time>
</trkpt>
<trkpt lat="48.80080793984234" lon="9.469189569354056">
<ele>261</ele>
<time>2024-05-12T12:58:40Z</time>
</trkpt>
<trkpt lat="48.800796456635" lon="9.469258300960064">
<ele>261</ele>
<time>2024-05-12T12:58:41Z</time>
</trkpt>
<trkpt lat="48.800781201571226" lon="9.469333570450544">
<ele>261</ele>
<time>2024-05-12T12:58:42Z</time>
</trkpt>
<trkpt lat="48.80076980218291" lon="9.469416551291944">
<ele>261</ele>
<time>2024-05-12T12:58:43Z</time>
</trkpt>
<trkpt lat="48.80075069144368" lon="9.469508165493608">
<ele>261</ele>
<time>2024-05-12T12:58:44Z</time>
</trkpt>
<trkpt lat="48.80073158070445" lon="9.46959869004786">
<ele>261</ele>
<time>2024-05-12T12:58:45Z</time>
</trkpt>
<trkpt lat="48.80071632564068" lon="9.469690304249523">
<ele>261</ele>
<time>2024-05-12T12:58:46Z</time>
</trkpt>
<trkpt lat="48.80069344304502" lon="9.4697779789567">
<ele>260.799</ele>
<time>2024-05-12T12:58:47Z</time>
</trkpt>
<trkpt lat="48.80067441612482" lon="9.469866743311286">
<ele>260.799</ele>
<time>2024-05-12T12:58:48Z</time>
</trkpt>
<trkpt lat="48.80065530538559" lon="9.469953496009111">
<ele>260.799</ele>
<time>2024-05-12T12:58:49Z</time>
</trkpt>
<trkpt lat="48.80064005032182" lon="9.47003647685051">
<ele>260.799</ele>
<time>2024-05-12T12:58:50Z</time>
</trkpt>
<trkpt lat="48.80062102340162" lon="9.47011660784483">
<ele>260.799</ele>
<time>2024-05-12T12:58:51Z</time>
</trkpt>
<trkpt lat="48.80060191266239" lon="9.470190033316612">
<ele>260.6</ele>
<time>2024-05-12T12:58:52Z</time>
</trkpt>
<trkpt lat="48.800586657598615" lon="9.470256753265858">
<ele>260.4</ele>
<time>2024-05-12T12:58:53Z</time>
</trkpt>
<trkpt lat="48.80057140253484" lon="9.470318779349329">
<ele>260.2</ele>
<time>2024-05-12T12:58:54Z</time>
</trkpt>
<trkpt lat="48.80055614747107" lon="9.470381727442144">
<ele>260</ele>
<time>2024-05-12T12:58:55Z</time>
</trkpt>
<trkpt lat="48.800544664263725" lon="9.470444675534964">
<ele>260</ele>
<time>2024-05-12T12:58:56Z</time>
</trkpt>
<trkpt lat="48.80052940919995" lon="9.47051332332194">
<ele>260.2</ele>
<time>2024-05-12T12:58:57Z</time>
</trkpt>
<trkpt lat="48.80051415413618" lon="9.470582893118262">
<ele>260.4</ele>
<time>2024-05-12T12:58:58Z</time>
</trkpt>
<trkpt lat="48.80049889907241" lon="9.470653468742968">
<ele>260.4</ele>
<time>2024-05-12T12:58:59Z</time>
</trkpt>
<trkpt lat="48.80047987215221" lon="9.470725050196052">
<ele>260.6</ele>
<time>2024-05-12T12:59:00Z</time>
</trkpt>
<trkpt lat="48.800468388944864" lon="9.470794619992375">
<ele>260.799</ele>
<time>2024-05-12T12:59:01Z</time>
</trkpt>
<trkpt lat="48.80045313388109" lon="9.47086712345481">
<ele>261</ele>
<time>2024-05-12T12:59:02Z</time>
</trkpt>
<trkpt lat="48.80043787881732" lon="9.470936693251131">
<ele>261</ele>
<time>2024-05-12T12:59:03Z</time>
</trkpt>
<trkpt lat="48.80042262375355" lon="9.47100542485714">
<ele>261.2</ele>
<time>2024-05-12T12:59:04Z</time>
</trkpt>
<trkpt lat="48.800411224365234" lon="9.471071222797036">
<ele>261.4</ele>
<time>2024-05-12T12:59:05Z</time>
</trkpt>
<trkpt lat="48.80039974115789" lon="9.471135092899203">
<ele>261.4</ele>
<time>2024-05-12T12:59:06Z</time>
</trkpt>
<trkpt lat="48.800388257950544" lon="9.471197118982673">
<ele>261.6</ele>
<time>2024-05-12T12:59:07Z</time>
</trkpt>
<trkpt lat="48.80037300288677" lon="9.47125813923776">
<ele>261.6</ele>
<time>2024-05-12T12:59:08Z</time>
</trkpt>
<trkpt lat="48.80036160349846" lon="9.471322009339929">
<ele>261.799</ele>
<time>2024-05-12T12:59:09Z</time>
</trkpt>
<trkpt lat="48.800350120291114" lon="9.471383029595016">
<ele>261.799</ele>
<time>2024-05-12T12:59:10Z</time>
</trkpt>
<trkpt lat="48.80033486522734" lon="9.471443127840756">
<ele>261.799</ele>
<time>2024-05-12T12:59:11Z</time>
</trkpt>
<trkpt lat="48.80032346583903" lon="9.471505153924229">
<ele>261.799</ele>
<time>2024-05-12T12:59:12Z</time>
</trkpt>
<trkpt lat="48.80031198263168" lon="9.471561396494508">
<ele>262</ele>
<time>2024-05-12T12:59:13Z</time>
</trkpt>
<trkpt lat="48.8003043550998" lon="9.47161864489317">
<ele>262</ele>
<time>2024-05-12T12:59:14Z</time>
</trkpt>
<trkpt lat="48.800289100036025" lon="9.47167681530118">
<ele>262</ele>
<time>2024-05-12T12:59:15Z</time>
</trkpt>
<trkpt lat="48.80027770064771" lon="9.471731130033731">
<ele>262</ele>
<time>2024-05-12T12:59:16Z</time>
</trkpt>
<trkpt lat="48.80026244558394" lon="9.471786450594664">
<ele>262</ele>
<time>2024-05-12T12:59:17Z</time>
</trkpt>
<trkpt lat="48.800250962376595" lon="9.471843698993323">
<ele>262</ele>
<time>2024-05-12T12:59:18Z</time>
</trkpt>
<trkpt lat="48.80023956298828" lon="9.471898013725877">
<ele>262</ele>
<time>2024-05-12T12:59:19Z</time>
</trkpt>
<trkpt lat="48.80023185163736" lon="9.471955262124538">
<ele>262</ele>
<time>2024-05-12T12:59:20Z</time>
</trkpt>
<trkpt lat="48.80022045224905" lon="9.47200957685709">
<ele>262</ele>
<time>2024-05-12T12:59:21Z</time>
</trkpt>
<trkpt lat="48.80021659657359" lon="9.47206875309348">
<ele>262</ele>
<time>2024-05-12T12:59:22Z</time>
</trkpt>
<trkpt lat="48.800208969041705" lon="9.4721317011863">
<ele>262</ele>
<time>2024-05-12T12:59:23Z</time>
</trkpt>
<trkpt lat="48.80020134150982" lon="9.472196577116849">
<ele>262</ele>
<time>2024-05-12T12:59:24Z</time>
</trkpt>
<trkpt lat="48.800189942121506" lon="9.472263297066092">
<ele>262</ele>
<time>2024-05-12T12:59:25Z</time>
</trkpt>
<trkpt lat="48.80017845891416" lon="9.47232624515891">
<ele>262</ele>
<time>2024-05-12T12:59:26Z</time>
</trkpt>
<trkpt lat="48.80016320385039" lon="9.472392043098807">
<ele>262</ele>
<time>2024-05-12T12:59:27Z</time>
</trkpt>
<trkpt lat="48.800147948786616" lon="9.472453063353896">
<ele>262</ele>
<time>2024-05-12T12:59:28Z</time>
</trkpt>
<trkpt lat="48.8001365493983" lon="9.472515089437366">
<ele>262</ele>
<time>2024-05-12T12:59:29Z</time>
</trkpt>
<trkpt lat="48.80012506619096" lon="9.472578037530184">
<ele>262</ele>
<time>2024-05-12T12:59:30Z</time>
</trkpt>
<trkpt lat="48.80011743865907" lon="9.47263997979462">
<ele>262</ele>
<time>2024-05-12T12:59:31Z</time>
</trkpt>
<trkpt lat="48.80010603927076" lon="9.47270200587809">
<ele>262.2</ele>
<time>2024-05-12T12:59:32Z</time>
</trkpt>
<trkpt lat="48.80009841173887" lon="9.47276210412383">
<ele>262.4</ele>
<time>2024-05-12T12:59:33Z</time>
</trkpt>
<trkpt lat="48.80008692853153" lon="9.472824968397616">
<ele>262.6</ele>
<time>2024-05-12T12:59:34Z</time>
</trkpt>
<trkpt lat="48.800075529143214" lon="9.472887916490436">
<ele>262.6</ele>
<time>2024-05-12T12:59:35Z</time>
</trkpt>
<trkpt lat="48.80006404593587" lon="9.472953714430332">
<ele>262.6</ele>
<time>2024-05-12T12:59:36Z</time>
</trkpt>
<trkpt lat="48.80005641840398" lon="9.47301959618926">
<ele>262.4</ele>
<time>2024-05-12T12:59:37Z</time>
</trkpt>
<trkpt lat="48.80004493519664" lon="9.473086316138506">
<ele>262.4</ele>
<time>2024-05-12T12:59:38Z</time>
</trkpt>
<trkpt lat="48.80003730766475" lon="9.473151192069054">
<ele>262.2</ele>
<time>2024-05-12T12:59:39Z</time>
</trkpt>
<trkpt lat="48.80002590827644" lon="9.473223611712456">
<ele>262.2</ele>
<time>2024-05-12T12:59:40Z</time>
</trkpt>
<trkpt lat="48.800014425069094" lon="9.473297037184238">
<ele>262</ele>
<time>2024-05-12T12:59:41Z</time>
</trkpt>
<trkpt lat="48.80000302568078" lon="9.473366690799594">
<ele>262</ele>
<time>2024-05-12T12:59:42Z</time>
</trkpt>
<trkpt lat="48.799991542473435" lon="9.473438188433647">
<ele>262</ele>
<time>2024-05-12T12:59:43Z</time>
</trkpt>
<trkpt lat="48.79998014308512" lon="9.473509769886732">
<ele>262</ele>
<time>2024-05-12T12:59:44Z</time>
</trkpt>
<trkpt lat="48.79996865987778" lon="9.473583195358517">
<ele>261.799</ele>
<time>2024-05-12T12:59:45Z</time>
</trkpt>
<trkpt lat="48.79996103234589" lon="9.473654692992568">
<ele>261.799</ele>
<time>2024-05-12T12:59:46Z</time>
</trkpt>
<trkpt lat="48.79994963295758" lon="9.47372811846435">
<ele>261.799</ele>
<time>2024-05-12T12:59:47Z</time>
</trkpt>
<trkpt lat="48.79993814975023" lon="9.473799699917436">
<ele>261.6</ele>
<time>2024-05-12T12:59:48Z</time>
</trkpt>
<trkpt lat="48.79992675036192" lon="9.473871197551489">
<ele>261.6</ele>
<time>2024-05-12T12:59:49Z</time>
</trkpt>
<trkpt lat="48.799915267154574" lon="9.473939845338464">
<ele>261.6</ele>
<time>2024-05-12T12:59:50Z</time>
</trkpt>
<trkpt lat="48.79990386776626" lon="9.474003715440633">
<ele>261.6</ele>
<time>2024-05-12T12:59:51Z</time>
</trkpt>
<trkpt lat="48.79988852888346" lon="9.47406666353345">
<ele>261.4</ele>
<time>2024-05-12T12:59:52Z</time>
</trkpt>
<trkpt lat="48.799877129495144" lon="9.47412868961692">
<ele>261.4</ele>
<time>2024-05-12T12:59:53Z</time>
</trkpt>
<trkpt lat="48.79986950196326" lon="9.474189709872007">
<ele>261.4</ele>
<time>2024-05-12T12:59:54Z</time>
</trkpt>
<trkpt lat="48.79985801875591" lon="9.474249808117747">
<ele>261.4</ele>
<time>2024-05-12T12:59:55Z</time>
</trkpt>
<trkpt lat="48.79985039122403" lon="9.474311750382183">
<ele>261.4</ele>
<time>2024-05-12T12:59:56Z</time>
</trkpt>
<trkpt lat="48.79983899183571" lon="9.474372854456306">
<ele>261.2</ele>
<time>2024-05-12T12:59:57Z</time>
</trkpt>
<trkpt lat="48.79983136430383" lon="9.474436724558473">
<ele>261</ele>
<time>2024-05-12T12:59:58Z</time>
</trkpt>
<trkpt lat="48.79981988109648" lon="9.474499672651293">
<ele>261</ele>
<time>2024-05-12T12:59:59Z</time>
</trkpt>
<trkpt lat="48.79980848170817" lon="9.47456454858184">
<ele>261</ele>
<time>2024-05-12T13:00:00Z</time>
</trkpt>
<trkpt lat="48.7997932266444" lon="9.474630346521735">
<ele>261</ele>
<time>2024-05-12T13:00:01Z</time>
</trkpt>
<trkpt lat="48.79978174343705" lon="9.47469706647098">
<ele>261.2</ele>
<time>2024-05-12T13:00:02Z</time>
</trkpt>
<trkpt lat="48.79977034404874" lon="9.474762864410875">
<ele>261.2</ele>
<time>2024-05-12T13:00:03Z</time>
</trkpt>
<trkpt lat="48.79975886084139" lon="9.474828662350774">
<ele>261.2</ele>
<time>2024-05-12T13:00:04Z</time>
</trkpt>
<trkpt lat="48.79974746145308" lon="9.474893538281322">
<ele>261</ele>
<time>2024-05-12T13:00:05Z</time>
</trkpt>
<trkpt lat="48.799735978245735" lon="9.47495841421187">
<ele>261</ele>
<time>2024-05-12T13:00:06Z</time>
</trkpt>
<trkpt lat="48.79972072318196" lon="9.475018428638576">
<ele>261</ele>
<time>2024-05-12T13:00:07Z</time>
</trkpt>
<trkpt lat="48.79970161244273" lon="9.475078526884316">
<ele>261</ele>
<time>2024-05-12T13:00:08Z</time>
</trkpt>
<trkpt lat="48.79969021305442" lon="9.475139547139406">
<ele>260.799</ele>
<time>2024-05-12T13:00:09Z</time>
</trkpt>
<trkpt lat="48.799674957990646" lon="9.475203501060603">
<ele>260.799</ele>
<time>2024-05-12T13:00:10Z</time>
</trkpt>
<trkpt lat="48.79966733045876" lon="9.475266449153423">
<ele>260.799</ele>
<time>2024-05-12T13:00:11Z</time>
</trkpt>
<trkpt lat="48.79965207539499" lon="9.475333169102669">
<ele>260.799</ele>
<time>2024-05-12T13:00:12Z</time>
</trkpt>
<trkpt lat="48.79964059218764" lon="9.475399889051914">
<ele>260.799</ele>
<time>2024-05-12T13:00:13Z</time>
</trkpt>
<trkpt lat="48.79962533712387" lon="9.47546862065792">
<ele>260.799</ele>
<time>2024-05-12T13:00:14Z</time>
</trkpt>
<trkpt lat="48.7996100820601" lon="9.475540118291974">
<ele>260.799</ele>
<time>2024-05-12T13:00:15Z</time>
</trkpt>
<trkpt lat="48.799594826996326" lon="9.475611615926027">
<ele>261</ele>
<time>2024-05-12T13:00:16Z</time>
</trkpt>
<trkpt lat="48.79958342760801" lon="9.475681269541385">
<ele>261</ele>
<time>2024-05-12T13:00:17Z</time>
</trkpt>
<trkpt lat="48.79956817254424" lon="9.475753773003817">
<ele>261.2</ele>
<time>2024-05-12T13:00:18Z</time>
</trkpt>
<trkpt lat="48.799556689336896" lon="9.47582527063787">
<ele>261.2</ele>
<time>2024-05-12T13:00:19Z</time>
</trkpt>
<trkpt lat="48.79954143427312" lon="9.475892996415496">
<ele>261.2</ele>
<time>2024-05-12T13:00:20Z</time>
</trkpt>
<trkpt lat="48.79952995106578" lon="9.47595971636474">
<ele>261.2</ele>
<time>2024-05-12T13:00:21Z</time>
</trkpt>
<trkpt lat="48.799518551677465" lon="9.476030291989446">
<ele>261.2</ele>
<time>2024-05-12T13:00:22Z</time>
</trkpt>
<trkpt lat="48.79951092414558" lon="9.47610187344253">
<ele>261.2</ele>
<time>2024-05-12T13:00:23Z</time>
</trkpt>
<trkpt lat="48.79950329661369" lon="9.476173371076584">
<ele>261.4</ele>
<time>2024-05-12T13:00:24Z</time>
</trkpt>
<trkpt lat="48.79949181340635" lon="9.476244868710635">
<ele>261.4</ele>
<time>2024-05-12T13:00:25Z</time>
</trkpt>
<trkpt lat="48.799480414018035" lon="9.476316450163722">
<ele>261.6</ele>
<time>2024-05-12T13:00:26Z</time>
</trkpt>
<trkpt lat="48.79946893081069" lon="9.476389875635505">
<ele>261.6</ele>
<time>2024-05-12T13:00:27Z</time>
</trkpt>
<trkpt lat="48.79945753142238" lon="9.476461373269558">
<ele>261.6</ele>
<time>2024-05-12T13:00:28Z</time>
</trkpt>
<trkpt lat="48.79944990389049" lon="9.47653672657907">
<ele>261.6</ele>
<time>2024-05-12T13:00:29Z</time>
</trkpt>
<trkpt lat="48.799438420683146" lon="9.476612079888582">
<ele>261.799</ele>
<time>2024-05-12T13:00:30Z</time>
</trkpt>
<trkpt lat="48.79943079315126" lon="9.476684499531984">
<ele>261.799</ele>
<time>2024-05-12T13:00:31Z</time>
</trkpt>
<trkpt lat="48.79942316561937" lon="9.476759852841496">
<ele>261.799</ele>
<time>2024-05-12T13:00:32Z</time>
</trkpt>
<trkpt lat="48.79941553808749" lon="9.476837133988738">
<ele>262</ele>
<time>2024-05-12T13:00:33Z</time>
</trkpt>
<trkpt lat="48.79941176623106" lon="9.476909637451172">
<ele>262</ele>
<time>2024-05-12T13:00:34Z</time>
</trkpt>
<trkpt lat="48.799404138699174" lon="9.476982057094574">
<ele>262</ele>
<time>2024-05-12T13:00:35Z</time>
</trkpt>
<trkpt lat="48.79939651116729" lon="9.47705363854766">
<ele>262</ele>
<time>2024-05-12T13:00:36Z</time>
</trkpt>
<trkpt lat="48.7993888836354" lon="9.477123208343984">
<ele>262</ele>
<time>2024-05-12T13:00:38Z</time>
</trkpt>
<trkpt lat="48.79937740042806" lon="9.477256732061504">
<ele>262</ele>
<time>2024-05-12T13:00:39Z</time>
</trkpt>
<trkpt lat="48.79936977289617" lon="9.477321607992051">
<ele>261.799</ele>
<time>2024-05-12T13:00:40Z</time>
</trkpt>
<trkpt lat="48.79936591722071" lon="9.477388327941298">
<ele>261.6</ele>
<time>2024-05-12T13:00:41Z</time>
</trkpt>
<trkpt lat="48.799358289688826" lon="9.477457981556654">
<ele>261.6</ele>
<time>2024-05-12T13:00:42Z</time>
</trkpt>
<trkpt lat="48.7993545178324" lon="9.4775247015059">
<ele>261.2</ele>
<time>2024-05-12T13:00:43Z</time>
</trkpt>
<trkpt lat="48.79934689030051" lon="9.477591505274177">
<ele>261.2</ele>
<time>2024-05-12T13:00:44Z</time>
</trkpt>
<trkpt lat="48.79934689030051" lon="9.477658225223422">
<ele>261.2</ele>
<time>2024-05-12T13:00:45Z</time>
</trkpt>
<trkpt lat="48.79934689030051" lon="9.4777250289917">
<ele>261</ele>
<time>2024-05-12T13:00:46Z</time>
</trkpt>
<trkpt lat="48.79934689030051" lon="9.477789821103215">
<ele>261.2</ele>
<time>2024-05-12T13:00:47Z</time>
</trkpt>
<trkpt lat="48.79934303462505" lon="9.477854697033765">
<ele>261</ele>
<time>2024-05-12T13:00:48Z</time>
</trkpt>
<trkpt lat="48.79934303462505" lon="9.47791856713593">
<ele>261</ele>
<time>2024-05-12T13:00:49Z</time>
</trkpt>
<trkpt lat="48.79934689030051" lon="9.47797673754394">
<ele>261.2</ele>
<time>2024-05-12T13:00:50Z</time>
</trkpt>
<trkpt lat="48.79935066215694" lon="9.478033063933252">
<ele>261.2</ele>
<time>2024-05-12T13:00:51Z</time>
</trkpt>
<trkpt lat="48.799358289688826" lon="9.478091234341264">
<ele>261.4</ele>
<time>2024-05-12T13:00:52Z</time>
</trkpt>
<trkpt lat="48.79936591722071" lon="9.478151248767972">
<ele>261.4</ele>
<time>2024-05-12T13:00:53Z</time>
</trkpt>
<trkpt lat="48.7993735447526" lon="9.478210425004365">
<ele>261.6</ele>
<time>2024-05-12T13:00:54Z</time>
</trkpt>
<trkpt lat="48.79938125610352" lon="9.47827337309718">
<ele>261.799</ele>
<time>2024-05-12T13:00:55Z</time>
</trkpt>
<trkpt lat="48.7993888836354" lon="9.47833531536162">
<ele>261.799</ele>
<time>2024-05-12T13:00:56Z</time>
</trkpt>
<trkpt lat="48.79939265549183" lon="9.478398263454435">
<ele>261.6</ele>
<time>2024-05-12T13:00:57Z</time>
</trkpt>
<trkpt lat="48.79939651116729" lon="9.47845458984375">
<ele>261.799</ele>
<time>2024-05-12T13:00:58Z</time>
</trkpt>
<trkpt lat="48.799404138699174" lon="9.478506976738572">
<ele>261.4</ele>
<time>2024-05-12T13:00:59Z</time>
</trkpt>
<trkpt lat="48.7994079105556" lon="9.478567074984312">
<ele>261.4</ele>
<time>2024-05-12T13:01:00Z</time>
</trkpt>
<trkpt lat="48.7994079105556" lon="9.478623317554591">
<ele>261.4</ele>
<time>2024-05-12T13:01:01Z</time>
</trkpt>
<trkpt lat="48.79941176623106" lon="9.478678638115523">
<ele>261.4</ele>
<time>2024-05-12T13:01:02Z</time>
</trkpt>
<trkpt lat="48.7994079105556" lon="9.47873018682003">
<ele>261.4</ele>
<time>2024-05-12T13:01:03Z</time>
</trkpt>
<trkpt lat="48.799404138699174" lon="9.478779723867774">
<ele>261.4</ele>
<time>2024-05-12T13:01:04Z</time>
</trkpt>
<trkpt lat="48.799404138699174" lon="9.478830266743898">
<ele>261.4</ele>
<time>2024-05-12T13:01:05Z</time>
</trkpt>
<trkpt lat="48.799404138699174" lon="9.478875109925866">
<ele>261.4</ele>
<time>2024-05-12T13:01:06Z</time>
</trkpt>
<trkpt lat="48.799404138699174" lon="9.478917103260756">
<ele>261.4</ele>
<time>2024-05-12T13:01:07Z</time>
</trkpt>
<trkpt lat="48.799404138699174" lon="9.478955240920186">
<ele>261.6</ele>
<time>2024-05-12T13:01:08Z</time>
</trkpt>
<trkpt lat="48.799400283023715" lon="9.478993378579617">
<ele>261.6</ele>
<time>2024-05-12T13:01:09Z</time>
</trkpt>
<trkpt lat="48.799404138699174" lon="9.479031516239049">
<ele>261.6</ele>
<time>2024-05-12T13:01:10Z</time>
</trkpt>
<trkpt lat="48.79941176623106" lon="9.479071581736209">
<ele>261.6</ele>
<time>2024-05-12T13:01:11Z</time>
</trkpt>
<trkpt lat="48.79942316561937" lon="9.479113575071096">
<ele>261.6</ele>
<time>2024-05-12T13:01:12Z</time>
</trkpt>
<trkpt lat="48.79944227635861" lon="9.47914500720799">
<ele>261.6</ele>
<time>2024-05-12T13:01:13Z</time>
</trkpt>
<trkpt lat="48.7994613032788" lon="9.479173589497805">
<ele>261.6</ele>
<time>2024-05-12T13:01:14Z</time>
</trkpt>
<trkpt lat="48.799480414018035" lon="9.479193622246385">
<ele>261.6</ele>
<time>2024-05-12T13:01:15Z</time>
</trkpt>
<trkpt lat="48.79950706847012" lon="9.479211727157235">
<ele>261.6</ele>
<time>2024-05-12T13:01:16Z</time>
</trkpt>
<trkpt lat="48.799537578597665" lon="9.479231759905815">
<ele>261.6</ele>
<time>2024-05-12T13:01:17Z</time>
</trkpt>
<trkpt lat="48.79956817254424" lon="9.479253720492125">
<ele>261.4</ele>
<time>2024-05-12T13:01:18Z</time>
</trkpt>
<trkpt lat="48.799594826996326" lon="9.479274675250052">
<ele>261.4</ele>
<time>2024-05-12T13:01:19Z</time>
</trkpt>
<trkpt lat="48.79962533712387" lon="9.479298563674092">
<ele>261.2</ele>
<time>2024-05-12T13:01:20Z</time>
</trkpt>
<trkpt lat="48.79965207539499" lon="9.479316668584945">
<ele>261</ele>
<time>2024-05-12T13:01:21Z</time>
</trkpt>
<trkpt lat="48.79968258552253" lon="9.479325218126178">
<ele>260.799</ele>
<time>2024-05-12T13:01:22Z</time>
</trkpt>
<trkpt lat="48.799716867506504" lon="9.47932337410748">
<ele>260.799</ele>
<time>2024-05-12T13:01:23Z</time>
</trkpt>
<trkpt lat="48.799755088984966" lon="9.479318596422672">
<ele>260.6</ele>
<time>2024-05-12T13:01:24Z</time>
</trkpt>
<trkpt lat="48.7997932266444" lon="9.479311890900137">
<ele>260.6</ele>
<time>2024-05-12T13:01:25Z</time>
</trkpt>
<trkpt lat="48.799835136160254" lon="9.479309963062406">
<ele>260.4</ele>
<time>2024-05-12T13:01:26Z</time>
</trkpt>
<trkpt lat="48.799873273819685" lon="9.479311890900137">
<ele>260.2</ele>
<time>2024-05-12T13:01:27Z</time>
</trkpt>
<trkpt lat="48.79991149529815" lon="9.479311890900137">
<ele>260.2</ele>
<time>2024-05-12T13:01:28Z</time>
</trkpt>
<trkpt lat="48.799953404814005" lon="9.479325218126178">
<ele>259.799</ele>
<time>2024-05-12T13:01:29Z</time>
</trkpt>
<trkpt lat="48.79998777061701" lon="9.47936151176691">
<ele>259.4</ele>
<time>2024-05-12T13:01:30Z</time>
</trkpt>
<trkpt lat="48.80001065321267" lon="9.479406354948878">
<ele>259.2</ele>
<time>2024-05-12T13:01:31Z</time>
</trkpt>
<trkpt lat="48.800033535808325" lon="9.479450192302464">
<ele>259</ele>
<time>2024-05-12T13:01:32Z</time>
</trkpt>
<trkpt lat="48.80005641840398" lon="9.479483552277088">
<ele>259</ele>
<time>2024-05-12T13:01:33Z</time>
</trkpt>
<trkpt lat="48.80008692853153" lon="9.47950165718794">
<ele>259</ele>
<time>2024-05-12T13:01:34Z</time>
</trkpt>
<trkpt lat="48.80011743865907" lon="9.479513140395284">
<ele>259.2</ele>
<time>2024-05-12T13:01:35Z</time>
</trkpt>
<trkpt lat="48.800147948786616" lon="9.47952168993652">
<ele>259.2</ele>
<time>2024-05-12T13:01:36Z</time>
</trkpt>
<trkpt lat="48.80017845891416" lon="9.479533173143864">
<ele>259.2</ele>
<time>2024-05-12T13:01:37Z</time>
</trkpt>
<trkpt lat="48.80020134150982" lon="9.479557983577251">
<ele>259.2</ele>
<time>2024-05-12T13:01:38Z</time>
</trkpt>
<trkpt lat="48.80022422410548" lon="9.479593271389604">
<ele>259.4</ele>
<time>2024-05-12T13:01:39Z</time>
</trkpt>
<trkpt lat="48.80023956298828" lon="9.479628559201956">
<ele>259.4</ele>
<time>2024-05-12T13:01:40Z</time>
</trkpt>
<trkpt lat="48.800250962376595" lon="9.479659991338847">
<ele>259.4</ele>
<time>2024-05-12T13:01:41Z</time>
</trkpt>
<trkpt lat="48.80025481805205" lon="9.479693351313472">
<ele>259.6</ele>
<time>2024-05-12T13:01:42Z</time>
</trkpt>
<trkpt lat="48.80025481805205" lon="9.479722017422318">
<ele>259.6</ele>
<time>2024-05-12T13:01:43Z</time>
</trkpt>
<trkpt lat="48.800250962376595" lon="9.479744900017977">
<ele>259.799</ele>
<time>2024-05-12T13:01:44Z</time>
</trkpt>
<trkpt lat="48.80024719052017" lon="9.479769626632333">
<ele>259.799</ele>
<time>2024-05-12T13:01:45Z</time>
</trkpt>
<trkpt lat="48.800250962376595" lon="9.479803070425987">
<ele>260</ele>
<time>2024-05-12T13:01:46Z</time>
</trkpt>
<trkpt lat="48.800250962376595" lon="9.479843135923147">
<ele>260</ele>
<time>2024-05-12T13:01:47Z</time>
</trkpt>
<trkpt lat="48.80025481805205" lon="9.479887895286083">
<ele>260</ele>
<time>2024-05-12T13:01:48Z</time>
</trkpt>
<trkpt lat="48.80025481805205" lon="9.4799336604774">
<ele>260.2</ele>
<time>2024-05-12T13:01:49Z</time>
</trkpt>
<trkpt lat="48.80025481805205" lon="9.479981353506446">
<ele>260.2</ele>
<time>2024-05-12T13:01:50Z</time>
</trkpt>
<trkpt lat="48.80025481805205" lon="9.48003189638257">
<ele>260.2</ele>
<time>2024-05-12T13:01:51Z</time>
</trkpt>
<trkpt lat="48.80026244558394" lon="9.480081517249346">
<ele>260.2</ele>
<time>2024-05-12T13:01:52Z</time>
</trkpt>
<trkpt lat="48.80026621744037" lon="9.480134909972548">
<ele>260.2</ele>
<time>2024-05-12T13:01:53Z</time>
</trkpt>
<trkpt lat="48.80026621744037" lon="9.48019115254283">
<ele>260.4</ele>
<time>2024-05-12T13:01:54Z</time>
</trkpt>
<trkpt lat="48.800270073115826" lon="9.480246473103762">
<ele>260.4</ele>
<time>2024-05-12T13:01:55Z</time>
</trkpt>
<trkpt lat="48.80027770064771" lon="9.480303721502423">
<ele>260.4</ele>
<time>2024-05-12T13:01:56Z</time>
</trkpt>
<trkpt lat="48.80028147250414" lon="9.480361891910434">
<ele>260.4</ele>
<time>2024-05-12T13:01:57Z</time>
</trkpt>
<trkpt lat="48.80029295571149" lon="9.480418134480717">
<ele>260.4</ele>
<time>2024-05-12T13:01:58Z</time>
</trkpt>
<trkpt lat="48.8003043550998" lon="9.480475382879376">
<ele>260.4</ele>
<time>2024-05-12T13:01:59Z</time>
</trkpt>
<trkpt lat="48.80031583830714" lon="9.48052785359323">
<ele>260.4</ele>
<time>2024-05-12T13:02:00Z</time>
</trkpt>
<trkpt lat="48.800327237695456" lon="9.480583174154162">
<ele>260.4</ele>
<time>2024-05-12T13:02:01Z</time>
</trkpt>
<trkpt lat="48.8003387209028" lon="9.480636566877363">
<ele>260.4</ele>
<time>2024-05-12T13:02:02Z</time>
</trkpt>
<trkpt lat="48.800350120291114" lon="9.480691887438295">
<ele>260.4</ele>
<time>2024-05-12T13:02:03Z</time>
</trkpt>
<trkpt lat="48.800365375354886" lon="9.480746202170849">
<ele>260.4</ele>
<time>2024-05-12T13:02:04Z</time>
</trkpt>
<trkpt lat="48.80038063041866" lon="9.48080152273178">
<ele>260.4</ele>
<time>2024-05-12T13:02:05Z</time>
</trkpt>
<trkpt lat="48.80039588548243" lon="9.480854915454984">
<ele>260.4</ele>
<time>2024-05-12T13:02:06Z</time>
</trkpt>
<trkpt lat="48.800411224365234" lon="9.480910236015916">
<ele>260.4</ele>
<time>2024-05-12T13:02:07Z</time>
</trkpt>
<trkpt lat="48.80042647942901" lon="9.48096362873912">
<ele>260.4</ele>
<time>2024-05-12T13:02:08Z</time>
</trkpt>
<trkpt lat="48.80044173449278" lon="9.481018027290702">
<ele>260.4</ele>
<time>2024-05-12T13:02:09Z</time>
</trkpt>
<trkpt lat="48.80045698955655" lon="9.481073347851634">
<ele>260.4</ele>
<time>2024-05-12T13:02:10Z</time>
</trkpt>
<trkpt lat="48.800468388944864" lon="9.481129590421917">
<ele>260.4</ele>
<time>2024-05-12T13:02:11Z</time>
</trkpt>
<trkpt lat="48.80047987215221" lon="9.481188766658306">
<ele>260.4</ele>
<time>2024-05-12T13:02:12Z</time>
</trkpt>
<trkpt lat="48.80049512721598" lon="9.481249786913397">
<ele>260.4</ele>
<time>2024-05-12T13:02:13Z</time>
</trkpt>
<trkpt lat="48.800506526604295" lon="9.481313657015562">
<ele>260.6</ele>
<time>2024-05-12T13:02:14Z</time>
</trkpt>
<trkpt lat="48.80052178166807" lon="9.48138046078384">
<ele>260.6</ele>
<time>2024-05-12T13:02:15Z</time>
</trkpt>
<trkpt lat="48.80053703673184" lon="9.48145288042724">
<ele>260.799</ele>
<time>2024-05-12T13:02:16Z</time>
</trkpt>
<trkpt lat="48.80055614747107" lon="9.481526305899024">
<ele>260.799</ele>
<time>2024-05-12T13:02:17Z</time>
</trkpt>
<trkpt lat="48.80057517439127" lon="9.481604509055614">
<ele>260.799</ele>
<time>2024-05-12T13:02:18Z</time>
</trkpt>
<trkpt lat="48.80060191266239" lon="9.481677012518048">
<ele>261</ele>
<time>2024-05-12T13:02:19Z</time>
</trkpt>
<trkpt lat="48.80063627846539" lon="9.481738032773135">
<ele>261</ele>
<time>2024-05-12T13:02:20Z</time>
</trkpt>
<trkpt lat="48.80067441612482" lon="9.4817952811718">
<ele>261</ele>
<time>2024-05-12T13:02:21Z</time>
</trkpt>
<trkpt lat="48.80071255378425" lon="9.48185345157981">
<ele>261</ele>
<time>2024-05-12T13:02:22Z</time>
</trkpt>
<trkpt lat="48.80075069144368" lon="9.48190877214074">
<ele>261.2</ele>
<time>2024-05-12T13:02:23Z</time>
</trkpt>
<trkpt lat="48.80078882910311" lon="9.481965014711022">
<ele>261.2</ele>
<time>2024-05-12T13:02:24Z</time>
</trkpt>
<trkpt lat="48.800823194906116" lon="9.482020335271956">
<ele>261</ele>
<time>2024-05-12T13:02:25Z</time>
</trkpt>
<trkpt lat="48.800861332565546" lon="9.482076577842236">
<ele>260.799</ele>
<time>2024-05-12T13:02:26Z</time>
</trkpt>
<trkpt lat="48.80089561454952" lon="9.482129970565438">
<ele>260.6</ele>
<time>2024-05-12T13:02:27Z</time>
</trkpt>
<trkpt lat="48.80092998035252" lon="9.482181519269943">
<ele>260.6</ele>
<time>2024-05-12T13:02:28Z</time>
</trkpt>
<trkpt lat="48.80095671862364" lon="9.482232984155416">
<ele>260.6</ele>
<time>2024-05-12T13:02:29Z</time>
</trkpt>
<trkpt lat="48.80099100060761" lon="9.48228453285992">
<ele>260.6</ele>
<time>2024-05-12T13:02:30Z</time>
</trkpt>
<trkpt lat="48.801021510735154" lon="9.482339853420854">
<ele>260.6</ele>
<time>2024-05-12T13:02:31Z</time>
</trkpt>
<trkpt lat="48.8010520208627" lon="9.482395090162754">
<ele>260.799</ele>
<time>2024-05-12T13:02:32Z</time>
</trkpt>
<trkpt lat="48.8010863866657" lon="9.482448566704988">
<ele>260.799</ele>
<time>2024-05-12T13:02:33Z</time>
</trkpt>
<trkpt lat="48.801116896793246" lon="9.48250288143754">
<ele>261</ele>
<time>2024-05-12T13:02:34Z</time>
</trkpt>
<trkpt lat="48.80114740692079" lon="9.482556274160745">
<ele>261.2</ele>
<time>2024-05-12T13:02:35Z</time>
</trkpt>
<trkpt lat="48.801177917048335" lon="9.482609666883944">
<ele>261</ele>
<time>2024-05-12T13:02:36Z</time>
</trkpt>
<trkpt lat="48.80120842717588" lon="9.482660293579102">
<ele>261.2</ele>
<time>2024-05-12T13:02:37Z</time>
</trkpt>
<trkpt lat="48.80124279297888" lon="9.482709830626844">
<ele>261.4</ele>
<time>2024-05-12T13:02:38Z</time>
</trkpt>
<trkpt lat="48.80126953125" lon="9.482763223350048">
<ele>261.4</ele>
<time>2024-05-12T13:02:39Z</time>
</trkpt>
<trkpt lat="48.801300041377544" lon="9.482814772054551">
<ele>261.4</ele>
<time>2024-05-12T13:02:40Z</time>
</trkpt>
<trkpt lat="48.80132669582963" lon="9.482868164777756">
<ele>261.4</ele>
<time>2024-05-12T13:02:41Z</time>
</trkpt>
<trkpt lat="48.801357205957174" lon="9.482919629663227">
<ele>261.4</ele>
<time>2024-05-12T13:02:42Z</time>
</trkpt>
<trkpt lat="48.80138771608472" lon="9.482971178367734">
<ele>261.4</ele>
<time>2024-05-12T13:02:43Z</time>
</trkpt>
<trkpt lat="48.80141822621226" lon="9.483023565262556">
<ele>261.4</ele>
<time>2024-05-12T13:02:44Z</time>
</trkpt>
<trkpt lat="48.80144882015884" lon="9.483073186129332">
<ele>261.4</ele>
<time>2024-05-12T13:02:45Z</time>
</trkpt>
<trkpt lat="48.801475474610925" lon="9.483126578852534">
<ele>261.4</ele>
<time>2024-05-12T13:02:46Z</time>
</trkpt>
<trkpt lat="48.80150984041393" lon="9.48317812755704">
<ele>261.4</ele>
<time>2024-05-12T13:02:47Z</time>
</trkpt>
<trkpt lat="48.80154035054147" lon="9.483224814757705">
<ele>261.6</ele>
<time>2024-05-12T13:02:48Z</time>
</trkpt>
<trkpt lat="48.80157086066902" lon="9.4832734297961">
<ele>261.6</ele>
<time>2024-05-12T13:02:49Z</time>
</trkpt>
<trkpt lat="48.80160137079656" lon="9.483316345140338">
<ele>261.799</ele>
<time>2024-05-12T13:02:50Z</time>
</trkpt>
<trkpt lat="48.801631880924106" lon="9.48335163295269">
<ele>261.799</ele>
<time>2024-05-12T13:02:51Z</time>
</trkpt>
<trkpt lat="48.80166624672711" lon="9.483381221070886">
<ele>261.6</ele>
<time>2024-05-12T13:02:52Z</time>
</trkpt>
<trkpt lat="48.80169675685465" lon="9.48341365903616">
<ele>261.6</ele>
<time>2024-05-12T13:02:53Z</time>
</trkpt>
<trkpt lat="48.80172341130674" lon="9.48345179669559">
<ele>261.4</ele>
<time>2024-05-12T13:02:54Z</time>
</trkpt>
<trkpt lat="48.80173866637051" lon="9.483498567715287">
<ele>261.4</ele>
<time>2024-05-12T13:02:55Z</time>
</trkpt>
<trkpt lat="48.8017462939024" lon="9.483546176925302">
<ele>261.2</ele>
<time>2024-05-12T13:02:56Z</time>
</trkpt>
<trkpt lat="48.8017462939024" lon="9.483598647639155">
<ele>261.2</ele>
<time>2024-05-12T13:02:57Z</time>
</trkpt>
<trkpt lat="48.80173866637051" lon="9.48365304619074">
<ele>260.799</ele>
<time>2024-05-12T13:02:58Z</time>
</trkpt>
<trkpt lat="48.801731038838625" lon="9.483710210770369">
<ele>260.4</ele>
<time>2024-05-12T13:02:59Z</time>
</trkpt>
<trkpt lat="48.80172341130674" lon="9.48376838117838">
<ele>260.4</ele>
<time>2024-05-12T13:03:00Z</time>
</trkpt>
<trkpt lat="48.80172341130674" lon="9.483830407261848">
<ele>260.2</ele>
<time>2024-05-12T13:03:01Z</time>
</trkpt>
<trkpt lat="48.80172341130674" lon="9.483893355354668">
<ele>260.2</ele>
<time>2024-05-12T13:03:02Z</time>
</trkpt>
<trkpt lat="48.8017272669822" lon="9.483958231285214">
<ele>260.2</ele>
<time>2024-05-12T13:03:03Z</time>
</trkpt>
<trkpt lat="48.801731038838625" lon="9.484022101387382">
<ele>260</ele>
<time>2024-05-12T13:03:04Z</time>
</trkpt>
<trkpt lat="48.80173489451408" lon="9.48408697731793">
<ele>260</ele>
<time>2024-05-12T13:03:05Z</time>
</trkpt>
<trkpt lat="48.80174252204597" lon="9.484153697267176">
<ele>260</ele>
<time>2024-05-12T13:03:06Z</time>
</trkpt>
<trkpt lat="48.801750149577856" lon="9.484218573197722">
<ele>259.799</ele>
<time>2024-05-12T13:03:07Z</time>
</trkpt>
<trkpt lat="48.80175777710974" lon="9.484285293146968">
<ele>259.799</ele>
<time>2024-05-12T13:03:08Z</time>
</trkpt>
<trkpt lat="48.80176540464163" lon="9.484350169077516">
<ele>260</ele>
<time>2024-05-12T13:03:09Z</time>
</trkpt>
<trkpt lat="48.801773032173514" lon="9.48441688902676">
<ele>260</ele>
<time>2024-05-12T13:03:10Z</time>
</trkpt>
<trkpt lat="48.8017806597054" lon="9.484483692795038">
<ele>260</ele>
<time>2024-05-12T13:03:11Z</time>
</trkpt>
<trkpt lat="48.80178828723729" lon="9.484550412744284">
<ele>260.2</ele>
<time>2024-05-12T13:03:12Z</time>
</trkpt>
<trkpt lat="48.801792142912745" lon="9.48461621068418">
<ele>260.2</ele>
<time>2024-05-12T13:03:13Z</time>
</trkpt>
<trkpt lat="48.80180354230106" lon="9.484686786308885">
<ele>260.4</ele>
<time>2024-05-12T13:03:14Z</time>
</trkpt>
<trkpt lat="48.80180739797652" lon="9.48475643992424">
<ele>260.4</ele>
<time>2024-05-12T13:03:15Z</time>
</trkpt>
<trkpt lat="48.8018150255084" lon="9.484827937558292">
<ele>260.6</ele>
<time>2024-05-12T13:03:16Z</time>
</trkpt>
<trkpt lat="48.80181879736483" lon="9.484899519011378">
<ele>260.799</ele>
<time>2024-05-12T13:03:17Z</time>
</trkpt>
<trkpt lat="48.80182265304029" lon="9.48497193865478">
<ele>260.799</ele>
<time>2024-05-12T13:03:18Z</time>
</trkpt>
<trkpt lat="48.80182642489672" lon="9.485043520107864">
<ele>260.799</ele>
<time>2024-05-12T13:03:19Z</time>
</trkpt>
<trkpt lat="48.8018340524286" lon="9.485116945579648">
<ele>260.6</ele>
<time>2024-05-12T13:03:20Z</time>
</trkpt>
<trkpt lat="48.80184167996049" lon="9.485186515375972">
<ele>260.6</ele>
<time>2024-05-12T13:03:21Z</time>
</trkpt>
<trkpt lat="48.801853163167834" lon="9.485258096829057">
<ele>260.799</ele>
<time>2024-05-12T13:03:22Z</time>
</trkpt>
<trkpt lat="48.80185693502426" lon="9.48533152230084">
<ele>260.799</ele>
<time>2024-05-12T13:03:23Z</time>
</trkpt>
<trkpt lat="48.80186456255615" lon="9.485403019934893">
<ele>260.799</ele>
<time>2024-05-12T13:03:24Z</time>
</trkpt>
<trkpt lat="48.80186841823161" lon="9.485474517568946">
<ele>261</ele>
<time>2024-05-12T13:03:25Z</time>
</trkpt>
<trkpt lat="48.801872190088034" lon="9.485547943040729">
<ele>261.2</ele>
<time>2024-05-12T13:03:26Z</time>
</trkpt>
<trkpt lat="48.80187981761992" lon="9.48562329635024">
<ele>261.4</ele>
<time>2024-05-12T13:03:27Z</time>
</trkpt>
<trkpt lat="48.80188367329538" lon="9.485696721822023">
<ele>261.6</ele>
<time>2024-05-12T13:03:28Z</time>
</trkpt>
<trkpt lat="48.801887445151806" lon="9.48576637543738">
<ele>261.6</ele>
<time>2024-05-12T13:03:29Z</time>
</trkpt>
<trkpt lat="48.80189507268369" lon="9.485836951062083">
<ele>261.6</ele>
<time>2024-05-12T13:03:30Z</time>
</trkpt>
<trkpt lat="48.80189892835915" lon="9.485908448696136">
<ele>261.799</ele>
<time>2024-05-12T13:03:31Z</time>
</trkpt>
<trkpt lat="48.80190655589104" lon="9.485978102311492">
<ele>261.799</ele>
<time>2024-05-12T13:03:32Z</time>
</trkpt>
<trkpt lat="48.801910327747464" lon="9.486048677936196">
<ele>262</ele>
<time>2024-05-12T13:03:33Z</time>
</trkpt>
<trkpt lat="48.80191795527935" lon="9.486115397885442">
<ele>262</ele>
<time>2024-05-12T13:03:34Z</time>
</trkpt>
<trkpt lat="48.80192181095481" lon="9.48618027381599">
<ele>262.2</ele>
<time>2024-05-12T13:03:35Z</time>
</trkpt>
<trkpt lat="48.801929438486695" lon="9.486243221908808">
<ele>262.2</ele>
<time>2024-05-12T13:03:36Z</time>
</trkpt>
<trkpt lat="48.80193321034312" lon="9.486305164173244">
<ele>262.2</ele>
<time>2024-05-12T13:03:37Z</time>
</trkpt>
<trkpt lat="48.80194469355047" lon="9.486370040103791">
<ele>262.4</ele>
<time>2024-05-12T13:03:38Z</time>
</trkpt>
<trkpt lat="48.801952321082354" lon="9.486432988196611">
<ele>262.4</ele>
<time>2024-05-12T13:03:39Z</time>
</trkpt>
<trkpt lat="48.80195994861424" lon="9.48649685829878">
<ele>262.4</ele>
<time>2024-05-12T13:03:40Z</time>
</trkpt>
<trkpt lat="48.801967576146126" lon="9.486555028706787">
<ele>262.4</ele>
<time>2024-05-12T13:03:41Z</time>
</trkpt>
<trkpt lat="48.801971431821585" lon="9.4866131991148">
<ele>262.4</ele>
<time>2024-05-12T13:03:42Z</time>
</trkpt>
<trkpt lat="48.80197905935347" lon="9.486669525504112">
<ele>262.4</ele>
<time>2024-05-12T13:03:43Z</time>
</trkpt>
<trkpt lat="48.80198668688536" lon="9.486724846065044">
<ele>262.2</ele>
<time>2024-05-12T13:03:44Z</time>
</trkpt>
<trkpt lat="48.80198668688536" lon="9.486776310950518">
<ele>262.2</ele>
<time>2024-05-12T13:03:45Z</time>
</trkpt>
<trkpt lat="48.801990458741784" lon="9.486827775835993">
<ele>262.2</ele>
<time>2024-05-12T13:03:46Z</time>
</trkpt>
<trkpt lat="48.80199808627367" lon="9.486876474693418">
<ele>262.2</ele>
<time>2024-05-12T13:03:47Z</time>
</trkpt>
<trkpt lat="48.80200571380555" lon="9.486921234056354">
<ele>262</ele>
<time>2024-05-12T13:03:48Z</time>
</trkpt>
<trkpt lat="48.80202482454479" lon="9.486963227391245">
<ele>261.799</ele>
<time>2024-05-12T13:03:49Z</time>
</trkpt>
<trkpt lat="48.80205147899687" lon="9.486999437212944">
<ele>261.799</ele>
<time>2024-05-12T13:03:50Z</time>
</trkpt>
<trkpt lat="48.80207821726799" lon="9.48702810332179">
<ele>261.6</ele>
<time>2024-05-12T13:03:51Z</time>
</trkpt>
<trkpt lat="48.80212012678385" lon="9.487039502710104">
<ele>261.6</ele>
<time>2024-05-12T13:03:52Z</time>
</trkpt>
<trkpt lat="48.80216212011874" lon="9.487039502710104">
<ele>261.4</ele>
<time>2024-05-12T13:03:53Z</time>
</trkpt>
<trkpt lat="48.80220411345363" lon="9.487032881006598">
<ele>261.4</ele>
<time>2024-05-12T13:03:54Z</time>
</trkpt>
<trkpt lat="48.80224225111306" lon="9.487023325636985">
<ele>261.4</ele>
<time>2024-05-12T13:03:55Z</time>
</trkpt>
<trkpt lat="48.80228038877249" lon="9.487012848258018">
<ele>261.6</ele>
<time>2024-05-12T13:03:56Z</time>
</trkpt>
<trkpt lat="48.80231852643192" lon="9.486999437212944">
<ele>261.6</ele>
<time>2024-05-12T13:03:57Z</time>
</trkpt>
<trkpt lat="48.80236051976681" lon="9.486991809681058">
<ele>261.6</ele>
<time>2024-05-12T13:03:58Z</time>
</trkpt>
<trkpt lat="48.80239865742624" lon="9.486981332302094">
<ele>261.6</ele>
<time>2024-05-12T13:03:59Z</time>
</trkpt>
<trkpt lat="48.80243679508567" lon="9.486971776932478">
<ele>261.6</ele>
<time>2024-05-12T13:04:00Z</time>
</trkpt>
<trkpt lat="48.8024749327451" lon="9.486960377544165">
<ele>261.6</ele>
<time>2024-05-12T13:04:01Z</time>
</trkpt>
<trkpt lat="48.80251692607999" lon="9.48694797232747">
<ele>261.4</ele>
<time>2024-05-12T13:04:02Z</time>
</trkpt>
<trkpt lat="48.80255506373942" lon="9.486936489120126">
<ele>261.4</ele>
<time>2024-05-12T13:04:03Z</time>
</trkpt>
<trkpt lat="48.80259697325528" lon="9.486925089731812">
<ele>261.4</ele>
<time>2024-05-12T13:04:04Z</time>
</trkpt>
<trkpt lat="48.802638966590166" lon="9.48690983466804">
<ele>261.4</ele>
<time>2024-05-12T13:04:05Z</time>
</trkpt>
<trkpt lat="48.802680959925056" lon="9.48689172975719">
<ele>261.4</ele>
<time>2024-05-12T13:04:06Z</time>
</trkpt>
<trkpt lat="48.80272286944091" lon="9.48687169700861">
<ele>261.4</ele>
<time>2024-05-12T13:04:07Z</time>
</trkpt>
<trkpt lat="48.8027648627758" lon="9.48685359209776">
<ele>261.4</ele>
<time>2024-05-12T13:04:08Z</time>
</trkpt>
<trkpt lat="48.80280677229166" lon="9.486835403367875">
<ele>261.6</ele>
<time>2024-05-12T13:04:09Z</time>
</trkpt>
<trkpt lat="48.80284876562655" lon="9.486818304285409">
<ele>261.6</ele>
<time>2024-05-12T13:04:10Z</time>
</trkpt>
<trkpt lat="48.80288313142955" lon="9.486802043393254">
<ele>261.799</ele>
<time>2024-05-12T13:04:11Z</time>
</trkpt>
<trkpt lat="48.80292504094541" lon="9.486786788329482">
<ele>262</ele>
<time>2024-05-12T13:04:12Z</time>
</trkpt>
<trkpt lat="48.802959406748414" lon="9.486768683418632">
<ele>262.2</ele>
<time>2024-05-12T13:04:13Z</time>
</trkpt>
<trkpt lat="48.80299377255142" lon="9.4867495726794">
<ele>262.2</ele>
<time>2024-05-12T13:04:14Z</time>
</trkpt>
<trkpt lat="48.80303191021085" lon="9.48673146776855">
<ele>262.4</ele>
<time>2024-05-12T13:04:15Z</time>
</trkpt>
<trkpt lat="48.80307004787028" lon="9.4867133628577">
<ele>262.6</ele>
<time>2024-05-12T13:04:16Z</time>
</trkpt>
<trkpt lat="48.80310818552971" lon="9.48669140227139">
<ele>262.6</ele>
<time>2024-05-12T13:04:17Z</time>
</trkpt>
<trkpt lat="48.80314632318914" lon="9.486669525504112">
<ele>262.8</ele>
<time>2024-05-12T13:04:18Z</time>
</trkpt>
<trkpt lat="48.80318831652403" lon="9.486651420593262">
<ele>263</ele>
<time>2024-05-12T13:04:19Z</time>
</trkpt>
<trkpt lat="48.80322645418346" lon="9.4866303820163">
<ele>263.2</ele>
<time>2024-05-12T13:04:20Z</time>
</trkpt>
<trkpt lat="48.80326836369932" lon="9.486611355096102">
<ele>263.4</ele>
<time>2024-05-12T13:04:21Z</time>
</trkpt>
<trkpt lat="48.80330272950232" lon="9.486591322347522">
<ele>263.6</ele>
<time>2024-05-12T13:04:22Z</time>
</trkpt>
<trkpt lat="48.80334086716175" lon="9.486571289598942">
<ele>263.8</ele>
<time>2024-05-12T13:04:23Z</time>
</trkpt>
<trkpt lat="48.803375232964754" lon="9.486546479165554">
<ele>263.8</ele>
<time>2024-05-12T13:04:24Z</time>
</trkpt>
<trkpt lat="48.803413370624185" lon="9.48651689104736">
<ele>263.8</ele>
<time>2024-05-12T13:04:25Z</time>
</trkpt>
<trkpt lat="48.803451508283615" lon="9.486486380919814">
<ele>264</ele>
<time>2024-05-12T13:04:26Z</time>
</trkpt>
<trkpt lat="48.80349341779947" lon="9.48645679280162">
<ele>264</ele>
<time>2024-05-12T13:04:27Z</time>
</trkpt>
<trkpt lat="48.80353541113436" lon="9.486441537737846">
<ele>264</ele>
<time>2024-05-12T13:04:28Z</time>
</trkpt>
<trkpt lat="48.80357740446925" lon="9.486445393413304">
<ele>264</ele>
<time>2024-05-12T13:04:29Z</time>
</trkpt>
<trkpt lat="48.80361554212868" lon="9.486466348171234">
<ele>264</ele>
<time>2024-05-12T13:04:30Z</time>
</trkpt>
<trkpt lat="48.80364605225623" lon="9.486504485830665">
<ele>264</ele>
<time>2024-05-12T13:04:31Z</time>
</trkpt>
<trkpt lat="48.803665079176426" lon="9.486553184688091">
<ele>264</ele>
<time>2024-05-12T13:04:32Z</time>
</trkpt>
<trkpt lat="48.80367656238377" lon="9.486601799726486">
<ele>264</ele>
<time>2024-05-12T13:04:33Z</time>
</trkpt>
<trkpt lat="48.80369181744754" lon="9.486648486927152">
<ele>264</ele>
<time>2024-05-12T13:04:34Z</time>
</trkpt>
<trkpt lat="48.80369944497943" lon="9.486696179956198">
<ele>264</ele>
<time>2024-05-12T13:04:35Z</time>
</trkpt>
<trkpt lat="48.803707072511315" lon="9.486748650670052">
<ele>264</ele>
<time>2024-05-12T13:04:36Z</time>
</trkpt>
<trkpt lat="48.80371855571866" lon="9.486806821078062">
<ele>264</ele>
<time>2024-05-12T13:04:37Z</time>
</trkpt>
<trkpt lat="48.80373381078243" lon="9.48686976917088">
<ele>263.8</ele>
<time>2024-05-12T13:04:38Z</time>
</trkpt>
<trkpt lat="48.803745210170746" lon="9.48692793957889">
<ele>263.6</ele>
<time>2024-05-12T13:04:39Z</time>
</trkpt>
<trkpt lat="48.80375669337809" lon="9.48698996566236">
<ele>263.6</ele>
<time>2024-05-12T13:04:40Z</time>
</trkpt>
<trkpt lat="48.80377194844186" lon="9.487051907926798">
<ele>263.4</ele>
<time>2024-05-12T13:04:41Z</time>
</trkpt>
<trkpt lat="48.803783347830176" lon="9.487114856019616">
<ele>263.4</ele>
<time>2024-05-12T13:04:42Z</time>
</trkpt>
<trkpt lat="48.80379483103752" lon="9.487176882103086">
<ele>263.2</ele>
<time>2024-05-12T13:04:43Z</time>
</trkpt>
<trkpt lat="48.803806230425835" lon="9.487239830195904">
<ele>263.2</ele>
<time>2024-05-12T13:04:44Z</time>
</trkpt>
<trkpt lat="48.80381771363318" lon="9.487303700298073">
<ele>263</ele>
<time>2024-05-12T13:04:45Z</time>
</trkpt>
<trkpt lat="48.803825341165066" lon="9.48736664839089">
<ele>262.8</ele>
<time>2024-05-12T13:04:46Z</time>
</trkpt>
<trkpt lat="48.80383674055338" lon="9.487431524321437">
<ele>262.8</ele>
<time>2024-05-12T13:04:47Z</time>
</trkpt>
<trkpt lat="48.80384822376072" lon="9.487496316432953">
<ele>262.6</ele>
<time>2024-05-12T13:04:48Z</time>
</trkpt>
<trkpt lat="48.80385585129261" lon="9.48756312020123">
<ele>262.4</ele>
<time>2024-05-12T13:04:49Z</time>
</trkpt>
<trkpt lat="48.80387110635638" lon="9.487627912312746">
<ele>262.4</ele>
<time>2024-05-12T13:04:50Z</time>
</trkpt>
<trkpt lat="48.80388258956373" lon="9.487694716081023">
<ele>262.2</ele>
<time>2024-05-12T13:04:51Z</time>
</trkpt>
<trkpt lat="48.8038978446275" lon="9.487761436030269">
<ele>262.2</ele>
<time>2024-05-12T13:04:52Z</time>
</trkpt>
<trkpt lat="48.80391309969127" lon="9.487830083817244">
<ele>262.2</ele>
<time>2024-05-12T13:04:53Z</time>
</trkpt>
<trkpt lat="48.80392835475504" lon="9.48789780959487">
<ele>262</ele>
<time>2024-05-12T13:04:54Z</time>
</trkpt>
<trkpt lat="48.803943609818816" lon="9.487966457381845">
<ele>262</ele>
<time>2024-05-12T13:04:55Z</time>
</trkpt>
<trkpt lat="48.80395500920713" lon="9.488035188987851">
<ele>262</ele>
<time>2024-05-12T13:04:56Z</time>
</trkpt>
<trkpt lat="48.8039702642709" lon="9.488104758784177">
<ele>262</ele>
<time>2024-05-12T13:04:57Z</time>
</trkpt>
<trkpt lat="48.80398174747825" lon="9.488171562552452">
<ele>262</ele>
<time>2024-05-12T13:04:58Z</time>
</trkpt>
<trkpt lat="48.80399314686656" lon="9.488240210339429">
<ele>261.799</ele>
<time>2024-05-12T13:04:59Z</time>
</trkpt>
<trkpt lat="48.80400840193033" lon="9.488307936117051">
<ele>261.799</ele>
<time>2024-05-12T13:05:00Z</time>
</trkpt>
<trkpt lat="48.80401611328125" lon="9.488376583904028">
<ele>261.799</ele>
<time>2024-05-12T13:05:01Z</time>
</trkpt>
<trkpt lat="48.80401988513768" lon="9.48844808153808">
<ele>261.799</ele>
<time>2024-05-12T13:05:02Z</time>
</trkpt>
<trkpt lat="48.80402751266956" lon="9.488519662991166">
<ele>261.799</ele>
<time>2024-05-12T13:05:03Z</time>
</trkpt>
<trkpt lat="48.80403514020145" lon="9.488592082634568">
<ele>261.799</ele>
<time>2024-05-12T13:05:04Z</time>
</trkpt>
<trkpt lat="48.804042767733335" lon="9.488661736249924">
<ele>261.799</ele>
<time>2024-05-12T13:05:05Z</time>
</trkpt>
<trkpt lat="48.80405425094068" lon="9.488731306046247">
<ele>262</ele>
<time>2024-05-12T13:05:06Z</time>
</trkpt>
<trkpt lat="48.80406187847257" lon="9.488800037652254">
<ele>262</ele>
<time>2024-05-12T13:05:07Z</time>
</trkpt>
<trkpt lat="48.80407327786088" lon="9.4888667576015">
<ele>262.2</ele>
<time>2024-05-12T13:05:08Z</time>
</trkpt>
<trkpt lat="48.80408853292465" lon="9.488931633532047">
<ele>262.2</ele>
<time>2024-05-12T13:05:09Z</time>
</trkpt>
<trkpt lat="48.804100016132" lon="9.488991731777787">
<ele>262.4</ele>
<time>2024-05-12T13:05:10Z</time>
</trkpt>
<trkpt lat="48.80411141552031" lon="9.489047974348068">
<ele>262.4</ele>
<time>2024-05-12T13:05:11Z</time>
</trkpt>
<trkpt lat="48.8041190430522" lon="9.489100445061922">
<ele>262.4</ele>
<time>2024-05-12T13:05:12Z</time>
</trkpt>
<trkpt lat="48.80412667058408" lon="9.489149982109666">
<ele>262.4</ele>
<time>2024-05-12T13:05:13Z</time>
</trkpt>
<trkpt lat="48.80413052625954" lon="9.489198680967093">
<ele>262.4</ele>
<time>2024-05-12T13:05:14Z</time>
</trkpt>
<trkpt lat="48.80413429811597" lon="9.489243440330029">
<ele>262.4</ele>
<time>2024-05-12T13:05:15Z</time>
</trkpt>
<trkpt lat="48.804141925647855" lon="9.489283505827188">
<ele>262.4</ele>
<time>2024-05-12T13:05:16Z</time>
</trkpt>
<trkpt lat="48.80414955317974" lon="9.48932164348662">
<ele>262.2</ele>
<time>2024-05-12T13:05:17Z</time>
</trkpt>
<trkpt lat="48.8041534088552" lon="9.489357937127352">
<ele>262.2</ele>
<time>2024-05-12T13:05:18Z</time>
</trkpt>
<trkpt lat="48.80415718071163" lon="9.489390291273594">
<ele>262.2</ele>
<time>2024-05-12T13:05:19Z</time>
</trkpt>
<trkpt lat="48.804161036387086" lon="9.48941987939179">
<ele>262.2</ele>
<time>2024-05-12T13:05:20Z</time>
</trkpt>
<trkpt lat="48.804161036387086" lon="9.489446617662908">
<ele>262.2</ele>
<time>2024-05-12T13:05:21Z</time>
</trkpt>
<trkpt lat="48.80416480824351" lon="9.489469500258563">
<ele>262.2</ele>
<time>2024-05-12T13:05:22Z</time>
</trkpt>
<trkpt lat="48.80416480824351" lon="9.489491460844874">
<ele>262.2</ele>
<time>2024-05-12T13:05:23Z</time>
</trkpt>
<trkpt lat="48.80416866391897" lon="9.489504788070915">
<ele>262.2</ele>
<time>2024-05-12T13:05:24Z</time>
</trkpt>
<trkpt lat="48.80416866391897" lon="9.489502860233188">
<ele>262.2</ele>
<time>2024-05-12T13:05:25Z</time>
</trkpt>
<trkpt lat="48.80416866391897" lon="9.48950193822384">
<ele>262.2</ele>
<time>2024-05-12T13:05:26Z</time>
</trkpt>
<trkpt lat="48.80416866391897" lon="9.48950001038611">
<ele>262.2</ele>
<time>2024-05-12T13:05:28Z</time>
</trkpt>
<trkpt lat="48.8041724357754" lon="9.489506715908648">
<ele>262.2</ele>
<time>2024-05-12T13:05:31Z</time>
</trkpt>
<trkpt lat="48.80417629145086" lon="9.48952004313469">
<ele>262.2</ele>
<time>2024-05-12T13:05:32Z</time>
</trkpt>
<trkpt lat="48.804183918982744" lon="9.489529598504305">
<ele>262.2</ele>
<time>2024-05-12T13:05:33Z</time>
</trkpt>
<trkpt lat="48.80419154651463" lon="9.489548625424504">
<ele>262.2</ele>
<time>2024-05-12T13:05:34Z</time>
</trkpt>
<trkpt lat="48.80421065725386" lon="9.489564886316655">
<ele>262</ele>
<time>2024-05-12T13:05:35Z</time>
</trkpt>
<trkpt lat="48.804241167381406" lon="9.489568658173084">
<ele>262</ele>
<time>2024-05-12T13:05:36Z</time>
</trkpt>
<trkpt lat="48.80427167750895" lon="9.489566730335357">
<ele>261.799</ele>
<time>2024-05-12T13:05:37Z</time>
</trkpt>
<trkpt lat="48.80430981516838" lon="9.489562958478928">
<ele>261.799</ele>
<time>2024-05-12T13:05:38Z</time>
</trkpt>
<trkpt lat="48.80434795282781" lon="9.48955625295639">
<ele>261.6</ele>
<time>2024-05-12T13:05:39Z</time>
</trkpt>
<trkpt lat="48.80438609048724" lon="9.489548625424504">
<ele>261.6</ele>
<time>2024-05-12T13:05:40Z</time>
</trkpt>
<trkpt lat="48.80442422814667" lon="9.489542003721">
<ele>261.4</ele>
<time>2024-05-12T13:05:41Z</time>
</trkpt>
<trkpt lat="48.8044623658061" lon="9.489544853568075">
<ele>261.4</ele>
<time>2024-05-12T13:05:42Z</time>
</trkpt>
<trkpt lat="48.804496731609106" lon="9.48955818079412">
<ele>261.4</ele>
<time>2024-05-12T13:05:43Z</time>
</trkpt>
<trkpt lat="48.804538724943995" lon="9.489564886316655">
<ele>261.4</ele>
<time>2024-05-12T13:05:44Z</time>
</trkpt>
<trkpt lat="48.804576862603426" lon="9.489561952650549">
<ele>261.6</ele>
<time>2024-05-12T13:05:45Z</time>
</trkpt>
<trkpt lat="48.8046111445874" lon="9.489553403109312">
<ele>261.799</ele>
<time>2024-05-12T13:05:46Z</time>
</trkpt>
<trkpt lat="48.80464928224683" lon="9.489542925730348">
<ele>262</ele>
<time>2024-05-12T13:05:47Z</time>
</trkpt>
<trkpt lat="48.80468364804983" lon="9.489533370360732">
<ele>262.2</ele>
<time>2024-05-12T13:05:48Z</time>
</trkpt>
<trkpt lat="48.80472178570926" lon="9.489524820819495">
<ele>262.6</ele>
<time>2024-05-12T13:05:49Z</time>
</trkpt>
<trkpt lat="48.804756151512265" lon="9.489529598504305">
<ele>262.8</ele>
<time>2024-05-12T13:05:50Z</time>
</trkpt>
<trkpt lat="48.80478666163981" lon="9.489553403109312">
<ele>263.2</ele>
<time>2024-05-12T13:05:51Z</time>
</trkpt>
<trkpt lat="48.804813316091895" lon="9.489589612931011">
<ele>263.6</ele>
<time>2024-05-12T13:05:52Z</time>
</trkpt>
<trkpt lat="48.80482857115567" lon="9.48963546194136">
<ele>264</ele>
<time>2024-05-12T13:05:53Z</time>
</trkpt>
<trkpt lat="48.80484005436301" lon="9.489686926826836">
<ele>264.2</ele>
<time>2024-05-12T13:05:54Z</time>
</trkpt>
<trkpt lat="48.8048476818949" lon="9.48973654769361">
<ele>264.6</ele>
<time>2024-05-12T13:05:55Z</time>
</trkpt>
<trkpt lat="48.804851453751326" lon="9.489789940416811">
<ele>264.8</ele>
<time>2024-05-12T13:05:56Z</time>
</trkpt>
<trkpt lat="48.80485908128321" lon="9.489843333140016">
<ele>265</ele>
<time>2024-05-12T13:05:57Z</time>
</trkpt>
<trkpt lat="48.8048667088151" lon="9.489898653700948">
<ele>265.4</ele>
<time>2024-05-12T13:05:58Z</time>
</trkpt>
<trkpt lat="48.80487819202244" lon="9.489958751946688">
<ele>265.6</ele>
<time>2024-05-12T13:05:59Z</time>
</trkpt>
<trkpt lat="48.80488967522979" lon="9.490019772201777">
<ele>265.8</ele>
<time>2024-05-12T13:06:00Z</time>
</trkpt>
<trkpt lat="48.8049010746181" lon="9.490086492151022">
<ele>265.8</ele>
<time>2024-05-12T13:06:01Z</time>
</trkpt>
<trkpt lat="48.804912557825446" lon="9.490157067775726">
<ele>265.6</ele>
<time>2024-05-12T13:06:02Z</time>
</trkpt>
<trkpt lat="48.80492395721376" lon="9.49023149907589">
<ele>265.6</ele>
<time>2024-05-12T13:06:03Z</time>
</trkpt>
<trkpt lat="48.804935440421104" lon="9.490313474088907">
<ele>265.4</ele>
<time>2024-05-12T13:06:04Z</time>
</trkpt>
<trkpt lat="48.804954467341304" lon="9.49040500447154">
<ele>265.2</ele>
<time>2024-05-12T13:06:05Z</time>
</trkpt>
<trkpt lat="48.804973578080535" lon="9.490503240376713">
<ele>265.2</ele>
<time>2024-05-12T13:06:06Z</time>
</trkpt>
<trkpt lat="48.804992605000734" lon="9.490610109642148">
<ele>265</ele>
<time>2024-05-12T13:06:07Z</time>
</trkpt>
<trkpt lat="48.805011715739965" lon="9.49072360061109">
<ele>265</ele>
<time>2024-05-12T13:06:08Z</time>
</trkpt>
<trkpt lat="48.805030742660165" lon="9.49084178544581">
<ele>264.8</ele>
<time>2024-05-12T13:06:09Z</time>
</trkpt>
<trkpt lat="48.80504985339939" lon="9.490962903946638">
<ele>264.8</ele>
<time>2024-05-12T13:06:10Z</time>
</trkpt>
<trkpt lat="48.805072735995054" lon="9.491083100438118">
<ele>264.6</ele>
<time>2024-05-12T13:06:11Z</time>
</trkpt>
<trkpt lat="48.805091846734285" lon="9.491205140948296">
<ele>264.4</ele>
<time>2024-05-12T13:06:12Z</time>
</trkpt>
<trkpt lat="48.80510710179806" lon="9.491323409602046">
<ele>264.2</ele>
<time>2024-05-12T13:06:13Z</time>
</trkpt>
<trkpt lat="48.80512612871826" lon="9.491436900570989">
<ele>263.8</ele>
<time>2024-05-12T13:06:14Z</time>
</trkpt>
<trkpt lat="48.80514523945749" lon="9.491546619683504">
<ele>263.6</ele>
<time>2024-05-12T13:06:15Z</time>
</trkpt>
<trkpt lat="48.80516426637769" lon="9.49165340512991">
<ele>263.4</ele>
<time>2024-05-12T13:06:16Z</time>
</trkpt>
<trkpt lat="48.80518337711692" lon="9.491756418719888">
<ele>263.2</ele>
<time>2024-05-12T13:06:17Z</time>
</trkpt>
<trkpt lat="48.80519477650523" lon="9.49185180477798">
<ele>263</ele>
<time>2024-05-12T13:06:18Z</time>
</trkpt>
<trkpt lat="48.80520240403712" lon="9.491939479485154">
<ele>263</ele>
<time>2024-05-12T13:06:19Z</time>
</trkpt>
<trkpt lat="48.80521003156901" lon="9.49202531017363">
<ele>262.8</ele>
<time>2024-05-12T13:06:20Z</time>
</trkpt>
<trkpt lat="48.80522151477635" lon="9.492108291015027">
<ele>262.6</ele>
<time>2024-05-12T13:06:21Z</time>
</trkpt>
<trkpt lat="48.805229142308235" lon="9.492188422009349">
<ele>262.4</ele>
<time>2024-05-12T13:06:22Z</time>
</trkpt>
<trkpt lat="48.80524439737201" lon="9.49226469732821">
<ele>262.2</ele>
<time>2024-05-12T13:06:23Z</time>
</trkpt>
<trkpt lat="48.80525202490389" lon="9.492341978475451">
<ele>262</ele>
<time>2024-05-12T13:06:24Z</time>
</trkpt>
<trkpt lat="48.805267279967666" lon="9.492420181632042">
<ele>261.799</ele>
<time>2024-05-12T13:06:25Z</time>
</trkpt>
<trkpt lat="48.80527876317501" lon="9.492498384788632">
<ele>261.6</ele>
<time>2024-05-12T13:06:26Z</time>
</trkpt>
<trkpt lat="48.80529016256333" lon="9.492574660107492">
<ele>261.6</ele>
<time>2024-05-12T13:06:27Z</time>
</trkpt>
<trkpt lat="48.80530164577067" lon="9.492652863264084">
<ele>261.4</ele>
<time>2024-05-12T13:06:28Z</time>
</trkpt>
<trkpt lat="48.80531304515898" lon="9.492732994258404">
<ele>261.4</ele>
<time>2024-05-12T13:06:29Z</time>
</trkpt>
<trkpt lat="48.805328300222754" lon="9.492813041433692">
<ele>261.2</ele>
<time>2024-05-12T13:06:30Z</time>
</trkpt>
<trkpt lat="48.8053397834301" lon="9.492893172428012">
<ele>261.2</ele>
<time>2024-05-12T13:06:31Z</time>
</trkpt>
<trkpt lat="48.805347410961986" lon="9.492973303422332">
<ele>261.2</ele>
<time>2024-05-12T13:06:32Z</time>
</trkpt>
<trkpt lat="48.80535503849387" lon="9.493053434416652">
<ele>261.2</ele>
<time>2024-05-12T13:06:33Z</time>
</trkpt>
<trkpt lat="48.80536266602576" lon="9.49313348159194">
<ele>261</ele>
<time>2024-05-12T13:06:34Z</time>
</trkpt>
<trkpt lat="48.805366437882185" lon="9.493214534595609">
<ele>261</ele>
<time>2024-05-12T13:06:35Z</time>
</trkpt>
<trkpt lat="48.80537029355765" lon="9.493296593427658">
<ele>261</ele>
<time>2024-05-12T13:06:36Z</time>
</trkpt>
<trkpt lat="48.805366437882185" lon="9.493376724421978">
<ele>260.799</ele>
<time>2024-05-12T13:06:37Z</time>
</trkpt>
<trkpt lat="48.8053588103503" lon="9.493454927578568">
<ele>260.799</ele>
<time>2024-05-12T13:06:38Z</time>
</trkpt>
<trkpt lat="48.805347410961986" lon="9.49353120289743">
<ele>260.799</ele>
<time>2024-05-12T13:06:39Z</time>
</trkpt>
<trkpt lat="48.80533592775464" lon="9.493610328063369">
<ele>260.799</ele>
<time>2024-05-12T13:06:40Z</time>
</trkpt>
<trkpt lat="48.80532452836633" lon="9.493682831525804">
<ele>260.799</ele>
<time>2024-05-12T13:06:41Z</time>
</trkpt>
<trkpt lat="48.805309273302555" lon="9.493760028854012">
<ele>260.799</ele>
<time>2024-05-12T13:06:42Z</time>
</trkpt>
<trkpt lat="48.80529016256333" lon="9.493833538144829">
<ele>261</ele>
<time>2024-05-12T13:06:43Z</time>
</trkpt>
<trkpt lat="48.80527490749955" lon="9.493907885625958">
<ele>261</ele>
<time>2024-05-12T13:06:44Z</time>
</trkpt>
<trkpt lat="48.80525965243578" lon="9.49398131109774">
<ele>261</ele>
<time>2024-05-12T13:06:45Z</time>
</trkpt>
<trkpt lat="48.80524062551558" lon="9.494052808731794">
<ele>261</ele>
<time>2024-05-12T13:06:46Z</time>
</trkpt>
<trkpt lat="48.80522151477635" lon="9.494128162041306">
<ele>261</ele>
<time>2024-05-12T13:06:47Z</time>
</trkpt>
<trkpt lat="48.80520240403712" lon="9.49420351535082">
<ele>261</ele>
<time>2024-05-12T13:06:48Z</time>
</trkpt>
<trkpt lat="48.805187148973346" lon="9.49427979066968">
<ele>261</ele>
<time>2024-05-12T13:06:49Z</time>
</trkpt>
<trkpt lat="48.805168122053146" lon="9.494355143979192">
<ele>261</ele>
<time>2024-05-12T13:06:50Z</time>
</trkpt>
<trkpt lat="48.8051566388458" lon="9.494429575279357">
<ele>261</ele>
<time>2024-05-12T13:06:51Z</time>
</trkpt>
<trkpt lat="48.80514523945749" lon="9.494508700445294">
<ele>261.2</ele>
<time>2024-05-12T13:06:52Z</time>
</trkpt>
<trkpt lat="48.8051376119256" lon="9.494586903601885">
<ele>261.2</ele>
<time>2024-05-12T13:06:53Z</time>
</trkpt>
<trkpt lat="48.80512998439371" lon="9.494667034596205">
<ele>261.4</ele>
<time>2024-05-12T13:06:54Z</time>
</trkpt>
<trkpt lat="48.80512612871826" lon="9.494748087599874">
<ele>261.4</ele>
<time>2024-05-12T13:06:55Z</time>
</trkpt>
<trkpt lat="48.80512235686183" lon="9.49483199045062">
<ele>261.4</ele>
<time>2024-05-12T13:06:56Z</time>
</trkpt>
<trkpt lat="48.80512235686183" lon="9.49491497129202">
<ele>261.6</ele>
<time>2024-05-12T13:06:57Z</time>
</trkpt>
<trkpt lat="48.80512612871826" lon="9.494997952133415">
<ele>261.6</ele>
<time>2024-05-12T13:06:58Z</time>
</trkpt>
<trkpt lat="48.80512998439371" lon="9.495079927146437">
<ele>261.799</ele>
<time>2024-05-12T13:06:59Z</time>
</trkpt>
<trkpt lat="48.80514138378203" lon="9.495161985978484">
<ele>261.799</ele>
<time>2024-05-12T13:07:00Z</time>
</trkpt>
<trkpt lat="48.805152866989374" lon="9.495240189135076">
<ele>261.799</ele>
<time>2024-05-12T13:07:01Z</time>
</trkpt>
<trkpt lat="48.80516426637769" lon="9.495316464453936">
<ele>262</ele>
<time>2024-05-12T13:07:02Z</time>
</trkpt>
<trkpt lat="48.805171893909574" lon="9.495393745601175">
<ele>262</ele>
<time>2024-05-12T13:07:03Z</time>
</trkpt>
<trkpt lat="48.80518337711692" lon="9.49546616524458">
<ele>262.2</ele>
<time>2024-05-12T13:07:04Z</time>
</trkpt>
<trkpt lat="48.80519477650523" lon="9.495538668707011">
<ele>262.2</ele>
<time>2024-05-12T13:07:05Z</time>
</trkpt>
<trkpt lat="48.80521003156901" lon="9.495610166341066">
<ele>262.2</ele>
<time>2024-05-12T13:07:06Z</time>
</trkpt>
<trkpt lat="48.80521388724446" lon="9.495683591812847">
<ele>262.4</ele>
<time>2024-05-12T13:07:07Z</time>
</trkpt>
<trkpt lat="48.80521003156901" lon="9.495759950950742">
<ele>262.4</ele>
<time>2024-05-12T13:07:08Z</time>
</trkpt>
<trkpt lat="48.80519477650523" lon="9.495831448584797">
<ele>262.4</ele>
<time>2024-05-12T13:07:09Z</time>
</trkpt>
<trkpt lat="48.805168122053146" lon="9.49589816853404">
<ele>262.4</ele>
<time>2024-05-12T13:07:10Z</time>
</trkpt>
<trkpt lat="48.80513375625014" lon="9.49595826677978">
<ele>262.4</ele>
<time>2024-05-12T13:07:11Z</time>
</trkpt>
<trkpt lat="48.80509947426617" lon="9.496011659502985">
<ele>262.4</ele>
<time>2024-05-12T13:07:12Z</time>
</trkpt>
<trkpt lat="48.80506133660674" lon="9.496063208207488">
<ele>262.6</ele>
<time>2024-05-12T13:07:13Z</time>
</trkpt>
<trkpt lat="48.80501934327185" lon="9.49611467309296">
<ele>262.6</ele>
<time>2024-05-12T13:07:14Z</time>
</trkpt>
<trkpt lat="48.80497734993696" lon="9.496165215969086">
<ele>262.8</ele>
<time>2024-05-12T13:07:15Z</time>
</trkpt>
<trkpt lat="48.80493921227753" lon="9.49621483683586">
<ele>262.8</ele>
<time>2024-05-12T13:07:16Z</time>
</trkpt>
<trkpt lat="48.804893447086215" lon="9.496263451874256">
<ele>262.8</ele>
<time>2024-05-12T13:07:17Z</time>
</trkpt>
<trkpt lat="48.804851453751326" lon="9.496313072741032">
<ele>263</ele>
<time>2024-05-12T13:07:18Z</time>
</trkpt>
<trkpt lat="48.80480954423547" lon="9.496361687779428">
<ele>263</ele>
<time>2024-05-12T13:07:19Z</time>
</trkpt>
<trkpt lat="48.80476377904415" lon="9.496411308646202">
<ele>263.2</ele>
<time>2024-05-12T13:07:20Z</time>
</trkpt>
<trkpt lat="48.80472178570926" lon="9.496461851522326">
<ele>263.2</ele>
<time>2024-05-12T13:07:21Z</time>
</trkpt>
<trkpt lat="48.80467979237437" lon="9.49651138857007">
<ele>263.2</ele>
<time>2024-05-12T13:07:22Z</time>
</trkpt>
<trkpt lat="48.804634027183056" lon="9.496560087427495">
<ele>263.2</ele>
<time>2024-05-12T13:07:23Z</time>
</trkpt>
<trkpt lat="48.804595889523625" lon="9.496606774628162">
<ele>263.2</ele>
<time>2024-05-12T13:07:24Z</time>
</trkpt>
<trkpt lat="48.80455398000777" lon="9.49665354564786">
<ele>263.2</ele>
<time>2024-05-12T13:07:25Z</time>
</trkpt>
<trkpt lat="48.80451198667288" lon="9.496701238676906">
<ele>263.2</ele>
<time>2024-05-12T13:07:26Z</time>
</trkpt>
<trkpt lat="48.80446999333799" lon="9.496753625571728">
<ele>263.2</ele>
<time>2024-05-12T13:07:27Z</time>
</trkpt>
<trkpt lat="48.80443185567856" lon="9.496803246438503">
<ele>263.2</ele>
<time>2024-05-12T13:07:28Z</time>
</trkpt>
<trkpt lat="48.8043899461627" lon="9.496858566999435">
<ele>263</ele>
<time>2024-05-12T13:07:29Z</time>
</trkpt>
<trkpt lat="48.80435172468424" lon="9.496914809569716">
<ele>263</ele>
<time>2024-05-12T13:07:30Z</time>
</trkpt>
<trkpt lat="48.80431744270027" lon="9.496974907815456">
<ele>263</ele>
<time>2024-05-12T13:07:31Z</time>
</trkpt>
<trkpt lat="48.80427930504083" lon="9.497033078223469">
<ele>263</ele>
<time>2024-05-12T13:07:32Z</time>
</trkpt>
<trkpt lat="48.804241167381406" lon="9.497091248631476">
<ele>263</ele>
<time>2024-05-12T13:07:33Z</time>
</trkpt>
<trkpt lat="48.8042068015784" lon="9.497151346877216">
<ele>263</ele>
<time>2024-05-12T13:07:34Z</time>
</trkpt>
<trkpt lat="48.8041724357754" lon="9.497213289141657">
<ele>263</ele>
<time>2024-05-12T13:07:35Z</time>
</trkpt>
<trkpt lat="48.80413429811597" lon="9.497276237234471">
<ele>263.2</ele>
<time>2024-05-12T13:07:36Z</time>
</trkpt>
<trkpt lat="48.804100016132" lon="9.497340191155672">
<ele>263.2</ele>
<time>2024-05-12T13:07:37Z</time>
</trkpt>
<trkpt lat="48.804065650328994" lon="9.49740313924849">
<ele>263.2</ele>
<time>2024-05-12T13:07:38Z</time>
</trkpt>
<trkpt lat="48.80402751266956" lon="9.497467009350656">
<ele>263.2</ele>
<time>2024-05-12T13:07:39Z</time>
</trkpt>
<trkpt lat="48.80399314686656" lon="9.497529957443476">
<ele>263.2</ele>
<time>2024-05-12T13:07:40Z</time>
</trkpt>
<trkpt lat="48.80395886488259" lon="9.497594833374023">
<ele>263.2</ele>
<time>2024-05-12T13:07:41Z</time>
</trkpt>
<trkpt lat="48.80392835475504" lon="9.49765962548554">
<ele>263.2</ele>
<time>2024-05-12T13:07:42Z</time>
</trkpt>
<trkpt lat="48.80389398895204" lon="9.497726429253817">
<ele>263.2</ele>
<time>2024-05-12T13:07:43Z</time>
</trkpt>
<trkpt lat="48.803867334499955" lon="9.49779792688787">
<ele>263.2</ele>
<time>2024-05-12T13:07:44Z</time>
</trkpt>
<trkpt lat="48.8038444519043" lon="9.497871352359653">
<ele>263.2</ele>
<time>2024-05-12T13:07:45Z</time>
</trkpt>
<trkpt lat="48.80382148548961" lon="9.497942849993706">
<ele>263.2</ele>
<time>2024-05-12T13:07:46Z</time>
</trkpt>
<trkpt lat="48.803806230425835" lon="9.49801535345614">
<ele>263.2</ele>
<time>2024-05-12T13:07:47Z</time>
</trkpt>
<trkpt lat="48.80379097536206" lon="9.498087856918572">
<ele>263.2</ele>
<time>2024-05-12T13:07:48Z</time>
</trkpt>
<trkpt lat="48.803783347830176" lon="9.498158432543278">
<ele>263.2</ele>
<time>2024-05-12T13:07:49Z</time>
</trkpt>
<trkpt lat="48.80377572029829" lon="9.49823185801506">
<ele>263.2</ele>
<time>2024-05-12T13:07:50Z</time>
</trkpt>
<trkpt lat="48.80377194844186" lon="9.498305283486845">
<ele>263.2</ele>
<time>2024-05-12T13:07:51Z</time>
</trkpt>
<trkpt lat="48.80377194844186" lon="9.498381558805704">
<ele>263.2</ele>
<time>2024-05-12T13:07:52Z</time>
</trkpt>
<trkpt lat="48.80377194844186" lon="9.498457834124563">
<ele>263.2</ele>
<time>2024-05-12T13:07:53Z</time>
</trkpt>
<trkpt lat="48.80377194844186" lon="9.498535115271808">
<ele>263.2</ele>
<time>2024-05-12T13:07:54Z</time>
</trkpt>
<trkpt lat="48.8037680927664" lon="9.498613318428395">
<ele>263.2</ele>
<time>2024-05-12T13:07:55Z</time>
</trkpt>
<trkpt lat="48.80376432090998" lon="9.498693449422715">
<ele>263.2</ele>
<time>2024-05-12T13:07:56Z</time>
</trkpt>
<trkpt lat="48.80375669337809" lon="9.498771652579308">
<ele>263.4</ele>
<time>2024-05-12T13:07:57Z</time>
</trkpt>
<trkpt lat="48.803749065846205" lon="9.49884700588882">
<ele>263.6</ele>
<time>2024-05-12T13:07:58Z</time>
</trkpt>
<trkpt lat="48.80373758263886" lon="9.498918503522871">
<ele>263.8</ele>
<time>2024-05-12T13:07:59Z</time>
</trkpt>
<trkpt lat="48.80372618325055" lon="9.498985223472118">
<ele>264</ele>
<time>2024-05-12T13:08:00Z</time>
</trkpt>
<trkpt lat="48.8037147000432" lon="9.499046243727207">
<ele>264</ele>
<time>2024-05-12T13:08:01Z</time>
</trkpt>
<trkpt lat="48.80369944497943" lon="9.499106341972947">
<ele>264</ele>
<time>2024-05-12T13:08:02Z</time>
</trkpt>
<trkpt lat="48.80368418991566" lon="9.49916166253388">
<ele>264</ele>
<time>2024-05-12T13:08:03Z</time>
</trkpt>
<trkpt lat="48.803665079176426" lon="9.499208433553576">
<ele>264</ele>
<time>2024-05-12T13:08:04Z</time>
</trkpt>
<trkpt lat="48.80364605225623" lon="9.499243721365929">
<ele>264</ele>
<time>2024-05-12T13:08:05Z</time>
</trkpt>
<trkpt lat="48.80362316966057" lon="9.499271381646397">
<ele>264</ele>
<time>2024-05-12T13:08:06Z</time>
</trkpt>
<trkpt lat="48.80359643138945" lon="9.499293258413672">
<ele>264</ele>
<time>2024-05-12T13:08:07Z</time>
</trkpt>
<trkpt lat="48.803569776937366" lon="9.499303735792637">
<ele>264</ele>
<time>2024-05-12T13:08:08Z</time>
</trkpt>
<trkpt lat="48.80353926680982" lon="9.499303735792637">
<ele>264.2</ele>
<time>2024-05-12T13:08:09Z</time>
</trkpt>
<trkpt lat="48.80350490100682" lon="9.499290408566594">
<ele>264.2</ele>
<time>2024-05-12T13:08:10Z</time>
</trkpt>
<trkpt lat="48.8034781627357" lon="9.499284708872436">
<ele>264.4</ele>
<time>2024-05-12T13:08:11Z</time>
</trkpt>
<trkpt lat="48.80344765260816" lon="9.499286636710169">
<ele>264.4</ele>
<time>2024-05-12T13:08:12Z</time>
</trkpt>
<trkpt lat="48.80341714248061" lon="9.499288480728865">
<ele>264.6</ele>
<time>2024-05-12T13:08:13Z</time>
</trkpt>
<trkpt lat="48.80338663235307" lon="9.499291414394976">
<ele>264.8</ele>
<time>2024-05-12T13:08:14Z</time>
</trkpt>
<trkpt lat="48.80334849469364" lon="9.499295186251402">
<ele>265</ele>
<time>2024-05-12T13:08:15Z</time>
</trkpt>
<trkpt lat="48.80331798456609" lon="9.49930189177394">
<ele>265.2</ele>
<time>2024-05-12T13:08:16Z</time>
</trkpt>
<trkpt lat="48.80327984690666" lon="9.499311447143556">
<ele>265.4</ele>
<time>2024-05-12T13:08:17Z</time>
</trkpt>
<trkpt lat="48.80324933677912" lon="9.499322846531868">
<ele>265.4</ele>
<time>2024-05-12T13:08:18Z</time>
</trkpt>
<trkpt lat="48.80321882665157" lon="9.49933810159564">
<ele>265.6</ele>
<time>2024-05-12T13:08:19Z</time>
</trkpt>
<trkpt lat="48.80318831652403" lon="9.499355284497142">
<ele>265.6</ele>
<time>2024-05-12T13:08:20Z</time>
</trkpt>
<trkpt lat="48.80316157825291" lon="9.499373389407992">
<ele>265.6</ele>
<time>2024-05-12T13:08:21Z</time>
</trkpt>
<trkpt lat="48.80313869565725" lon="9.499391494318845">
<ele>265.8</ele>
<time>2024-05-12T13:08:22Z</time>
</trkpt>
<trkpt lat="48.803111957386136" lon="9.499408677220345">
<ele>265.8</ele>
<time>2024-05-12T13:08:23Z</time>
</trkpt>
<trkpt lat="48.80308907479048" lon="9.499426782131197">
<ele>265.8</ele>
<time>2024-05-12T13:08:24Z</time>
</trkpt>
<trkpt lat="48.80306242033839" lon="9.499448742717505">
<ele>265.8</ele>
<time>2024-05-12T13:08:25Z</time>
</trkpt>
<trkpt lat="48.803035682067275" lon="9.499473553150892">
<ele>265.8</ele>
<time>2024-05-12T13:08:26Z</time>
</trkpt>
<trkpt lat="48.80300517193973" lon="9.499503057450056">
<ele>265.8</ele>
<time>2024-05-12T13:08:27Z</time>
</trkpt>
<trkpt lat="48.802974661812186" lon="9.499531723558905">
<ele>265.8</ele>
<time>2024-05-12T13:08:28Z</time>
</trkpt>
<trkpt lat="48.80293652415275" lon="9.499563155695796">
<ele>265.8</ele>
<time>2024-05-12T13:08:29Z</time>
</trkpt>
<trkpt lat="48.802898386493325" lon="9.499603221192956">
<ele>265.8</ele>
<time>2024-05-12T13:08:30Z</time>
</trkpt>
<trkpt lat="48.80284876562655" lon="9.499647058546543">
<ele>265.8</ele>
<time>2024-05-12T13:08:31Z</time>
</trkpt>
<trkpt lat="48.80280300043523" lon="9.49969667941332">
<ele>265.8</ele>
<time>2024-05-12T13:08:32Z</time>
</trkpt>
<trkpt lat="48.80275337956846" lon="9.499746300280094">
<ele>265.6</ele>
<time>2024-05-12T13:08:33Z</time>
</trkpt>
<trkpt lat="48.802703842520714" lon="9.499798770993948">
<ele>265.6</ele>
<time>2024-05-12T13:08:34Z</time>
</trkpt>
<trkpt lat="48.8026580773294" lon="9.49985115788877">
<ele>265.6</ele>
<time>2024-05-12T13:08:35Z</time>
</trkpt>
<trkpt lat="48.80260845646262" lon="9.499903628602624">
<ele>265.6</ele>
<time>2024-05-12T13:08:36Z</time>
</trkpt>
<trkpt lat="48.802558835595846" lon="9.499946543946862">
<ele>265.4</ele>
<time>2024-05-12T13:08:37Z</time>
</trkpt>
<trkpt lat="48.80251307040453" lon="9.499984681606293">
<ele>265.4</ele>
<time>2024-05-12T13:08:38Z</time>
</trkpt>
<trkpt lat="48.80246730521321" lon="9.500019969418643">
<ele>265.2</ele>
<time>2024-05-12T13:08:39Z</time>
</trkpt>
<trkpt lat="48.802421540021896" lon="9.500056263059378">
<ele>265</ele>
<time>2024-05-12T13:08:40Z</time>
</trkpt>
<trkpt lat="48.80237954668701" lon="9.500096244737506">
<ele>265</ele>
<time>2024-05-12T13:08:41Z</time>
</trkpt>
<trkpt lat="48.80235289223492" lon="9.500158270820975">
<ele>264.8</ele>
<time>2024-05-12T13:08:42Z</time>
</trkpt>
<trkpt lat="48.80233378149569" lon="9.500221218913794">
<ele>264.8</ele>
<time>2024-05-12T13:08:43Z</time>
</trkpt>
<trkpt lat="48.80233378149569" lon="9.500298500061035">
<ele>264.6</ele>
<time>2024-05-12T13:08:44Z</time>
</trkpt>
<trkpt lat="48.802341409027576" lon="9.500374775379896">
<ele>264.6</ele>
<time>2024-05-12T13:08:45Z</time>
</trkpt>
<trkpt lat="48.80236051976681" lon="9.50044627301395">
<ele>264.4</ele>
<time>2024-05-12T13:08:46Z</time>
</trkpt>
<trkpt lat="48.80237577483058" lon="9.500518776476383">
<ele>264.2</ele>
<time>2024-05-12T13:08:47Z</time>
</trkpt>
<trkpt lat="48.80239480175078" lon="9.50058457441628">
<ele>264</ele>
<time>2024-05-12T13:08:48Z</time>
</trkpt>
<trkpt lat="48.80241391249001" lon="9.500646516680716">
<ele>264</ele>
<time>2024-05-12T13:08:49Z</time>
</trkpt>
<trkpt lat="48.80243679508567" lon="9.500706614926456">
<ele>263.8</ele>
<time>2024-05-12T13:08:50Z</time>
</trkpt>
<trkpt lat="48.80246730521321" lon="9.500755229964852">
<ele>263.6</ele>
<time>2024-05-12T13:08:51Z</time>
</trkpt>
<trkpt lat="48.802501671016216" lon="9.500788673758509">
<ele>263.6</ele>
<time>2024-05-12T13:08:52Z</time>
</trkpt>
<trkpt lat="48.80253980867565" lon="9.500806778669356">
<ele>263.4</ele>
<time>2024-05-12T13:08:53Z</time>
</trkpt>
<trkpt lat="48.80257794633508" lon="9.500806778669356">
<ele>263.4</ele>
<time>2024-05-12T13:08:54Z</time>
</trkpt>
<trkpt lat="48.802619855850935" lon="9.500793451443316">
<ele>263.4</ele>
<time>2024-05-12T13:08:55Z</time>
</trkpt>
<trkpt lat="48.80266570486128" lon="9.500776268541811">
<ele>263.4</ele>
<time>2024-05-12T13:08:56Z</time>
</trkpt>
<trkpt lat="48.80270761437714" lon="9.500764785334468">
<ele>263.2</ele>
<time>2024-05-12T13:08:57Z</time>
</trkpt>
<trkpt lat="48.80274960771203" lon="9.500762857496738">
<ele>263.2</ele>
<time>2024-05-12T13:08:58Z</time>
</trkpt>
<trkpt lat="48.80278774537146" lon="9.500773418694736">
<ele>263.2</ele>
<time>2024-05-12T13:08:59Z</time>
</trkpt>
<trkpt lat="48.80281448364258" lon="9.500816334038973">
<ele>263</ele>
<time>2024-05-12T13:09:00Z</time>
</trkpt>
<trkpt lat="48.80282973870635" lon="9.50087634846568">
<ele>263</ele>
<time>2024-05-12T13:09:01Z</time>
</trkpt>
<trkpt lat="48.80283351056278" lon="9.50094030238688">
<ele>263.2</ele>
<time>2024-05-12T13:09:02Z</time>
</trkpt>
<trkpt lat="48.80283351056278" lon="9.501008028164506">
<ele>263.2</ele>
<time>2024-05-12T13:09:03Z</time>
</trkpt>
<trkpt lat="48.80282973870635" lon="9.501081453636289">
<ele>263.4</ele>
<time>2024-05-12T13:09:04Z</time>
</trkpt>
<trkpt lat="48.802822111174464" lon="9.501152029260991">
<ele>263.6</ele>
<time>2024-05-12T13:09:05Z</time>
</trkpt>
<trkpt lat="48.80281448364258" lon="9.501221599057317">
<ele>263.6</ele>
<time>2024-05-12T13:09:06Z</time>
</trkpt>
<trkpt lat="48.80280677229166" lon="9.501293180510402">
<ele>263.8</ele>
<time>2024-05-12T13:09:07Z</time>
</trkpt>
<trkpt lat="48.80279151722789" lon="9.501364678144457">
<ele>264</ele>
<time>2024-05-12T13:09:08Z</time>
</trkpt>
<trkpt lat="48.802780117839575" lon="9.501438103616238">
<ele>264</ele>
<time>2024-05-12T13:09:09Z</time>
</trkpt>
<trkpt lat="48.80276863463223" lon="9.50151152908802">
<ele>264.2</ele>
<time>2024-05-12T13:09:10Z</time>
</trkpt>
<trkpt lat="48.802761007100344" lon="9.501583026722074">
<ele>264.2</ele>
<time>2024-05-12T13:09:11Z</time>
</trkpt>
<trkpt lat="48.80275337956846" lon="9.501656452193856">
<ele>264.4</ele>
<time>2024-05-12T13:09:12Z</time>
</trkpt>
<trkpt lat="48.802741980180144" lon="9.50172996148467">
<ele>264.4</ele>
<time>2024-05-12T13:09:13Z</time>
</trkpt>
<trkpt lat="48.80273435264826" lon="9.501803386956452">
<ele>264.4</ele>
<time>2024-05-12T13:09:14Z</time>
</trkpt>
<trkpt lat="48.80272286944091" lon="9.501876812428236">
<ele>264.6</ele>
<time>2024-05-12T13:09:15Z</time>
</trkpt>
<trkpt lat="48.802719097584486" lon="9.50194831006229">
<ele>264.6</ele>
<time>2024-05-12T13:09:16Z</time>
</trkpt>
<trkpt lat="48.8027114700526" lon="9.502019807696342">
<ele>264.6</ele>
<time>2024-05-12T13:09:17Z</time>
</trkpt>
<trkpt lat="48.80270761437714" lon="9.502093233168123">
<ele>264.6</ele>
<time>2024-05-12T13:09:18Z</time>
</trkpt>
<trkpt lat="48.802703842520714" lon="9.50216481462121">
<ele>264.6</ele>
<time>2024-05-12T13:09:19Z</time>
</trkpt>
<trkpt lat="48.802699986845255" lon="9.502238240092993">
<ele>264.6</ele>
<time>2024-05-12T13:09:20Z</time>
</trkpt>
<trkpt lat="48.802699986845255" lon="9.502311665564775">
<ele>264.6</ele>
<time>2024-05-12T13:09:21Z</time>
</trkpt>
<trkpt lat="48.80269621498883" lon="9.502383163198829">
<ele>264.6</ele>
<time>2024-05-12T13:09:22Z</time>
</trkpt>
<trkpt lat="48.80269235931337" lon="9.502452816814184">
<ele>264.6</ele>
<time>2024-05-12T13:09:23Z</time>
</trkpt>
<trkpt lat="48.80268858745694" lon="9.50251953676343">
<ele>264.6</ele>
<time>2024-05-12T13:09:24Z</time>
</trkpt>
<trkpt lat="48.80269235931337" lon="9.502585334703326">
<ele>264.6</ele>
<time>2024-05-12T13:09:25Z</time>
</trkpt>
<trkpt lat="48.802699986845255" lon="9.502646438777449">
<ele>264.6</ele>
<time>2024-05-12T13:09:26Z</time>
</trkpt>
<trkpt lat="48.80272672511637" lon="9.50270175933838">
<ele>264.6</ele>
<time>2024-05-12T13:09:27Z</time>
</trkpt>
<trkpt lat="48.80275337956846" lon="9.502748446539044">
<ele>264.6</ele>
<time>2024-05-12T13:09:28Z</time>
</trkpt>
<trkpt lat="48.80279151722789" lon="9.502786584198477">
<ele>264.6</ele>
<time>2024-05-12T13:09:29Z</time>
</trkpt>
<trkpt lat="48.80283736623824" lon="9.502808544784784">
<ele>264.6</ele>
<time>2024-05-12T13:09:30Z</time>
</trkpt>
<trkpt lat="48.80288313142955" lon="9.5028181001544">
<ele>264.6</ele>
<time>2024-05-12T13:09:31Z</time>
</trkpt>
<trkpt lat="48.80292889662087" lon="9.502819944173098">
<ele>264.6</ele>
<time>2024-05-12T13:09:32Z</time>
</trkpt>
<trkpt lat="48.80297080613673" lon="9.502824721857904">
<ele>264.6</ele>
<time>2024-05-12T13:09:33Z</time>
</trkpt>
<trkpt lat="48.80301665514707" lon="9.502839976921678">
<ele>264.6</ele>
<time>2024-05-12T13:09:34Z</time>
</trkpt>
<trkpt lat="48.803054792806506" lon="9.502866715192797">
<ele>264.4</ele>
<time>2024-05-12T13:09:35Z</time>
</trkpt>
<trkpt lat="48.80308144725859" lon="9.502906780689957">
<ele>264.4</ele>
<time>2024-05-12T13:09:36Z</time>
</trkpt>
<trkpt lat="48.80310818552971" lon="9.502962101250889">
<ele>264.4</ele>
<time>2024-05-12T13:09:37Z</time>
</trkpt>
<trkpt lat="48.80312344059348" lon="9.503025049343703">
<ele>264.2</ele>
<time>2024-05-12T13:09:38Z</time>
</trkpt>
<trkpt lat="48.80313106812537" lon="9.50308984145522">
<ele>264.2</ele>
<time>2024-05-12T13:09:39Z</time>
</trkpt>
<trkpt lat="48.80313106812537" lon="9.503160417079926">
<ele>264</ele>
<time>2024-05-12T13:09:40Z</time>
</trkpt>
<trkpt lat="48.80313106812537" lon="9.503226215019822">
<ele>264</ele>
<time>2024-05-12T13:09:41Z</time>
</trkpt>
<trkpt lat="48.803134839981794" lon="9.5032930187881">
<ele>264</ele>
<time>2024-05-12T13:09:42Z</time>
</trkpt>
<trkpt lat="48.80314246751368" lon="9.503356888890266">
<ele>264</ele>
<time>2024-05-12T13:09:43Z</time>
</trkpt>
<trkpt lat="48.80315780639648" lon="9.503417909145355">
<ele>264</ele>
<time>2024-05-12T13:09:44Z</time>
</trkpt>
<trkpt lat="48.80318446084857" lon="9.503471301868558">
<ele>264</ele>
<time>2024-05-12T13:09:45Z</time>
</trkpt>
<trkpt lat="48.803214970976114" lon="9.503517150878906">
<ele>264</ele>
<time>2024-05-12T13:09:46Z</time>
</trkpt>
<trkpt lat="48.80325696431101" lon="9.50354665517807">
<ele>264</ele>
<time>2024-05-12T13:09:47Z</time>
</trkpt>
<trkpt lat="48.80329887382686" lon="9.503569537773728">
<ele>264</ele>
<time>2024-05-12T13:09:48Z</time>
</trkpt>
<trkpt lat="48.80334472283721" lon="9.503595270216463">
<ele>264</ele>
<time>2024-05-12T13:09:49Z</time>
</trkpt>
<trkpt lat="48.80338286049664" lon="9.503633491694927">
<ele>264</ele>
<time>2024-05-12T13:09:50Z</time>
</trkpt>
<trkpt lat="48.803413370624185" lon="9.50368881225586">
<ele>263.8</ele>
<time>2024-05-12T13:09:51Z</time>
</trkpt>
<trkpt lat="48.803432397544384" lon="9.503751676529646">
<ele>263.8</ele>
<time>2024-05-12T13:09:52Z</time>
</trkpt>
<trkpt lat="48.80344388075173" lon="9.503821330145">
<ele>263.8</ele>
<time>2024-05-12T13:09:53Z</time>
</trkpt>
<trkpt lat="48.803451508283615" lon="9.503891905769706">
<ele>263.6</ele>
<time>2024-05-12T13:09:54Z</time>
</trkpt>
<trkpt lat="48.803451508283615" lon="9.503966253250836">
<ele>263.6</ele>
<time>2024-05-12T13:09:55Z</time>
</trkpt>
<trkpt lat="48.803451508283615" lon="9.504037834703922">
<ele>263.6</ele>
<time>2024-05-12T13:09:56Z</time>
</trkpt>
<trkpt lat="48.803451508283615" lon="9.504110254347324">
<ele>263.6</ele>
<time>2024-05-12T13:09:57Z</time>
</trkpt>
<trkpt lat="48.80345528014004" lon="9.50417990796268">
<ele>263.6</ele>
<time>2024-05-12T13:09:58Z</time>
</trkpt>
<trkpt lat="48.8034591358155" lon="9.504253333434464">
<ele>263.8</ele>
<time>2024-05-12T13:09:59Z</time>
</trkpt>
<trkpt lat="48.8034591358155" lon="9.504326758906243">
<ele>263.8</ele>
<time>2024-05-12T13:10:00Z</time>
</trkpt>
<trkpt lat="48.80346290767193" lon="9.504402112215756">
<ele>263.8</ele>
<time>2024-05-12T13:10:01Z</time>
</trkpt>
<trkpt lat="48.80346676334739" lon="9.504474615678191">
<ele>264</ele>
<time>2024-05-12T13:10:02Z</time>
</trkpt>
<trkpt lat="48.80347439087927" lon="9.504547119140623">
<ele>264</ele>
<time>2024-05-12T13:10:03Z</time>
</trkpt>
<trkpt lat="48.8034781627357" lon="9.50461476109922">
<ele>264.2</ele>
<time>2024-05-12T13:10:04Z</time>
</trkpt>
<trkpt lat="48.80348201841116" lon="9.504685336723924">
<ele>264.2</ele>
<time>2024-05-12T13:10:05Z</time>
</trkpt>
<trkpt lat="48.803489645943046" lon="9.50475306250155">
<ele>264.2</ele>
<time>2024-05-12T13:10:06Z</time>
</trkpt>
<trkpt lat="48.80349341779947" lon="9.504823638126254">
<ele>264.4</ele>
<time>2024-05-12T13:10:07Z</time>
</trkpt>
<trkpt lat="48.80350112915039" lon="9.50489329174161">
<ele>264.4</ele>
<time>2024-05-12T13:10:08Z</time>
</trkpt>
<trkpt lat="48.80350875668228" lon="9.504964789375665">
<ele>264.6</ele>
<time>2024-05-12T13:10:09Z</time>
</trkpt>
<trkpt lat="48.80351638421416" lon="9.505038214847444">
<ele>264.6</ele>
<time>2024-05-12T13:10:10Z</time>
</trkpt>
<trkpt lat="48.80352401174605" lon="9.5051097124815">
<ele>264.6</ele>
<time>2024-05-12T13:10:11Z</time>
</trkpt>
<trkpt lat="48.80353541113436" lon="9.505181293934584">
<ele>264.6</ele>
<time>2024-05-12T13:10:12Z</time>
</trkpt>
<trkpt lat="48.80354303866625" lon="9.505251869559288">
<ele>264.6</ele>
<time>2024-05-12T13:10:13Z</time>
</trkpt>
<trkpt lat="48.80355829373002" lon="9.50532336719334">
<ele>264.6</ele>
<time>2024-05-12T13:10:14Z</time>
</trkpt>
<trkpt lat="48.803569776937366" lon="9.505392014980316">
<ele>264.6</ele>
<time>2024-05-12T13:10:15Z</time>
</trkpt>
<trkpt lat="48.80358503200114" lon="9.5054635964334">
<ele>264.4</ele>
<time>2024-05-12T13:10:16Z</time>
</trkpt>
<trkpt lat="48.80360028706491" lon="9.505537021905184">
<ele>264.4</ele>
<time>2024-05-12T13:10:17Z</time>
</trkpt>
<trkpt lat="48.80361554212868" lon="9.505606591701508">
<ele>264.4</ele>
<time>2024-05-12T13:10:18Z</time>
</trkpt>
<trkpt lat="48.80363842472434" lon="9.505675239488482">
<ele>264.4</ele>
<time>2024-05-12T13:10:19Z</time>
</trkpt>
<trkpt lat="48.803665079176426" lon="9.50574011541903">
<ele>264.6</ele>
<time>2024-05-12T13:10:20Z</time>
</trkpt>
<trkpt lat="48.803695673123" lon="9.505803063511848">
<ele>264.6</ele>
<time>2024-05-12T13:10:21Z</time>
</trkpt>
<trkpt lat="48.80372618325055" lon="9.505869783461094">
<ele>264.4</ele>
<time>2024-05-12T13:10:22Z</time>
</trkpt>
<trkpt lat="48.803749065846205" lon="9.505934659391642">
<ele>264.4</ele>
<time>2024-05-12T13:10:23Z</time>
</trkpt>
<trkpt lat="48.8037680927664" lon="9.50599953532219">
<ele>264.4</ele>
<time>2024-05-12T13:10:24Z</time>
</trkpt>
<trkpt lat="48.803787203505635" lon="9.506061477586629">
<ele>264.4</ele>
<time>2024-05-12T13:10:25Z</time>
</trkpt>
<trkpt lat="48.80380245856941" lon="9.506119647994636">
<ele>264.4</ele>
<time>2024-05-12T13:10:26Z</time>
</trkpt>
<trkpt lat="48.80381771363318" lon="9.50617790222168">
<ele>264.4</ele>
<time>2024-05-12T13:10:27Z</time>
</trkpt>
<trkpt lat="48.80382911302149" lon="9.50623699463904">
<ele>264.6</ele>
<time>2024-05-12T13:10:28Z</time>
</trkpt>
<trkpt lat="48.8038444519043" lon="9.50629516504705">
<ele>264.6</ele>
<time>2024-05-12T13:10:29Z</time>
</trkpt>
<trkpt lat="48.80385970696807" lon="9.506356185302138">
<ele>264.8</ele>
<time>2024-05-12T13:10:30Z</time>
</trkpt>
<trkpt lat="48.80387496203184" lon="9.506421983242037">
<ele>265</ele>
<time>2024-05-12T13:10:31Z</time>
</trkpt>
<trkpt lat="48.80389398895204" lon="9.506488787010312">
<ele>265.2</ele>
<time>2024-05-12T13:10:32Z</time>
</trkpt>
<trkpt lat="48.80391309969127" lon="9.506560284644364">
<ele>265.2</ele>
<time>2024-05-12T13:10:33Z</time>
</trkpt>
<trkpt lat="48.80392835475504" lon="9.506638487800956">
<ele>265.2</ele>
<time>2024-05-12T13:10:34Z</time>
</trkpt>
<trkpt lat="48.8039512373507" lon="9.506721468642354">
<ele>265.2</ele>
<time>2024-05-12T13:10:35Z</time>
</trkpt>
<trkpt lat="48.80397411994636" lon="9.506812077015638">
<ele>265.2</ele>
<time>2024-05-12T13:10:36Z</time>
</trkpt>
<trkpt lat="48.80399700254202" lon="9.506910312920809">
<ele>265.2</ele>
<time>2024-05-12T13:10:37Z</time>
</trkpt>
<trkpt lat="48.80401611328125" lon="9.50700469315052">
<ele>265.2</ele>
<time>2024-05-12T13:10:38Z</time>
</trkpt>
<trkpt lat="48.80403514020145" lon="9.507106700912118">
<ele>265</ele>
<time>2024-05-12T13:10:39Z</time>
</trkpt>
<trkpt lat="48.804046623408794" lon="9.507211642339826">
<ele>264.8</ele>
<time>2024-05-12T13:10:40Z</time>
</trkpt>
<trkpt lat="48.80406187847257" lon="9.507305100560188">
<ele>264.6</ele>
<time>2024-05-12T13:10:41Z</time>
</trkpt>
<trkpt lat="48.80406950600445" lon="9.507387159392238">
<ele>264.4</ele>
<time>2024-05-12T13:10:42Z</time>
</trkpt>
<trkpt lat="48.80407713353634" lon="9.507466284558175">
<ele>264.4</ele>
<time>2024-05-12T13:10:43Z</time>
</trkpt>
<trkpt lat="48.804084761068225" lon="9.50753971002996">
<ele>264.2</ele>
<time>2024-05-12T13:10:44Z</time>
</trkpt>
<trkpt lat="48.804084761068225" lon="9.507611207664011">
<ele>264.2</ele>
<time>2024-05-12T13:10:45Z</time>
</trkpt>
<trkpt lat="48.80409238860011" lon="9.507681783288715">
<ele>264</ele>
<time>2024-05-12T13:10:46Z</time>
</trkpt>
<trkpt lat="48.80409616045654" lon="9.507751436904073">
<ele>264</ele>
<time>2024-05-12T13:10:47Z</time>
</trkpt>
<trkpt lat="48.804103787988424" lon="9.507820084691048">
<ele>264</ele>
<time>2024-05-12T13:10:48Z</time>
</trkpt>
<trkpt lat="48.80411141552031" lon="9.507889738306403">
<ele>264.2</ele>
<time>2024-05-12T13:10:49Z</time>
</trkpt>
<trkpt lat="48.80411527119577" lon="9.507963163778186">
<ele>264.2</ele>
<time>2024-05-12T13:10:50Z</time>
</trkpt>
<trkpt lat="48.804122898727655" lon="9.508040361106396">
<ele>264.4</ele>
<time>2024-05-12T13:10:51Z</time>
</trkpt>
<trkpt lat="48.80413052625954" lon="9.508121414110065">
<ele>264.4</ele>
<time>2024-05-12T13:10:52Z</time>
</trkpt>
<trkpt lat="48.80413815379143" lon="9.508206322789192">
<ele>264.6</ele>
<time>2024-05-12T13:10:53Z</time>
</trkpt>
<trkpt lat="48.804145781323314" lon="9.508295003324749">
<ele>264.6</ele>
<time>2024-05-12T13:10:54Z</time>
</trkpt>
<trkpt lat="48.8041534088552" lon="9.508381839841604">
<ele>264.8</ele>
<time>2024-05-12T13:10:55Z</time>
</trkpt>
<trkpt lat="48.8041724357754" lon="9.50846473686397">
<ele>264.8</ele>
<time>2024-05-12T13:10:56Z</time>
</trkpt>
<trkpt lat="48.80419540219009" lon="9.50854486785829">
<ele>264.8</ele>
<time>2024-05-12T13:10:57Z</time>
</trkpt>
<trkpt lat="48.804222056642175" lon="9.50862307101488">
<ele>264.8</ele>
<time>2024-05-12T13:10:58Z</time>
</trkpt>
<trkpt lat="48.804241167381406" lon="9.508701274171472">
<ele>264.8</ele>
<time>2024-05-12T13:10:59Z</time>
</trkpt>
<trkpt lat="48.80425642244518" lon="9.508779477328062">
<ele>264.6</ele>
<time>2024-05-12T13:11:00Z</time>
</trkpt>
<trkpt lat="48.80426782183349" lon="9.508861536160111">
<ele>264.6</ele>
<time>2024-05-12T13:11:01Z</time>
</trkpt>
<trkpt lat="48.80427167750895" lon="9.508943511173127">
<ele>264.4</ele>
<time>2024-05-12T13:11:02Z</time>
</trkpt>
<trkpt lat="48.80427167750895" lon="9.509024564176798">
<ele>264.4</ele>
<time>2024-05-12T13:11:03Z</time>
</trkpt>
<trkpt lat="48.80426782183349" lon="9.509108467027543">
<ele>264.2</ele>
<time>2024-05-12T13:11:04Z</time>
</trkpt>
<trkpt lat="48.804264049977064" lon="9.509191447868943">
<ele>264.2</ele>
<time>2024-05-12T13:11:05Z</time>
</trkpt>
<trkpt lat="48.804264049977064" lon="9.509276356548073">
<ele>264</ele>
<time>2024-05-12T13:11:06Z</time>
</trkpt>
<trkpt lat="48.804260194301605" lon="9.509360259398818">
<ele>264</ele>
<time>2024-05-12T13:11:07Z</time>
</trkpt>
<trkpt lat="48.80425642244518" lon="9.509443240240216">
<ele>264</ele>
<time>2024-05-12T13:11:08Z</time>
</trkpt>
<trkpt lat="48.80424879491329" lon="9.509525299072266">
<ele>264.2</ele>
<time>2024-05-12T13:11:09Z</time>
</trkpt>
<trkpt lat="48.80424493923783" lon="9.509603418409824">
<ele>264.2</ele>
<time>2024-05-12T13:11:10Z</time>
</trkpt>
<trkpt lat="48.804241167381406" lon="9.509681621566417">
<ele>264.2</ele>
<time>2024-05-12T13:11:11Z</time>
</trkpt>
<trkpt lat="48.80423731170595" lon="9.509757980704308">
<ele>264</ele>
<time>2024-05-12T13:11:12Z</time>
</trkpt>
<trkpt lat="48.80423731170595" lon="9.509836183860898">
<ele>264</ele>
<time>2024-05-12T13:11:13Z</time>
</trkpt>
<trkpt lat="48.80423353984952" lon="9.509915309026836">
<ele>264</ele>
<time>2024-05-12T13:11:14Z</time>
</trkpt>
<trkpt lat="48.80422968417406" lon="9.509993512183428">
<ele>264.2</ele>
<time>2024-05-12T13:11:15Z</time>
</trkpt>
<trkpt lat="48.804225912317634" lon="9.510073643177748">
<ele>264.2</ele>
<time>2024-05-12T13:11:16Z</time>
</trkpt>
<trkpt lat="48.804222056642175" lon="9.510153690353036">
<ele>264.2</ele>
<time>2024-05-12T13:11:17Z</time>
</trkpt>
<trkpt lat="48.80421828478575" lon="9.510232899338009">
<ele>264.4</ele>
<time>2024-05-12T13:11:18Z</time>
</trkpt>
<trkpt lat="48.80421442911029" lon="9.510313030332329">
<ele>264.4</ele>
<time>2024-05-12T13:11:19Z</time>
</trkpt>
<trkpt lat="48.80421065725386" lon="9.510391233488916">
<ele>264.4</ele>
<time>2024-05-12T13:11:20Z</time>
</trkpt>
<trkpt lat="48.80421065725386" lon="9.510470358654857">
<ele>264.4</ele>
<time>2024-05-12T13:11:21Z</time>
</trkpt>
<trkpt lat="48.8042068015784" lon="9.510546633973718">
<ele>264.4</ele>
<time>2024-05-12T13:11:22Z</time>
</trkpt>
<trkpt lat="48.804203029721975" lon="9.51062290929258">
<ele>264.4</ele>
<time>2024-05-12T13:11:23Z</time>
</trkpt>
<trkpt lat="48.80419917404651" lon="9.51069826260209">
<ele>264.4</ele>
<time>2024-05-12T13:11:24Z</time>
</trkpt>
<trkpt lat="48.80419154651463" lon="9.510773615911605">
<ele>264.6</ele>
<time>2024-05-12T13:11:25Z</time>
</trkpt>
<trkpt lat="48.8041877746582" lon="9.510847963392736">
<ele>264.6</ele>
<time>2024-05-12T13:11:26Z</time>
</trkpt>
<trkpt lat="48.804180063307285" lon="9.510921472683547">
<ele>264.6</ele>
<time>2024-05-12T13:11:27Z</time>
</trkpt>
<trkpt lat="48.8041724357754" lon="9.51099674217403">
<ele>264.6</ele>
<time>2024-05-12T13:11:28Z</time>
</trkpt>
<trkpt lat="48.80416480824351" lon="9.511073101311922">
<ele>264.8</ele>
<time>2024-05-12T13:11:29Z</time>
</trkpt>
<trkpt lat="48.8041534088552" lon="9.511148370802402">
<ele>264.8</ele>
<time>2024-05-12T13:11:30Z</time>
</trkpt>
<trkpt lat="48.804145781323314" lon="9.511221880093215">
<ele>264.8</ele>
<time>2024-05-12T13:11:31Z</time>
</trkpt>
<trkpt lat="48.80413815379143" lon="9.51129337772727">
<ele>264.8</ele>
<time>2024-05-12T13:11:32Z</time>
</trkpt>
<trkpt lat="48.80412667058408" lon="9.511364875361323">
<ele>264.8</ele>
<time>2024-05-12T13:11:33Z</time>
</trkpt>
<trkpt lat="48.80411527119577" lon="9.511436456814408">
<ele>264.8</ele>
<time>2024-05-12T13:11:34Z</time>
</trkpt>
<trkpt lat="48.804103787988424" lon="9.511507954448462">
<ele>264.8</ele>
<time>2024-05-12T13:11:35Z</time>
</trkpt>
<trkpt lat="48.80408853292465" lon="9.511579452082517">
<ele>264.8</ele>
<time>2024-05-12T13:11:36Z</time>
</trkpt>
<trkpt lat="48.80407713353634" lon="9.511652877554296">
<ele>264.8</ele>
<time>2024-05-12T13:11:37Z</time>
</trkpt>
<trkpt lat="48.80406187847257" lon="9.511725381016731">
<ele>264.8</ele>
<time>2024-05-12T13:11:38Z</time>
</trkpt>
<trkpt lat="48.80405039526522" lon="9.511795034632089">
<ele>264.8</ele>
<time>2024-05-12T13:11:39Z</time>
</trkpt>
<trkpt lat="48.80403514020145" lon="9.51186460442841">
<ele>264.6</ele>
<time>2024-05-12T13:11:40Z</time>
</trkpt>
<trkpt lat="48.80401988513768" lon="9.511933252215384">
<ele>264.6</ele>
<time>2024-05-12T13:11:41Z</time>
</trkpt>
<trkpt lat="48.80400840193033" lon="9.511998128145931">
<ele>264.8</ele>
<time>2024-05-12T13:11:42Z</time>
</trkpt>
<trkpt lat="48.80399314686656" lon="9.51206493191421">
<ele>264.8</ele>
<time>2024-05-12T13:11:43Z</time>
</trkpt>
<trkpt lat="48.80397411994636" lon="9.512131651863456">
<ele>264.8</ele>
<time>2024-05-12T13:11:44Z</time>
</trkpt>
<trkpt lat="48.80395886488259" lon="9.5121983718127">
<ele>264.6</ele>
<time>2024-05-12T13:11:45Z</time>
</trkpt>
<trkpt lat="48.803943609818816" lon="9.512265175580978">
<ele>264.6</ele>
<time>2024-05-12T13:11:46Z</time>
</trkpt>
<trkpt lat="48.80392835475504" lon="9.512331895530224">
<ele>264.6</ele>
<time>2024-05-12T13:11:47Z</time>
</trkpt>
<trkpt lat="48.80390924401581" lon="9.5123986992985">
<ele>264.6</ele>
<time>2024-05-12T13:11:48Z</time>
</trkpt>
<trkpt lat="48.80389021709561" lon="9.512464497238398">
<ele>264.6</ele>
<time>2024-05-12T13:11:49Z</time>
</trkpt>
<trkpt lat="48.80387110635638" lon="9.512531217187645">
<ele>264.8</ele>
<time>2024-05-12T13:11:50Z</time>
</trkpt>
<trkpt lat="48.80385207943618" lon="9.51259701512754">
<ele>264.8</ele>
<time>2024-05-12T13:11:51Z</time>
</trkpt>
<trkpt lat="48.80383296869695" lon="9.512659963220358">
<ele>265</ele>
<time>2024-05-12T13:11:52Z</time>
</trkpt>
<trkpt lat="48.803810086101294" lon="9.512726766988637">
<ele>265.2</ele>
<time>2024-05-12T13:11:53Z</time>
</trkpt>
<trkpt lat="48.803787203505635" lon="9.512791559100153">
<ele>265.2</ele>
<time>2024-05-12T13:11:54Z</time>
</trkpt>
<trkpt lat="48.80376432090998" lon="9.5128564350307">
<ele>265.4</ele>
<time>2024-05-12T13:11:55Z</time>
</trkpt>
<trkpt lat="48.80373758263886" lon="9.512925082817674">
<ele>265.4</ele>
<time>2024-05-12T13:11:56Z</time>
</trkpt>
<trkpt lat="48.8037147000432" lon="9.51298995874822">
<ele>265.4</ele>
<time>2024-05-12T13:11:57Z</time>
</trkpt>
<trkpt lat="48.80368804559112" lon="9.51305290684104">
<ele>265.4</ele>
<time>2024-05-12T13:11:58Z</time>
</trkpt>
<trkpt lat="48.803665079176426" lon="9.513116776943209">
<ele>265.6</ele>
<time>2024-05-12T13:11:59Z</time>
</trkpt>
<trkpt lat="48.80364219658077" lon="9.513174947351215">
<ele>265.6</ele>
<time>2024-05-12T13:12:00Z</time>
</trkpt>
<trkpt lat="48.80362316966057" lon="9.51323127374053">
<ele>265.6</ele>
<time>2024-05-12T13:12:01Z</time>
</trkpt>
<trkpt lat="48.8036079145968" lon="9.51329036615789">
<ele>265.6</ele>
<time>2024-05-12T13:12:02Z</time>
</trkpt>
<trkpt lat="48.803592659533024" lon="9.513349458575249">
<ele>265.6</ele>
<time>2024-05-12T13:12:03Z</time>
</trkpt>
<trkpt lat="48.80358117632568" lon="9.513411484658718">
<ele>265.6</ele>
<time>2024-05-12T13:12:04Z</time>
</trkpt>
<trkpt lat="48.803569776937366" lon="9.513471582904458">
<ele>265.6</ele>
<time>2024-05-12T13:12:05Z</time>
</trkpt>
<trkpt lat="48.80356214940548" lon="9.513531681150198">
<ele>265.6</ele>
<time>2024-05-12T13:12:06Z</time>
</trkpt>
<trkpt lat="48.803550666198134" lon="9.513596473261714">
<ele>265.6</ele>
<time>2024-05-12T13:12:07Z</time>
</trkpt>
<trkpt lat="48.80353926680982" lon="9.513663277029991">
<ele>265.6</ele>
<time>2024-05-12T13:12:08Z</time>
</trkpt>
<trkpt lat="48.80352778360248" lon="9.513731924816966">
<ele>265.6</ele>
<time>2024-05-12T13:12:09Z</time>
</trkpt>
<trkpt lat="48.80350875668228" lon="9.513798644766212">
<ele>265.8</ele>
<time>2024-05-12T13:12:10Z</time>
</trkpt>
<trkpt lat="48.803489645943046" lon="9.513859748840332">
<ele>265.8</ele>
<time>2024-05-12T13:12:11Z</time>
</trkpt>
<trkpt lat="48.80346676334739" lon="9.51391976326704">
<ele>266</ele>
<time>2024-05-12T13:12:12Z</time>
</trkpt>
<trkpt lat="48.80343625321984" lon="9.513977011665702">
<ele>266</ele>
<time>2024-05-12T13:12:13Z</time>
</trkpt>
<trkpt lat="48.80340188741684" lon="9.514028476551175">
<ele>266</ele>
<time>2024-05-12T13:12:14Z</time>
</trkpt>
<trkpt lat="48.80336374975741" lon="9.514082875102758">
<ele>266</ele>
<time>2024-05-12T13:12:15Z</time>
</trkpt>
<trkpt lat="48.80332175642252" lon="9.514131490141152">
<ele>266</ele>
<time>2024-05-12T13:12:16Z</time>
</trkpt>
<trkpt lat="48.8032759912312" lon="9.514175411313772">
<ele>266</ele>
<time>2024-05-12T13:12:17Z</time>
</trkpt>
<trkpt lat="48.80323022603989" lon="9.514209693297744">
<ele>266</ele>
<time>2024-05-12T13:12:18Z</time>
</trkpt>
<trkpt lat="48.80318446084857" lon="9.514244981110096">
<ele>266</ele>
<time>2024-05-12T13:12:19Z</time>
</trkpt>
<trkpt lat="48.80313869565725" lon="9.51427649706602">
<ele>266</ele>
<time>2024-05-12T13:12:20Z</time>
</trkpt>
<trkpt lat="48.80309670232237" lon="9.514311784878371">
<ele>266</ele>
<time>2024-05-12T13:12:21Z</time>
</trkpt>
<trkpt lat="48.803054792806506" lon="9.514347072690724">
<ele>266</ele>
<time>2024-05-12T13:12:22Z</time>
</trkpt>
<trkpt lat="48.80300902761519" lon="9.514383282512426">
<ele>266</ele>
<time>2024-05-12T13:12:23Z</time>
</trkpt>
<trkpt lat="48.8029670342803" lon="9.514419492334127">
<ele>266</ele>
<time>2024-05-12T13:12:24Z</time>
</trkpt>
<trkpt lat="48.80292504094541" lon="9.514456707984207">
<ele>266</ele>
<time>2024-05-12T13:12:25Z</time>
</trkpt>
<trkpt lat="48.80288690328598" lon="9.51449199579656">
<ele>266</ele>
<time>2024-05-12T13:12:26Z</time>
</trkpt>
<trkpt lat="48.80284876562655" lon="9.514521583914757">
<ele>265.8</ele>
<time>2024-05-12T13:12:27Z</time>
</trkpt>
<trkpt lat="48.80280677229166" lon="9.514550166204572">
<ele>265.8</ele>
<time>2024-05-12T13:12:28Z</time>
</trkpt>
<trkpt lat="48.8027648627758" lon="9.51457497663796">
<ele>265.8</ele>
<time>2024-05-12T13:12:29Z</time>
</trkpt>
<trkpt lat="48.80272672511637" lon="9.514599787071347">
<ele>266</ele>
<time>2024-05-12T13:12:30Z</time>
</trkpt>
<trkpt lat="48.80268858745694" lon="9.514628369361162">
<ele>266</ele>
<time>2024-05-12T13:12:31Z</time>
</trkpt>
<trkpt lat="48.80265422165394" lon="9.51465510763228">
<ele>266</ele>
<time>2024-05-12T13:12:32Z</time>
</trkpt>
<trkpt lat="48.802623711526394" lon="9.514681762084363">
<ele>266.2</ele>
<time>2024-05-12T13:12:33Z</time>
</trkpt>
<trkpt lat="48.80259697325528" lon="9.51471034437418">
<ele>266.2</ele>
<time>2024-05-12T13:12:34Z</time>
</trkpt>
<trkpt lat="48.80257409065962" lon="9.514728533104062">
<ele>266.4</ele>
<time>2024-05-12T13:12:35Z</time>
</trkpt>
<trkpt lat="48.80254743620753" lon="9.514749487861993">
<ele>266.4</ele>
<time>2024-05-12T13:12:36Z</time>
</trkpt>
<trkpt lat="48.802524553611875" lon="9.514776226133108">
<ele>266.6</ele>
<time>2024-05-12T13:12:37Z</time>
</trkpt>
<trkpt lat="48.80250544287264" lon="9.514801958575845">
<ele>266.6</ele>
<time>2024-05-12T13:12:38Z</time>
</trkpt>
<trkpt lat="48.802501671016216" lon="9.514838168397546">
<ele>266.8</ele>
<time>2024-05-12T13:12:39Z</time>
</trkpt>
<trkpt lat="48.80249781534076" lon="9.514876306056976">
<ele>267</ele>
<time>2024-05-12T13:12:40Z</time>
</trkpt>
<trkpt lat="48.8025092985481" lon="9.514924921095371">
<ele>267</ele>
<time>2024-05-12T13:12:41Z</time>
</trkpt>
<trkpt lat="48.802524553611875" lon="9.514980241656303">
<ele>267.2</ele>
<time>2024-05-12T13:12:42Z</time>
</trkpt>
<trkpt lat="48.802543580532074" lon="9.515031790360808">
<ele>267.4</ele>
<time>2024-05-12T13:12:43Z</time>
</trkpt>
<trkpt lat="48.80256646312773" lon="9.515083255246282">
<ele>267.6</ele>
<time>2024-05-12T13:12:44Z</time>
</trkpt>
<trkpt lat="48.80259320139885" lon="9.515131870284677">
<ele>267.8</ele>
<time>2024-05-12T13:12:45Z</time>
</trkpt>
<trkpt lat="48.80261608399451" lon="9.515181491151452">
<ele>267.8</ele>
<time>2024-05-12T13:12:46Z</time>
</trkpt>
<trkpt lat="48.802642822265625" lon="9.515234883874657">
<ele>267.8</ele>
<time>2024-05-12T13:12:47Z</time>
</trkpt>
<trkpt lat="48.80267333239317" lon="9.515290204435589">
<ele>267.8</ele>
<time>2024-05-12T13:12:48Z</time>
</trkpt>
<trkpt lat="48.802699986845255" lon="9.515346447005868">
<ele>267.8</ele>
<time>2024-05-12T13:12:49Z</time>
</trkpt>
<trkpt lat="48.8027304969728" lon="9.515399923548102">
<ele>267.8</ele>
<time>2024-05-12T13:12:50Z</time>
</trkpt>
<trkpt lat="48.802761007100344" lon="9.515451388433576">
<ele>267.8</ele>
<time>2024-05-12T13:12:51Z</time>
</trkpt>
<trkpt lat="48.80278774537146" lon="9.515506708994508">
<ele>267.6</ele>
<time>2024-05-12T13:12:52Z</time>
</trkpt>
<trkpt lat="48.80281448364258" lon="9.515564879402518">
<ele>267.6</ele>
<time>2024-05-12T13:12:53Z</time>
</trkpt>
<trkpt lat="48.802841138094664" lon="9.51562019996345">
<ele>267.6</ele>
<time>2024-05-12T13:12:54Z</time>
</trkpt>
<trkpt lat="48.80287164822221" lon="9.51567837037146">
<ele>267.4</ele>
<time>2024-05-12T13:12:55Z</time>
</trkpt>
<trkpt lat="48.802898386493325" lon="9.5157384686172">
<ele>267.4</ele>
<time>2024-05-12T13:12:56Z</time>
</trkpt>
<trkpt lat="48.80292504094541" lon="9.515794711187482">
<ele>267.4</ele>
<time>2024-05-12T13:12:57Z</time>
</trkpt>
<trkpt lat="48.80295177921653" lon="9.515850031748414">
<ele>267.4</ele>
<time>2024-05-12T13:12:58Z</time>
</trkpt>
<trkpt lat="48.80297843366861" lon="9.515908202156425">
<ele>267.6</ele>
<time>2024-05-12T13:12:59Z</time>
</trkpt>
<trkpt lat="48.80300517193973" lon="9.515968300402164">
<ele>267.6</ele>
<time>2024-05-12T13:13:00Z</time>
</trkpt>
<trkpt lat="48.80303191021085" lon="9.516031248494984">
<ele>267.4</ele>
<time>2024-05-12T13:13:01Z</time>
</trkpt>
<trkpt lat="48.803054792806506" lon="9.51609511859715">
<ele>267.4</ele>
<time>2024-05-12T13:13:02Z</time>
</trkpt>
<trkpt lat="48.803073819726706" lon="9.516161838546395">
<ele>267.4</ele>
<time>2024-05-12T13:13:03Z</time>
</trkpt>
<trkpt lat="48.80309293046594" lon="9.516228642314672">
<ele>267.2</ele>
<time>2024-05-12T13:13:04Z</time>
</trkpt>
<trkpt lat="48.803111957386136" lon="9.5162963680923">
<ele>267.2</ele>
<time>2024-05-12T13:13:05Z</time>
</trkpt>
<trkpt lat="48.803134839981794" lon="9.516363088041544">
<ele>267</ele>
<time>2024-05-12T13:13:06Z</time>
</trkpt>
<trkpt lat="48.80315780639648" lon="9.516433663666248">
<ele>267</ele>
<time>2024-05-12T13:13:07Z</time>
</trkpt>
<trkpt lat="48.80318068899214" lon="9.516500467434524">
<ele>266.8</ele>
<time>2024-05-12T13:13:08Z</time>
</trkpt>
<trkpt lat="48.8032035715878" lon="9.51657003723085">
<ele>266.6</ele>
<time>2024-05-12T13:13:09Z</time>
</trkpt>
<trkpt lat="48.80322645418346" lon="9.516636840999126">
<ele>266.6</ele>
<time>2024-05-12T13:13:10Z</time>
</trkpt>
<trkpt lat="48.80324933677912" lon="9.516699789091945">
<ele>266.4</ele>
<time>2024-05-12T13:13:11Z</time>
</trkpt>
<trkpt lat="48.80326836369932" lon="9.516763659194112">
<ele>266.4</ele>
<time>2024-05-12T13:13:12Z</time>
</trkpt>
<trkpt lat="48.803291246294975" lon="9.51682853512466">
<ele>266.4</ele>
<time>2024-05-12T13:13:13Z</time>
</trkpt>
<trkpt lat="48.80330650135875" lon="9.516889555379748">
<ele>266.2</ele>
<time>2024-05-12T13:13:14Z</time>
</trkpt>
<trkpt lat="48.80332561209798" lon="9.516956275328994">
<ele>266.2</ele>
<time>2024-05-12T13:13:15Z</time>
</trkpt>
<trkpt lat="48.80334472283721" lon="9.517023079097273">
<ele>266.2</ele>
<time>2024-05-12T13:13:16Z</time>
</trkpt>
<trkpt lat="48.80335997790098" lon="9.517086949199438">
<ele>266</ele>
<time>2024-05-12T13:13:17Z</time>
</trkpt>
<trkpt lat="48.80337900482118" lon="9.517153669148684">
<ele>266</ele>
<time>2024-05-12T13:13:18Z</time>
</trkpt>
<trkpt lat="48.80339811556041" lon="9.517213767394423">
<ele>266</ele>
<time>2024-05-12T13:13:19Z</time>
</trkpt>
<trkpt lat="48.80341714248061" lon="9.517276715487242">
<ele>265.8</ele>
<time>2024-05-12T13:13:20Z</time>
</trkpt>
<trkpt lat="48.80344002507627" lon="9.51734351925552">
<ele>265.8</ele>
<time>2024-05-12T13:13:21Z</time>
</trkpt>
<trkpt lat="48.80345528014004" lon="9.517410239204764">
<ele>265.8</ele>
<time>2024-05-12T13:13:22Z</time>
</trkpt>
<trkpt lat="48.8034781627357" lon="9.517475115135312">
<ele>265.8</ele>
<time>2024-05-12T13:13:23Z</time>
</trkpt>
<trkpt lat="48.80349727347493" lon="9.517539907246828">
<ele>265.8</ele>
<time>2024-05-12T13:13:24Z</time>
</trkpt>
<trkpt lat="48.80351638421416" lon="9.517602855339646">
<ele>265.6</ele>
<time>2024-05-12T13:13:25Z</time>
</trkpt>
<trkpt lat="48.80353926680982" lon="9.517669659107924">
<ele>265.6</ele>
<time>2024-05-12T13:13:26Z</time>
</trkpt>
<trkpt lat="48.80355829373002" lon="9.51773445121944">
<ele>265.8</ele>
<time>2024-05-12T13:13:27Z</time>
</trkpt>
<trkpt lat="48.80358117632568" lon="9.517800249159336">
<ele>265.8</ele>
<time>2024-05-12T13:13:28Z</time>
</trkpt>
<trkpt lat="48.8036079145968" lon="9.517863197252154">
<ele>265.8</ele>
<time>2024-05-12T13:13:29Z</time>
</trkpt>
<trkpt lat="48.80363456904888" lon="9.517925223335624">
<ele>266</ele>
<time>2024-05-12T13:13:30Z</time>
</trkpt>
<trkpt lat="48.80365745164454" lon="9.517988171428442">
<ele>266</ele>
<time>2024-05-12T13:13:31Z</time>
</trkpt>
<trkpt lat="48.80368418991566" lon="9.51805304735899">
<ele>266</ele>
<time>2024-05-12T13:13:32Z</time>
</trkpt>
<trkpt lat="48.803707072511315" lon="9.518117839470506">
<ele>266</ele>
<time>2024-05-12T13:13:33Z</time>
</trkpt>
<trkpt lat="48.80373381078243" lon="9.518181793391705">
<ele>266</ele>
<time>2024-05-12T13:13:34Z</time>
</trkpt>
<trkpt lat="48.80376046523452" lon="9.518239963799717">
<ele>266.2</ele>
<time>2024-05-12T13:13:35Z</time>
</trkpt>
<trkpt lat="48.803787203505635" lon="9.518298134207726">
<ele>266.2</ele>
<time>2024-05-12T13:13:36Z</time>
</trkpt>
<trkpt lat="48.80381385795772" lon="9.518353454768658">
<ele>266.4</ele>
<time>2024-05-12T13:13:37Z</time>
</trkpt>
<trkpt lat="48.8038444519043" lon="9.51840877532959">
<ele>266.4</ele>
<time>2024-05-12T13:13:38Z</time>
</trkpt>
<trkpt lat="48.80387496203184" lon="9.518461162224412">
<ele>266.4</ele>
<time>2024-05-12T13:13:39Z</time>
</trkpt>
<trkpt lat="48.80391309969127" lon="9.518514554947616">
<ele>266.4</ele>
<time>2024-05-12T13:13:40Z</time>
</trkpt>
<trkpt lat="48.80394738167524" lon="9.518568031489847">
<ele>266.4</ele>
<time>2024-05-12T13:13:41Z</time>
</trkpt>
<trkpt lat="48.80398174747825" lon="9.518618574365972">
<ele>266.6</ele>
<time>2024-05-12T13:13:42Z</time>
</trkpt>
<trkpt lat="48.80401988513768" lon="9.51866626739502">
<ele>266.6</ele>
<time>2024-05-12T13:13:43Z</time>
</trkpt>
<trkpt lat="48.80406187847257" lon="9.518714882433414">
<ele>266.6</ele>
<time>2024-05-12T13:13:44Z</time>
</trkpt>
<trkpt lat="48.804100016132" lon="9.518759725615382">
<ele>266.6</ele>
<time>2024-05-12T13:13:45Z</time>
</trkpt>
<trkpt lat="48.80413815379143" lon="9.518804484978318">
<ele>266.6</ele>
<time>2024-05-12T13:13:46Z</time>
</trkpt>
<trkpt lat="48.804180063307285" lon="9.51884362846613">
<ele>266.4</ele>
<time>2024-05-12T13:13:47Z</time>
</trkpt>
<trkpt lat="48.80421828478575" lon="9.51888176612556">
<ele>266.4</ele>
<time>2024-05-12T13:13:48Z</time>
</trkpt>
<trkpt lat="48.804260194301605" lon="9.51891797594726">
<ele>266.4</ele>
<time>2024-05-12T13:13:49Z</time>
</trkpt>
<trkpt lat="48.80429833196104" lon="9.518953263759611">
<ele>266.4</ele>
<time>2024-05-12T13:13:50Z</time>
</trkpt>
<trkpt lat="48.804336469620466" lon="9.518991401419044">
<ele>266.4</ele>
<time>2024-05-12T13:13:51Z</time>
</trkpt>
<trkpt lat="48.80437469109893" lon="9.519029539078474">
<ele>266.6</ele>
<time>2024-05-12T13:13:52Z</time>
</trkpt>
<trkpt lat="48.80441282875836" lon="9.519064826890826">
<ele>266.6</ele>
<time>2024-05-12T13:13:53Z</time>
</trkpt>
<trkpt lat="48.80445096641779" lon="9.519096342846751">
<ele>266.6</ele>
<time>2024-05-12T13:13:54Z</time>
</trkpt>
<trkpt lat="48.80448910407722" lon="9.519128780812023">
<ele>266.6</ele>
<time>2024-05-12T13:13:55Z</time>
</trkpt>
<trkpt lat="48.80452724173665" lon="9.519158285111187">
<ele>266.6</ele>
<time>2024-05-12T13:13:56Z</time>
</trkpt>
<trkpt lat="48.80456537939608" lon="9.519189801067114">
<ele>266.8</ele>
<time>2024-05-12T13:13:57Z</time>
</trkpt>
<trkpt lat="48.80460351705551" lon="9.519220311194658">
<ele>266.8</ele>
<time>2024-05-12T13:13:58Z</time>
</trkpt>
<trkpt lat="48.80464165471494" lon="9.519249899312854">
<ele>266.8</ele>
<time>2024-05-12T13:13:59Z</time>
</trkpt>
<trkpt lat="48.80467979237437" lon="9.519278481602669">
<ele>266.8</ele>
<time>2024-05-12T13:14:00Z</time>
</trkpt>
<trkpt lat="48.804718013852835" lon="9.519308069720864">
<ele>267</ele>
<time>2024-05-12T13:14:01Z</time>
</trkpt>
<trkpt lat="48.804756151512265" lon="9.51933665201068">
<ele>267</ele>
<time>2024-05-12T13:14:02Z</time>
</trkpt>
<trkpt lat="48.80479043349624" lon="9.519366240128877">
<ele>267</ele>
<time>2024-05-12T13:14:03Z</time>
</trkpt>
<trkpt lat="48.80482479929924" lon="9.519398678094149">
<ele>267</ele>
<time>2024-05-12T13:14:04Z</time>
</trkpt>
<trkpt lat="48.80485908128321" lon="9.51943488791585">
<ele>267</ele>
<time>2024-05-12T13:14:05Z</time>
</trkpt>
<trkpt lat="48.804893447086215" lon="9.519472103565931">
<ele>267</ele>
<time>2024-05-12T13:14:06Z</time>
</trkpt>
<trkpt lat="48.80492395721376" lon="9.519508313387632">
<ele>267.2</ele>
<time>2024-05-12T13:14:07Z</time>
</trkpt>
<trkpt lat="48.804954467341304" lon="9.519543601199985">
<ele>267</ele>
<time>2024-05-12T13:14:08Z</time>
</trkpt>
<trkpt lat="48.80498120561242" lon="9.519576961174607">
<ele>267</ele>
<time>2024-05-12T13:14:09Z</time>
</trkpt>
<trkpt lat="48.80500023253262" lon="9.519603699445724">
<ele>267</ele>
<time>2024-05-12T13:14:10Z</time>
</trkpt>
<trkpt lat="48.80502311512828" lon="9.519628509879112">
<ele>267</ele>
<time>2024-05-12T13:14:11Z</time>
</trkpt>
<trkpt lat="48.80504222586751" lon="9.519658014178276">
<ele>267</ele>
<time>2024-05-12T13:14:12Z</time>
</trkpt>
<trkpt lat="48.80506510846317" lon="9.519693301990628">
<ele>266.8</ele>
<time>2024-05-12T13:14:13Z</time>
</trkpt>
<trkpt lat="48.805087991058826" lon="9.519735295325518">
<ele>266.8</ele>
<time>2024-05-12T13:14:14Z</time>
</trkpt>
<trkpt lat="48.80510710179806" lon="9.519782066345217">
<ele>266.6</ele>
<time>2024-05-12T13:14:15Z</time>
</trkpt>
<trkpt lat="48.80512612871826" lon="9.519833531230688">
<ele>266.4</ele>
<time>2024-05-12T13:14:16Z</time>
</trkpt>
<trkpt lat="48.80514523945749" lon="9.51988692395389">
<ele>266.2</ele>
<time>2024-05-12T13:14:17Z</time>
</trkpt>
<trkpt lat="48.805168122053146" lon="9.519941322505474">
<ele>266.2</ele>
<time>2024-05-12T13:14:18Z</time>
</trkpt>
<trkpt lat="48.805191004648805" lon="9.519980382174252">
<ele>266</ele>
<time>2024-05-12T13:14:19Z</time>
</trkpt>
<trkpt lat="48.80522151477635" lon="9.520013742148876">
<ele>266</ele>
<time>2024-05-12T13:14:20Z</time>
</trkpt>
<trkpt lat="48.80525202490389" lon="9.520052885636687">
<ele>266</ele>
<time>2024-05-12T13:14:21Z</time>
</trkpt>
<trkpt lat="48.80527876317501" lon="9.520101500675082">
<ele>266</ele>
<time>2024-05-12T13:14:22Z</time>
</trkpt>
<trkpt lat="48.80530164577067" lon="9.520152043551208">
<ele>266</ele>
<time>2024-05-12T13:14:23Z</time>
</trkpt>
<trkpt lat="48.80532452836633" lon="9.52020644210279">
<ele>265.8</ele>
<time>2024-05-12T13:14:24Z</time>
</trkpt>
<trkpt lat="48.805347410961986" lon="9.520261762663722">
<ele>265.8</ele>
<time>2024-05-12T13:14:25Z</time>
</trkpt>
<trkpt lat="48.805366437882185" lon="9.520316999405622">
<ele>265.8</ele>
<time>2024-05-12T13:14:26Z</time>
</trkpt>
<trkpt lat="48.805389404296875" lon="9.520375169813631">
<ele>265.8</ele>
<time>2024-05-12T13:14:27Z</time>
</trkpt>
<trkpt lat="48.805408431217074" lon="9.520435268059371">
<ele>265.8</ele>
<time>2024-05-12T13:14:28Z</time>
</trkpt>
<trkpt lat="48.805427541956306" lon="9.520493438467383">
<ele>265.8</ele>
<time>2024-05-12T13:14:29Z</time>
</trkpt>
<trkpt lat="48.805446568876505" lon="9.520553536713123">
<ele>266</ele>
<time>2024-05-12T13:14:30Z</time>
</trkpt>
<trkpt lat="48.80546945147216" lon="9.520613634958863">
<ele>266.2</ele>
<time>2024-05-12T13:14:31Z</time>
</trkpt>
<trkpt lat="48.805484706535935" lon="9.520674655213952">
<ele>266.4</ele>
<time>2024-05-12T13:14:32Z</time>
</trkpt>
<trkpt lat="48.80550381727517" lon="9.520731903612614">
<ele>266.6</ele>
<time>2024-05-12T13:14:33Z</time>
</trkpt>
<trkpt lat="48.805526699870825" lon="9.520792001858354">
<ele>266.8</ele>
<time>2024-05-12T13:14:34Z</time>
</trkpt>
<trkpt lat="48.80554958246648" lon="9.520850172266364">
<ele>267</ele>
<time>2024-05-12T13:14:35Z</time>
</trkpt>
<trkpt lat="48.80557246506214" lon="9.520906414836643">
<ele>267</ele>
<time>2024-05-12T13:14:36Z</time>
</trkpt>
<trkpt lat="48.80559157580137" lon="9.520964585244656">
<ele>267.2</ele>
<time>2024-05-12T13:14:37Z</time>
</trkpt>
<trkpt lat="48.80561445839703" lon="9.521021833643315">
<ele>267.4</ele>
<time>2024-05-12T13:14:38Z</time>
</trkpt>
<trkpt lat="48.80563734099269" lon="9.521080004051328">
<ele>267.6</ele>
<time>2024-05-12T13:14:39Z</time>
</trkpt>
<trkpt lat="48.80565636791289" lon="9.521138174459338">
<ele>267.6</ele>
<time>2024-05-12T13:14:40Z</time>
</trkpt>
<trkpt lat="48.805683106184006" lon="9.52119349502027">
<ele>267.6</ele>
<time>2024-05-12T13:14:41Z</time>
</trkpt>
<trkpt lat="48.805702133104205" lon="9.521249737590551">
<ele>267.8</ele>
<time>2024-05-12T13:14:42Z</time>
</trkpt>
<trkpt lat="48.80572501569986" lon="9.521306985989211">
<ele>267.8</ele>
<time>2024-05-12T13:14:43Z</time>
</trkpt>
<trkpt lat="48.80574798211455" lon="9.521361300721765">
<ele>267.8</ele>
<time>2024-05-12T13:14:44Z</time>
</trkpt>
<trkpt lat="48.80576700903475" lon="9.521419471129777">
<ele>267.8</ele>
<time>2024-05-12T13:14:45Z</time>
</trkpt>
<trkpt lat="48.80578989163041" lon="9.521476719528437">
<ele>268</ele>
<time>2024-05-12T13:14:46Z</time>
</trkpt>
<trkpt lat="48.80581277422607" lon="9.521534889936447">
<ele>268</ele>
<time>2024-05-12T13:14:47Z</time>
</trkpt>
<trkpt lat="48.80583951249719" lon="9.521591132506728">
<ele>268</ele>
<time>2024-05-12T13:14:48Z</time>
</trkpt>
<trkpt lat="48.805862395092845" lon="9.52165030874312">
<ele>268</ele>
<time>2024-05-12T13:14:49Z</time>
</trkpt>
<trkpt lat="48.80588904954493" lon="9.5217065513134">
<ele>268.2</ele>
<time>2024-05-12T13:14:50Z</time>
</trkpt>
<trkpt lat="48.80591201595962" lon="9.52176472172141">
<ele>268.2</ele>
<time>2024-05-12T13:14:51Z</time>
</trkpt>
<trkpt lat="48.805938670411706" lon="9.52182289212942">
<ele>268.2</ele>
<time>2024-05-12T13:14:52Z</time>
</trkpt>
<trkpt lat="48.80596540868282" lon="9.52188198454678">
<ele>268.4</ele>
<time>2024-05-12T13:14:53Z</time>
</trkpt>
<trkpt lat="48.80599206313491" lon="9.521940154954793">
<ele>268.4</ele>
<time>2024-05-12T13:14:54Z</time>
</trkpt>
<trkpt lat="48.80601494573057" lon="9.521998325362802">
<ele>268.4</ele>
<time>2024-05-12T13:14:55Z</time>
</trkpt>
<trkpt lat="48.80604168400168" lon="9.522054651752114">
<ele>268.6</ele>
<time>2024-05-12T13:14:56Z</time>
</trkpt>
<trkpt lat="48.80606833845377" lon="9.522113744169474">
<ele>268.6</ele>
<time>2024-05-12T13:14:57Z</time>
</trkpt>
<trkpt lat="48.80609507672489" lon="9.522171914577484">
<ele>268.6</ele>
<time>2024-05-12T13:14:58Z</time>
</trkpt>
<trkpt lat="48.806121814996" lon="9.522230084985496">
<ele>268.6</ele>
<time>2024-05-12T13:14:59Z</time>
</trkpt>
<trkpt lat="48.80614469759166" lon="9.522291105240583">
<ele>268.6</ele>
<time>2024-05-12T13:15:00Z</time>
</trkpt>
<trkpt lat="48.80616758018732" lon="9.522356986999512">
<ele>268.8</ele>
<time>2024-05-12T13:15:01Z</time>
</trkpt>
<trkpt lat="48.80619046278298" lon="9.522421779111028">
<ele>268.8</ele>
<time>2024-05-12T13:15:02Z</time>
</trkpt>
<trkpt lat="48.80621334537864" lon="9.522486655041575">
<ele>268.8</ele>
<time>2024-05-12T13:15:03Z</time>
</trkpt>
<trkpt lat="48.80623999983072" lon="9.522549603134394">
<ele>268.8</ele>
<time>2024-05-12T13:15:04Z</time>
</trkpt>
<trkpt lat="48.80626296624541" lon="9.52261347323656">
<ele>268.8</ele>
<time>2024-05-12T13:15:05Z</time>
</trkpt>
<trkpt lat="48.80628584884107" lon="9.522681199014189">
<ele>268.8</ele>
<time>2024-05-12T13:15:06Z</time>
</trkpt>
<trkpt lat="48.80630487576127" lon="9.522749846801162">
<ele>268.8</ele>
<time>2024-05-12T13:15:07Z</time>
</trkpt>
<trkpt lat="48.80633161403239" lon="9.52281472273171">
<ele>268.8</ele>
<time>2024-05-12T13:15:08Z</time>
</trkpt>
<trkpt lat="48.806354496628046" lon="9.522879598662255">
<ele>268.8</ele>
<time>2024-05-12T13:15:09Z</time>
</trkpt>
<trkpt lat="48.806377379223704" lon="9.522946318611504">
<ele>268.8</ele>
<time>2024-05-12T13:15:10Z</time>
</trkpt>
<trkpt lat="48.80640026181936" lon="9.523014966398478">
<ele>268.8</ele>
<time>2024-05-12T13:15:11Z</time>
</trkpt>
<trkpt lat="48.80642314441502" lon="9.523084620013831">
<ele>268.8</ele>
<time>2024-05-12T13:15:12Z</time>
</trkpt>
<trkpt lat="48.80644988268614" lon="9.523155195638536">
<ele>268.8</ele>
<time>2024-05-12T13:15:13Z</time>
</trkpt>
<trkpt lat="48.8064727652818" lon="9.52322476543486">
<ele>268.8</ele>
<time>2024-05-12T13:15:14Z</time>
</trkpt>
<trkpt lat="48.806495647877455" lon="9.523295341059566">
<ele>268.8</ele>
<time>2024-05-12T13:15:15Z</time>
</trkpt>
<trkpt lat="48.806514674797654" lon="9.523361138999462">
<ele>268.8</ele>
<time>2024-05-12T13:15:16Z</time>
</trkpt>
<trkpt lat="48.80653755739331" lon="9.52342693693936">
<ele>268.8</ele>
<time>2024-05-12T13:15:17Z</time>
</trkpt>
<trkpt lat="48.80656043998897" lon="9.523491812869906">
<ele>268.8</ele>
<time>2024-05-12T13:15:18Z</time>
</trkpt>
<trkpt lat="48.80658332258463" lon="9.523554760962725">
<ele>268.8</ele>
<time>2024-05-12T13:15:19Z</time>
</trkpt>
<trkpt lat="48.80660628899932" lon="9.52362148091197">
<ele>268.8</ele>
<time>2024-05-12T13:15:20Z</time>
</trkpt>
<trkpt lat="48.80662917159498" lon="9.523690212517977">
<ele>268.8</ele>
<time>2024-05-12T13:15:21Z</time>
</trkpt>
<trkpt lat="48.80665205419064" lon="9.52376363798976">
<ele>268.8</ele>
<time>2024-05-12T13:15:22Z</time>
</trkpt>
<trkpt lat="48.80667870864272" lon="9.523835135623813">
<ele>268.8</ele>
<time>2024-05-12T13:15:23Z</time>
</trkpt>
<trkpt lat="48.80670159123838" lon="9.52390286140144">
<ele>269</ele>
<time>2024-05-12T13:15:24Z</time>
</trkpt>
<trkpt lat="48.8067283295095" lon="9.523968659341335">
<ele>269</ele>
<time>2024-05-12T13:15:25Z</time>
</trkpt>
<trkpt lat="48.80675498396158" lon="9.524029679596424">
<ele>269.2</ele>
<time>2024-05-12T13:15:26Z</time>
</trkpt>
<trkpt lat="48.80677795037627" lon="9.524086927995086">
<ele>269.2</ele>
<time>2024-05-12T13:15:27Z</time>
</trkpt>
<trkpt lat="48.80680083297193" lon="9.524141242727636">
<ele>269.4</ele>
<time>2024-05-12T13:15:28Z</time>
</trkpt>
<trkpt lat="48.80681985989213" lon="9.524193713441491">
<ele>269.4</ele>
<time>2024-05-12T13:15:29Z</time>
</trkpt>
<trkpt lat="48.80684659816325" lon="9.524245262145996">
<ele>269.4</ele>
<time>2024-05-12T13:15:30Z</time>
</trkpt>
<trkpt lat="48.806869480758905" lon="9.524301504716275">
<ele>269.6</ele>
<time>2024-05-12T13:15:31Z</time>
</trkpt>
<trkpt lat="48.80689613521099" lon="9.524358669295909">
<ele>269.4</ele>
<time>2024-05-12T13:15:32Z</time>
</trkpt>
<trkpt lat="48.80692287348211" lon="9.52441499568522">
<ele>269.4</ele>
<time>2024-05-12T13:15:33Z</time>
</trkpt>
<trkpt lat="48.806949611753225" lon="9.524470316246152">
<ele>269.2</ele>
<time>2024-05-12T13:15:34Z</time>
</trkpt>
<trkpt lat="48.80698012188077" lon="9.524526558816431">
<ele>269.2</ele>
<time>2024-05-12T13:15:35Z</time>
</trkpt>
<trkpt lat="48.807006776332855" lon="9.524583807215096">
<ele>269.2</ele>
<time>2024-05-12T13:15:36Z</time>
</trkpt>
<trkpt lat="48.8070372864604" lon="9.524640049785376">
<ele>269</ele>
<time>2024-05-12T13:15:37Z</time>
</trkpt>
<trkpt lat="48.80706402473152" lon="9.524698220193386">
<ele>269</ele>
<time>2024-05-12T13:15:38Z</time>
</trkpt>
<trkpt lat="48.8070906791836" lon="9.524755468592048">
<ele>269</ele>
<time>2024-05-12T13:15:39Z</time>
</trkpt>
<trkpt lat="48.80711741745472" lon="9.524813639000058">
<ele>269</ele>
<time>2024-05-12T13:15:40Z</time>
</trkpt>
<trkpt lat="48.80714415572584" lon="9.524871809408069">
<ele>269</ele>
<time>2024-05-12T13:15:41Z</time>
</trkpt>
<trkpt lat="48.80717081017792" lon="9.52492805197835">
<ele>269</ele>
<time>2024-05-12T13:15:42Z</time>
</trkpt>
<trkpt lat="48.80719369277358" lon="9.52498815022409">
<ele>269</ele>
<time>2024-05-12T13:15:43Z</time>
</trkpt>
<trkpt lat="48.8072204310447" lon="9.5250463206321">
<ele>269</ele>
<time>2024-05-12T13:15:44Z</time>
</trkpt>
<trkpt lat="48.80724708549678" lon="9.525108262896538">
<ele>268.8</ele>
<time>2024-05-12T13:15:45Z</time>
</trkpt>
<trkpt lat="48.80726996809244" lon="9.525170288980007">
<ele>268.8</ele>
<time>2024-05-12T13:15:46Z</time>
</trkpt>
<trkpt lat="48.80729293450713" lon="9.525233237072824">
<ele>269</ele>
<time>2024-05-12T13:15:47Z</time>
</trkpt>
<trkpt lat="48.80731581710279" lon="9.525298113003371">
<ele>269</ele>
<time>2024-05-12T13:15:48Z</time>
</trkpt>
<trkpt lat="48.80733484402299" lon="9.525366760790348">
<ele>269.2</ele>
<time>2024-05-12T13:15:49Z</time>
</trkpt>
<trkpt lat="48.80735395476222" lon="9.525433480739594">
<ele>269.2</ele>
<time>2024-05-12T13:15:50Z</time>
</trkpt>
<trkpt lat="48.80737298168242" lon="9.52550028450787">
<ele>269.4</ele>
<time>2024-05-12T13:15:51Z</time>
</trkpt>
<trkpt lat="48.80738823674619" lon="9.525565076619388">
<ele>269.4</ele>
<time>2024-05-12T13:15:52Z</time>
</trkpt>
<trkpt lat="48.80740734748542" lon="9.525628024712203">
<ele>269.6</ele>
<time>2024-05-12T13:15:53Z</time>
</trkpt>
<trkpt lat="48.807418746873736" lon="9.525691978633404">
<ele>269.6</ele>
<time>2024-05-12T13:15:54Z</time>
</trkpt>
<trkpt lat="48.80743023008108" lon="9.52575677074492">
<ele>269.8</ele>
<time>2024-05-12T13:15:55Z</time>
</trkpt>
<trkpt lat="48.807441629469395" lon="9.52581494115293">
<ele>270</ele>
<time>2024-05-12T13:15:56Z</time>
</trkpt>
<trkpt lat="48.8074569683522" lon="9.52587311156094">
<ele>270</ele>
<time>2024-05-12T13:15:57Z</time>
</trkpt>
<trkpt lat="48.80746836774051" lon="9.525937987491488">
<ele>270.2</ele>
<time>2024-05-12T13:15:58Z</time>
</trkpt>
<trkpt lat="48.80747985094786" lon="9.526004791259766">
<ele>270.2</ele>
<time>2024-05-12T13:15:59Z</time>
</trkpt>
<trkpt lat="48.80749125033617" lon="9.526075283065438">
<ele>270.2</ele>
<time>2024-05-12T13:16:00Z</time>
</trkpt>
<trkpt lat="48.807502733543515" lon="9.526144936680794">
<ele>270.2</ele>
<time>2024-05-12T13:16:01Z</time>
</trkpt>
<trkpt lat="48.80751413293183" lon="9.52621459029615">
<ele>270.4</ele>
<time>2024-05-12T13:16:02Z</time>
</trkpt>
<trkpt lat="48.807521760463715" lon="9.526285165920854">
<ele>270.4</ele>
<time>2024-05-12T13:16:03Z</time>
</trkpt>
<trkpt lat="48.80753701552749" lon="9.526354735717176">
<ele>270.4</ele>
<time>2024-05-12T13:16:04Z</time>
</trkpt>
<trkpt lat="48.80754849873483" lon="9.526423383504152">
<ele>270.4</ele>
<time>2024-05-12T13:16:05Z</time>
</trkpt>
<trkpt lat="48.807559898123145" lon="9.526493037119508">
<ele>270.4</ele>
<time>2024-05-12T13:16:06Z</time>
</trkpt>
<trkpt lat="48.80757515318692" lon="9.526561684906484">
<ele>270.4</ele>
<time>2024-05-12T13:16:07Z</time>
</trkpt>
<trkpt lat="48.80758663639426" lon="9.526633182540536">
<ele>270.4</ele>
<time>2024-05-12T13:16:08Z</time>
</trkpt>
<trkpt lat="48.807598035782576" lon="9.52670476399362">
<ele>270.4</ele>
<time>2024-05-12T13:16:09Z</time>
</trkpt>
<trkpt lat="48.80760951898992" lon="9.526778189465404">
<ele>270.4</ele>
<time>2024-05-12T13:16:10Z</time>
</trkpt>
<trkpt lat="48.807621002197266" lon="9.526851614937186">
<ele>270.4</ele>
<time>2024-05-12T13:16:11Z</time>
</trkpt>
<trkpt lat="48.80763240158558" lon="9.526926968246698">
<ele>270.4</ele>
<time>2024-05-12T13:16:12Z</time>
</trkpt>
<trkpt lat="48.80763625726104" lon="9.52700324356556">
<ele>270.4</ele>
<time>2024-05-12T13:16:13Z</time>
</trkpt>
<trkpt lat="48.80763625726104" lon="9.52708144672215">
<ele>270.2</ele>
<time>2024-05-12T13:16:14Z</time>
</trkpt>
<trkpt lat="48.80763240158558" lon="9.52716157771647">
<ele>270.2</ele>
<time>2024-05-12T13:16:15Z</time>
</trkpt>
<trkpt lat="48.80762862972915" lon="9.527241624891758">
<ele>270</ele>
<time>2024-05-12T13:16:16Z</time>
</trkpt>
<trkpt lat="48.80761714652181" lon="9.527321755886078">
<ele>270</ele>
<time>2024-05-12T13:16:17Z</time>
</trkpt>
<trkpt lat="48.80760566331446" lon="9.527401886880398">
<ele>270</ele>
<time>2024-05-12T13:16:18Z</time>
</trkpt>
<trkpt lat="48.80759426392615" lon="9.527482017874718">
<ele>270</ele>
<time>2024-05-12T13:16:19Z</time>
</trkpt>
<trkpt lat="48.807579008862376" lon="9.527561143040655">
<ele>270.2</ele>
<time>2024-05-12T13:16:20Z</time>
</trkpt>
<trkpt lat="48.80756375379861" lon="9.527640268206596">
<ele>270.2</ele>
<time>2024-05-12T13:16:21Z</time>
</trkpt>
<trkpt lat="48.80754849873483" lon="9.52771369367838">
<ele>270.2</ele>
<time>2024-05-12T13:16:22Z</time>
</trkpt>
<trkpt lat="48.807540871202946" lon="9.527790052816272">
<ele>270.4</ele>
<time>2024-05-12T13:16:23Z</time>
</trkpt>
<trkpt lat="48.80753701552749" lon="9.527865406125784">
<ele>270.4</ele>
<time>2024-05-12T13:16:24Z</time>
</trkpt>
<trkpt lat="48.80753324367106" lon="9.527946459129453">
<ele>270.4</ele>
<time>2024-05-12T13:16:25Z</time>
</trkpt>
<trkpt lat="48.80753324367106" lon="9.52802650630474">
<ele>270.4</ele>
<time>2024-05-12T13:16:26Z</time>
</trkpt>
<trkpt lat="48.80753324367106" lon="9.528104709461331">
<ele>270.6</ele>
<time>2024-05-12T13:16:27Z</time>
</trkpt>
<trkpt lat="48.80753324367106" lon="9.52816958539188">
<ele>270.6</ele>
<time>2024-05-12T13:16:28Z</time>
</trkpt>
<trkpt lat="48.80753324367106" lon="9.528235383331776">
<ele>270.6</ele>
<time>2024-05-12T13:16:29Z</time>
</trkpt>
<trkpt lat="48.80753324367106" lon="9.528300259262323">
<ele>270.8</ele>
<time>2024-05-12T13:16:30Z</time>
</trkpt>
<trkpt lat="48.80753324367106" lon="9.528360357508063">
<ele>270.8</ele>
<time>2024-05-12T13:16:31Z</time>
</trkpt>
<trkpt lat="48.80753324367106" lon="9.52842514961958">
<ele>270.8</ele>
<time>2024-05-12T13:16:32Z</time>
</trkpt>
<trkpt lat="48.80753701552749" lon="9.528488097712398">
<ele>271</ele>
<time>2024-05-12T13:16:33Z</time>
</trkpt>
<trkpt lat="48.807540871202946" lon="9.528552973642944">
<ele>271</ele>
<time>2024-05-12T13:16:34Z</time>
</trkpt>
<trkpt lat="48.807540871202946" lon="9.528617849573491">
<ele>271</ele>
<time>2024-05-12T13:16:35Z</time>
</trkpt>
<trkpt lat="48.80754849873483" lon="9.528686497360468">
<ele>271.2</ele>
<time>2024-05-12T13:16:36Z</time>
</trkpt>
<trkpt lat="48.80755227059126" lon="9.528753217309712">
<ele>271.2</ele>
<time>2024-05-12T13:16:37Z</time>
</trkpt>
<trkpt lat="48.80755612626672" lon="9.52881809324026">
<ele>271.2</ele>
<time>2024-05-12T13:16:38Z</time>
</trkpt>
<trkpt lat="48.80756375379861" lon="9.528882969170809">
<ele>271.2</ele>
<time>2024-05-12T13:16:39Z</time>
</trkpt>
<trkpt lat="48.80757138133049" lon="9.528947761282325">
<ele>271.4</ele>
<time>2024-05-12T13:16:40Z</time>
</trkpt>
<trkpt lat="48.80757515318692" lon="9.529011715203524">
<ele>271.6</ele>
<time>2024-05-12T13:16:41Z</time>
</trkpt>
<trkpt lat="48.80758663639426" lon="9.529074663296342">
<ele>271.8</ele>
<time>2024-05-12T13:16:42Z</time>
</trkpt>
<trkpt lat="48.80759040825069" lon="9.52913467772305">
<ele>272</ele>
<time>2024-05-12T13:16:43Z</time>
</trkpt>
<trkpt lat="48.807598035782576" lon="9.52919670380652">
<ele>272</ele>
<time>2024-05-12T13:16:44Z</time>
</trkpt>
<trkpt lat="48.807601891458035" lon="9.5292529463768">
<ele>272.2</ele>
<time>2024-05-12T13:16:45Z</time>
</trkpt>
<trkpt lat="48.80760951898992" lon="9.529304495081306">
<ele>272.2</ele>
<time>2024-05-12T13:16:46Z</time>
</trkpt>
<trkpt lat="48.80761714652181" lon="9.52935503795743">
<ele>272.2</ele>
<time>2024-05-12T13:16:47Z</time>
</trkpt>
<trkpt lat="48.80762477405369" lon="9.529404575005174">
<ele>272.2</ele>
<time>2024-05-12T13:16:48Z</time>
</trkpt>
<trkpt lat="48.80762862972915" lon="9.52945134602487">
<ele>272.2</ele>
<time>2024-05-12T13:16:49Z</time>
</trkpt>
<trkpt lat="48.807640029117465" lon="9.529495183378458">
<ele>272.4</ele>
<time>2024-05-12T13:16:50Z</time>
</trkpt>
<trkpt lat="48.80765151232481" lon="9.52952854335308">
<ele>272.4</ele>
<time>2024-05-12T13:16:51Z</time>
</trkpt>
<trkpt lat="48.80766676738858" lon="9.52955142594874">
<ele>272.6</ele>
<time>2024-05-12T13:16:52Z</time>
</trkpt>
<trkpt lat="48.80768579430878" lon="9.529562909156084">
<ele>272.6</ele>
<time>2024-05-12T13:16:53Z</time>
</trkpt>
<trkpt lat="48.80770490504801" lon="9.529566764831545">
<ele>272.8</ele>
<time>2024-05-12T13:16:54Z</time>
</trkpt>
<trkpt lat="48.8077315595001" lon="9.529564836993814">
<ele>272.8</ele>
<time>2024-05-12T13:16:55Z</time>
</trkpt>
<trkpt lat="48.807758297771215" lon="9.529560059309006">
<ele>272.8</ele>
<time>2024-05-12T13:16:56Z</time>
</trkpt>
<trkpt lat="48.80778880789876" lon="9.529555281624198">
<ele>272.6</ele>
<time>2024-05-12T13:16:57Z</time>
</trkpt>
<trkpt lat="48.80782317370176" lon="9.52955142594874">
<ele>272.6</ele>
<time>2024-05-12T13:16:58Z</time>
</trkpt>
<trkpt lat="48.807861311361194" lon="9.52955142594874">
<ele>272.6</ele>
<time>2024-05-12T13:16:59Z</time>
</trkpt>
<trkpt lat="48.807895593345165" lon="9.529555281624198">
<ele>272.4</ele>
<time>2024-05-12T13:17:00Z</time>
</trkpt>
<trkpt lat="48.80792995914817" lon="9.529560059309006">
<ele>272.4</ele>
<time>2024-05-12T13:17:01Z</time>
</trkpt>
<trkpt lat="48.80796432495117" lon="9.529560059309006">
<ele>272.2</ele>
<time>2024-05-12T13:17:02Z</time>
</trkpt>
<trkpt lat="48.8080024626106" lon="9.529558131471276">
<ele>272</ele>
<time>2024-05-12T13:17:03Z</time>
</trkpt>
<trkpt lat="48.808036744594574" lon="9.529558131471276">
<ele>271.8</ele>
<time>2024-05-12T13:17:04Z</time>
</trkpt>
<trkpt lat="48.808074882254" lon="9.529555281624198">
<ele>271.8</ele>
<time>2024-05-12T13:17:05Z</time>
</trkpt>
<trkpt lat="48.80810924805701" lon="9.529544804245234">
<ele>271.6</ele>
<time>2024-05-12T13:17:06Z</time>
</trkpt>
<trkpt lat="48.80813975818455" lon="9.529536170884969">
<ele>271.4</ele>
<time>2024-05-12T13:17:07Z</time>
</trkpt>
<trkpt lat="48.80816649645567" lon="9.52952954918146">
<ele>271.4</ele>
<time>2024-05-12T13:17:08Z</time>
</trkpt>
<trkpt lat="48.808193150907755" lon="9.52952854335308">
<ele>271.4</ele>
<time>2024-05-12T13:17:09Z</time>
</trkpt>
<trkpt lat="48.8082236610353" lon="9.529522843658924">
<ele>271.2</ele>
<time>2024-05-12T13:17:10Z</time>
</trkpt>
<trkpt lat="48.80824654363096" lon="9.529522843658924">
<ele>271.2</ele>
<time>2024-05-12T13:17:11Z</time>
</trkpt>
<trkpt lat="48.808273281902075" lon="9.529522843658924">
<ele>271.2</ele>
<time>2024-05-12T13:17:12Z</time>
</trkpt>
<trkpt lat="48.80829993635416" lon="9.529518065974116">
<ele>271</ele>
<time>2024-05-12T13:17:13Z</time>
</trkpt>
<trkpt lat="48.80832290276885" lon="9.52951144427061">
<ele>271</ele>
<time>2024-05-12T13:17:14Z</time>
</trkpt>
<trkpt lat="48.80834192968905" lon="9.529504738748074">
<ele>271</ele>
<time>2024-05-12T13:17:15Z</time>
</trkpt>
<trkpt lat="48.80836481228471" lon="9.529497111216187">
<ele>271</ele>
<time>2024-05-12T13:17:16Z</time>
</trkpt>
<trkpt lat="48.80838392302394" lon="9.529481856152415">
<ele>271</ele>
<time>2024-05-12T13:17:17Z</time>
</trkpt>
<trkpt lat="48.8084068056196" lon="9.529457045719028">
<ele>271</ele>
<time>2024-05-12T13:17:18Z</time>
</trkpt>
<trkpt lat="48.8084258325398" lon="9.529428463429213">
<ele>271</ele>
<time>2024-05-12T13:17:19Z</time>
</trkpt>
<trkpt lat="48.80843731574714" lon="9.529399797320366">
<ele>271</ele>
<time>2024-05-12T13:17:20Z</time>
</trkpt>
<trkpt lat="48.808448715135455" lon="9.529371215030553">
<ele>271</ele>
<time>2024-05-12T13:17:21Z</time>
</trkpt>
<trkpt lat="48.8084601983428" lon="9.529339782893658">
<ele>271.2</ele>
<time>2024-05-12T13:17:22Z</time>
</trkpt>
<trkpt lat="48.808467825874686" lon="9.529301561415195">
<ele>271</ele>
<time>2024-05-12T13:17:23Z</time>
</trkpt>
<trkpt lat="48.80848308093846" lon="9.529261579737067">
<ele>271</ele>
<time>2024-05-12T13:17:24Z</time>
</trkpt>
<trkpt lat="48.8084945641458" lon="9.529225286096334">
<ele>271</ele>
<time>2024-05-12T13:17:25Z</time>
</trkpt>
<trkpt lat="48.808513591066" lon="9.52919284813106">
<ele>270.8</ele>
<time>2024-05-12T13:17:26Z</time>
</trkpt>
<trkpt lat="48.80853647366166" lon="9.529163343831897">
<ele>270.8</ele>
<time>2024-05-12T13:17:27Z</time>
</trkpt>
<trkpt lat="48.80855558440089" lon="9.52913467772305">
<ele>270.8</ele>
<time>2024-05-12T13:17:28Z</time>
</trkpt>
<trkpt lat="48.80857461132109" lon="9.529109951108694">
<ele>270.6</ele>
<time>2024-05-12T13:17:29Z</time>
</trkpt>
<trkpt lat="48.808589866384864" lon="9.529086984694004">
<ele>270.6</ele>
<time>2024-05-12T13:17:30Z</time>
</trkpt>
<trkpt lat="48.80860512144864" lon="9.529061252251267">
<ele>270.6</ele>
<time>2024-05-12T13:17:31Z</time>
</trkpt>
<trkpt lat="48.80861274898052" lon="9.52903836965561">
<ele>270.4</ele>
<time>2024-05-12T13:17:32Z</time>
</trkpt>
<trkpt lat="48.80861660465598" lon="9.529021186754107">
<ele>270.4</ele>
<time>2024-05-12T13:17:33Z</time>
</trkpt>
<trkpt lat="48.80861274898052" lon="9.529021186754107">
<ele>270.4</ele>
<time>2024-05-12T13:17:35Z</time>
</trkpt>
<trkpt lat="48.80861274898052" lon="9.52902026474476">
<ele>270.2</ele>
<time>2024-05-12T13:17:39Z</time>
</trkpt>
<trkpt lat="48.80861660465598" lon="9.52901833690703">
<ele>270.2</ele>
<time>2024-05-12T13:17:41Z</time>
</trkpt>
<trkpt lat="48.80861660465598" lon="9.529016492888331">
<ele>270</ele>
<time>2024-05-12T13:17:43Z</time>
</trkpt>
<trkpt lat="48.80861274898052" lon="9.529014565050602">
<ele>269.8</ele>
<time>2024-05-12T13:17:44Z</time>
</trkpt>
<trkpt lat="48.80861274898052" lon="9.52901355922222">
<ele>269.6</ele>
<time>2024-05-12T13:17:45Z</time>
</trkpt>
<trkpt lat="48.80861274898052" lon="9.529014565050602">
<ele>269.6</ele>
<time>2024-05-12T13:17:47Z</time>
</trkpt>
<trkpt lat="48.80861274898052" lon="9.529016492888331">
<ele>269.4</ele>
<time>2024-05-12T13:17:49Z</time>
</trkpt>
<trkpt lat="48.80861274898052" lon="9.529014565050602">
<ele>269.2</ele>
<time>2024-05-12T13:17:53Z</time>
</trkpt>
<trkpt lat="48.80861274898052" lon="9.529016492888331">
<ele>269.2</ele>
<time>2024-05-12T13:17:54Z</time>
</trkpt>
<trkpt lat="48.80861274898052" lon="9.52901833690703">
<ele>269</ele>
<time>2024-05-12T13:17:55Z</time>
</trkpt>
<trkpt lat="48.80861660465598" lon="9.52901833690703">
<ele>269</ele>
<time>2024-05-12T13:17:56Z</time>
</trkpt>
<trkpt lat="48.80862423218787" lon="9.529014565050602">
<ele>268.8</ele>
<time>2024-05-12T13:17:58Z</time>
</trkpt>
<trkpt lat="48.80863563157618" lon="9.52901355922222">
<ele>268.8</ele>
<time>2024-05-12T13:17:59Z</time>
</trkpt>
<trkpt lat="48.80864325910807" lon="9.529009787365794">
<ele>268.8</ele>
<time>2024-05-12T13:18:00Z</time>
</trkpt>
<trkpt lat="48.808650970458984" lon="9.529005009680986">
<ele>268.6</ele>
<time>2024-05-12T13:18:01Z</time>
</trkpt>
<trkpt lat="48.80865474231541" lon="9.52900023199618">
<ele>268.6</ele>
<time>2024-05-12T13:18:02Z</time>
</trkpt>
<trkpt lat="48.80865859799087" lon="9.528994532302022">
<ele>268.6</ele>
<time>2024-05-12T13:18:03Z</time>
</trkpt>
<trkpt lat="48.8086623698473" lon="9.528987826779485">
<ele>268.4</ele>
<time>2024-05-12T13:18:04Z</time>
</trkpt>
<trkpt lat="48.80866622552276" lon="9.5289801992476">
<ele>268.4</ele>
<time>2024-05-12T13:18:05Z</time>
</trkpt>
<trkpt lat="48.808669997379184" lon="9.528974499553442">
<ele>268.4</ele>
<time>2024-05-12T13:18:06Z</time>
</trkpt>
<trkpt lat="48.808669997379184" lon="9.528966872021556">
<ele>268.4</ele>
<time>2024-05-12T13:18:07Z</time>
</trkpt>
<trkpt lat="48.80866622552276" lon="9.52895823866129">
<ele>268.4</ele>
<time>2024-05-12T13:18:08Z</time>
</trkpt>
<trkpt lat="48.80866622552276" lon="9.528949689120054">
<ele>268.4</ele>
<time>2024-05-12T13:18:09Z</time>
</trkpt>
<trkpt lat="48.8086623698473" lon="9.528942061588168">
<ele>268.6</ele>
<time>2024-05-12T13:18:10Z</time>
</trkpt>
<trkpt lat="48.8086623698473" lon="9.52893828973174">
<ele>268.6</ele>
<time>2024-05-12T13:18:12Z</time>
</trkpt>
<trkpt lat="48.8086623698473" lon="9.528936361894011">
<ele>268.8</ele>
<time>2024-05-12T13:18:14Z</time>
</trkpt>
<trkpt lat="48.8086623698473" lon="9.528935356065633">
<ele>268.8</ele>
<time>2024-05-12T13:18:16Z</time>
</trkpt>
<trkpt lat="48.8086623698473" lon="9.528933512046931">
<ele>269</ele>
<time>2024-05-12T13:18:18Z</time>
</trkpt>
<trkpt lat="48.80865859799087" lon="9.528933512046931">
<ele>269</ele>
<time>2024-05-12T13:18:19Z</time>
</trkpt>
<trkpt lat="48.80865859799087" lon="9.528931584209204">
<ele>269</ele>
<time>2024-05-12T13:18:21Z</time>
</trkpt>
<trkpt lat="48.80865859799087" lon="9.528929656371474">
<ele>269</ele>
<time>2024-05-12T13:18:24Z</time>
</trkpt>
<trkpt lat="48.80865859799087" lon="9.528928734362124">
<ele>269</ele>
<time>2024-05-12T13:18:27Z</time>
</trkpt>
<trkpt lat="48.80865859799087" lon="9.528926806524396">
<ele>269.2</ele>
<time>2024-05-12T13:18:30Z</time>
</trkpt>
<trkpt lat="48.80865474231541" lon="9.528926806524396">
<ele>269.2</ele>
<time>2024-05-12T13:18:35Z</time>
</trkpt>
<trkpt lat="48.80865474231541" lon="9.528924878686666">
<ele>269.2</ele>
<time>2024-05-12T13:18:37Z</time>
</trkpt>
<trkpt lat="48.80865474231541" lon="9.528926806524396">
<ele>269</ele>
<time>2024-05-12T13:18:45Z</time>
</trkpt>
<trkpt lat="48.80865474231541" lon="9.528924878686666">
<ele>269</ele>
<time>2024-05-12T13:18:46Z</time>
</trkpt>
<trkpt lat="48.80863563157618" lon="9.52896016649902">
<ele>271.4</ele>
<time>2024-05-12T13:18:50Z</time>
</trkpt>
<trkpt lat="48.80863563157618" lon="9.52895823866129">
<ele>271.4</ele>
<time>2024-05-12T13:18:55Z</time>
</trkpt>
<trkpt lat="48.80863563157618" lon="9.52896016649902">
<ele>271.4</ele>
<time>2024-05-12T13:18:59Z</time>
</trkpt>
<trkpt lat="48.80863948725164" lon="9.528964944183826">
<ele>271.4</ele>
<time>2024-05-12T13:19:00Z</time>
</trkpt>
<trkpt lat="48.80864325910807" lon="9.528966872021556">
<ele>271.4</ele>
<time>2024-05-12T13:19:01Z</time>
</trkpt>
<trkpt lat="48.80864325910807" lon="9.528971649706364">
<ele>271.4</ele>
<time>2024-05-12T13:19:02Z</time>
</trkpt>
<trkpt lat="48.80864325910807" lon="9.528973577544091">
<ele>271.4</ele>
<time>2024-05-12T13:19:03Z</time>
</trkpt>
<trkpt lat="48.80864325910807" lon="9.52897827140987">
<ele>271.4</ele>
<time>2024-05-12T13:19:04Z</time>
</trkpt>
<trkpt lat="48.80863185971975" lon="9.528984976932406">
<ele>271.4</ele>
<time>2024-05-12T13:19:06Z</time>
</trkpt>
<trkpt lat="48.808628004044294" lon="9.528991682454944">
<ele>271.4</ele>
<time>2024-05-12T13:19:07Z</time>
</trkpt>
<trkpt lat="48.80862423218787" lon="9.52900023199618">
<ele>271.4</ele>
<time>2024-05-12T13:19:08Z</time>
</trkpt>
<trkpt lat="48.80861660465598" lon="9.529005009680986">
<ele>271.4</ele>
<time>2024-05-12T13:19:09Z</time>
</trkpt>
<trkpt lat="48.80861274898052" lon="9.529007859528065">
<ele>271.4</ele>
<time>2024-05-12T13:19:10Z</time>
</trkpt>
<trkpt lat="48.80860512144864" lon="9.529011715203524">
<ele>271.4</ele>
<time>2024-05-12T13:19:11Z</time>
</trkpt>
<trkpt lat="48.80860134959221" lon="9.52901355922222">
<ele>271.4</ele>
<time>2024-05-12T13:19:12Z</time>
</trkpt>
<trkpt lat="48.80859372206032" lon="9.52901833690703">
<ele>271.4</ele>
<time>2024-05-12T13:19:13Z</time>
</trkpt>
<trkpt lat="48.808589866384864" lon="9.529023114591835">
<ele>271.4</ele>
<time>2024-05-12T13:19:14Z</time>
</trkpt>
<trkpt lat="48.808589866384864" lon="9.529026970267296">
<ele>271.4</ele>
<time>2024-05-12T13:19:15Z</time>
</trkpt>
<trkpt lat="48.808589866384864" lon="9.529027892276645">
<ele>271.4</ele>
<time>2024-05-12T13:19:17Z</time>
</trkpt>
<trkpt lat="48.808589866384864" lon="9.529029820114374">
<ele>271.4</ele>
<time>2024-05-12T13:19:18Z</time>
</trkpt>
<trkpt lat="48.808589866384864" lon="9.529031747952104">
<ele>271.4</ele>
<time>2024-05-12T13:19:19Z</time>
</trkpt>
<trkpt lat="48.808589866384864" lon="9.5290335919708">
<ele>271.4</ele>
<time>2024-05-12T13:19:20Z</time>
</trkpt>
<trkpt lat="48.808589866384864" lon="9.52903644181788">
<ele>271.4</ele>
<time>2024-05-12T13:19:21Z</time>
</trkpt>
<trkpt lat="48.808589866384864" lon="9.52903836965561">
<ele>271.4</ele>
<time>2024-05-12T13:19:22Z</time>
</trkpt>
<trkpt lat="48.808589866384864" lon="9.52904029749334">
<ele>271.4</ele>
<time>2024-05-12T13:19:31Z</time>
</trkpt>
<trkpt lat="48.808589866384864" lon="9.529041219502687">
<ele>271.4</ele>
<time>2024-05-12T13:19:44Z</time>
</trkpt>
<trkpt lat="48.808589866384864" lon="9.529043147340415">
<ele>271.4</ele>
<time>2024-05-12T13:19:53Z</time>
</trkpt>
<trkpt lat="48.808589866384864" lon="9.529045075178146">
<ele>271.4</ele>
<time>2024-05-12T13:20:11Z</time>
</trkpt>
<trkpt lat="48.808589866384864" lon="9.529047003015876">
<ele>271.4</ele>
<time>2024-05-12T13:20:12Z</time>
</trkpt>
<trkpt lat="48.80858223885298" lon="9.529049852862954">
<ele>271.4</ele>
<time>2024-05-12T13:20:16Z</time>
</trkpt>
<trkpt lat="48.80857846699655" lon="9.52906033024192">
<ele>271.4</ele>
<time>2024-05-12T13:20:17Z</time>
</trkpt>
<trkpt lat="48.808570839464664" lon="9.529069885611534">
<ele>271.4</ele>
<time>2024-05-12T13:20:18Z</time>
</trkpt>
<trkpt lat="48.80856321193278" lon="9.529083212837577">
<ele>271.4</ele>
<time>2024-05-12T13:20:19Z</time>
</trkpt>
<trkpt lat="48.80855172872543" lon="9.529098467901347">
<ele>271.4</ele>
<time>2024-05-12T13:20:20Z</time>
</trkpt>
<trkpt lat="48.80853647366166" lon="9.529111795127392">
<ele>271.4</ele>
<time>2024-05-12T13:20:21Z</time>
</trkpt>
<trkpt lat="48.80852507427335" lon="9.529123278334737">
<ele>271.4</ele>
<time>2024-05-12T13:20:22Z</time>
</trkpt>
<trkpt lat="48.80850596353412" lon="9.529138533398507">
<ele>271.4</ele>
<time>2024-05-12T13:20:23Z</time>
</trkpt>
<trkpt lat="48.80848693661392" lon="9.529151860624552">
<ele>271.4</ele>
<time>2024-05-12T13:20:24Z</time>
</trkpt>
<trkpt lat="48.80847159773111" lon="9.529166193678977">
<ele>271.4</ele>
<time>2024-05-12T13:20:25Z</time>
</trkpt>
<trkpt lat="48.808452570810914" lon="9.529181448742747">
<ele>271.4</ele>
<time>2024-05-12T13:20:26Z</time>
</trkpt>
<trkpt lat="48.80843731574714" lon="9.529198631644247">
<ele>271.4</ele>
<time>2024-05-12T13:20:27Z</time>
</trkpt>
<trkpt lat="48.8084258325398" lon="9.529226291924717">
<ele>271.4</ele>
<time>2024-05-12T13:20:28Z</time>
</trkpt>
<trkpt lat="48.80841820500791" lon="9.529258646070955">
<ele>271.4</ele>
<time>2024-05-12T13:20:29Z</time>
</trkpt>
<trkpt lat="48.808410577476025" lon="9.52929493971169">
<ele>271.4</ele>
<time>2024-05-12T13:20:30Z</time>
</trkpt>
<trkpt lat="48.8084068056196" lon="9.529326371848583">
<ele>271.4</ele>
<time>2024-05-12T13:20:31Z</time>
</trkpt>
<trkpt lat="48.8084068056196" lon="9.529357887804508">
<ele>271.4</ele>
<time>2024-05-12T13:20:32Z</time>
</trkpt>
<trkpt lat="48.80839917808771" lon="9.529386470094323">
<ele>271.4</ele>
<time>2024-05-12T13:20:33Z</time>
</trkpt>
<trkpt lat="48.80839917808771" lon="9.52941320836544">
<ele>271.4</ele>
<time>2024-05-12T13:20:34Z</time>
</trkpt>
<trkpt lat="48.808391550555825" lon="9.529435085132718">
<ele>271.4</ele>
<time>2024-05-12T13:20:35Z</time>
</trkpt>
<trkpt lat="48.80838006734848" lon="9.529455117881298">
<ele>271.4</ele>
<time>2024-05-12T13:20:36Z</time>
</trkpt>
<trkpt lat="48.80836481228471" lon="9.529473222792149">
<ele>271.4</ele>
<time>2024-05-12T13:20:37Z</time>
</trkpt>
<trkpt lat="48.808353412896395" lon="9.529493255540729">
<ele>271.4</ele>
<time>2024-05-12T13:20:38Z</time>
</trkpt>
<trkpt lat="48.80833815783262" lon="9.5295085106045">
<ele>271.4</ele>
<time>2024-05-12T13:20:39Z</time>
</trkpt>
<trkpt lat="48.80831527523696" lon="9.529518065974116">
<ele>271.4</ele>
<time>2024-05-12T13:20:40Z</time>
</trkpt>
<trkpt lat="48.80828853696585" lon="9.529526699334385">
<ele>271.4</ele>
<time>2024-05-12T13:20:41Z</time>
</trkpt>
<trkpt lat="48.8082580268383" lon="9.52953147701919">
<ele>271.2</ele>
<time>2024-05-12T13:20:42Z</time>
</trkpt>
<trkpt lat="48.80822751671076" lon="9.529535248875618">
<ele>271.2</ele>
<time>2024-05-12T13:20:43Z</time>
</trkpt>
<trkpt lat="48.808193150907755" lon="9.529535248875618">
<ele>271</ele>
<time>2024-05-12T13:20:44Z</time>
</trkpt>
<trkpt lat="48.80816264078021" lon="9.529533321037889">
<ele>270.8</ele>
<time>2024-05-12T13:20:45Z</time>
</trkpt>
<trkpt lat="48.80812827497721" lon="9.52953147701919">
<ele>270.8</ele>
<time>2024-05-12T13:20:46Z</time>
</trkpt>
<trkpt lat="48.80809399299323" lon="9.529533321037889">
<ele>270.8</ele>
<time>2024-05-12T13:20:47Z</time>
</trkpt>
<trkpt lat="48.80805962719023" lon="9.529533321037889">
<ele>270.8</ele>
<time>2024-05-12T13:20:48Z</time>
</trkpt>
<trkpt lat="48.80802534520626" lon="9.529535248875618">
<ele>271</ele>
<time>2024-05-12T13:20:49Z</time>
</trkpt>
<trkpt lat="48.80799483507872" lon="9.529536170884969">
<ele>271</ele>
<time>2024-05-12T13:20:50Z</time>
</trkpt>
<trkpt lat="48.80796432495117" lon="9.529533321037889">
<ele>271.2</ele>
<time>2024-05-12T13:20:51Z</time>
</trkpt>
<trkpt lat="48.807937586680055" lon="9.52953147701919">
<ele>271.4</ele>
<time>2024-05-12T13:20:52Z</time>
</trkpt>
<trkpt lat="48.8079147040844" lon="9.52952954918146">
<ele>271.6</ele>
<time>2024-05-12T13:20:53Z</time>
</trkpt>
<trkpt lat="48.80788796581328" lon="9.52952954918146">
<ele>271.6</ele>
<time>2024-05-12T13:20:54Z</time>
</trkpt>
<trkpt lat="48.80786508321762" lon="9.52953147701919">
<ele>271.8</ele>
<time>2024-05-12T13:20:55Z</time>
</trkpt>
<trkpt lat="48.80784605629742" lon="9.52952954918146">
<ele>272</ele>
<time>2024-05-12T13:20:56Z</time>
</trkpt>
<trkpt lat="48.80782694555819" lon="9.52952954918146">
<ele>272</ele>
<time>2024-05-12T13:20:57Z</time>
</trkpt>
<trkpt lat="48.80780791863799" lon="9.52952854335308">
<ele>272.2</ele>
<time>2024-05-12T13:20:58Z</time>
</trkpt>
<trkpt lat="48.80778880789876" lon="9.52952854335308">
<ele>272.2</ele>
<time>2024-05-12T13:20:59Z</time>
</trkpt>
<trkpt lat="48.80776969715953" lon="9.52952954918146">
<ele>272.2</ele>
<time>2024-05-12T13:21:00Z</time>
</trkpt>
<trkpt lat="48.80774681456387" lon="9.529533321037889">
<ele>272.4</ele>
<time>2024-05-12T13:21:01Z</time>
</trkpt>
<trkpt lat="48.80772778764367" lon="9.529540026560426">
<ele>272.4</ele>
<time>2024-05-12T13:21:02Z</time>
</trkpt>
<trkpt lat="48.80770490504801" lon="9.529544804245234">
<ele>272.4</ele>
<time>2024-05-12T13:21:03Z</time>
</trkpt>
<trkpt lat="48.807682022452354" lon="9.529544804245234">
<ele>272.4</ele>
<time>2024-05-12T13:21:04Z</time>
</trkpt>
<trkpt lat="48.80766291171312" lon="9.529541954398155">
<ele>272.4</ele>
<time>2024-05-12T13:21:05Z</time>
</trkpt>
<trkpt lat="48.80764388479293" lon="9.52953147701919">
<ele>272.4</ele>
<time>2024-05-12T13:21:06Z</time>
</trkpt>
<trkpt lat="48.80763240158558" lon="9.52951043844223">
<ele>272.4</ele>
<time>2024-05-12T13:21:07Z</time>
</trkpt>
<trkpt lat="48.80762477405369" lon="9.529479928314686">
<ele>272.6</ele>
<time>2024-05-12T13:21:08Z</time>
</trkpt>
<trkpt lat="48.80762477405369" lon="9.529441790655255">
<ele>272.6</ele>
<time>2024-05-12T13:21:09Z</time>
</trkpt>
<trkpt lat="48.80762477405369" lon="9.529397953301668">
<ele>272.8</ele>
<time>2024-05-12T13:21:10Z</time>
</trkpt>
<trkpt lat="48.807621002197266" lon="9.529350260272622">
<ele>272.8</ele>
<time>2024-05-12T13:21:11Z</time>
</trkpt>
<trkpt lat="48.80761714652181" lon="9.529299717396498">
<ele>272.8</ele>
<time>2024-05-12T13:21:12Z</time>
</trkpt>
<trkpt lat="48.80761329084635" lon="9.529248168691993">
<ele>273</ele>
<time>2024-05-12T13:21:13Z</time>
</trkpt>
<trkpt lat="48.80760566331446" lon="9.52919284813106">
<ele>273</ele>
<time>2024-05-12T13:21:14Z</time>
</trkpt>
<trkpt lat="48.807601891458035" lon="9.529132833704352">
<ele>273</ele>
<time>2024-05-12T13:21:15Z</time>
</trkpt>
<trkpt lat="48.807598035782576" lon="9.52907365746796">
<ele>272.8</ele>
<time>2024-05-12T13:21:16Z</time>
</trkpt>
<trkpt lat="48.80759040825069" lon="9.529016492888331">
<ele>272.8</ele>
<time>2024-05-12T13:21:17Z</time>
</trkpt>
<trkpt lat="48.80758663639426" lon="9.5289611723274">
<ele>272.8</ele>
<time>2024-05-12T13:21:18Z</time>
</trkpt>
<trkpt lat="48.8075827807188" lon="9.528904845938088">
<ele>272.6</ele>
<time>2024-05-12T13:21:19Z</time>
</trkpt>
<trkpt lat="48.80757515318692" lon="9.528851453214884">
<ele>272.6</ele>
<time>2024-05-12T13:21:20Z</time>
</trkpt>
<trkpt lat="48.80756752565503" lon="9.52879998832941">
<ele>272.6</ele>
<time>2024-05-12T13:21:21Z</time>
</trkpt>
<trkpt lat="48.80756375379861" lon="9.528746595606208">
<ele>272.6</ele>
<time>2024-05-12T13:21:22Z</time>
</trkpt>
<trkpt lat="48.80756375379861" lon="9.528691275045276">
<ele>272.6</ele>
<time>2024-05-12T13:21:23Z</time>
</trkpt>
<trkpt lat="48.80756375379861" lon="9.528638804331422">
<ele>272.6</ele>
<time>2024-05-12T13:21:24Z</time>
</trkpt>
<trkpt lat="48.80756375379861" lon="9.52858155593276">
<ele>272.6</ele>
<time>2024-05-12T13:21:25Z</time>
</trkpt>
<trkpt lat="48.80756375379861" lon="9.52852338552475">
<ele>272.8</ele>
<time>2024-05-12T13:21:26Z</time>
</trkpt>
<trkpt lat="48.80756375379861" lon="9.52846328727901">
<ele>272.8</ele>
<time>2024-05-12T13:21:27Z</time>
</trkpt>
<trkpt lat="48.807559898123145" lon="9.528405116871">
<ele>272.8</ele>
<time>2024-05-12T13:21:28Z</time>
</trkpt>
<trkpt lat="48.807559898123145" lon="9.528346946462989">
<ele>272.8</ele>
<time>2024-05-12T13:21:29Z</time>
</trkpt>
<trkpt lat="48.807559898123145" lon="9.528285004198551">
<ele>272.8</ele>
<time>2024-05-12T13:21:30Z</time>
</trkpt>
<trkpt lat="48.807559898123145" lon="9.528222056105731">
<ele>272.8</ele>
<time>2024-05-12T13:21:31Z</time>
</trkpt>
<trkpt lat="48.807559898123145" lon="9.528160030022264">
<ele>272.8</ele>
<time>2024-05-12T13:21:32Z</time>
</trkpt>
<trkpt lat="48.80756375379861" lon="9.528097081929443">
<ele>272.8</ele>
<time>2024-05-12T13:21:33Z</time>
</trkpt>
<trkpt lat="48.807559898123145" lon="9.528033211827278">
<ele>272.6</ele>
<time>2024-05-12T13:21:34Z</time>
</trkpt>
<trkpt lat="48.807559898123145" lon="9.52796833589673">
<ele>272.8</ele>
<time>2024-05-12T13:21:35Z</time>
</trkpt>
<trkpt lat="48.80757138133049" lon="9.527845373377204">
<ele>272.6</ele>
<time>2024-05-12T13:21:37Z</time>
</trkpt>
<trkpt lat="48.807579008862376" lon="9.527783347293736">
<ele>272.6</ele>
<time>2024-05-12T13:21:38Z</time>
</trkpt>
<trkpt lat="48.80758663639426" lon="9.527725176885724">
<ele>272.6</ele>
<time>2024-05-12T13:21:39Z</time>
</trkpt>
<trkpt lat="48.807598035782576" lon="9.527665078639984">
<ele>272.6</ele>
<time>2024-05-12T13:21:40Z</time>
</trkpt>
<trkpt lat="48.807601891458035" lon="9.527603136375546">
<ele>272.6</ele>
<time>2024-05-12T13:21:41Z</time>
</trkpt>
<trkpt lat="48.80761329084635" lon="9.527546809986234">
<ele>272.6</ele>
<time>2024-05-12T13:21:42Z</time>
</trkpt>
<trkpt lat="48.80762477405369" lon="9.527489645406604">
<ele>272.6</ele>
<time>2024-05-12T13:21:43Z</time>
</trkpt>
<trkpt lat="48.807640029117465" lon="9.52743524685502">
<ele>272.4</ele>
<time>2024-05-12T13:21:44Z</time>
</trkpt>
<trkpt lat="48.80764765664935" lon="9.527379926294088">
<ele>272.4</ele>
<time>2024-05-12T13:21:45Z</time>
</trkpt>
<trkpt lat="48.80765151232481" lon="9.527321755886078">
<ele>272.2</ele>
<time>2024-05-12T13:21:46Z</time>
</trkpt>
<trkpt lat="48.80765151232481" lon="9.527266435325146">
<ele>272.2</ele>
<time>2024-05-12T13:21:47Z</time>
</trkpt>
<trkpt lat="48.807659139856696" lon="9.527210192754865">
<ele>272</ele>
<time>2024-05-12T13:21:48Z</time>
</trkpt>
<trkpt lat="48.807659139856696" lon="9.527154872193933">
<ele>272</ele>
<time>2024-05-12T13:21:49Z</time>
</trkpt>
<trkpt lat="48.80766291171312" lon="9.527116734534502">
<ele>271.8</ele>
<time>2024-05-12T13:21:50Z</time>
</trkpt>
<trkpt lat="48.80766676738858" lon="9.527085302397609">
<ele>271.8</ele>
<time>2024-05-12T13:21:51Z</time>
</trkpt>
<trkpt lat="48.80766676738858" lon="9.527058564126492">
<ele>271.8</ele>
<time>2024-05-12T13:21:52Z</time>
</trkpt>
<trkpt lat="48.80767053924501" lon="9.527036603540182">
<ele>271.6</ele>
<time>2024-05-12T13:21:53Z</time>
</trkpt>
<trkpt lat="48.80767053924501" lon="9.527013720944524">
<ele>271.6</ele>
<time>2024-05-12T13:21:54Z</time>
</trkpt>
<trkpt lat="48.80766676738858" lon="9.526998465880752">
<ele>271.6</ele>
<time>2024-05-12T13:21:55Z</time>
</trkpt>
<trkpt lat="48.80766291171312" lon="9.526976505294442">
<ele>271.6</ele>
<time>2024-05-12T13:21:56Z</time>
</trkpt>
<trkpt lat="48.807659139856696" lon="9.526956556364894">
<ele>271.6</ele>
<time>2024-05-12T13:21:57Z</time>
</trkpt>
<trkpt lat="48.80765528418124" lon="9.526936523616314">
<ele>271.4</ele>
<time>2024-05-12T13:21:58Z</time>
</trkpt>
<trkpt lat="48.80765151232481" lon="9.526916490867734">
<ele>271.4</ele>
<time>2024-05-12T13:21:59Z</time>
</trkpt>
<trkpt lat="48.80764388479293" lon="9.526898302137852">
<ele>271.2</ele>
<time>2024-05-12T13:22:00Z</time>
</trkpt>
<trkpt lat="48.80763625726104" lon="9.52688304707408">
<ele>271</ele>
<time>2024-05-12T13:22:01Z</time>
</trkpt>
<trkpt lat="48.80762477405369" lon="9.526873575523496">
<ele>270.8</ele>
<time>2024-05-12T13:22:02Z</time>
</trkpt>
<trkpt lat="48.80761329084635" lon="9.526876425370574">
<ele>270.6</ele>
<time>2024-05-12T13:22:03Z</time>
</trkpt>
<trkpt lat="48.807601891458035" lon="9.526893608272076">
<ele>270.6</ele>
<time>2024-05-12T13:22:04Z</time>
</trkpt>
<trkpt lat="48.807598035782576" lon="9.526914563030005">
<ele>270.4</ele>
<time>2024-05-12T13:22:05Z</time>
</trkpt>
<trkpt lat="48.807601891458035" lon="9.52694121748209">
<ele>270.2</ele>
<time>2024-05-12T13:22:06Z</time>
</trkpt>
<trkpt lat="48.807601891458035" lon="9.526967955753207">
<ele>270.2</ele>
<time>2024-05-12T13:22:07Z</time>
</trkpt>
<trkpt lat="48.807601891458035" lon="9.526998465880752">
<ele>270.2</ele>
<time>2024-05-12T13:22:08Z</time>
</trkpt>
<trkpt lat="48.807601891458035" lon="9.52704045921564">
<ele>270</ele>
<time>2024-05-12T13:22:09Z</time>
</trkpt>
<trkpt lat="48.807601891458035" lon="9.527085302397609">
<ele>270</ele>
<time>2024-05-12T13:22:10Z</time>
</trkpt>
<trkpt lat="48.80759426392615" lon="9.527130061760545">
<ele>270</ele>
<time>2024-05-12T13:22:11Z</time>
</trkpt>
<trkpt lat="48.8075827807188" lon="9.527170127257705">
<ele>270</ele>
<time>2024-05-12T13:22:12Z</time>
</trkpt>
<trkpt lat="48.80757515318692" lon="9.527206420898438">
<ele>270</ele>
<time>2024-05-12T13:22:13Z</time>
</trkpt>
<trkpt lat="48.80756375379861" lon="9.527236931025982">
<ele>270</ele>
<time>2024-05-12T13:22:14Z</time>
</trkpt>
<trkpt lat="48.80755612626672" lon="9.527261657640338">
<ele>270</ele>
<time>2024-05-12T13:22:15Z</time>
</trkpt>
<trkpt lat="48.80754849873483" lon="9.527283618226647">
<ele>270</ele>
<time>2024-05-12T13:22:16Z</time>
</trkpt>
<trkpt lat="48.80754849873483" lon="9.527306500822306">
<ele>270</ele>
<time>2024-05-12T13:22:17Z</time>
</trkpt>
<trkpt lat="48.807540871202946" lon="9.527330389246345">
<ele>270.2</ele>
<time>2024-05-12T13:22:18Z</time>
</trkpt>
<trkpt lat="48.80753324367106" lon="9.527359893545508">
<ele>270.4</ele>
<time>2024-05-12T13:22:19Z</time>
</trkpt>
<trkpt lat="48.8075293879956" lon="9.527393337339165">
<ele>270.4</ele>
<time>2024-05-12T13:22:20Z</time>
</trkpt>
<trkpt lat="48.807521760463715" lon="9.527424769476056">
<ele>270.4</ele>
<time>2024-05-12T13:22:21Z</time>
</trkpt>
<trkpt lat="48.80751413293183" lon="9.52745812945068">
<ele>270.6</ele>
<time>2024-05-12T13:22:22Z</time>
</trkpt>
<trkpt lat="48.80750650539994" lon="9.527489645406604">
<ele>270.6</ele>
<time>2024-05-12T13:22:23Z</time>
</trkpt>
<trkpt lat="48.807502733543515" lon="9.527511522173882">
<ele>270.4</ele>
<time>2024-05-12T13:22:24Z</time>
</trkpt>
<trkpt lat="48.80749510601163" lon="9.527528705075383">
<ele>270.4</ele>
<time>2024-05-12T13:22:25Z</time>
</trkpt>
<trkpt lat="48.807498877868056" lon="9.527524933218956">
<ele>270.2</ele>
<time>2024-05-12T13:22:26Z</time>
</trkpt>
<trkpt lat="48.80750650539994" lon="9.527524933218956">
<ele>270</ele>
<time>2024-05-12T13:22:27Z</time>
</trkpt>
<trkpt lat="48.807521760463715" lon="9.52751537784934">
<ele>269.8</ele>
<time>2024-05-12T13:22:28Z</time>
</trkpt>
<trkpt lat="48.80753324367106" lon="9.52749819494784">
<ele>269.6</ele>
<time>2024-05-12T13:22:29Z</time>
</trkpt>
<trkpt lat="48.80754849873483" lon="9.527482017874718">
<ele>269.4</ele>
<time>2024-05-12T13:22:30Z</time>
</trkpt>
<trkpt lat="48.80756375379861" lon="9.527468606829643">
<ele>269.2</ele>
<time>2024-05-12T13:22:31Z</time>
</trkpt>
<trkpt lat="48.807579008862376" lon="9.527453351765873">
<ele>269</ele>
<time>2024-05-12T13:22:32Z</time>
</trkpt>
<trkpt lat="48.807106018066406" lon="9.52767371200025">
<ele>269</ele>
<time>2024-05-12T13:22:41Z</time>
</trkpt>
<trkpt lat="48.807125044986606" lon="9.527700366452336">
<ele>269</ele>
<time>2024-05-12T13:22:42Z</time>
</trkpt>
<trkpt lat="48.807147927582264" lon="9.527743281796576">
<ele>269</ele>
<time>2024-05-12T13:22:43Z</time>
</trkpt>
<trkpt lat="48.80715555511415" lon="9.527778569608929">
<ele>269</ele>
<time>2024-05-12T13:22:44Z</time>
</trkpt>
<trkpt lat="48.807167038321495" lon="9.52781192958355">
<ele>269.2</ele>
<time>2024-05-12T13:22:45Z</time>
</trkpt>
<trkpt lat="48.80718229338527" lon="9.52787202782929">
<ele>269.2</ele>
<time>2024-05-12T13:22:47Z</time>
</trkpt>
<trkpt lat="48.80718992091715" lon="9.527903543785214">
<ele>269.4</ele>
<time>2024-05-12T13:22:48Z</time>
</trkpt>
<trkpt lat="48.80719369277358" lon="9.52793120406568">
<ele>269.4</ele>
<time>2024-05-12T13:22:49Z</time>
</trkpt>
<trkpt lat="48.80719369277358" lon="9.527957858517766">
<ele>269.6</ele>
<time>2024-05-12T13:22:50Z</time>
</trkpt>
<trkpt lat="48.80718992091715" lon="9.527983590960504">
<ele>269.8</ele>
<time>2024-05-12T13:22:51Z</time>
</trkpt>
<trkpt lat="48.807186065241694" lon="9.528004629537463">
<ele>270.2</ele>
<time>2024-05-12T13:22:52Z</time>
</trkpt>
<trkpt lat="48.80717466585338" lon="9.528023656457664">
<ele>270.4</ele>
<time>2024-05-12T13:22:53Z</time>
</trkpt>
<trkpt lat="48.807167038321495" lon="9.528035139665008">
<ele>270.8</ele>
<time>2024-05-12T13:22:54Z</time>
</trkpt>
<trkpt lat="48.80715555511415" lon="9.528039917349815">
<ele>271.2</ele>
<time>2024-05-12T13:22:55Z</time>
</trkpt>
<trkpt lat="48.807147927582264" lon="9.528037989512086">
<ele>271.4</ele>
<time>2024-05-12T13:22:56Z</time>
</trkpt>
<trkpt lat="48.80714415572584" lon="9.528033211827278">
<ele>271.8</ele>
<time>2024-05-12T13:22:57Z</time>
</trkpt>
<trkpt lat="48.80714030005038" lon="9.528017956763506">
<ele>272</ele>
<time>2024-05-12T13:22:58Z</time>
</trkpt>
<trkpt lat="48.80714030005038" lon="9.527997924014926">
<ele>272.2</ele>
<time>2024-05-12T13:22:59Z</time>
</trkpt>
<trkpt lat="48.80714415572584" lon="9.527975041419268">
<ele>272.4</ele>
<time>2024-05-12T13:23:00Z</time>
</trkpt>
<trkpt lat="48.807147927582264" lon="9.52795023098588">
<ele>272.6</ele>
<time>2024-05-12T13:23:01Z</time>
</trkpt>
<trkpt lat="48.807147927582264" lon="9.527919720858335">
<ele>272.6</ele>
<time>2024-05-12T13:23:02Z</time>
</trkpt>
<trkpt lat="48.80714415572584" lon="9.527885355055332">
<ele>272.4</ele>
<time>2024-05-12T13:23:03Z</time>
</trkpt>
<trkpt lat="48.80713652819395" lon="9.527846295386553">
<ele>272.4</ele>
<time>2024-05-12T13:23:04Z</time>
</trkpt>
<trkpt lat="48.807125044986606" lon="9.527810085564852">
<ele>272.6</ele>
<time>2024-05-12T13:23:05Z</time>
</trkpt>
<trkpt lat="48.80711741745472" lon="9.527768092229962">
<ele>272.6</ele>
<time>2024-05-12T13:23:06Z</time>
</trkpt>
<trkpt lat="48.80710978992283" lon="9.527725176885724">
<ele>272.6</ele>
<time>2024-05-12T13:23:07Z</time>
</trkpt>
<trkpt lat="48.80710216239095" lon="9.527683183550836">
<ele>272.6</ele>
<time>2024-05-12T13:23:08Z</time>
</trkpt>
<trkpt lat="48.80709453485906" lon="9.527643201872706">
<ele>272.6</ele>
<time>2024-05-12T13:23:09Z</time>
</trkpt>
<trkpt lat="48.80708305165171" lon="9.527603136375546">
<ele>272.6</ele>
<time>2024-05-12T13:23:10Z</time>
</trkpt>
<trkpt lat="48.80707542411983" lon="9.527564998716116">
<ele>272.6</ele>
<time>2024-05-12T13:23:11Z</time>
</trkpt>
<trkpt lat="48.807067796587944" lon="9.527526777237654">
<ele>272.4</ele>
<time>2024-05-12T13:23:12Z</time>
</trkpt>
<trkpt lat="48.80706016905606" lon="9.527486795559524">
<ele>272.4</ele>
<time>2024-05-12T13:23:13Z</time>
</trkpt>
<trkpt lat="48.807048769667745" lon="9.527446730062366">
<ele>272.2</ele>
<time>2024-05-12T13:23:14Z</time>
</trkpt>
<trkpt lat="48.80704114213586" lon="9.527409514412284">
<ele>272.2</ele>
<time>2024-05-12T13:23:15Z</time>
</trkpt>
<trkpt lat="48.8070372864604" lon="9.52737514860928">
<ele>272.2</ele>
<time>2024-05-12T13:23:16Z</time>
</trkpt>
<trkpt lat="48.80703351460397" lon="9.527339860796928">
<ele>272</ele>
<time>2024-05-12T13:23:17Z</time>
</trkpt>
<trkpt lat="48.80702965892851" lon="9.5272998791188">
<ele>271.8</ele>
<time>2024-05-12T13:23:18Z</time>
</trkpt>
<trkpt lat="48.80702203139663" lon="9.527263585478067">
<ele>271.8</ele>
<time>2024-05-12T13:23:19Z</time>
</trkpt>
<trkpt lat="48.80702203139663" lon="9.527231147512794">
<ele>271.8</ele>
<time>2024-05-12T13:23:20Z</time>
</trkpt>
<trkpt lat="48.807025887072086" lon="9.527206420898438">
<ele>271.8</ele>
<time>2024-05-12T13:23:21Z</time>
</trkpt>
<trkpt lat="48.80702203139663" lon="9.527183454483747">
<ele>271.8</ele>
<time>2024-05-12T13:23:22Z</time>
</trkpt>
<trkpt lat="48.80701440386474" lon="9.527154872193933">
<ele>271.8</ele>
<time>2024-05-12T13:23:23Z</time>
</trkpt>
<trkpt lat="48.807006776332855" lon="9.527128217741849">
<ele>271.8</ele>
<time>2024-05-12T13:23:24Z</time>
</trkpt>
<trkpt lat="48.807006776332855" lon="9.52710340730846">
<ele>271.8</ele>
<time>2024-05-12T13:23:25Z</time>
</trkpt>
<trkpt lat="48.80700300447643" lon="9.527072897180917">
<ele>272</ele>
<time>2024-05-12T13:23:26Z</time>
</trkpt>
<trkpt lat="48.80699914880097" lon="9.527038531377912">
<ele>272</ele>
<time>2024-05-12T13:23:27Z</time>
</trkpt>
<trkpt lat="48.80699537694454" lon="9.527007099241018">
<ele>272.2</ele>
<time>2024-05-12T13:23:28Z</time>
</trkpt>
<trkpt lat="48.80699537694454" lon="9.52698128297925">
<ele>272.2</ele>
<time>2024-05-12T13:23:29Z</time>
</trkpt>
<trkpt lat="48.80700300447643" lon="9.526954628527164">
<ele>272.2</ele>
<time>2024-05-12T13:23:30Z</time>
</trkpt>
<trkpt lat="48.807010632008314" lon="9.526934595778584">
<ele>272.4</ele>
<time>2024-05-12T13:23:31Z</time>
</trkpt>
<trkpt lat="48.80702203139663" lon="9.526927890256047">
<ele>272.4</ele>
<time>2024-05-12T13:23:32Z</time>
</trkpt>
<trkpt lat="48.8070372864604" lon="9.52692026272416">
<ele>272.6</ele>
<time>2024-05-12T13:23:33Z</time>
</trkpt>
<trkpt lat="48.807048769667745" lon="9.526914563030005">
<ele>272.8</ele>
<time>2024-05-12T13:23:34Z</time>
</trkpt>
<trkpt lat="48.80705639719963" lon="9.526898302137852">
<ele>273</ele>
<time>2024-05-12T13:23:35Z</time>
</trkpt>
<trkpt lat="48.80706402473152" lon="9.526887824758887">
<ele>273</ele>
<time>2024-05-12T13:23:36Z</time>
</trkpt>
<trkpt lat="48.8070716522634" lon="9.526874497532845">
<ele>273.2</ele>
<time>2024-05-12T13:23:37Z</time>
</trkpt>
<trkpt lat="48.80707542411983" lon="9.526855386793612">
<ele>273.4</ele>
<time>2024-05-12T13:23:38Z</time>
</trkpt>
<trkpt lat="48.80707927979529" lon="9.526836359873414">
<ele>273.6</ele>
<time>2024-05-12T13:23:39Z</time>
</trkpt>
<trkpt lat="48.8070906791836" lon="9.526818254962564">
<ele>273.6</ele>
<time>2024-05-12T13:23:40Z</time>
</trkpt>
<trkpt lat="48.80709453485906" lon="9.526795372366903">
<ele>273.8</ele>
<time>2024-05-12T13:23:41Z</time>
</trkpt>
<trkpt lat="48.8070906791836" lon="9.526773411780596">
<ele>273.8</ele>
<time>2024-05-12T13:23:42Z</time>
</trkpt>
<trkpt lat="48.8070906791836" lon="9.526760084554551">
<ele>274</ele>
<time>2024-05-12T13:23:43Z</time>
</trkpt>
<trkpt lat="48.80708305165171" lon="9.526741979643704">
<ele>274</ele>
<time>2024-05-12T13:23:44Z</time>
</trkpt>
<trkpt lat="48.80707927979529" lon="9.526721946895124">
<ele>274</ele>
<time>2024-05-12T13:23:45Z</time>
</trkpt>
<trkpt lat="48.80706402473152" lon="9.526699986308811">
<ele>274.2</ele>
<time>2024-05-12T13:23:46Z</time>
</trkpt>
<trkpt lat="48.80705639719963" lon="9.526681881397964">
<ele>274.2</ele>
<time>2024-05-12T13:23:47Z</time>
</trkpt>
<trkpt lat="48.80705254152417" lon="9.526670398190618">
<ele>274.2</ele>
<time>2024-05-12T13:23:48Z</time>
</trkpt>
<trkpt lat="48.80704114213586" lon="9.526643743738532">
<ele>274.4</ele>
<time>2024-05-12T13:23:49Z</time>
</trkpt>
<trkpt lat="48.80702965892851" lon="9.5266246329993">
<ele>274.4</ele>
<time>2024-05-12T13:23:50Z</time>
</trkpt>
<trkpt lat="48.80703351460397" lon="9.526601750403644">
<ele>274.4</ele>
<time>2024-05-12T13:23:51Z</time>
</trkpt>
<trkpt lat="48.80703351460397" lon="9.526571240276098">
<ele>274.6</ele>
<time>2024-05-12T13:23:52Z</time>
</trkpt>
<trkpt lat="48.8070372864604" lon="9.526537880301476">
<ele>274.8</ele>
<time>2024-05-12T13:23:53Z</time>
</trkpt>
<trkpt lat="48.807044913992286" lon="9.52650443650782">
<ele>274.8</ele>
<time>2024-05-12T13:23:54Z</time>
</trkpt>
<trkpt lat="48.80705254152417" lon="9.526479709893463">
<ele>274.8</ele>
<time>2024-05-12T13:23:55Z</time>
</trkpt>
<trkpt lat="48.80706016905606" lon="9.526459677144883">
<ele>274.8</ele>
<time>2024-05-12T13:23:56Z</time>
</trkpt>
<trkpt lat="48.807067796587944" lon="9.526438638567924">
<ele>275</ele>
<time>2024-05-12T13:23:57Z</time>
</trkpt>
<trkpt lat="48.80707542411983" lon="9.526423383504152">
<ele>275</ele>
<time>2024-05-12T13:23:58Z</time>
</trkpt>
<trkpt lat="48.80707927979529" lon="9.526406284421682">
<ele>275</ele>
<time>2024-05-12T13:23:59Z</time>
</trkpt>
<trkpt lat="48.80708305165171" lon="9.526394801214336">
<ele>275</ele>
<time>2024-05-12T13:24:00Z</time>
</trkpt>
<trkpt lat="48.80708305165171" lon="9.526366218924522">
<ele>275</ele>
<time>2024-05-12T13:24:01Z</time>
</trkpt>
<trkpt lat="48.8070906791836" lon="9.526346186175942">
<ele>274.8</ele>
<time>2024-05-12T13:24:02Z</time>
</trkpt>
<trkpt lat="48.80709830671549" lon="9.526332775130868">
<ele>274.8</ele>
<time>2024-05-12T13:24:03Z</time>
</trkpt>
<trkpt lat="48.80709830671549" lon="9.526314670220016">
<ele>274.8</ele>
<time>2024-05-12T13:24:04Z</time>
</trkpt>
<trkpt lat="48.80710216239095" lon="9.526308048516512">
<ele>274.8</ele>
<time>2024-05-12T13:24:05Z</time>
</trkpt>
<trkpt lat="48.80710216239095" lon="9.526305198669434">
<ele>274.8</ele>
<time>2024-05-12T13:24:06Z</time>
</trkpt>
<trkpt lat="48.80709830671549" lon="9.526298493146896">
<ele>274.8</ele>
<time>2024-05-12T13:24:07Z</time>
</trkpt>
<trkpt lat="48.80709830671549" lon="9.526296565309169">
<ele>274.8</ele>
<time>2024-05-12T13:24:08Z</time>
</trkpt>
<trkpt lat="48.80709830671549" lon="9.52629178762436">
<ele>274.8</ele>
<time>2024-05-12T13:24:09Z</time>
</trkpt>
<trkpt lat="48.80709830671549" lon="9.526273682713509">
<ele>274.8</ele>
<time>2024-05-12T13:24:10Z</time>
</trkpt>
<trkpt lat="48.80709453485906" lon="9.526266977190971">
<ele>274.8</ele>
<time>2024-05-12T13:24:11Z</time>
</trkpt>
<trkpt lat="48.80709453485906" lon="9.526260355487466">
<ele>274.8</ele>
<time>2024-05-12T13:24:12Z</time>
</trkpt>
<trkpt lat="48.807086907327175" lon="9.526253649964929">
<ele>274.8</ele>
<time>2024-05-12T13:24:13Z</time>
</trkpt>
<trkpt lat="48.80708305165171" lon="9.526246944442391">
<ele>274.6</ele>
<time>2024-05-12T13:24:14Z</time>
</trkpt>
<trkpt lat="48.80708305165171" lon="9.526241244748237">
<ele>274.6</ele>
<time>2024-05-12T13:24:15Z</time>
</trkpt>
<trkpt lat="48.80707542411983" lon="9.526240322738886">
<ele>274.6</ele>
<time>2024-05-12T13:24:16Z</time>
</trkpt>
<trkpt lat="48.80707542411983" lon="9.526241244748237">
<ele>274.6</ele>
<time>2024-05-12T13:24:17Z</time>
</trkpt>
<trkpt lat="48.807067796587944" lon="9.526243172585964">
<ele>274.6</ele>
<time>2024-05-12T13:24:18Z</time>
</trkpt>
<trkpt lat="48.80706402473152" lon="9.526243172585964">
<ele>274.6</ele>
<time>2024-05-12T13:24:19Z</time>
</trkpt>
<trkpt lat="48.80706016905606" lon="9.526243172585964">
<ele>274.6</ele>
<time>2024-05-12T13:24:20Z</time>
</trkpt>
<trkpt lat="48.80706016905606" lon="9.526241244748237">
<ele>274.8</ele>
<time>2024-05-12T13:24:21Z</time>
</trkpt>
<trkpt lat="48.80705639719963" lon="9.526243172585964">
<ele>274.8</ele>
<time>2024-05-12T13:24:22Z</time>
</trkpt>
<trkpt lat="48.80705639719963" lon="9.526241244748237">
<ele>274.8</ele>
<time>2024-05-12T13:24:23Z</time>
</trkpt>
<trkpt lat="48.80705254152417" lon="9.526245100423694">
<ele>274.8</ele>
<time>2024-05-12T13:24:24Z</time>
</trkpt>
<trkpt lat="48.807044913992286" lon="9.526246944442391">
<ele>274.8</ele>
<time>2024-05-12T13:24:26Z</time>
</trkpt>
<trkpt lat="48.807044913992286" lon="9.526247950270772">
<ele>274.6</ele>
<time>2024-05-12T13:24:27Z</time>
</trkpt>
<trkpt lat="48.80704114213586" lon="9.526247950270772">
<ele>274.6</ele>
<time>2024-05-12T13:24:28Z</time>
</trkpt>
<trkpt lat="48.80704114213586" lon="9.526246944442391">
<ele>274.4</ele>
<time>2024-05-12T13:24:29Z</time>
</trkpt>
<trkpt lat="48.8070372864604" lon="9.526243172585964">
<ele>274.2</ele>
<time>2024-05-12T13:24:30Z</time>
</trkpt>
<trkpt lat="48.80703351460397" lon="9.526246944442391">
<ele>274</ele>
<time>2024-05-12T13:24:31Z</time>
</trkpt>
<trkpt lat="48.80703351460397" lon="9.526245100423694">
<ele>273.6</ele>
<time>2024-05-12T13:24:32Z</time>
</trkpt>
<trkpt lat="48.80703351460397" lon="9.526240322738886">
<ele>273.4</ele>
<time>2024-05-12T13:24:33Z</time>
</trkpt>
<trkpt lat="48.807025887072086" lon="9.526227917522192">
<ele>273</ele>
<time>2024-05-12T13:24:34Z</time>
</trkpt>
<trkpt lat="48.80702203139663" lon="9.526226995512843">
<ele>272.8</ele>
<time>2024-05-12T13:24:35Z</time>
</trkpt>
<trkpt lat="48.8070182595402" lon="9.52622984535992">
<ele>272.6</ele>
<time>2024-05-12T13:24:37Z</time>
</trkpt>
<trkpt lat="48.8070182595402" lon="9.526233617216349">
<ele>272.6</ele>
<time>2024-05-12T13:24:38Z</time>
</trkpt>
<trkpt lat="48.80701440386474" lon="9.526240322738886">
<ele>272.4</ele>
<time>2024-05-12T13:24:39Z</time>
</trkpt>
<trkpt lat="48.807010632008314" lon="9.526241244748237">
<ele>272.4</ele>
<time>2024-05-12T13:24:40Z</time>
</trkpt>
<trkpt lat="48.80699537694454" lon="9.526247950270772">
<ele>272.2</ele>
<time>2024-05-12T13:24:41Z</time>
</trkpt>
<trkpt lat="48.80699537694454" lon="9.526253649964929">
<ele>272</ele>
<time>2024-05-12T13:24:42Z</time>
</trkpt>
<trkpt lat="48.80699537694454" lon="9.526256499812009">
<ele>272</ele>
<time>2024-05-12T13:24:44Z</time>
</trkpt>
<trkpt lat="48.80699152126908" lon="9.526258427649736">
<ele>271.8</ele>
<time>2024-05-12T13:24:45Z</time>
</trkpt>
<trkpt lat="48.80699152126908" lon="9.5262498781085">
<ele>271.8</ele>
<time>2024-05-12T13:24:46Z</time>
</trkpt>
<trkpt lat="48.80699537694454" lon="9.526240322738886">
<ele>271.6</ele>
<time>2024-05-12T13:24:47Z</time>
</trkpt>
<trkpt lat="48.80699914880097" lon="9.526223139837384">
<ele>271.6</ele>
<time>2024-05-12T13:24:48Z</time>
</trkpt>
<trkpt lat="48.80700300447643" lon="9.526223139837384">
<ele>271.4</ele>
<time>2024-05-12T13:24:49Z</time>
</trkpt>
<trkpt lat="48.807010632008314" lon="9.526226995512843">
<ele>271.2</ele>
<time>2024-05-12T13:24:50Z</time>
</trkpt>
<trkpt lat="48.80701440386474" lon="9.526226995512843">
<ele>271</ele>
<time>2024-05-12T13:24:51Z</time>
</trkpt>
<trkpt lat="48.8070182595402" lon="9.526221211999657">
<ele>270.8</ele>
<time>2024-05-12T13:24:52Z</time>
</trkpt>
<trkpt lat="48.807025887072086" lon="9.526216434314849">
<ele>270.6</ele>
<time>2024-05-12T13:24:53Z</time>
</trkpt>
<trkpt lat="48.807025887072086" lon="9.52621459029615">
<ele>270.4</ele>
<time>2024-05-12T13:24:54Z</time>
</trkpt>
<trkpt lat="48.807025887072086" lon="9.526223139837384">
<ele>270.2</ele>
<time>2024-05-12T13:24:55Z</time>
</trkpt>
<trkpt lat="48.80699152126908" lon="9.526233617216349">
<ele>270</ele>
<time>2024-05-12T13:24:56Z</time>
</trkpt>
<trkpt lat="48.80696101114154" lon="9.526245100423694">
<ele>269.8</ele>
<time>2024-05-12T13:24:57Z</time>
</trkpt>
<trkpt lat="48.80697626620531" lon="9.52581494115293">
<ele>269.8</ele>
<time>2024-05-12T13:25:09Z</time>
</trkpt>
<trkpt lat="48.80688088014722" lon="9.526001857593656">
<ele>269.8</ele>
<time>2024-05-12T13:25:10Z</time>
</trkpt>
<trkpt lat="48.80688473582268" lon="9.526006635278463">
<ele>269.8</ele>
<time>2024-05-12T13:25:11Z</time>
</trkpt>
<trkpt lat="48.80690376274288" lon="9.525971347466111">
<ele>269.8</ele>
<time>2024-05-12T13:25:12Z</time>
</trkpt>
<trkpt lat="48.806930501013994" lon="9.525968497619033">
<ele>269.8</ele>
<time>2024-05-12T13:25:13Z</time>
</trkpt>
<trkpt lat="48.80693812854588" lon="9.525961875915527">
<ele>269.8</ele>
<time>2024-05-12T13:25:14Z</time>
</trkpt>
<trkpt lat="48.80694198422134" lon="9.525950392708182">
<ele>269.8</ele>
<time>2024-05-12T13:25:15Z</time>
</trkpt>
<trkpt lat="48.806949611753225" lon="9.525946537032723">
<ele>269.8</ele>
<time>2024-05-12T13:25:16Z</time>
</trkpt>
<trkpt lat="48.80695338360965" lon="9.525931281968951">
<ele>269.8</ele>
<time>2024-05-12T13:25:17Z</time>
</trkpt>
<trkpt lat="48.80696101114154" lon="9.525897921994328">
<ele>270</ele>
<time>2024-05-12T13:25:18Z</time>
</trkpt>
<trkpt lat="48.806964866817" lon="9.525908399373291">
<ele>270</ele>
<time>2024-05-12T13:25:19Z</time>
</trkpt>
<trkpt lat="48.806964866817" lon="9.525899849832058">
<ele>270.2</ele>
<time>2024-05-12T13:25:20Z</time>
</trkpt>
<trkpt lat="48.806964866817" lon="9.525897921994328">
<ele>270.2</ele>
<time>2024-05-12T13:25:21Z</time>
</trkpt>
<trkpt lat="48.806964866817" lon="9.52589507214725">
<ele>270.4</ele>
<time>2024-05-12T13:25:22Z</time>
</trkpt>
<trkpt lat="48.806964866817" lon="9.525899849832058">
<ele>270.4</ele>
<time>2024-05-12T13:25:23Z</time>
</trkpt>
<trkpt lat="48.806964866817" lon="9.525901777669787">
<ele>270.6</ele>
<time>2024-05-12T13:25:25Z</time>
</trkpt>
<trkpt lat="48.80696101114154" lon="9.525903621688483">
<ele>270.8</ele>
<time>2024-05-12T13:25:26Z</time>
</trkpt>
<trkpt lat="48.80696101114154" lon="9.525897921994328">
<ele>271</ele>
<time>2024-05-12T13:25:28Z</time>
</trkpt>
<trkpt lat="48.80695723928511" lon="9.525897921994328">
<ele>271.2</ele>
<time>2024-05-12T13:25:29Z</time>
</trkpt>
<trkpt lat="48.80696101114154" lon="9.52589507214725">
<ele>271.4</ele>
<time>2024-05-12T13:25:30Z</time>
</trkpt>
<trkpt lat="48.80695723928511" lon="9.52589507214725">
<ele>271.6</ele>
<time>2024-05-12T13:25:31Z</time>
</trkpt>
<trkpt lat="48.80695338360965" lon="9.52589314430952">
<ele>271.8</ele>
<time>2024-05-12T13:25:32Z</time>
</trkpt>
<trkpt lat="48.806949611753225" lon="9.52589314430952">
<ele>271.8</ele>
<time>2024-05-12T13:25:34Z</time>
</trkpt>
<trkpt lat="48.80695723928511" lon="9.52587503939867">
<ele>272</ele>
<time>2024-05-12T13:25:35Z</time>
</trkpt>
<trkpt lat="48.80695723928511" lon="9.5258769672364">
<ele>272.2</ele>
<time>2024-05-12T13:25:36Z</time>
</trkpt>
<trkpt lat="48.80695723928511" lon="9.52587503939867">
<ele>272.4</ele>
<time>2024-05-12T13:25:38Z</time>
</trkpt>
<trkpt lat="48.80696101114154" lon="9.5258769672364">
<ele>272.4</ele>
<time>2024-05-12T13:25:39Z</time>
</trkpt>
<trkpt lat="48.80696101114154" lon="9.525877889245749">
<ele>272.6</ele>
<time>2024-05-12T13:25:40Z</time>
</trkpt>
<trkpt lat="48.80696101114154" lon="9.525881744921207">
<ele>272.8</ele>
<time>2024-05-12T13:25:41Z</time>
</trkpt>
<trkpt lat="48.806964866817" lon="9.525881744921207">
<ele>272.8</ele>
<time>2024-05-12T13:25:42Z</time>
</trkpt>
<trkpt lat="48.806964866817" lon="9.525883672758937">
<ele>273</ele>
<time>2024-05-12T13:25:43Z</time>
</trkpt>
<trkpt lat="48.806964866817" lon="9.525884594768286">
<ele>273</ele>
<time>2024-05-12T13:25:44Z</time>
</trkpt>
<trkpt lat="48.806964866817" lon="9.525886522606015">
<ele>273</ele>
<time>2024-05-12T13:25:45Z</time>
</trkpt>
<trkpt lat="48.806964866817" lon="9.525888366624711">
<ele>273.2</ele>
<time>2024-05-12T13:25:47Z</time>
</trkpt>
<trkpt lat="48.806964866817" lon="9.525888366624711">
<ele>273.2</ele>
</trkpt>
</trkseg>
</trk>
</gpx>